<?xml version="1.0" encoding="UTF-8" standalone="no" ?>
<gpx xmlns="http://www.topografix.com/GPX/1/1" xmlns:xsi="http://www.w3.org/2001/XMLSchema-instance" xsi:schemaLocation="http://www.topografix.com/GPX/1/1 http://www.topografix.com/GPX/1/1/gpx.xsd" version="1.1" creator="VisuGPX - https://www.visugpx.com">
  <metadata>
    <name>parcours GELAC OISE 2011</name>
    <desc><![CDATA[rando dans le tarn proche de LABASTIDE GABAUSSE; ]]></desc>
  </metadata>
  <trk>
    <name><![CDATA[Lap 1]]></name>
    <trkseg>
    </trkseg>
  </trk>
  <trk>
    <name><![CDATA[Lap 2]]></name>
    <trkseg>
      <trkpt lat="44.06016" lon="2.09514">
        <ele>318</ele>
        <time>2011-03-26T13:00:22Z</time>
      </trkpt>
      <trkpt lat="44.06016" lon="2.09514">
        <ele>318</ele>
        <time>2011-03-26T13:00:43Z</time>
      </trkpt>
      <trkpt lat="44.06016" lon="2.09514">
        <ele>318</ele>
        <time>2011-03-26T13:00:44Z</time>
      </trkpt>
      <trkpt lat="44.06016" lon="2.09514">
        <ele>318</ele>
        <time>2011-03-26T13:01:01Z</time>
      </trkpt>
      <trkpt lat="44.06016" lon="2.09518">
        <ele>318</ele>
        <time>2011-03-26T13:01:39Z</time>
      </trkpt>
      <trkpt lat="44.06016" lon="2.09518">
        <ele>318</ele>
        <time>2011-03-26T13:01:40Z</time>
      </trkpt>
      <trkpt lat="44.06016" lon="2.09524">
        <ele>318</ele>
        <time>2011-03-26T13:01:50Z</time>
      </trkpt>
      <trkpt lat="44.06016" lon="2.09524">
        <ele>318</ele>
        <time>2011-03-26T13:01:51Z</time>
      </trkpt>
      <trkpt lat="44.06019" lon="2.09522">
        <ele>318</ele>
        <time>2011-03-26T13:02:12Z</time>
      </trkpt>
      <trkpt lat="44.06019" lon="2.09522">
        <ele>318</ele>
        <time>2011-03-26T13:02:14Z</time>
      </trkpt>
      <trkpt lat="44.06024" lon="2.09525">
        <ele>318</ele>
        <time>2011-03-26T13:03:23Z</time>
      </trkpt>
      <trkpt lat="44.06024" lon="2.09525">
        <ele>318</ele>
        <time>2011-03-26T13:03:26Z</time>
      </trkpt>
      <trkpt lat="44.0602" lon="2.09529">
        <ele>318</ele>
        <time>2011-03-26T13:03:37Z</time>
      </trkpt>
      <trkpt lat="44.0602" lon="2.09529">
        <ele>318</ele>
        <time>2011-03-26T13:03:38Z</time>
      </trkpt>
      <trkpt lat="44.06016" lon="2.09527">
        <ele>318</ele>
        <time>2011-03-26T13:03:42Z</time>
      </trkpt>
      <trkpt lat="44.06016" lon="2.09519">
        <ele>318</ele>
        <time>2011-03-26T13:03:52Z</time>
      </trkpt>
      <trkpt lat="44.0602" lon="2.09516">
        <ele>318</ele>
        <time>2011-03-26T13:03:57Z</time>
      </trkpt>
      <trkpt lat="44.06025" lon="2.09518">
        <ele>318</ele>
        <time>2011-03-26T13:04:27Z</time>
      </trkpt>
      <trkpt lat="44.06019" lon="2.09516">
        <ele>318</ele>
        <time>2011-03-26T13:05:52Z</time>
      </trkpt>
      <trkpt lat="44.06014" lon="2.09516">
        <ele>318</ele>
        <time>2011-03-26T13:06:06Z</time>
      </trkpt>
      <trkpt lat="44.06014" lon="2.09516">
        <ele>318</ele>
        <time>2011-03-26T13:06:18Z</time>
      </trkpt>
      <trkpt lat="44.06018" lon="2.09513">
        <ele>318</ele>
        <time>2011-03-26T13:06:41Z</time>
      </trkpt>
      <trkpt lat="44.06018" lon="2.09513">
        <ele>318</ele>
        <time>2011-03-26T13:06:42Z</time>
      </trkpt>
      <trkpt lat="44.06012" lon="2.09511">
        <ele>318</ele>
        <time>2011-03-26T13:07:42Z</time>
      </trkpt>
      <trkpt lat="44.06012" lon="2.09511">
        <ele>318</ele>
        <time>2011-03-26T13:07:43Z</time>
      </trkpt>
      <trkpt lat="44.06012" lon="2.09511">
        <ele>318</ele>
        <time>2011-03-26T13:07:44Z</time>
      </trkpt>
      <trkpt lat="44.06007" lon="2.0951">
        <ele>318</ele>
        <time>2011-03-26T13:08:08Z</time>
      </trkpt>
      <trkpt lat="44.06002" lon="2.09511">
        <ele>318</ele>
        <time>2011-03-26T13:08:11Z</time>
      </trkpt>
      <trkpt lat="44.06002" lon="2.09511">
        <ele>318</ele>
        <time>2011-03-26T13:08:12Z</time>
      </trkpt>
      <trkpt lat="44.05997" lon="2.09512">
        <ele>318</ele>
        <time>2011-03-26T13:08:14Z</time>
      </trkpt>
      <trkpt lat="44.05997" lon="2.09512">
        <ele>318</ele>
        <time>2011-03-26T13:08:17Z</time>
      </trkpt>
      <trkpt lat="44.06003" lon="2.09513">
        <ele>318</ele>
        <time>2011-03-26T13:08:28Z</time>
      </trkpt>
      <trkpt lat="44.06008" lon="2.09512">
        <ele>318</ele>
        <time>2011-03-26T13:08:32Z</time>
      </trkpt>
      <trkpt lat="44.06008" lon="2.09512">
        <ele>318</ele>
        <time>2011-03-26T13:08:34Z</time>
      </trkpt>
      <trkpt lat="44.06012" lon="2.09512">
        <ele>318</ele>
        <time>2011-03-26T13:08:38Z</time>
      </trkpt>
      <trkpt lat="44.06016" lon="2.09515">
        <ele>318</ele>
        <time>2011-03-26T13:09:08Z</time>
      </trkpt>
      <trkpt lat="44.06016" lon="2.09515">
        <ele>318</ele>
        <time>2011-03-26T13:09:10Z</time>
      </trkpt>
      <trkpt lat="44.06018" lon="2.09521">
        <ele>318</ele>
        <time>2011-03-26T13:09:32Z</time>
      </trkpt>
      <trkpt lat="44.0602" lon="2.09518">
        <ele>318</ele>
        <time>2011-03-26T13:11:10Z</time>
      </trkpt>
      <trkpt lat="44.06019" lon="2.09525">
        <ele>318</ele>
        <time>2011-03-26T13:12:41Z</time>
      </trkpt>
      <trkpt lat="44.0602" lon="2.09525">
        <ele>318</ele>
        <time>2011-03-26T13:12:43Z</time>
      </trkpt>
      <trkpt lat="44.0602" lon="2.09519">
        <ele>318</ele>
        <time>2011-03-26T13:13:10Z</time>
      </trkpt>
      <trkpt lat="44.06019" lon="2.09515">
        <ele>318</ele>
        <time>2011-03-26T13:13:28Z</time>
      </trkpt>
      <trkpt lat="44.06024" lon="2.0952">
        <ele>318</ele>
        <time>2011-03-26T13:13:43Z</time>
      </trkpt>
      <trkpt lat="44.06021" lon="2.09515">
        <ele>318</ele>
        <time>2011-03-26T13:14:14Z</time>
      </trkpt>
      <trkpt lat="44.06017" lon="2.09518">
        <ele>318</ele>
        <time>2011-03-26T13:15:31Z</time>
      </trkpt>
      <trkpt lat="44.06018" lon="2.09519">
        <ele>318</ele>
        <time>2011-03-26T13:15:40Z</time>
      </trkpt>
      <trkpt lat="44.0602" lon="2.09522">
        <ele>318</ele>
        <time>2011-03-26T13:15:57Z</time>
      </trkpt>
      <trkpt lat="44.0602" lon="2.09523">
        <ele>318</ele>
        <time>2011-03-26T13:16:00Z</time>
      </trkpt>
      <trkpt lat="44.06018" lon="2.09523">
        <ele>318</ele>
        <time>2011-03-26T13:16:23Z</time>
      </trkpt>
      <trkpt lat="44.06017" lon="2.09523">
        <ele>318</ele>
        <time>2011-03-26T13:16:25Z</time>
      </trkpt>
      <trkpt lat="44.06016" lon="2.09518">
        <ele>318</ele>
        <time>2011-03-26T13:16:33Z</time>
      </trkpt>
      <trkpt lat="44.06019" lon="2.09516">
        <ele>318</ele>
        <time>2011-03-26T13:16:35Z</time>
      </trkpt>
      <trkpt lat="44.0602" lon="2.09519">
        <ele>318</ele>
        <time>2011-03-26T13:16:39Z</time>
      </trkpt>
      <trkpt lat="44.06019" lon="2.09514">
        <ele>318</ele>
        <time>2011-03-26T13:16:44Z</time>
      </trkpt>
      <trkpt lat="44.06017" lon="2.0951">
        <ele>318</ele>
        <time>2011-03-26T13:16:46Z</time>
      </trkpt>
      <trkpt lat="44.06016" lon="2.09509">
        <ele>318</ele>
        <time>2011-03-26T13:16:47Z</time>
      </trkpt>
      <trkpt lat="44.06013" lon="2.09508">
        <ele>318</ele>
        <time>2011-03-26T13:16:49Z</time>
      </trkpt>
      <trkpt lat="44.0601" lon="2.09509">
        <ele>318</ele>
        <time>2011-03-26T13:16:51Z</time>
      </trkpt>
      <trkpt lat="44.06008" lon="2.09512">
        <ele>318</ele>
        <time>2011-03-26T13:16:53Z</time>
      </trkpt>
      <trkpt lat="44.06007" lon="2.09513">
        <ele>318</ele>
        <time>2011-03-26T13:16:55Z</time>
      </trkpt>
      <trkpt lat="44.06004" lon="2.09516">
        <ele>318</ele>
        <time>2011-03-26T13:16:58Z</time>
      </trkpt>
      <trkpt lat="44.06" lon="2.09518">
        <ele>318</ele>
        <time>2011-03-26T13:17:00Z</time>
      </trkpt>
      <trkpt lat="44.05998" lon="2.09521">
        <ele>318</ele>
        <time>2011-03-26T13:17:02Z</time>
      </trkpt>
      <trkpt lat="44.05997" lon="2.09524">
        <ele>318</ele>
        <time>2011-03-26T13:17:04Z</time>
      </trkpt>
      <trkpt lat="44.05995" lon="2.09526">
        <ele>318</ele>
        <time>2011-03-26T13:17:06Z</time>
      </trkpt>
      <trkpt lat="44.05993" lon="2.09529">
        <ele>318</ele>
        <time>2011-03-26T13:17:08Z</time>
      </trkpt>
      <trkpt lat="44.05991" lon="2.09532">
        <ele>318</ele>
        <time>2011-03-26T13:17:10Z</time>
      </trkpt>
      <trkpt lat="44.05988" lon="2.09535">
        <ele>318</ele>
        <time>2011-03-26T13:17:12Z</time>
      </trkpt>
      <trkpt lat="44.05986" lon="2.09537">
        <ele>318</ele>
        <time>2011-03-26T13:17:14Z</time>
      </trkpt>
      <trkpt lat="44.05984" lon="2.0954">
        <ele>318</ele>
        <time>2011-03-26T13:17:16Z</time>
      </trkpt>
      <trkpt lat="44.05981" lon="2.09543">
        <ele>323</ele>
        <time>2011-03-26T13:17:19Z</time>
      </trkpt>
      <trkpt lat="44.0598" lon="2.09547">
        <ele>323</ele>
        <time>2011-03-26T13:17:21Z</time>
      </trkpt>
      <trkpt lat="44.05979" lon="2.0955">
        <ele>323</ele>
        <time>2011-03-26T13:17:30Z</time>
      </trkpt>
      <trkpt lat="44.05978" lon="2.09549">
        <ele>323</ele>
        <time>2011-03-26T13:17:31Z</time>
      </trkpt>
      <trkpt lat="44.0598" lon="2.09555">
        <ele>323</ele>
        <time>2011-03-26T13:17:43Z</time>
      </trkpt>
      <trkpt lat="44.05981" lon="2.0955">
        <ele>323</ele>
        <time>2011-03-26T13:18:51Z</time>
      </trkpt>
      <trkpt lat="44.0598" lon="2.09547">
        <ele>323</ele>
        <time>2011-03-26T13:18:54Z</time>
      </trkpt>
      <trkpt lat="44.0598" lon="2.0955">
        <ele>323</ele>
        <time>2011-03-26T13:18:58Z</time>
      </trkpt>
      <trkpt lat="44.05978" lon="2.09553">
        <ele>323</ele>
        <time>2011-03-26T13:19:00Z</time>
      </trkpt>
      <trkpt lat="44.05974" lon="2.09558">
        <ele>323</ele>
        <time>2011-03-26T13:19:07Z</time>
      </trkpt>
      <trkpt lat="44.05972" lon="2.0956">
        <ele>323</ele>
        <time>2011-03-26T13:19:10Z</time>
      </trkpt>
      <trkpt lat="44.05971" lon="2.09563">
        <ele>323</ele>
        <time>2011-03-26T13:19:12Z</time>
      </trkpt>
      <trkpt lat="44.05969" lon="2.09566">
        <ele>323</ele>
        <time>2011-03-26T13:19:14Z</time>
      </trkpt>
      <trkpt lat="44.05968" lon="2.09569">
        <ele>323</ele>
        <time>2011-03-26T13:19:16Z</time>
      </trkpt>
      <trkpt lat="44.05966" lon="2.09573">
        <ele>323</ele>
        <time>2011-03-26T13:19:18Z</time>
      </trkpt>
      <trkpt lat="44.05965" lon="2.09577">
        <ele>323</ele>
        <time>2011-03-26T13:19:20Z</time>
      </trkpt>
      <trkpt lat="44.05964" lon="2.09582">
        <ele>323</ele>
        <time>2011-03-26T13:19:22Z</time>
      </trkpt>
      <trkpt lat="44.05963" lon="2.09586">
        <ele>323</ele>
        <time>2011-03-26T13:19:24Z</time>
      </trkpt>
      <trkpt lat="44.05962" lon="2.09591">
        <ele>323</ele>
        <time>2011-03-26T13:19:25Z</time>
      </trkpt>
      <trkpt lat="44.05961" lon="2.09596">
        <ele>323</ele>
        <time>2011-03-26T13:19:27Z</time>
      </trkpt>
      <trkpt lat="44.0596" lon="2.09602">
        <ele>323</ele>
        <time>2011-03-26T13:19:29Z</time>
      </trkpt>
      <trkpt lat="44.05959" lon="2.09608">
        <ele>323</ele>
        <time>2011-03-26T13:19:31Z</time>
      </trkpt>
      <trkpt lat="44.05958" lon="2.09611">
        <ele>313</ele>
        <time>2011-03-26T13:19:32Z</time>
      </trkpt>
      <trkpt lat="44.05957" lon="2.09614">
        <ele>313</ele>
        <time>2011-03-26T13:19:33Z</time>
      </trkpt>
      <trkpt lat="44.05957" lon="2.09617">
        <ele>313</ele>
        <time>2011-03-26T13:19:34Z</time>
      </trkpt>
      <trkpt lat="44.05956" lon="2.09621">
        <ele>313</ele>
        <time>2011-03-26T13:19:35Z</time>
      </trkpt>
      <trkpt lat="44.05955" lon="2.09624">
        <ele>313</ele>
        <time>2011-03-26T13:19:36Z</time>
      </trkpt>
      <trkpt lat="44.05955" lon="2.09627">
        <ele>319</ele>
        <time>2011-03-26T13:19:37Z</time>
      </trkpt>
      <trkpt lat="44.05954" lon="2.09631">
        <ele>319</ele>
        <time>2011-03-26T13:19:38Z</time>
      </trkpt>
      <trkpt lat="44.05953" lon="2.09634">
        <ele>319</ele>
        <time>2011-03-26T13:19:39Z</time>
      </trkpt>
      <trkpt lat="44.05952" lon="2.09638">
        <ele>319</ele>
        <time>2011-03-26T13:19:40Z</time>
      </trkpt>
      <trkpt lat="44.05951" lon="2.09642">
        <ele>319</ele>
        <time>2011-03-26T13:19:41Z</time>
      </trkpt>
      <trkpt lat="44.0595" lon="2.09646">
        <ele>319</ele>
        <time>2011-03-26T13:19:42Z</time>
      </trkpt>
      <trkpt lat="44.05949" lon="2.09649">
        <ele>319</ele>
        <time>2011-03-26T13:19:43Z</time>
      </trkpt>
      <trkpt lat="44.05947" lon="2.09653">
        <ele>319</ele>
        <time>2011-03-26T13:19:44Z</time>
      </trkpt>
      <trkpt lat="44.05946" lon="2.09656">
        <ele>319</ele>
        <time>2011-03-26T13:19:45Z</time>
      </trkpt>
      <trkpt lat="44.05944" lon="2.0966">
        <ele>319</ele>
        <time>2011-03-26T13:19:46Z</time>
      </trkpt>
      <trkpt lat="44.05942" lon="2.09664">
        <ele>319</ele>
        <time>2011-03-26T13:19:47Z</time>
      </trkpt>
      <trkpt lat="44.0594" lon="2.09668">
        <ele>319</ele>
        <time>2011-03-26T13:19:48Z</time>
      </trkpt>
      <trkpt lat="44.05938" lon="2.09671">
        <ele>319</ele>
        <time>2011-03-26T13:19:49Z</time>
      </trkpt>
      <trkpt lat="44.05935" lon="2.09675">
        <ele>319</ele>
        <time>2011-03-26T13:19:50Z</time>
      </trkpt>
      <trkpt lat="44.05933" lon="2.09678">
        <ele>319</ele>
        <time>2011-03-26T13:19:51Z</time>
      </trkpt>
      <trkpt lat="44.05931" lon="2.09682">
        <ele>319</ele>
        <time>2011-03-26T13:19:52Z</time>
      </trkpt>
      <trkpt lat="44.05928" lon="2.09685">
        <ele>319</ele>
        <time>2011-03-26T13:19:53Z</time>
      </trkpt>
      <trkpt lat="44.05926" lon="2.09689">
        <ele>319</ele>
        <time>2011-03-26T13:19:54Z</time>
      </trkpt>
      <trkpt lat="44.05924" lon="2.09693">
        <ele>319</ele>
        <time>2011-03-26T13:19:55Z</time>
      </trkpt>
      <trkpt lat="44.05921" lon="2.09697">
        <ele>319</ele>
        <time>2011-03-26T13:19:56Z</time>
      </trkpt>
      <trkpt lat="44.05919" lon="2.09701">
        <ele>319</ele>
        <time>2011-03-26T13:19:57Z</time>
      </trkpt>
      <trkpt lat="44.05916" lon="2.09705">
        <ele>319</ele>
        <time>2011-03-26T13:19:58Z</time>
      </trkpt>
      <trkpt lat="44.05912" lon="2.09708">
        <ele>319</ele>
        <time>2011-03-26T13:19:59Z</time>
      </trkpt>
      <trkpt lat="44.05908" lon="2.09711">
        <ele>316</ele>
        <time>2011-03-26T13:20:00Z</time>
      </trkpt>
      <trkpt lat="44.05904" lon="2.09713">
        <ele>316</ele>
        <time>2011-03-26T13:20:01Z</time>
      </trkpt>
      <trkpt lat="44.05898" lon="2.09714">
        <ele>316</ele>
        <time>2011-03-26T13:20:02Z</time>
      </trkpt>
      <trkpt lat="44.05892" lon="2.09717">
        <ele>316</ele>
        <time>2011-03-26T13:20:03Z</time>
      </trkpt>
      <trkpt lat="44.05887" lon="2.09719">
        <ele>316</ele>
        <time>2011-03-26T13:20:04Z</time>
      </trkpt>
      <trkpt lat="44.05882" lon="2.09721">
        <ele>316</ele>
        <time>2011-03-26T13:20:05Z</time>
      </trkpt>
      <trkpt lat="44.05878" lon="2.09724">
        <ele>316</ele>
        <time>2011-03-26T13:20:06Z</time>
      </trkpt>
      <trkpt lat="44.05873" lon="2.09727">
        <ele>319</ele>
        <time>2011-03-26T13:20:07Z</time>
      </trkpt>
      <trkpt lat="44.05869" lon="2.0973">
        <ele>319</ele>
        <time>2011-03-26T13:20:08Z</time>
      </trkpt>
      <trkpt lat="44.05865" lon="2.09733">
        <ele>319</ele>
        <time>2011-03-26T13:20:09Z</time>
      </trkpt>
      <trkpt lat="44.05861" lon="2.09735">
        <ele>319</ele>
        <time>2011-03-26T13:20:10Z</time>
      </trkpt>
      <trkpt lat="44.05856" lon="2.09738">
        <ele>319</ele>
        <time>2011-03-26T13:20:11Z</time>
      </trkpt>
      <trkpt lat="44.05853" lon="2.0974">
        <ele>319</ele>
        <time>2011-03-26T13:20:12Z</time>
      </trkpt>
      <trkpt lat="44.05849" lon="2.09742">
        <ele>319</ele>
        <time>2011-03-26T13:20:13Z</time>
      </trkpt>
      <trkpt lat="44.05846" lon="2.09744">
        <ele>319</ele>
        <time>2011-03-26T13:20:14Z</time>
      </trkpt>
      <trkpt lat="44.05843" lon="2.09746">
        <ele>319</ele>
        <time>2011-03-26T13:20:15Z</time>
      </trkpt>
      <trkpt lat="44.0584" lon="2.09749">
        <ele>319</ele>
        <time>2011-03-26T13:20:16Z</time>
      </trkpt>
      <trkpt lat="44.05838" lon="2.09752">
        <ele>319</ele>
        <time>2011-03-26T13:20:17Z</time>
      </trkpt>
      <trkpt lat="44.05836" lon="2.09754">
        <ele>319</ele>
        <time>2011-03-26T13:20:18Z</time>
      </trkpt>
      <trkpt lat="44.05834" lon="2.09757">
        <ele>319</ele>
        <time>2011-03-26T13:20:19Z</time>
      </trkpt>
      <trkpt lat="44.05831" lon="2.0976">
        <ele>319</ele>
        <time>2011-03-26T13:20:20Z</time>
      </trkpt>
      <trkpt lat="44.05829" lon="2.09762">
        <ele>319</ele>
        <time>2011-03-26T13:20:21Z</time>
      </trkpt>
      <trkpt lat="44.05826" lon="2.09765">
        <ele>319</ele>
        <time>2011-03-26T13:20:22Z</time>
      </trkpt>
      <trkpt lat="44.05823" lon="2.09767">
        <ele>319</ele>
        <time>2011-03-26T13:20:23Z</time>
      </trkpt>
      <trkpt lat="44.0582" lon="2.0977">
        <ele>319</ele>
        <time>2011-03-26T13:20:24Z</time>
      </trkpt>
      <trkpt lat="44.05816" lon="2.09772">
        <ele>319</ele>
        <time>2011-03-26T13:20:25Z</time>
      </trkpt>
      <trkpt lat="44.05813" lon="2.09775">
        <ele>319</ele>
        <time>2011-03-26T13:20:26Z</time>
      </trkpt>
      <trkpt lat="44.0581" lon="2.09778">
        <ele>319</ele>
        <time>2011-03-26T13:20:27Z</time>
      </trkpt>
      <trkpt lat="44.05806" lon="2.09781">
        <ele>319</ele>
        <time>2011-03-26T13:20:28Z</time>
      </trkpt>
      <trkpt lat="44.05803" lon="2.09783">
        <ele>319</ele>
        <time>2011-03-26T13:20:29Z</time>
      </trkpt>
      <trkpt lat="44.058" lon="2.09786">
        <ele>319</ele>
        <time>2011-03-26T13:20:30Z</time>
      </trkpt>
      <trkpt lat="44.05797" lon="2.09789">
        <ele>319</ele>
        <time>2011-03-26T13:20:31Z</time>
      </trkpt>
      <trkpt lat="44.05794" lon="2.09792">
        <ele>317</ele>
        <time>2011-03-26T13:20:32Z</time>
      </trkpt>
      <trkpt lat="44.05791" lon="2.09795">
        <ele>323</ele>
        <time>2011-03-26T13:20:33Z</time>
      </trkpt>
      <trkpt lat="44.05788" lon="2.09798">
        <ele>323</ele>
        <time>2011-03-26T13:20:34Z</time>
      </trkpt>
      <trkpt lat="44.05786" lon="2.09801">
        <ele>323</ele>
        <time>2011-03-26T13:20:35Z</time>
      </trkpt>
      <trkpt lat="44.05782" lon="2.09803">
        <ele>323</ele>
        <time>2011-03-26T13:20:36Z</time>
      </trkpt>
      <trkpt lat="44.0578" lon="2.09806">
        <ele>323</ele>
        <time>2011-03-26T13:20:37Z</time>
      </trkpt>
      <trkpt lat="44.05777" lon="2.09809">
        <ele>323</ele>
        <time>2011-03-26T13:20:38Z</time>
      </trkpt>
      <trkpt lat="44.05774" lon="2.09812">
        <ele>323</ele>
        <time>2011-03-26T13:20:39Z</time>
      </trkpt>
      <trkpt lat="44.05772" lon="2.09815">
        <ele>323</ele>
        <time>2011-03-26T13:20:40Z</time>
      </trkpt>
      <trkpt lat="44.05769" lon="2.09819">
        <ele>323</ele>
        <time>2011-03-26T13:20:41Z</time>
      </trkpt>
      <trkpt lat="44.05766" lon="2.09821">
        <ele>323</ele>
        <time>2011-03-26T13:20:42Z</time>
      </trkpt>
      <trkpt lat="44.05763" lon="2.09825">
        <ele>323</ele>
        <time>2011-03-26T13:20:43Z</time>
      </trkpt>
      <trkpt lat="44.0576" lon="2.09828">
        <ele>323</ele>
        <time>2011-03-26T13:20:44Z</time>
      </trkpt>
      <trkpt lat="44.05756" lon="2.09831">
        <ele>323</ele>
        <time>2011-03-26T13:20:45Z</time>
      </trkpt>
      <trkpt lat="44.05753" lon="2.09834">
        <ele>323</ele>
        <time>2011-03-26T13:20:46Z</time>
      </trkpt>
      <trkpt lat="44.0575" lon="2.09838">
        <ele>323</ele>
        <time>2011-03-26T13:20:47Z</time>
      </trkpt>
      <trkpt lat="44.05747" lon="2.09841">
        <ele>323</ele>
        <time>2011-03-26T13:20:48Z</time>
      </trkpt>
      <trkpt lat="44.05744" lon="2.09844">
        <ele>323</ele>
        <time>2011-03-26T13:20:49Z</time>
      </trkpt>
      <trkpt lat="44.05742" lon="2.09847">
        <ele>323</ele>
        <time>2011-03-26T13:20:50Z</time>
      </trkpt>
      <trkpt lat="44.05739" lon="2.0985">
        <ele>323</ele>
        <time>2011-03-26T13:20:51Z</time>
      </trkpt>
      <trkpt lat="44.05736" lon="2.09853">
        <ele>323</ele>
        <time>2011-03-26T13:20:52Z</time>
      </trkpt>
      <trkpt lat="44.05734" lon="2.09855">
        <ele>323</ele>
        <time>2011-03-26T13:20:53Z</time>
      </trkpt>
      <trkpt lat="44.05731" lon="2.09858">
        <ele>323</ele>
        <time>2011-03-26T13:20:54Z</time>
      </trkpt>
      <trkpt lat="44.05728" lon="2.09861">
        <ele>323</ele>
        <time>2011-03-26T13:20:55Z</time>
      </trkpt>
      <trkpt lat="44.05726" lon="2.09864">
        <ele>323</ele>
        <time>2011-03-26T13:20:56Z</time>
      </trkpt>
      <trkpt lat="44.05724" lon="2.09866">
        <ele>323</ele>
        <time>2011-03-26T13:20:57Z</time>
      </trkpt>
      <trkpt lat="44.05721" lon="2.09869">
        <ele>323</ele>
        <time>2011-03-26T13:20:58Z</time>
      </trkpt>
      <trkpt lat="44.0572" lon="2.09872">
        <ele>323</ele>
        <time>2011-03-26T13:20:59Z</time>
      </trkpt>
      <trkpt lat="44.05717" lon="2.09875">
        <ele>320</ele>
        <time>2011-03-26T13:21:00Z</time>
      </trkpt>
      <trkpt lat="44.05716" lon="2.09879">
        <ele>320</ele>
        <time>2011-03-26T13:21:01Z</time>
      </trkpt>
      <trkpt lat="44.05714" lon="2.09883">
        <ele>320</ele>
        <time>2011-03-26T13:21:02Z</time>
      </trkpt>
      <trkpt lat="44.05713" lon="2.09887">
        <ele>320</ele>
        <time>2011-03-26T13:21:03Z</time>
      </trkpt>
      <trkpt lat="44.05712" lon="2.09891">
        <ele>320</ele>
        <time>2011-03-26T13:21:04Z</time>
      </trkpt>
      <trkpt lat="44.05712" lon="2.09895">
        <ele>320</ele>
        <time>2011-03-26T13:21:05Z</time>
      </trkpt>
      <trkpt lat="44.05713" lon="2.09899">
        <ele>320</ele>
        <time>2011-03-26T13:21:06Z</time>
      </trkpt>
      <trkpt lat="44.05713" lon="2.09904">
        <ele>320</ele>
        <time>2011-03-26T13:21:07Z</time>
      </trkpt>
      <trkpt lat="44.05714" lon="2.09908">
        <ele>320</ele>
        <time>2011-03-26T13:21:08Z</time>
      </trkpt>
      <trkpt lat="44.05715" lon="2.09913">
        <ele>320</ele>
        <time>2011-03-26T13:21:09Z</time>
      </trkpt>
      <trkpt lat="44.05716" lon="2.09918">
        <ele>320</ele>
        <time>2011-03-26T13:21:10Z</time>
      </trkpt>
      <trkpt lat="44.05717" lon="2.09923">
        <ele>320</ele>
        <time>2011-03-26T13:21:11Z</time>
      </trkpt>
      <trkpt lat="44.05718" lon="2.09929">
        <ele>320</ele>
        <time>2011-03-26T13:21:12Z</time>
      </trkpt>
      <trkpt lat="44.05717" lon="2.09934">
        <ele>320</ele>
        <time>2011-03-26T13:21:13Z</time>
      </trkpt>
      <trkpt lat="44.05716" lon="2.09939">
        <ele>320</ele>
        <time>2011-03-26T13:21:14Z</time>
      </trkpt>
      <trkpt lat="44.05713" lon="2.09943">
        <ele>320</ele>
        <time>2011-03-26T13:21:15Z</time>
      </trkpt>
      <trkpt lat="44.0571" lon="2.09947">
        <ele>320</ele>
        <time>2011-03-26T13:21:16Z</time>
      </trkpt>
      <trkpt lat="44.05707" lon="2.09951">
        <ele>327</ele>
        <time>2011-03-26T13:21:17Z</time>
      </trkpt>
      <trkpt lat="44.05704" lon="2.09955">
        <ele>327</ele>
        <time>2011-03-26T13:21:18Z</time>
      </trkpt>
      <trkpt lat="44.057" lon="2.09959">
        <ele>326</ele>
        <time>2011-03-26T13:21:19Z</time>
      </trkpt>
      <trkpt lat="44.05697" lon="2.09962">
        <ele>326</ele>
        <time>2011-03-26T13:21:20Z</time>
      </trkpt>
      <trkpt lat="44.05693" lon="2.09966">
        <ele>326</ele>
        <time>2011-03-26T13:21:21Z</time>
      </trkpt>
      <trkpt lat="44.05689" lon="2.0997">
        <ele>326</ele>
        <time>2011-03-26T13:21:22Z</time>
      </trkpt>
      <trkpt lat="44.05686" lon="2.09973">
        <ele>326</ele>
        <time>2011-03-26T13:21:23Z</time>
      </trkpt>
      <trkpt lat="44.05682" lon="2.09977">
        <ele>326</ele>
        <time>2011-03-26T13:21:24Z</time>
      </trkpt>
      <trkpt lat="44.05679" lon="2.09981">
        <ele>326</ele>
        <time>2011-03-26T13:21:25Z</time>
      </trkpt>
      <trkpt lat="44.05676" lon="2.09984">
        <ele>326</ele>
        <time>2011-03-26T13:21:26Z</time>
      </trkpt>
      <trkpt lat="44.05672" lon="2.09988">
        <ele>326</ele>
        <time>2011-03-26T13:21:27Z</time>
      </trkpt>
      <trkpt lat="44.05669" lon="2.09992">
        <ele>326</ele>
        <time>2011-03-26T13:21:28Z</time>
      </trkpt>
      <trkpt lat="44.05666" lon="2.09996">
        <ele>326</ele>
        <time>2011-03-26T13:21:29Z</time>
      </trkpt>
      <trkpt lat="44.05663" lon="2.1">
        <ele>326</ele>
        <time>2011-03-26T13:21:30Z</time>
      </trkpt>
      <trkpt lat="44.0566" lon="2.10003">
        <ele>326</ele>
        <time>2011-03-26T13:21:31Z</time>
      </trkpt>
      <trkpt lat="44.05657" lon="2.10006">
        <ele>326</ele>
        <time>2011-03-26T13:21:32Z</time>
      </trkpt>
      <trkpt lat="44.05654" lon="2.1001">
        <ele>326</ele>
        <time>2011-03-26T13:21:33Z</time>
      </trkpt>
      <trkpt lat="44.05651" lon="2.10013">
        <ele>326</ele>
        <time>2011-03-26T13:21:34Z</time>
      </trkpt>
      <trkpt lat="44.05648" lon="2.10017">
        <ele>326</ele>
        <time>2011-03-26T13:21:35Z</time>
      </trkpt>
      <trkpt lat="44.05645" lon="2.1002">
        <ele>326</ele>
        <time>2011-03-26T13:21:36Z</time>
      </trkpt>
      <trkpt lat="44.05642" lon="2.10023">
        <ele>326</ele>
        <time>2011-03-26T13:21:37Z</time>
      </trkpt>
      <trkpt lat="44.05639" lon="2.10026">
        <ele>326</ele>
        <time>2011-03-26T13:21:38Z</time>
      </trkpt>
      <trkpt lat="44.05636" lon="2.1003">
        <ele>326</ele>
        <time>2011-03-26T13:21:39Z</time>
      </trkpt>
      <trkpt lat="44.05634" lon="2.10034">
        <ele>326</ele>
        <time>2011-03-26T13:21:40Z</time>
      </trkpt>
      <trkpt lat="44.05631" lon="2.10037">
        <ele>326</ele>
        <time>2011-03-26T13:21:41Z</time>
      </trkpt>
      <trkpt lat="44.05628" lon="2.1004">
        <ele>326</ele>
        <time>2011-03-26T13:21:42Z</time>
      </trkpt>
      <trkpt lat="44.05625" lon="2.10045">
        <ele>326</ele>
        <time>2011-03-26T13:21:43Z</time>
      </trkpt>
      <trkpt lat="44.05623" lon="2.10048">
        <ele>330</ele>
        <time>2011-03-26T13:21:44Z</time>
      </trkpt>
      <trkpt lat="44.0562" lon="2.10052">
        <ele>330</ele>
        <time>2011-03-26T13:21:45Z</time>
      </trkpt>
      <trkpt lat="44.05617" lon="2.10055">
        <ele>330</ele>
        <time>2011-03-26T13:21:46Z</time>
      </trkpt>
      <trkpt lat="44.05615" lon="2.10059">
        <ele>330</ele>
        <time>2011-03-26T13:21:47Z</time>
      </trkpt>
      <trkpt lat="44.05612" lon="2.10062">
        <ele>330</ele>
        <time>2011-03-26T13:21:48Z</time>
      </trkpt>
      <trkpt lat="44.05609" lon="2.10066">
        <ele>330</ele>
        <time>2011-03-26T13:21:49Z</time>
      </trkpt>
      <trkpt lat="44.05605" lon="2.10069">
        <ele>330</ele>
        <time>2011-03-26T13:21:50Z</time>
      </trkpt>
      <trkpt lat="44.05602" lon="2.10072">
        <ele>330</ele>
        <time>2011-03-26T13:21:51Z</time>
      </trkpt>
      <trkpt lat="44.05599" lon="2.10075">
        <ele>330</ele>
        <time>2011-03-26T13:21:52Z</time>
      </trkpt>
      <trkpt lat="44.05595" lon="2.10078">
        <ele>330</ele>
        <time>2011-03-26T13:21:53Z</time>
      </trkpt>
      <trkpt lat="44.05592" lon="2.10081">
        <ele>330</ele>
        <time>2011-03-26T13:21:54Z</time>
      </trkpt>
      <trkpt lat="44.05589" lon="2.10085">
        <ele>330</ele>
        <time>2011-03-26T13:21:55Z</time>
      </trkpt>
      <trkpt lat="44.05585" lon="2.10088">
        <ele>330</ele>
        <time>2011-03-26T13:21:56Z</time>
      </trkpt>
      <trkpt lat="44.05582" lon="2.10091">
        <ele>330</ele>
        <time>2011-03-26T13:21:57Z</time>
      </trkpt>
      <trkpt lat="44.05579" lon="2.10095">
        <ele>330</ele>
        <time>2011-03-26T13:21:58Z</time>
      </trkpt>
      <trkpt lat="44.05576" lon="2.10099">
        <ele>330</ele>
        <time>2011-03-26T13:21:59Z</time>
      </trkpt>
      <trkpt lat="44.05573" lon="2.10103">
        <ele>330</ele>
        <time>2011-03-26T13:22:00Z</time>
      </trkpt>
      <trkpt lat="44.0557" lon="2.10107">
        <ele>330</ele>
        <time>2011-03-26T13:22:01Z</time>
      </trkpt>
      <trkpt lat="44.05566" lon="2.1011">
        <ele>330</ele>
        <time>2011-03-26T13:22:02Z</time>
      </trkpt>
      <trkpt lat="44.05563" lon="2.10114">
        <ele>330</ele>
        <time>2011-03-26T13:22:03Z</time>
      </trkpt>
      <trkpt lat="44.0556" lon="2.10118">
        <ele>330</ele>
        <time>2011-03-26T13:22:04Z</time>
      </trkpt>
      <trkpt lat="44.05557" lon="2.10122">
        <ele>330</ele>
        <time>2011-03-26T13:22:05Z</time>
      </trkpt>
      <trkpt lat="44.05554" lon="2.10126">
        <ele>329</ele>
        <time>2011-03-26T13:22:06Z</time>
      </trkpt>
      <trkpt lat="44.0555" lon="2.1013">
        <ele>329</ele>
        <time>2011-03-26T13:22:07Z</time>
      </trkpt>
      <trkpt lat="44.05547" lon="2.10133">
        <ele>329</ele>
        <time>2011-03-26T13:22:08Z</time>
      </trkpt>
      <trkpt lat="44.05543" lon="2.10137">
        <ele>329</ele>
        <time>2011-03-26T13:22:09Z</time>
      </trkpt>
      <trkpt lat="44.0554" lon="2.10141">
        <ele>330</ele>
        <time>2011-03-26T13:22:10Z</time>
      </trkpt>
      <trkpt lat="44.05537" lon="2.10145">
        <ele>330</ele>
        <time>2011-03-26T13:22:11Z</time>
      </trkpt>
      <trkpt lat="44.05533" lon="2.10149">
        <ele>330</ele>
        <time>2011-03-26T13:22:12Z</time>
      </trkpt>
      <trkpt lat="44.05529" lon="2.10153">
        <ele>330</ele>
        <time>2011-03-26T13:22:13Z</time>
      </trkpt>
      <trkpt lat="44.05526" lon="2.10157">
        <ele>330</ele>
        <time>2011-03-26T13:22:14Z</time>
      </trkpt>
      <trkpt lat="44.05522" lon="2.10161">
        <ele>330</ele>
        <time>2011-03-26T13:22:15Z</time>
      </trkpt>
      <trkpt lat="44.05518" lon="2.10165">
        <ele>330</ele>
        <time>2011-03-26T13:22:16Z</time>
      </trkpt>
      <trkpt lat="44.05514" lon="2.1017">
        <ele>330</ele>
        <time>2011-03-26T13:22:17Z</time>
      </trkpt>
      <trkpt lat="44.0551" lon="2.10175">
        <ele>330</ele>
        <time>2011-03-26T13:22:18Z</time>
      </trkpt>
      <trkpt lat="44.05506" lon="2.1018">
        <ele>330</ele>
        <time>2011-03-26T13:22:19Z</time>
      </trkpt>
      <trkpt lat="44.05502" lon="2.10185">
        <ele>330</ele>
        <time>2011-03-26T13:22:20Z</time>
      </trkpt>
      <trkpt lat="44.05497" lon="2.1019">
        <ele>330</ele>
        <time>2011-03-26T13:22:21Z</time>
      </trkpt>
      <trkpt lat="44.05493" lon="2.10194">
        <ele>330</ele>
        <time>2011-03-26T13:22:22Z</time>
      </trkpt>
      <trkpt lat="44.05489" lon="2.10199">
        <ele>330</ele>
        <time>2011-03-26T13:22:23Z</time>
      </trkpt>
      <trkpt lat="44.05484" lon="2.10204">
        <ele>330</ele>
        <time>2011-03-26T13:22:24Z</time>
      </trkpt>
      <trkpt lat="44.0548" lon="2.10209">
        <ele>327</ele>
        <time>2011-03-26T13:22:25Z</time>
      </trkpt>
      <trkpt lat="44.05476" lon="2.10214">
        <ele>327</ele>
        <time>2011-03-26T13:22:26Z</time>
      </trkpt>
      <trkpt lat="44.05471" lon="2.10219">
        <ele>327</ele>
        <time>2011-03-26T13:22:27Z</time>
      </trkpt>
      <trkpt lat="44.05467" lon="2.10224">
        <ele>327</ele>
        <time>2011-03-26T13:22:28Z</time>
      </trkpt>
      <trkpt lat="44.05463" lon="2.10229">
        <ele>327</ele>
        <time>2011-03-26T13:22:29Z</time>
      </trkpt>
      <trkpt lat="44.05458" lon="2.10235">
        <ele>327</ele>
        <time>2011-03-26T13:22:30Z</time>
      </trkpt>
      <trkpt lat="44.05454" lon="2.1024">
        <ele>327</ele>
        <time>2011-03-26T13:22:31Z</time>
      </trkpt>
      <trkpt lat="44.05449" lon="2.10246">
        <ele>327</ele>
        <time>2011-03-26T13:22:32Z</time>
      </trkpt>
      <trkpt lat="44.05445" lon="2.10251">
        <ele>327</ele>
        <time>2011-03-26T13:22:33Z</time>
      </trkpt>
      <trkpt lat="44.0544" lon="2.10256">
        <ele>327</ele>
        <time>2011-03-26T13:22:34Z</time>
      </trkpt>
      <trkpt lat="44.05436" lon="2.10261">
        <ele>327</ele>
        <time>2011-03-26T13:22:35Z</time>
      </trkpt>
      <trkpt lat="44.05432" lon="2.10266">
        <ele>327</ele>
        <time>2011-03-26T13:22:36Z</time>
      </trkpt>
      <trkpt lat="44.05427" lon="2.10271">
        <ele>327</ele>
        <time>2011-03-26T13:22:37Z</time>
      </trkpt>
      <trkpt lat="44.05424" lon="2.10276">
        <ele>327</ele>
        <time>2011-03-26T13:22:38Z</time>
      </trkpt>
      <trkpt lat="44.05419" lon="2.10281">
        <ele>327</ele>
        <time>2011-03-26T13:22:39Z</time>
      </trkpt>
      <trkpt lat="44.05415" lon="2.10286">
        <ele>327</ele>
        <time>2011-03-26T13:22:40Z</time>
      </trkpt>
      <trkpt lat="44.05411" lon="2.1029">
        <ele>327</ele>
        <time>2011-03-26T13:22:41Z</time>
      </trkpt>
      <trkpt lat="44.05407" lon="2.10295">
        <ele>324</ele>
        <time>2011-03-26T13:22:42Z</time>
      </trkpt>
      <trkpt lat="44.05404" lon="2.10299">
        <ele>324</ele>
        <time>2011-03-26T13:22:43Z</time>
      </trkpt>
      <trkpt lat="44.05399" lon="2.10304">
        <ele>324</ele>
        <time>2011-03-26T13:22:44Z</time>
      </trkpt>
      <trkpt lat="44.05395" lon="2.10309">
        <ele>324</ele>
        <time>2011-03-26T13:22:45Z</time>
      </trkpt>
      <trkpt lat="44.05391" lon="2.10313">
        <ele>324</ele>
        <time>2011-03-26T13:22:46Z</time>
      </trkpt>
      <trkpt lat="44.05387" lon="2.10318">
        <ele>324</ele>
        <time>2011-03-26T13:22:47Z</time>
      </trkpt>
      <trkpt lat="44.05383" lon="2.10322">
        <ele>324</ele>
        <time>2011-03-26T13:22:48Z</time>
      </trkpt>
      <trkpt lat="44.05379" lon="2.10326">
        <ele>324</ele>
        <time>2011-03-26T13:22:49Z</time>
      </trkpt>
      <trkpt lat="44.05375" lon="2.1033">
        <ele>324</ele>
        <time>2011-03-26T13:22:50Z</time>
      </trkpt>
      <trkpt lat="44.05371" lon="2.10334">
        <ele>326</ele>
        <time>2011-03-26T13:22:51Z</time>
      </trkpt>
      <trkpt lat="44.05367" lon="2.10338">
        <ele>326</ele>
        <time>2011-03-26T13:22:52Z</time>
      </trkpt>
      <trkpt lat="44.05363" lon="2.10343">
        <ele>326</ele>
        <time>2011-03-26T13:22:53Z</time>
      </trkpt>
      <trkpt lat="44.05359" lon="2.10348">
        <ele>326</ele>
        <time>2011-03-26T13:22:54Z</time>
      </trkpt>
      <trkpt lat="44.05355" lon="2.10353">
        <ele>326</ele>
        <time>2011-03-26T13:22:55Z</time>
      </trkpt>
      <trkpt lat="44.05351" lon="2.10357">
        <ele>326</ele>
        <time>2011-03-26T13:22:56Z</time>
      </trkpt>
      <trkpt lat="44.05347" lon="2.10363">
        <ele>326</ele>
        <time>2011-03-26T13:22:57Z</time>
      </trkpt>
      <trkpt lat="44.05344" lon="2.10368">
        <ele>326</ele>
        <time>2011-03-26T13:22:58Z</time>
      </trkpt>
      <trkpt lat="44.0534" lon="2.10373">
        <ele>326</ele>
        <time>2011-03-26T13:22:59Z</time>
      </trkpt>
      <trkpt lat="44.05337" lon="2.10379">
        <ele>326</ele>
        <time>2011-03-26T13:23:00Z</time>
      </trkpt>
      <trkpt lat="44.05333" lon="2.10384">
        <ele>326</ele>
        <time>2011-03-26T13:23:01Z</time>
      </trkpt>
      <trkpt lat="44.0533" lon="2.10389">
        <ele>326</ele>
        <time>2011-03-26T13:23:02Z</time>
      </trkpt>
      <trkpt lat="44.05326" lon="2.10395">
        <ele>326</ele>
        <time>2011-03-26T13:23:03Z</time>
      </trkpt>
      <trkpt lat="44.05322" lon="2.104">
        <ele>326</ele>
        <time>2011-03-26T13:23:04Z</time>
      </trkpt>
      <trkpt lat="44.05319" lon="2.10406">
        <ele>326</ele>
        <time>2011-03-26T13:23:05Z</time>
      </trkpt>
      <trkpt lat="44.05315" lon="2.10411">
        <ele>326</ele>
        <time>2011-03-26T13:23:06Z</time>
      </trkpt>
      <trkpt lat="44.05312" lon="2.10417">
        <ele>326</ele>
        <time>2011-03-26T13:23:07Z</time>
      </trkpt>
      <trkpt lat="44.05308" lon="2.10423">
        <ele>326</ele>
        <time>2011-03-26T13:23:08Z</time>
      </trkpt>
      <trkpt lat="44.05305" lon="2.10428">
        <ele>326</ele>
        <time>2011-03-26T13:23:09Z</time>
      </trkpt>
      <trkpt lat="44.05302" lon="2.10434">
        <ele>326</ele>
        <time>2011-03-26T13:23:10Z</time>
      </trkpt>
      <trkpt lat="44.05298" lon="2.10439">
        <ele>326</ele>
        <time>2011-03-26T13:23:11Z</time>
      </trkpt>
      <trkpt lat="44.05295" lon="2.10445">
        <ele>326</ele>
        <time>2011-03-26T13:23:12Z</time>
      </trkpt>
      <trkpt lat="44.05292" lon="2.1045">
        <ele>326</ele>
        <time>2011-03-26T13:23:13Z</time>
      </trkpt>
      <trkpt lat="44.05289" lon="2.10456">
        <ele>322</ele>
        <time>2011-03-26T13:23:14Z</time>
      </trkpt>
      <trkpt lat="44.05286" lon="2.10461">
        <ele>326</ele>
        <time>2011-03-26T13:23:15Z</time>
      </trkpt>
      <trkpt lat="44.05282" lon="2.10466">
        <ele>326</ele>
        <time>2011-03-26T13:23:16Z</time>
      </trkpt>
      <trkpt lat="44.05278" lon="2.10472">
        <ele>326</ele>
        <time>2011-03-26T13:23:17Z</time>
      </trkpt>
      <trkpt lat="44.05275" lon="2.10477">
        <ele>326</ele>
        <time>2011-03-26T13:23:18Z</time>
      </trkpt>
      <trkpt lat="44.05272" lon="2.10482">
        <ele>326</ele>
        <time>2011-03-26T13:23:19Z</time>
      </trkpt>
      <trkpt lat="44.05268" lon="2.10487">
        <ele>326</ele>
        <time>2011-03-26T13:23:20Z</time>
      </trkpt>
      <trkpt lat="44.05265" lon="2.10492">
        <ele>326</ele>
        <time>2011-03-26T13:23:21Z</time>
      </trkpt>
      <trkpt lat="44.05262" lon="2.10497">
        <ele>326</ele>
        <time>2011-03-26T13:23:22Z</time>
      </trkpt>
      <trkpt lat="44.05259" lon="2.10503">
        <ele>326</ele>
        <time>2011-03-26T13:23:23Z</time>
      </trkpt>
      <trkpt lat="44.05255" lon="2.10508">
        <ele>326</ele>
        <time>2011-03-26T13:23:24Z</time>
      </trkpt>
      <trkpt lat="44.05252" lon="2.10513">
        <ele>326</ele>
        <time>2011-03-26T13:23:25Z</time>
      </trkpt>
      <trkpt lat="44.05249" lon="2.10519">
        <ele>326</ele>
        <time>2011-03-26T13:23:26Z</time>
      </trkpt>
      <trkpt lat="44.05245" lon="2.10524">
        <ele>326</ele>
        <time>2011-03-26T13:23:27Z</time>
      </trkpt>
      <trkpt lat="44.05242" lon="2.1053">
        <ele>326</ele>
        <time>2011-03-26T13:23:28Z</time>
      </trkpt>
      <trkpt lat="44.05239" lon="2.10535">
        <ele>326</ele>
        <time>2011-03-26T13:23:29Z</time>
      </trkpt>
      <trkpt lat="44.05236" lon="2.1054">
        <ele>326</ele>
        <time>2011-03-26T13:23:30Z</time>
      </trkpt>
      <trkpt lat="44.05233" lon="2.10545">
        <ele>326</ele>
        <time>2011-03-26T13:23:31Z</time>
      </trkpt>
      <trkpt lat="44.0523" lon="2.1055">
        <ele>326</ele>
        <time>2011-03-26T13:23:32Z</time>
      </trkpt>
      <trkpt lat="44.05226" lon="2.10555">
        <ele>326</ele>
        <time>2011-03-26T13:23:33Z</time>
      </trkpt>
      <trkpt lat="44.05223" lon="2.1056">
        <ele>326</ele>
        <time>2011-03-26T13:23:34Z</time>
      </trkpt>
      <trkpt lat="44.0522" lon="2.10565">
        <ele>326</ele>
        <time>2011-03-26T13:23:35Z</time>
      </trkpt>
      <trkpt lat="44.05216" lon="2.1057">
        <ele>326</ele>
        <time>2011-03-26T13:23:36Z</time>
      </trkpt>
      <trkpt lat="44.05213" lon="2.10575">
        <ele>326</ele>
        <time>2011-03-26T13:23:37Z</time>
      </trkpt>
      <trkpt lat="44.0521" lon="2.1058">
        <ele>326</ele>
        <time>2011-03-26T13:23:38Z</time>
      </trkpt>
      <trkpt lat="44.05206" lon="2.10585">
        <ele>329</ele>
        <time>2011-03-26T13:23:39Z</time>
      </trkpt>
      <trkpt lat="44.05203" lon="2.10591">
        <ele>329</ele>
        <time>2011-03-26T13:23:40Z</time>
      </trkpt>
      <trkpt lat="44.052" lon="2.10596">
        <ele>329</ele>
        <time>2011-03-26T13:23:41Z</time>
      </trkpt>
      <trkpt lat="44.05197" lon="2.10601">
        <ele>329</ele>
        <time>2011-03-26T13:23:42Z</time>
      </trkpt>
      <trkpt lat="44.06005" lon="2.0952">
        <ele>318</ele>
        <time>2011-03-26T13:23:42Z</time>
      </trkpt>
      <trkpt lat="44.05194" lon="2.10606">
        <ele>329</ele>
        <time>2011-03-26T13:23:43Z</time>
      </trkpt>
      <trkpt lat="44.0519" lon="2.1061">
        <ele>329</ele>
        <time>2011-03-26T13:23:44Z</time>
      </trkpt>
      <trkpt lat="44.05187" lon="2.10615">
        <ele>329</ele>
        <time>2011-03-26T13:23:45Z</time>
      </trkpt>
      <trkpt lat="44.05184" lon="2.1062">
        <ele>329</ele>
        <time>2011-03-26T13:23:46Z</time>
      </trkpt>
      <trkpt lat="44.05181" lon="2.10625">
        <ele>330</ele>
        <time>2011-03-26T13:23:47Z</time>
      </trkpt>
      <trkpt lat="44.05178" lon="2.1063">
        <ele>330</ele>
        <time>2011-03-26T13:23:48Z</time>
      </trkpt>
      <trkpt lat="44.05175" lon="2.10635">
        <ele>330</ele>
        <time>2011-03-26T13:23:49Z</time>
      </trkpt>
      <trkpt lat="44.05172" lon="2.1064">
        <ele>330</ele>
        <time>2011-03-26T13:23:50Z</time>
      </trkpt>
      <trkpt lat="44.05169" lon="2.10645">
        <ele>330</ele>
        <time>2011-03-26T13:23:51Z</time>
      </trkpt>
      <trkpt lat="44.05165" lon="2.10649">
        <ele>330</ele>
        <time>2011-03-26T13:23:52Z</time>
      </trkpt>
      <trkpt lat="44.05163" lon="2.10655">
        <ele>330</ele>
        <time>2011-03-26T13:23:53Z</time>
      </trkpt>
      <trkpt lat="44.05159" lon="2.10659">
        <ele>330</ele>
        <time>2011-03-26T13:23:54Z</time>
      </trkpt>
      <trkpt lat="44.05156" lon="2.10664">
        <ele>330</ele>
        <time>2011-03-26T13:23:55Z</time>
      </trkpt>
      <trkpt lat="44.05153" lon="2.10669">
        <ele>330</ele>
        <time>2011-03-26T13:23:56Z</time>
      </trkpt>
      <trkpt lat="44.0515" lon="2.10674">
        <ele>330</ele>
        <time>2011-03-26T13:23:57Z</time>
      </trkpt>
      <trkpt lat="44.05147" lon="2.10679">
        <ele>330</ele>
        <time>2011-03-26T13:23:58Z</time>
      </trkpt>
      <trkpt lat="44.05144" lon="2.10684">
        <ele>330</ele>
        <time>2011-03-26T13:23:59Z</time>
      </trkpt>
      <trkpt lat="44.05141" lon="2.1069">
        <ele>330</ele>
        <time>2011-03-26T13:24:00Z</time>
      </trkpt>
      <trkpt lat="44.05138" lon="2.10695">
        <ele>330</ele>
        <time>2011-03-26T13:24:01Z</time>
      </trkpt>
      <trkpt lat="44.05134" lon="2.107">
        <ele>330</ele>
        <time>2011-03-26T13:24:02Z</time>
      </trkpt>
      <trkpt lat="44.05131" lon="2.10705">
        <ele>330</ele>
        <time>2011-03-26T13:24:03Z</time>
      </trkpt>
      <trkpt lat="44.05128" lon="2.10711">
        <ele>328</ele>
        <time>2011-03-26T13:24:04Z</time>
      </trkpt>
      <trkpt lat="44.05125" lon="2.10716">
        <ele>333</ele>
        <time>2011-03-26T13:24:05Z</time>
      </trkpt>
      <trkpt lat="44.05121" lon="2.10721">
        <ele>333</ele>
        <time>2011-03-26T13:24:06Z</time>
      </trkpt>
      <trkpt lat="44.05118" lon="2.10726">
        <ele>333</ele>
        <time>2011-03-26T13:24:07Z</time>
      </trkpt>
      <trkpt lat="44.05115" lon="2.10731">
        <ele>333</ele>
        <time>2011-03-26T13:24:08Z</time>
      </trkpt>
      <trkpt lat="44.05112" lon="2.10737">
        <ele>333</ele>
        <time>2011-03-26T13:24:09Z</time>
      </trkpt>
      <trkpt lat="44.05108" lon="2.10742">
        <ele>333</ele>
        <time>2011-03-26T13:24:10Z</time>
      </trkpt>
      <trkpt lat="44.05105" lon="2.10747">
        <ele>333</ele>
        <time>2011-03-26T13:24:11Z</time>
      </trkpt>
      <trkpt lat="44.05102" lon="2.10752">
        <ele>333</ele>
        <time>2011-03-26T13:24:12Z</time>
      </trkpt>
      <trkpt lat="44.05098" lon="2.10757">
        <ele>333</ele>
        <time>2011-03-26T13:24:13Z</time>
      </trkpt>
      <trkpt lat="44.05095" lon="2.10763">
        <ele>333</ele>
        <time>2011-03-26T13:24:14Z</time>
      </trkpt>
      <trkpt lat="44.05092" lon="2.10768">
        <ele>333</ele>
        <time>2011-03-26T13:24:15Z</time>
      </trkpt>
      <trkpt lat="44.05089" lon="2.10773">
        <ele>333</ele>
        <time>2011-03-26T13:24:16Z</time>
      </trkpt>
      <trkpt lat="44.05085" lon="2.10779">
        <ele>333</ele>
        <time>2011-03-26T13:24:17Z</time>
      </trkpt>
      <trkpt lat="44.05082" lon="2.10784">
        <ele>333</ele>
        <time>2011-03-26T13:24:18Z</time>
      </trkpt>
      <trkpt lat="44.05078" lon="2.10789">
        <ele>333</ele>
        <time>2011-03-26T13:24:19Z</time>
      </trkpt>
      <trkpt lat="44.05075" lon="2.10795">
        <ele>331</ele>
        <time>2011-03-26T13:24:20Z</time>
      </trkpt>
      <trkpt lat="44.05072" lon="2.108">
        <ele>331</ele>
        <time>2011-03-26T13:24:21Z</time>
      </trkpt>
      <trkpt lat="44.05069" lon="2.10805">
        <ele>331</ele>
        <time>2011-03-26T13:24:22Z</time>
      </trkpt>
      <trkpt lat="44.05065" lon="2.10811">
        <ele>331</ele>
        <time>2011-03-26T13:24:23Z</time>
      </trkpt>
      <trkpt lat="44.05062" lon="2.10816">
        <ele>331</ele>
        <time>2011-03-26T13:24:24Z</time>
      </trkpt>
      <trkpt lat="44.05058" lon="2.10821">
        <ele>331</ele>
        <time>2011-03-26T13:24:25Z</time>
      </trkpt>
      <trkpt lat="44.05055" lon="2.10827">
        <ele>331</ele>
        <time>2011-03-26T13:24:26Z</time>
      </trkpt>
      <trkpt lat="44.05052" lon="2.10832">
        <ele>331</ele>
        <time>2011-03-26T13:24:27Z</time>
      </trkpt>
      <trkpt lat="44.05048" lon="2.10838">
        <ele>331</ele>
        <time>2011-03-26T13:24:28Z</time>
      </trkpt>
      <trkpt lat="44.05045" lon="2.10843">
        <ele>331</ele>
        <time>2011-03-26T13:24:29Z</time>
      </trkpt>
      <trkpt lat="44.05042" lon="2.10848">
        <ele>329</ele>
        <time>2011-03-26T13:24:30Z</time>
      </trkpt>
      <trkpt lat="44.05038" lon="2.10853">
        <ele>329</ele>
        <time>2011-03-26T13:24:31Z</time>
      </trkpt>
      <trkpt lat="44.05035" lon="2.10858">
        <ele>329</ele>
        <time>2011-03-26T13:24:32Z</time>
      </trkpt>
      <trkpt lat="44.05032" lon="2.10864">
        <ele>329</ele>
        <time>2011-03-26T13:24:33Z</time>
      </trkpt>
      <trkpt lat="44.05028" lon="2.10869">
        <ele>329</ele>
        <time>2011-03-26T13:24:34Z</time>
      </trkpt>
      <trkpt lat="44.05025" lon="2.10874">
        <ele>329</ele>
        <time>2011-03-26T13:24:35Z</time>
      </trkpt>
      <trkpt lat="44.05021" lon="2.1088">
        <ele>331</ele>
        <time>2011-03-26T13:24:36Z</time>
      </trkpt>
      <trkpt lat="44.05018" lon="2.10885">
        <ele>331</ele>
        <time>2011-03-26T13:24:37Z</time>
      </trkpt>
      <trkpt lat="44.05015" lon="2.1089">
        <ele>331</ele>
        <time>2011-03-26T13:24:38Z</time>
      </trkpt>
      <trkpt lat="44.05011" lon="2.10896">
        <ele>331</ele>
        <time>2011-03-26T13:24:39Z</time>
      </trkpt>
      <trkpt lat="44.05008" lon="2.10901">
        <ele>331</ele>
        <time>2011-03-26T13:24:40Z</time>
      </trkpt>
      <trkpt lat="44.05005" lon="2.10906">
        <ele>331</ele>
        <time>2011-03-26T13:24:41Z</time>
      </trkpt>
      <trkpt lat="44.05002" lon="2.10911">
        <ele>331</ele>
        <time>2011-03-26T13:24:42Z</time>
      </trkpt>
      <trkpt lat="44.04998" lon="2.10917">
        <ele>331</ele>
        <time>2011-03-26T13:24:43Z</time>
      </trkpt>
      <trkpt lat="44.04995" lon="2.10923">
        <ele>331</ele>
        <time>2011-03-26T13:24:44Z</time>
      </trkpt>
      <trkpt lat="44.04992" lon="2.10928">
        <ele>331</ele>
        <time>2011-03-26T13:24:45Z</time>
      </trkpt>
      <trkpt lat="44.04989" lon="2.10933">
        <ele>331</ele>
        <time>2011-03-26T13:24:46Z</time>
      </trkpt>
      <trkpt lat="44.04986" lon="2.10939">
        <ele>331</ele>
        <time>2011-03-26T13:24:47Z</time>
      </trkpt>
      <trkpt lat="44.04982" lon="2.10944">
        <ele>331</ele>
        <time>2011-03-26T13:24:48Z</time>
      </trkpt>
      <trkpt lat="44.04979" lon="2.1095">
        <ele>331</ele>
        <time>2011-03-26T13:24:49Z</time>
      </trkpt>
      <trkpt lat="44.04976" lon="2.10955">
        <ele>331</ele>
        <time>2011-03-26T13:24:50Z</time>
      </trkpt>
      <trkpt lat="44.04972" lon="2.10961">
        <ele>329</ele>
        <time>2011-03-26T13:24:51Z</time>
      </trkpt>
      <trkpt lat="44.04969" lon="2.10967">
        <ele>329</ele>
        <time>2011-03-26T13:24:52Z</time>
      </trkpt>
      <trkpt lat="44.04965" lon="2.10973">
        <ele>329</ele>
        <time>2011-03-26T13:24:53Z</time>
      </trkpt>
      <trkpt lat="44.04961" lon="2.1098">
        <ele>329</ele>
        <time>2011-03-26T13:24:54Z</time>
      </trkpt>
      <trkpt lat="44.04958" lon="2.10986">
        <ele>329</ele>
        <time>2011-03-26T13:24:55Z</time>
      </trkpt>
      <trkpt lat="44.04954" lon="2.10992">
        <ele>329</ele>
        <time>2011-03-26T13:24:56Z</time>
      </trkpt>
      <trkpt lat="44.0495" lon="2.10998">
        <ele>329</ele>
        <time>2011-03-26T13:24:57Z</time>
      </trkpt>
      <trkpt lat="44.04946" lon="2.11005">
        <ele>329</ele>
        <time>2011-03-26T13:24:58Z</time>
      </trkpt>
      <trkpt lat="44.04942" lon="2.11011">
        <ele>329</ele>
        <time>2011-03-26T13:24:59Z</time>
      </trkpt>
      <trkpt lat="44.04938" lon="2.11017">
        <ele>329</ele>
        <time>2011-03-26T13:25:00Z</time>
      </trkpt>
      <trkpt lat="44.04934" lon="2.11023">
        <ele>329</ele>
        <time>2011-03-26T13:25:01Z</time>
      </trkpt>
      <trkpt lat="44.0493" lon="2.1103">
        <ele>329</ele>
        <time>2011-03-26T13:25:02Z</time>
      </trkpt>
      <trkpt lat="44.04926" lon="2.11036">
        <ele>329</ele>
        <time>2011-03-26T13:25:03Z</time>
      </trkpt>
      <trkpt lat="44.04923" lon="2.11042">
        <ele>330</ele>
        <time>2011-03-26T13:25:04Z</time>
      </trkpt>
      <trkpt lat="44.04919" lon="2.11048">
        <ele>330</ele>
        <time>2011-03-26T13:25:05Z</time>
      </trkpt>
      <trkpt lat="44.04915" lon="2.11055">
        <ele>330</ele>
        <time>2011-03-26T13:25:06Z</time>
      </trkpt>
      <trkpt lat="44.04911" lon="2.11061">
        <ele>330</ele>
        <time>2011-03-26T13:25:07Z</time>
      </trkpt>
      <trkpt lat="44.04907" lon="2.11067">
        <ele>330</ele>
        <time>2011-03-26T13:25:08Z</time>
      </trkpt>
      <trkpt lat="44.04903" lon="2.11073">
        <ele>330</ele>
        <time>2011-03-26T13:25:09Z</time>
      </trkpt>
      <trkpt lat="44.04899" lon="2.11079">
        <ele>330</ele>
        <time>2011-03-26T13:25:10Z</time>
      </trkpt>
      <trkpt lat="44.04895" lon="2.11085">
        <ele>330</ele>
        <time>2011-03-26T13:25:11Z</time>
      </trkpt>
      <trkpt lat="44.04891" lon="2.11091">
        <ele>330</ele>
        <time>2011-03-26T13:25:12Z</time>
      </trkpt>
      <trkpt lat="44.04887" lon="2.11097">
        <ele>330</ele>
        <time>2011-03-26T13:25:13Z</time>
      </trkpt>
      <trkpt lat="44.04884" lon="2.11103">
        <ele>330</ele>
        <time>2011-03-26T13:25:14Z</time>
      </trkpt>
      <trkpt lat="44.0488" lon="2.11109">
        <ele>330</ele>
        <time>2011-03-26T13:25:15Z</time>
      </trkpt>
      <trkpt lat="44.04876" lon="2.11115">
        <ele>330</ele>
        <time>2011-03-26T13:25:16Z</time>
      </trkpt>
      <trkpt lat="44.04872" lon="2.11121">
        <ele>325</ele>
        <time>2011-03-26T13:25:17Z</time>
      </trkpt>
      <trkpt lat="44.04869" lon="2.11126">
        <ele>329</ele>
        <time>2011-03-26T13:25:18Z</time>
      </trkpt>
      <trkpt lat="44.04865" lon="2.11132">
        <ele>329</ele>
        <time>2011-03-26T13:25:19Z</time>
      </trkpt>
      <trkpt lat="44.04861" lon="2.11138">
        <ele>329</ele>
        <time>2011-03-26T13:25:20Z</time>
      </trkpt>
      <trkpt lat="44.04857" lon="2.11144">
        <ele>329</ele>
        <time>2011-03-26T13:25:21Z</time>
      </trkpt>
      <trkpt lat="44.04853" lon="2.1115">
        <ele>329</ele>
        <time>2011-03-26T13:25:22Z</time>
      </trkpt>
      <trkpt lat="44.04849" lon="2.11156">
        <ele>329</ele>
        <time>2011-03-26T13:25:23Z</time>
      </trkpt>
      <trkpt lat="44.04845" lon="2.11162">
        <ele>329</ele>
        <time>2011-03-26T13:25:24Z</time>
      </trkpt>
      <trkpt lat="44.04841" lon="2.11169">
        <ele>329</ele>
        <time>2011-03-26T13:25:25Z</time>
      </trkpt>
      <trkpt lat="44.04837" lon="2.11175">
        <ele>329</ele>
        <time>2011-03-26T13:25:26Z</time>
      </trkpt>
      <trkpt lat="44.04833" lon="2.11181">
        <ele>329</ele>
        <time>2011-03-26T13:25:27Z</time>
      </trkpt>
      <trkpt lat="44.04829" lon="2.11187">
        <ele>329</ele>
        <time>2011-03-26T13:25:28Z</time>
      </trkpt>
      <trkpt lat="44.04825" lon="2.11193">
        <ele>329</ele>
        <time>2011-03-26T13:25:29Z</time>
      </trkpt>
      <trkpt lat="44.04821" lon="2.11199">
        <ele>329</ele>
        <time>2011-03-26T13:25:30Z</time>
      </trkpt>
      <trkpt lat="44.04817" lon="2.11205">
        <ele>329</ele>
        <time>2011-03-26T13:25:31Z</time>
      </trkpt>
      <trkpt lat="44.04813" lon="2.11212">
        <ele>328</ele>
        <time>2011-03-26T13:25:32Z</time>
      </trkpt>
      <trkpt lat="44.04809" lon="2.11218">
        <ele>328</ele>
        <time>2011-03-26T13:25:33Z</time>
      </trkpt>
      <trkpt lat="44.04806" lon="2.11224">
        <ele>328</ele>
        <time>2011-03-26T13:25:34Z</time>
      </trkpt>
      <trkpt lat="44.04802" lon="2.11229">
        <ele>328</ele>
        <time>2011-03-26T13:25:35Z</time>
      </trkpt>
      <trkpt lat="44.04798" lon="2.11235">
        <ele>328</ele>
        <time>2011-03-26T13:25:36Z</time>
      </trkpt>
      <trkpt lat="44.04795" lon="2.11241">
        <ele>328</ele>
        <time>2011-03-26T13:25:37Z</time>
      </trkpt>
      <trkpt lat="44.04791" lon="2.11247">
        <ele>325</ele>
        <time>2011-03-26T13:25:38Z</time>
      </trkpt>
      <trkpt lat="44.04787" lon="2.11254">
        <ele>325</ele>
        <time>2011-03-26T13:25:39Z</time>
      </trkpt>
      <trkpt lat="44.04784" lon="2.1126">
        <ele>325</ele>
        <time>2011-03-26T13:25:40Z</time>
      </trkpt>
      <trkpt lat="44.0478" lon="2.11266">
        <ele>325</ele>
        <time>2011-03-26T13:25:41Z</time>
      </trkpt>
      <trkpt lat="44.04776" lon="2.11272">
        <ele>325</ele>
        <time>2011-03-26T13:25:42Z</time>
      </trkpt>
      <trkpt lat="44.04773" lon="2.11278">
        <ele>325</ele>
        <time>2011-03-26T13:25:43Z</time>
      </trkpt>
      <trkpt lat="44.04769" lon="2.11284">
        <ele>325</ele>
        <time>2011-03-26T13:25:44Z</time>
      </trkpt>
      <trkpt lat="44.04765" lon="2.1129">
        <ele>325</ele>
        <time>2011-03-26T13:25:45Z</time>
      </trkpt>
      <trkpt lat="44.04762" lon="2.11296">
        <ele>330</ele>
        <time>2011-03-26T13:25:46Z</time>
      </trkpt>
      <trkpt lat="44.04758" lon="2.11302">
        <ele>330</ele>
        <time>2011-03-26T13:25:47Z</time>
      </trkpt>
      <trkpt lat="44.04754" lon="2.11308">
        <ele>330</ele>
        <time>2011-03-26T13:25:48Z</time>
      </trkpt>
      <trkpt lat="44.0475" lon="2.11314">
        <ele>330</ele>
        <time>2011-03-26T13:25:49Z</time>
      </trkpt>
      <trkpt lat="44.04746" lon="2.1132">
        <ele>330</ele>
        <time>2011-03-26T13:25:50Z</time>
      </trkpt>
      <trkpt lat="44.04742" lon="2.11326">
        <ele>330</ele>
        <time>2011-03-26T13:25:51Z</time>
      </trkpt>
      <trkpt lat="44.04738" lon="2.11332">
        <ele>330</ele>
        <time>2011-03-26T13:25:52Z</time>
      </trkpt>
      <trkpt lat="44.04734" lon="2.11339">
        <ele>330</ele>
        <time>2011-03-26T13:25:53Z</time>
      </trkpt>
      <trkpt lat="44.0473" lon="2.11345">
        <ele>330</ele>
        <time>2011-03-26T13:25:54Z</time>
      </trkpt>
      <trkpt lat="44.04726" lon="2.11351">
        <ele>330</ele>
        <time>2011-03-26T13:25:55Z</time>
      </trkpt>
      <trkpt lat="44.04723" lon="2.11357">
        <ele>330</ele>
        <time>2011-03-26T13:25:56Z</time>
      </trkpt>
      <trkpt lat="44.04719" lon="2.11364">
        <ele>330</ele>
        <time>2011-03-26T13:25:57Z</time>
      </trkpt>
      <trkpt lat="44.04715" lon="2.1137">
        <ele>330</ele>
        <time>2011-03-26T13:25:58Z</time>
      </trkpt>
      <trkpt lat="44.0471" lon="2.11377">
        <ele>331</ele>
        <time>2011-03-26T13:25:59Z</time>
      </trkpt>
      <trkpt lat="44.04706" lon="2.11383">
        <ele>331</ele>
        <time>2011-03-26T13:26:00Z</time>
      </trkpt>
      <trkpt lat="44.04702" lon="2.1139">
        <ele>331</ele>
        <time>2011-03-26T13:26:01Z</time>
      </trkpt>
      <trkpt lat="44.04698" lon="2.11397">
        <ele>331</ele>
        <time>2011-03-26T13:26:02Z</time>
      </trkpt>
      <trkpt lat="44.04694" lon="2.11403">
        <ele>331</ele>
        <time>2011-03-26T13:26:03Z</time>
      </trkpt>
      <trkpt lat="44.0469" lon="2.1141">
        <ele>331</ele>
        <time>2011-03-26T13:26:04Z</time>
      </trkpt>
      <trkpt lat="44.04686" lon="2.11417">
        <ele>331</ele>
        <time>2011-03-26T13:26:05Z</time>
      </trkpt>
      <trkpt lat="44.04682" lon="2.11424">
        <ele>331</ele>
        <time>2011-03-26T13:26:06Z</time>
      </trkpt>
      <trkpt lat="44.04678" lon="2.11431">
        <ele>331</ele>
        <time>2011-03-26T13:26:07Z</time>
      </trkpt>
      <trkpt lat="44.04673" lon="2.11438">
        <ele>331</ele>
        <time>2011-03-26T13:26:08Z</time>
      </trkpt>
      <trkpt lat="44.04669" lon="2.11444">
        <ele>331</ele>
        <time>2011-03-26T13:26:09Z</time>
      </trkpt>
      <trkpt lat="44.04665" lon="2.11451">
        <ele>331</ele>
        <time>2011-03-26T13:26:10Z</time>
      </trkpt>
      <trkpt lat="44.04661" lon="2.11458">
        <ele>331</ele>
        <time>2011-03-26T13:26:11Z</time>
      </trkpt>
      <trkpt lat="44.04658" lon="2.11464">
        <ele>333</ele>
        <time>2011-03-26T13:26:12Z</time>
      </trkpt>
      <trkpt lat="44.04654" lon="2.1147">
        <ele>333</ele>
        <time>2011-03-26T13:26:13Z</time>
      </trkpt>
      <trkpt lat="44.04649" lon="2.11476">
        <ele>333</ele>
        <time>2011-03-26T13:26:14Z</time>
      </trkpt>
      <trkpt lat="44.04645" lon="2.11483">
        <ele>333</ele>
        <time>2011-03-26T13:26:15Z</time>
      </trkpt>
      <trkpt lat="44.04641" lon="2.1149">
        <ele>333</ele>
        <time>2011-03-26T13:26:16Z</time>
      </trkpt>
      <trkpt lat="44.04637" lon="2.11496">
        <ele>333</ele>
        <time>2011-03-26T13:26:17Z</time>
      </trkpt>
      <trkpt lat="44.04633" lon="2.11503">
        <ele>333</ele>
        <time>2011-03-26T13:26:18Z</time>
      </trkpt>
      <trkpt lat="44.04628" lon="2.1151">
        <ele>333</ele>
        <time>2011-03-26T13:26:19Z</time>
      </trkpt>
      <trkpt lat="44.04624" lon="2.11516">
        <ele>325</ele>
        <time>2011-03-26T13:26:20Z</time>
      </trkpt>
      <trkpt lat="44.0462" lon="2.11523">
        <ele>325</ele>
        <time>2011-03-26T13:26:21Z</time>
      </trkpt>
      <trkpt lat="44.04615" lon="2.11529">
        <ele>325</ele>
        <time>2011-03-26T13:26:22Z</time>
      </trkpt>
      <trkpt lat="44.04611" lon="2.11536">
        <ele>325</ele>
        <time>2011-03-26T13:26:23Z</time>
      </trkpt>
      <trkpt lat="44.04607" lon="2.11543">
        <ele>329</ele>
        <time>2011-03-26T13:26:24Z</time>
      </trkpt>
      <trkpt lat="44.04603" lon="2.1155">
        <ele>329</ele>
        <time>2011-03-26T13:26:25Z</time>
      </trkpt>
      <trkpt lat="44.04598" lon="2.11557">
        <ele>329</ele>
        <time>2011-03-26T13:26:26Z</time>
      </trkpt>
      <trkpt lat="44.04594" lon="2.11564">
        <ele>329</ele>
        <time>2011-03-26T13:26:27Z</time>
      </trkpt>
      <trkpt lat="44.0459" lon="2.11571">
        <ele>329</ele>
        <time>2011-03-26T13:26:28Z</time>
      </trkpt>
      <trkpt lat="44.04586" lon="2.11578">
        <ele>329</ele>
        <time>2011-03-26T13:26:29Z</time>
      </trkpt>
      <trkpt lat="44.04582" lon="2.11585">
        <ele>329</ele>
        <time>2011-03-26T13:26:30Z</time>
      </trkpt>
      <trkpt lat="44.04577" lon="2.11591">
        <ele>329</ele>
        <time>2011-03-26T13:26:31Z</time>
      </trkpt>
      <trkpt lat="44.04573" lon="2.11598">
        <ele>329</ele>
        <time>2011-03-26T13:26:32Z</time>
      </trkpt>
      <trkpt lat="44.04569" lon="2.11605">
        <ele>329</ele>
        <time>2011-03-26T13:26:33Z</time>
      </trkpt>
      <trkpt lat="44.04564" lon="2.11611">
        <ele>329</ele>
        <time>2011-03-26T13:26:34Z</time>
      </trkpt>
      <trkpt lat="44.0456" lon="2.11618">
        <ele>329</ele>
        <time>2011-03-26T13:26:35Z</time>
      </trkpt>
      <trkpt lat="44.04556" lon="2.11625">
        <ele>331</ele>
        <time>2011-03-26T13:26:36Z</time>
      </trkpt>
      <trkpt lat="44.04552" lon="2.11632">
        <ele>331</ele>
        <time>2011-03-26T13:26:37Z</time>
      </trkpt>
      <trkpt lat="44.04548" lon="2.11638">
        <ele>331</ele>
        <time>2011-03-26T13:26:38Z</time>
      </trkpt>
      <trkpt lat="44.04544" lon="2.11644">
        <ele>331</ele>
        <time>2011-03-26T13:26:39Z</time>
      </trkpt>
      <trkpt lat="44.0454" lon="2.1165">
        <ele>328</ele>
        <time>2011-03-26T13:26:40Z</time>
      </trkpt>
      <trkpt lat="44.04536" lon="2.11655">
        <ele>328</ele>
        <time>2011-03-26T13:26:41Z</time>
      </trkpt>
      <trkpt lat="44.04532" lon="2.11661">
        <ele>328</ele>
        <time>2011-03-26T13:26:42Z</time>
      </trkpt>
      <trkpt lat="44.04529" lon="2.11667">
        <ele>328</ele>
        <time>2011-03-26T13:26:43Z</time>
      </trkpt>
      <trkpt lat="44.04525" lon="2.11673">
        <ele>328</ele>
        <time>2011-03-26T13:26:44Z</time>
      </trkpt>
      <trkpt lat="44.0452" lon="2.11678">
        <ele>328</ele>
        <time>2011-03-26T13:26:45Z</time>
      </trkpt>
      <trkpt lat="44.04515" lon="2.1168">
        <ele>328</ele>
        <time>2011-03-26T13:26:46Z</time>
      </trkpt>
      <trkpt lat="44.04509" lon="2.11681">
        <ele>328</ele>
        <time>2011-03-26T13:26:47Z</time>
      </trkpt>
      <trkpt lat="44.04503" lon="2.11682">
        <ele>328</ele>
        <time>2011-03-26T13:26:48Z</time>
      </trkpt>
      <trkpt lat="44.04496" lon="2.11679">
        <ele>328</ele>
        <time>2011-03-26T13:26:49Z</time>
      </trkpt>
      <trkpt lat="44.04489" lon="2.11676">
        <ele>328</ele>
        <time>2011-03-26T13:26:50Z</time>
      </trkpt>
      <trkpt lat="44.04483" lon="2.11671">
        <ele>328</ele>
        <time>2011-03-26T13:26:51Z</time>
      </trkpt>
      <trkpt lat="44.04477" lon="2.11665">
        <ele>328</ele>
        <time>2011-03-26T13:26:52Z</time>
      </trkpt>
      <trkpt lat="44.04471" lon="2.11658">
        <ele>328</ele>
        <time>2011-03-26T13:26:53Z</time>
      </trkpt>
      <trkpt lat="44.04466" lon="2.1165">
        <ele>328</ele>
        <time>2011-03-26T13:26:54Z</time>
      </trkpt>
      <trkpt lat="44.04462" lon="2.11642">
        <ele>328</ele>
        <time>2011-03-26T13:26:55Z</time>
      </trkpt>
      <trkpt lat="44.0446" lon="2.11632">
        <ele>328</ele>
        <time>2011-03-26T13:26:56Z</time>
      </trkpt>
      <trkpt lat="44.04456" lon="2.11622">
        <ele>325</ele>
        <time>2011-03-26T13:26:57Z</time>
      </trkpt>
      <trkpt lat="44.04452" lon="2.11613">
        <ele>325</ele>
        <time>2011-03-26T13:26:58Z</time>
      </trkpt>
      <trkpt lat="44.04449" lon="2.11603">
        <ele>325</ele>
        <time>2011-03-26T13:26:59Z</time>
      </trkpt>
      <trkpt lat="44.04445" lon="2.11595">
        <ele>325</ele>
        <time>2011-03-26T13:27:00Z</time>
      </trkpt>
      <trkpt lat="44.04442" lon="2.11587">
        <ele>325</ele>
        <time>2011-03-26T13:27:01Z</time>
      </trkpt>
      <trkpt lat="44.04438" lon="2.11579">
        <ele>325</ele>
        <time>2011-03-26T13:27:02Z</time>
      </trkpt>
      <trkpt lat="44.04434" lon="2.11571">
        <ele>325</ele>
        <time>2011-03-26T13:27:03Z</time>
      </trkpt>
      <trkpt lat="44.04431" lon="2.11564">
        <ele>325</ele>
        <time>2011-03-26T13:27:04Z</time>
      </trkpt>
      <trkpt lat="44.04427" lon="2.11557">
        <ele>325</ele>
        <time>2011-03-26T13:27:05Z</time>
      </trkpt>
      <trkpt lat="44.04423" lon="2.11551">
        <ele>325</ele>
        <time>2011-03-26T13:27:06Z</time>
      </trkpt>
      <trkpt lat="44.04419" lon="2.11544">
        <ele>325</ele>
        <time>2011-03-26T13:27:07Z</time>
      </trkpt>
      <trkpt lat="44.04414" lon="2.11538">
        <ele>324</ele>
        <time>2011-03-26T13:27:08Z</time>
      </trkpt>
      <trkpt lat="44.0441" lon="2.11532">
        <ele>324</ele>
        <time>2011-03-26T13:27:09Z</time>
      </trkpt>
      <trkpt lat="44.04406" lon="2.11526">
        <ele>324</ele>
        <time>2011-03-26T13:27:10Z</time>
      </trkpt>
      <trkpt lat="44.04401" lon="2.11521">
        <ele>324</ele>
        <time>2011-03-26T13:27:11Z</time>
      </trkpt>
      <trkpt lat="44.04397" lon="2.11516">
        <ele>324</ele>
        <time>2011-03-26T13:27:12Z</time>
      </trkpt>
      <trkpt lat="44.04392" lon="2.1151">
        <ele>324</ele>
        <time>2011-03-26T13:27:13Z</time>
      </trkpt>
      <trkpt lat="44.04387" lon="2.11506">
        <ele>324</ele>
        <time>2011-03-26T13:27:14Z</time>
      </trkpt>
      <trkpt lat="44.04382" lon="2.11501">
        <ele>324</ele>
        <time>2011-03-26T13:27:15Z</time>
      </trkpt>
      <trkpt lat="44.04376" lon="2.11497">
        <ele>324</ele>
        <time>2011-03-26T13:27:16Z</time>
      </trkpt>
      <trkpt lat="44.0437" lon="2.11493">
        <ele>325</ele>
        <time>2011-03-26T13:27:17Z</time>
      </trkpt>
      <trkpt lat="44.04363" lon="2.1149">
        <ele>325</ele>
        <time>2011-03-26T13:27:18Z</time>
      </trkpt>
      <trkpt lat="44.04357" lon="2.11488">
        <ele>325</ele>
        <time>2011-03-26T13:27:19Z</time>
      </trkpt>
      <trkpt lat="44.0435" lon="2.11485">
        <ele>325</ele>
        <time>2011-03-26T13:27:20Z</time>
      </trkpt>
      <trkpt lat="44.04344" lon="2.11483">
        <ele>325</ele>
        <time>2011-03-26T13:27:21Z</time>
      </trkpt>
      <trkpt lat="44.04338" lon="2.1148">
        <ele>325</ele>
        <time>2011-03-26T13:27:22Z</time>
      </trkpt>
      <trkpt lat="44.04332" lon="2.11476">
        <ele>325</ele>
        <time>2011-03-26T13:27:23Z</time>
      </trkpt>
      <trkpt lat="44.04327" lon="2.11469">
        <ele>325</ele>
        <time>2011-03-26T13:27:24Z</time>
      </trkpt>
      <trkpt lat="44.04323" lon="2.11461">
        <ele>325</ele>
        <time>2011-03-26T13:27:25Z</time>
      </trkpt>
      <trkpt lat="44.0432" lon="2.11454">
        <ele>325</ele>
        <time>2011-03-26T13:27:26Z</time>
      </trkpt>
      <trkpt lat="44.04316" lon="2.11446">
        <ele>325</ele>
        <time>2011-03-26T13:27:27Z</time>
      </trkpt>
      <trkpt lat="44.04313" lon="2.11438">
        <ele>325</ele>
        <time>2011-03-26T13:27:28Z</time>
      </trkpt>
      <trkpt lat="44.04311" lon="2.11431">
        <ele>325</ele>
        <time>2011-03-26T13:27:29Z</time>
      </trkpt>
      <trkpt lat="44.04308" lon="2.11424">
        <ele>325</ele>
        <time>2011-03-26T13:27:30Z</time>
      </trkpt>
      <trkpt lat="44.04305" lon="2.11418">
        <ele>325</ele>
        <time>2011-03-26T13:27:31Z</time>
      </trkpt>
      <trkpt lat="44.04301" lon="2.11412">
        <ele>325</ele>
        <time>2011-03-26T13:27:32Z</time>
      </trkpt>
      <trkpt lat="44.04297" lon="2.11408">
        <ele>325</ele>
        <time>2011-03-26T13:27:33Z</time>
      </trkpt>
      <trkpt lat="44.04293" lon="2.11404">
        <ele>325</ele>
        <time>2011-03-26T13:27:34Z</time>
      </trkpt>
      <trkpt lat="44.04288" lon="2.114">
        <ele>326</ele>
        <time>2011-03-26T13:27:35Z</time>
      </trkpt>
      <trkpt lat="44.04284" lon="2.11396">
        <ele>326</ele>
        <time>2011-03-26T13:27:36Z</time>
      </trkpt>
      <trkpt lat="44.0428" lon="2.11392">
        <ele>326</ele>
        <time>2011-03-26T13:27:37Z</time>
      </trkpt>
      <trkpt lat="44.04275" lon="2.11388">
        <ele>326</ele>
        <time>2011-03-26T13:27:38Z</time>
      </trkpt>
      <trkpt lat="44.0427" lon="2.11384">
        <ele>326</ele>
        <time>2011-03-26T13:27:39Z</time>
      </trkpt>
      <trkpt lat="44.04265" lon="2.11379">
        <ele>326</ele>
        <time>2011-03-26T13:27:40Z</time>
      </trkpt>
      <trkpt lat="44.0426" lon="2.11375">
        <ele>326</ele>
        <time>2011-03-26T13:27:41Z</time>
      </trkpt>
      <trkpt lat="44.04255" lon="2.11371">
        <ele>323</ele>
        <time>2011-03-26T13:27:42Z</time>
      </trkpt>
      <trkpt lat="44.0425" lon="2.11367">
        <ele>323</ele>
        <time>2011-03-26T13:27:43Z</time>
      </trkpt>
      <trkpt lat="44.04246" lon="2.11363">
        <ele>323</ele>
        <time>2011-03-26T13:27:44Z</time>
      </trkpt>
      <trkpt lat="44.04241" lon="2.11359">
        <ele>323</ele>
        <time>2011-03-26T13:27:45Z</time>
      </trkpt>
      <trkpt lat="44.04237" lon="2.11355">
        <ele>323</ele>
        <time>2011-03-26T13:27:46Z</time>
      </trkpt>
      <trkpt lat="44.04232" lon="2.11351">
        <ele>323</ele>
        <time>2011-03-26T13:27:47Z</time>
      </trkpt>
      <trkpt lat="44.04228" lon="2.11347">
        <ele>323</ele>
        <time>2011-03-26T13:27:48Z</time>
      </trkpt>
      <trkpt lat="44.04225" lon="2.11342">
        <ele>323</ele>
        <time>2011-03-26T13:27:49Z</time>
      </trkpt>
      <trkpt lat="44.04221" lon="2.11338">
        <ele>323</ele>
        <time>2011-03-26T13:27:50Z</time>
      </trkpt>
      <trkpt lat="44.04218" lon="2.11334">
        <ele>323</ele>
        <time>2011-03-26T13:27:51Z</time>
      </trkpt>
      <trkpt lat="44.04215" lon="2.1133">
        <ele>323</ele>
        <time>2011-03-26T13:27:52Z</time>
      </trkpt>
      <trkpt lat="44.04213" lon="2.11325">
        <ele>323</ele>
        <time>2011-03-26T13:27:53Z</time>
      </trkpt>
      <trkpt lat="44.04211" lon="2.1132">
        <ele>323</ele>
        <time>2011-03-26T13:27:54Z</time>
      </trkpt>
      <trkpt lat="44.0421" lon="2.11313">
        <ele>323</ele>
        <time>2011-03-26T13:27:55Z</time>
      </trkpt>
      <trkpt lat="44.0421" lon="2.11306">
        <ele>323</ele>
        <time>2011-03-26T13:27:56Z</time>
      </trkpt>
      <trkpt lat="44.0421" lon="2.11299">
        <ele>323</ele>
        <time>2011-03-26T13:27:57Z</time>
      </trkpt>
      <trkpt lat="44.04211" lon="2.11291">
        <ele>323</ele>
        <time>2011-03-26T13:27:58Z</time>
      </trkpt>
      <trkpt lat="44.04211" lon="2.11283">
        <ele>323</ele>
        <time>2011-03-26T13:27:59Z</time>
      </trkpt>
      <trkpt lat="44.04211" lon="2.11275">
        <ele>323</ele>
        <time>2011-03-26T13:28:00Z</time>
      </trkpt>
      <trkpt lat="44.04211" lon="2.11267">
        <ele>323</ele>
        <time>2011-03-26T13:28:01Z</time>
      </trkpt>
      <trkpt lat="44.04211" lon="2.11259">
        <ele>323</ele>
        <time>2011-03-26T13:28:02Z</time>
      </trkpt>
      <trkpt lat="44.04211" lon="2.11252">
        <ele>323</ele>
        <time>2011-03-26T13:28:03Z</time>
      </trkpt>
      <trkpt lat="44.04211" lon="2.11244">
        <ele>323</ele>
        <time>2011-03-26T13:28:04Z</time>
      </trkpt>
      <trkpt lat="44.04211" lon="2.11237">
        <ele>323</ele>
        <time>2011-03-26T13:28:05Z</time>
      </trkpt>
      <trkpt lat="44.04211" lon="2.1123">
        <ele>323</ele>
        <time>2011-03-26T13:28:06Z</time>
      </trkpt>
      <trkpt lat="44.04211" lon="2.11222">
        <ele>323</ele>
        <time>2011-03-26T13:28:07Z</time>
      </trkpt>
      <trkpt lat="44.04211" lon="2.11216">
        <ele>323</ele>
        <time>2011-03-26T13:28:08Z</time>
      </trkpt>
      <trkpt lat="44.04211" lon="2.11209">
        <ele>323</ele>
        <time>2011-03-26T13:28:09Z</time>
      </trkpt>
      <trkpt lat="44.04212" lon="2.11202">
        <ele>323</ele>
        <time>2011-03-26T13:28:10Z</time>
      </trkpt>
      <trkpt lat="44.04212" lon="2.11195">
        <ele>323</ele>
        <time>2011-03-26T13:28:11Z</time>
      </trkpt>
      <trkpt lat="44.04212" lon="2.11188">
        <ele>323</ele>
        <time>2011-03-26T13:28:12Z</time>
      </trkpt>
      <trkpt lat="44.04212" lon="2.11181">
        <ele>323</ele>
        <time>2011-03-26T13:28:13Z</time>
      </trkpt>
      <trkpt lat="44.04212" lon="2.11173">
        <ele>323</ele>
        <time>2011-03-26T13:28:14Z</time>
      </trkpt>
      <trkpt lat="44.04213" lon="2.11166">
        <ele>323</ele>
        <time>2011-03-26T13:28:15Z</time>
      </trkpt>
      <trkpt lat="44.04213" lon="2.11158">
        <ele>323</ele>
        <time>2011-03-26T13:28:16Z</time>
      </trkpt>
      <trkpt lat="44.04213" lon="2.11151">
        <ele>323</ele>
        <time>2011-03-26T13:28:17Z</time>
      </trkpt>
      <trkpt lat="44.04213" lon="2.11143">
        <ele>323</ele>
        <time>2011-03-26T13:28:18Z</time>
      </trkpt>
      <trkpt lat="44.04213" lon="2.11136">
        <ele>323</ele>
        <time>2011-03-26T13:28:19Z</time>
      </trkpt>
      <trkpt lat="44.04213" lon="2.11129">
        <ele>323</ele>
        <time>2011-03-26T13:28:20Z</time>
      </trkpt>
      <trkpt lat="44.04213" lon="2.11121">
        <ele>325</ele>
        <time>2011-03-26T13:28:21Z</time>
      </trkpt>
      <trkpt lat="44.04213" lon="2.11113">
        <ele>325</ele>
        <time>2011-03-26T13:28:22Z</time>
      </trkpt>
      <trkpt lat="44.04213" lon="2.11106">
        <ele>325</ele>
        <time>2011-03-26T13:28:23Z</time>
      </trkpt>
      <trkpt lat="44.04213" lon="2.11099">
        <ele>325</ele>
        <time>2011-03-26T13:28:24Z</time>
      </trkpt>
      <trkpt lat="44.04214" lon="2.11091">
        <ele>325</ele>
        <time>2011-03-26T13:28:25Z</time>
      </trkpt>
      <trkpt lat="44.04214" lon="2.11084">
        <ele>325</ele>
        <time>2011-03-26T13:28:26Z</time>
      </trkpt>
      <trkpt lat="44.04214" lon="2.11077">
        <ele>325</ele>
        <time>2011-03-26T13:28:27Z</time>
      </trkpt>
      <trkpt lat="44.04214" lon="2.1107">
        <ele>325</ele>
        <time>2011-03-26T13:28:28Z</time>
      </trkpt>
      <trkpt lat="44.04214" lon="2.11063">
        <ele>325</ele>
        <time>2011-03-26T13:28:29Z</time>
      </trkpt>
      <trkpt lat="44.04214" lon="2.11055">
        <ele>325</ele>
        <time>2011-03-26T13:28:30Z</time>
      </trkpt>
      <trkpt lat="44.04214" lon="2.11048">
        <ele>325</ele>
        <time>2011-03-26T13:28:31Z</time>
      </trkpt>
      <trkpt lat="44.04214" lon="2.1104">
        <ele>325</ele>
        <time>2011-03-26T13:28:32Z</time>
      </trkpt>
      <trkpt lat="44.04214" lon="2.11033">
        <ele>325</ele>
        <time>2011-03-26T13:28:33Z</time>
      </trkpt>
      <trkpt lat="44.04215" lon="2.11026">
        <ele>325</ele>
        <time>2011-03-26T13:28:34Z</time>
      </trkpt>
      <trkpt lat="44.04215" lon="2.11019">
        <ele>325</ele>
        <time>2011-03-26T13:28:35Z</time>
      </trkpt>
      <trkpt lat="44.04215" lon="2.11011">
        <ele>325</ele>
        <time>2011-03-26T13:28:36Z</time>
      </trkpt>
      <trkpt lat="44.04215" lon="2.11004">
        <ele>325</ele>
        <time>2011-03-26T13:28:37Z</time>
      </trkpt>
      <trkpt lat="44.04215" lon="2.10997">
        <ele>325</ele>
        <time>2011-03-26T13:28:38Z</time>
      </trkpt>
      <trkpt lat="44.04215" lon="2.1099">
        <ele>325</ele>
        <time>2011-03-26T13:28:39Z</time>
      </trkpt>
      <trkpt lat="44.04216" lon="2.10983">
        <ele>325</ele>
        <time>2011-03-26T13:28:40Z</time>
      </trkpt>
      <trkpt lat="44.04216" lon="2.10977">
        <ele>325</ele>
        <time>2011-03-26T13:28:41Z</time>
      </trkpt>
      <trkpt lat="44.04216" lon="2.1097">
        <ele>325</ele>
        <time>2011-03-26T13:28:42Z</time>
      </trkpt>
      <trkpt lat="44.04215" lon="2.10963">
        <ele>325</ele>
        <time>2011-03-26T13:28:43Z</time>
      </trkpt>
      <trkpt lat="44.04215" lon="2.10956">
        <ele>323</ele>
        <time>2011-03-26T13:28:44Z</time>
      </trkpt>
      <trkpt lat="44.04215" lon="2.10948">
        <ele>323</ele>
        <time>2011-03-26T13:28:45Z</time>
      </trkpt>
      <trkpt lat="44.04215" lon="2.10941">
        <ele>323</ele>
        <time>2011-03-26T13:28:46Z</time>
      </trkpt>
      <trkpt lat="44.04215" lon="2.10934">
        <ele>323</ele>
        <time>2011-03-26T13:28:47Z</time>
      </trkpt>
      <trkpt lat="44.04215" lon="2.10926">
        <ele>323</ele>
        <time>2011-03-26T13:28:48Z</time>
      </trkpt>
      <trkpt lat="44.04215" lon="2.10919">
        <ele>323</ele>
        <time>2011-03-26T13:28:49Z</time>
      </trkpt>
      <trkpt lat="44.04215" lon="2.10911">
        <ele>323</ele>
        <time>2011-03-26T13:28:50Z</time>
      </trkpt>
      <trkpt lat="44.04215" lon="2.10904">
        <ele>323</ele>
        <time>2011-03-26T13:28:51Z</time>
      </trkpt>
      <trkpt lat="44.04215" lon="2.10897">
        <ele>323</ele>
        <time>2011-03-26T13:28:52Z</time>
      </trkpt>
      <trkpt lat="44.04215" lon="2.1089">
        <ele>323</ele>
        <time>2011-03-26T13:28:53Z</time>
      </trkpt>
      <trkpt lat="44.04215" lon="2.10882">
        <ele>323</ele>
        <time>2011-03-26T13:28:54Z</time>
      </trkpt>
      <trkpt lat="44.04215" lon="2.10875">
        <ele>324</ele>
        <time>2011-03-26T13:28:55Z</time>
      </trkpt>
      <trkpt lat="44.04215" lon="2.10867">
        <ele>324</ele>
        <time>2011-03-26T13:28:56Z</time>
      </trkpt>
      <trkpt lat="44.04215" lon="2.1086">
        <ele>324</ele>
        <time>2011-03-26T13:28:57Z</time>
      </trkpt>
      <trkpt lat="44.04215" lon="2.10853">
        <ele>324</ele>
        <time>2011-03-26T13:28:58Z</time>
      </trkpt>
      <trkpt lat="44.04215" lon="2.10845">
        <ele>324</ele>
        <time>2011-03-26T13:28:59Z</time>
      </trkpt>
      <trkpt lat="44.04214" lon="2.10838">
        <ele>324</ele>
        <time>2011-03-26T13:29:00Z</time>
      </trkpt>
      <trkpt lat="44.04212" lon="2.10832">
        <ele>324</ele>
        <time>2011-03-26T13:29:01Z</time>
      </trkpt>
      <trkpt lat="44.04209" lon="2.10827">
        <ele>324</ele>
        <time>2011-03-26T13:29:02Z</time>
      </trkpt>
      <trkpt lat="44.04206" lon="2.10824">
        <ele>319</ele>
        <time>2011-03-26T13:29:03Z</time>
      </trkpt>
      <trkpt lat="44.04203" lon="2.10821">
        <ele>319</ele>
        <time>2011-03-26T13:29:04Z</time>
      </trkpt>
      <trkpt lat="44.04199" lon="2.10818">
        <ele>319</ele>
        <time>2011-03-26T13:29:05Z</time>
      </trkpt>
      <trkpt lat="44.04196" lon="2.10815">
        <ele>319</ele>
        <time>2011-03-26T13:29:06Z</time>
      </trkpt>
      <trkpt lat="44.04192" lon="2.10811">
        <ele>319</ele>
        <time>2011-03-26T13:29:07Z</time>
      </trkpt>
      <trkpt lat="44.04188" lon="2.10807">
        <ele>319</ele>
        <time>2011-03-26T13:29:08Z</time>
      </trkpt>
      <trkpt lat="44.04185" lon="2.10803">
        <ele>319</ele>
        <time>2011-03-26T13:29:09Z</time>
      </trkpt>
      <trkpt lat="44.04182" lon="2.10797">
        <ele>319</ele>
        <time>2011-03-26T13:29:10Z</time>
      </trkpt>
      <trkpt lat="44.0418" lon="2.10791">
        <ele>318</ele>
        <time>2011-03-26T13:29:11Z</time>
      </trkpt>
      <trkpt lat="44.04178" lon="2.10784">
        <ele>318</ele>
        <time>2011-03-26T13:29:12Z</time>
      </trkpt>
      <trkpt lat="44.04177" lon="2.10777">
        <ele>318</ele>
        <time>2011-03-26T13:29:13Z</time>
      </trkpt>
      <trkpt lat="44.04176" lon="2.10769">
        <ele>318</ele>
        <time>2011-03-26T13:29:14Z</time>
      </trkpt>
      <trkpt lat="44.04175" lon="2.1076">
        <ele>318</ele>
        <time>2011-03-26T13:29:15Z</time>
      </trkpt>
      <trkpt lat="44.04175" lon="2.10751">
        <ele>318</ele>
        <time>2011-03-26T13:29:16Z</time>
      </trkpt>
      <trkpt lat="44.04174" lon="2.10741">
        <ele>318</ele>
        <time>2011-03-26T13:29:17Z</time>
      </trkpt>
      <trkpt lat="44.04173" lon="2.10731">
        <ele>318</ele>
        <time>2011-03-26T13:29:18Z</time>
      </trkpt>
      <trkpt lat="44.04173" lon="2.10721">
        <ele>318</ele>
        <time>2011-03-26T13:29:19Z</time>
      </trkpt>
      <trkpt lat="44.04172" lon="2.1071">
        <ele>318</ele>
        <time>2011-03-26T13:29:20Z</time>
      </trkpt>
      <trkpt lat="44.04171" lon="2.10699">
        <ele>314</ele>
        <time>2011-03-26T13:29:21Z</time>
      </trkpt>
      <trkpt lat="44.04171" lon="2.10688">
        <ele>314</ele>
        <time>2011-03-26T13:29:22Z</time>
      </trkpt>
      <trkpt lat="44.04172" lon="2.10676">
        <ele>314</ele>
        <time>2011-03-26T13:29:23Z</time>
      </trkpt>
      <trkpt lat="44.04173" lon="2.10665">
        <ele>314</ele>
        <time>2011-03-26T13:29:24Z</time>
      </trkpt>
      <trkpt lat="44.04174" lon="2.10652">
        <ele>314</ele>
        <time>2011-03-26T13:29:25Z</time>
      </trkpt>
      <trkpt lat="44.04175" lon="2.1064">
        <ele>314</ele>
        <time>2011-03-26T13:29:26Z</time>
      </trkpt>
      <trkpt lat="44.04177" lon="2.10628">
        <ele>314</ele>
        <time>2011-03-26T13:29:27Z</time>
      </trkpt>
      <trkpt lat="44.04178" lon="2.10616">
        <ele>307</ele>
        <time>2011-03-26T13:29:28Z</time>
      </trkpt>
      <trkpt lat="44.04179" lon="2.10605">
        <ele>307</ele>
        <time>2011-03-26T13:29:29Z</time>
      </trkpt>
      <trkpt lat="44.04179" lon="2.10593">
        <ele>307</ele>
        <time>2011-03-26T13:29:30Z</time>
      </trkpt>
      <trkpt lat="44.04179" lon="2.10581">
        <ele>307</ele>
        <time>2011-03-26T13:29:31Z</time>
      </trkpt>
      <trkpt lat="44.04179" lon="2.10568">
        <ele>307</ele>
        <time>2011-03-26T13:29:32Z</time>
      </trkpt>
      <trkpt lat="44.04179" lon="2.10555">
        <ele>307</ele>
        <time>2011-03-26T13:29:33Z</time>
      </trkpt>
      <trkpt lat="44.04179" lon="2.10542">
        <ele>307</ele>
        <time>2011-03-26T13:29:34Z</time>
      </trkpt>
      <trkpt lat="44.04179" lon="2.10529">
        <ele>308</ele>
        <time>2011-03-26T13:29:35Z</time>
      </trkpt>
      <trkpt lat="44.04179" lon="2.10516">
        <ele>308</ele>
        <time>2011-03-26T13:29:36Z</time>
      </trkpt>
      <trkpt lat="44.04179" lon="2.10503">
        <ele>308</ele>
        <time>2011-03-26T13:29:37Z</time>
      </trkpt>
      <trkpt lat="44.04178" lon="2.10491">
        <ele>308</ele>
        <time>2011-03-26T13:29:38Z</time>
      </trkpt>
      <trkpt lat="44.04175" lon="2.10479">
        <ele>308</ele>
        <time>2011-03-26T13:29:39Z</time>
      </trkpt>
      <trkpt lat="44.04172" lon="2.10468">
        <ele>308</ele>
        <time>2011-03-26T13:29:40Z</time>
      </trkpt>
      <trkpt lat="44.04167" lon="2.10458">
        <ele>315</ele>
        <time>2011-03-26T13:29:41Z</time>
      </trkpt>
      <trkpt lat="44.04161" lon="2.10448">
        <ele>315</ele>
        <time>2011-03-26T13:29:42Z</time>
      </trkpt>
      <trkpt lat="44.04156" lon="2.10437">
        <ele>315</ele>
        <time>2011-03-26T13:29:43Z</time>
      </trkpt>
      <trkpt lat="44.0415" lon="2.10426">
        <ele>315</ele>
        <time>2011-03-26T13:29:44Z</time>
      </trkpt>
      <trkpt lat="44.04145" lon="2.10416">
        <ele>315</ele>
        <time>2011-03-26T13:29:45Z</time>
      </trkpt>
      <trkpt lat="44.0414" lon="2.10408">
        <ele>315</ele>
        <time>2011-03-26T13:29:46Z</time>
      </trkpt>
      <trkpt lat="44.04136" lon="2.10401">
        <ele>315</ele>
        <time>2011-03-26T13:29:47Z</time>
      </trkpt>
      <trkpt lat="44.04132" lon="2.10394">
        <ele>315</ele>
        <time>2011-03-26T13:29:48Z</time>
      </trkpt>
      <trkpt lat="44.04128" lon="2.10386">
        <ele>315</ele>
        <time>2011-03-26T13:29:49Z</time>
      </trkpt>
      <trkpt lat="44.04126" lon="2.10378">
        <ele>315</ele>
        <time>2011-03-26T13:29:50Z</time>
      </trkpt>
      <trkpt lat="44.04124" lon="2.10369">
        <ele>285</ele>
        <time>2011-03-26T13:29:51Z</time>
      </trkpt>
      <trkpt lat="44.04124" lon="2.10359">
        <ele>285</ele>
        <time>2011-03-26T13:29:52Z</time>
      </trkpt>
      <trkpt lat="44.04124" lon="2.1035">
        <ele>285</ele>
        <time>2011-03-26T13:29:53Z</time>
      </trkpt>
      <trkpt lat="44.04125" lon="2.10342">
        <ele>285</ele>
        <time>2011-03-26T13:29:54Z</time>
      </trkpt>
      <trkpt lat="44.04125" lon="2.10336">
        <ele>285</ele>
        <time>2011-03-26T13:29:55Z</time>
      </trkpt>
      <trkpt lat="44.04125" lon="2.10332">
        <ele>285</ele>
        <time>2011-03-26T13:29:56Z</time>
      </trkpt>
      <trkpt lat="44.04124" lon="2.1033">
        <ele>285</ele>
        <time>2011-03-26T13:29:57Z</time>
      </trkpt>
      <trkpt lat="44.0412" lon="2.10331">
        <ele>285</ele>
        <time>2011-03-26T13:30:00Z</time>
      </trkpt>
      <trkpt lat="44.04119" lon="2.10335">
        <ele>285</ele>
        <time>2011-03-26T13:30:01Z</time>
      </trkpt>
      <trkpt lat="44.04117" lon="2.1034">
        <ele>285</ele>
        <time>2011-03-26T13:30:02Z</time>
      </trkpt>
      <trkpt lat="44.04114" lon="2.10346">
        <ele>285</ele>
        <time>2011-03-26T13:30:03Z</time>
      </trkpt>
      <trkpt lat="44.04111" lon="2.10352">
        <ele>285</ele>
        <time>2011-03-26T13:30:04Z</time>
      </trkpt>
      <trkpt lat="44.04108" lon="2.1036">
        <ele>285</ele>
        <time>2011-03-26T13:30:05Z</time>
      </trkpt>
      <trkpt lat="44.04107" lon="2.10368">
        <ele>285</ele>
        <time>2011-03-26T13:30:06Z</time>
      </trkpt>
      <trkpt lat="44.04105" lon="2.10374">
        <ele>285</ele>
        <time>2011-03-26T13:30:07Z</time>
      </trkpt>
      <trkpt lat="44.04104" lon="2.1038">
        <ele>287</ele>
        <time>2011-03-26T13:30:08Z</time>
      </trkpt>
      <trkpt lat="44.04102" lon="2.10385">
        <ele>287</ele>
        <time>2011-03-26T13:30:09Z</time>
      </trkpt>
      <trkpt lat="44.041" lon="2.10389">
        <ele>287</ele>
        <time>2011-03-26T13:30:10Z</time>
      </trkpt>
      <trkpt lat="44.04099" lon="2.10393">
        <ele>287</ele>
        <time>2011-03-26T13:30:11Z</time>
      </trkpt>
      <trkpt lat="44.04099" lon="2.10397">
        <ele>287</ele>
        <time>2011-03-26T13:30:12Z</time>
      </trkpt>
      <trkpt lat="44.04099" lon="2.10401">
        <ele>287</ele>
        <time>2011-03-26T13:30:13Z</time>
      </trkpt>
      <trkpt lat="44.04098" lon="2.10405">
        <ele>287</ele>
        <time>2011-03-26T13:30:14Z</time>
      </trkpt>
      <trkpt lat="44.04096" lon="2.10409">
        <ele>287</ele>
        <time>2011-03-26T13:30:15Z</time>
      </trkpt>
      <trkpt lat="44.04093" lon="2.10411">
        <ele>287</ele>
        <time>2011-03-26T13:30:16Z</time>
      </trkpt>
      <trkpt lat="44.0409" lon="2.10412">
        <ele>287</ele>
        <time>2011-03-26T13:30:17Z</time>
      </trkpt>
      <trkpt lat="44.04087" lon="2.10416">
        <ele>287</ele>
        <time>2011-03-26T13:30:18Z</time>
      </trkpt>
      <trkpt lat="44.04084" lon="2.1042">
        <ele>287</ele>
        <time>2011-03-26T13:30:19Z</time>
      </trkpt>
      <trkpt lat="44.04081" lon="2.10425">
        <ele>287</ele>
        <time>2011-03-26T13:30:20Z</time>
      </trkpt>
      <trkpt lat="44.04078" lon="2.10431">
        <ele>287</ele>
        <time>2011-03-26T13:30:21Z</time>
      </trkpt>
      <trkpt lat="44.04074" lon="2.10438">
        <ele>287</ele>
        <time>2011-03-26T13:30:22Z</time>
      </trkpt>
      <trkpt lat="44.0407" lon="2.10443">
        <ele>287</ele>
        <time>2011-03-26T13:30:23Z</time>
      </trkpt>
      <trkpt lat="44.04066" lon="2.10449">
        <ele>287</ele>
        <time>2011-03-26T13:30:24Z</time>
      </trkpt>
      <trkpt lat="44.04062" lon="2.10454">
        <ele>287</ele>
        <time>2011-03-26T13:30:25Z</time>
      </trkpt>
      <trkpt lat="44.04058" lon="2.10459">
        <ele>278</ele>
        <time>2011-03-26T13:30:26Z</time>
      </trkpt>
      <trkpt lat="44.04056" lon="2.10466">
        <ele>278</ele>
        <time>2011-03-26T13:30:27Z</time>
      </trkpt>
      <trkpt lat="44.04053" lon="2.10471">
        <ele>278</ele>
        <time>2011-03-26T13:30:28Z</time>
      </trkpt>
      <trkpt lat="44.04051" lon="2.10476">
        <ele>278</ele>
        <time>2011-03-26T13:30:29Z</time>
      </trkpt>
      <trkpt lat="44.04049" lon="2.10482">
        <ele>278</ele>
        <time>2011-03-26T13:30:30Z</time>
      </trkpt>
      <trkpt lat="44.04047" lon="2.10488">
        <ele>278</ele>
        <time>2011-03-26T13:30:31Z</time>
      </trkpt>
      <trkpt lat="44.04045" lon="2.10494">
        <ele>278</ele>
        <time>2011-03-26T13:30:32Z</time>
      </trkpt>
      <trkpt lat="44.04043" lon="2.105">
        <ele>278</ele>
        <time>2011-03-26T13:30:33Z</time>
      </trkpt>
      <trkpt lat="44.04041" lon="2.10505">
        <ele>256</ele>
        <time>2011-03-26T13:30:34Z</time>
      </trkpt>
      <trkpt lat="44.04039" lon="2.1051">
        <ele>256</ele>
        <time>2011-03-26T13:30:35Z</time>
      </trkpt>
      <trkpt lat="44.04037" lon="2.10513">
        <ele>256</ele>
        <time>2011-03-26T13:30:36Z</time>
      </trkpt>
      <trkpt lat="44.04035" lon="2.10515">
        <ele>256</ele>
        <time>2011-03-26T13:30:37Z</time>
      </trkpt>
      <trkpt lat="44.04032" lon="2.10517">
        <ele>256</ele>
        <time>2011-03-26T13:30:39Z</time>
      </trkpt>
      <trkpt lat="44.0403" lon="2.10513">
        <ele>256</ele>
        <time>2011-03-26T13:30:42Z</time>
      </trkpt>
      <trkpt lat="44.04027" lon="2.10513">
        <ele>256</ele>
        <time>2011-03-26T13:30:44Z</time>
      </trkpt>
      <trkpt lat="44.04024" lon="2.10514">
        <ele>256</ele>
        <time>2011-03-26T13:30:45Z</time>
      </trkpt>
      <trkpt lat="44.04022" lon="2.10515">
        <ele>256</ele>
        <time>2011-03-26T13:30:46Z</time>
      </trkpt>
      <trkpt lat="44.0402" lon="2.10518">
        <ele>256</ele>
        <time>2011-03-26T13:30:47Z</time>
      </trkpt>
      <trkpt lat="44.04017" lon="2.10521">
        <ele>256</ele>
        <time>2011-03-26T13:30:48Z</time>
      </trkpt>
      <trkpt lat="44.04014" lon="2.10524">
        <ele>256</ele>
        <time>2011-03-26T13:30:49Z</time>
      </trkpt>
      <trkpt lat="44.04011" lon="2.10527">
        <ele>256</ele>
        <time>2011-03-26T13:30:50Z</time>
      </trkpt>
      <trkpt lat="44.04007" lon="2.1053">
        <ele>256</ele>
        <time>2011-03-26T13:30:51Z</time>
      </trkpt>
      <trkpt lat="44.04002" lon="2.10532">
        <ele>256</ele>
        <time>2011-03-26T13:30:52Z</time>
      </trkpt>
      <trkpt lat="44.03998" lon="2.10534">
        <ele>256</ele>
        <time>2011-03-26T13:30:53Z</time>
      </trkpt>
      <trkpt lat="44.03994" lon="2.10535">
        <ele>256</ele>
        <time>2011-03-26T13:30:54Z</time>
      </trkpt>
      <trkpt lat="44.0399" lon="2.10536">
        <ele>256</ele>
        <time>2011-03-26T13:30:55Z</time>
      </trkpt>
      <trkpt lat="44.03985" lon="2.10536">
        <ele>256</ele>
        <time>2011-03-26T13:30:56Z</time>
      </trkpt>
      <trkpt lat="44.03979" lon="2.10536">
        <ele>256</ele>
        <time>2011-03-26T13:30:57Z</time>
      </trkpt>
      <trkpt lat="44.03973" lon="2.10536">
        <ele>256</ele>
        <time>2011-03-26T13:30:58Z</time>
      </trkpt>
      <trkpt lat="44.03966" lon="2.10535">
        <ele>256</ele>
        <time>2011-03-26T13:30:59Z</time>
      </trkpt>
      <trkpt lat="44.03961" lon="2.10534">
        <ele>256</ele>
        <time>2011-03-26T13:31:00Z</time>
      </trkpt>
      <trkpt lat="44.03955" lon="2.10533">
        <ele>250</ele>
        <time>2011-03-26T13:31:01Z</time>
      </trkpt>
      <trkpt lat="44.0395" lon="2.10532">
        <ele>250</ele>
        <time>2011-03-26T13:31:02Z</time>
      </trkpt>
      <trkpt lat="44.03944" lon="2.1053">
        <ele>250</ele>
        <time>2011-03-26T13:31:03Z</time>
      </trkpt>
      <trkpt lat="44.03939" lon="2.10528">
        <ele>250</ele>
        <time>2011-03-26T13:31:04Z</time>
      </trkpt>
      <trkpt lat="44.03933" lon="2.10527">
        <ele>250</ele>
        <time>2011-03-26T13:31:05Z</time>
      </trkpt>
      <trkpt lat="44.03928" lon="2.10526">
        <ele>250</ele>
        <time>2011-03-26T13:31:06Z</time>
      </trkpt>
      <trkpt lat="44.03924" lon="2.10527">
        <ele>250</ele>
        <time>2011-03-26T13:31:07Z</time>
      </trkpt>
      <trkpt lat="44.03921" lon="2.10527">
        <ele>250</ele>
        <time>2011-03-26T13:31:08Z</time>
      </trkpt>
      <trkpt lat="44.03919" lon="2.10527">
        <ele>250</ele>
        <time>2011-03-26T13:31:09Z</time>
      </trkpt>
      <trkpt lat="44.03917" lon="2.10527">
        <ele>250</ele>
        <time>2011-03-26T13:31:10Z</time>
      </trkpt>
      <trkpt lat="44.03913" lon="2.10527">
        <ele>250</ele>
        <time>2011-03-26T13:31:11Z</time>
      </trkpt>
      <trkpt lat="44.03909" lon="2.10527">
        <ele>250</ele>
        <time>2011-03-26T13:31:12Z</time>
      </trkpt>
      <trkpt lat="44.03904" lon="2.10528">
        <ele>250</ele>
        <time>2011-03-26T13:31:13Z</time>
      </trkpt>
      <trkpt lat="44.03901" lon="2.10528">
        <ele>250</ele>
        <time>2011-03-26T13:31:14Z</time>
      </trkpt>
      <trkpt lat="44.03898" lon="2.10529">
        <ele>250</ele>
        <time>2011-03-26T13:31:15Z</time>
      </trkpt>
      <trkpt lat="44.03896" lon="2.1053">
        <ele>250</ele>
        <time>2011-03-26T13:31:16Z</time>
      </trkpt>
      <trkpt lat="44.03892" lon="2.10531">
        <ele>250</ele>
        <time>2011-03-26T13:31:18Z</time>
      </trkpt>
      <trkpt lat="44.03892" lon="2.10531">
        <ele>250</ele>
        <time>2011-03-26T13:31:26Z</time>
      </trkpt>
      <trkpt lat="44.03887" lon="2.10538">
        <ele>250</ele>
        <time>2011-03-26T13:31:43Z</time>
      </trkpt>
      <trkpt lat="44.03886" lon="2.10542">
        <ele>253</ele>
        <time>2011-03-26T13:31:44Z</time>
      </trkpt>
      <trkpt lat="44.03886" lon="2.10547">
        <ele>253</ele>
        <time>2011-03-26T13:31:45Z</time>
      </trkpt>
      <trkpt lat="44.03885" lon="2.1055">
        <ele>253</ele>
        <time>2011-03-26T13:31:46Z</time>
      </trkpt>
      <trkpt lat="44.03885" lon="2.10554">
        <ele>253</ele>
        <time>2011-03-26T13:31:47Z</time>
      </trkpt>
      <trkpt lat="44.03884" lon="2.10557">
        <ele>253</ele>
        <time>2011-03-26T13:31:48Z</time>
      </trkpt>
      <trkpt lat="44.03883" lon="2.10562">
        <ele>253</ele>
        <time>2011-03-26T13:31:50Z</time>
      </trkpt>
      <trkpt lat="44.03882" lon="2.10566">
        <ele>253</ele>
        <time>2011-03-26T13:31:51Z</time>
      </trkpt>
      <trkpt lat="44.03882" lon="2.10569">
        <ele>253</ele>
        <time>2011-03-26T13:31:52Z</time>
      </trkpt>
      <trkpt lat="44.03881" lon="2.10572">
        <ele>253</ele>
        <time>2011-03-26T13:31:53Z</time>
      </trkpt>
      <trkpt lat="44.0388" lon="2.10576">
        <ele>253</ele>
        <time>2011-03-26T13:31:54Z</time>
      </trkpt>
      <trkpt lat="44.0388" lon="2.1058">
        <ele>253</ele>
        <time>2011-03-26T13:31:55Z</time>
      </trkpt>
      <trkpt lat="44.03879" lon="2.10584">
        <ele>253</ele>
        <time>2011-03-26T13:31:56Z</time>
      </trkpt>
      <trkpt lat="44.03879" lon="2.10588">
        <ele>253</ele>
        <time>2011-03-26T13:31:57Z</time>
      </trkpt>
      <trkpt lat="44.03879" lon="2.10592">
        <ele>253</ele>
        <time>2011-03-26T13:31:58Z</time>
      </trkpt>
      <trkpt lat="44.03878" lon="2.10596">
        <ele>253</ele>
        <time>2011-03-26T13:31:59Z</time>
      </trkpt>
      <trkpt lat="44.03878" lon="2.10601">
        <ele>253</ele>
        <time>2011-03-26T13:32:00Z</time>
      </trkpt>
      <trkpt lat="44.03878" lon="2.10605">
        <ele>253</ele>
        <time>2011-03-26T13:32:01Z</time>
      </trkpt>
      <trkpt lat="44.03878" lon="2.10608">
        <ele>253</ele>
        <time>2011-03-26T13:32:02Z</time>
      </trkpt>
      <trkpt lat="44.03878" lon="2.10612">
        <ele>253</ele>
        <time>2011-03-26T13:32:03Z</time>
      </trkpt>
      <trkpt lat="44.03878" lon="2.10616">
        <ele>253</ele>
        <time>2011-03-26T13:32:04Z</time>
      </trkpt>
      <trkpt lat="44.03878" lon="2.1062">
        <ele>253</ele>
        <time>2011-03-26T13:32:05Z</time>
      </trkpt>
      <trkpt lat="44.03878" lon="2.10624">
        <ele>253</ele>
        <time>2011-03-26T13:32:06Z</time>
      </trkpt>
      <trkpt lat="44.03878" lon="2.10628">
        <ele>255</ele>
        <time>2011-03-26T13:32:07Z</time>
      </trkpt>
      <trkpt lat="44.03878" lon="2.10632">
        <ele>255</ele>
        <time>2011-03-26T13:32:08Z</time>
      </trkpt>
      <trkpt lat="44.03878" lon="2.10635">
        <ele>255</ele>
        <time>2011-03-26T13:32:09Z</time>
      </trkpt>
      <trkpt lat="44.03878" lon="2.10639">
        <ele>255</ele>
        <time>2011-03-26T13:32:10Z</time>
      </trkpt>
      <trkpt lat="44.03878" lon="2.10643">
        <ele>255</ele>
        <time>2011-03-26T13:32:11Z</time>
      </trkpt>
      <trkpt lat="44.03878" lon="2.10649">
        <ele>255</ele>
        <time>2011-03-26T13:32:13Z</time>
      </trkpt>
      <trkpt lat="44.03878" lon="2.10658">
        <ele>255</ele>
        <time>2011-03-26T13:32:16Z</time>
      </trkpt>
      <trkpt lat="44.03879" lon="2.10662">
        <ele>255</ele>
        <time>2011-03-26T13:32:17Z</time>
      </trkpt>
      <trkpt lat="44.03879" lon="2.10666">
        <ele>255</ele>
        <time>2011-03-26T13:32:18Z</time>
      </trkpt>
      <trkpt lat="44.0388" lon="2.1067">
        <ele>255</ele>
        <time>2011-03-26T13:32:19Z</time>
      </trkpt>
      <trkpt lat="44.0388" lon="2.10674">
        <ele>255</ele>
        <time>2011-03-26T13:32:20Z</time>
      </trkpt>
      <trkpt lat="44.0388" lon="2.10677">
        <ele>255</ele>
        <time>2011-03-26T13:32:21Z</time>
      </trkpt>
      <trkpt lat="44.03881" lon="2.10681">
        <ele>255</ele>
        <time>2011-03-26T13:32:22Z</time>
      </trkpt>
      <trkpt lat="44.03881" lon="2.10685">
        <ele>255</ele>
        <time>2011-03-26T13:32:23Z</time>
      </trkpt>
      <trkpt lat="44.03881" lon="2.10688">
        <ele>255</ele>
        <time>2011-03-26T13:32:24Z</time>
      </trkpt>
      <trkpt lat="44.03881" lon="2.10692">
        <ele>255</ele>
        <time>2011-03-26T13:32:25Z</time>
      </trkpt>
      <trkpt lat="44.03881" lon="2.10695">
        <ele>255</ele>
        <time>2011-03-26T13:32:26Z</time>
      </trkpt>
      <trkpt lat="44.03881" lon="2.10699">
        <ele>255</ele>
        <time>2011-03-26T13:32:27Z</time>
      </trkpt>
      <trkpt lat="44.03882" lon="2.10703">
        <ele>255</ele>
        <time>2011-03-26T13:32:28Z</time>
      </trkpt>
      <trkpt lat="44.03882" lon="2.10706">
        <ele>255</ele>
        <time>2011-03-26T13:32:29Z</time>
      </trkpt>
      <trkpt lat="44.03882" lon="2.1071">
        <ele>260</ele>
        <time>2011-03-26T13:32:30Z</time>
      </trkpt>
      <trkpt lat="44.03882" lon="2.10713">
        <ele>260</ele>
        <time>2011-03-26T13:32:31Z</time>
      </trkpt>
      <trkpt lat="44.03882" lon="2.10716">
        <ele>260</ele>
        <time>2011-03-26T13:32:32Z</time>
      </trkpt>
      <trkpt lat="44.03881" lon="2.10723">
        <ele>260</ele>
        <time>2011-03-26T13:32:34Z</time>
      </trkpt>
      <trkpt lat="44.03881" lon="2.10729">
        <ele>260</ele>
        <time>2011-03-26T13:32:36Z</time>
      </trkpt>
      <trkpt lat="44.0388" lon="2.10736">
        <ele>260</ele>
        <time>2011-03-26T13:32:38Z</time>
      </trkpt>
      <trkpt lat="44.03881" lon="2.10744">
        <ele>260</ele>
        <time>2011-03-26T13:32:40Z</time>
      </trkpt>
      <trkpt lat="44.03881" lon="2.10753">
        <ele>260</ele>
        <time>2011-03-26T13:32:42Z</time>
      </trkpt>
      <trkpt lat="44.03881" lon="2.10756">
        <ele>260</ele>
        <time>2011-03-26T13:32:43Z</time>
      </trkpt>
      <trkpt lat="44.03882" lon="2.1076">
        <ele>260</ele>
        <time>2011-03-26T13:32:44Z</time>
      </trkpt>
      <trkpt lat="44.03882" lon="2.10764">
        <ele>260</ele>
        <time>2011-03-26T13:32:45Z</time>
      </trkpt>
      <trkpt lat="44.03882" lon="2.10768">
        <ele>260</ele>
        <time>2011-03-26T13:32:46Z</time>
      </trkpt>
      <trkpt lat="44.03883" lon="2.10772">
        <ele>260</ele>
        <time>2011-03-26T13:32:47Z</time>
      </trkpt>
      <trkpt lat="44.03883" lon="2.10777">
        <ele>260</ele>
        <time>2011-03-26T13:32:48Z</time>
      </trkpt>
      <trkpt lat="44.03883" lon="2.10781">
        <ele>260</ele>
        <time>2011-03-26T13:32:49Z</time>
      </trkpt>
      <trkpt lat="44.03884" lon="2.10786">
        <ele>260</ele>
        <time>2011-03-26T13:32:50Z</time>
      </trkpt>
      <trkpt lat="44.03884" lon="2.10789">
        <ele>260</ele>
        <time>2011-03-26T13:32:51Z</time>
      </trkpt>
      <trkpt lat="44.03885" lon="2.10793">
        <ele>262</ele>
        <time>2011-03-26T13:32:52Z</time>
      </trkpt>
      <trkpt lat="44.03885" lon="2.10798">
        <ele>262</ele>
        <time>2011-03-26T13:32:53Z</time>
      </trkpt>
      <trkpt lat="44.03886" lon="2.10803">
        <ele>262</ele>
        <time>2011-03-26T13:32:55Z</time>
      </trkpt>
      <trkpt lat="44.03887" lon="2.10807">
        <ele>262</ele>
        <time>2011-03-26T13:32:56Z</time>
      </trkpt>
      <trkpt lat="44.03887" lon="2.10811">
        <ele>262</ele>
        <time>2011-03-26T13:32:57Z</time>
      </trkpt>
      <trkpt lat="44.03888" lon="2.10816">
        <ele>262</ele>
        <time>2011-03-26T13:32:58Z</time>
      </trkpt>
      <trkpt lat="44.03889" lon="2.10821">
        <ele>262</ele>
        <time>2011-03-26T13:32:59Z</time>
      </trkpt>
      <trkpt lat="44.0389" lon="2.10826">
        <ele>262</ele>
        <time>2011-03-26T13:33:00Z</time>
      </trkpt>
      <trkpt lat="44.03891" lon="2.10831">
        <ele>262</ele>
        <time>2011-03-26T13:33:01Z</time>
      </trkpt>
      <trkpt lat="44.03892" lon="2.10836">
        <ele>262</ele>
        <time>2011-03-26T13:33:02Z</time>
      </trkpt>
      <trkpt lat="44.03893" lon="2.10841">
        <ele>262</ele>
        <time>2011-03-26T13:33:03Z</time>
      </trkpt>
      <trkpt lat="44.03894" lon="2.10847">
        <ele>262</ele>
        <time>2011-03-26T13:33:04Z</time>
      </trkpt>
      <trkpt lat="44.03894" lon="2.10853">
        <ele>262</ele>
        <time>2011-03-26T13:33:05Z</time>
      </trkpt>
      <trkpt lat="44.03895" lon="2.10859">
        <ele>262</ele>
        <time>2011-03-26T13:33:06Z</time>
      </trkpt>
      <trkpt lat="44.03895" lon="2.10866">
        <ele>262</ele>
        <time>2011-03-26T13:33:07Z</time>
      </trkpt>
      <trkpt lat="44.03896" lon="2.10873">
        <ele>262</ele>
        <time>2011-03-26T13:33:08Z</time>
      </trkpt>
      <trkpt lat="44.03896" lon="2.1088">
        <ele>258</ele>
        <time>2011-03-26T13:33:09Z</time>
      </trkpt>
      <trkpt lat="44.03895" lon="2.10887">
        <ele>258</ele>
        <time>2011-03-26T13:33:10Z</time>
      </trkpt>
      <trkpt lat="44.03895" lon="2.10894">
        <ele>258</ele>
        <time>2011-03-26T13:33:11Z</time>
      </trkpt>
      <trkpt lat="44.03894" lon="2.10901">
        <ele>258</ele>
        <time>2011-03-26T13:33:12Z</time>
      </trkpt>
      <trkpt lat="44.03894" lon="2.10909">
        <ele>258</ele>
        <time>2011-03-26T13:33:13Z</time>
      </trkpt>
      <trkpt lat="44.03893" lon="2.10916">
        <ele>258</ele>
        <time>2011-03-26T13:33:14Z</time>
      </trkpt>
      <trkpt lat="44.03893" lon="2.10924">
        <ele>258</ele>
        <time>2011-03-26T13:33:15Z</time>
      </trkpt>
      <trkpt lat="44.03892" lon="2.10932">
        <ele>258</ele>
        <time>2011-03-26T13:33:16Z</time>
      </trkpt>
      <trkpt lat="44.03891" lon="2.10941">
        <ele>258</ele>
        <time>2011-03-26T13:33:17Z</time>
      </trkpt>
      <trkpt lat="44.0389" lon="2.10949">
        <ele>258</ele>
        <time>2011-03-26T13:33:18Z</time>
      </trkpt>
      <trkpt lat="44.03889" lon="2.10957">
        <ele>258</ele>
        <time>2011-03-26T13:33:19Z</time>
      </trkpt>
      <trkpt lat="44.03887" lon="2.10965">
        <ele>256</ele>
        <time>2011-03-26T13:33:20Z</time>
      </trkpt>
      <trkpt lat="44.03885" lon="2.10973">
        <ele>256</ele>
        <time>2011-03-26T13:33:21Z</time>
      </trkpt>
      <trkpt lat="44.03884" lon="2.10981">
        <ele>256</ele>
        <time>2011-03-26T13:33:22Z</time>
      </trkpt>
      <trkpt lat="44.03882" lon="2.10989">
        <ele>256</ele>
        <time>2011-03-26T13:33:23Z</time>
      </trkpt>
      <trkpt lat="44.0388" lon="2.10996">
        <ele>256</ele>
        <time>2011-03-26T13:33:24Z</time>
      </trkpt>
      <trkpt lat="44.03878" lon="2.11004">
        <ele>256</ele>
        <time>2011-03-26T13:33:25Z</time>
      </trkpt>
      <trkpt lat="44.03874" lon="2.11018">
        <ele>260</ele>
        <time>2011-03-26T13:33:26Z</time>
      </trkpt>
      <trkpt lat="44.03872" lon="2.11024">
        <ele>260</ele>
        <time>2011-03-26T13:33:27Z</time>
      </trkpt>
      <trkpt lat="44.0387" lon="2.1103">
        <ele>260</ele>
        <time>2011-03-26T13:33:28Z</time>
      </trkpt>
      <trkpt lat="44.03868" lon="2.11035">
        <ele>260</ele>
        <time>2011-03-26T13:33:29Z</time>
      </trkpt>
      <trkpt lat="44.03866" lon="2.11041">
        <ele>260</ele>
        <time>2011-03-26T13:33:30Z</time>
      </trkpt>
      <trkpt lat="44.03864" lon="2.11045">
        <ele>261</ele>
        <time>2011-03-26T13:33:31Z</time>
      </trkpt>
      <trkpt lat="44.03862" lon="2.11049">
        <ele>261</ele>
        <time>2011-03-26T13:33:32Z</time>
      </trkpt>
      <trkpt lat="44.0386" lon="2.11053">
        <ele>261</ele>
        <time>2011-03-26T13:33:33Z</time>
      </trkpt>
      <trkpt lat="44.03857" lon="2.11056">
        <ele>261</ele>
        <time>2011-03-26T13:33:34Z</time>
      </trkpt>
      <trkpt lat="44.03855" lon="2.11059">
        <ele>261</ele>
        <time>2011-03-26T13:33:35Z</time>
      </trkpt>
      <trkpt lat="44.03853" lon="2.11061">
        <ele>261</ele>
        <time>2011-03-26T13:33:36Z</time>
      </trkpt>
      <trkpt lat="44.0385" lon="2.11064">
        <ele>261</ele>
        <time>2011-03-26T13:33:37Z</time>
      </trkpt>
      <trkpt lat="44.03848" lon="2.11066">
        <ele>261</ele>
        <time>2011-03-26T13:33:38Z</time>
      </trkpt>
      <trkpt lat="44.03845" lon="2.11069">
        <ele>261</ele>
        <time>2011-03-26T13:33:39Z</time>
      </trkpt>
      <trkpt lat="44.03843" lon="2.11071">
        <ele>261</ele>
        <time>2011-03-26T13:33:40Z</time>
      </trkpt>
      <trkpt lat="44.03841" lon="2.11073">
        <ele>261</ele>
        <time>2011-03-26T13:33:41Z</time>
      </trkpt>
      <trkpt lat="44.03839" lon="2.11076">
        <ele>261</ele>
        <time>2011-03-26T13:33:42Z</time>
      </trkpt>
      <trkpt lat="44.03837" lon="2.11078">
        <ele>261</ele>
        <time>2011-03-26T13:33:43Z</time>
      </trkpt>
      <trkpt lat="44.03835" lon="2.1108">
        <ele>261</ele>
        <time>2011-03-26T13:33:44Z</time>
      </trkpt>
      <trkpt lat="44.03832" lon="2.11081">
        <ele>261</ele>
        <time>2011-03-26T13:33:45Z</time>
      </trkpt>
      <trkpt lat="44.0383" lon="2.11083">
        <ele>261</ele>
        <time>2011-03-26T13:33:46Z</time>
      </trkpt>
      <trkpt lat="44.03827" lon="2.11084">
        <ele>261</ele>
        <time>2011-03-26T13:33:47Z</time>
      </trkpt>
      <trkpt lat="44.03825" lon="2.11085">
        <ele>261</ele>
        <time>2011-03-26T13:33:48Z</time>
      </trkpt>
      <trkpt lat="44.03822" lon="2.11086">
        <ele>261</ele>
        <time>2011-03-26T13:33:49Z</time>
      </trkpt>
      <trkpt lat="44.0382" lon="2.11087">
        <ele>261</ele>
        <time>2011-03-26T13:33:50Z</time>
      </trkpt>
      <trkpt lat="44.03817" lon="2.11088">
        <ele>261</ele>
        <time>2011-03-26T13:33:51Z</time>
      </trkpt>
      <trkpt lat="44.03815" lon="2.11089">
        <ele>261</ele>
        <time>2011-03-26T13:33:52Z</time>
      </trkpt>
      <trkpt lat="44.03813" lon="2.1109">
        <ele>261</ele>
        <time>2011-03-26T13:33:53Z</time>
      </trkpt>
      <trkpt lat="44.03811" lon="2.11091">
        <ele>261</ele>
        <time>2011-03-26T13:33:54Z</time>
      </trkpt>
      <trkpt lat="44.03807" lon="2.11094">
        <ele>261</ele>
        <time>2011-03-26T13:33:56Z</time>
      </trkpt>
      <trkpt lat="44.03805" lon="2.11095">
        <ele>261</ele>
        <time>2011-03-26T13:33:57Z</time>
      </trkpt>
      <trkpt lat="44.03802" lon="2.11097">
        <ele>261</ele>
        <time>2011-03-26T13:33:58Z</time>
      </trkpt>
      <trkpt lat="44.038" lon="2.11099">
        <ele>261</ele>
        <time>2011-03-26T13:33:59Z</time>
      </trkpt>
      <trkpt lat="44.03798" lon="2.11101">
        <ele>261</ele>
        <time>2011-03-26T13:34:00Z</time>
      </trkpt>
      <trkpt lat="44.03796" lon="2.11104">
        <ele>261</ele>
        <time>2011-03-26T13:34:01Z</time>
      </trkpt>
      <trkpt lat="44.03794" lon="2.11106">
        <ele>261</ele>
        <time>2011-03-26T13:34:02Z</time>
      </trkpt>
      <trkpt lat="44.03792" lon="2.11108">
        <ele>267</ele>
        <time>2011-03-26T13:34:03Z</time>
      </trkpt>
      <trkpt lat="44.03789" lon="2.1111">
        <ele>267</ele>
        <time>2011-03-26T13:34:04Z</time>
      </trkpt>
      <trkpt lat="44.03787" lon="2.11113">
        <ele>267</ele>
        <time>2011-03-26T13:34:05Z</time>
      </trkpt>
      <trkpt lat="44.03785" lon="2.11115">
        <ele>267</ele>
        <time>2011-03-26T13:34:06Z</time>
      </trkpt>
      <trkpt lat="44.03783" lon="2.11117">
        <ele>267</ele>
        <time>2011-03-26T13:34:07Z</time>
      </trkpt>
      <trkpt lat="44.03781" lon="2.1112">
        <ele>267</ele>
        <time>2011-03-26T13:34:08Z</time>
      </trkpt>
      <trkpt lat="44.03779" lon="2.11122">
        <ele>267</ele>
        <time>2011-03-26T13:34:09Z</time>
      </trkpt>
      <trkpt lat="44.03778" lon="2.11124">
        <ele>267</ele>
        <time>2011-03-26T13:34:10Z</time>
      </trkpt>
      <trkpt lat="44.03776" lon="2.11126">
        <ele>267</ele>
        <time>2011-03-26T13:34:11Z</time>
      </trkpt>
      <trkpt lat="44.03774" lon="2.11129">
        <ele>267</ele>
        <time>2011-03-26T13:34:12Z</time>
      </trkpt>
      <trkpt lat="44.03772" lon="2.11131">
        <ele>267</ele>
        <time>2011-03-26T13:34:13Z</time>
      </trkpt>
      <trkpt lat="44.0377" lon="2.11134">
        <ele>267</ele>
        <time>2011-03-26T13:34:14Z</time>
      </trkpt>
      <trkpt lat="44.03769" lon="2.11136">
        <ele>267</ele>
        <time>2011-03-26T13:34:15Z</time>
      </trkpt>
      <trkpt lat="44.03767" lon="2.11139">
        <ele>267</ele>
        <time>2011-03-26T13:34:16Z</time>
      </trkpt>
      <trkpt lat="44.03765" lon="2.11142">
        <ele>267</ele>
        <time>2011-03-26T13:34:17Z</time>
      </trkpt>
      <trkpt lat="44.03764" lon="2.11144">
        <ele>267</ele>
        <time>2011-03-26T13:34:18Z</time>
      </trkpt>
      <trkpt lat="44.03762" lon="2.11147">
        <ele>267</ele>
        <time>2011-03-26T13:34:19Z</time>
      </trkpt>
      <trkpt lat="44.03761" lon="2.11151">
        <ele>267</ele>
        <time>2011-03-26T13:34:20Z</time>
      </trkpt>
      <trkpt lat="44.03759" lon="2.11154">
        <ele>267</ele>
        <time>2011-03-26T13:34:21Z</time>
      </trkpt>
      <trkpt lat="44.03758" lon="2.11157">
        <ele>267</ele>
        <time>2011-03-26T13:34:22Z</time>
      </trkpt>
      <trkpt lat="44.03756" lon="2.1116">
        <ele>267</ele>
        <time>2011-03-26T13:34:23Z</time>
      </trkpt>
      <trkpt lat="44.03754" lon="2.11163">
        <ele>267</ele>
        <time>2011-03-26T13:34:24Z</time>
      </trkpt>
      <trkpt lat="44.03752" lon="2.11165">
        <ele>267</ele>
        <time>2011-03-26T13:34:25Z</time>
      </trkpt>
      <trkpt lat="44.0375" lon="2.11168">
        <ele>267</ele>
        <time>2011-03-26T13:34:26Z</time>
      </trkpt>
      <trkpt lat="44.03748" lon="2.11172">
        <ele>267</ele>
        <time>2011-03-26T13:34:27Z</time>
      </trkpt>
      <trkpt lat="44.03746" lon="2.11175">
        <ele>267</ele>
        <time>2011-03-26T13:34:28Z</time>
      </trkpt>
      <trkpt lat="44.03744" lon="2.11178">
        <ele>267</ele>
        <time>2011-03-26T13:34:29Z</time>
      </trkpt>
      <trkpt lat="44.03742" lon="2.1118">
        <ele>267</ele>
        <time>2011-03-26T13:34:30Z</time>
      </trkpt>
      <trkpt lat="44.0374" lon="2.11183">
        <ele>267</ele>
        <time>2011-03-26T13:34:31Z</time>
      </trkpt>
      <trkpt lat="44.03738" lon="2.11185">
        <ele>267</ele>
        <time>2011-03-26T13:34:32Z</time>
      </trkpt>
      <trkpt lat="44.03736" lon="2.11188">
        <ele>267</ele>
        <time>2011-03-26T13:34:33Z</time>
      </trkpt>
      <trkpt lat="44.03734" lon="2.1119">
        <ele>267</ele>
        <time>2011-03-26T13:34:34Z</time>
      </trkpt>
      <trkpt lat="44.03731" lon="2.11192">
        <ele>267</ele>
        <time>2011-03-26T13:34:35Z</time>
      </trkpt>
      <trkpt lat="44.03729" lon="2.11195">
        <ele>267</ele>
        <time>2011-03-26T13:34:36Z</time>
      </trkpt>
      <trkpt lat="44.03727" lon="2.11197">
        <ele>267</ele>
        <time>2011-03-26T13:34:37Z</time>
      </trkpt>
      <trkpt lat="44.03725" lon="2.11199">
        <ele>267</ele>
        <time>2011-03-26T13:34:38Z</time>
      </trkpt>
      <trkpt lat="44.03722" lon="2.11201">
        <ele>267</ele>
        <time>2011-03-26T13:34:39Z</time>
      </trkpt>
      <trkpt lat="44.0372" lon="2.11203">
        <ele>267</ele>
        <time>2011-03-26T13:34:40Z</time>
      </trkpt>
      <trkpt lat="44.03718" lon="2.11206">
        <ele>267</ele>
        <time>2011-03-26T13:34:41Z</time>
      </trkpt>
      <trkpt lat="44.03716" lon="2.11208">
        <ele>267</ele>
        <time>2011-03-26T13:34:42Z</time>
      </trkpt>
      <trkpt lat="44.03714" lon="2.11211">
        <ele>271</ele>
        <time>2011-03-26T13:34:43Z</time>
      </trkpt>
      <trkpt lat="44.03712" lon="2.11213">
        <ele>271</ele>
        <time>2011-03-26T13:34:44Z</time>
      </trkpt>
      <trkpt lat="44.03709" lon="2.11215">
        <ele>271</ele>
        <time>2011-03-26T13:34:45Z</time>
      </trkpt>
      <trkpt lat="44.03707" lon="2.11218">
        <ele>273</ele>
        <time>2011-03-26T13:34:46Z</time>
      </trkpt>
      <trkpt lat="44.03705" lon="2.1122">
        <ele>273</ele>
        <time>2011-03-26T13:34:47Z</time>
      </trkpt>
      <trkpt lat="44.03703" lon="2.11223">
        <ele>273</ele>
        <time>2011-03-26T13:34:48Z</time>
      </trkpt>
      <trkpt lat="44.03701" lon="2.11225">
        <ele>273</ele>
        <time>2011-03-26T13:34:49Z</time>
      </trkpt>
      <trkpt lat="44.03698" lon="2.11228">
        <ele>273</ele>
        <time>2011-03-26T13:34:50Z</time>
      </trkpt>
      <trkpt lat="44.03696" lon="2.1123">
        <ele>273</ele>
        <time>2011-03-26T13:34:51Z</time>
      </trkpt>
      <trkpt lat="44.03694" lon="2.11232">
        <ele>273</ele>
        <time>2011-03-26T13:34:52Z</time>
      </trkpt>
      <trkpt lat="44.03691" lon="2.11235">
        <ele>273</ele>
        <time>2011-03-26T13:34:53Z</time>
      </trkpt>
      <trkpt lat="44.03688" lon="2.11237">
        <ele>273</ele>
        <time>2011-03-26T13:34:54Z</time>
      </trkpt>
      <trkpt lat="44.03684" lon="2.1124">
        <ele>273</ele>
        <time>2011-03-26T13:34:55Z</time>
      </trkpt>
      <trkpt lat="44.03682" lon="2.11242">
        <ele>273</ele>
        <time>2011-03-26T13:34:56Z</time>
      </trkpt>
      <trkpt lat="44.03679" lon="2.11245">
        <ele>273</ele>
        <time>2011-03-26T13:34:57Z</time>
      </trkpt>
      <trkpt lat="44.03676" lon="2.11247">
        <ele>273</ele>
        <time>2011-03-26T13:34:58Z</time>
      </trkpt>
      <trkpt lat="44.03673" lon="2.11249">
        <ele>273</ele>
        <time>2011-03-26T13:34:59Z</time>
      </trkpt>
      <trkpt lat="44.0367" lon="2.11252">
        <ele>273</ele>
        <time>2011-03-26T13:35:00Z</time>
      </trkpt>
      <trkpt lat="44.03667" lon="2.11253">
        <ele>273</ele>
        <time>2011-03-26T13:35:01Z</time>
      </trkpt>
      <trkpt lat="44.03665" lon="2.11255">
        <ele>273</ele>
        <time>2011-03-26T13:35:02Z</time>
      </trkpt>
      <trkpt lat="44.03662" lon="2.11257">
        <ele>273</ele>
        <time>2011-03-26T13:35:03Z</time>
      </trkpt>
      <trkpt lat="44.03659" lon="2.11259">
        <ele>273</ele>
        <time>2011-03-26T13:35:04Z</time>
      </trkpt>
      <trkpt lat="44.03657" lon="2.1126">
        <ele>273</ele>
        <time>2011-03-26T13:35:05Z</time>
      </trkpt>
      <trkpt lat="44.03655" lon="2.11262">
        <ele>273</ele>
        <time>2011-03-26T13:35:06Z</time>
      </trkpt>
      <trkpt lat="44.03652" lon="2.11264">
        <ele>273</ele>
        <time>2011-03-26T13:35:07Z</time>
      </trkpt>
      <trkpt lat="44.03649" lon="2.11266">
        <ele>273</ele>
        <time>2011-03-26T13:35:08Z</time>
      </trkpt>
      <trkpt lat="44.03647" lon="2.11268">
        <ele>273</ele>
        <time>2011-03-26T13:35:09Z</time>
      </trkpt>
      <trkpt lat="44.03644" lon="2.1127">
        <ele>273</ele>
        <time>2011-03-26T13:35:10Z</time>
      </trkpt>
      <trkpt lat="44.03641" lon="2.11271">
        <ele>273</ele>
        <time>2011-03-26T13:35:11Z</time>
      </trkpt>
      <trkpt lat="44.03638" lon="2.11273">
        <ele>273</ele>
        <time>2011-03-26T13:35:12Z</time>
      </trkpt>
      <trkpt lat="44.03635" lon="2.11275">
        <ele>273</ele>
        <time>2011-03-26T13:35:13Z</time>
      </trkpt>
      <trkpt lat="44.03632" lon="2.11277">
        <ele>273</ele>
        <time>2011-03-26T13:35:14Z</time>
      </trkpt>
      <trkpt lat="44.03629" lon="2.11279">
        <ele>273</ele>
        <time>2011-03-26T13:35:15Z</time>
      </trkpt>
      <trkpt lat="44.03626" lon="2.11281">
        <ele>273</ele>
        <time>2011-03-26T13:35:16Z</time>
      </trkpt>
      <trkpt lat="44.03623" lon="2.11283">
        <ele>274</ele>
        <time>2011-03-26T13:35:17Z</time>
      </trkpt>
      <trkpt lat="44.0362" lon="2.11286">
        <ele>274</ele>
        <time>2011-03-26T13:35:18Z</time>
      </trkpt>
      <trkpt lat="44.03617" lon="2.11288">
        <ele>274</ele>
        <time>2011-03-26T13:35:19Z</time>
      </trkpt>
      <trkpt lat="44.03615" lon="2.1129">
        <ele>274</ele>
        <time>2011-03-26T13:35:20Z</time>
      </trkpt>
      <trkpt lat="44.03612" lon="2.11292">
        <ele>277</ele>
        <time>2011-03-26T13:35:21Z</time>
      </trkpt>
      <trkpt lat="44.0361" lon="2.11294">
        <ele>277</ele>
        <time>2011-03-26T13:35:22Z</time>
      </trkpt>
      <trkpt lat="44.03607" lon="2.11296">
        <ele>277</ele>
        <time>2011-03-26T13:35:23Z</time>
      </trkpt>
      <trkpt lat="44.03604" lon="2.11299">
        <ele>277</ele>
        <time>2011-03-26T13:35:24Z</time>
      </trkpt>
      <trkpt lat="44.03601" lon="2.11302">
        <ele>277</ele>
        <time>2011-03-26T13:35:25Z</time>
      </trkpt>
      <trkpt lat="44.03598" lon="2.11304">
        <ele>277</ele>
        <time>2011-03-26T13:35:26Z</time>
      </trkpt>
      <trkpt lat="44.03595" lon="2.11307">
        <ele>277</ele>
        <time>2011-03-26T13:35:27Z</time>
      </trkpt>
      <trkpt lat="44.03592" lon="2.11309">
        <ele>277</ele>
        <time>2011-03-26T13:35:28Z</time>
      </trkpt>
      <trkpt lat="44.03589" lon="2.1131">
        <ele>277</ele>
        <time>2011-03-26T13:35:29Z</time>
      </trkpt>
      <trkpt lat="44.03586" lon="2.11312">
        <ele>277</ele>
        <time>2011-03-26T13:35:30Z</time>
      </trkpt>
      <trkpt lat="44.03583" lon="2.11314">
        <ele>277</ele>
        <time>2011-03-26T13:35:31Z</time>
      </trkpt>
      <trkpt lat="44.0358" lon="2.11316">
        <ele>277</ele>
        <time>2011-03-26T13:35:32Z</time>
      </trkpt>
      <trkpt lat="44.03576" lon="2.11317">
        <ele>277</ele>
        <time>2011-03-26T13:35:33Z</time>
      </trkpt>
      <trkpt lat="44.03573" lon="2.11318">
        <ele>277</ele>
        <time>2011-03-26T13:35:34Z</time>
      </trkpt>
      <trkpt lat="44.0357" lon="2.1132">
        <ele>277</ele>
        <time>2011-03-26T13:35:35Z</time>
      </trkpt>
      <trkpt lat="44.03566" lon="2.11321">
        <ele>277</ele>
        <time>2011-03-26T13:35:36Z</time>
      </trkpt>
      <trkpt lat="44.03563" lon="2.11323">
        <ele>277</ele>
        <time>2011-03-26T13:35:37Z</time>
      </trkpt>
      <trkpt lat="44.03559" lon="2.11324">
        <ele>277</ele>
        <time>2011-03-26T13:35:38Z</time>
      </trkpt>
      <trkpt lat="44.03556" lon="2.11325">
        <ele>277</ele>
        <time>2011-03-26T13:35:39Z</time>
      </trkpt>
      <trkpt lat="44.03552" lon="2.11326">
        <ele>277</ele>
        <time>2011-03-26T13:35:40Z</time>
      </trkpt>
      <trkpt lat="44.03549" lon="2.11327">
        <ele>277</ele>
        <time>2011-03-26T13:35:41Z</time>
      </trkpt>
      <trkpt lat="44.03545" lon="2.11328">
        <ele>277</ele>
        <time>2011-03-26T13:35:42Z</time>
      </trkpt>
      <trkpt lat="44.03541" lon="2.11329">
        <ele>277</ele>
        <time>2011-03-26T13:35:43Z</time>
      </trkpt>
      <trkpt lat="44.03538" lon="2.11329">
        <ele>277</ele>
        <time>2011-03-26T13:35:44Z</time>
      </trkpt>
      <trkpt lat="44.03534" lon="2.1133">
        <ele>277</ele>
        <time>2011-03-26T13:35:45Z</time>
      </trkpt>
      <trkpt lat="44.0353" lon="2.11331">
        <ele>277</ele>
        <time>2011-03-26T13:35:46Z</time>
      </trkpt>
      <trkpt lat="44.03527" lon="2.11331">
        <ele>277</ele>
        <time>2011-03-26T13:35:47Z</time>
      </trkpt>
      <trkpt lat="44.03523" lon="2.11331">
        <ele>277</ele>
        <time>2011-03-26T13:35:48Z</time>
      </trkpt>
      <trkpt lat="44.0352" lon="2.11332">
        <ele>277</ele>
        <time>2011-03-26T13:35:49Z</time>
      </trkpt>
      <trkpt lat="44.03516" lon="2.11333">
        <ele>277</ele>
        <time>2011-03-26T13:35:50Z</time>
      </trkpt>
      <trkpt lat="44.03513" lon="2.11334">
        <ele>277</ele>
        <time>2011-03-26T13:35:51Z</time>
      </trkpt>
      <trkpt lat="44.0351" lon="2.11333">
        <ele>277</ele>
        <time>2011-03-26T13:35:52Z</time>
      </trkpt>
      <trkpt lat="44.03506" lon="2.11334">
        <ele>277</ele>
        <time>2011-03-26T13:35:53Z</time>
      </trkpt>
      <trkpt lat="44.03503" lon="2.11335">
        <ele>277</ele>
        <time>2011-03-26T13:35:54Z</time>
      </trkpt>
      <trkpt lat="44.035" lon="2.11336">
        <ele>277</ele>
        <time>2011-03-26T13:35:55Z</time>
      </trkpt>
      <trkpt lat="44.03497" lon="2.11336">
        <ele>277</ele>
        <time>2011-03-26T13:35:56Z</time>
      </trkpt>
      <trkpt lat="44.03494" lon="2.11337">
        <ele>277</ele>
        <time>2011-03-26T13:35:57Z</time>
      </trkpt>
      <trkpt lat="44.03491" lon="2.11338">
        <ele>277</ele>
        <time>2011-03-26T13:35:58Z</time>
      </trkpt>
      <trkpt lat="44.03488" lon="2.11339">
        <ele>277</ele>
        <time>2011-03-26T13:35:59Z</time>
      </trkpt>
      <trkpt lat="44.03485" lon="2.11339">
        <ele>277</ele>
        <time>2011-03-26T13:36:00Z</time>
      </trkpt>
      <trkpt lat="44.03483" lon="2.11339">
        <ele>277</ele>
        <time>2011-03-26T13:36:01Z</time>
      </trkpt>
      <trkpt lat="44.0348" lon="2.11339">
        <ele>277</ele>
        <time>2011-03-26T13:36:02Z</time>
      </trkpt>
      <trkpt lat="44.03477" lon="2.1134">
        <ele>277</ele>
        <time>2011-03-26T13:36:03Z</time>
      </trkpt>
      <trkpt lat="44.03475" lon="2.11341">
        <ele>277</ele>
        <time>2011-03-26T13:36:04Z</time>
      </trkpt>
      <trkpt lat="44.03472" lon="2.11342">
        <ele>277</ele>
        <time>2011-03-26T13:36:05Z</time>
      </trkpt>
      <trkpt lat="44.03469" lon="2.11342">
        <ele>277</ele>
        <time>2011-03-26T13:36:06Z</time>
      </trkpt>
      <trkpt lat="44.03466" lon="2.11343">
        <ele>277</ele>
        <time>2011-03-26T13:36:07Z</time>
      </trkpt>
      <trkpt lat="44.03463" lon="2.11344">
        <ele>277</ele>
        <time>2011-03-26T13:36:08Z</time>
      </trkpt>
      <trkpt lat="44.0346" lon="2.11345">
        <ele>277</ele>
        <time>2011-03-26T13:36:09Z</time>
      </trkpt>
      <trkpt lat="44.03458" lon="2.11346">
        <ele>285</ele>
        <time>2011-03-26T13:36:10Z</time>
      </trkpt>
      <trkpt lat="44.03455" lon="2.11346">
        <ele>285</ele>
        <time>2011-03-26T13:36:11Z</time>
      </trkpt>
      <trkpt lat="44.03453" lon="2.11347">
        <ele>285</ele>
        <time>2011-03-26T13:36:12Z</time>
      </trkpt>
      <trkpt lat="44.0345" lon="2.11347">
        <ele>285</ele>
        <time>2011-03-26T13:36:13Z</time>
      </trkpt>
      <trkpt lat="44.03448" lon="2.11347">
        <ele>285</ele>
        <time>2011-03-26T13:36:14Z</time>
      </trkpt>
      <trkpt lat="44.03446" lon="2.11347">
        <ele>285</ele>
        <time>2011-03-26T13:36:15Z</time>
      </trkpt>
      <trkpt lat="44.03443" lon="2.11348">
        <ele>285</ele>
        <time>2011-03-26T13:36:16Z</time>
      </trkpt>
      <trkpt lat="44.03441" lon="2.11347">
        <ele>285</ele>
        <time>2011-03-26T13:36:17Z</time>
      </trkpt>
      <trkpt lat="44.03438" lon="2.11347">
        <ele>285</ele>
        <time>2011-03-26T13:36:18Z</time>
      </trkpt>
      <trkpt lat="44.03434" lon="2.11347">
        <ele>285</ele>
        <time>2011-03-26T13:36:20Z</time>
      </trkpt>
      <trkpt lat="44.03431" lon="2.11348">
        <ele>285</ele>
        <time>2011-03-26T13:36:21Z</time>
      </trkpt>
      <trkpt lat="44.03429" lon="2.11349">
        <ele>285</ele>
        <time>2011-03-26T13:36:22Z</time>
      </trkpt>
      <trkpt lat="44.03427" lon="2.1135">
        <ele>285</ele>
        <time>2011-03-26T13:36:23Z</time>
      </trkpt>
      <trkpt lat="44.03424" lon="2.11351">
        <ele>285</ele>
        <time>2011-03-26T13:36:24Z</time>
      </trkpt>
      <trkpt lat="44.03422" lon="2.11352">
        <ele>285</ele>
        <time>2011-03-26T13:36:25Z</time>
      </trkpt>
      <trkpt lat="44.03419" lon="2.11352">
        <ele>285</ele>
        <time>2011-03-26T13:36:26Z</time>
      </trkpt>
      <trkpt lat="44.03417" lon="2.11352">
        <ele>285</ele>
        <time>2011-03-26T13:36:27Z</time>
      </trkpt>
      <trkpt lat="44.03414" lon="2.11352">
        <ele>285</ele>
        <time>2011-03-26T13:36:28Z</time>
      </trkpt>
      <trkpt lat="44.03412" lon="2.11352">
        <ele>285</ele>
        <time>2011-03-26T13:36:29Z</time>
      </trkpt>
      <trkpt lat="44.03409" lon="2.11352">
        <ele>285</ele>
        <time>2011-03-26T13:36:30Z</time>
      </trkpt>
      <trkpt lat="44.03407" lon="2.11352">
        <ele>285</ele>
        <time>2011-03-26T13:36:31Z</time>
      </trkpt>
      <trkpt lat="44.03404" lon="2.1135">
        <ele>285</ele>
        <time>2011-03-26T13:36:32Z</time>
      </trkpt>
      <trkpt lat="44.03403" lon="2.11347">
        <ele>285</ele>
        <time>2011-03-26T13:36:33Z</time>
      </trkpt>
      <trkpt lat="44.03401" lon="2.11344">
        <ele>285</ele>
        <time>2011-03-26T13:36:34Z</time>
      </trkpt>
      <trkpt lat="44.03401" lon="2.11341">
        <ele>285</ele>
        <time>2011-03-26T13:36:35Z</time>
      </trkpt>
      <trkpt lat="44.034" lon="2.11338">
        <ele>285</ele>
        <time>2011-03-26T13:36:36Z</time>
      </trkpt>
      <trkpt lat="44.03399" lon="2.11334">
        <ele>285</ele>
        <time>2011-03-26T13:36:37Z</time>
      </trkpt>
      <trkpt lat="44.03399" lon="2.11331">
        <ele>285</ele>
        <time>2011-03-26T13:36:38Z</time>
      </trkpt>
      <trkpt lat="44.03398" lon="2.11328">
        <ele>285</ele>
        <time>2011-03-26T13:36:39Z</time>
      </trkpt>
      <trkpt lat="44.03396" lon="2.11323">
        <ele>285</ele>
        <time>2011-03-26T13:36:41Z</time>
      </trkpt>
      <trkpt lat="44.03396" lon="2.1132">
        <ele>285</ele>
        <time>2011-03-26T13:36:42Z</time>
      </trkpt>
      <trkpt lat="44.03395" lon="2.11316">
        <ele>285</ele>
        <time>2011-03-26T13:36:43Z</time>
      </trkpt>
      <trkpt lat="44.03395" lon="2.11313">
        <ele>285</ele>
        <time>2011-03-26T13:36:44Z</time>
      </trkpt>
      <trkpt lat="44.03394" lon="2.1131">
        <ele>285</ele>
        <time>2011-03-26T13:36:45Z</time>
      </trkpt>
      <trkpt lat="44.03393" lon="2.11307">
        <ele>285</ele>
        <time>2011-03-26T13:36:46Z</time>
      </trkpt>
      <trkpt lat="44.03392" lon="2.11303">
        <ele>285</ele>
        <time>2011-03-26T13:36:47Z</time>
      </trkpt>
      <trkpt lat="44.03392" lon="2.113">
        <ele>285</ele>
        <time>2011-03-26T13:36:48Z</time>
      </trkpt>
      <trkpt lat="44.03391" lon="2.11297">
        <ele>285</ele>
        <time>2011-03-26T13:36:49Z</time>
      </trkpt>
      <trkpt lat="44.0339" lon="2.11294">
        <ele>285</ele>
        <time>2011-03-26T13:36:50Z</time>
      </trkpt>
      <trkpt lat="44.0339" lon="2.1129">
        <ele>287</ele>
        <time>2011-03-26T13:36:51Z</time>
      </trkpt>
      <trkpt lat="44.03389" lon="2.11287">
        <ele>287</ele>
        <time>2011-03-26T13:36:52Z</time>
      </trkpt>
      <trkpt lat="44.03388" lon="2.11284">
        <ele>287</ele>
        <time>2011-03-26T13:36:53Z</time>
      </trkpt>
      <trkpt lat="44.03387" lon="2.11281">
        <ele>287</ele>
        <time>2011-03-26T13:36:54Z</time>
      </trkpt>
      <trkpt lat="44.03386" lon="2.11278">
        <ele>287</ele>
        <time>2011-03-26T13:36:55Z</time>
      </trkpt>
      <trkpt lat="44.03385" lon="2.11275">
        <ele>287</ele>
        <time>2011-03-26T13:36:56Z</time>
      </trkpt>
      <trkpt lat="44.03384" lon="2.11272">
        <ele>287</ele>
        <time>2011-03-26T13:36:57Z</time>
      </trkpt>
      <trkpt lat="44.03383" lon="2.11269">
        <ele>287</ele>
        <time>2011-03-26T13:36:58Z</time>
      </trkpt>
      <trkpt lat="44.03382" lon="2.11266">
        <ele>287</ele>
        <time>2011-03-26T13:36:59Z</time>
      </trkpt>
      <trkpt lat="44.03381" lon="2.11263">
        <ele>287</ele>
        <time>2011-03-26T13:37:00Z</time>
      </trkpt>
      <trkpt lat="44.0338" lon="2.1126">
        <ele>287</ele>
        <time>2011-03-26T13:37:01Z</time>
      </trkpt>
      <trkpt lat="44.03379" lon="2.11257">
        <ele>287</ele>
        <time>2011-03-26T13:37:02Z</time>
      </trkpt>
      <trkpt lat="44.03377" lon="2.11254">
        <ele>287</ele>
        <time>2011-03-26T13:37:03Z</time>
      </trkpt>
      <trkpt lat="44.03376" lon="2.11251">
        <ele>287</ele>
        <time>2011-03-26T13:37:04Z</time>
      </trkpt>
      <trkpt lat="44.03375" lon="2.11248">
        <ele>302</ele>
        <time>2011-03-26T13:37:05Z</time>
      </trkpt>
      <trkpt lat="44.03373" lon="2.11246">
        <ele>302</ele>
        <time>2011-03-26T13:37:06Z</time>
      </trkpt>
      <trkpt lat="44.03372" lon="2.11244">
        <ele>302</ele>
        <time>2011-03-26T13:37:07Z</time>
      </trkpt>
      <trkpt lat="44.0337" lon="2.11241">
        <ele>302</ele>
        <time>2011-03-26T13:37:08Z</time>
      </trkpt>
      <trkpt lat="44.03368" lon="2.11239">
        <ele>302</ele>
        <time>2011-03-26T13:37:09Z</time>
      </trkpt>
      <trkpt lat="44.03366" lon="2.11237">
        <ele>302</ele>
        <time>2011-03-26T13:37:10Z</time>
      </trkpt>
      <trkpt lat="44.03364" lon="2.11234">
        <ele>302</ele>
        <time>2011-03-26T13:37:11Z</time>
      </trkpt>
      <trkpt lat="44.03362" lon="2.11232">
        <ele>302</ele>
        <time>2011-03-26T13:37:12Z</time>
      </trkpt>
      <trkpt lat="44.0336" lon="2.11231">
        <ele>302</ele>
        <time>2011-03-26T13:37:13Z</time>
      </trkpt>
      <trkpt lat="44.03359" lon="2.11229">
        <ele>302</ele>
        <time>2011-03-26T13:37:14Z</time>
      </trkpt>
      <trkpt lat="44.03356" lon="2.11227">
        <ele>302</ele>
        <time>2011-03-26T13:37:15Z</time>
      </trkpt>
      <trkpt lat="44.03354" lon="2.11226">
        <ele>302</ele>
        <time>2011-03-26T13:37:16Z</time>
      </trkpt>
      <trkpt lat="44.03352" lon="2.11225">
        <ele>302</ele>
        <time>2011-03-26T13:37:17Z</time>
      </trkpt>
      <trkpt lat="44.03349" lon="2.11224">
        <ele>302</ele>
        <time>2011-03-26T13:37:18Z</time>
      </trkpt>
      <trkpt lat="44.03347" lon="2.11223">
        <ele>302</ele>
        <time>2011-03-26T13:37:19Z</time>
      </trkpt>
      <trkpt lat="44.03343" lon="2.11222">
        <ele>302</ele>
        <time>2011-03-26T13:37:21Z</time>
      </trkpt>
      <trkpt lat="44.0334" lon="2.11222">
        <ele>302</ele>
        <time>2011-03-26T13:37:22Z</time>
      </trkpt>
      <trkpt lat="44.03336" lon="2.11223">
        <ele>302</ele>
        <time>2011-03-26T13:37:24Z</time>
      </trkpt>
      <trkpt lat="44.03333" lon="2.11224">
        <ele>302</ele>
        <time>2011-03-26T13:37:26Z</time>
      </trkpt>
      <trkpt lat="44.03331" lon="2.11225">
        <ele>302</ele>
        <time>2011-03-26T13:37:27Z</time>
      </trkpt>
      <trkpt lat="44.03329" lon="2.11227">
        <ele>302</ele>
        <time>2011-03-26T13:37:29Z</time>
      </trkpt>
      <trkpt lat="44.03329" lon="2.11231">
        <ele>302</ele>
        <time>2011-03-26T13:37:31Z</time>
      </trkpt>
      <trkpt lat="44.03329" lon="2.11235">
        <ele>302</ele>
        <time>2011-03-26T13:37:33Z</time>
      </trkpt>
      <trkpt lat="44.0333" lon="2.11237">
        <ele>302</ele>
        <time>2011-03-26T13:37:34Z</time>
      </trkpt>
      <trkpt lat="44.03332" lon="2.1124">
        <ele>302</ele>
        <time>2011-03-26T13:37:36Z</time>
      </trkpt>
      <trkpt lat="44.03334" lon="2.11242">
        <ele>302</ele>
        <time>2011-03-26T13:37:38Z</time>
      </trkpt>
      <trkpt lat="44.03336" lon="2.11245">
        <ele>302</ele>
        <time>2011-03-26T13:37:40Z</time>
      </trkpt>
      <trkpt lat="44.03339" lon="2.11249">
        <ele>302</ele>
        <time>2011-03-26T13:37:42Z</time>
      </trkpt>
      <trkpt lat="44.0334" lon="2.11253">
        <ele>302</ele>
        <time>2011-03-26T13:37:44Z</time>
      </trkpt>
      <trkpt lat="44.03342" lon="2.11257">
        <ele>302</ele>
        <time>2011-03-26T13:37:46Z</time>
      </trkpt>
      <trkpt lat="44.03342" lon="2.11263">
        <ele>302</ele>
        <time>2011-03-26T13:37:48Z</time>
      </trkpt>
      <trkpt lat="44.03342" lon="2.11268">
        <ele>302</ele>
        <time>2011-03-26T13:37:50Z</time>
      </trkpt>
      <trkpt lat="44.03341" lon="2.11273">
        <ele>302</ele>
        <time>2011-03-26T13:37:52Z</time>
      </trkpt>
      <trkpt lat="44.0334" lon="2.11277">
        <ele>302</ele>
        <time>2011-03-26T13:37:54Z</time>
      </trkpt>
      <trkpt lat="44.03338" lon="2.11281">
        <ele>302</ele>
        <time>2011-03-26T13:37:56Z</time>
      </trkpt>
      <trkpt lat="44.03336" lon="2.11285">
        <ele>302</ele>
        <time>2011-03-26T13:37:58Z</time>
      </trkpt>
      <trkpt lat="44.03332" lon="2.11288">
        <ele>302</ele>
        <time>2011-03-26T13:38:00Z</time>
      </trkpt>
      <trkpt lat="44.03328" lon="2.1129">
        <ele>302</ele>
        <time>2011-03-26T13:38:02Z</time>
      </trkpt>
      <trkpt lat="44.03325" lon="2.11292">
        <ele>302</ele>
        <time>2011-03-26T13:38:04Z</time>
      </trkpt>
      <trkpt lat="44.03322" lon="2.11296">
        <ele>302</ele>
        <time>2011-03-26T13:38:06Z</time>
      </trkpt>
      <trkpt lat="44.03319" lon="2.11299">
        <ele>302</ele>
        <time>2011-03-26T13:38:08Z</time>
      </trkpt>
      <trkpt lat="44.03316" lon="2.11303">
        <ele>302</ele>
        <time>2011-03-26T13:38:10Z</time>
      </trkpt>
      <trkpt lat="44.03312" lon="2.11306">
        <ele>302</ele>
        <time>2011-03-26T13:38:12Z</time>
      </trkpt>
      <trkpt lat="44.03311" lon="2.11307">
        <ele>302</ele>
        <time>2011-03-26T13:38:13Z</time>
      </trkpt>
      <trkpt lat="44.03307" lon="2.11311">
        <ele>302</ele>
        <time>2011-03-26T13:38:15Z</time>
      </trkpt>
      <trkpt lat="44.03305" lon="2.11312">
        <ele>302</ele>
        <time>2011-03-26T13:38:16Z</time>
      </trkpt>
      <trkpt lat="44.03301" lon="2.11315">
        <ele>302</ele>
        <time>2011-03-26T13:38:18Z</time>
      </trkpt>
      <trkpt lat="44.03297" lon="2.11318">
        <ele>302</ele>
        <time>2011-03-26T13:38:20Z</time>
      </trkpt>
      <trkpt lat="44.03295" lon="2.11319">
        <ele>302</ele>
        <time>2011-03-26T13:38:21Z</time>
      </trkpt>
      <trkpt lat="44.03291" lon="2.11319">
        <ele>315</ele>
        <time>2011-03-26T13:38:23Z</time>
      </trkpt>
      <trkpt lat="44.03288" lon="2.11318">
        <ele>315</ele>
        <time>2011-03-26T13:38:25Z</time>
      </trkpt>
      <trkpt lat="44.03284" lon="2.11317">
        <ele>315</ele>
        <time>2011-03-26T13:38:27Z</time>
      </trkpt>
      <trkpt lat="44.0328" lon="2.11319">
        <ele>315</ele>
        <time>2011-03-26T13:38:29Z</time>
      </trkpt>
      <trkpt lat="44.03276" lon="2.1132">
        <ele>315</ele>
        <time>2011-03-26T13:38:31Z</time>
      </trkpt>
      <trkpt lat="44.03272" lon="2.11322">
        <ele>315</ele>
        <time>2011-03-26T13:38:33Z</time>
      </trkpt>
      <trkpt lat="44.03268" lon="2.11323">
        <ele>315</ele>
        <time>2011-03-26T13:38:35Z</time>
      </trkpt>
      <trkpt lat="44.03264" lon="2.11324">
        <ele>315</ele>
        <time>2011-03-26T13:38:37Z</time>
      </trkpt>
      <trkpt lat="44.0326" lon="2.11326">
        <ele>315</ele>
        <time>2011-03-26T13:38:39Z</time>
      </trkpt>
      <trkpt lat="44.03256" lon="2.11328">
        <ele>315</ele>
        <time>2011-03-26T13:38:41Z</time>
      </trkpt>
      <trkpt lat="44.03253" lon="2.1133">
        <ele>315</ele>
        <time>2011-03-26T13:38:43Z</time>
      </trkpt>
      <trkpt lat="44.03248" lon="2.11331">
        <ele>315</ele>
        <time>2011-03-26T13:38:45Z</time>
      </trkpt>
      <trkpt lat="44.03245" lon="2.11331">
        <ele>315</ele>
        <time>2011-03-26T13:38:47Z</time>
      </trkpt>
      <trkpt lat="44.0324" lon="2.11332">
        <ele>315</ele>
        <time>2011-03-26T13:38:49Z</time>
      </trkpt>
      <trkpt lat="44.03238" lon="2.11332">
        <ele>315</ele>
        <time>2011-03-26T13:38:50Z</time>
      </trkpt>
      <trkpt lat="44.03236" lon="2.11332">
        <ele>315</ele>
        <time>2011-03-26T13:38:51Z</time>
      </trkpt>
      <trkpt lat="44.03233" lon="2.11332">
        <ele>315</ele>
        <time>2011-03-26T13:38:52Z</time>
      </trkpt>
      <trkpt lat="44.03231" lon="2.11332">
        <ele>315</ele>
        <time>2011-03-26T13:38:53Z</time>
      </trkpt>
      <trkpt lat="44.03227" lon="2.11332">
        <ele>315</ele>
        <time>2011-03-26T13:38:55Z</time>
      </trkpt>
      <trkpt lat="44.03225" lon="2.11332">
        <ele>315</ele>
        <time>2011-03-26T13:38:56Z</time>
      </trkpt>
      <trkpt lat="44.0322" lon="2.11332">
        <ele>315</ele>
        <time>2011-03-26T13:38:58Z</time>
      </trkpt>
      <trkpt lat="44.03216" lon="2.11332">
        <ele>315</ele>
        <time>2011-03-26T13:39:00Z</time>
      </trkpt>
      <trkpt lat="44.03212" lon="2.11333">
        <ele>315</ele>
        <time>2011-03-26T13:39:02Z</time>
      </trkpt>
      <trkpt lat="44.03207" lon="2.11333">
        <ele>314</ele>
        <time>2011-03-26T13:39:04Z</time>
      </trkpt>
      <trkpt lat="44.03203" lon="2.11332">
        <ele>314</ele>
        <time>2011-03-26T13:39:06Z</time>
      </trkpt>
      <trkpt lat="44.03201" lon="2.11332">
        <ele>314</ele>
        <time>2011-03-26T13:39:07Z</time>
      </trkpt>
      <trkpt lat="44.03199" lon="2.11332">
        <ele>314</ele>
        <time>2011-03-26T13:39:08Z</time>
      </trkpt>
      <trkpt lat="44.03196" lon="2.11332">
        <ele>314</ele>
        <time>2011-03-26T13:39:09Z</time>
      </trkpt>
      <trkpt lat="44.03192" lon="2.11333">
        <ele>314</ele>
        <time>2011-03-26T13:39:11Z</time>
      </trkpt>
      <trkpt lat="44.0319" lon="2.11334">
        <ele>314</ele>
        <time>2011-03-26T13:39:12Z</time>
      </trkpt>
      <trkpt lat="44.03187" lon="2.11334">
        <ele>314</ele>
        <time>2011-03-26T13:39:13Z</time>
      </trkpt>
      <trkpt lat="44.03184" lon="2.11335">
        <ele>314</ele>
        <time>2011-03-26T13:39:14Z</time>
      </trkpt>
      <trkpt lat="44.03182" lon="2.11336">
        <ele>314</ele>
        <time>2011-03-26T13:39:15Z</time>
      </trkpt>
      <trkpt lat="44.03179" lon="2.11337">
        <ele>314</ele>
        <time>2011-03-26T13:39:16Z</time>
      </trkpt>
      <trkpt lat="44.03176" lon="2.11338">
        <ele>314</ele>
        <time>2011-03-26T13:39:17Z</time>
      </trkpt>
      <trkpt lat="44.03174" lon="2.11338">
        <ele>314</ele>
        <time>2011-03-26T13:39:18Z</time>
      </trkpt>
      <trkpt lat="44.03171" lon="2.11339">
        <ele>314</ele>
        <time>2011-03-26T13:39:19Z</time>
      </trkpt>
      <trkpt lat="44.03169" lon="2.1134">
        <ele>314</ele>
        <time>2011-03-26T13:39:20Z</time>
      </trkpt>
      <trkpt lat="44.03165" lon="2.11341">
        <ele>314</ele>
        <time>2011-03-26T13:39:22Z</time>
      </trkpt>
      <trkpt lat="44.03161" lon="2.11342">
        <ele>314</ele>
        <time>2011-03-26T13:39:24Z</time>
      </trkpt>
      <trkpt lat="44.03159" lon="2.11343">
        <ele>314</ele>
        <time>2011-03-26T13:39:25Z</time>
      </trkpt>
      <trkpt lat="44.03154" lon="2.11344">
        <ele>314</ele>
        <time>2011-03-26T13:39:27Z</time>
      </trkpt>
      <trkpt lat="44.03152" lon="2.11345">
        <ele>314</ele>
        <time>2011-03-26T13:39:28Z</time>
      </trkpt>
      <trkpt lat="44.0315" lon="2.11346">
        <ele>314</ele>
        <time>2011-03-26T13:39:29Z</time>
      </trkpt>
      <trkpt lat="44.03147" lon="2.11346">
        <ele>314</ele>
        <time>2011-03-26T13:39:30Z</time>
      </trkpt>
      <trkpt lat="44.03144" lon="2.11347">
        <ele>314</ele>
        <time>2011-03-26T13:39:31Z</time>
      </trkpt>
      <trkpt lat="44.03141" lon="2.11348">
        <ele>314</ele>
        <time>2011-03-26T13:39:32Z</time>
      </trkpt>
      <trkpt lat="44.03138" lon="2.11349">
        <ele>314</ele>
        <time>2011-03-26T13:39:33Z</time>
      </trkpt>
      <trkpt lat="44.03135" lon="2.1135">
        <ele>314</ele>
        <time>2011-03-26T13:39:34Z</time>
      </trkpt>
      <trkpt lat="44.03132" lon="2.11351">
        <ele>314</ele>
        <time>2011-03-26T13:39:35Z</time>
      </trkpt>
      <trkpt lat="44.03129" lon="2.11352">
        <ele>314</ele>
        <time>2011-03-26T13:39:36Z</time>
      </trkpt>
      <trkpt lat="44.03125" lon="2.11353">
        <ele>314</ele>
        <time>2011-03-26T13:39:37Z</time>
      </trkpt>
      <trkpt lat="44.03122" lon="2.11354">
        <ele>315</ele>
        <time>2011-03-26T13:39:38Z</time>
      </trkpt>
      <trkpt lat="44.03118" lon="2.11356">
        <ele>315</ele>
        <time>2011-03-26T13:39:39Z</time>
      </trkpt>
      <trkpt lat="44.03115" lon="2.11357">
        <ele>315</ele>
        <time>2011-03-26T13:39:40Z</time>
      </trkpt>
      <trkpt lat="44.03111" lon="2.11358">
        <ele>315</ele>
        <time>2011-03-26T13:39:41Z</time>
      </trkpt>
      <trkpt lat="44.03108" lon="2.11359">
        <ele>315</ele>
        <time>2011-03-26T13:39:42Z</time>
      </trkpt>
      <trkpt lat="44.03104" lon="2.1136">
        <ele>315</ele>
        <time>2011-03-26T13:39:43Z</time>
      </trkpt>
      <trkpt lat="44.03101" lon="2.11361">
        <ele>315</ele>
        <time>2011-03-26T13:39:44Z</time>
      </trkpt>
      <trkpt lat="44.03097" lon="2.11362">
        <ele>315</ele>
        <time>2011-03-26T13:39:45Z</time>
      </trkpt>
      <trkpt lat="44.03093" lon="2.11363">
        <ele>315</ele>
        <time>2011-03-26T13:39:46Z</time>
      </trkpt>
      <trkpt lat="44.03089" lon="2.11364">
        <ele>315</ele>
        <time>2011-03-26T13:39:47Z</time>
      </trkpt>
      <trkpt lat="44.03085" lon="2.11365">
        <ele>315</ele>
        <time>2011-03-26T13:39:48Z</time>
      </trkpt>
      <trkpt lat="44.03081" lon="2.11366">
        <ele>315</ele>
        <time>2011-03-26T13:39:49Z</time>
      </trkpt>
      <trkpt lat="44.03077" lon="2.11367">
        <ele>315</ele>
        <time>2011-03-26T13:39:50Z</time>
      </trkpt>
      <trkpt lat="44.03073" lon="2.11368">
        <ele>315</ele>
        <time>2011-03-26T13:39:51Z</time>
      </trkpt>
      <trkpt lat="44.03069" lon="2.11369">
        <ele>315</ele>
        <time>2011-03-26T13:39:52Z</time>
      </trkpt>
      <trkpt lat="44.03065" lon="2.11371">
        <ele>315</ele>
        <time>2011-03-26T13:39:53Z</time>
      </trkpt>
      <trkpt lat="44.0306" lon="2.11372">
        <ele>315</ele>
        <time>2011-03-26T13:39:54Z</time>
      </trkpt>
      <trkpt lat="44.03056" lon="2.11373">
        <ele>315</ele>
        <time>2011-03-26T13:39:55Z</time>
      </trkpt>
      <trkpt lat="44.03052" lon="2.11375">
        <ele>315</ele>
        <time>2011-03-26T13:39:56Z</time>
      </trkpt>
      <trkpt lat="44.03048" lon="2.11376">
        <ele>318</ele>
        <time>2011-03-26T13:39:57Z</time>
      </trkpt>
      <trkpt lat="44.03043" lon="2.11378">
        <ele>318</ele>
        <time>2011-03-26T13:39:58Z</time>
      </trkpt>
      <trkpt lat="44.03039" lon="2.11379">
        <ele>315</ele>
        <time>2011-03-26T13:39:59Z</time>
      </trkpt>
      <trkpt lat="44.03035" lon="2.11381">
        <ele>315</ele>
        <time>2011-03-26T13:40:00Z</time>
      </trkpt>
      <trkpt lat="44.03031" lon="2.11384">
        <ele>315</ele>
        <time>2011-03-26T13:40:01Z</time>
      </trkpt>
      <trkpt lat="44.03027" lon="2.11386">
        <ele>315</ele>
        <time>2011-03-26T13:40:02Z</time>
      </trkpt>
      <trkpt lat="44.03023" lon="2.11389">
        <ele>315</ele>
        <time>2011-03-26T13:40:03Z</time>
      </trkpt>
      <trkpt lat="44.03019" lon="2.11391">
        <ele>315</ele>
        <time>2011-03-26T13:40:04Z</time>
      </trkpt>
      <trkpt lat="44.03015" lon="2.11393">
        <ele>315</ele>
        <time>2011-03-26T13:40:05Z</time>
      </trkpt>
      <trkpt lat="44.03011" lon="2.11396">
        <ele>315</ele>
        <time>2011-03-26T13:40:06Z</time>
      </trkpt>
      <trkpt lat="44.03007" lon="2.11399">
        <ele>315</ele>
        <time>2011-03-26T13:40:07Z</time>
      </trkpt>
      <trkpt lat="44.03003" lon="2.11402">
        <ele>315</ele>
        <time>2011-03-26T13:40:08Z</time>
      </trkpt>
      <trkpt lat="44.02998" lon="2.11405">
        <ele>315</ele>
        <time>2011-03-26T13:40:09Z</time>
      </trkpt>
      <trkpt lat="44.02994" lon="2.11409">
        <ele>315</ele>
        <time>2011-03-26T13:40:10Z</time>
      </trkpt>
      <trkpt lat="44.0299" lon="2.11413">
        <ele>315</ele>
        <time>2011-03-26T13:40:11Z</time>
      </trkpt>
      <trkpt lat="44.02986" lon="2.11417">
        <ele>315</ele>
        <time>2011-03-26T13:40:12Z</time>
      </trkpt>
      <trkpt lat="44.02982" lon="2.11421">
        <ele>315</ele>
        <time>2011-03-26T13:40:13Z</time>
      </trkpt>
      <trkpt lat="44.02977" lon="2.11426">
        <ele>315</ele>
        <time>2011-03-26T13:40:14Z</time>
      </trkpt>
      <trkpt lat="44.02973" lon="2.1143">
        <ele>315</ele>
        <time>2011-03-26T13:40:15Z</time>
      </trkpt>
      <trkpt lat="44.02969" lon="2.11434">
        <ele>315</ele>
        <time>2011-03-26T13:40:16Z</time>
      </trkpt>
      <trkpt lat="44.02964" lon="2.11438">
        <ele>315</ele>
        <time>2011-03-26T13:40:17Z</time>
      </trkpt>
      <trkpt lat="44.0296" lon="2.11443">
        <ele>315</ele>
        <time>2011-03-26T13:40:18Z</time>
      </trkpt>
      <trkpt lat="44.02955" lon="2.11447">
        <ele>308</ele>
        <time>2011-03-26T13:40:19Z</time>
      </trkpt>
      <trkpt lat="44.02951" lon="2.1145">
        <ele>308</ele>
        <time>2011-03-26T13:40:20Z</time>
      </trkpt>
      <trkpt lat="44.02945" lon="2.11454">
        <ele>308</ele>
        <time>2011-03-26T13:40:21Z</time>
      </trkpt>
      <trkpt lat="44.0294" lon="2.11459">
        <ele>309</ele>
        <time>2011-03-26T13:40:22Z</time>
      </trkpt>
      <trkpt lat="44.02935" lon="2.11462">
        <ele>309</ele>
        <time>2011-03-26T13:40:23Z</time>
      </trkpt>
      <trkpt lat="44.02928" lon="2.11466">
        <ele>309</ele>
        <time>2011-03-26T13:40:24Z</time>
      </trkpt>
      <trkpt lat="44.02922" lon="2.1147">
        <ele>309</ele>
        <time>2011-03-26T13:40:25Z</time>
      </trkpt>
      <trkpt lat="44.02915" lon="2.11473">
        <ele>309</ele>
        <time>2011-03-26T13:40:26Z</time>
      </trkpt>
      <trkpt lat="44.02909" lon="2.11476">
        <ele>309</ele>
        <time>2011-03-26T13:40:27Z</time>
      </trkpt>
      <trkpt lat="44.02902" lon="2.11479">
        <ele>309</ele>
        <time>2011-03-26T13:40:28Z</time>
      </trkpt>
      <trkpt lat="44.02897" lon="2.11481">
        <ele>309</ele>
        <time>2011-03-26T13:40:29Z</time>
      </trkpt>
      <trkpt lat="44.02893" lon="2.11482">
        <ele>309</ele>
        <time>2011-03-26T13:40:30Z</time>
      </trkpt>
      <trkpt lat="44.02889" lon="2.11483">
        <ele>309</ele>
        <time>2011-03-26T13:40:31Z</time>
      </trkpt>
      <trkpt lat="44.02887" lon="2.11481">
        <ele>309</ele>
        <time>2011-03-26T13:40:32Z</time>
      </trkpt>
      <trkpt lat="44.02887" lon="2.11476">
        <ele>309</ele>
        <time>2011-03-26T13:40:33Z</time>
      </trkpt>
      <trkpt lat="44.02888" lon="2.11472">
        <ele>309</ele>
        <time>2011-03-26T13:40:34Z</time>
      </trkpt>
      <trkpt lat="44.0289" lon="2.11466">
        <ele>309</ele>
        <time>2011-03-26T13:40:35Z</time>
      </trkpt>
      <trkpt lat="44.02892" lon="2.11461">
        <ele>309</ele>
        <time>2011-03-26T13:40:36Z</time>
      </trkpt>
      <trkpt lat="44.02893" lon="2.11456">
        <ele>308</ele>
        <time>2011-03-26T13:40:37Z</time>
      </trkpt>
      <trkpt lat="44.02896" lon="2.11449">
        <ele>308</ele>
        <time>2011-03-26T13:40:38Z</time>
      </trkpt>
      <trkpt lat="44.029" lon="2.11444">
        <ele>308</ele>
        <time>2011-03-26T13:40:39Z</time>
      </trkpt>
      <trkpt lat="44.02905" lon="2.11439">
        <ele>308</ele>
        <time>2011-03-26T13:40:40Z</time>
      </trkpt>
      <trkpt lat="44.02909" lon="2.11434">
        <ele>308</ele>
        <time>2011-03-26T13:40:41Z</time>
      </trkpt>
      <trkpt lat="44.02914" lon="2.11428">
        <ele>308</ele>
        <time>2011-03-26T13:40:42Z</time>
      </trkpt>
      <trkpt lat="44.02919" lon="2.11421">
        <ele>308</ele>
        <time>2011-03-26T13:40:43Z</time>
      </trkpt>
      <trkpt lat="44.02925" lon="2.11414">
        <ele>308</ele>
        <time>2011-03-26T13:40:44Z</time>
      </trkpt>
      <trkpt lat="44.0293" lon="2.11406">
        <ele>308</ele>
        <time>2011-03-26T13:40:45Z</time>
      </trkpt>
      <trkpt lat="44.02935" lon="2.11397">
        <ele>308</ele>
        <time>2011-03-26T13:40:46Z</time>
      </trkpt>
      <trkpt lat="44.0294" lon="2.11387">
        <ele>308</ele>
        <time>2011-03-26T13:40:47Z</time>
      </trkpt>
      <trkpt lat="44.02946" lon="2.11377">
        <ele>308</ele>
        <time>2011-03-26T13:40:48Z</time>
      </trkpt>
      <trkpt lat="44.02951" lon="2.11366">
        <ele>296</ele>
        <time>2011-03-26T13:40:49Z</time>
      </trkpt>
      <trkpt lat="44.02957" lon="2.11353">
        <ele>296</ele>
        <time>2011-03-26T13:40:50Z</time>
      </trkpt>
      <trkpt lat="44.02964" lon="2.11341">
        <ele>308</ele>
        <time>2011-03-26T13:40:51Z</time>
      </trkpt>
      <trkpt lat="44.0297" lon="2.11328">
        <ele>308</ele>
        <time>2011-03-26T13:40:52Z</time>
      </trkpt>
      <trkpt lat="44.02975" lon="2.11316">
        <ele>308</ele>
        <time>2011-03-26T13:40:53Z</time>
      </trkpt>
      <trkpt lat="44.0298" lon="2.11303">
        <ele>308</ele>
        <time>2011-03-26T13:40:54Z</time>
      </trkpt>
      <trkpt lat="44.02985" lon="2.1129">
        <ele>294</ele>
        <time>2011-03-26T13:40:55Z</time>
      </trkpt>
      <trkpt lat="44.0299" lon="2.11277">
        <ele>294</ele>
        <time>2011-03-26T13:40:56Z</time>
      </trkpt>
      <trkpt lat="44.02994" lon="2.11263">
        <ele>294</ele>
        <time>2011-03-26T13:40:57Z</time>
      </trkpt>
      <trkpt lat="44.02999" lon="2.1125">
        <ele>294</ele>
        <time>2011-03-26T13:40:58Z</time>
      </trkpt>
      <trkpt lat="44.03003" lon="2.11236">
        <ele>294</ele>
        <time>2011-03-26T13:40:59Z</time>
      </trkpt>
      <trkpt lat="44.03008" lon="2.11222">
        <ele>294</ele>
        <time>2011-03-26T13:41:00Z</time>
      </trkpt>
      <trkpt lat="44.03012" lon="2.11209">
        <ele>294</ele>
        <time>2011-03-26T13:41:01Z</time>
      </trkpt>
      <trkpt lat="44.03013" lon="2.11197">
        <ele>287</ele>
        <time>2011-03-26T13:41:02Z</time>
      </trkpt>
      <trkpt lat="44.03013" lon="2.11185">
        <ele>287</ele>
        <time>2011-03-26T13:41:03Z</time>
      </trkpt>
      <trkpt lat="44.03011" lon="2.11174">
        <ele>287</ele>
        <time>2011-03-26T13:41:04Z</time>
      </trkpt>
      <trkpt lat="44.03006" lon="2.11165">
        <ele>287</ele>
        <time>2011-03-26T13:41:05Z</time>
      </trkpt>
      <trkpt lat="44.03001" lon="2.11157">
        <ele>287</ele>
        <time>2011-03-26T13:41:06Z</time>
      </trkpt>
      <trkpt lat="44.02995" lon="2.1115">
        <ele>287</ele>
        <time>2011-03-26T13:41:07Z</time>
      </trkpt>
      <trkpt lat="44.02989" lon="2.11145">
        <ele>287</ele>
        <time>2011-03-26T13:41:08Z</time>
      </trkpt>
      <trkpt lat="44.02984" lon="2.11138">
        <ele>287</ele>
        <time>2011-03-26T13:41:09Z</time>
      </trkpt>
      <trkpt lat="44.02982" lon="2.11131">
        <ele>287</ele>
        <time>2011-03-26T13:41:10Z</time>
      </trkpt>
      <trkpt lat="44.02982" lon="2.11123">
        <ele>288</ele>
        <time>2011-03-26T13:41:11Z</time>
      </trkpt>
      <trkpt lat="44.02982" lon="2.11115">
        <ele>288</ele>
        <time>2011-03-26T13:41:12Z</time>
      </trkpt>
      <trkpt lat="44.02982" lon="2.11109">
        <ele>288</ele>
        <time>2011-03-26T13:41:13Z</time>
      </trkpt>
      <trkpt lat="44.02982" lon="2.11103">
        <ele>288</ele>
        <time>2011-03-26T13:41:14Z</time>
      </trkpt>
      <trkpt lat="44.02983" lon="2.11096">
        <ele>288</ele>
        <time>2011-03-26T13:41:15Z</time>
      </trkpt>
      <trkpt lat="44.02985" lon="2.11091">
        <ele>288</ele>
        <time>2011-03-26T13:41:16Z</time>
      </trkpt>
      <trkpt lat="44.02985" lon="2.11086">
        <ele>288</ele>
        <time>2011-03-26T13:41:17Z</time>
      </trkpt>
      <trkpt lat="44.02986" lon="2.11082">
        <ele>288</ele>
        <time>2011-03-26T13:41:18Z</time>
      </trkpt>
      <trkpt lat="44.02987" lon="2.11078">
        <ele>288</ele>
        <time>2011-03-26T13:41:19Z</time>
      </trkpt>
      <trkpt lat="44.02988" lon="2.11075">
        <ele>288</ele>
        <time>2011-03-26T13:41:20Z</time>
      </trkpt>
      <trkpt lat="44.02989" lon="2.11071">
        <ele>288</ele>
        <time>2011-03-26T13:41:22Z</time>
      </trkpt>
      <trkpt lat="44.0299" lon="2.11067">
        <ele>288</ele>
        <time>2011-03-26T13:41:24Z</time>
      </trkpt>
      <trkpt lat="44.02992" lon="2.11062">
        <ele>288</ele>
        <time>2011-03-26T13:41:27Z</time>
      </trkpt>
      <trkpt lat="44.02992" lon="2.11059">
        <ele>288</ele>
        <time>2011-03-26T13:41:29Z</time>
      </trkpt>
      <trkpt lat="44.02992" lon="2.11054">
        <ele>288</ele>
        <time>2011-03-26T13:41:31Z</time>
      </trkpt>
      <trkpt lat="44.02992" lon="2.1105">
        <ele>288</ele>
        <time>2011-03-26T13:41:33Z</time>
      </trkpt>
      <trkpt lat="44.02992" lon="2.11045">
        <ele>288</ele>
        <time>2011-03-26T13:41:35Z</time>
      </trkpt>
      <trkpt lat="44.02992" lon="2.1104">
        <ele>297</ele>
        <time>2011-03-26T13:41:37Z</time>
      </trkpt>
      <trkpt lat="44.02993" lon="2.11036">
        <ele>297</ele>
        <time>2011-03-26T13:41:39Z</time>
      </trkpt>
      <trkpt lat="44.02995" lon="2.11031">
        <ele>297</ele>
        <time>2011-03-26T13:41:41Z</time>
      </trkpt>
      <trkpt lat="44.02996" lon="2.11025">
        <ele>297</ele>
        <time>2011-03-26T13:41:43Z</time>
      </trkpt>
      <trkpt lat="44.02997" lon="2.11022">
        <ele>297</ele>
        <time>2011-03-26T13:41:45Z</time>
      </trkpt>
      <trkpt lat="44.02998" lon="2.11018">
        <ele>297</ele>
        <time>2011-03-26T13:41:48Z</time>
      </trkpt>
      <trkpt lat="44.02998" lon="2.11013">
        <ele>297</ele>
        <time>2011-03-26T13:41:51Z</time>
      </trkpt>
      <trkpt lat="44.02998" lon="2.11007">
        <ele>297</ele>
        <time>2011-03-26T13:41:55Z</time>
      </trkpt>
      <trkpt lat="44.02999" lon="2.11002">
        <ele>297</ele>
        <time>2011-03-26T13:41:57Z</time>
      </trkpt>
      <trkpt lat="44.03" lon="2.10998">
        <ele>297</ele>
        <time>2011-03-26T13:41:59Z</time>
      </trkpt>
      <trkpt lat="44.03001" lon="2.10993">
        <ele>297</ele>
        <time>2011-03-26T13:42:01Z</time>
      </trkpt>
      <trkpt lat="44.03002" lon="2.1099">
        <ele>297</ele>
        <time>2011-03-26T13:42:03Z</time>
      </trkpt>
      <trkpt lat="44.03002" lon="2.10986">
        <ele>297</ele>
        <time>2011-03-26T13:42:05Z</time>
      </trkpt>
      <trkpt lat="44.03002" lon="2.10982">
        <ele>297</ele>
        <time>2011-03-26T13:42:07Z</time>
      </trkpt>
      <trkpt lat="44.03001" lon="2.10977">
        <ele>297</ele>
        <time>2011-03-26T13:42:09Z</time>
      </trkpt>
      <trkpt lat="44.03" lon="2.10973">
        <ele>297</ele>
        <time>2011-03-26T13:42:11Z</time>
      </trkpt>
      <trkpt lat="44.03" lon="2.10969">
        <ele>297</ele>
        <time>2011-03-26T13:42:13Z</time>
      </trkpt>
      <trkpt lat="44.02999" lon="2.10965">
        <ele>297</ele>
        <time>2011-03-26T13:42:15Z</time>
      </trkpt>
      <trkpt lat="44.02999" lon="2.1096">
        <ele>297</ele>
        <time>2011-03-26T13:42:19Z</time>
      </trkpt>
      <trkpt lat="44.03002" lon="2.10957">
        <ele>312</ele>
        <time>2011-03-26T13:42:21Z</time>
      </trkpt>
      <trkpt lat="44.03003" lon="2.10955">
        <ele>312</ele>
        <time>2011-03-26T13:42:23Z</time>
      </trkpt>
      <trkpt lat="44.03005" lon="2.10951">
        <ele>312</ele>
        <time>2011-03-26T13:42:26Z</time>
      </trkpt>
      <trkpt lat="44.03007" lon="2.10948">
        <ele>312</ele>
        <time>2011-03-26T13:42:28Z</time>
      </trkpt>
      <trkpt lat="44.03009" lon="2.10945">
        <ele>312</ele>
        <time>2011-03-26T13:42:30Z</time>
      </trkpt>
      <trkpt lat="44.03011" lon="2.10942">
        <ele>312</ele>
        <time>2011-03-26T13:42:32Z</time>
      </trkpt>
      <trkpt lat="44.03013" lon="2.1094">
        <ele>312</ele>
        <time>2011-03-26T13:42:34Z</time>
      </trkpt>
      <trkpt lat="44.03016" lon="2.10937">
        <ele>312</ele>
        <time>2011-03-26T13:42:36Z</time>
      </trkpt>
      <trkpt lat="44.03018" lon="2.10933">
        <ele>312</ele>
        <time>2011-03-26T13:42:38Z</time>
      </trkpt>
      <trkpt lat="44.0302" lon="2.1093">
        <ele>312</ele>
        <time>2011-03-26T13:42:40Z</time>
      </trkpt>
      <trkpt lat="44.03023" lon="2.10927">
        <ele>312</ele>
        <time>2011-03-26T13:42:42Z</time>
      </trkpt>
      <trkpt lat="44.03024" lon="2.10926">
        <ele>312</ele>
        <time>2011-03-26T13:42:43Z</time>
      </trkpt>
      <trkpt lat="44.03027" lon="2.10924">
        <ele>312</ele>
        <time>2011-03-26T13:42:45Z</time>
      </trkpt>
      <trkpt lat="44.0303" lon="2.10923">
        <ele>312</ele>
        <time>2011-03-26T13:42:47Z</time>
      </trkpt>
      <trkpt lat="44.03033" lon="2.10922">
        <ele>312</ele>
        <time>2011-03-26T13:42:49Z</time>
      </trkpt>
      <trkpt lat="44.03035" lon="2.10922">
        <ele>312</ele>
        <time>2011-03-26T13:42:50Z</time>
      </trkpt>
      <trkpt lat="44.03038" lon="2.10921">
        <ele>312</ele>
        <time>2011-03-26T13:42:52Z</time>
      </trkpt>
      <trkpt lat="44.0304" lon="2.10921">
        <ele>312</ele>
        <time>2011-03-26T13:42:54Z</time>
      </trkpt>
      <trkpt lat="44.03043" lon="2.1092">
        <ele>309</ele>
        <time>2011-03-26T13:42:56Z</time>
      </trkpt>
      <trkpt lat="44.03045" lon="2.10919">
        <ele>309</ele>
        <time>2011-03-26T13:42:58Z</time>
      </trkpt>
      <trkpt lat="44.03047" lon="2.10919">
        <ele>309</ele>
        <time>2011-03-26T13:42:59Z</time>
      </trkpt>
      <trkpt lat="44.0305" lon="2.10918">
        <ele>309</ele>
        <time>2011-03-26T13:43:01Z</time>
      </trkpt>
      <trkpt lat="44.03053" lon="2.10918">
        <ele>309</ele>
        <time>2011-03-26T13:43:03Z</time>
      </trkpt>
      <trkpt lat="44.03057" lon="2.10917">
        <ele>309</ele>
        <time>2011-03-26T13:43:05Z</time>
      </trkpt>
      <trkpt lat="44.03058" lon="2.10916">
        <ele>309</ele>
        <time>2011-03-26T13:43:06Z</time>
      </trkpt>
      <trkpt lat="44.03062" lon="2.10916">
        <ele>309</ele>
        <time>2011-03-26T13:43:08Z</time>
      </trkpt>
      <trkpt lat="44.03066" lon="2.10915">
        <ele>309</ele>
        <time>2011-03-26T13:43:10Z</time>
      </trkpt>
      <trkpt lat="44.03068" lon="2.10914">
        <ele>309</ele>
        <time>2011-03-26T13:43:11Z</time>
      </trkpt>
      <trkpt lat="44.03071" lon="2.10913">
        <ele>309</ele>
        <time>2011-03-26T13:43:13Z</time>
      </trkpt>
      <trkpt lat="44.03074" lon="2.10912">
        <ele>309</ele>
        <time>2011-03-26T13:43:15Z</time>
      </trkpt>
      <trkpt lat="44.03078" lon="2.1091">
        <ele>309</ele>
        <time>2011-03-26T13:43:17Z</time>
      </trkpt>
      <trkpt lat="44.03081" lon="2.10908">
        <ele>309</ele>
        <time>2011-03-26T13:43:19Z</time>
      </trkpt>
      <trkpt lat="44.03084" lon="2.10906">
        <ele>309</ele>
        <time>2011-03-26T13:43:21Z</time>
      </trkpt>
      <trkpt lat="44.03088" lon="2.10904">
        <ele>309</ele>
        <time>2011-03-26T13:43:23Z</time>
      </trkpt>
      <trkpt lat="44.0309" lon="2.10901">
        <ele>309</ele>
        <time>2011-03-26T13:43:25Z</time>
      </trkpt>
      <trkpt lat="44.03094" lon="2.10897">
        <ele>309</ele>
        <time>2011-03-26T13:43:29Z</time>
      </trkpt>
      <trkpt lat="44.03094" lon="2.10894">
        <ele>309</ele>
        <time>2011-03-26T13:43:31Z</time>
      </trkpt>
      <trkpt lat="44.03093" lon="2.1089">
        <ele>309</ele>
        <time>2011-03-26T13:43:33Z</time>
      </trkpt>
      <trkpt lat="44.03092" lon="2.10889">
        <ele>309</ele>
        <time>2011-03-26T13:43:34Z</time>
      </trkpt>
      <trkpt lat="44.0309" lon="2.10886">
        <ele>309</ele>
        <time>2011-03-26T13:43:36Z</time>
      </trkpt>
      <trkpt lat="44.03089" lon="2.10882">
        <ele>309</ele>
        <time>2011-03-26T13:43:38Z</time>
      </trkpt>
      <trkpt lat="44.03088" lon="2.10878">
        <ele>309</ele>
        <time>2011-03-26T13:43:40Z</time>
      </trkpt>
      <trkpt lat="44.03087" lon="2.10874">
        <ele>315</ele>
        <time>2011-03-26T13:43:42Z</time>
      </trkpt>
      <trkpt lat="44.03087" lon="2.10871">
        <ele>315</ele>
        <time>2011-03-26T13:43:44Z</time>
      </trkpt>
      <trkpt lat="44.03086" lon="2.10869">
        <ele>315</ele>
        <time>2011-03-26T13:43:45Z</time>
      </trkpt>
      <trkpt lat="44.03086" lon="2.10865">
        <ele>315</ele>
        <time>2011-03-26T13:43:47Z</time>
      </trkpt>
      <trkpt lat="44.03086" lon="2.10863">
        <ele>315</ele>
        <time>2011-03-26T13:43:48Z</time>
      </trkpt>
      <trkpt lat="44.03087" lon="2.10859">
        <ele>315</ele>
        <time>2011-03-26T13:43:50Z</time>
      </trkpt>
      <trkpt lat="44.03087" lon="2.10855">
        <ele>315</ele>
        <time>2011-03-26T13:43:52Z</time>
      </trkpt>
      <trkpt lat="44.03088" lon="2.1085">
        <ele>315</ele>
        <time>2011-03-26T13:43:54Z</time>
      </trkpt>
      <trkpt lat="44.03088" lon="2.10846">
        <ele>315</ele>
        <time>2011-03-26T13:43:56Z</time>
      </trkpt>
      <trkpt lat="44.03088" lon="2.10842">
        <ele>315</ele>
        <time>2011-03-26T13:43:58Z</time>
      </trkpt>
      <trkpt lat="44.03088" lon="2.10837">
        <ele>315</ele>
        <time>2011-03-26T13:44:00Z</time>
      </trkpt>
      <trkpt lat="44.03087" lon="2.10833">
        <ele>315</ele>
        <time>2011-03-26T13:44:02Z</time>
      </trkpt>
      <trkpt lat="44.03087" lon="2.10828">
        <ele>315</ele>
        <time>2011-03-26T13:44:04Z</time>
      </trkpt>
      <trkpt lat="44.03087" lon="2.10823">
        <ele>315</ele>
        <time>2011-03-26T13:44:06Z</time>
      </trkpt>
      <trkpt lat="44.03087" lon="2.10819">
        <ele>315</ele>
        <time>2011-03-26T13:44:08Z</time>
      </trkpt>
      <trkpt lat="44.03087" lon="2.10816">
        <ele>315</ele>
        <time>2011-03-26T13:44:09Z</time>
      </trkpt>
      <trkpt lat="44.03087" lon="2.10811">
        <ele>315</ele>
        <time>2011-03-26T13:44:11Z</time>
      </trkpt>
      <trkpt lat="44.03087" lon="2.10809">
        <ele>315</ele>
        <time>2011-03-26T13:44:12Z</time>
      </trkpt>
      <trkpt lat="44.03087" lon="2.10804">
        <ele>315</ele>
        <time>2011-03-26T13:44:14Z</time>
      </trkpt>
      <trkpt lat="44.03087" lon="2.10802">
        <ele>315</ele>
        <time>2011-03-26T13:44:15Z</time>
      </trkpt>
      <trkpt lat="44.03088" lon="2.10797">
        <ele>315</ele>
        <time>2011-03-26T13:44:17Z</time>
      </trkpt>
      <trkpt lat="44.03087" lon="2.10793">
        <ele>315</ele>
        <time>2011-03-26T13:44:19Z</time>
      </trkpt>
      <trkpt lat="44.03088" lon="2.10789">
        <ele>319</ele>
        <time>2011-03-26T13:44:21Z</time>
      </trkpt>
      <trkpt lat="44.03088" lon="2.10784">
        <ele>319</ele>
        <time>2011-03-26T13:44:23Z</time>
      </trkpt>
      <trkpt lat="44.03088" lon="2.10781">
        <ele>319</ele>
        <time>2011-03-26T13:44:24Z</time>
      </trkpt>
      <trkpt lat="44.03088" lon="2.10776">
        <ele>319</ele>
        <time>2011-03-26T13:44:26Z</time>
      </trkpt>
      <trkpt lat="44.03087" lon="2.10771">
        <ele>319</ele>
        <time>2011-03-26T13:44:28Z</time>
      </trkpt>
      <trkpt lat="44.03087" lon="2.10769">
        <ele>319</ele>
        <time>2011-03-26T13:44:29Z</time>
      </trkpt>
      <trkpt lat="44.03087" lon="2.10766">
        <ele>319</ele>
        <time>2011-03-26T13:44:30Z</time>
      </trkpt>
      <trkpt lat="44.03087" lon="2.10762">
        <ele>319</ele>
        <time>2011-03-26T13:44:31Z</time>
      </trkpt>
      <trkpt lat="44.03087" lon="2.10759">
        <ele>319</ele>
        <time>2011-03-26T13:44:32Z</time>
      </trkpt>
      <trkpt lat="44.03087" lon="2.10755">
        <ele>319</ele>
        <time>2011-03-26T13:44:33Z</time>
      </trkpt>
      <trkpt lat="44.03088" lon="2.10752">
        <ele>319</ele>
        <time>2011-03-26T13:44:34Z</time>
      </trkpt>
      <trkpt lat="44.03089" lon="2.10746">
        <ele>319</ele>
        <time>2011-03-26T13:44:36Z</time>
      </trkpt>
      <trkpt lat="44.03089" lon="2.10743">
        <ele>319</ele>
        <time>2011-03-26T13:44:37Z</time>
      </trkpt>
      <trkpt lat="44.03089" lon="2.10739">
        <ele>319</ele>
        <time>2011-03-26T13:44:38Z</time>
      </trkpt>
      <trkpt lat="44.03089" lon="2.10733">
        <ele>319</ele>
        <time>2011-03-26T13:44:40Z</time>
      </trkpt>
      <trkpt lat="44.03089" lon="2.1073">
        <ele>319</ele>
        <time>2011-03-26T13:44:41Z</time>
      </trkpt>
      <trkpt lat="44.0309" lon="2.10727">
        <ele>319</ele>
        <time>2011-03-26T13:44:42Z</time>
      </trkpt>
      <trkpt lat="44.03089" lon="2.10721">
        <ele>319</ele>
        <time>2011-03-26T13:44:44Z</time>
      </trkpt>
      <trkpt lat="44.03088" lon="2.10717">
        <ele>319</ele>
        <time>2011-03-26T13:44:45Z</time>
      </trkpt>
      <trkpt lat="44.03087" lon="2.10714">
        <ele>319</ele>
        <time>2011-03-26T13:44:46Z</time>
      </trkpt>
      <trkpt lat="44.03084" lon="2.10712">
        <ele>319</ele>
        <time>2011-03-26T13:44:47Z</time>
      </trkpt>
      <trkpt lat="44.03082" lon="2.10711">
        <ele>319</ele>
        <time>2011-03-26T13:44:48Z</time>
      </trkpt>
      <trkpt lat="44.03078" lon="2.10711">
        <ele>319</ele>
        <time>2011-03-26T13:44:49Z</time>
      </trkpt>
      <trkpt lat="44.03075" lon="2.10713">
        <ele>319</ele>
        <time>2011-03-26T13:44:50Z</time>
      </trkpt>
      <trkpt lat="44.03072" lon="2.10715">
        <ele>319</ele>
        <time>2011-03-26T13:44:51Z</time>
      </trkpt>
      <trkpt lat="44.0307" lon="2.10717">
        <ele>319</ele>
        <time>2011-03-26T13:44:52Z</time>
      </trkpt>
      <trkpt lat="44.03067" lon="2.1072">
        <ele>319</ele>
        <time>2011-03-26T13:44:53Z</time>
      </trkpt>
      <trkpt lat="44.03064" lon="2.10722">
        <ele>319</ele>
        <time>2011-03-26T13:44:54Z</time>
      </trkpt>
      <trkpt lat="44.03062" lon="2.10724">
        <ele>319</ele>
        <time>2011-03-26T13:44:55Z</time>
      </trkpt>
      <trkpt lat="44.03059" lon="2.10727">
        <ele>319</ele>
        <time>2011-03-26T13:44:56Z</time>
      </trkpt>
      <trkpt lat="44.03057" lon="2.10729">
        <ele>319</ele>
        <time>2011-03-26T13:44:57Z</time>
      </trkpt>
      <trkpt lat="44.03054" lon="2.10731">
        <ele>319</ele>
        <time>2011-03-26T13:44:58Z</time>
      </trkpt>
      <trkpt lat="44.03052" lon="2.10734">
        <ele>319</ele>
        <time>2011-03-26T13:44:59Z</time>
      </trkpt>
      <trkpt lat="44.03049" lon="2.10736">
        <ele>319</ele>
        <time>2011-03-26T13:45:00Z</time>
      </trkpt>
      <trkpt lat="44.03047" lon="2.10738">
        <ele>319</ele>
        <time>2011-03-26T13:45:01Z</time>
      </trkpt>
      <trkpt lat="44.03044" lon="2.1074">
        <ele>319</ele>
        <time>2011-03-26T13:45:02Z</time>
      </trkpt>
      <trkpt lat="44.03042" lon="2.10742">
        <ele>319</ele>
        <time>2011-03-26T13:45:03Z</time>
      </trkpt>
      <trkpt lat="44.03039" lon="2.10744">
        <ele>321</ele>
        <time>2011-03-26T13:45:04Z</time>
      </trkpt>
      <trkpt lat="44.03036" lon="2.10747">
        <ele>321</ele>
        <time>2011-03-26T13:45:05Z</time>
      </trkpt>
      <trkpt lat="44.03034" lon="2.10749">
        <ele>321</ele>
        <time>2011-03-26T13:45:06Z</time>
      </trkpt>
      <trkpt lat="44.03031" lon="2.1075">
        <ele>321</ele>
        <time>2011-03-26T13:45:07Z</time>
      </trkpt>
      <trkpt lat="44.03028" lon="2.10752">
        <ele>321</ele>
        <time>2011-03-26T13:45:08Z</time>
      </trkpt>
      <trkpt lat="44.03024" lon="2.10754">
        <ele>321</ele>
        <time>2011-03-26T13:45:09Z</time>
      </trkpt>
      <trkpt lat="44.03022" lon="2.10756">
        <ele>321</ele>
        <time>2011-03-26T13:45:10Z</time>
      </trkpt>
      <trkpt lat="44.03018" lon="2.10758">
        <ele>321</ele>
        <time>2011-03-26T13:45:11Z</time>
      </trkpt>
      <trkpt lat="44.03015" lon="2.1076">
        <ele>321</ele>
        <time>2011-03-26T13:45:12Z</time>
      </trkpt>
      <trkpt lat="44.03012" lon="2.10762">
        <ele>321</ele>
        <time>2011-03-26T13:45:13Z</time>
      </trkpt>
      <trkpt lat="44.03009" lon="2.10763">
        <ele>321</ele>
        <time>2011-03-26T13:45:14Z</time>
      </trkpt>
      <trkpt lat="44.03006" lon="2.10765">
        <ele>321</ele>
        <time>2011-03-26T13:45:15Z</time>
      </trkpt>
      <trkpt lat="44.03003" lon="2.10766">
        <ele>321</ele>
        <time>2011-03-26T13:45:16Z</time>
      </trkpt>
      <trkpt lat="44.03001" lon="2.10768">
        <ele>321</ele>
        <time>2011-03-26T13:45:17Z</time>
      </trkpt>
      <trkpt lat="44.02998" lon="2.10769">
        <ele>321</ele>
        <time>2011-03-26T13:45:18Z</time>
      </trkpt>
      <trkpt lat="44.02995" lon="2.1077">
        <ele>321</ele>
        <time>2011-03-26T13:45:19Z</time>
      </trkpt>
      <trkpt lat="44.02992" lon="2.10771">
        <ele>321</ele>
        <time>2011-03-26T13:45:20Z</time>
      </trkpt>
      <trkpt lat="44.02988" lon="2.10772">
        <ele>321</ele>
        <time>2011-03-26T13:45:21Z</time>
      </trkpt>
      <trkpt lat="44.02985" lon="2.10773">
        <ele>321</ele>
        <time>2011-03-26T13:45:22Z</time>
      </trkpt>
      <trkpt lat="44.02982" lon="2.10775">
        <ele>321</ele>
        <time>2011-03-26T13:45:23Z</time>
      </trkpt>
      <trkpt lat="44.02979" lon="2.10776">
        <ele>321</ele>
        <time>2011-03-26T13:45:24Z</time>
      </trkpt>
      <trkpt lat="44.02975" lon="2.10778">
        <ele>321</ele>
        <time>2011-03-26T13:45:25Z</time>
      </trkpt>
      <trkpt lat="44.02972" lon="2.1078">
        <ele>321</ele>
        <time>2011-03-26T13:45:26Z</time>
      </trkpt>
      <trkpt lat="44.02969" lon="2.10781">
        <ele>321</ele>
        <time>2011-03-26T13:45:27Z</time>
      </trkpt>
      <trkpt lat="44.02965" lon="2.10783">
        <ele>321</ele>
        <time>2011-03-26T13:45:28Z</time>
      </trkpt>
      <trkpt lat="44.02962" lon="2.10784">
        <ele>321</ele>
        <time>2011-03-26T13:45:29Z</time>
      </trkpt>
      <trkpt lat="44.02959" lon="2.10786">
        <ele>321</ele>
        <time>2011-03-26T13:45:30Z</time>
      </trkpt>
      <trkpt lat="44.02955" lon="2.10787">
        <ele>324</ele>
        <time>2011-03-26T13:45:31Z</time>
      </trkpt>
      <trkpt lat="44.02952" lon="2.10789">
        <ele>324</ele>
        <time>2011-03-26T13:45:32Z</time>
      </trkpt>
      <trkpt lat="44.02949" lon="2.10791">
        <ele>324</ele>
        <time>2011-03-26T13:45:33Z</time>
      </trkpt>
      <trkpt lat="44.02946" lon="2.10793">
        <ele>324</ele>
        <time>2011-03-26T13:45:34Z</time>
      </trkpt>
      <trkpt lat="44.02942" lon="2.10794">
        <ele>324</ele>
        <time>2011-03-26T13:45:35Z</time>
      </trkpt>
      <trkpt lat="44.02939" lon="2.10796">
        <ele>324</ele>
        <time>2011-03-26T13:45:36Z</time>
      </trkpt>
      <trkpt lat="44.02936" lon="2.10797">
        <ele>324</ele>
        <time>2011-03-26T13:45:37Z</time>
      </trkpt>
      <trkpt lat="44.02932" lon="2.10799">
        <ele>324</ele>
        <time>2011-03-26T13:45:38Z</time>
      </trkpt>
      <trkpt lat="44.02929" lon="2.108">
        <ele>324</ele>
        <time>2011-03-26T13:45:39Z</time>
      </trkpt>
      <trkpt lat="44.02925" lon="2.10801">
        <ele>324</ele>
        <time>2011-03-26T13:45:40Z</time>
      </trkpt>
      <trkpt lat="44.02922" lon="2.10803">
        <ele>324</ele>
        <time>2011-03-26T13:45:41Z</time>
      </trkpt>
      <trkpt lat="44.02919" lon="2.10804">
        <ele>324</ele>
        <time>2011-03-26T13:45:42Z</time>
      </trkpt>
      <trkpt lat="44.02916" lon="2.10805">
        <ele>324</ele>
        <time>2011-03-26T13:45:43Z</time>
      </trkpt>
      <trkpt lat="44.02913" lon="2.10806">
        <ele>324</ele>
        <time>2011-03-26T13:45:44Z</time>
      </trkpt>
      <trkpt lat="44.02909" lon="2.10807">
        <ele>324</ele>
        <time>2011-03-26T13:45:45Z</time>
      </trkpt>
      <trkpt lat="44.02906" lon="2.10809">
        <ele>324</ele>
        <time>2011-03-26T13:45:46Z</time>
      </trkpt>
      <trkpt lat="44.02903" lon="2.1081">
        <ele>324</ele>
        <time>2011-03-26T13:45:47Z</time>
      </trkpt>
      <trkpt lat="44.029" lon="2.10811">
        <ele>324</ele>
        <time>2011-03-26T13:45:48Z</time>
      </trkpt>
      <trkpt lat="44.02897" lon="2.10813">
        <ele>324</ele>
        <time>2011-03-26T13:45:49Z</time>
      </trkpt>
      <trkpt lat="44.02894" lon="2.10814">
        <ele>324</ele>
        <time>2011-03-26T13:45:50Z</time>
      </trkpt>
      <trkpt lat="44.02891" lon="2.10816">
        <ele>324</ele>
        <time>2011-03-26T13:45:51Z</time>
      </trkpt>
      <trkpt lat="44.02888" lon="2.10817">
        <ele>324</ele>
        <time>2011-03-26T13:45:52Z</time>
      </trkpt>
      <trkpt lat="44.02884" lon="2.10819">
        <ele>324</ele>
        <time>2011-03-26T13:45:53Z</time>
      </trkpt>
      <trkpt lat="44.02881" lon="2.10821">
        <ele>324</ele>
        <time>2011-03-26T13:45:54Z</time>
      </trkpt>
      <trkpt lat="44.02878" lon="2.10823">
        <ele>324</ele>
        <time>2011-03-26T13:45:55Z</time>
      </trkpt>
      <trkpt lat="44.02876" lon="2.10825">
        <ele>324</ele>
        <time>2011-03-26T13:45:56Z</time>
      </trkpt>
      <trkpt lat="44.02873" lon="2.10827">
        <ele>327</ele>
        <time>2011-03-26T13:45:57Z</time>
      </trkpt>
      <trkpt lat="44.0287" lon="2.10829">
        <ele>327</ele>
        <time>2011-03-26T13:45:58Z</time>
      </trkpt>
      <trkpt lat="44.02867" lon="2.10832">
        <ele>327</ele>
        <time>2011-03-26T13:45:59Z</time>
      </trkpt>
      <trkpt lat="44.02864" lon="2.10834">
        <ele>327</ele>
        <time>2011-03-26T13:46:00Z</time>
      </trkpt>
      <trkpt lat="44.02861" lon="2.10836">
        <ele>327</ele>
        <time>2011-03-26T13:46:01Z</time>
      </trkpt>
      <trkpt lat="44.02859" lon="2.10839">
        <ele>327</ele>
        <time>2011-03-26T13:46:02Z</time>
      </trkpt>
      <trkpt lat="44.02856" lon="2.10842">
        <ele>327</ele>
        <time>2011-03-26T13:46:03Z</time>
      </trkpt>
      <trkpt lat="44.02853" lon="2.10845">
        <ele>327</ele>
        <time>2011-03-26T13:46:04Z</time>
      </trkpt>
      <trkpt lat="44.02851" lon="2.10848">
        <ele>327</ele>
        <time>2011-03-26T13:46:05Z</time>
      </trkpt>
      <trkpt lat="44.02849" lon="2.10851">
        <ele>327</ele>
        <time>2011-03-26T13:46:06Z</time>
      </trkpt>
      <trkpt lat="44.02846" lon="2.10853">
        <ele>327</ele>
        <time>2011-03-26T13:46:07Z</time>
      </trkpt>
      <trkpt lat="44.02843" lon="2.10856">
        <ele>327</ele>
        <time>2011-03-26T13:46:08Z</time>
      </trkpt>
      <trkpt lat="44.0284" lon="2.10858">
        <ele>327</ele>
        <time>2011-03-26T13:46:09Z</time>
      </trkpt>
      <trkpt lat="44.02837" lon="2.1086">
        <ele>327</ele>
        <time>2011-03-26T13:46:10Z</time>
      </trkpt>
      <trkpt lat="44.02835" lon="2.10863">
        <ele>327</ele>
        <time>2011-03-26T13:46:11Z</time>
      </trkpt>
      <trkpt lat="44.02832" lon="2.10866">
        <ele>327</ele>
        <time>2011-03-26T13:46:12Z</time>
      </trkpt>
      <trkpt lat="44.02829" lon="2.10869">
        <ele>327</ele>
        <time>2011-03-26T13:46:13Z</time>
      </trkpt>
      <trkpt lat="44.02827" lon="2.10872">
        <ele>327</ele>
        <time>2011-03-26T13:46:14Z</time>
      </trkpt>
      <trkpt lat="44.02824" lon="2.10875">
        <ele>327</ele>
        <time>2011-03-26T13:46:15Z</time>
      </trkpt>
      <trkpt lat="44.02821" lon="2.10878">
        <ele>327</ele>
        <time>2011-03-26T13:46:16Z</time>
      </trkpt>
      <trkpt lat="44.02819" lon="2.10881">
        <ele>327</ele>
        <time>2011-03-26T13:46:17Z</time>
      </trkpt>
      <trkpt lat="44.02816" lon="2.10884">
        <ele>327</ele>
        <time>2011-03-26T13:46:18Z</time>
      </trkpt>
      <trkpt lat="44.02813" lon="2.10887">
        <ele>327</ele>
        <time>2011-03-26T13:46:19Z</time>
      </trkpt>
      <trkpt lat="44.02811" lon="2.1089">
        <ele>327</ele>
        <time>2011-03-26T13:46:20Z</time>
      </trkpt>
      <trkpt lat="44.02808" lon="2.10892">
        <ele>327</ele>
        <time>2011-03-26T13:46:21Z</time>
      </trkpt>
      <trkpt lat="44.02805" lon="2.10895">
        <ele>327</ele>
        <time>2011-03-26T13:46:22Z</time>
      </trkpt>
      <trkpt lat="44.02803" lon="2.10898">
        <ele>327</ele>
        <time>2011-03-26T13:46:23Z</time>
      </trkpt>
      <trkpt lat="44.028" lon="2.109">
        <ele>327</ele>
        <time>2011-03-26T13:46:24Z</time>
      </trkpt>
      <trkpt lat="44.02797" lon="2.10903">
        <ele>327</ele>
        <time>2011-03-26T13:46:25Z</time>
      </trkpt>
      <trkpt lat="44.02794" lon="2.10906">
        <ele>327</ele>
        <time>2011-03-26T13:46:26Z</time>
      </trkpt>
      <trkpt lat="44.02791" lon="2.10909">
        <ele>327</ele>
        <time>2011-03-26T13:46:27Z</time>
      </trkpt>
      <trkpt lat="44.02788" lon="2.10912">
        <ele>327</ele>
        <time>2011-03-26T13:46:28Z</time>
      </trkpt>
      <trkpt lat="44.02785" lon="2.10915">
        <ele>327</ele>
        <time>2011-03-26T13:46:29Z</time>
      </trkpt>
      <trkpt lat="44.02782" lon="2.10918">
        <ele>327</ele>
        <time>2011-03-26T13:46:30Z</time>
      </trkpt>
      <trkpt lat="44.02779" lon="2.10921">
        <ele>327</ele>
        <time>2011-03-26T13:46:31Z</time>
      </trkpt>
      <trkpt lat="44.02776" lon="2.10924">
        <ele>327</ele>
        <time>2011-03-26T13:46:32Z</time>
      </trkpt>
      <trkpt lat="44.02773" lon="2.10927">
        <ele>327</ele>
        <time>2011-03-26T13:46:33Z</time>
      </trkpt>
      <trkpt lat="44.0277" lon="2.1093">
        <ele>327</ele>
        <time>2011-03-26T13:46:34Z</time>
      </trkpt>
      <trkpt lat="44.02768" lon="2.10933">
        <ele>327</ele>
        <time>2011-03-26T13:46:35Z</time>
      </trkpt>
      <trkpt lat="44.02765" lon="2.10935">
        <ele>327</ele>
        <time>2011-03-26T13:46:36Z</time>
      </trkpt>
      <trkpt lat="44.02762" lon="2.10938">
        <ele>327</ele>
        <time>2011-03-26T13:46:37Z</time>
      </trkpt>
      <trkpt lat="44.02759" lon="2.10941">
        <ele>327</ele>
        <time>2011-03-26T13:46:38Z</time>
      </trkpt>
      <trkpt lat="44.02756" lon="2.10944">
        <ele>327</ele>
        <time>2011-03-26T13:46:39Z</time>
      </trkpt>
      <trkpt lat="44.02753" lon="2.10946">
        <ele>327</ele>
        <time>2011-03-26T13:46:40Z</time>
      </trkpt>
      <trkpt lat="44.02751" lon="2.10949">
        <ele>327</ele>
        <time>2011-03-26T13:46:41Z</time>
      </trkpt>
      <trkpt lat="44.02748" lon="2.10952">
        <ele>327</ele>
        <time>2011-03-26T13:46:42Z</time>
      </trkpt>
      <trkpt lat="44.02745" lon="2.10955">
        <ele>327</ele>
        <time>2011-03-26T13:46:43Z</time>
      </trkpt>
      <trkpt lat="44.02742" lon="2.10958">
        <ele>327</ele>
        <time>2011-03-26T13:46:44Z</time>
      </trkpt>
      <trkpt lat="44.0274" lon="2.10961">
        <ele>325</ele>
        <time>2011-03-26T13:46:45Z</time>
      </trkpt>
      <trkpt lat="44.02737" lon="2.10964">
        <ele>325</ele>
        <time>2011-03-26T13:46:46Z</time>
      </trkpt>
      <trkpt lat="44.02734" lon="2.10966">
        <ele>325</ele>
        <time>2011-03-26T13:46:47Z</time>
      </trkpt>
      <trkpt lat="44.02732" lon="2.10969">
        <ele>325</ele>
        <time>2011-03-26T13:46:48Z</time>
      </trkpt>
      <trkpt lat="44.02729" lon="2.10972">
        <ele>325</ele>
        <time>2011-03-26T13:46:49Z</time>
      </trkpt>
      <trkpt lat="44.02726" lon="2.10975">
        <ele>325</ele>
        <time>2011-03-26T13:46:50Z</time>
      </trkpt>
      <trkpt lat="44.02723" lon="2.10978">
        <ele>325</ele>
        <time>2011-03-26T13:46:51Z</time>
      </trkpt>
      <trkpt lat="44.02721" lon="2.10981">
        <ele>325</ele>
        <time>2011-03-26T13:46:52Z</time>
      </trkpt>
      <trkpt lat="44.02719" lon="2.10984">
        <ele>325</ele>
        <time>2011-03-26T13:46:53Z</time>
      </trkpt>
      <trkpt lat="44.02716" lon="2.10987">
        <ele>325</ele>
        <time>2011-03-26T13:46:54Z</time>
      </trkpt>
      <trkpt lat="44.02713" lon="2.10989">
        <ele>325</ele>
        <time>2011-03-26T13:46:55Z</time>
      </trkpt>
      <trkpt lat="44.02711" lon="2.10991">
        <ele>325</ele>
        <time>2011-03-26T13:46:56Z</time>
      </trkpt>
      <trkpt lat="44.02708" lon="2.10994">
        <ele>330</ele>
        <time>2011-03-26T13:46:57Z</time>
      </trkpt>
      <trkpt lat="44.02705" lon="2.10997">
        <ele>330</ele>
        <time>2011-03-26T13:46:58Z</time>
      </trkpt>
      <trkpt lat="44.02702" lon="2.11">
        <ele>330</ele>
        <time>2011-03-26T13:46:59Z</time>
      </trkpt>
      <trkpt lat="44.02699" lon="2.11003">
        <ele>330</ele>
        <time>2011-03-26T13:47:00Z</time>
      </trkpt>
      <trkpt lat="44.02696" lon="2.11006">
        <ele>330</ele>
        <time>2011-03-26T13:47:01Z</time>
      </trkpt>
      <trkpt lat="44.02693" lon="2.1101">
        <ele>330</ele>
        <time>2011-03-26T13:47:02Z</time>
      </trkpt>
      <trkpt lat="44.0269" lon="2.11013">
        <ele>330</ele>
        <time>2011-03-26T13:47:03Z</time>
      </trkpt>
      <trkpt lat="44.02687" lon="2.11016">
        <ele>330</ele>
        <time>2011-03-26T13:47:04Z</time>
      </trkpt>
      <trkpt lat="44.02684" lon="2.11018">
        <ele>330</ele>
        <time>2011-03-26T13:47:05Z</time>
      </trkpt>
      <trkpt lat="44.0268" lon="2.11021">
        <ele>330</ele>
        <time>2011-03-26T13:47:06Z</time>
      </trkpt>
      <trkpt lat="44.02677" lon="2.11024">
        <ele>330</ele>
        <time>2011-03-26T13:47:07Z</time>
      </trkpt>
      <trkpt lat="44.02674" lon="2.11027">
        <ele>330</ele>
        <time>2011-03-26T13:47:08Z</time>
      </trkpt>
      <trkpt lat="44.02671" lon="2.11031">
        <ele>330</ele>
        <time>2011-03-26T13:47:09Z</time>
      </trkpt>
      <trkpt lat="44.02668" lon="2.11034">
        <ele>330</ele>
        <time>2011-03-26T13:47:10Z</time>
      </trkpt>
      <trkpt lat="44.02666" lon="2.11037">
        <ele>330</ele>
        <time>2011-03-26T13:47:11Z</time>
      </trkpt>
      <trkpt lat="44.02662" lon="2.1104">
        <ele>330</ele>
        <time>2011-03-26T13:47:12Z</time>
      </trkpt>
      <trkpt lat="44.0266" lon="2.11043">
        <ele>328</ele>
        <time>2011-03-26T13:47:13Z</time>
      </trkpt>
      <trkpt lat="44.02657" lon="2.11046">
        <ele>328</ele>
        <time>2011-03-26T13:47:14Z</time>
      </trkpt>
      <trkpt lat="44.02654" lon="2.11049">
        <ele>328</ele>
        <time>2011-03-26T13:47:15Z</time>
      </trkpt>
      <trkpt lat="44.02651" lon="2.11052">
        <ele>328</ele>
        <time>2011-03-26T13:47:16Z</time>
      </trkpt>
      <trkpt lat="44.02648" lon="2.11056">
        <ele>328</ele>
        <time>2011-03-26T13:47:17Z</time>
      </trkpt>
      <trkpt lat="44.02644" lon="2.11059">
        <ele>328</ele>
        <time>2011-03-26T13:47:18Z</time>
      </trkpt>
      <trkpt lat="44.02642" lon="2.11062">
        <ele>328</ele>
        <time>2011-03-26T13:47:19Z</time>
      </trkpt>
      <trkpt lat="44.02638" lon="2.11065">
        <ele>328</ele>
        <time>2011-03-26T13:47:20Z</time>
      </trkpt>
      <trkpt lat="44.02635" lon="2.11068">
        <ele>328</ele>
        <time>2011-03-26T13:47:21Z</time>
      </trkpt>
      <trkpt lat="44.02632" lon="2.11072">
        <ele>328</ele>
        <time>2011-03-26T13:47:22Z</time>
      </trkpt>
      <trkpt lat="44.02629" lon="2.11075">
        <ele>328</ele>
        <time>2011-03-26T13:47:23Z</time>
      </trkpt>
      <trkpt lat="44.02626" lon="2.11078">
        <ele>328</ele>
        <time>2011-03-26T13:47:24Z</time>
      </trkpt>
      <trkpt lat="44.02624" lon="2.11081">
        <ele>330</ele>
        <time>2011-03-26T13:47:25Z</time>
      </trkpt>
      <trkpt lat="44.02621" lon="2.11083">
        <ele>330</ele>
        <time>2011-03-26T13:47:26Z</time>
      </trkpt>
      <trkpt lat="44.02618" lon="2.11084">
        <ele>330</ele>
        <time>2011-03-26T13:47:27Z</time>
      </trkpt>
      <trkpt lat="44.02614" lon="2.11084">
        <ele>330</ele>
        <time>2011-03-26T13:47:28Z</time>
      </trkpt>
      <trkpt lat="44.02611" lon="2.11084">
        <ele>330</ele>
        <time>2011-03-26T13:47:29Z</time>
      </trkpt>
      <trkpt lat="44.02607" lon="2.11083">
        <ele>330</ele>
        <time>2011-03-26T13:47:30Z</time>
      </trkpt>
      <trkpt lat="44.02603" lon="2.11083">
        <ele>330</ele>
        <time>2011-03-26T13:47:31Z</time>
      </trkpt>
      <trkpt lat="44.02599" lon="2.11085">
        <ele>330</ele>
        <time>2011-03-26T13:47:32Z</time>
      </trkpt>
      <trkpt lat="44.02595" lon="2.11086">
        <ele>330</ele>
        <time>2011-03-26T13:47:33Z</time>
      </trkpt>
      <trkpt lat="44.02591" lon="2.11087">
        <ele>330</ele>
        <time>2011-03-26T13:47:34Z</time>
      </trkpt>
      <trkpt lat="44.02586" lon="2.11089">
        <ele>330</ele>
        <time>2011-03-26T13:47:35Z</time>
      </trkpt>
      <trkpt lat="44.0258" lon="2.1109">
        <ele>330</ele>
        <time>2011-03-26T13:47:36Z</time>
      </trkpt>
      <trkpt lat="44.02574" lon="2.11092">
        <ele>330</ele>
        <time>2011-03-26T13:47:37Z</time>
      </trkpt>
      <trkpt lat="44.02567" lon="2.11093">
        <ele>330</ele>
        <time>2011-03-26T13:47:38Z</time>
      </trkpt>
      <trkpt lat="44.0256" lon="2.11094">
        <ele>330</ele>
        <time>2011-03-26T13:47:39Z</time>
      </trkpt>
      <trkpt lat="44.02553" lon="2.11095">
        <ele>330</ele>
        <time>2011-03-26T13:47:40Z</time>
      </trkpt>
      <trkpt lat="44.02546" lon="2.11096">
        <ele>330</ele>
        <time>2011-03-26T13:47:41Z</time>
      </trkpt>
      <trkpt lat="44.02539" lon="2.11098">
        <ele>328</ele>
        <time>2011-03-26T13:47:42Z</time>
      </trkpt>
      <trkpt lat="44.02533" lon="2.111">
        <ele>328</ele>
        <time>2011-03-26T13:47:43Z</time>
      </trkpt>
      <trkpt lat="44.02526" lon="2.11102">
        <ele>328</ele>
        <time>2011-03-26T13:47:44Z</time>
      </trkpt>
      <trkpt lat="44.0252" lon="2.11104">
        <ele>328</ele>
        <time>2011-03-26T13:47:45Z</time>
      </trkpt>
      <trkpt lat="44.02514" lon="2.11106">
        <ele>328</ele>
        <time>2011-03-26T13:47:46Z</time>
      </trkpt>
      <trkpt lat="44.02508" lon="2.11107">
        <ele>328</ele>
        <time>2011-03-26T13:47:47Z</time>
      </trkpt>
      <trkpt lat="44.02503" lon="2.11109">
        <ele>328</ele>
        <time>2011-03-26T13:47:48Z</time>
      </trkpt>
      <trkpt lat="44.02497" lon="2.1111">
        <ele>328</ele>
        <time>2011-03-26T13:47:49Z</time>
      </trkpt>
      <trkpt lat="44.02492" lon="2.1111">
        <ele>328</ele>
        <time>2011-03-26T13:47:50Z</time>
      </trkpt>
      <trkpt lat="44.02487" lon="2.1111">
        <ele>328</ele>
        <time>2011-03-26T13:47:51Z</time>
      </trkpt>
      <trkpt lat="44.02481" lon="2.11109">
        <ele>328</ele>
        <time>2011-03-26T13:47:52Z</time>
      </trkpt>
      <trkpt lat="44.02476" lon="2.11107">
        <ele>328</ele>
        <time>2011-03-26T13:47:53Z</time>
      </trkpt>
      <trkpt lat="44.02471" lon="2.11105">
        <ele>328</ele>
        <time>2011-03-26T13:47:54Z</time>
      </trkpt>
      <trkpt lat="44.02466" lon="2.11103">
        <ele>328</ele>
        <time>2011-03-26T13:47:55Z</time>
      </trkpt>
      <trkpt lat="44.02462" lon="2.11099">
        <ele>328</ele>
        <time>2011-03-26T13:47:56Z</time>
      </trkpt>
      <trkpt lat="44.02459" lon="2.11095">
        <ele>328</ele>
        <time>2011-03-26T13:47:57Z</time>
      </trkpt>
      <trkpt lat="44.02455" lon="2.11092">
        <ele>334</ele>
        <time>2011-03-26T13:47:58Z</time>
      </trkpt>
      <trkpt lat="44.02452" lon="2.11088">
        <ele>334</ele>
        <time>2011-03-26T13:47:59Z</time>
      </trkpt>
      <trkpt lat="44.02449" lon="2.11085">
        <ele>334</ele>
        <time>2011-03-26T13:48:00Z</time>
      </trkpt>
      <trkpt lat="44.02446" lon="2.11081">
        <ele>334</ele>
        <time>2011-03-26T13:48:01Z</time>
      </trkpt>
      <trkpt lat="44.02443" lon="2.11077">
        <ele>334</ele>
        <time>2011-03-26T13:48:02Z</time>
      </trkpt>
      <trkpt lat="44.0244" lon="2.11073">
        <ele>334</ele>
        <time>2011-03-26T13:48:03Z</time>
      </trkpt>
      <trkpt lat="44.02437" lon="2.11069">
        <ele>334</ele>
        <time>2011-03-26T13:48:04Z</time>
      </trkpt>
      <trkpt lat="44.02434" lon="2.11065">
        <ele>334</ele>
        <time>2011-03-26T13:48:05Z</time>
      </trkpt>
      <trkpt lat="44.02431" lon="2.11061">
        <ele>334</ele>
        <time>2011-03-26T13:48:06Z</time>
      </trkpt>
      <trkpt lat="44.02427" lon="2.11057">
        <ele>334</ele>
        <time>2011-03-26T13:48:07Z</time>
      </trkpt>
      <trkpt lat="44.02424" lon="2.11053">
        <ele>334</ele>
        <time>2011-03-26T13:48:08Z</time>
      </trkpt>
      <trkpt lat="44.02421" lon="2.11049">
        <ele>334</ele>
        <time>2011-03-26T13:48:09Z</time>
      </trkpt>
      <trkpt lat="44.02418" lon="2.11046">
        <ele>334</ele>
        <time>2011-03-26T13:48:10Z</time>
      </trkpt>
      <trkpt lat="44.02414" lon="2.11043">
        <ele>334</ele>
        <time>2011-03-26T13:48:11Z</time>
      </trkpt>
      <trkpt lat="44.0241" lon="2.1104">
        <ele>330</ele>
        <time>2011-03-26T13:48:12Z</time>
      </trkpt>
      <trkpt lat="44.02407" lon="2.11037">
        <ele>330</ele>
        <time>2011-03-26T13:48:13Z</time>
      </trkpt>
      <trkpt lat="44.02403" lon="2.11035">
        <ele>330</ele>
        <time>2011-03-26T13:48:14Z</time>
      </trkpt>
      <trkpt lat="44.02399" lon="2.11032">
        <ele>330</ele>
        <time>2011-03-26T13:48:15Z</time>
      </trkpt>
      <trkpt lat="44.02395" lon="2.1103">
        <ele>330</ele>
        <time>2011-03-26T13:48:16Z</time>
      </trkpt>
      <trkpt lat="44.02392" lon="2.11028">
        <ele>330</ele>
        <time>2011-03-26T13:48:17Z</time>
      </trkpt>
      <trkpt lat="44.02388" lon="2.11026">
        <ele>330</ele>
        <time>2011-03-26T13:48:18Z</time>
      </trkpt>
      <trkpt lat="44.02385" lon="2.11023">
        <ele>330</ele>
        <time>2011-03-26T13:48:19Z</time>
      </trkpt>
      <trkpt lat="44.02381" lon="2.1102">
        <ele>330</ele>
        <time>2011-03-26T13:48:20Z</time>
      </trkpt>
      <trkpt lat="44.02378" lon="2.11017">
        <ele>330</ele>
        <time>2011-03-26T13:48:21Z</time>
      </trkpt>
      <trkpt lat="44.02374" lon="2.11013">
        <ele>330</ele>
        <time>2011-03-26T13:48:22Z</time>
      </trkpt>
      <trkpt lat="44.0237" lon="2.1101">
        <ele>330</ele>
        <time>2011-03-26T13:48:23Z</time>
      </trkpt>
      <trkpt lat="44.02365" lon="2.11008">
        <ele>330</ele>
        <time>2011-03-26T13:48:24Z</time>
      </trkpt>
      <trkpt lat="44.02361" lon="2.11005">
        <ele>330</ele>
        <time>2011-03-26T13:48:25Z</time>
      </trkpt>
      <trkpt lat="44.02356" lon="2.11003">
        <ele>330</ele>
        <time>2011-03-26T13:48:26Z</time>
      </trkpt>
      <trkpt lat="44.02352" lon="2.11">
        <ele>330</ele>
        <time>2011-03-26T13:48:27Z</time>
      </trkpt>
      <trkpt lat="44.02347" lon="2.10998">
        <ele>330</ele>
        <time>2011-03-26T13:48:28Z</time>
      </trkpt>
      <trkpt lat="44.02343" lon="2.10996">
        <ele>330</ele>
        <time>2011-03-26T13:48:29Z</time>
      </trkpt>
      <trkpt lat="44.02338" lon="2.10994">
        <ele>330</ele>
        <time>2011-03-26T13:48:30Z</time>
      </trkpt>
      <trkpt lat="44.02334" lon="2.10992">
        <ele>330</ele>
        <time>2011-03-26T13:48:31Z</time>
      </trkpt>
      <trkpt lat="44.0233" lon="2.10991">
        <ele>330</ele>
        <time>2011-03-26T13:48:32Z</time>
      </trkpt>
      <trkpt lat="44.02327" lon="2.1099">
        <ele>330</ele>
        <time>2011-03-26T13:48:33Z</time>
      </trkpt>
      <trkpt lat="44.02324" lon="2.1099">
        <ele>330</ele>
        <time>2011-03-26T13:48:34Z</time>
      </trkpt>
      <trkpt lat="44.02322" lon="2.10988">
        <ele>330</ele>
        <time>2011-03-26T13:48:35Z</time>
      </trkpt>
      <trkpt lat="44.02321" lon="2.10984">
        <ele>330</ele>
        <time>2011-03-26T13:48:36Z</time>
      </trkpt>
      <trkpt lat="44.02319" lon="2.1098">
        <ele>330</ele>
        <time>2011-03-26T13:48:37Z</time>
      </trkpt>
      <trkpt lat="44.02318" lon="2.10975">
        <ele>330</ele>
        <time>2011-03-26T13:48:38Z</time>
      </trkpt>
      <trkpt lat="44.02317" lon="2.1097">
        <ele>330</ele>
        <time>2011-03-26T13:48:39Z</time>
      </trkpt>
      <trkpt lat="44.02316" lon="2.10965">
        <ele>330</ele>
        <time>2011-03-26T13:48:40Z</time>
      </trkpt>
      <trkpt lat="44.02315" lon="2.10959">
        <ele>330</ele>
        <time>2011-03-26T13:48:41Z</time>
      </trkpt>
      <trkpt lat="44.02313" lon="2.10954">
        <ele>329</ele>
        <time>2011-03-26T13:48:42Z</time>
      </trkpt>
      <trkpt lat="44.02312" lon="2.10949">
        <ele>329</ele>
        <time>2011-03-26T13:48:43Z</time>
      </trkpt>
      <trkpt lat="44.02311" lon="2.10944">
        <ele>329</ele>
        <time>2011-03-26T13:48:44Z</time>
      </trkpt>
      <trkpt lat="44.02311" lon="2.10938">
        <ele>329</ele>
        <time>2011-03-26T13:48:45Z</time>
      </trkpt>
      <trkpt lat="44.0231" lon="2.10932">
        <ele>329</ele>
        <time>2011-03-26T13:48:46Z</time>
      </trkpt>
      <trkpt lat="44.02309" lon="2.10927">
        <ele>329</ele>
        <time>2011-03-26T13:48:47Z</time>
      </trkpt>
      <trkpt lat="44.02308" lon="2.10921">
        <ele>329</ele>
        <time>2011-03-26T13:48:48Z</time>
      </trkpt>
      <trkpt lat="44.02307" lon="2.10915">
        <ele>329</ele>
        <time>2011-03-26T13:48:49Z</time>
      </trkpt>
      <trkpt lat="44.02306" lon="2.10909">
        <ele>329</ele>
        <time>2011-03-26T13:48:50Z</time>
      </trkpt>
      <trkpt lat="44.02305" lon="2.10903">
        <ele>329</ele>
        <time>2011-03-26T13:48:51Z</time>
      </trkpt>
      <trkpt lat="44.02304" lon="2.10897">
        <ele>329</ele>
        <time>2011-03-26T13:48:52Z</time>
      </trkpt>
      <trkpt lat="44.02303" lon="2.1089">
        <ele>329</ele>
        <time>2011-03-26T13:48:53Z</time>
      </trkpt>
      <trkpt lat="44.02301" lon="2.10884">
        <ele>329</ele>
        <time>2011-03-26T13:48:54Z</time>
      </trkpt>
      <trkpt lat="44.023" lon="2.10877">
        <ele>329</ele>
        <time>2011-03-26T13:48:55Z</time>
      </trkpt>
      <trkpt lat="44.02299" lon="2.1087">
        <ele>324</ele>
        <time>2011-03-26T13:48:56Z</time>
      </trkpt>
      <trkpt lat="44.02298" lon="2.10863">
        <ele>324</ele>
        <time>2011-03-26T13:48:57Z</time>
      </trkpt>
      <trkpt lat="44.02297" lon="2.10857">
        <ele>324</ele>
        <time>2011-03-26T13:48:58Z</time>
      </trkpt>
      <trkpt lat="44.02295" lon="2.1085">
        <ele>324</ele>
        <time>2011-03-26T13:48:59Z</time>
      </trkpt>
      <trkpt lat="44.02294" lon="2.10844">
        <ele>324</ele>
        <time>2011-03-26T13:49:00Z</time>
      </trkpt>
      <trkpt lat="44.02293" lon="2.10837">
        <ele>324</ele>
        <time>2011-03-26T13:49:01Z</time>
      </trkpt>
      <trkpt lat="44.02291" lon="2.10831">
        <ele>331</ele>
        <time>2011-03-26T13:49:02Z</time>
      </trkpt>
      <trkpt lat="44.0229" lon="2.10824">
        <ele>331</ele>
        <time>2011-03-26T13:49:03Z</time>
      </trkpt>
      <trkpt lat="44.02288" lon="2.10818">
        <ele>331</ele>
        <time>2011-03-26T13:49:04Z</time>
      </trkpt>
      <trkpt lat="44.02286" lon="2.10811">
        <ele>331</ele>
        <time>2011-03-26T13:49:05Z</time>
      </trkpt>
      <trkpt lat="44.02284" lon="2.10804">
        <ele>331</ele>
        <time>2011-03-26T13:49:06Z</time>
      </trkpt>
      <trkpt lat="44.02282" lon="2.10797">
        <ele>331</ele>
        <time>2011-03-26T13:49:07Z</time>
      </trkpt>
      <trkpt lat="44.0228" lon="2.1079">
        <ele>329</ele>
        <time>2011-03-26T13:49:08Z</time>
      </trkpt>
      <trkpt lat="44.02278" lon="2.10783">
        <ele>329</ele>
        <time>2011-03-26T13:49:09Z</time>
      </trkpt>
      <trkpt lat="44.02276" lon="2.10776">
        <ele>329</ele>
        <time>2011-03-26T13:49:10Z</time>
      </trkpt>
      <trkpt lat="44.02274" lon="2.10769">
        <ele>329</ele>
        <time>2011-03-26T13:49:11Z</time>
      </trkpt>
      <trkpt lat="44.02271" lon="2.10761">
        <ele>329</ele>
        <time>2011-03-26T13:49:12Z</time>
      </trkpt>
      <trkpt lat="44.02269" lon="2.10753">
        <ele>329</ele>
        <time>2011-03-26T13:49:13Z</time>
      </trkpt>
      <trkpt lat="44.02266" lon="2.10745">
        <ele>329</ele>
        <time>2011-03-26T13:49:14Z</time>
      </trkpt>
      <trkpt lat="44.02263" lon="2.10737">
        <ele>329</ele>
        <time>2011-03-26T13:49:15Z</time>
      </trkpt>
      <trkpt lat="44.0226" lon="2.10729">
        <ele>329</ele>
        <time>2011-03-26T13:49:16Z</time>
      </trkpt>
      <trkpt lat="44.02258" lon="2.10721">
        <ele>329</ele>
        <time>2011-03-26T13:49:17Z</time>
      </trkpt>
      <trkpt lat="44.02255" lon="2.10713">
        <ele>329</ele>
        <time>2011-03-26T13:49:18Z</time>
      </trkpt>
      <trkpt lat="44.02252" lon="2.10704">
        <ele>326</ele>
        <time>2011-03-26T13:49:19Z</time>
      </trkpt>
      <trkpt lat="44.0225" lon="2.10695">
        <ele>326</ele>
        <time>2011-03-26T13:49:20Z</time>
      </trkpt>
      <trkpt lat="44.02247" lon="2.10686">
        <ele>326</ele>
        <time>2011-03-26T13:49:21Z</time>
      </trkpt>
      <trkpt lat="44.02244" lon="2.10677">
        <ele>326</ele>
        <time>2011-03-26T13:49:22Z</time>
      </trkpt>
      <trkpt lat="44.02242" lon="2.10668">
        <ele>326</ele>
        <time>2011-03-26T13:49:23Z</time>
      </trkpt>
      <trkpt lat="44.02239" lon="2.1066">
        <ele>326</ele>
        <time>2011-03-26T13:49:24Z</time>
      </trkpt>
      <trkpt lat="44.02236" lon="2.10651">
        <ele>326</ele>
        <time>2011-03-26T13:49:25Z</time>
      </trkpt>
      <trkpt lat="44.02233" lon="2.10642">
        <ele>326</ele>
        <time>2011-03-26T13:49:26Z</time>
      </trkpt>
      <trkpt lat="44.0223" lon="2.10633">
        <ele>326</ele>
        <time>2011-03-26T13:49:27Z</time>
      </trkpt>
      <trkpt lat="44.02228" lon="2.10623">
        <ele>325</ele>
        <time>2011-03-26T13:49:28Z</time>
      </trkpt>
      <trkpt lat="44.02225" lon="2.10614">
        <ele>325</ele>
        <time>2011-03-26T13:49:29Z</time>
      </trkpt>
      <trkpt lat="44.02222" lon="2.10605">
        <ele>325</ele>
        <time>2011-03-26T13:49:30Z</time>
      </trkpt>
      <trkpt lat="44.0222" lon="2.10596">
        <ele>325</ele>
        <time>2011-03-26T13:49:31Z</time>
      </trkpt>
      <trkpt lat="44.02217" lon="2.10587">
        <ele>325</ele>
        <time>2011-03-26T13:49:32Z</time>
      </trkpt>
      <trkpt lat="44.02214" lon="2.10578">
        <ele>325</ele>
        <time>2011-03-26T13:49:33Z</time>
      </trkpt>
      <trkpt lat="44.02212" lon="2.10569">
        <ele>325</ele>
        <time>2011-03-26T13:49:34Z</time>
      </trkpt>
      <trkpt lat="44.02209" lon="2.10561">
        <ele>325</ele>
        <time>2011-03-26T13:49:35Z</time>
      </trkpt>
      <trkpt lat="44.02206" lon="2.10553">
        <ele>322</ele>
        <time>2011-03-26T13:49:36Z</time>
      </trkpt>
      <trkpt lat="44.02204" lon="2.10545">
        <ele>322</ele>
        <time>2011-03-26T13:49:37Z</time>
      </trkpt>
      <trkpt lat="44.02201" lon="2.10537">
        <ele>323</ele>
        <time>2011-03-26T13:49:38Z</time>
      </trkpt>
      <trkpt lat="44.02198" lon="2.1053">
        <ele>323</ele>
        <time>2011-03-26T13:49:39Z</time>
      </trkpt>
      <trkpt lat="44.02196" lon="2.10523">
        <ele>323</ele>
        <time>2011-03-26T13:49:40Z</time>
      </trkpt>
      <trkpt lat="44.02193" lon="2.10516">
        <ele>323</ele>
        <time>2011-03-26T13:49:41Z</time>
      </trkpt>
      <trkpt lat="44.0219" lon="2.10509">
        <ele>323</ele>
        <time>2011-03-26T13:49:42Z</time>
      </trkpt>
      <trkpt lat="44.02187" lon="2.10502">
        <ele>323</ele>
        <time>2011-03-26T13:49:43Z</time>
      </trkpt>
      <trkpt lat="44.02183" lon="2.10497">
        <ele>323</ele>
        <time>2011-03-26T13:49:44Z</time>
      </trkpt>
      <trkpt lat="44.02178" lon="2.10497">
        <ele>323</ele>
        <time>2011-03-26T13:49:45Z</time>
      </trkpt>
      <trkpt lat="44.02172" lon="2.10498">
        <ele>323</ele>
        <time>2011-03-26T13:49:46Z</time>
      </trkpt>
      <trkpt lat="44.02167" lon="2.10501">
        <ele>323</ele>
        <time>2011-03-26T13:49:47Z</time>
      </trkpt>
      <trkpt lat="44.02161" lon="2.10503">
        <ele>323</ele>
        <time>2011-03-26T13:49:48Z</time>
      </trkpt>
      <trkpt lat="44.02155" lon="2.10506">
        <ele>323</ele>
        <time>2011-03-26T13:49:49Z</time>
      </trkpt>
      <trkpt lat="44.02149" lon="2.1051">
        <ele>323</ele>
        <time>2011-03-26T13:49:50Z</time>
      </trkpt>
      <trkpt lat="44.02143" lon="2.10513">
        <ele>323</ele>
        <time>2011-03-26T13:49:51Z</time>
      </trkpt>
      <trkpt lat="44.02136" lon="2.10517">
        <ele>323</ele>
        <time>2011-03-26T13:49:52Z</time>
      </trkpt>
      <trkpt lat="44.0213" lon="2.10518">
        <ele>323</ele>
        <time>2011-03-26T13:49:53Z</time>
      </trkpt>
      <trkpt lat="44.02123" lon="2.10519">
        <ele>326</ele>
        <time>2011-03-26T13:49:54Z</time>
      </trkpt>
      <trkpt lat="44.02117" lon="2.1052">
        <ele>326</ele>
        <time>2011-03-26T13:49:55Z</time>
      </trkpt>
      <trkpt lat="44.02111" lon="2.1052">
        <ele>326</ele>
        <time>2011-03-26T13:49:56Z</time>
      </trkpt>
      <trkpt lat="44.02106" lon="2.10519">
        <ele>326</ele>
        <time>2011-03-26T13:49:57Z</time>
      </trkpt>
      <trkpt lat="44.021" lon="2.10519">
        <ele>326</ele>
        <time>2011-03-26T13:49:58Z</time>
      </trkpt>
      <trkpt lat="44.02095" lon="2.10518">
        <ele>326</ele>
        <time>2011-03-26T13:49:59Z</time>
      </trkpt>
      <trkpt lat="44.02089" lon="2.10517">
        <ele>326</ele>
        <time>2011-03-26T13:50:00Z</time>
      </trkpt>
      <trkpt lat="44.02083" lon="2.10516">
        <ele>326</ele>
        <time>2011-03-26T13:50:01Z</time>
      </trkpt>
      <trkpt lat="44.02077" lon="2.10515">
        <ele>326</ele>
        <time>2011-03-26T13:50:02Z</time>
      </trkpt>
      <trkpt lat="44.02072" lon="2.10514">
        <ele>326</ele>
        <time>2011-03-26T13:50:03Z</time>
      </trkpt>
      <trkpt lat="44.02066" lon="2.10512">
        <ele>326</ele>
        <time>2011-03-26T13:50:04Z</time>
      </trkpt>
      <trkpt lat="44.02061" lon="2.10511">
        <ele>326</ele>
        <time>2011-03-26T13:50:05Z</time>
      </trkpt>
      <trkpt lat="44.02056" lon="2.10509">
        <ele>326</ele>
        <time>2011-03-26T13:50:06Z</time>
      </trkpt>
      <trkpt lat="44.0205" lon="2.10508">
        <ele>326</ele>
        <time>2011-03-26T13:50:07Z</time>
      </trkpt>
      <trkpt lat="44.02045" lon="2.10507">
        <ele>326</ele>
        <time>2011-03-26T13:50:08Z</time>
      </trkpt>
      <trkpt lat="44.02039" lon="2.10505">
        <ele>326</ele>
        <time>2011-03-26T13:50:09Z</time>
      </trkpt>
      <trkpt lat="44.02035" lon="2.10504">
        <ele>326</ele>
        <time>2011-03-26T13:50:10Z</time>
      </trkpt>
      <trkpt lat="44.0203" lon="2.10503">
        <ele>326</ele>
        <time>2011-03-26T13:50:11Z</time>
      </trkpt>
      <trkpt lat="44.02026" lon="2.10501">
        <ele>326</ele>
        <time>2011-03-26T13:50:12Z</time>
      </trkpt>
      <trkpt lat="44.02021" lon="2.105">
        <ele>326</ele>
        <time>2011-03-26T13:50:13Z</time>
      </trkpt>
      <trkpt lat="44.02017" lon="2.10499">
        <ele>326</ele>
        <time>2011-03-26T13:50:14Z</time>
      </trkpt>
      <trkpt lat="44.02012" lon="2.10497">
        <ele>326</ele>
        <time>2011-03-26T13:50:15Z</time>
      </trkpt>
      <trkpt lat="44.02008" lon="2.10495">
        <ele>326</ele>
        <time>2011-03-26T13:50:16Z</time>
      </trkpt>
      <trkpt lat="44.02003" lon="2.10493">
        <ele>326</ele>
        <time>2011-03-26T13:50:17Z</time>
      </trkpt>
      <trkpt lat="44.02" lon="2.1049">
        <ele>326</ele>
        <time>2011-03-26T13:50:18Z</time>
      </trkpt>
      <trkpt lat="44.01997" lon="2.10486">
        <ele>326</ele>
        <time>2011-03-26T13:50:19Z</time>
      </trkpt>
      <trkpt lat="44.01994" lon="2.10482">
        <ele>326</ele>
        <time>2011-03-26T13:50:20Z</time>
      </trkpt>
      <trkpt lat="44.01991" lon="2.10478">
        <ele>326</ele>
        <time>2011-03-26T13:50:21Z</time>
      </trkpt>
      <trkpt lat="44.01988" lon="2.10473">
        <ele>326</ele>
        <time>2011-03-26T13:50:22Z</time>
      </trkpt>
      <trkpt lat="44.01985" lon="2.10467">
        <ele>326</ele>
        <time>2011-03-26T13:50:23Z</time>
      </trkpt>
      <trkpt lat="44.01982" lon="2.10461">
        <ele>326</ele>
        <time>2011-03-26T13:50:24Z</time>
      </trkpt>
      <trkpt lat="44.01978" lon="2.10453">
        <ele>329</ele>
        <time>2011-03-26T13:50:25Z</time>
      </trkpt>
      <trkpt lat="44.01975" lon="2.10445">
        <ele>329</ele>
        <time>2011-03-26T13:50:26Z</time>
      </trkpt>
      <trkpt lat="44.01971" lon="2.10436">
        <ele>329</ele>
        <time>2011-03-26T13:50:27Z</time>
      </trkpt>
      <trkpt lat="44.01967" lon="2.10427">
        <ele>329</ele>
        <time>2011-03-26T13:50:28Z</time>
      </trkpt>
      <trkpt lat="44.01962" lon="2.10417">
        <ele>329</ele>
        <time>2011-03-26T13:50:29Z</time>
      </trkpt>
      <trkpt lat="44.01958" lon="2.10408">
        <ele>322</ele>
        <time>2011-03-26T13:50:30Z</time>
      </trkpt>
      <trkpt lat="44.01952" lon="2.10401">
        <ele>322</ele>
        <time>2011-03-26T13:50:31Z</time>
      </trkpt>
      <trkpt lat="44.01945" lon="2.10397">
        <ele>322</ele>
        <time>2011-03-26T13:50:32Z</time>
      </trkpt>
      <trkpt lat="44.01938" lon="2.10393">
        <ele>322</ele>
        <time>2011-03-26T13:50:33Z</time>
      </trkpt>
      <trkpt lat="44.01931" lon="2.1039">
        <ele>322</ele>
        <time>2011-03-26T13:50:34Z</time>
      </trkpt>
      <trkpt lat="44.01924" lon="2.10388">
        <ele>322</ele>
        <time>2011-03-26T13:50:35Z</time>
      </trkpt>
      <trkpt lat="44.01916" lon="2.10387">
        <ele>322</ele>
        <time>2011-03-26T13:50:36Z</time>
      </trkpt>
      <trkpt lat="44.01909" lon="2.10385">
        <ele>322</ele>
        <time>2011-03-26T13:50:37Z</time>
      </trkpt>
      <trkpt lat="44.01901" lon="2.10384">
        <ele>322</ele>
        <time>2011-03-26T13:50:38Z</time>
      </trkpt>
      <trkpt lat="44.01894" lon="2.10383">
        <ele>322</ele>
        <time>2011-03-26T13:50:39Z</time>
      </trkpt>
      <trkpt lat="44.01886" lon="2.10381">
        <ele>322</ele>
        <time>2011-03-26T13:50:40Z</time>
      </trkpt>
      <trkpt lat="44.01879" lon="2.1038">
        <ele>322</ele>
        <time>2011-03-26T13:50:41Z</time>
      </trkpt>
      <trkpt lat="44.01871" lon="2.10379">
        <ele>316</ele>
        <time>2011-03-26T13:50:42Z</time>
      </trkpt>
      <trkpt lat="44.01864" lon="2.10377">
        <ele>316</ele>
        <time>2011-03-26T13:50:43Z</time>
      </trkpt>
      <trkpt lat="44.01857" lon="2.10376">
        <ele>316</ele>
        <time>2011-03-26T13:50:44Z</time>
      </trkpt>
      <trkpt lat="44.0185" lon="2.10375">
        <ele>316</ele>
        <time>2011-03-26T13:50:45Z</time>
      </trkpt>
      <trkpt lat="44.01843" lon="2.10375">
        <ele>316</ele>
        <time>2011-03-26T13:50:46Z</time>
      </trkpt>
      <trkpt lat="44.01837" lon="2.10376">
        <ele>316</ele>
        <time>2011-03-26T13:50:47Z</time>
      </trkpt>
      <trkpt lat="44.0183" lon="2.10377">
        <ele>316</ele>
        <time>2011-03-26T13:50:48Z</time>
      </trkpt>
      <trkpt lat="44.01824" lon="2.10379">
        <ele>316</ele>
        <time>2011-03-26T13:50:49Z</time>
      </trkpt>
      <trkpt lat="44.01818" lon="2.1038">
        <ele>316</ele>
        <time>2011-03-26T13:50:50Z</time>
      </trkpt>
      <trkpt lat="44.01813" lon="2.10381">
        <ele>316</ele>
        <time>2011-03-26T13:50:51Z</time>
      </trkpt>
      <trkpt lat="44.01807" lon="2.10382">
        <ele>316</ele>
        <time>2011-03-26T13:50:52Z</time>
      </trkpt>
      <trkpt lat="44.01802" lon="2.10384">
        <ele>316</ele>
        <time>2011-03-26T13:50:53Z</time>
      </trkpt>
      <trkpt lat="44.01797" lon="2.10385">
        <ele>316</ele>
        <time>2011-03-26T13:50:54Z</time>
      </trkpt>
      <trkpt lat="44.01791" lon="2.10386">
        <ele>314</ele>
        <time>2011-03-26T13:50:55Z</time>
      </trkpt>
      <trkpt lat="44.01786" lon="2.10386">
        <ele>314</ele>
        <time>2011-03-26T13:50:56Z</time>
      </trkpt>
      <trkpt lat="44.01781" lon="2.10385">
        <ele>314</ele>
        <time>2011-03-26T13:50:57Z</time>
      </trkpt>
      <trkpt lat="44.01775" lon="2.10381">
        <ele>314</ele>
        <time>2011-03-26T13:50:58Z</time>
      </trkpt>
      <trkpt lat="44.01769" lon="2.10378">
        <ele>314</ele>
        <time>2011-03-26T13:50:59Z</time>
      </trkpt>
      <trkpt lat="44.01763" lon="2.10373">
        <ele>314</ele>
        <time>2011-03-26T13:51:00Z</time>
      </trkpt>
      <trkpt lat="44.01757" lon="2.10367">
        <ele>314</ele>
        <time>2011-03-26T13:51:01Z</time>
      </trkpt>
      <trkpt lat="44.01751" lon="2.10362">
        <ele>314</ele>
        <time>2011-03-26T13:51:02Z</time>
      </trkpt>
      <trkpt lat="44.01744" lon="2.10356">
        <ele>314</ele>
        <time>2011-03-26T13:51:03Z</time>
      </trkpt>
      <trkpt lat="44.01736" lon="2.10349">
        <ele>314</ele>
        <time>2011-03-26T13:51:04Z</time>
      </trkpt>
      <trkpt lat="44.01728" lon="2.10342">
        <ele>314</ele>
        <time>2011-03-26T13:51:05Z</time>
      </trkpt>
      <trkpt lat="44.01719" lon="2.10335">
        <ele>314</ele>
        <time>2011-03-26T13:51:06Z</time>
      </trkpt>
      <trkpt lat="44.0171" lon="2.10327">
        <ele>314</ele>
        <time>2011-03-26T13:51:07Z</time>
      </trkpt>
      <trkpt lat="44.017" lon="2.1032">
        <ele>305</ele>
        <time>2011-03-26T13:51:08Z</time>
      </trkpt>
      <trkpt lat="44.01691" lon="2.10312">
        <ele>305</ele>
        <time>2011-03-26T13:51:09Z</time>
      </trkpt>
      <trkpt lat="44.0168" lon="2.10309">
        <ele>305</ele>
        <time>2011-03-26T13:51:10Z</time>
      </trkpt>
      <trkpt lat="44.01669" lon="2.10308">
        <ele>305</ele>
        <time>2011-03-26T13:51:11Z</time>
      </trkpt>
      <trkpt lat="44.01658" lon="2.10309">
        <ele>305</ele>
        <time>2011-03-26T13:51:12Z</time>
      </trkpt>
      <trkpt lat="44.01647" lon="2.1031">
        <ele>305</ele>
        <time>2011-03-26T13:51:13Z</time>
      </trkpt>
      <trkpt lat="44.01637" lon="2.10313">
        <ele>305</ele>
        <time>2011-03-26T13:51:14Z</time>
      </trkpt>
      <trkpt lat="44.01628" lon="2.10316">
        <ele>305</ele>
        <time>2011-03-26T13:51:15Z</time>
      </trkpt>
      <trkpt lat="44.0162" lon="2.10319">
        <ele>303</ele>
        <time>2011-03-26T13:51:16Z</time>
      </trkpt>
      <trkpt lat="44.01612" lon="2.10322">
        <ele>303</ele>
        <time>2011-03-26T13:51:17Z</time>
      </trkpt>
      <trkpt lat="44.01605" lon="2.10325">
        <ele>303</ele>
        <time>2011-03-26T13:51:18Z</time>
      </trkpt>
      <trkpt lat="44.01598" lon="2.10328">
        <ele>303</ele>
        <time>2011-03-26T13:51:19Z</time>
      </trkpt>
      <trkpt lat="44.01591" lon="2.10331">
        <ele>303</ele>
        <time>2011-03-26T13:51:20Z</time>
      </trkpt>
      <trkpt lat="44.01585" lon="2.10334">
        <ele>303</ele>
        <time>2011-03-26T13:51:21Z</time>
      </trkpt>
      <trkpt lat="44.01579" lon="2.10336">
        <ele>303</ele>
        <time>2011-03-26T13:51:22Z</time>
      </trkpt>
      <trkpt lat="44.01574" lon="2.10339">
        <ele>303</ele>
        <time>2011-03-26T13:51:23Z</time>
      </trkpt>
      <trkpt lat="44.01569" lon="2.10339">
        <ele>303</ele>
        <time>2011-03-26T13:51:24Z</time>
      </trkpt>
      <trkpt lat="44.01565" lon="2.10337">
        <ele>303</ele>
        <time>2011-03-26T13:51:25Z</time>
      </trkpt>
      <trkpt lat="44.01563" lon="2.10334">
        <ele>303</ele>
        <time>2011-03-26T13:51:26Z</time>
      </trkpt>
      <trkpt lat="44.01563" lon="2.1033">
        <ele>303</ele>
        <time>2011-03-26T13:51:27Z</time>
      </trkpt>
      <trkpt lat="44.01564" lon="2.10327">
        <ele>303</ele>
        <time>2011-03-26T13:51:28Z</time>
      </trkpt>
      <trkpt lat="44.01565" lon="2.10324">
        <ele>303</ele>
        <time>2011-03-26T13:51:29Z</time>
      </trkpt>
      <trkpt lat="44.01569" lon="2.10323">
        <ele>303</ele>
        <time>2011-03-26T13:51:30Z</time>
      </trkpt>
      <trkpt lat="44.01571" lon="2.10322">
        <ele>303</ele>
        <time>2011-03-26T13:51:31Z</time>
      </trkpt>
      <trkpt lat="44.01573" lon="2.1032">
        <ele>303</ele>
        <time>2011-03-26T13:51:32Z</time>
      </trkpt>
      <trkpt lat="44.01575" lon="2.10317">
        <ele>303</ele>
        <time>2011-03-26T13:51:33Z</time>
      </trkpt>
      <trkpt lat="44.01576" lon="2.10314">
        <ele>303</ele>
        <time>2011-03-26T13:51:34Z</time>
      </trkpt>
      <trkpt lat="44.01578" lon="2.10311">
        <ele>303</ele>
        <time>2011-03-26T13:51:35Z</time>
      </trkpt>
      <trkpt lat="44.01579" lon="2.10308">
        <ele>303</ele>
        <time>2011-03-26T13:51:36Z</time>
      </trkpt>
      <trkpt lat="44.01581" lon="2.10304">
        <ele>303</ele>
        <time>2011-03-26T13:51:37Z</time>
      </trkpt>
      <trkpt lat="44.01582" lon="2.10301">
        <ele>303</ele>
        <time>2011-03-26T13:51:38Z</time>
      </trkpt>
      <trkpt lat="44.01583" lon="2.10298">
        <ele>303</ele>
        <time>2011-03-26T13:51:39Z</time>
      </trkpt>
      <trkpt lat="44.01584" lon="2.10295">
        <ele>303</ele>
        <time>2011-03-26T13:51:40Z</time>
      </trkpt>
      <trkpt lat="44.01585" lon="2.10292">
        <ele>303</ele>
        <time>2011-03-26T13:51:41Z</time>
      </trkpt>
      <trkpt lat="44.01586" lon="2.10289">
        <ele>306</ele>
        <time>2011-03-26T13:51:42Z</time>
      </trkpt>
      <trkpt lat="44.01587" lon="2.10286">
        <ele>306</ele>
        <time>2011-03-26T13:51:43Z</time>
      </trkpt>
      <trkpt lat="44.01588" lon="2.10282">
        <ele>306</ele>
        <time>2011-03-26T13:51:44Z</time>
      </trkpt>
      <trkpt lat="44.01589" lon="2.10279">
        <ele>306</ele>
        <time>2011-03-26T13:51:45Z</time>
      </trkpt>
      <trkpt lat="44.0159" lon="2.10275">
        <ele>306</ele>
        <time>2011-03-26T13:51:46Z</time>
      </trkpt>
      <trkpt lat="44.01591" lon="2.10272">
        <ele>306</ele>
        <time>2011-03-26T13:51:47Z</time>
      </trkpt>
      <trkpt lat="44.01593" lon="2.10267">
        <ele>306</ele>
        <time>2011-03-26T13:51:49Z</time>
      </trkpt>
      <trkpt lat="44.01595" lon="2.10261">
        <ele>306</ele>
        <time>2011-03-26T13:51:51Z</time>
      </trkpt>
      <trkpt lat="44.01596" lon="2.10258">
        <ele>306</ele>
        <time>2011-03-26T13:51:52Z</time>
      </trkpt>
      <trkpt lat="44.01598" lon="2.10255">
        <ele>306</ele>
        <time>2011-03-26T13:51:53Z</time>
      </trkpt>
      <trkpt lat="44.01599" lon="2.10253">
        <ele>306</ele>
        <time>2011-03-26T13:51:54Z</time>
      </trkpt>
      <trkpt lat="44.016" lon="2.1025">
        <ele>306</ele>
        <time>2011-03-26T13:51:55Z</time>
      </trkpt>
      <trkpt lat="44.01603" lon="2.10245">
        <ele>306</ele>
        <time>2011-03-26T13:51:57Z</time>
      </trkpt>
      <trkpt lat="44.01606" lon="2.1024">
        <ele>306</ele>
        <time>2011-03-26T13:51:59Z</time>
      </trkpt>
      <trkpt lat="44.01608" lon="2.10235">
        <ele>306</ele>
        <time>2011-03-26T13:52:01Z</time>
      </trkpt>
      <trkpt lat="44.0161" lon="2.10231">
        <ele>306</ele>
        <time>2011-03-26T13:52:03Z</time>
      </trkpt>
      <trkpt lat="44.01612" lon="2.10228">
        <ele>306</ele>
        <time>2011-03-26T13:52:04Z</time>
      </trkpt>
      <trkpt lat="44.01614" lon="2.10223">
        <ele>306</ele>
        <time>2011-03-26T13:52:06Z</time>
      </trkpt>
      <trkpt lat="44.01615" lon="2.1022">
        <ele>306</ele>
        <time>2011-03-26T13:52:07Z</time>
      </trkpt>
      <trkpt lat="44.01616" lon="2.10217">
        <ele>306</ele>
        <time>2011-03-26T13:52:08Z</time>
      </trkpt>
      <trkpt lat="44.01617" lon="2.10214">
        <ele>306</ele>
        <time>2011-03-26T13:52:09Z</time>
      </trkpt>
      <trkpt lat="44.01619" lon="2.10211">
        <ele>306</ele>
        <time>2011-03-26T13:52:10Z</time>
      </trkpt>
      <trkpt lat="44.0162" lon="2.10208">
        <ele>308</ele>
        <time>2011-03-26T13:52:11Z</time>
      </trkpt>
      <trkpt lat="44.01621" lon="2.10205">
        <ele>308</ele>
        <time>2011-03-26T13:52:12Z</time>
      </trkpt>
      <trkpt lat="44.01622" lon="2.10199">
        <ele>308</ele>
        <time>2011-03-26T13:52:14Z</time>
      </trkpt>
      <trkpt lat="44.01625" lon="2.10194">
        <ele>308</ele>
        <time>2011-03-26T13:52:16Z</time>
      </trkpt>
      <trkpt lat="44.01627" lon="2.1019">
        <ele>311</ele>
        <time>2011-03-26T13:52:18Z</time>
      </trkpt>
      <trkpt lat="44.0163" lon="2.10185">
        <ele>311</ele>
        <time>2011-03-26T13:52:20Z</time>
      </trkpt>
      <trkpt lat="44.01631" lon="2.10182">
        <ele>311</ele>
        <time>2011-03-26T13:52:21Z</time>
      </trkpt>
      <trkpt lat="44.01633" lon="2.1018">
        <ele>311</ele>
        <time>2011-03-26T13:52:22Z</time>
      </trkpt>
      <trkpt lat="44.01635" lon="2.10176">
        <ele>311</ele>
        <time>2011-03-26T13:52:24Z</time>
      </trkpt>
      <trkpt lat="44.01636" lon="2.10174">
        <ele>311</ele>
        <time>2011-03-26T13:52:25Z</time>
      </trkpt>
      <trkpt lat="44.01638" lon="2.10169">
        <ele>311</ele>
        <time>2011-03-26T13:52:27Z</time>
      </trkpt>
      <trkpt lat="44.0164" lon="2.10163">
        <ele>311</ele>
        <time>2011-03-26T13:52:29Z</time>
      </trkpt>
      <trkpt lat="44.0164" lon="2.1016">
        <ele>311</ele>
        <time>2011-03-26T13:52:30Z</time>
      </trkpt>
      <trkpt lat="44.01641" lon="2.10154">
        <ele>311</ele>
        <time>2011-03-26T13:52:32Z</time>
      </trkpt>
      <trkpt lat="44.01642" lon="2.10148">
        <ele>311</ele>
        <time>2011-03-26T13:52:34Z</time>
      </trkpt>
      <trkpt lat="44.01643" lon="2.10145">
        <ele>311</ele>
        <time>2011-03-26T13:52:35Z</time>
      </trkpt>
      <trkpt lat="44.01643" lon="2.10141">
        <ele>311</ele>
        <time>2011-03-26T13:52:36Z</time>
      </trkpt>
      <trkpt lat="44.01644" lon="2.10138">
        <ele>311</ele>
        <time>2011-03-26T13:52:37Z</time>
      </trkpt>
      <trkpt lat="44.01644" lon="2.10134">
        <ele>311</ele>
        <time>2011-03-26T13:52:38Z</time>
      </trkpt>
      <trkpt lat="44.01645" lon="2.1013">
        <ele>311</ele>
        <time>2011-03-26T13:52:39Z</time>
      </trkpt>
      <trkpt lat="44.01645" lon="2.10127">
        <ele>311</ele>
        <time>2011-03-26T13:52:40Z</time>
      </trkpt>
      <trkpt lat="44.01646" lon="2.10123">
        <ele>319</ele>
        <time>2011-03-26T13:52:41Z</time>
      </trkpt>
      <trkpt lat="44.01646" lon="2.10119">
        <ele>319</ele>
        <time>2011-03-26T13:52:42Z</time>
      </trkpt>
      <trkpt lat="44.01646" lon="2.10115">
        <ele>319</ele>
        <time>2011-03-26T13:52:43Z</time>
      </trkpt>
      <trkpt lat="44.01647" lon="2.10112">
        <ele>319</ele>
        <time>2011-03-26T13:52:44Z</time>
      </trkpt>
      <trkpt lat="44.01647" lon="2.10108">
        <ele>319</ele>
        <time>2011-03-26T13:52:45Z</time>
      </trkpt>
      <trkpt lat="44.01648" lon="2.10104">
        <ele>319</ele>
        <time>2011-03-26T13:52:46Z</time>
      </trkpt>
      <trkpt lat="44.01649" lon="2.10101">
        <ele>319</ele>
        <time>2011-03-26T13:52:47Z</time>
      </trkpt>
      <trkpt lat="44.01649" lon="2.10097">
        <ele>319</ele>
        <time>2011-03-26T13:52:48Z</time>
      </trkpt>
      <trkpt lat="44.0165" lon="2.10093">
        <ele>319</ele>
        <time>2011-03-26T13:52:49Z</time>
      </trkpt>
      <trkpt lat="44.0165" lon="2.10089">
        <ele>319</ele>
        <time>2011-03-26T13:52:50Z</time>
      </trkpt>
      <trkpt lat="44.01651" lon="2.10086">
        <ele>319</ele>
        <time>2011-03-26T13:52:51Z</time>
      </trkpt>
      <trkpt lat="44.01651" lon="2.10082">
        <ele>319</ele>
        <time>2011-03-26T13:52:52Z</time>
      </trkpt>
      <trkpt lat="44.01652" lon="2.10078">
        <ele>319</ele>
        <time>2011-03-26T13:52:53Z</time>
      </trkpt>
      <trkpt lat="44.01653" lon="2.10075">
        <ele>319</ele>
        <time>2011-03-26T13:52:54Z</time>
      </trkpt>
      <trkpt lat="44.01653" lon="2.10071">
        <ele>319</ele>
        <time>2011-03-26T13:52:55Z</time>
      </trkpt>
      <trkpt lat="44.01654" lon="2.10068">
        <ele>319</ele>
        <time>2011-03-26T13:52:56Z</time>
      </trkpt>
      <trkpt lat="44.01654" lon="2.10065">
        <ele>319</ele>
        <time>2011-03-26T13:52:57Z</time>
      </trkpt>
      <trkpt lat="44.01655" lon="2.10061">
        <ele>319</ele>
        <time>2011-03-26T13:52:58Z</time>
      </trkpt>
      <trkpt lat="44.01655" lon="2.10057">
        <ele>319</ele>
        <time>2011-03-26T13:52:59Z</time>
      </trkpt>
      <trkpt lat="44.01656" lon="2.10053">
        <ele>319</ele>
        <time>2011-03-26T13:53:00Z</time>
      </trkpt>
      <trkpt lat="44.01656" lon="2.10049">
        <ele>319</ele>
        <time>2011-03-26T13:53:01Z</time>
      </trkpt>
      <trkpt lat="44.01657" lon="2.10044">
        <ele>319</ele>
        <time>2011-03-26T13:53:02Z</time>
      </trkpt>
      <trkpt lat="44.01657" lon="2.1004">
        <ele>323</ele>
        <time>2011-03-26T13:53:03Z</time>
      </trkpt>
      <trkpt lat="44.01658" lon="2.10036">
        <ele>323</ele>
        <time>2011-03-26T13:53:04Z</time>
      </trkpt>
      <trkpt lat="44.01659" lon="2.10032">
        <ele>323</ele>
        <time>2011-03-26T13:53:05Z</time>
      </trkpt>
      <trkpt lat="44.01659" lon="2.10028">
        <ele>323</ele>
        <time>2011-03-26T13:53:06Z</time>
      </trkpt>
      <trkpt lat="44.0166" lon="2.10024">
        <ele>323</ele>
        <time>2011-03-26T13:53:07Z</time>
      </trkpt>
      <trkpt lat="44.01662" lon="2.1002">
        <ele>323</ele>
        <time>2011-03-26T13:53:08Z</time>
      </trkpt>
      <trkpt lat="44.01663" lon="2.10017">
        <ele>323</ele>
        <time>2011-03-26T13:53:09Z</time>
      </trkpt>
      <trkpt lat="44.01663" lon="2.10013">
        <ele>323</ele>
        <time>2011-03-26T13:53:10Z</time>
      </trkpt>
      <trkpt lat="44.01664" lon="2.10009">
        <ele>323</ele>
        <time>2011-03-26T13:53:11Z</time>
      </trkpt>
      <trkpt lat="44.01665" lon="2.10005">
        <ele>323</ele>
        <time>2011-03-26T13:53:12Z</time>
      </trkpt>
      <trkpt lat="44.01666" lon="2.10001">
        <ele>323</ele>
        <time>2011-03-26T13:53:13Z</time>
      </trkpt>
      <trkpt lat="44.01667" lon="2.09997">
        <ele>323</ele>
        <time>2011-03-26T13:53:14Z</time>
      </trkpt>
      <trkpt lat="44.01668" lon="2.09993">
        <ele>323</ele>
        <time>2011-03-26T13:53:15Z</time>
      </trkpt>
      <trkpt lat="44.01668" lon="2.09989">
        <ele>323</ele>
        <time>2011-03-26T13:53:16Z</time>
      </trkpt>
      <trkpt lat="44.01669" lon="2.09984">
        <ele>323</ele>
        <time>2011-03-26T13:53:17Z</time>
      </trkpt>
      <trkpt lat="44.0167" lon="2.0998">
        <ele>323</ele>
        <time>2011-03-26T13:53:18Z</time>
      </trkpt>
      <trkpt lat="44.01671" lon="2.09976">
        <ele>323</ele>
        <time>2011-03-26T13:53:19Z</time>
      </trkpt>
      <trkpt lat="44.01672" lon="2.09972">
        <ele>323</ele>
        <time>2011-03-26T13:53:20Z</time>
      </trkpt>
      <trkpt lat="44.01672" lon="2.09968">
        <ele>323</ele>
        <time>2011-03-26T13:53:21Z</time>
      </trkpt>
      <trkpt lat="44.01673" lon="2.09964">
        <ele>323</ele>
        <time>2011-03-26T13:53:22Z</time>
      </trkpt>
      <trkpt lat="44.01674" lon="2.0996">
        <ele>323</ele>
        <time>2011-03-26T13:53:23Z</time>
      </trkpt>
      <trkpt lat="44.01674" lon="2.09957">
        <ele>325</ele>
        <time>2011-03-26T13:53:24Z</time>
      </trkpt>
      <trkpt lat="44.01675" lon="2.09953">
        <ele>325</ele>
        <time>2011-03-26T13:53:25Z</time>
      </trkpt>
      <trkpt lat="44.01675" lon="2.09949">
        <ele>325</ele>
        <time>2011-03-26T13:53:26Z</time>
      </trkpt>
      <trkpt lat="44.01676" lon="2.09945">
        <ele>325</ele>
        <time>2011-03-26T13:53:27Z</time>
      </trkpt>
      <trkpt lat="44.01676" lon="2.09941">
        <ele>325</ele>
        <time>2011-03-26T13:53:28Z</time>
      </trkpt>
      <trkpt lat="44.01676" lon="2.09937">
        <ele>325</ele>
        <time>2011-03-26T13:53:29Z</time>
      </trkpt>
      <trkpt lat="44.01676" lon="2.09933">
        <ele>325</ele>
        <time>2011-03-26T13:53:30Z</time>
      </trkpt>
      <trkpt lat="44.01677" lon="2.09929">
        <ele>325</ele>
        <time>2011-03-26T13:53:31Z</time>
      </trkpt>
      <trkpt lat="44.01677" lon="2.09925">
        <ele>325</ele>
        <time>2011-03-26T13:53:32Z</time>
      </trkpt>
      <trkpt lat="44.01677" lon="2.0992">
        <ele>325</ele>
        <time>2011-03-26T13:53:33Z</time>
      </trkpt>
      <trkpt lat="44.01677" lon="2.09917">
        <ele>325</ele>
        <time>2011-03-26T13:53:34Z</time>
      </trkpt>
      <trkpt lat="44.01678" lon="2.09913">
        <ele>325</ele>
        <time>2011-03-26T13:53:35Z</time>
      </trkpt>
      <trkpt lat="44.01679" lon="2.09909">
        <ele>325</ele>
        <time>2011-03-26T13:53:36Z</time>
      </trkpt>
      <trkpt lat="44.01679" lon="2.09906">
        <ele>325</ele>
        <time>2011-03-26T13:53:37Z</time>
      </trkpt>
      <trkpt lat="44.0168" lon="2.09902">
        <ele>325</ele>
        <time>2011-03-26T13:53:38Z</time>
      </trkpt>
      <trkpt lat="44.01681" lon="2.09898">
        <ele>325</ele>
        <time>2011-03-26T13:53:39Z</time>
      </trkpt>
      <trkpt lat="44.01681" lon="2.09894">
        <ele>325</ele>
        <time>2011-03-26T13:53:40Z</time>
      </trkpt>
      <trkpt lat="44.01682" lon="2.0989">
        <ele>325</ele>
        <time>2011-03-26T13:53:41Z</time>
      </trkpt>
      <trkpt lat="44.01682" lon="2.09886">
        <ele>325</ele>
        <time>2011-03-26T13:53:42Z</time>
      </trkpt>
      <trkpt lat="44.01683" lon="2.09882">
        <ele>325</ele>
        <time>2011-03-26T13:53:43Z</time>
      </trkpt>
      <trkpt lat="44.01683" lon="2.09877">
        <ele>325</ele>
        <time>2011-03-26T13:53:44Z</time>
      </trkpt>
      <trkpt lat="44.01684" lon="2.09873">
        <ele>326</ele>
        <time>2011-03-26T13:53:45Z</time>
      </trkpt>
      <trkpt lat="44.01684" lon="2.09869">
        <ele>326</ele>
        <time>2011-03-26T13:53:46Z</time>
      </trkpt>
      <trkpt lat="44.01685" lon="2.09865">
        <ele>326</ele>
        <time>2011-03-26T13:53:47Z</time>
      </trkpt>
      <trkpt lat="44.01686" lon="2.09861">
        <ele>326</ele>
        <time>2011-03-26T13:53:48Z</time>
      </trkpt>
      <trkpt lat="44.01686" lon="2.09857">
        <ele>326</ele>
        <time>2011-03-26T13:53:49Z</time>
      </trkpt>
      <trkpt lat="44.01687" lon="2.09853">
        <ele>326</ele>
        <time>2011-03-26T13:53:50Z</time>
      </trkpt>
      <trkpt lat="44.01688" lon="2.0985">
        <ele>326</ele>
        <time>2011-03-26T13:53:51Z</time>
      </trkpt>
      <trkpt lat="44.01689" lon="2.09846">
        <ele>326</ele>
        <time>2011-03-26T13:53:52Z</time>
      </trkpt>
      <trkpt lat="44.0169" lon="2.09841">
        <ele>326</ele>
        <time>2011-03-26T13:53:53Z</time>
      </trkpt>
      <trkpt lat="44.0169" lon="2.09837">
        <ele>326</ele>
        <time>2011-03-26T13:53:54Z</time>
      </trkpt>
      <trkpt lat="44.01691" lon="2.09833">
        <ele>326</ele>
        <time>2011-03-26T13:53:55Z</time>
      </trkpt>
      <trkpt lat="44.01692" lon="2.09829">
        <ele>326</ele>
        <time>2011-03-26T13:53:56Z</time>
      </trkpt>
      <trkpt lat="44.01693" lon="2.09825">
        <ele>326</ele>
        <time>2011-03-26T13:53:57Z</time>
      </trkpt>
      <trkpt lat="44.01694" lon="2.09821">
        <ele>326</ele>
        <time>2011-03-26T13:53:58Z</time>
      </trkpt>
      <trkpt lat="44.01695" lon="2.09817">
        <ele>326</ele>
        <time>2011-03-26T13:53:59Z</time>
      </trkpt>
      <trkpt lat="44.01695" lon="2.09813">
        <ele>326</ele>
        <time>2011-03-26T13:54:00Z</time>
      </trkpt>
      <trkpt lat="44.01696" lon="2.09808">
        <ele>326</ele>
        <time>2011-03-26T13:54:01Z</time>
      </trkpt>
      <trkpt lat="44.01697" lon="2.09804">
        <ele>326</ele>
        <time>2011-03-26T13:54:02Z</time>
      </trkpt>
      <trkpt lat="44.01697" lon="2.098">
        <ele>326</ele>
        <time>2011-03-26T13:54:03Z</time>
      </trkpt>
      <trkpt lat="44.01698" lon="2.09795">
        <ele>326</ele>
        <time>2011-03-26T13:54:04Z</time>
      </trkpt>
      <trkpt lat="44.01699" lon="2.09791">
        <ele>328</ele>
        <time>2011-03-26T13:54:05Z</time>
      </trkpt>
      <trkpt lat="44.017" lon="2.09786">
        <ele>328</ele>
        <time>2011-03-26T13:54:06Z</time>
      </trkpt>
      <trkpt lat="44.017" lon="2.09782">
        <ele>328</ele>
        <time>2011-03-26T13:54:07Z</time>
      </trkpt>
      <trkpt lat="44.01701" lon="2.09778">
        <ele>328</ele>
        <time>2011-03-26T13:54:08Z</time>
      </trkpt>
      <trkpt lat="44.01702" lon="2.09773">
        <ele>328</ele>
        <time>2011-03-26T13:54:09Z</time>
      </trkpt>
      <trkpt lat="44.01702" lon="2.09769">
        <ele>328</ele>
        <time>2011-03-26T13:54:10Z</time>
      </trkpt>
      <trkpt lat="44.01703" lon="2.09764">
        <ele>328</ele>
        <time>2011-03-26T13:54:11Z</time>
      </trkpt>
      <trkpt lat="44.01703" lon="2.0976">
        <ele>328</ele>
        <time>2011-03-26T13:54:12Z</time>
      </trkpt>
      <trkpt lat="44.01704" lon="2.09755">
        <ele>328</ele>
        <time>2011-03-26T13:54:13Z</time>
      </trkpt>
      <trkpt lat="44.01704" lon="2.0975">
        <ele>328</ele>
        <time>2011-03-26T13:54:14Z</time>
      </trkpt>
      <trkpt lat="44.01705" lon="2.09746">
        <ele>328</ele>
        <time>2011-03-26T13:54:15Z</time>
      </trkpt>
      <trkpt lat="44.01705" lon="2.09741">
        <ele>328</ele>
        <time>2011-03-26T13:54:16Z</time>
      </trkpt>
      <trkpt lat="44.01705" lon="2.09737">
        <ele>328</ele>
        <time>2011-03-26T13:54:17Z</time>
      </trkpt>
      <trkpt lat="44.01706" lon="2.09732">
        <ele>328</ele>
        <time>2011-03-26T13:54:18Z</time>
      </trkpt>
      <trkpt lat="44.01706" lon="2.09727">
        <ele>328</ele>
        <time>2011-03-26T13:54:19Z</time>
      </trkpt>
      <trkpt lat="44.01707" lon="2.09722">
        <ele>328</ele>
        <time>2011-03-26T13:54:20Z</time>
      </trkpt>
      <trkpt lat="44.01707" lon="2.09717">
        <ele>328</ele>
        <time>2011-03-26T13:54:21Z</time>
      </trkpt>
      <trkpt lat="44.01708" lon="2.09713">
        <ele>328</ele>
        <time>2011-03-26T13:54:22Z</time>
      </trkpt>
      <trkpt lat="44.01709" lon="2.09709">
        <ele>327</ele>
        <time>2011-03-26T13:54:23Z</time>
      </trkpt>
      <trkpt lat="44.0171" lon="2.09704">
        <ele>330</ele>
        <time>2011-03-26T13:54:24Z</time>
      </trkpt>
      <trkpt lat="44.0171" lon="2.097">
        <ele>330</ele>
        <time>2011-03-26T13:54:25Z</time>
      </trkpt>
      <trkpt lat="44.01711" lon="2.09695">
        <ele>330</ele>
        <time>2011-03-26T13:54:26Z</time>
      </trkpt>
      <trkpt lat="44.01711" lon="2.09691">
        <ele>330</ele>
        <time>2011-03-26T13:54:27Z</time>
      </trkpt>
      <trkpt lat="44.01712" lon="2.09688">
        <ele>330</ele>
        <time>2011-03-26T13:54:28Z</time>
      </trkpt>
      <trkpt lat="44.01712" lon="2.09684">
        <ele>330</ele>
        <time>2011-03-26T13:54:29Z</time>
      </trkpt>
      <trkpt lat="44.01713" lon="2.0968">
        <ele>330</ele>
        <time>2011-03-26T13:54:30Z</time>
      </trkpt>
      <trkpt lat="44.01713" lon="2.09677">
        <ele>330</ele>
        <time>2011-03-26T13:54:31Z</time>
      </trkpt>
      <trkpt lat="44.01714" lon="2.09673">
        <ele>330</ele>
        <time>2011-03-26T13:54:32Z</time>
      </trkpt>
      <trkpt lat="44.01715" lon="2.09669">
        <ele>330</ele>
        <time>2011-03-26T13:54:33Z</time>
      </trkpt>
      <trkpt lat="44.01715" lon="2.09666">
        <ele>330</ele>
        <time>2011-03-26T13:54:34Z</time>
      </trkpt>
      <trkpt lat="44.01716" lon="2.09662">
        <ele>330</ele>
        <time>2011-03-26T13:54:35Z</time>
      </trkpt>
      <trkpt lat="44.01717" lon="2.09658">
        <ele>330</ele>
        <time>2011-03-26T13:54:36Z</time>
      </trkpt>
      <trkpt lat="44.01717" lon="2.09654">
        <ele>330</ele>
        <time>2011-03-26T13:54:37Z</time>
      </trkpt>
      <trkpt lat="44.01718" lon="2.09651">
        <ele>330</ele>
        <time>2011-03-26T13:54:38Z</time>
      </trkpt>
      <trkpt lat="44.01718" lon="2.09647">
        <ele>330</ele>
        <time>2011-03-26T13:54:39Z</time>
      </trkpt>
      <trkpt lat="44.01719" lon="2.09643">
        <ele>330</ele>
        <time>2011-03-26T13:54:40Z</time>
      </trkpt>
      <trkpt lat="44.0172" lon="2.0964">
        <ele>330</ele>
        <time>2011-03-26T13:54:41Z</time>
      </trkpt>
      <trkpt lat="44.01721" lon="2.09637">
        <ele>330</ele>
        <time>2011-03-26T13:54:42Z</time>
      </trkpt>
      <trkpt lat="44.01721" lon="2.09633">
        <ele>330</ele>
        <time>2011-03-26T13:54:43Z</time>
      </trkpt>
      <trkpt lat="44.01722" lon="2.09629">
        <ele>330</ele>
        <time>2011-03-26T13:54:44Z</time>
      </trkpt>
      <trkpt lat="44.01723" lon="2.09626">
        <ele>330</ele>
        <time>2011-03-26T13:54:45Z</time>
      </trkpt>
      <trkpt lat="44.01723" lon="2.09622">
        <ele>336</ele>
        <time>2011-03-26T13:54:46Z</time>
      </trkpt>
      <trkpt lat="44.01724" lon="2.09619">
        <ele>336</ele>
        <time>2011-03-26T13:54:47Z</time>
      </trkpt>
      <trkpt lat="44.01724" lon="2.09615">
        <ele>336</ele>
        <time>2011-03-26T13:54:48Z</time>
      </trkpt>
      <trkpt lat="44.01725" lon="2.09612">
        <ele>336</ele>
        <time>2011-03-26T13:54:49Z</time>
      </trkpt>
      <trkpt lat="44.01725" lon="2.09609">
        <ele>336</ele>
        <time>2011-03-26T13:54:50Z</time>
      </trkpt>
      <trkpt lat="44.01726" lon="2.09606">
        <ele>336</ele>
        <time>2011-03-26T13:54:51Z</time>
      </trkpt>
      <trkpt lat="44.01726" lon="2.09602">
        <ele>336</ele>
        <time>2011-03-26T13:54:52Z</time>
      </trkpt>
      <trkpt lat="44.01727" lon="2.09597">
        <ele>336</ele>
        <time>2011-03-26T13:54:54Z</time>
      </trkpt>
      <trkpt lat="44.01728" lon="2.09592">
        <ele>336</ele>
        <time>2011-03-26T13:54:56Z</time>
      </trkpt>
      <trkpt lat="44.0173" lon="2.09586">
        <ele>336</ele>
        <time>2011-03-26T13:54:58Z</time>
      </trkpt>
      <trkpt lat="44.01732" lon="2.09581">
        <ele>336</ele>
        <time>2011-03-26T13:55:00Z</time>
      </trkpt>
      <trkpt lat="44.01733" lon="2.09575">
        <ele>336</ele>
        <time>2011-03-26T13:55:02Z</time>
      </trkpt>
      <trkpt lat="44.01734" lon="2.0957">
        <ele>336</ele>
        <time>2011-03-26T13:55:04Z</time>
      </trkpt>
      <trkpt lat="44.01735" lon="2.09567">
        <ele>336</ele>
        <time>2011-03-26T13:55:05Z</time>
      </trkpt>
      <trkpt lat="44.01735" lon="2.09561">
        <ele>336</ele>
        <time>2011-03-26T13:55:07Z</time>
      </trkpt>
      <trkpt lat="44.01735" lon="2.09556">
        <ele>336</ele>
        <time>2011-03-26T13:55:09Z</time>
      </trkpt>
      <trkpt lat="44.01735" lon="2.09551">
        <ele>336</ele>
        <time>2011-03-26T13:55:11Z</time>
      </trkpt>
      <trkpt lat="44.01735" lon="2.09547">
        <ele>336</ele>
        <time>2011-03-26T13:55:13Z</time>
      </trkpt>
      <trkpt lat="44.01736" lon="2.09543">
        <ele>336</ele>
        <time>2011-03-26T13:55:15Z</time>
      </trkpt>
      <trkpt lat="44.01736" lon="2.09539">
        <ele>342</ele>
        <time>2011-03-26T13:55:17Z</time>
      </trkpt>
      <trkpt lat="44.01736" lon="2.09535">
        <ele>342</ele>
        <time>2011-03-26T13:55:19Z</time>
      </trkpt>
      <trkpt lat="44.01737" lon="2.0953">
        <ele>342</ele>
        <time>2011-03-26T13:55:21Z</time>
      </trkpt>
      <trkpt lat="44.01738" lon="2.09528">
        <ele>342</ele>
        <time>2011-03-26T13:55:22Z</time>
      </trkpt>
      <trkpt lat="44.01738" lon="2.09523">
        <ele>342</ele>
        <time>2011-03-26T13:55:24Z</time>
      </trkpt>
      <trkpt lat="44.01738" lon="2.09519">
        <ele>342</ele>
        <time>2011-03-26T13:55:26Z</time>
      </trkpt>
      <trkpt lat="44.01738" lon="2.09517">
        <ele>342</ele>
        <time>2011-03-26T13:55:27Z</time>
      </trkpt>
      <trkpt lat="44.01739" lon="2.09512">
        <ele>342</ele>
        <time>2011-03-26T13:55:29Z</time>
      </trkpt>
      <trkpt lat="44.0174" lon="2.0951">
        <ele>342</ele>
        <time>2011-03-26T13:55:30Z</time>
      </trkpt>
      <trkpt lat="44.0174" lon="2.09505">
        <ele>342</ele>
        <time>2011-03-26T13:55:32Z</time>
      </trkpt>
      <trkpt lat="44.01741" lon="2.095">
        <ele>342</ele>
        <time>2011-03-26T13:55:34Z</time>
      </trkpt>
      <trkpt lat="44.0174" lon="2.09494">
        <ele>342</ele>
        <time>2011-03-26T13:55:36Z</time>
      </trkpt>
      <trkpt lat="44.01737" lon="2.09491">
        <ele>342</ele>
        <time>2011-03-26T13:55:38Z</time>
      </trkpt>
      <trkpt lat="44.01734" lon="2.0949">
        <ele>342</ele>
        <time>2011-03-26T13:55:40Z</time>
      </trkpt>
      <trkpt lat="44.01729" lon="2.09491">
        <ele>342</ele>
        <time>2011-03-26T13:55:42Z</time>
      </trkpt>
      <trkpt lat="44.01727" lon="2.09493">
        <ele>342</ele>
        <time>2011-03-26T13:55:43Z</time>
      </trkpt>
      <trkpt lat="44.01724" lon="2.09495">
        <ele>342</ele>
        <time>2011-03-26T13:55:44Z</time>
      </trkpt>
      <trkpt lat="44.01722" lon="2.09497">
        <ele>342</ele>
        <time>2011-03-26T13:55:45Z</time>
      </trkpt>
      <trkpt lat="44.01719" lon="2.09499">
        <ele>342</ele>
        <time>2011-03-26T13:55:46Z</time>
      </trkpt>
      <trkpt lat="44.01716" lon="2.09502">
        <ele>342</ele>
        <time>2011-03-26T13:55:47Z</time>
      </trkpt>
      <trkpt lat="44.01713" lon="2.09504">
        <ele>342</ele>
        <time>2011-03-26T13:55:48Z</time>
      </trkpt>
      <trkpt lat="44.0171" lon="2.09506">
        <ele>342</ele>
        <time>2011-03-26T13:55:49Z</time>
      </trkpt>
      <trkpt lat="44.01706" lon="2.09508">
        <ele>340</ele>
        <time>2011-03-26T13:55:50Z</time>
      </trkpt>
      <trkpt lat="44.01703" lon="2.09511">
        <ele>340</ele>
        <time>2011-03-26T13:55:51Z</time>
      </trkpt>
      <trkpt lat="44.017" lon="2.09515">
        <ele>340</ele>
        <time>2011-03-26T13:55:52Z</time>
      </trkpt>
      <trkpt lat="44.01697" lon="2.09518">
        <ele>340</ele>
        <time>2011-03-26T13:55:53Z</time>
      </trkpt>
      <trkpt lat="44.01694" lon="2.09522">
        <ele>340</ele>
        <time>2011-03-26T13:55:54Z</time>
      </trkpt>
      <trkpt lat="44.01691" lon="2.09525">
        <ele>340</ele>
        <time>2011-03-26T13:55:55Z</time>
      </trkpt>
      <trkpt lat="44.01687" lon="2.09528">
        <ele>340</ele>
        <time>2011-03-26T13:55:56Z</time>
      </trkpt>
      <trkpt lat="44.01684" lon="2.09532">
        <ele>340</ele>
        <time>2011-03-26T13:55:57Z</time>
      </trkpt>
      <trkpt lat="44.0168" lon="2.09535">
        <ele>340</ele>
        <time>2011-03-26T13:55:58Z</time>
      </trkpt>
      <trkpt lat="44.01676" lon="2.09538">
        <ele>340</ele>
        <time>2011-03-26T13:55:59Z</time>
      </trkpt>
      <trkpt lat="44.01672" lon="2.09542">
        <ele>341</ele>
        <time>2011-03-26T13:56:00Z</time>
      </trkpt>
      <trkpt lat="44.01668" lon="2.09546">
        <ele>341</ele>
        <time>2011-03-26T13:56:01Z</time>
      </trkpt>
      <trkpt lat="44.01664" lon="2.09549">
        <ele>341</ele>
        <time>2011-03-26T13:56:02Z</time>
      </trkpt>
      <trkpt lat="44.0166" lon="2.09553">
        <ele>341</ele>
        <time>2011-03-26T13:56:03Z</time>
      </trkpt>
      <trkpt lat="44.01656" lon="2.09557">
        <ele>341</ele>
        <time>2011-03-26T13:56:04Z</time>
      </trkpt>
      <trkpt lat="44.01652" lon="2.09561">
        <ele>341</ele>
        <time>2011-03-26T13:56:05Z</time>
      </trkpt>
      <trkpt lat="44.01648" lon="2.09565">
        <ele>341</ele>
        <time>2011-03-26T13:56:06Z</time>
      </trkpt>
      <trkpt lat="44.01643" lon="2.09569">
        <ele>341</ele>
        <time>2011-03-26T13:56:07Z</time>
      </trkpt>
      <trkpt lat="44.01639" lon="2.09574">
        <ele>341</ele>
        <time>2011-03-26T13:56:08Z</time>
      </trkpt>
      <trkpt lat="44.01634" lon="2.09578">
        <ele>341</ele>
        <time>2011-03-26T13:56:09Z</time>
      </trkpt>
      <trkpt lat="44.0163" lon="2.09583">
        <ele>341</ele>
        <time>2011-03-26T13:56:10Z</time>
      </trkpt>
      <trkpt lat="44.01626" lon="2.09587">
        <ele>341</ele>
        <time>2011-03-26T13:56:11Z</time>
      </trkpt>
      <trkpt lat="44.01622" lon="2.09592">
        <ele>338</ele>
        <time>2011-03-26T13:56:12Z</time>
      </trkpt>
      <trkpt lat="44.01617" lon="2.09596">
        <ele>338</ele>
        <time>2011-03-26T13:56:13Z</time>
      </trkpt>
      <trkpt lat="44.01613" lon="2.096">
        <ele>338</ele>
        <time>2011-03-26T13:56:14Z</time>
      </trkpt>
      <trkpt lat="44.01609" lon="2.09604">
        <ele>338</ele>
        <time>2011-03-26T13:56:15Z</time>
      </trkpt>
      <trkpt lat="44.01605" lon="2.09608">
        <ele>338</ele>
        <time>2011-03-26T13:56:16Z</time>
      </trkpt>
      <trkpt lat="44.01601" lon="2.09612">
        <ele>338</ele>
        <time>2011-03-26T13:56:17Z</time>
      </trkpt>
      <trkpt lat="44.01597" lon="2.09616">
        <ele>338</ele>
        <time>2011-03-26T13:56:18Z</time>
      </trkpt>
      <trkpt lat="44.01593" lon="2.0962">
        <ele>338</ele>
        <time>2011-03-26T13:56:19Z</time>
      </trkpt>
      <trkpt lat="44.01588" lon="2.09624">
        <ele>338</ele>
        <time>2011-03-26T13:56:20Z</time>
      </trkpt>
      <trkpt lat="44.01584" lon="2.09628">
        <ele>337</ele>
        <time>2011-03-26T13:56:21Z</time>
      </trkpt>
      <trkpt lat="44.01579" lon="2.09631">
        <ele>337</ele>
        <time>2011-03-26T13:56:22Z</time>
      </trkpt>
      <trkpt lat="44.01574" lon="2.09634">
        <ele>337</ele>
        <time>2011-03-26T13:56:23Z</time>
      </trkpt>
      <trkpt lat="44.01569" lon="2.09637">
        <ele>337</ele>
        <time>2011-03-26T13:56:24Z</time>
      </trkpt>
      <trkpt lat="44.01565" lon="2.0964">
        <ele>337</ele>
        <time>2011-03-26T13:56:25Z</time>
      </trkpt>
      <trkpt lat="44.0156" lon="2.09644">
        <ele>337</ele>
        <time>2011-03-26T13:56:26Z</time>
      </trkpt>
      <trkpt lat="44.01555" lon="2.09647">
        <ele>337</ele>
        <time>2011-03-26T13:56:27Z</time>
      </trkpt>
      <trkpt lat="44.01551" lon="2.0965">
        <ele>337</ele>
        <time>2011-03-26T13:56:28Z</time>
      </trkpt>
      <trkpt lat="44.01546" lon="2.09654">
        <ele>337</ele>
        <time>2011-03-26T13:56:29Z</time>
      </trkpt>
      <trkpt lat="44.01541" lon="2.09657">
        <ele>336</ele>
        <time>2011-03-26T13:56:30Z</time>
      </trkpt>
      <trkpt lat="44.01537" lon="2.09661">
        <ele>336</ele>
        <time>2011-03-26T13:56:31Z</time>
      </trkpt>
      <trkpt lat="44.01532" lon="2.09666">
        <ele>336</ele>
        <time>2011-03-26T13:56:32Z</time>
      </trkpt>
      <trkpt lat="44.01527" lon="2.09671">
        <ele>336</ele>
        <time>2011-03-26T13:56:33Z</time>
      </trkpt>
      <trkpt lat="44.01523" lon="2.09676">
        <ele>336</ele>
        <time>2011-03-26T13:56:34Z</time>
      </trkpt>
      <trkpt lat="44.01519" lon="2.09681">
        <ele>336</ele>
        <time>2011-03-26T13:56:35Z</time>
      </trkpt>
      <trkpt lat="44.01514" lon="2.09687">
        <ele>336</ele>
        <time>2011-03-26T13:56:36Z</time>
      </trkpt>
      <trkpt lat="44.0151" lon="2.09692">
        <ele>336</ele>
        <time>2011-03-26T13:56:37Z</time>
      </trkpt>
      <trkpt lat="44.01506" lon="2.09698">
        <ele>336</ele>
        <time>2011-03-26T13:56:38Z</time>
      </trkpt>
      <trkpt lat="44.01502" lon="2.09703">
        <ele>336</ele>
        <time>2011-03-26T13:56:39Z</time>
      </trkpt>
      <trkpt lat="44.01497" lon="2.09708">
        <ele>332</ele>
        <time>2011-03-26T13:56:40Z</time>
      </trkpt>
      <trkpt lat="44.01493" lon="2.09714">
        <ele>332</ele>
        <time>2011-03-26T13:56:41Z</time>
      </trkpt>
      <trkpt lat="44.01488" lon="2.09719">
        <ele>332</ele>
        <time>2011-03-26T13:56:42Z</time>
      </trkpt>
      <trkpt lat="44.01483" lon="2.09723">
        <ele>332</ele>
        <time>2011-03-26T13:56:43Z</time>
      </trkpt>
      <trkpt lat="44.01479" lon="2.09728">
        <ele>332</ele>
        <time>2011-03-26T13:56:44Z</time>
      </trkpt>
      <trkpt lat="44.01475" lon="2.09732">
        <ele>332</ele>
        <time>2011-03-26T13:56:45Z</time>
      </trkpt>
      <trkpt lat="44.0147" lon="2.09735">
        <ele>332</ele>
        <time>2011-03-26T13:56:46Z</time>
      </trkpt>
      <trkpt lat="44.01466" lon="2.09738">
        <ele>332</ele>
        <time>2011-03-26T13:56:47Z</time>
      </trkpt>
      <trkpt lat="44.01462" lon="2.0974">
        <ele>332</ele>
        <time>2011-03-26T13:56:48Z</time>
      </trkpt>
      <trkpt lat="44.01458" lon="2.09741">
        <ele>334</ele>
        <time>2011-03-26T13:56:49Z</time>
      </trkpt>
      <trkpt lat="44.01453" lon="2.09742">
        <ele>334</ele>
        <time>2011-03-26T13:56:50Z</time>
      </trkpt>
      <trkpt lat="44.01449" lon="2.09742">
        <ele>334</ele>
        <time>2011-03-26T13:56:51Z</time>
      </trkpt>
      <trkpt lat="44.01445" lon="2.09743">
        <ele>334</ele>
        <time>2011-03-26T13:56:52Z</time>
      </trkpt>
      <trkpt lat="44.0144" lon="2.09744">
        <ele>334</ele>
        <time>2011-03-26T13:56:53Z</time>
      </trkpt>
      <trkpt lat="44.01435" lon="2.09745">
        <ele>334</ele>
        <time>2011-03-26T13:56:54Z</time>
      </trkpt>
      <trkpt lat="44.0143" lon="2.09745">
        <ele>334</ele>
        <time>2011-03-26T13:56:55Z</time>
      </trkpt>
      <trkpt lat="44.01424" lon="2.09746">
        <ele>334</ele>
        <time>2011-03-26T13:56:56Z</time>
      </trkpt>
      <trkpt lat="44.01417" lon="2.09747">
        <ele>334</ele>
        <time>2011-03-26T13:56:57Z</time>
      </trkpt>
      <trkpt lat="44.01411" lon="2.09748">
        <ele>334</ele>
        <time>2011-03-26T13:56:58Z</time>
      </trkpt>
      <trkpt lat="44.01404" lon="2.09749">
        <ele>334</ele>
        <time>2011-03-26T13:56:59Z</time>
      </trkpt>
      <trkpt lat="44.01398" lon="2.0975">
        <ele>334</ele>
        <time>2011-03-26T13:57:00Z</time>
      </trkpt>
      <trkpt lat="44.01391" lon="2.09751">
        <ele>334</ele>
        <time>2011-03-26T13:57:01Z</time>
      </trkpt>
      <trkpt lat="44.01383" lon="2.09751">
        <ele>334</ele>
        <time>2011-03-26T13:57:02Z</time>
      </trkpt>
      <trkpt lat="44.01376" lon="2.09752">
        <ele>334</ele>
        <time>2011-03-26T13:57:03Z</time>
      </trkpt>
      <trkpt lat="44.01368" lon="2.09752">
        <ele>331</ele>
        <time>2011-03-26T13:57:04Z</time>
      </trkpt>
      <trkpt lat="44.0136" lon="2.09753">
        <ele>331</ele>
        <time>2011-03-26T13:57:05Z</time>
      </trkpt>
      <trkpt lat="44.01352" lon="2.09755">
        <ele>331</ele>
        <time>2011-03-26T13:57:06Z</time>
      </trkpt>
      <trkpt lat="44.01344" lon="2.09758">
        <ele>331</ele>
        <time>2011-03-26T13:57:07Z</time>
      </trkpt>
      <trkpt lat="44.01336" lon="2.09761">
        <ele>331</ele>
        <time>2011-03-26T13:57:08Z</time>
      </trkpt>
      <trkpt lat="44.01329" lon="2.09764">
        <ele>331</ele>
        <time>2011-03-26T13:57:09Z</time>
      </trkpt>
      <trkpt lat="44.01322" lon="2.09768">
        <ele>331</ele>
        <time>2011-03-26T13:57:10Z</time>
      </trkpt>
      <trkpt lat="44.01315" lon="2.09772">
        <ele>331</ele>
        <time>2011-03-26T13:57:11Z</time>
      </trkpt>
      <trkpt lat="44.01308" lon="2.09777">
        <ele>331</ele>
        <time>2011-03-26T13:57:12Z</time>
      </trkpt>
      <trkpt lat="44.01301" lon="2.09781">
        <ele>331</ele>
        <time>2011-03-26T13:57:13Z</time>
      </trkpt>
      <trkpt lat="44.01294" lon="2.09784">
        <ele>331</ele>
        <time>2011-03-26T13:57:14Z</time>
      </trkpt>
      <trkpt lat="44.01286" lon="2.09787">
        <ele>327</ele>
        <time>2011-03-26T13:57:15Z</time>
      </trkpt>
      <trkpt lat="44.01279" lon="2.0979">
        <ele>327</ele>
        <time>2011-03-26T13:57:16Z</time>
      </trkpt>
      <trkpt lat="44.01271" lon="2.09793">
        <ele>327</ele>
        <time>2011-03-26T13:57:17Z</time>
      </trkpt>
      <trkpt lat="44.01264" lon="2.09795">
        <ele>327</ele>
        <time>2011-03-26T13:57:18Z</time>
      </trkpt>
      <trkpt lat="44.01257" lon="2.09797">
        <ele>327</ele>
        <time>2011-03-26T13:57:19Z</time>
      </trkpt>
      <trkpt lat="44.0125" lon="2.098">
        <ele>327</ele>
        <time>2011-03-26T13:57:20Z</time>
      </trkpt>
      <trkpt lat="44.01242" lon="2.09803">
        <ele>327</ele>
        <time>2011-03-26T13:57:21Z</time>
      </trkpt>
      <trkpt lat="44.01234" lon="2.09805">
        <ele>327</ele>
        <time>2011-03-26T13:57:22Z</time>
      </trkpt>
      <trkpt lat="44.01227" lon="2.09808">
        <ele>327</ele>
        <time>2011-03-26T13:57:23Z</time>
      </trkpt>
      <trkpt lat="44.01219" lon="2.0981">
        <ele>327</ele>
        <time>2011-03-26T13:57:24Z</time>
      </trkpt>
      <trkpt lat="44.01212" lon="2.09812">
        <ele>327</ele>
        <time>2011-03-26T13:57:25Z</time>
      </trkpt>
      <trkpt lat="44.01205" lon="2.09815">
        <ele>324</ele>
        <time>2011-03-26T13:57:26Z</time>
      </trkpt>
      <trkpt lat="44.01197" lon="2.09818">
        <ele>324</ele>
        <time>2011-03-26T13:57:27Z</time>
      </trkpt>
      <trkpt lat="44.0119" lon="2.09821">
        <ele>324</ele>
        <time>2011-03-26T13:57:28Z</time>
      </trkpt>
      <trkpt lat="44.01183" lon="2.09823">
        <ele>324</ele>
        <time>2011-03-26T13:57:29Z</time>
      </trkpt>
      <trkpt lat="44.01176" lon="2.09826">
        <ele>324</ele>
        <time>2011-03-26T13:57:30Z</time>
      </trkpt>
      <trkpt lat="44.01169" lon="2.09828">
        <ele>324</ele>
        <time>2011-03-26T13:57:31Z</time>
      </trkpt>
      <trkpt lat="44.01162" lon="2.09831">
        <ele>324</ele>
        <time>2011-03-26T13:57:32Z</time>
      </trkpt>
      <trkpt lat="44.01155" lon="2.09834">
        <ele>324</ele>
        <time>2011-03-26T13:57:33Z</time>
      </trkpt>
      <trkpt lat="44.01148" lon="2.09837">
        <ele>324</ele>
        <time>2011-03-26T13:57:34Z</time>
      </trkpt>
      <trkpt lat="44.01141" lon="2.0984">
        <ele>324</ele>
        <time>2011-03-26T13:57:35Z</time>
      </trkpt>
      <trkpt lat="44.01134" lon="2.09843">
        <ele>324</ele>
        <time>2011-03-26T13:57:36Z</time>
      </trkpt>
      <trkpt lat="44.01127" lon="2.09846">
        <ele>324</ele>
        <time>2011-03-26T13:57:37Z</time>
      </trkpt>
      <trkpt lat="44.0112" lon="2.0985">
        <ele>322</ele>
        <time>2011-03-26T13:57:38Z</time>
      </trkpt>
      <trkpt lat="44.01113" lon="2.09854">
        <ele>322</ele>
        <time>2011-03-26T13:57:39Z</time>
      </trkpt>
      <trkpt lat="44.01107" lon="2.09858">
        <ele>322</ele>
        <time>2011-03-26T13:57:40Z</time>
      </trkpt>
      <trkpt lat="44.011" lon="2.09862">
        <ele>322</ele>
        <time>2011-03-26T13:57:41Z</time>
      </trkpt>
      <trkpt lat="44.01093" lon="2.09866">
        <ele>322</ele>
        <time>2011-03-26T13:57:42Z</time>
      </trkpt>
      <trkpt lat="44.01086" lon="2.09871">
        <ele>322</ele>
        <time>2011-03-26T13:57:43Z</time>
      </trkpt>
      <trkpt lat="44.01079" lon="2.09874">
        <ele>322</ele>
        <time>2011-03-26T13:57:44Z</time>
      </trkpt>
      <trkpt lat="44.01072" lon="2.09878">
        <ele>320</ele>
        <time>2011-03-26T13:57:45Z</time>
      </trkpt>
      <trkpt lat="44.01065" lon="2.09883">
        <ele>320</ele>
        <time>2011-03-26T13:57:46Z</time>
      </trkpt>
      <trkpt lat="44.01058" lon="2.09888">
        <ele>320</ele>
        <time>2011-03-26T13:57:47Z</time>
      </trkpt>
      <trkpt lat="44.01051" lon="2.09894">
        <ele>320</ele>
        <time>2011-03-26T13:57:48Z</time>
      </trkpt>
      <trkpt lat="44.01045" lon="2.099">
        <ele>320</ele>
        <time>2011-03-26T13:57:49Z</time>
      </trkpt>
      <trkpt lat="44.01038" lon="2.09907">
        <ele>320</ele>
        <time>2011-03-26T13:57:50Z</time>
      </trkpt>
      <trkpt lat="44.01032" lon="2.09914">
        <ele>320</ele>
        <time>2011-03-26T13:57:51Z</time>
      </trkpt>
      <trkpt lat="44.01025" lon="2.0992">
        <ele>320</ele>
        <time>2011-03-26T13:57:52Z</time>
      </trkpt>
      <trkpt lat="44.01019" lon="2.09927">
        <ele>320</ele>
        <time>2011-03-26T13:57:53Z</time>
      </trkpt>
      <trkpt lat="44.01012" lon="2.09933">
        <ele>320</ele>
        <time>2011-03-26T13:57:54Z</time>
      </trkpt>
      <trkpt lat="44.01005" lon="2.09939">
        <ele>320</ele>
        <time>2011-03-26T13:57:55Z</time>
      </trkpt>
      <trkpt lat="44.00998" lon="2.09944">
        <ele>320</ele>
        <time>2011-03-26T13:57:56Z</time>
      </trkpt>
      <trkpt lat="44.00991" lon="2.09949">
        <ele>320</ele>
        <time>2011-03-26T13:57:57Z</time>
      </trkpt>
      <trkpt lat="44.00983" lon="2.09954">
        <ele>320</ele>
        <time>2011-03-26T13:57:58Z</time>
      </trkpt>
      <trkpt lat="44.00976" lon="2.09959">
        <ele>317</ele>
        <time>2011-03-26T13:57:59Z</time>
      </trkpt>
      <trkpt lat="44.00969" lon="2.09965">
        <ele>317</ele>
        <time>2011-03-26T13:58:00Z</time>
      </trkpt>
      <trkpt lat="44.00961" lon="2.09971">
        <ele>317</ele>
        <time>2011-03-26T13:58:01Z</time>
      </trkpt>
      <trkpt lat="44.00954" lon="2.09977">
        <ele>316</ele>
        <time>2011-03-26T13:58:02Z</time>
      </trkpt>
      <trkpt lat="44.00948" lon="2.09985">
        <ele>316</ele>
        <time>2011-03-26T13:58:03Z</time>
      </trkpt>
      <trkpt lat="44.00942" lon="2.09994">
        <ele>316</ele>
        <time>2011-03-26T13:58:04Z</time>
      </trkpt>
      <trkpt lat="44.00936" lon="2.10003">
        <ele>316</ele>
        <time>2011-03-26T13:58:05Z</time>
      </trkpt>
      <trkpt lat="44.0093" lon="2.10011">
        <ele>316</ele>
        <time>2011-03-26T13:58:06Z</time>
      </trkpt>
      <trkpt lat="44.00924" lon="2.10019">
        <ele>316</ele>
        <time>2011-03-26T13:58:07Z</time>
      </trkpt>
      <trkpt lat="44.00918" lon="2.10027">
        <ele>316</ele>
        <time>2011-03-26T13:58:08Z</time>
      </trkpt>
      <trkpt lat="44.00912" lon="2.10035">
        <ele>316</ele>
        <time>2011-03-26T13:58:09Z</time>
      </trkpt>
      <trkpt lat="44.00906" lon="2.10043">
        <ele>314</ele>
        <time>2011-03-26T13:58:10Z</time>
      </trkpt>
      <trkpt lat="44.009" lon="2.1005">
        <ele>314</ele>
        <time>2011-03-26T13:58:11Z</time>
      </trkpt>
      <trkpt lat="44.00894" lon="2.10058">
        <ele>314</ele>
        <time>2011-03-26T13:58:12Z</time>
      </trkpt>
      <trkpt lat="44.00889" lon="2.10065">
        <ele>314</ele>
        <time>2011-03-26T13:58:13Z</time>
      </trkpt>
      <trkpt lat="44.00883" lon="2.10072">
        <ele>314</ele>
        <time>2011-03-26T13:58:14Z</time>
      </trkpt>
      <trkpt lat="44.00877" lon="2.10078">
        <ele>314</ele>
        <time>2011-03-26T13:58:15Z</time>
      </trkpt>
      <trkpt lat="44.00871" lon="2.10085">
        <ele>311</ele>
        <time>2011-03-26T13:58:16Z</time>
      </trkpt>
      <trkpt lat="44.00865" lon="2.10093">
        <ele>311</ele>
        <time>2011-03-26T13:58:17Z</time>
      </trkpt>
      <trkpt lat="44.00858" lon="2.10102">
        <ele>311</ele>
        <time>2011-03-26T13:58:18Z</time>
      </trkpt>
      <trkpt lat="44.00851" lon="2.10111">
        <ele>311</ele>
        <time>2011-03-26T13:58:19Z</time>
      </trkpt>
      <trkpt lat="44.00844" lon="2.10122">
        <ele>311</ele>
        <time>2011-03-26T13:58:20Z</time>
      </trkpt>
      <trkpt lat="44.00837" lon="2.10133">
        <ele>308</ele>
        <time>2011-03-26T13:58:21Z</time>
      </trkpt>
      <trkpt lat="44.0083" lon="2.10144">
        <ele>308</ele>
        <time>2011-03-26T13:58:22Z</time>
      </trkpt>
      <trkpt lat="44.00822" lon="2.10155">
        <ele>308</ele>
        <time>2011-03-26T13:58:23Z</time>
      </trkpt>
      <trkpt lat="44.00814" lon="2.10166">
        <ele>308</ele>
        <time>2011-03-26T13:58:24Z</time>
      </trkpt>
      <trkpt lat="44.00806" lon="2.10176">
        <ele>308</ele>
        <time>2011-03-26T13:58:25Z</time>
      </trkpt>
      <trkpt lat="44.00799" lon="2.10185">
        <ele>308</ele>
        <time>2011-03-26T13:58:26Z</time>
      </trkpt>
      <trkpt lat="44.00791" lon="2.10193">
        <ele>303</ele>
        <time>2011-03-26T13:58:27Z</time>
      </trkpt>
      <trkpt lat="44.00785" lon="2.102">
        <ele>303</ele>
        <time>2011-03-26T13:58:28Z</time>
      </trkpt>
      <trkpt lat="44.0078" lon="2.10205">
        <ele>303</ele>
        <time>2011-03-26T13:58:29Z</time>
      </trkpt>
      <trkpt lat="44.00776" lon="2.10208">
        <ele>303</ele>
        <time>2011-03-26T13:58:30Z</time>
      </trkpt>
      <trkpt lat="44.00772" lon="2.10209">
        <ele>303</ele>
        <time>2011-03-26T13:58:31Z</time>
      </trkpt>
      <trkpt lat="44.00769" lon="2.10209">
        <ele>303</ele>
        <time>2011-03-26T13:58:32Z</time>
      </trkpt>
      <trkpt lat="44.00766" lon="2.10207">
        <ele>303</ele>
        <time>2011-03-26T13:58:33Z</time>
      </trkpt>
      <trkpt lat="44.00764" lon="2.10203">
        <ele>303</ele>
        <time>2011-03-26T13:58:34Z</time>
      </trkpt>
      <trkpt lat="44.00763" lon="2.10199">
        <ele>303</ele>
        <time>2011-03-26T13:58:35Z</time>
      </trkpt>
      <trkpt lat="44.00761" lon="2.10195">
        <ele>303</ele>
        <time>2011-03-26T13:58:36Z</time>
      </trkpt>
      <trkpt lat="44.0076" lon="2.10191">
        <ele>303</ele>
        <time>2011-03-26T13:58:37Z</time>
      </trkpt>
      <trkpt lat="44.00758" lon="2.10186">
        <ele>303</ele>
        <time>2011-03-26T13:58:38Z</time>
      </trkpt>
      <trkpt lat="44.00757" lon="2.10181">
        <ele>303</ele>
        <time>2011-03-26T13:58:39Z</time>
      </trkpt>
      <trkpt lat="44.00756" lon="2.10176">
        <ele>303</ele>
        <time>2011-03-26T13:58:40Z</time>
      </trkpt>
      <trkpt lat="44.00755" lon="2.10171">
        <ele>303</ele>
        <time>2011-03-26T13:58:41Z</time>
      </trkpt>
      <trkpt lat="44.00754" lon="2.10165">
        <ele>303</ele>
        <time>2011-03-26T13:58:42Z</time>
      </trkpt>
      <trkpt lat="44.00753" lon="2.1016">
        <ele>303</ele>
        <time>2011-03-26T13:58:43Z</time>
      </trkpt>
      <trkpt lat="44.00752" lon="2.10154">
        <ele>303</ele>
        <time>2011-03-26T13:58:44Z</time>
      </trkpt>
      <trkpt lat="44.00751" lon="2.10149">
        <ele>303</ele>
        <time>2011-03-26T13:58:45Z</time>
      </trkpt>
      <trkpt lat="44.0075" lon="2.10144">
        <ele>303</ele>
        <time>2011-03-26T13:58:46Z</time>
      </trkpt>
      <trkpt lat="44.00749" lon="2.10139">
        <ele>303</ele>
        <time>2011-03-26T13:58:47Z</time>
      </trkpt>
      <trkpt lat="44.00748" lon="2.10133">
        <ele>303</ele>
        <time>2011-03-26T13:58:48Z</time>
      </trkpt>
      <trkpt lat="44.00747" lon="2.10127">
        <ele>303</ele>
        <time>2011-03-26T13:58:49Z</time>
      </trkpt>
      <trkpt lat="44.00746" lon="2.10121">
        <ele>300</ele>
        <time>2011-03-26T13:58:50Z</time>
      </trkpt>
      <trkpt lat="44.00744" lon="2.10114">
        <ele>300</ele>
        <time>2011-03-26T13:58:51Z</time>
      </trkpt>
      <trkpt lat="44.00742" lon="2.10106">
        <ele>300</ele>
        <time>2011-03-26T13:58:52Z</time>
      </trkpt>
      <trkpt lat="44.00739" lon="2.10098">
        <ele>300</ele>
        <time>2011-03-26T13:58:53Z</time>
      </trkpt>
      <trkpt lat="44.00736" lon="2.1009">
        <ele>300</ele>
        <time>2011-03-26T13:58:54Z</time>
      </trkpt>
      <trkpt lat="44.00733" lon="2.1008">
        <ele>300</ele>
        <time>2011-03-26T13:58:55Z</time>
      </trkpt>
      <trkpt lat="44.00729" lon="2.1007">
        <ele>300</ele>
        <time>2011-03-26T13:58:56Z</time>
      </trkpt>
      <trkpt lat="44.00726" lon="2.10059">
        <ele>300</ele>
        <time>2011-03-26T13:58:57Z</time>
      </trkpt>
      <trkpt lat="44.00723" lon="2.10046">
        <ele>300</ele>
        <time>2011-03-26T13:58:58Z</time>
      </trkpt>
      <trkpt lat="44.0072" lon="2.10032">
        <ele>298</ele>
        <time>2011-03-26T13:58:59Z</time>
      </trkpt>
      <trkpt lat="44.00716" lon="2.10018">
        <ele>298</ele>
        <time>2011-03-26T13:59:00Z</time>
      </trkpt>
      <trkpt lat="44.00712" lon="2.10005">
        <ele>298</ele>
        <time>2011-03-26T13:59:01Z</time>
      </trkpt>
      <trkpt lat="44.00708" lon="2.09994">
        <ele>296</ele>
        <time>2011-03-26T13:59:02Z</time>
      </trkpt>
      <trkpt lat="44.00704" lon="2.09984">
        <ele>296</ele>
        <time>2011-03-26T13:59:03Z</time>
      </trkpt>
      <trkpt lat="44.00701" lon="2.09977">
        <ele>296</ele>
        <time>2011-03-26T13:59:04Z</time>
      </trkpt>
      <trkpt lat="44.00698" lon="2.09971">
        <ele>296</ele>
        <time>2011-03-26T13:59:05Z</time>
      </trkpt>
      <trkpt lat="44.00696" lon="2.09966">
        <ele>296</ele>
        <time>2011-03-26T13:59:06Z</time>
      </trkpt>
      <trkpt lat="44.00694" lon="2.0996">
        <ele>296</ele>
        <time>2011-03-26T13:59:07Z</time>
      </trkpt>
      <trkpt lat="44.00694" lon="2.09954">
        <ele>297</ele>
        <time>2011-03-26T13:59:08Z</time>
      </trkpt>
      <trkpt lat="44.00694" lon="2.09948">
        <ele>297</ele>
        <time>2011-03-26T13:59:09Z</time>
      </trkpt>
      <trkpt lat="44.00694" lon="2.09941">
        <ele>297</ele>
        <time>2011-03-26T13:59:10Z</time>
      </trkpt>
      <trkpt lat="44.00694" lon="2.09935">
        <ele>297</ele>
        <time>2011-03-26T13:59:11Z</time>
      </trkpt>
      <trkpt lat="44.00694" lon="2.09928">
        <ele>297</ele>
        <time>2011-03-26T13:59:12Z</time>
      </trkpt>
      <trkpt lat="44.00694" lon="2.09922">
        <ele>297</ele>
        <time>2011-03-26T13:59:13Z</time>
      </trkpt>
      <trkpt lat="44.00692" lon="2.09916">
        <ele>297</ele>
        <time>2011-03-26T13:59:14Z</time>
      </trkpt>
      <trkpt lat="44.00691" lon="2.09909">
        <ele>297</ele>
        <time>2011-03-26T13:59:15Z</time>
      </trkpt>
      <trkpt lat="44.00689" lon="2.09904">
        <ele>297</ele>
        <time>2011-03-26T13:59:16Z</time>
      </trkpt>
      <trkpt lat="44.00686" lon="2.09899">
        <ele>297</ele>
        <time>2011-03-26T13:59:17Z</time>
      </trkpt>
      <trkpt lat="44.00684" lon="2.09894">
        <ele>297</ele>
        <time>2011-03-26T13:59:18Z</time>
      </trkpt>
      <trkpt lat="44.00681" lon="2.0989">
        <ele>297</ele>
        <time>2011-03-26T13:59:19Z</time>
      </trkpt>
      <trkpt lat="44.00678" lon="2.09886">
        <ele>297</ele>
        <time>2011-03-26T13:59:20Z</time>
      </trkpt>
      <trkpt lat="44.00675" lon="2.09882">
        <ele>297</ele>
        <time>2011-03-26T13:59:21Z</time>
      </trkpt>
      <trkpt lat="44.00672" lon="2.09878">
        <ele>297</ele>
        <time>2011-03-26T13:59:22Z</time>
      </trkpt>
      <trkpt lat="44.0067" lon="2.09873">
        <ele>299</ele>
        <time>2011-03-26T13:59:23Z</time>
      </trkpt>
      <trkpt lat="44.00668" lon="2.09869">
        <ele>299</ele>
        <time>2011-03-26T13:59:24Z</time>
      </trkpt>
      <trkpt lat="44.00668" lon="2.09864">
        <ele>299</ele>
        <time>2011-03-26T13:59:25Z</time>
      </trkpt>
      <trkpt lat="44.00667" lon="2.09859">
        <ele>299</ele>
        <time>2011-03-26T13:59:26Z</time>
      </trkpt>
      <trkpt lat="44.00667" lon="2.09854">
        <ele>299</ele>
        <time>2011-03-26T13:59:27Z</time>
      </trkpt>
      <trkpt lat="44.00667" lon="2.09849">
        <ele>299</ele>
        <time>2011-03-26T13:59:28Z</time>
      </trkpt>
      <trkpt lat="44.00667" lon="2.09843">
        <ele>299</ele>
        <time>2011-03-26T13:59:29Z</time>
      </trkpt>
      <trkpt lat="44.00666" lon="2.09838">
        <ele>299</ele>
        <time>2011-03-26T13:59:30Z</time>
      </trkpt>
      <trkpt lat="44.00666" lon="2.09833">
        <ele>299</ele>
        <time>2011-03-26T13:59:31Z</time>
      </trkpt>
      <trkpt lat="44.00665" lon="2.09828">
        <ele>299</ele>
        <time>2011-03-26T13:59:32Z</time>
      </trkpt>
      <trkpt lat="44.00664" lon="2.09823">
        <ele>299</ele>
        <time>2011-03-26T13:59:33Z</time>
      </trkpt>
      <trkpt lat="44.00663" lon="2.09818">
        <ele>299</ele>
        <time>2011-03-26T13:59:34Z</time>
      </trkpt>
      <trkpt lat="44.00661" lon="2.09814">
        <ele>299</ele>
        <time>2011-03-26T13:59:35Z</time>
      </trkpt>
      <trkpt lat="44.0066" lon="2.09809">
        <ele>299</ele>
        <time>2011-03-26T13:59:36Z</time>
      </trkpt>
      <trkpt lat="44.00659" lon="2.09805">
        <ele>299</ele>
        <time>2011-03-26T13:59:37Z</time>
      </trkpt>
      <trkpt lat="44.00658" lon="2.09801">
        <ele>299</ele>
        <time>2011-03-26T13:59:38Z</time>
      </trkpt>
      <trkpt lat="44.00656" lon="2.09797">
        <ele>299</ele>
        <time>2011-03-26T13:59:39Z</time>
      </trkpt>
      <trkpt lat="44.00654" lon="2.09793">
        <ele>299</ele>
        <time>2011-03-26T13:59:40Z</time>
      </trkpt>
      <trkpt lat="44.00653" lon="2.09789">
        <ele>306</ele>
        <time>2011-03-26T13:59:41Z</time>
      </trkpt>
      <trkpt lat="44.00651" lon="2.09786">
        <ele>306</ele>
        <time>2011-03-26T13:59:42Z</time>
      </trkpt>
      <trkpt lat="44.0065" lon="2.09782">
        <ele>306</ele>
        <time>2011-03-26T13:59:43Z</time>
      </trkpt>
      <trkpt lat="44.00649" lon="2.09778">
        <ele>306</ele>
        <time>2011-03-26T13:59:44Z</time>
      </trkpt>
      <trkpt lat="44.00647" lon="2.09775">
        <ele>306</ele>
        <time>2011-03-26T13:59:45Z</time>
      </trkpt>
      <trkpt lat="44.00646" lon="2.09772">
        <ele>306</ele>
        <time>2011-03-26T13:59:46Z</time>
      </trkpt>
      <trkpt lat="44.00645" lon="2.09768">
        <ele>306</ele>
        <time>2011-03-26T13:59:47Z</time>
      </trkpt>
      <trkpt lat="44.00644" lon="2.09765">
        <ele>306</ele>
        <time>2011-03-26T13:59:48Z</time>
      </trkpt>
      <trkpt lat="44.00643" lon="2.09762">
        <ele>306</ele>
        <time>2011-03-26T13:59:49Z</time>
      </trkpt>
      <trkpt lat="44.00642" lon="2.09759">
        <ele>306</ele>
        <time>2011-03-26T13:59:50Z</time>
      </trkpt>
      <trkpt lat="44.00641" lon="2.09756">
        <ele>306</ele>
        <time>2011-03-26T13:59:51Z</time>
      </trkpt>
      <trkpt lat="44.0064" lon="2.09753">
        <ele>306</ele>
        <time>2011-03-26T13:59:52Z</time>
      </trkpt>
      <trkpt lat="44.00638" lon="2.09747">
        <ele>306</ele>
        <time>2011-03-26T13:59:54Z</time>
      </trkpt>
      <trkpt lat="44.00637" lon="2.09744">
        <ele>306</ele>
        <time>2011-03-26T13:59:55Z</time>
      </trkpt>
      <trkpt lat="44.00637" lon="2.09741">
        <ele>306</ele>
        <time>2011-03-26T13:59:56Z</time>
      </trkpt>
      <trkpt lat="44.00635" lon="2.09736">
        <ele>306</ele>
        <time>2011-03-26T13:59:58Z</time>
      </trkpt>
      <trkpt lat="44.00634" lon="2.0973">
        <ele>306</ele>
        <time>2011-03-26T14:00:00Z</time>
      </trkpt>
      <trkpt lat="44.00633" lon="2.09724">
        <ele>306</ele>
        <time>2011-03-26T14:00:02Z</time>
      </trkpt>
      <trkpt lat="44.00633" lon="2.09721">
        <ele>306</ele>
        <time>2011-03-26T14:00:03Z</time>
      </trkpt>
      <trkpt lat="44.00631" lon="2.09715">
        <ele>306</ele>
        <time>2011-03-26T14:00:05Z</time>
      </trkpt>
      <trkpt lat="44.00629" lon="2.0971">
        <ele>306</ele>
        <time>2011-03-26T14:00:07Z</time>
      </trkpt>
      <trkpt lat="44.00628" lon="2.09708">
        <ele>314</ele>
        <time>2011-03-26T14:00:08Z</time>
      </trkpt>
      <trkpt lat="44.00626" lon="2.09704">
        <ele>314</ele>
        <time>2011-03-26T14:00:10Z</time>
      </trkpt>
      <trkpt lat="44.00625" lon="2.09702">
        <ele>314</ele>
        <time>2011-03-26T14:00:11Z</time>
      </trkpt>
      <trkpt lat="44.00625" lon="2.09696">
        <ele>310</ele>
        <time>2011-03-26T14:00:13Z</time>
      </trkpt>
      <trkpt lat="44.00625" lon="2.09694">
        <ele>314</ele>
        <time>2011-03-26T14:00:14Z</time>
      </trkpt>
      <trkpt lat="44.00625" lon="2.0969">
        <ele>314</ele>
        <time>2011-03-26T14:00:16Z</time>
      </trkpt>
      <trkpt lat="44.00625" lon="2.09685">
        <ele>314</ele>
        <time>2011-03-26T14:00:18Z</time>
      </trkpt>
      <trkpt lat="44.00625" lon="2.09682">
        <ele>314</ele>
        <time>2011-03-26T14:00:19Z</time>
      </trkpt>
      <trkpt lat="44.00625" lon="2.09676">
        <ele>314</ele>
        <time>2011-03-26T14:00:21Z</time>
      </trkpt>
      <trkpt lat="44.00626" lon="2.09673">
        <ele>314</ele>
        <time>2011-03-26T14:00:22Z</time>
      </trkpt>
      <trkpt lat="44.00626" lon="2.09667">
        <ele>314</ele>
        <time>2011-03-26T14:00:24Z</time>
      </trkpt>
      <trkpt lat="44.00628" lon="2.09662">
        <ele>314</ele>
        <time>2011-03-26T14:00:26Z</time>
      </trkpt>
      <trkpt lat="44.00629" lon="2.09657">
        <ele>314</ele>
        <time>2011-03-26T14:00:28Z</time>
      </trkpt>
      <trkpt lat="44.00629" lon="2.09654">
        <ele>314</ele>
        <time>2011-03-26T14:00:29Z</time>
      </trkpt>
      <trkpt lat="44.0063" lon="2.09651">
        <ele>314</ele>
        <time>2011-03-26T14:00:30Z</time>
      </trkpt>
      <trkpt lat="44.0063" lon="2.09648">
        <ele>314</ele>
        <time>2011-03-26T14:00:31Z</time>
      </trkpt>
      <trkpt lat="44.00631" lon="2.09642">
        <ele>314</ele>
        <time>2011-03-26T14:00:33Z</time>
      </trkpt>
      <trkpt lat="44.00632" lon="2.09639">
        <ele>314</ele>
        <time>2011-03-26T14:00:34Z</time>
      </trkpt>
      <trkpt lat="44.00633" lon="2.09635">
        <ele>314</ele>
        <time>2011-03-26T14:00:35Z</time>
      </trkpt>
      <trkpt lat="44.00634" lon="2.09632">
        <ele>314</ele>
        <time>2011-03-26T14:00:36Z</time>
      </trkpt>
      <trkpt lat="44.00636" lon="2.09627">
        <ele>314</ele>
        <time>2011-03-26T14:00:38Z</time>
      </trkpt>
      <trkpt lat="44.00637" lon="2.09621">
        <ele>318</ele>
        <time>2011-03-26T14:00:40Z</time>
      </trkpt>
      <trkpt lat="44.00639" lon="2.09616">
        <ele>318</ele>
        <time>2011-03-26T14:00:42Z</time>
      </trkpt>
      <trkpt lat="44.00639" lon="2.09613">
        <ele>318</ele>
        <time>2011-03-26T14:00:43Z</time>
      </trkpt>
      <trkpt lat="44.0064" lon="2.0961">
        <ele>318</ele>
        <time>2011-03-26T14:00:44Z</time>
      </trkpt>
      <trkpt lat="44.00642" lon="2.09607">
        <ele>318</ele>
        <time>2011-03-26T14:00:45Z</time>
      </trkpt>
      <trkpt lat="44.00643" lon="2.09604">
        <ele>318</ele>
        <time>2011-03-26T14:00:46Z</time>
      </trkpt>
      <trkpt lat="44.00644" lon="2.09601">
        <ele>318</ele>
        <time>2011-03-26T14:00:47Z</time>
      </trkpt>
      <trkpt lat="44.00645" lon="2.09599">
        <ele>318</ele>
        <time>2011-03-26T14:00:48Z</time>
      </trkpt>
      <trkpt lat="44.00648" lon="2.09594">
        <ele>318</ele>
        <time>2011-03-26T14:00:50Z</time>
      </trkpt>
      <trkpt lat="44.00649" lon="2.09591">
        <ele>318</ele>
        <time>2011-03-26T14:00:51Z</time>
      </trkpt>
      <trkpt lat="44.0065" lon="2.09588">
        <ele>318</ele>
        <time>2011-03-26T14:00:52Z</time>
      </trkpt>
      <trkpt lat="44.00651" lon="2.09585">
        <ele>318</ele>
        <time>2011-03-26T14:00:53Z</time>
      </trkpt>
      <trkpt lat="44.00652" lon="2.09582">
        <ele>318</ele>
        <time>2011-03-26T14:00:54Z</time>
      </trkpt>
      <trkpt lat="44.00653" lon="2.0958">
        <ele>318</ele>
        <time>2011-03-26T14:00:55Z</time>
      </trkpt>
      <trkpt lat="44.00657" lon="2.09577">
        <ele>318</ele>
        <time>2011-03-26T14:00:57Z</time>
      </trkpt>
      <trkpt lat="44.00659" lon="2.09577">
        <ele>318</ele>
        <time>2011-03-26T14:00:58Z</time>
      </trkpt>
      <trkpt lat="44.00662" lon="2.09577">
        <ele>318</ele>
        <time>2011-03-26T14:01:00Z</time>
      </trkpt>
      <trkpt lat="44.00666" lon="2.09579">
        <ele>318</ele>
        <time>2011-03-26T14:01:02Z</time>
      </trkpt>
      <trkpt lat="44.0067" lon="2.09579">
        <ele>318</ele>
        <time>2011-03-26T14:01:04Z</time>
      </trkpt>
      <trkpt lat="44.00672" lon="2.09579">
        <ele>318</ele>
        <time>2011-03-26T14:01:05Z</time>
      </trkpt>
      <trkpt lat="44.00674" lon="2.09578">
        <ele>318</ele>
        <time>2011-03-26T14:01:06Z</time>
      </trkpt>
      <trkpt lat="44.00677" lon="2.09578">
        <ele>318</ele>
        <time>2011-03-26T14:01:07Z</time>
      </trkpt>
      <trkpt lat="44.00681" lon="2.09575">
        <ele>318</ele>
        <time>2011-03-26T14:01:09Z</time>
      </trkpt>
      <trkpt lat="44.00682" lon="2.09573">
        <ele>318</ele>
        <time>2011-03-26T14:01:10Z</time>
      </trkpt>
      <trkpt lat="44.00684" lon="2.09571">
        <ele>318</ele>
        <time>2011-03-26T14:01:11Z</time>
      </trkpt>
      <trkpt lat="44.00687" lon="2.09569">
        <ele>318</ele>
        <time>2011-03-26T14:01:12Z</time>
      </trkpt>
      <trkpt lat="44.00689" lon="2.09566">
        <ele>318</ele>
        <time>2011-03-26T14:01:13Z</time>
      </trkpt>
      <trkpt lat="44.00691" lon="2.09563">
        <ele>318</ele>
        <time>2011-03-26T14:01:14Z</time>
      </trkpt>
      <trkpt lat="44.00693" lon="2.0956">
        <ele>318</ele>
        <time>2011-03-26T14:01:15Z</time>
      </trkpt>
      <trkpt lat="44.00696" lon="2.09556">
        <ele>318</ele>
        <time>2011-03-26T14:01:16Z</time>
      </trkpt>
      <trkpt lat="44.00698" lon="2.09552">
        <ele>318</ele>
        <time>2011-03-26T14:01:17Z</time>
      </trkpt>
      <trkpt lat="44.007" lon="2.09548">
        <ele>318</ele>
        <time>2011-03-26T14:01:18Z</time>
      </trkpt>
      <trkpt lat="44.00702" lon="2.09544">
        <ele>318</ele>
        <time>2011-03-26T14:01:19Z</time>
      </trkpt>
      <trkpt lat="44.00704" lon="2.0954">
        <ele>317</ele>
        <time>2011-03-26T14:01:20Z</time>
      </trkpt>
      <trkpt lat="44.00706" lon="2.09536">
        <ele>317</ele>
        <time>2011-03-26T14:01:21Z</time>
      </trkpt>
      <trkpt lat="44.00708" lon="2.09532">
        <ele>317</ele>
        <time>2011-03-26T14:01:22Z</time>
      </trkpt>
      <trkpt lat="44.0071" lon="2.09529">
        <ele>320</ele>
        <time>2011-03-26T14:01:23Z</time>
      </trkpt>
      <trkpt lat="44.00712" lon="2.09526">
        <ele>320</ele>
        <time>2011-03-26T14:01:24Z</time>
      </trkpt>
      <trkpt lat="44.00714" lon="2.09522">
        <ele>320</ele>
        <time>2011-03-26T14:01:25Z</time>
      </trkpt>
      <trkpt lat="44.00716" lon="2.09519">
        <ele>320</ele>
        <time>2011-03-26T14:01:26Z</time>
      </trkpt>
      <trkpt lat="44.00718" lon="2.09516">
        <ele>320</ele>
        <time>2011-03-26T14:01:27Z</time>
      </trkpt>
      <trkpt lat="44.00719" lon="2.09512">
        <ele>320</ele>
        <time>2011-03-26T14:01:28Z</time>
      </trkpt>
      <trkpt lat="44.00719" lon="2.09508">
        <ele>320</ele>
        <time>2011-03-26T14:01:29Z</time>
      </trkpt>
      <trkpt lat="44.00719" lon="2.09504">
        <ele>320</ele>
        <time>2011-03-26T14:01:30Z</time>
      </trkpt>
      <trkpt lat="44.0072" lon="2.09501">
        <ele>320</ele>
        <time>2011-03-26T14:01:31Z</time>
      </trkpt>
      <trkpt lat="44.0072" lon="2.09497">
        <ele>320</ele>
        <time>2011-03-26T14:01:32Z</time>
      </trkpt>
      <trkpt lat="44.0072" lon="2.09493">
        <ele>320</ele>
        <time>2011-03-26T14:01:33Z</time>
      </trkpt>
      <trkpt lat="44.0072" lon="2.09488">
        <ele>320</ele>
        <time>2011-03-26T14:01:34Z</time>
      </trkpt>
      <trkpt lat="44.0072" lon="2.09483">
        <ele>320</ele>
        <time>2011-03-26T14:01:35Z</time>
      </trkpt>
      <trkpt lat="44.00721" lon="2.09478">
        <ele>320</ele>
        <time>2011-03-26T14:01:36Z</time>
      </trkpt>
      <trkpt lat="44.00721" lon="2.09473">
        <ele>320</ele>
        <time>2011-03-26T14:01:37Z</time>
      </trkpt>
      <trkpt lat="44.00721" lon="2.09468">
        <ele>320</ele>
        <time>2011-03-26T14:01:38Z</time>
      </trkpt>
      <trkpt lat="44.00721" lon="2.09463">
        <ele>320</ele>
        <time>2011-03-26T14:01:39Z</time>
      </trkpt>
      <trkpt lat="44.00721" lon="2.09459">
        <ele>320</ele>
        <time>2011-03-26T14:01:40Z</time>
      </trkpt>
      <trkpt lat="44.00721" lon="2.09454">
        <ele>321</ele>
        <time>2011-03-26T14:01:41Z</time>
      </trkpt>
      <trkpt lat="44.00722" lon="2.09449">
        <ele>321</ele>
        <time>2011-03-26T14:01:42Z</time>
      </trkpt>
      <trkpt lat="44.00722" lon="2.09444">
        <ele>321</ele>
        <time>2011-03-26T14:01:43Z</time>
      </trkpt>
      <trkpt lat="44.00722" lon="2.09439">
        <ele>321</ele>
        <time>2011-03-26T14:01:44Z</time>
      </trkpt>
      <trkpt lat="44.00721" lon="2.09434">
        <ele>321</ele>
        <time>2011-03-26T14:01:45Z</time>
      </trkpt>
      <trkpt lat="44.00721" lon="2.09429">
        <ele>321</ele>
        <time>2011-03-26T14:01:46Z</time>
      </trkpt>
      <trkpt lat="44.00721" lon="2.09424">
        <ele>321</ele>
        <time>2011-03-26T14:01:47Z</time>
      </trkpt>
      <trkpt lat="44.00721" lon="2.09419">
        <ele>321</ele>
        <time>2011-03-26T14:01:48Z</time>
      </trkpt>
      <trkpt lat="44.00721" lon="2.09414">
        <ele>321</ele>
        <time>2011-03-26T14:01:49Z</time>
      </trkpt>
      <trkpt lat="44.00721" lon="2.0941">
        <ele>321</ele>
        <time>2011-03-26T14:01:50Z</time>
      </trkpt>
      <trkpt lat="44.00721" lon="2.09405">
        <ele>321</ele>
        <time>2011-03-26T14:01:51Z</time>
      </trkpt>
      <trkpt lat="44.0072" lon="2.094">
        <ele>321</ele>
        <time>2011-03-26T14:01:52Z</time>
      </trkpt>
      <trkpt lat="44.0072" lon="2.09395">
        <ele>321</ele>
        <time>2011-03-26T14:01:53Z</time>
      </trkpt>
      <trkpt lat="44.0072" lon="2.09389">
        <ele>321</ele>
        <time>2011-03-26T14:01:54Z</time>
      </trkpt>
      <trkpt lat="44.0072" lon="2.09384">
        <ele>321</ele>
        <time>2011-03-26T14:01:55Z</time>
      </trkpt>
      <trkpt lat="44.0072" lon="2.09379">
        <ele>321</ele>
        <time>2011-03-26T14:01:56Z</time>
      </trkpt>
      <trkpt lat="44.0072" lon="2.09374">
        <ele>323</ele>
        <time>2011-03-26T14:01:57Z</time>
      </trkpt>
      <trkpt lat="44.0072" lon="2.09367">
        <ele>323</ele>
        <time>2011-03-26T14:01:58Z</time>
      </trkpt>
      <trkpt lat="44.0072" lon="2.09361">
        <ele>323</ele>
        <time>2011-03-26T14:01:59Z</time>
      </trkpt>
      <trkpt lat="44.0072" lon="2.09355">
        <ele>323</ele>
        <time>2011-03-26T14:02:00Z</time>
      </trkpt>
      <trkpt lat="44.0072" lon="2.09349">
        <ele>323</ele>
        <time>2011-03-26T14:02:01Z</time>
      </trkpt>
      <trkpt lat="44.0072" lon="2.09343">
        <ele>323</ele>
        <time>2011-03-26T14:02:02Z</time>
      </trkpt>
      <trkpt lat="44.0072" lon="2.09337">
        <ele>323</ele>
        <time>2011-03-26T14:02:03Z</time>
      </trkpt>
      <trkpt lat="44.00719" lon="2.09331">
        <ele>323</ele>
        <time>2011-03-26T14:02:04Z</time>
      </trkpt>
      <trkpt lat="44.00719" lon="2.09325">
        <ele>323</ele>
        <time>2011-03-26T14:02:05Z</time>
      </trkpt>
      <trkpt lat="44.00719" lon="2.09319">
        <ele>323</ele>
        <time>2011-03-26T14:02:06Z</time>
      </trkpt>
      <trkpt lat="44.00719" lon="2.09313">
        <ele>323</ele>
        <time>2011-03-26T14:02:07Z</time>
      </trkpt>
      <trkpt lat="44.00718" lon="2.09307">
        <ele>323</ele>
        <time>2011-03-26T14:02:08Z</time>
      </trkpt>
      <trkpt lat="44.00718" lon="2.09301">
        <ele>323</ele>
        <time>2011-03-26T14:02:09Z</time>
      </trkpt>
      <trkpt lat="44.00718" lon="2.09294">
        <ele>323</ele>
        <time>2011-03-26T14:02:10Z</time>
      </trkpt>
      <trkpt lat="44.00718" lon="2.09288">
        <ele>323</ele>
        <time>2011-03-26T14:02:11Z</time>
      </trkpt>
      <trkpt lat="44.00718" lon="2.09282">
        <ele>323</ele>
        <time>2011-03-26T14:02:12Z</time>
      </trkpt>
      <trkpt lat="44.00717" lon="2.09275">
        <ele>323</ele>
        <time>2011-03-26T14:02:13Z</time>
      </trkpt>
      <trkpt lat="44.00717" lon="2.09269">
        <ele>323</ele>
        <time>2011-03-26T14:02:14Z</time>
      </trkpt>
      <trkpt lat="44.00717" lon="2.09262">
        <ele>323</ele>
        <time>2011-03-26T14:02:15Z</time>
      </trkpt>
      <trkpt lat="44.00717" lon="2.09256">
        <ele>323</ele>
        <time>2011-03-26T14:02:16Z</time>
      </trkpt>
      <trkpt lat="44.00717" lon="2.09249">
        <ele>323</ele>
        <time>2011-03-26T14:02:17Z</time>
      </trkpt>
      <trkpt lat="44.00717" lon="2.09242">
        <ele>323</ele>
        <time>2011-03-26T14:02:18Z</time>
      </trkpt>
      <trkpt lat="44.00717" lon="2.09236">
        <ele>323</ele>
        <time>2011-03-26T14:02:19Z</time>
      </trkpt>
      <trkpt lat="44.00717" lon="2.09229">
        <ele>323</ele>
        <time>2011-03-26T14:02:20Z</time>
      </trkpt>
      <trkpt lat="44.00717" lon="2.09222">
        <ele>323</ele>
        <time>2011-03-26T14:02:21Z</time>
      </trkpt>
      <trkpt lat="44.00717" lon="2.09215">
        <ele>323</ele>
        <time>2011-03-26T14:02:22Z</time>
      </trkpt>
      <trkpt lat="44.00717" lon="2.09208">
        <ele>323</ele>
        <time>2011-03-26T14:02:23Z</time>
      </trkpt>
      <trkpt lat="44.00717" lon="2.09202">
        <ele>322</ele>
        <time>2011-03-26T14:02:24Z</time>
      </trkpt>
      <trkpt lat="44.00717" lon="2.09195">
        <ele>322</ele>
        <time>2011-03-26T14:02:25Z</time>
      </trkpt>
      <trkpt lat="44.00717" lon="2.09188">
        <ele>322</ele>
        <time>2011-03-26T14:02:26Z</time>
      </trkpt>
      <trkpt lat="44.00718" lon="2.09182">
        <ele>322</ele>
        <time>2011-03-26T14:02:27Z</time>
      </trkpt>
      <trkpt lat="44.00718" lon="2.09175">
        <ele>322</ele>
        <time>2011-03-26T14:02:28Z</time>
      </trkpt>
      <trkpt lat="44.00718" lon="2.09169">
        <ele>322</ele>
        <time>2011-03-26T14:02:29Z</time>
      </trkpt>
      <trkpt lat="44.00718" lon="2.09162">
        <ele>322</ele>
        <time>2011-03-26T14:02:30Z</time>
      </trkpt>
      <trkpt lat="44.00718" lon="2.09156">
        <ele>322</ele>
        <time>2011-03-26T14:02:31Z</time>
      </trkpt>
      <trkpt lat="44.00718" lon="2.09149">
        <ele>322</ele>
        <time>2011-03-26T14:02:32Z</time>
      </trkpt>
      <trkpt lat="44.00718" lon="2.09143">
        <ele>322</ele>
        <time>2011-03-26T14:02:33Z</time>
      </trkpt>
      <trkpt lat="44.00719" lon="2.09136">
        <ele>322</ele>
        <time>2011-03-26T14:02:34Z</time>
      </trkpt>
      <trkpt lat="44.00719" lon="2.0913">
        <ele>322</ele>
        <time>2011-03-26T14:02:35Z</time>
      </trkpt>
      <trkpt lat="44.00719" lon="2.09124">
        <ele>323</ele>
        <time>2011-03-26T14:02:36Z</time>
      </trkpt>
      <trkpt lat="44.00719" lon="2.09118">
        <ele>323</ele>
        <time>2011-03-26T14:02:37Z</time>
      </trkpt>
      <trkpt lat="44.00719" lon="2.09113">
        <ele>323</ele>
        <time>2011-03-26T14:02:38Z</time>
      </trkpt>
      <trkpt lat="44.00719" lon="2.09108">
        <ele>323</ele>
        <time>2011-03-26T14:02:39Z</time>
      </trkpt>
      <trkpt lat="44.0072" lon="2.09103">
        <ele>323</ele>
        <time>2011-03-26T14:02:40Z</time>
      </trkpt>
      <trkpt lat="44.0072" lon="2.09097">
        <ele>323</ele>
        <time>2011-03-26T14:02:41Z</time>
      </trkpt>
      <trkpt lat="44.00721" lon="2.09093">
        <ele>323</ele>
        <time>2011-03-26T14:02:42Z</time>
      </trkpt>
      <trkpt lat="44.00721" lon="2.0909">
        <ele>323</ele>
        <time>2011-03-26T14:02:43Z</time>
      </trkpt>
      <trkpt lat="44.00721" lon="2.09087">
        <ele>323</ele>
        <time>2011-03-26T14:02:44Z</time>
      </trkpt>
      <trkpt lat="44.00721" lon="2.09081">
        <ele>323</ele>
        <time>2011-03-26T14:02:46Z</time>
      </trkpt>
      <trkpt lat="44.00722" lon="2.09075">
        <ele>323</ele>
        <time>2011-03-26T14:02:48Z</time>
      </trkpt>
      <trkpt lat="44.00723" lon="2.09073">
        <ele>323</ele>
        <time>2011-03-26T14:02:49Z</time>
      </trkpt>
      <trkpt lat="44.00725" lon="2.09067">
        <ele>323</ele>
        <time>2011-03-26T14:02:51Z</time>
      </trkpt>
      <trkpt lat="44.00726" lon="2.09064">
        <ele>323</ele>
        <time>2011-03-26T14:02:52Z</time>
      </trkpt>
      <trkpt lat="44.00727" lon="2.0906">
        <ele>323</ele>
        <time>2011-03-26T14:02:53Z</time>
      </trkpt>
      <trkpt lat="44.00728" lon="2.09055">
        <ele>323</ele>
        <time>2011-03-26T14:02:54Z</time>
      </trkpt>
      <trkpt lat="44.00729" lon="2.09051">
        <ele>323</ele>
        <time>2011-03-26T14:02:55Z</time>
      </trkpt>
      <trkpt lat="44.0073" lon="2.09048">
        <ele>323</ele>
        <time>2011-03-26T14:02:56Z</time>
      </trkpt>
      <trkpt lat="44.00731" lon="2.09044">
        <ele>323</ele>
        <time>2011-03-26T14:02:57Z</time>
      </trkpt>
      <trkpt lat="44.00733" lon="2.0904">
        <ele>317</ele>
        <time>2011-03-26T14:02:58Z</time>
      </trkpt>
      <trkpt lat="44.00735" lon="2.09036">
        <ele>317</ele>
        <time>2011-03-26T14:02:59Z</time>
      </trkpt>
      <trkpt lat="44.00736" lon="2.09032">
        <ele>317</ele>
        <time>2011-03-26T14:03:00Z</time>
      </trkpt>
      <trkpt lat="44.00739" lon="2.09027">
        <ele>317</ele>
        <time>2011-03-26T14:03:01Z</time>
      </trkpt>
      <trkpt lat="44.00741" lon="2.09022">
        <ele>317</ele>
        <time>2011-03-26T14:03:02Z</time>
      </trkpt>
      <trkpt lat="44.00744" lon="2.09017">
        <ele>317</ele>
        <time>2011-03-26T14:03:03Z</time>
      </trkpt>
      <trkpt lat="44.00746" lon="2.09012">
        <ele>317</ele>
        <time>2011-03-26T14:03:04Z</time>
      </trkpt>
      <trkpt lat="44.00749" lon="2.09007">
        <ele>317</ele>
        <time>2011-03-26T14:03:05Z</time>
      </trkpt>
      <trkpt lat="44.00752" lon="2.09001">
        <ele>317</ele>
        <time>2011-03-26T14:03:06Z</time>
      </trkpt>
      <trkpt lat="44.00755" lon="2.08996">
        <ele>317</ele>
        <time>2011-03-26T14:03:07Z</time>
      </trkpt>
      <trkpt lat="44.00757" lon="2.08991">
        <ele>317</ele>
        <time>2011-03-26T14:03:08Z</time>
      </trkpt>
      <trkpt lat="44.00759" lon="2.08985">
        <ele>317</ele>
        <time>2011-03-26T14:03:09Z</time>
      </trkpt>
      <trkpt lat="44.0076" lon="2.08979">
        <ele>317</ele>
        <time>2011-03-26T14:03:10Z</time>
      </trkpt>
      <trkpt lat="44.00761" lon="2.08974">
        <ele>317</ele>
        <time>2011-03-26T14:03:11Z</time>
      </trkpt>
      <trkpt lat="44.00762" lon="2.08968">
        <ele>317</ele>
        <time>2011-03-26T14:03:12Z</time>
      </trkpt>
      <trkpt lat="44.00763" lon="2.08962">
        <ele>317</ele>
        <time>2011-03-26T14:03:13Z</time>
      </trkpt>
      <trkpt lat="44.00765" lon="2.08957">
        <ele>311</ele>
        <time>2011-03-26T14:03:14Z</time>
      </trkpt>
      <trkpt lat="44.00767" lon="2.08952">
        <ele>311</ele>
        <time>2011-03-26T14:03:15Z</time>
      </trkpt>
      <trkpt lat="44.00769" lon="2.08947">
        <ele>311</ele>
        <time>2011-03-26T14:03:16Z</time>
      </trkpt>
      <trkpt lat="44.00771" lon="2.08941">
        <ele>311</ele>
        <time>2011-03-26T14:03:17Z</time>
      </trkpt>
      <trkpt lat="44.00773" lon="2.08936">
        <ele>311</ele>
        <time>2011-03-26T14:03:18Z</time>
      </trkpt>
      <trkpt lat="44.00775" lon="2.0893">
        <ele>311</ele>
        <time>2011-03-26T14:03:19Z</time>
      </trkpt>
      <trkpt lat="44.00776" lon="2.08925">
        <ele>311</ele>
        <time>2011-03-26T14:03:20Z</time>
      </trkpt>
      <trkpt lat="44.00778" lon="2.08919">
        <ele>311</ele>
        <time>2011-03-26T14:03:21Z</time>
      </trkpt>
      <trkpt lat="44.0078" lon="2.08914">
        <ele>311</ele>
        <time>2011-03-26T14:03:22Z</time>
      </trkpt>
      <trkpt lat="44.00782" lon="2.08909">
        <ele>311</ele>
        <time>2011-03-26T14:03:23Z</time>
      </trkpt>
      <trkpt lat="44.00784" lon="2.08903">
        <ele>311</ele>
        <time>2011-03-26T14:03:24Z</time>
      </trkpt>
      <trkpt lat="44.00785" lon="2.08898">
        <ele>311</ele>
        <time>2011-03-26T14:03:25Z</time>
      </trkpt>
      <trkpt lat="44.00786" lon="2.08893">
        <ele>311</ele>
        <time>2011-03-26T14:03:26Z</time>
      </trkpt>
      <trkpt lat="44.00788" lon="2.08889">
        <ele>311</ele>
        <time>2011-03-26T14:03:27Z</time>
      </trkpt>
      <trkpt lat="44.0079" lon="2.08885">
        <ele>311</ele>
        <time>2011-03-26T14:03:28Z</time>
      </trkpt>
      <trkpt lat="44.00791" lon="2.08881">
        <ele>311</ele>
        <time>2011-03-26T14:03:29Z</time>
      </trkpt>
      <trkpt lat="44.00792" lon="2.08878">
        <ele>311</ele>
        <time>2011-03-26T14:03:30Z</time>
      </trkpt>
      <trkpt lat="44.00793" lon="2.08874">
        <ele>313</ele>
        <time>2011-03-26T14:03:31Z</time>
      </trkpt>
      <trkpt lat="44.00794" lon="2.08869">
        <ele>313</ele>
        <time>2011-03-26T14:03:32Z</time>
      </trkpt>
      <trkpt lat="44.00796" lon="2.08865">
        <ele>313</ele>
        <time>2011-03-26T14:03:33Z</time>
      </trkpt>
      <trkpt lat="44.00797" lon="2.0886">
        <ele>313</ele>
        <time>2011-03-26T14:03:34Z</time>
      </trkpt>
      <trkpt lat="44.00799" lon="2.08856">
        <ele>313</ele>
        <time>2011-03-26T14:03:35Z</time>
      </trkpt>
      <trkpt lat="44.00801" lon="2.08852">
        <ele>313</ele>
        <time>2011-03-26T14:03:36Z</time>
      </trkpt>
      <trkpt lat="44.00803" lon="2.08848">
        <ele>313</ele>
        <time>2011-03-26T14:03:37Z</time>
      </trkpt>
      <trkpt lat="44.00806" lon="2.08845">
        <ele>313</ele>
        <time>2011-03-26T14:03:38Z</time>
      </trkpt>
      <trkpt lat="44.00808" lon="2.08843">
        <ele>313</ele>
        <time>2011-03-26T14:03:39Z</time>
      </trkpt>
      <trkpt lat="44.00811" lon="2.08841">
        <ele>313</ele>
        <time>2011-03-26T14:03:40Z</time>
      </trkpt>
      <trkpt lat="44.00814" lon="2.0884">
        <ele>313</ele>
        <time>2011-03-26T14:03:41Z</time>
      </trkpt>
      <trkpt lat="44.00816" lon="2.08839">
        <ele>313</ele>
        <time>2011-03-26T14:03:42Z</time>
      </trkpt>
      <trkpt lat="44.00818" lon="2.08837">
        <ele>313</ele>
        <time>2011-03-26T14:03:43Z</time>
      </trkpt>
      <trkpt lat="44.0082" lon="2.08835">
        <ele>313</ele>
        <time>2011-03-26T14:03:44Z</time>
      </trkpt>
      <trkpt lat="44.00822" lon="2.08833">
        <ele>313</ele>
        <time>2011-03-26T14:03:45Z</time>
      </trkpt>
      <trkpt lat="44.00824" lon="2.08831">
        <ele>313</ele>
        <time>2011-03-26T14:03:46Z</time>
      </trkpt>
      <trkpt lat="44.00825" lon="2.08828">
        <ele>313</ele>
        <time>2011-03-26T14:03:47Z</time>
      </trkpt>
      <trkpt lat="44.00827" lon="2.08826">
        <ele>313</ele>
        <time>2011-03-26T14:03:48Z</time>
      </trkpt>
      <trkpt lat="44.00829" lon="2.08823">
        <ele>313</ele>
        <time>2011-03-26T14:03:49Z</time>
      </trkpt>
      <trkpt lat="44.00831" lon="2.0882">
        <ele>313</ele>
        <time>2011-03-26T14:03:50Z</time>
      </trkpt>
      <trkpt lat="44.00833" lon="2.08817">
        <ele>313</ele>
        <time>2011-03-26T14:03:51Z</time>
      </trkpt>
      <trkpt lat="44.00835" lon="2.08814">
        <ele>313</ele>
        <time>2011-03-26T14:03:52Z</time>
      </trkpt>
      <trkpt lat="44.00837" lon="2.0881">
        <ele>313</ele>
        <time>2011-03-26T14:03:53Z</time>
      </trkpt>
      <trkpt lat="44.00838" lon="2.08806">
        <ele>313</ele>
        <time>2011-03-26T14:03:54Z</time>
      </trkpt>
      <trkpt lat="44.0084" lon="2.08802">
        <ele>313</ele>
        <time>2011-03-26T14:03:55Z</time>
      </trkpt>
      <trkpt lat="44.00841" lon="2.08797">
        <ele>313</ele>
        <time>2011-03-26T14:03:56Z</time>
      </trkpt>
      <trkpt lat="44.00843" lon="2.08793">
        <ele>313</ele>
        <time>2011-03-26T14:03:57Z</time>
      </trkpt>
      <trkpt lat="44.00845" lon="2.08788">
        <ele>307</ele>
        <time>2011-03-26T14:03:58Z</time>
      </trkpt>
      <trkpt lat="44.00847" lon="2.08782">
        <ele>307</ele>
        <time>2011-03-26T14:03:59Z</time>
      </trkpt>
      <trkpt lat="44.00848" lon="2.08776">
        <ele>307</ele>
        <time>2011-03-26T14:04:00Z</time>
      </trkpt>
      <trkpt lat="44.00851" lon="2.08769">
        <ele>307</ele>
        <time>2011-03-26T14:04:01Z</time>
      </trkpt>
      <trkpt lat="44.00854" lon="2.08763">
        <ele>307</ele>
        <time>2011-03-26T14:04:02Z</time>
      </trkpt>
      <trkpt lat="44.00857" lon="2.08756">
        <ele>307</ele>
        <time>2011-03-26T14:04:03Z</time>
      </trkpt>
      <trkpt lat="44.00862" lon="2.08749">
        <ele>307</ele>
        <time>2011-03-26T14:04:04Z</time>
      </trkpt>
      <trkpt lat="44.00866" lon="2.0874">
        <ele>307</ele>
        <time>2011-03-26T14:04:05Z</time>
      </trkpt>
      <trkpt lat="44.0087" lon="2.08733">
        <ele>307</ele>
        <time>2011-03-26T14:04:06Z</time>
      </trkpt>
      <trkpt lat="44.00875" lon="2.08725">
        <ele>307</ele>
        <time>2011-03-26T14:04:07Z</time>
      </trkpt>
      <trkpt lat="44.00879" lon="2.08718">
        <ele>300</ele>
        <time>2011-03-26T14:04:08Z</time>
      </trkpt>
      <trkpt lat="44.00883" lon="2.08711">
        <ele>300</ele>
        <time>2011-03-26T14:04:09Z</time>
      </trkpt>
      <trkpt lat="44.00886" lon="2.08705">
        <ele>296</ele>
        <time>2011-03-26T14:04:10Z</time>
      </trkpt>
      <trkpt lat="44.00888" lon="2.087">
        <ele>296</ele>
        <time>2011-03-26T14:04:11Z</time>
      </trkpt>
      <trkpt lat="44.00889" lon="2.08695">
        <ele>296</ele>
        <time>2011-03-26T14:04:12Z</time>
      </trkpt>
      <trkpt lat="44.00888" lon="2.0869">
        <ele>296</ele>
        <time>2011-03-26T14:04:13Z</time>
      </trkpt>
      <trkpt lat="44.00885" lon="2.08687">
        <ele>296</ele>
        <time>2011-03-26T14:04:14Z</time>
      </trkpt>
      <trkpt lat="44.00881" lon="2.08687">
        <ele>296</ele>
        <time>2011-03-26T14:04:15Z</time>
      </trkpt>
      <trkpt lat="44.00876" lon="2.08687">
        <ele>296</ele>
        <time>2011-03-26T14:04:16Z</time>
      </trkpt>
      <trkpt lat="44.0087" lon="2.08688">
        <ele>297</ele>
        <time>2011-03-26T14:04:17Z</time>
      </trkpt>
      <trkpt lat="44.00863" lon="2.08687">
        <ele>297</ele>
        <time>2011-03-26T14:04:18Z</time>
      </trkpt>
      <trkpt lat="44.00856" lon="2.08687">
        <ele>297</ele>
        <time>2011-03-26T14:04:19Z</time>
      </trkpt>
      <trkpt lat="44.00849" lon="2.08685">
        <ele>297</ele>
        <time>2011-03-26T14:04:20Z</time>
      </trkpt>
      <trkpt lat="44.00841" lon="2.08682">
        <ele>297</ele>
        <time>2011-03-26T14:04:21Z</time>
      </trkpt>
      <trkpt lat="44.00832" lon="2.08677">
        <ele>297</ele>
        <time>2011-03-26T14:04:22Z</time>
      </trkpt>
      <trkpt lat="44.00824" lon="2.08671">
        <ele>297</ele>
        <time>2011-03-26T14:04:23Z</time>
      </trkpt>
      <trkpt lat="44.00816" lon="2.08665">
        <ele>297</ele>
        <time>2011-03-26T14:04:24Z</time>
      </trkpt>
      <trkpt lat="44.00807" lon="2.0866">
        <ele>297</ele>
        <time>2011-03-26T14:04:25Z</time>
      </trkpt>
      <trkpt lat="44.00799" lon="2.08654">
        <ele>297</ele>
        <time>2011-03-26T14:04:26Z</time>
      </trkpt>
      <trkpt lat="44.0079" lon="2.08649">
        <ele>290</ele>
        <time>2011-03-26T14:04:27Z</time>
      </trkpt>
      <trkpt lat="44.00782" lon="2.08643">
        <ele>290</ele>
        <time>2011-03-26T14:04:28Z</time>
      </trkpt>
      <trkpt lat="44.00773" lon="2.08638">
        <ele>290</ele>
        <time>2011-03-26T14:04:29Z</time>
      </trkpt>
      <trkpt lat="44.00765" lon="2.08633">
        <ele>290</ele>
        <time>2011-03-26T14:04:30Z</time>
      </trkpt>
      <trkpt lat="44.00757" lon="2.08628">
        <ele>290</ele>
        <time>2011-03-26T14:04:31Z</time>
      </trkpt>
      <trkpt lat="44.00748" lon="2.08624">
        <ele>284</ele>
        <time>2011-03-26T14:04:32Z</time>
      </trkpt>
      <trkpt lat="44.0074" lon="2.08619">
        <ele>284</ele>
        <time>2011-03-26T14:04:33Z</time>
      </trkpt>
      <trkpt lat="44.00734" lon="2.08612">
        <ele>284</ele>
        <time>2011-03-26T14:04:34Z</time>
      </trkpt>
      <trkpt lat="44.0073" lon="2.08605">
        <ele>284</ele>
        <time>2011-03-26T14:04:35Z</time>
      </trkpt>
      <trkpt lat="44.00726" lon="2.08597">
        <ele>284</ele>
        <time>2011-03-26T14:04:36Z</time>
      </trkpt>
      <trkpt lat="44.00723" lon="2.08591">
        <ele>284</ele>
        <time>2011-03-26T14:04:37Z</time>
      </trkpt>
      <trkpt lat="44.0072" lon="2.08585">
        <ele>284</ele>
        <time>2011-03-26T14:04:38Z</time>
      </trkpt>
      <trkpt lat="44.00717" lon="2.08578">
        <ele>284</ele>
        <time>2011-03-26T14:04:39Z</time>
      </trkpt>
      <trkpt lat="44.00717" lon="2.08569">
        <ele>284</ele>
        <time>2011-03-26T14:04:40Z</time>
      </trkpt>
      <trkpt lat="44.00716" lon="2.08562">
        <ele>284</ele>
        <time>2011-03-26T14:04:41Z</time>
      </trkpt>
      <trkpt lat="44.00716" lon="2.08552">
        <ele>284</ele>
        <time>2011-03-26T14:04:42Z</time>
      </trkpt>
      <trkpt lat="44.00716" lon="2.08545">
        <ele>284</ele>
        <time>2011-03-26T14:04:43Z</time>
      </trkpt>
      <trkpt lat="44.00717" lon="2.08537">
        <ele>284</ele>
        <time>2011-03-26T14:04:44Z</time>
      </trkpt>
      <trkpt lat="44.00718" lon="2.08531">
        <ele>284</ele>
        <time>2011-03-26T14:04:45Z</time>
      </trkpt>
      <trkpt lat="44.00719" lon="2.08525">
        <ele>284</ele>
        <time>2011-03-26T14:04:46Z</time>
      </trkpt>
      <trkpt lat="44.0072" lon="2.08518">
        <ele>284</ele>
        <time>2011-03-26T14:04:47Z</time>
      </trkpt>
      <trkpt lat="44.00722" lon="2.08512">
        <ele>284</ele>
        <time>2011-03-26T14:04:48Z</time>
      </trkpt>
      <trkpt lat="44.00723" lon="2.08507">
        <ele>284</ele>
        <time>2011-03-26T14:04:49Z</time>
      </trkpt>
      <trkpt lat="44.00724" lon="2.08501">
        <ele>284</ele>
        <time>2011-03-26T14:04:50Z</time>
      </trkpt>
      <trkpt lat="44.00725" lon="2.08494">
        <ele>284</ele>
        <time>2011-03-26T14:04:51Z</time>
      </trkpt>
      <trkpt lat="44.00727" lon="2.08489">
        <ele>284</ele>
        <time>2011-03-26T14:04:52Z</time>
      </trkpt>
      <trkpt lat="44.00728" lon="2.08483">
        <ele>284</ele>
        <time>2011-03-26T14:04:53Z</time>
      </trkpt>
      <trkpt lat="44.0073" lon="2.08478">
        <ele>284</ele>
        <time>2011-03-26T14:04:54Z</time>
      </trkpt>
      <trkpt lat="44.00731" lon="2.08473">
        <ele>284</ele>
        <time>2011-03-26T14:04:55Z</time>
      </trkpt>
      <trkpt lat="44.00733" lon="2.08468">
        <ele>284</ele>
        <time>2011-03-26T14:04:56Z</time>
      </trkpt>
      <trkpt lat="44.00734" lon="2.08463">
        <ele>284</ele>
        <time>2011-03-26T14:04:57Z</time>
      </trkpt>
      <trkpt lat="44.00735" lon="2.08458">
        <ele>284</ele>
        <time>2011-03-26T14:04:58Z</time>
      </trkpt>
      <trkpt lat="44.00736" lon="2.08454">
        <ele>286</ele>
        <time>2011-03-26T14:04:59Z</time>
      </trkpt>
      <trkpt lat="44.00738" lon="2.08449">
        <ele>286</ele>
        <time>2011-03-26T14:05:00Z</time>
      </trkpt>
      <trkpt lat="44.00739" lon="2.08445">
        <ele>286</ele>
        <time>2011-03-26T14:05:01Z</time>
      </trkpt>
      <trkpt lat="44.0074" lon="2.08441">
        <ele>286</ele>
        <time>2011-03-26T14:05:02Z</time>
      </trkpt>
      <trkpt lat="44.00741" lon="2.08436">
        <ele>286</ele>
        <time>2011-03-26T14:05:03Z</time>
      </trkpt>
      <trkpt lat="44.00743" lon="2.08432">
        <ele>286</ele>
        <time>2011-03-26T14:05:04Z</time>
      </trkpt>
      <trkpt lat="44.00744" lon="2.08427">
        <ele>286</ele>
        <time>2011-03-26T14:05:05Z</time>
      </trkpt>
      <trkpt lat="44.00745" lon="2.08423">
        <ele>286</ele>
        <time>2011-03-26T14:05:06Z</time>
      </trkpt>
      <trkpt lat="44.00747" lon="2.08418">
        <ele>286</ele>
        <time>2011-03-26T14:05:07Z</time>
      </trkpt>
      <trkpt lat="44.00748" lon="2.08414">
        <ele>286</ele>
        <time>2011-03-26T14:05:08Z</time>
      </trkpt>
      <trkpt lat="44.00749" lon="2.08411">
        <ele>286</ele>
        <time>2011-03-26T14:05:09Z</time>
      </trkpt>
      <trkpt lat="44.0075" lon="2.08407">
        <ele>286</ele>
        <time>2011-03-26T14:05:10Z</time>
      </trkpt>
      <trkpt lat="44.00751" lon="2.08403">
        <ele>286</ele>
        <time>2011-03-26T14:05:11Z</time>
      </trkpt>
      <trkpt lat="44.00752" lon="2.08399">
        <ele>286</ele>
        <time>2011-03-26T14:05:12Z</time>
      </trkpt>
      <trkpt lat="44.00753" lon="2.08395">
        <ele>286</ele>
        <time>2011-03-26T14:05:13Z</time>
      </trkpt>
      <trkpt lat="44.00754" lon="2.08391">
        <ele>286</ele>
        <time>2011-03-26T14:05:14Z</time>
      </trkpt>
      <trkpt lat="44.00755" lon="2.08388">
        <ele>286</ele>
        <time>2011-03-26T14:05:15Z</time>
      </trkpt>
      <trkpt lat="44.00756" lon="2.08383">
        <ele>286</ele>
        <time>2011-03-26T14:05:16Z</time>
      </trkpt>
      <trkpt lat="44.00757" lon="2.08379">
        <ele>286</ele>
        <time>2011-03-26T14:05:17Z</time>
      </trkpt>
      <trkpt lat="44.00758" lon="2.08375">
        <ele>290</ele>
        <time>2011-03-26T14:05:18Z</time>
      </trkpt>
      <trkpt lat="44.00759" lon="2.08371">
        <ele>290</ele>
        <time>2011-03-26T14:05:19Z</time>
      </trkpt>
      <trkpt lat="44.0076" lon="2.08366">
        <ele>290</ele>
        <time>2011-03-26T14:05:20Z</time>
      </trkpt>
      <trkpt lat="44.00761" lon="2.08362">
        <ele>290</ele>
        <time>2011-03-26T14:05:21Z</time>
      </trkpt>
      <trkpt lat="44.00762" lon="2.08358">
        <ele>290</ele>
        <time>2011-03-26T14:05:22Z</time>
      </trkpt>
      <trkpt lat="44.00763" lon="2.08354">
        <ele>290</ele>
        <time>2011-03-26T14:05:23Z</time>
      </trkpt>
      <trkpt lat="44.00764" lon="2.0835">
        <ele>290</ele>
        <time>2011-03-26T14:05:24Z</time>
      </trkpt>
      <trkpt lat="44.00765" lon="2.08347">
        <ele>290</ele>
        <time>2011-03-26T14:05:25Z</time>
      </trkpt>
      <trkpt lat="44.00766" lon="2.08343">
        <ele>290</ele>
        <time>2011-03-26T14:05:26Z</time>
      </trkpt>
      <trkpt lat="44.00767" lon="2.08339">
        <ele>290</ele>
        <time>2011-03-26T14:05:27Z</time>
      </trkpt>
      <trkpt lat="44.00768" lon="2.08336">
        <ele>290</ele>
        <time>2011-03-26T14:05:28Z</time>
      </trkpt>
      <trkpt lat="44.00769" lon="2.08332">
        <ele>290</ele>
        <time>2011-03-26T14:05:29Z</time>
      </trkpt>
      <trkpt lat="44.0077" lon="2.08329">
        <ele>290</ele>
        <time>2011-03-26T14:05:30Z</time>
      </trkpt>
      <trkpt lat="44.00771" lon="2.08326">
        <ele>290</ele>
        <time>2011-03-26T14:05:31Z</time>
      </trkpt>
      <trkpt lat="44.00772" lon="2.08322">
        <ele>290</ele>
        <time>2011-03-26T14:05:32Z</time>
      </trkpt>
      <trkpt lat="44.00772" lon="2.08319">
        <ele>290</ele>
        <time>2011-03-26T14:05:33Z</time>
      </trkpt>
      <trkpt lat="44.00773" lon="2.08315">
        <ele>290</ele>
        <time>2011-03-26T14:05:34Z</time>
      </trkpt>
      <trkpt lat="44.00774" lon="2.08312">
        <ele>290</ele>
        <time>2011-03-26T14:05:35Z</time>
      </trkpt>
      <trkpt lat="44.00775" lon="2.08308">
        <ele>290</ele>
        <time>2011-03-26T14:05:36Z</time>
      </trkpt>
      <trkpt lat="44.00776" lon="2.08305">
        <ele>290</ele>
        <time>2011-03-26T14:05:37Z</time>
      </trkpt>
      <trkpt lat="44.00777" lon="2.08302">
        <ele>290</ele>
        <time>2011-03-26T14:05:38Z</time>
      </trkpt>
      <trkpt lat="44.00778" lon="2.08299">
        <ele>290</ele>
        <time>2011-03-26T14:05:39Z</time>
      </trkpt>
      <trkpt lat="44.00779" lon="2.08296">
        <ele>290</ele>
        <time>2011-03-26T14:05:40Z</time>
      </trkpt>
      <trkpt lat="44.0078" lon="2.0829">
        <ele>293</ele>
        <time>2011-03-26T14:05:42Z</time>
      </trkpt>
      <trkpt lat="44.00781" lon="2.08285">
        <ele>293</ele>
        <time>2011-03-26T14:05:44Z</time>
      </trkpt>
      <trkpt lat="44.00783" lon="2.08279">
        <ele>293</ele>
        <time>2011-03-26T14:05:46Z</time>
      </trkpt>
      <trkpt lat="44.00784" lon="2.08274">
        <ele>293</ele>
        <time>2011-03-26T14:05:48Z</time>
      </trkpt>
      <trkpt lat="44.00785" lon="2.08268">
        <ele>293</ele>
        <time>2011-03-26T14:05:50Z</time>
      </trkpt>
      <trkpt lat="44.00787" lon="2.08262">
        <ele>293</ele>
        <time>2011-03-26T14:05:52Z</time>
      </trkpt>
      <trkpt lat="44.00789" lon="2.08256">
        <ele>293</ele>
        <time>2011-03-26T14:05:54Z</time>
      </trkpt>
      <trkpt lat="44.0079" lon="2.08251">
        <ele>293</ele>
        <time>2011-03-26T14:05:56Z</time>
      </trkpt>
      <trkpt lat="44.00791" lon="2.08248">
        <ele>293</ele>
        <time>2011-03-26T14:05:57Z</time>
      </trkpt>
      <trkpt lat="44.00792" lon="2.08245">
        <ele>292</ele>
        <time>2011-03-26T14:05:58Z</time>
      </trkpt>
      <trkpt lat="44.00793" lon="2.08242">
        <ele>292</ele>
        <time>2011-03-26T14:05:59Z</time>
      </trkpt>
      <trkpt lat="44.00794" lon="2.08238">
        <ele>292</ele>
        <time>2011-03-26T14:06:00Z</time>
      </trkpt>
      <trkpt lat="44.00795" lon="2.08235">
        <ele>292</ele>
        <time>2011-03-26T14:06:01Z</time>
      </trkpt>
      <trkpt lat="44.00795" lon="2.08232">
        <ele>292</ele>
        <time>2011-03-26T14:06:02Z</time>
      </trkpt>
      <trkpt lat="44.00796" lon="2.08229">
        <ele>292</ele>
        <time>2011-03-26T14:06:03Z</time>
      </trkpt>
      <trkpt lat="44.00797" lon="2.08226">
        <ele>292</ele>
        <time>2011-03-26T14:06:04Z</time>
      </trkpt>
      <trkpt lat="44.00797" lon="2.08223">
        <ele>292</ele>
        <time>2011-03-26T14:06:05Z</time>
      </trkpt>
      <trkpt lat="44.00798" lon="2.0822">
        <ele>292</ele>
        <time>2011-03-26T14:06:06Z</time>
      </trkpt>
      <trkpt lat="44.00799" lon="2.08217">
        <ele>292</ele>
        <time>2011-03-26T14:06:07Z</time>
      </trkpt>
      <trkpt lat="44.008" lon="2.08211">
        <ele>292</ele>
        <time>2011-03-26T14:06:09Z</time>
      </trkpt>
      <trkpt lat="44.00801" lon="2.08208">
        <ele>298</ele>
        <time>2011-03-26T14:06:10Z</time>
      </trkpt>
      <trkpt lat="44.00802" lon="2.08202">
        <ele>298</ele>
        <time>2011-03-26T14:06:12Z</time>
      </trkpt>
      <trkpt lat="44.00803" lon="2.08196">
        <ele>298</ele>
        <time>2011-03-26T14:06:14Z</time>
      </trkpt>
      <trkpt lat="44.00804" lon="2.08191">
        <ele>298</ele>
        <time>2011-03-26T14:06:16Z</time>
      </trkpt>
      <trkpt lat="44.00806" lon="2.08185">
        <ele>298</ele>
        <time>2011-03-26T14:06:18Z</time>
      </trkpt>
      <trkpt lat="44.00808" lon="2.0818">
        <ele>298</ele>
        <time>2011-03-26T14:06:20Z</time>
      </trkpt>
      <trkpt lat="44.0081" lon="2.08175">
        <ele>298</ele>
        <time>2011-03-26T14:06:22Z</time>
      </trkpt>
      <trkpt lat="44.00813" lon="2.0817">
        <ele>298</ele>
        <time>2011-03-26T14:06:24Z</time>
      </trkpt>
      <trkpt lat="44.00814" lon="2.08167">
        <ele>298</ele>
        <time>2011-03-26T14:06:25Z</time>
      </trkpt>
      <trkpt lat="44.00815" lon="2.08164">
        <ele>298</ele>
        <time>2011-03-26T14:06:26Z</time>
      </trkpt>
      <trkpt lat="44.00817" lon="2.08162">
        <ele>298</ele>
        <time>2011-03-26T14:06:27Z</time>
      </trkpt>
      <trkpt lat="44.00819" lon="2.08159">
        <ele>298</ele>
        <time>2011-03-26T14:06:28Z</time>
      </trkpt>
      <trkpt lat="44.0082" lon="2.08156">
        <ele>298</ele>
        <time>2011-03-26T14:06:29Z</time>
      </trkpt>
      <trkpt lat="44.00822" lon="2.08154">
        <ele>298</ele>
        <time>2011-03-26T14:06:30Z</time>
      </trkpt>
      <trkpt lat="44.00823" lon="2.08151">
        <ele>298</ele>
        <time>2011-03-26T14:06:31Z</time>
      </trkpt>
      <trkpt lat="44.00825" lon="2.08149">
        <ele>298</ele>
        <time>2011-03-26T14:06:32Z</time>
      </trkpt>
      <trkpt lat="44.00828" lon="2.08144">
        <ele>298</ele>
        <time>2011-03-26T14:06:34Z</time>
      </trkpt>
      <trkpt lat="44.0083" lon="2.08139">
        <ele>298</ele>
        <time>2011-03-26T14:06:36Z</time>
      </trkpt>
      <trkpt lat="44.00833" lon="2.08134">
        <ele>298</ele>
        <time>2011-03-26T14:06:38Z</time>
      </trkpt>
      <trkpt lat="44.00834" lon="2.08131">
        <ele>298</ele>
        <time>2011-03-26T14:06:39Z</time>
      </trkpt>
      <trkpt lat="44.00836" lon="2.08127">
        <ele>298</ele>
        <time>2011-03-26T14:06:41Z</time>
      </trkpt>
      <trkpt lat="44.00839" lon="2.08122">
        <ele>308</ele>
        <time>2011-03-26T14:06:43Z</time>
      </trkpt>
      <trkpt lat="44.00842" lon="2.08118">
        <ele>308</ele>
        <time>2011-03-26T14:06:45Z</time>
      </trkpt>
      <trkpt lat="44.00845" lon="2.08115">
        <ele>308</ele>
        <time>2011-03-26T14:06:47Z</time>
      </trkpt>
      <trkpt lat="44.00846" lon="2.0811">
        <ele>308</ele>
        <time>2011-03-26T14:06:49Z</time>
      </trkpt>
      <trkpt lat="44.00848" lon="2.08107">
        <ele>308</ele>
        <time>2011-03-26T14:06:51Z</time>
      </trkpt>
      <trkpt lat="44.00851" lon="2.08104">
        <ele>308</ele>
        <time>2011-03-26T14:06:53Z</time>
      </trkpt>
      <trkpt lat="44.00854" lon="2.081">
        <ele>308</ele>
        <time>2011-03-26T14:06:55Z</time>
      </trkpt>
      <trkpt lat="44.00857" lon="2.08096">
        <ele>308</ele>
        <time>2011-03-26T14:06:57Z</time>
      </trkpt>
      <trkpt lat="44.0086" lon="2.08092">
        <ele>308</ele>
        <time>2011-03-26T14:06:59Z</time>
      </trkpt>
      <trkpt lat="44.00863" lon="2.08088">
        <ele>308</ele>
        <time>2011-03-26T14:07:01Z</time>
      </trkpt>
      <trkpt lat="44.00865" lon="2.08083">
        <ele>308</ele>
        <time>2011-03-26T14:07:03Z</time>
      </trkpt>
      <trkpt lat="44.00866" lon="2.08077">
        <ele>308</ele>
        <time>2011-03-26T14:07:05Z</time>
      </trkpt>
      <trkpt lat="44.00867" lon="2.08071">
        <ele>308</ele>
        <time>2011-03-26T14:07:07Z</time>
      </trkpt>
      <trkpt lat="44.00867" lon="2.08068">
        <ele>308</ele>
        <time>2011-03-26T14:07:08Z</time>
      </trkpt>
      <trkpt lat="44.00867" lon="2.08064">
        <ele>308</ele>
        <time>2011-03-26T14:07:09Z</time>
      </trkpt>
      <trkpt lat="44.00866" lon="2.08061">
        <ele>308</ele>
        <time>2011-03-26T14:07:10Z</time>
      </trkpt>
      <trkpt lat="44.00865" lon="2.08058">
        <ele>308</ele>
        <time>2011-03-26T14:07:11Z</time>
      </trkpt>
      <trkpt lat="44.00865" lon="2.08054">
        <ele>308</ele>
        <time>2011-03-26T14:07:12Z</time>
      </trkpt>
      <trkpt lat="44.00864" lon="2.08051">
        <ele>308</ele>
        <time>2011-03-26T14:07:13Z</time>
      </trkpt>
      <trkpt lat="44.00863" lon="2.08047">
        <ele>308</ele>
        <time>2011-03-26T14:07:14Z</time>
      </trkpt>
      <trkpt lat="44.00862" lon="2.08044">
        <ele>308</ele>
        <time>2011-03-26T14:07:15Z</time>
      </trkpt>
      <trkpt lat="44.00861" lon="2.0804">
        <ele>312</ele>
        <time>2011-03-26T14:07:16Z</time>
      </trkpt>
      <trkpt lat="44.0086" lon="2.08036">
        <ele>312</ele>
        <time>2011-03-26T14:07:17Z</time>
      </trkpt>
      <trkpt lat="44.00859" lon="2.08033">
        <ele>312</ele>
        <time>2011-03-26T14:07:18Z</time>
      </trkpt>
      <trkpt lat="44.00859" lon="2.08029">
        <ele>312</ele>
        <time>2011-03-26T14:07:19Z</time>
      </trkpt>
      <trkpt lat="44.00858" lon="2.08026">
        <ele>312</ele>
        <time>2011-03-26T14:07:20Z</time>
      </trkpt>
      <trkpt lat="44.00858" lon="2.08023">
        <ele>312</ele>
        <time>2011-03-26T14:07:21Z</time>
      </trkpt>
      <trkpt lat="44.00858" lon="2.08019">
        <ele>312</ele>
        <time>2011-03-26T14:07:22Z</time>
      </trkpt>
      <trkpt lat="44.00857" lon="2.08016">
        <ele>312</ele>
        <time>2011-03-26T14:07:23Z</time>
      </trkpt>
      <trkpt lat="44.00857" lon="2.08013">
        <ele>312</ele>
        <time>2011-03-26T14:07:24Z</time>
      </trkpt>
      <trkpt lat="44.00857" lon="2.08009">
        <ele>312</ele>
        <time>2011-03-26T14:07:25Z</time>
      </trkpt>
      <trkpt lat="44.00857" lon="2.08005">
        <ele>312</ele>
        <time>2011-03-26T14:07:26Z</time>
      </trkpt>
      <trkpt lat="44.00856" lon="2.08002">
        <ele>312</ele>
        <time>2011-03-26T14:07:27Z</time>
      </trkpt>
      <trkpt lat="44.00856" lon="2.07998">
        <ele>312</ele>
        <time>2011-03-26T14:07:28Z</time>
      </trkpt>
      <trkpt lat="44.00856" lon="2.07994">
        <ele>312</ele>
        <time>2011-03-26T14:07:29Z</time>
      </trkpt>
      <trkpt lat="44.00855" lon="2.07989">
        <ele>312</ele>
        <time>2011-03-26T14:07:30Z</time>
      </trkpt>
      <trkpt lat="44.00855" lon="2.07986">
        <ele>312</ele>
        <time>2011-03-26T14:07:31Z</time>
      </trkpt>
      <trkpt lat="44.00854" lon="2.07982">
        <ele>312</ele>
        <time>2011-03-26T14:07:32Z</time>
      </trkpt>
      <trkpt lat="44.00854" lon="2.07978">
        <ele>312</ele>
        <time>2011-03-26T14:07:33Z</time>
      </trkpt>
      <trkpt lat="44.00853" lon="2.07974">
        <ele>312</ele>
        <time>2011-03-26T14:07:34Z</time>
      </trkpt>
      <trkpt lat="44.00853" lon="2.0797">
        <ele>312</ele>
        <time>2011-03-26T14:07:35Z</time>
      </trkpt>
      <trkpt lat="44.00853" lon="2.07966">
        <ele>312</ele>
        <time>2011-03-26T14:07:36Z</time>
      </trkpt>
      <trkpt lat="44.00852" lon="2.07962">
        <ele>312</ele>
        <time>2011-03-26T14:07:37Z</time>
      </trkpt>
      <trkpt lat="44.00852" lon="2.07957">
        <ele>314</ele>
        <time>2011-03-26T14:07:38Z</time>
      </trkpt>
      <trkpt lat="44.00852" lon="2.07953">
        <ele>314</ele>
        <time>2011-03-26T14:07:39Z</time>
      </trkpt>
      <trkpt lat="44.00852" lon="2.07949">
        <ele>314</ele>
        <time>2011-03-26T14:07:40Z</time>
      </trkpt>
      <trkpt lat="44.00852" lon="2.07945">
        <ele>314</ele>
        <time>2011-03-26T14:07:41Z</time>
      </trkpt>
      <trkpt lat="44.00852" lon="2.0794">
        <ele>314</ele>
        <time>2011-03-26T14:07:42Z</time>
      </trkpt>
      <trkpt lat="44.00852" lon="2.07935">
        <ele>314</ele>
        <time>2011-03-26T14:07:43Z</time>
      </trkpt>
      <trkpt lat="44.00852" lon="2.0793">
        <ele>314</ele>
        <time>2011-03-26T14:07:44Z</time>
      </trkpt>
      <trkpt lat="44.00852" lon="2.07926">
        <ele>314</ele>
        <time>2011-03-26T14:07:45Z</time>
      </trkpt>
      <trkpt lat="44.00852" lon="2.07921">
        <ele>314</ele>
        <time>2011-03-26T14:07:46Z</time>
      </trkpt>
      <trkpt lat="44.00852" lon="2.07916">
        <ele>314</ele>
        <time>2011-03-26T14:07:47Z</time>
      </trkpt>
      <trkpt lat="44.00852" lon="2.07911">
        <ele>314</ele>
        <time>2011-03-26T14:07:48Z</time>
      </trkpt>
      <trkpt lat="44.00853" lon="2.07906">
        <ele>314</ele>
        <time>2011-03-26T14:07:49Z</time>
      </trkpt>
      <trkpt lat="44.00853" lon="2.07901">
        <ele>314</ele>
        <time>2011-03-26T14:07:50Z</time>
      </trkpt>
      <trkpt lat="44.00853" lon="2.07896">
        <ele>314</ele>
        <time>2011-03-26T14:07:51Z</time>
      </trkpt>
      <trkpt lat="44.00854" lon="2.07891">
        <ele>314</ele>
        <time>2011-03-26T14:07:52Z</time>
      </trkpt>
      <trkpt lat="44.00854" lon="2.07886">
        <ele>314</ele>
        <time>2011-03-26T14:07:53Z</time>
      </trkpt>
      <trkpt lat="44.00854" lon="2.07881">
        <ele>314</ele>
        <time>2011-03-26T14:07:54Z</time>
      </trkpt>
      <trkpt lat="44.00854" lon="2.07875">
        <ele>314</ele>
        <time>2011-03-26T14:07:55Z</time>
      </trkpt>
      <trkpt lat="44.00854" lon="2.07869">
        <ele>314</ele>
        <time>2011-03-26T14:07:56Z</time>
      </trkpt>
      <trkpt lat="44.00855" lon="2.07864">
        <ele>314</ele>
        <time>2011-03-26T14:07:57Z</time>
      </trkpt>
      <trkpt lat="44.00855" lon="2.07858">
        <ele>314</ele>
        <time>2011-03-26T14:07:58Z</time>
      </trkpt>
      <trkpt lat="44.00855" lon="2.07853">
        <ele>314</ele>
        <time>2011-03-26T14:07:59Z</time>
      </trkpt>
      <trkpt lat="44.00855" lon="2.07847">
        <ele>314</ele>
        <time>2011-03-26T14:08:00Z</time>
      </trkpt>
      <trkpt lat="44.00854" lon="2.07842">
        <ele>314</ele>
        <time>2011-03-26T14:08:01Z</time>
      </trkpt>
      <trkpt lat="44.00854" lon="2.07837">
        <ele>314</ele>
        <time>2011-03-26T14:08:02Z</time>
      </trkpt>
      <trkpt lat="44.00854" lon="2.07832">
        <ele>314</ele>
        <time>2011-03-26T14:08:03Z</time>
      </trkpt>
      <trkpt lat="44.00855" lon="2.07827">
        <ele>314</ele>
        <time>2011-03-26T14:08:04Z</time>
      </trkpt>
      <trkpt lat="44.00857" lon="2.07824">
        <ele>314</ele>
        <time>2011-03-26T14:08:05Z</time>
      </trkpt>
      <trkpt lat="44.00859" lon="2.07822">
        <ele>314</ele>
        <time>2011-03-26T14:08:06Z</time>
      </trkpt>
      <trkpt lat="44.00861" lon="2.0782">
        <ele>314</ele>
        <time>2011-03-26T14:08:07Z</time>
      </trkpt>
      <trkpt lat="44.00864" lon="2.07819">
        <ele>314</ele>
        <time>2011-03-26T14:08:08Z</time>
      </trkpt>
      <trkpt lat="44.00866" lon="2.07819">
        <ele>314</ele>
        <time>2011-03-26T14:08:09Z</time>
      </trkpt>
      <trkpt lat="44.0087" lon="2.07817">
        <ele>314</ele>
        <time>2011-03-26T14:08:11Z</time>
      </trkpt>
      <trkpt lat="44.00872" lon="2.07815">
        <ele>314</ele>
        <time>2011-03-26T14:08:12Z</time>
      </trkpt>
      <trkpt lat="44.00875" lon="2.07814">
        <ele>313</ele>
        <time>2011-03-26T14:08:13Z</time>
      </trkpt>
      <trkpt lat="44.00878" lon="2.07813">
        <ele>313</ele>
        <time>2011-03-26T14:08:14Z</time>
      </trkpt>
      <trkpt lat="44.00882" lon="2.07813">
        <ele>313</ele>
        <time>2011-03-26T14:08:15Z</time>
      </trkpt>
      <trkpt lat="44.00885" lon="2.07812">
        <ele>313</ele>
        <time>2011-03-26T14:08:16Z</time>
      </trkpt>
      <trkpt lat="44.00888" lon="2.07811">
        <ele>313</ele>
        <time>2011-03-26T14:08:17Z</time>
      </trkpt>
      <trkpt lat="44.00892" lon="2.0781">
        <ele>313</ele>
        <time>2011-03-26T14:08:18Z</time>
      </trkpt>
      <trkpt lat="44.00896" lon="2.07809">
        <ele>313</ele>
        <time>2011-03-26T14:08:19Z</time>
      </trkpt>
      <trkpt lat="44.009" lon="2.07808">
        <ele>313</ele>
        <time>2011-03-26T14:08:20Z</time>
      </trkpt>
      <trkpt lat="44.00903" lon="2.07807">
        <ele>313</ele>
        <time>2011-03-26T14:08:21Z</time>
      </trkpt>
      <trkpt lat="44.00907" lon="2.07806">
        <ele>313</ele>
        <time>2011-03-26T14:08:22Z</time>
      </trkpt>
      <trkpt lat="44.0091" lon="2.07805">
        <ele>313</ele>
        <time>2011-03-26T14:08:23Z</time>
      </trkpt>
      <trkpt lat="44.00914" lon="2.07804">
        <ele>313</ele>
        <time>2011-03-26T14:08:24Z</time>
      </trkpt>
      <trkpt lat="44.00918" lon="2.07803">
        <ele>313</ele>
        <time>2011-03-26T14:08:25Z</time>
      </trkpt>
      <trkpt lat="44.00921" lon="2.07803">
        <ele>313</ele>
        <time>2011-03-26T14:08:26Z</time>
      </trkpt>
      <trkpt lat="44.00925" lon="2.07802">
        <ele>313</ele>
        <time>2011-03-26T14:08:27Z</time>
      </trkpt>
      <trkpt lat="44.00929" lon="2.07801">
        <ele>313</ele>
        <time>2011-03-26T14:08:28Z</time>
      </trkpt>
      <trkpt lat="44.00933" lon="2.07801">
        <ele>313</ele>
        <time>2011-03-26T14:08:29Z</time>
      </trkpt>
      <trkpt lat="44.00936" lon="2.078">
        <ele>313</ele>
        <time>2011-03-26T14:08:30Z</time>
      </trkpt>
      <trkpt lat="44.0094" lon="2.07799">
        <ele>313</ele>
        <time>2011-03-26T14:08:31Z</time>
      </trkpt>
      <trkpt lat="44.00944" lon="2.07798">
        <ele>313</ele>
        <time>2011-03-26T14:08:32Z</time>
      </trkpt>
      <trkpt lat="44.00947" lon="2.07798">
        <ele>313</ele>
        <time>2011-03-26T14:08:33Z</time>
      </trkpt>
      <trkpt lat="44.00951" lon="2.07797">
        <ele>313</ele>
        <time>2011-03-26T14:08:34Z</time>
      </trkpt>
      <trkpt lat="44.00954" lon="2.07796">
        <ele>313</ele>
        <time>2011-03-26T14:08:35Z</time>
      </trkpt>
      <trkpt lat="44.00958" lon="2.07796">
        <ele>313</ele>
        <time>2011-03-26T14:08:36Z</time>
      </trkpt>
      <trkpt lat="44.00961" lon="2.07795">
        <ele>312</ele>
        <time>2011-03-26T14:08:37Z</time>
      </trkpt>
      <trkpt lat="44.00964" lon="2.07793">
        <ele>312</ele>
        <time>2011-03-26T14:08:38Z</time>
      </trkpt>
      <trkpt lat="44.00963" lon="2.07788">
        <ele>314</ele>
        <time>2011-03-26T14:08:39Z</time>
      </trkpt>
      <trkpt lat="44.00962" lon="2.07783">
        <ele>314</ele>
        <time>2011-03-26T14:08:40Z</time>
      </trkpt>
      <trkpt lat="44.00961" lon="2.07778">
        <ele>314</ele>
        <time>2011-03-26T14:08:41Z</time>
      </trkpt>
      <trkpt lat="44.0096" lon="2.07772">
        <ele>314</ele>
        <time>2011-03-26T14:08:42Z</time>
      </trkpt>
      <trkpt lat="44.00958" lon="2.07766">
        <ele>314</ele>
        <time>2011-03-26T14:08:43Z</time>
      </trkpt>
      <trkpt lat="44.00956" lon="2.0776">
        <ele>314</ele>
        <time>2011-03-26T14:08:44Z</time>
      </trkpt>
      <trkpt lat="44.00954" lon="2.07753">
        <ele>314</ele>
        <time>2011-03-26T14:08:45Z</time>
      </trkpt>
      <trkpt lat="44.00952" lon="2.07746">
        <ele>314</ele>
        <time>2011-03-26T14:08:46Z</time>
      </trkpt>
      <trkpt lat="44.00951" lon="2.07739">
        <ele>314</ele>
        <time>2011-03-26T14:08:47Z</time>
      </trkpt>
      <trkpt lat="44.00949" lon="2.07732">
        <ele>314</ele>
        <time>2011-03-26T14:08:48Z</time>
      </trkpt>
      <trkpt lat="44.00947" lon="2.07725">
        <ele>314</ele>
        <time>2011-03-26T14:08:49Z</time>
      </trkpt>
      <trkpt lat="44.00945" lon="2.07718">
        <ele>314</ele>
        <time>2011-03-26T14:08:50Z</time>
      </trkpt>
      <trkpt lat="44.00943" lon="2.07711">
        <ele>314</ele>
        <time>2011-03-26T14:08:51Z</time>
      </trkpt>
      <trkpt lat="44.00942" lon="2.07705">
        <ele>312</ele>
        <time>2011-03-26T14:08:52Z</time>
      </trkpt>
      <trkpt lat="44.0094" lon="2.07698">
        <ele>312</ele>
        <time>2011-03-26T14:08:53Z</time>
      </trkpt>
      <trkpt lat="44.00938" lon="2.07692">
        <ele>312</ele>
        <time>2011-03-26T14:08:54Z</time>
      </trkpt>
      <trkpt lat="44.00937" lon="2.07685">
        <ele>312</ele>
        <time>2011-03-26T14:08:55Z</time>
      </trkpt>
      <trkpt lat="44.00935" lon="2.07679">
        <ele>312</ele>
        <time>2011-03-26T14:08:56Z</time>
      </trkpt>
      <trkpt lat="44.00932" lon="2.07673">
        <ele>312</ele>
        <time>2011-03-26T14:08:57Z</time>
      </trkpt>
      <trkpt lat="44.0093" lon="2.07666">
        <ele>312</ele>
        <time>2011-03-26T14:08:58Z</time>
      </trkpt>
      <trkpt lat="44.00928" lon="2.0766">
        <ele>312</ele>
        <time>2011-03-26T14:08:59Z</time>
      </trkpt>
      <trkpt lat="44.00927" lon="2.07654">
        <ele>312</ele>
        <time>2011-03-26T14:09:00Z</time>
      </trkpt>
      <trkpt lat="44.00926" lon="2.07648">
        <ele>312</ele>
        <time>2011-03-26T14:09:01Z</time>
      </trkpt>
      <trkpt lat="44.00925" lon="2.07643">
        <ele>312</ele>
        <time>2011-03-26T14:09:02Z</time>
      </trkpt>
      <trkpt lat="44.00925" lon="2.07638">
        <ele>312</ele>
        <time>2011-03-26T14:09:03Z</time>
      </trkpt>
      <trkpt lat="44.00927" lon="2.07634">
        <ele>312</ele>
        <time>2011-03-26T14:09:04Z</time>
      </trkpt>
      <trkpt lat="44.0093" lon="2.07632">
        <ele>312</ele>
        <time>2011-03-26T14:09:05Z</time>
      </trkpt>
      <trkpt lat="44.00933" lon="2.0763">
        <ele>312</ele>
        <time>2011-03-26T14:09:06Z</time>
      </trkpt>
      <trkpt lat="44.00937" lon="2.07627">
        <ele>312</ele>
        <time>2011-03-26T14:09:07Z</time>
      </trkpt>
      <trkpt lat="44.0094" lon="2.07624">
        <ele>308</ele>
        <time>2011-03-26T14:09:08Z</time>
      </trkpt>
      <trkpt lat="44.00944" lon="2.07622">
        <ele>308</ele>
        <time>2011-03-26T14:09:09Z</time>
      </trkpt>
      <trkpt lat="44.00947" lon="2.07619">
        <ele>308</ele>
        <time>2011-03-26T14:09:10Z</time>
      </trkpt>
      <trkpt lat="44.00951" lon="2.07616">
        <ele>308</ele>
        <time>2011-03-26T14:09:11Z</time>
      </trkpt>
      <trkpt lat="44.00954" lon="2.07613">
        <ele>308</ele>
        <time>2011-03-26T14:09:12Z</time>
      </trkpt>
      <trkpt lat="44.00958" lon="2.0761">
        <ele>308</ele>
        <time>2011-03-26T14:09:13Z</time>
      </trkpt>
      <trkpt lat="44.00962" lon="2.07607">
        <ele>312</ele>
        <time>2011-03-26T14:09:14Z</time>
      </trkpt>
      <trkpt lat="44.00965" lon="2.07603">
        <ele>312</ele>
        <time>2011-03-26T14:09:15Z</time>
      </trkpt>
      <trkpt lat="44.00968" lon="2.07599">
        <ele>312</ele>
        <time>2011-03-26T14:09:16Z</time>
      </trkpt>
      <trkpt lat="44.00972" lon="2.07595">
        <ele>312</ele>
        <time>2011-03-26T14:09:17Z</time>
      </trkpt>
      <trkpt lat="44.00975" lon="2.07591">
        <ele>312</ele>
        <time>2011-03-26T14:09:18Z</time>
      </trkpt>
      <trkpt lat="44.00979" lon="2.07587">
        <ele>312</ele>
        <time>2011-03-26T14:09:19Z</time>
      </trkpt>
      <trkpt lat="44.00982" lon="2.07583">
        <ele>312</ele>
        <time>2011-03-26T14:09:20Z</time>
      </trkpt>
      <trkpt lat="44.00985" lon="2.07578">
        <ele>312</ele>
        <time>2011-03-26T14:09:21Z</time>
      </trkpt>
      <trkpt lat="44.00988" lon="2.07574">
        <ele>312</ele>
        <time>2011-03-26T14:09:22Z</time>
      </trkpt>
      <trkpt lat="44.00991" lon="2.07569">
        <ele>312</ele>
        <time>2011-03-26T14:09:23Z</time>
      </trkpt>
      <trkpt lat="44.00994" lon="2.07564">
        <ele>312</ele>
        <time>2011-03-26T14:09:24Z</time>
      </trkpt>
      <trkpt lat="44.00997" lon="2.0756">
        <ele>312</ele>
        <time>2011-03-26T14:09:25Z</time>
      </trkpt>
      <trkpt lat="44.01" lon="2.07555">
        <ele>312</ele>
        <time>2011-03-26T14:09:26Z</time>
      </trkpt>
      <trkpt lat="44.01002" lon="2.07551">
        <ele>312</ele>
        <time>2011-03-26T14:09:27Z</time>
      </trkpt>
      <trkpt lat="44.01006" lon="2.07547">
        <ele>312</ele>
        <time>2011-03-26T14:09:28Z</time>
      </trkpt>
      <trkpt lat="44.01009" lon="2.07542">
        <ele>312</ele>
        <time>2011-03-26T14:09:29Z</time>
      </trkpt>
      <trkpt lat="44.01012" lon="2.07538">
        <ele>313</ele>
        <time>2011-03-26T14:09:30Z</time>
      </trkpt>
      <trkpt lat="44.01015" lon="2.07534">
        <ele>313</ele>
        <time>2011-03-26T14:09:31Z</time>
      </trkpt>
      <trkpt lat="44.01019" lon="2.07529">
        <ele>313</ele>
        <time>2011-03-26T14:09:32Z</time>
      </trkpt>
      <trkpt lat="44.01022" lon="2.07525">
        <ele>313</ele>
        <time>2011-03-26T14:09:33Z</time>
      </trkpt>
      <trkpt lat="44.01026" lon="2.07522">
        <ele>313</ele>
        <time>2011-03-26T14:09:34Z</time>
      </trkpt>
      <trkpt lat="44.0103" lon="2.07518">
        <ele>313</ele>
        <time>2011-03-26T14:09:35Z</time>
      </trkpt>
      <trkpt lat="44.01034" lon="2.07515">
        <ele>313</ele>
        <time>2011-03-26T14:09:36Z</time>
      </trkpt>
      <trkpt lat="44.01038" lon="2.07512">
        <ele>313</ele>
        <time>2011-03-26T14:09:37Z</time>
      </trkpt>
      <trkpt lat="44.01042" lon="2.07509">
        <ele>315</ele>
        <time>2011-03-26T14:09:38Z</time>
      </trkpt>
      <trkpt lat="44.01046" lon="2.07507">
        <ele>315</ele>
        <time>2011-03-26T14:09:39Z</time>
      </trkpt>
      <trkpt lat="44.0105" lon="2.07504">
        <ele>315</ele>
        <time>2011-03-26T14:09:40Z</time>
      </trkpt>
      <trkpt lat="44.01054" lon="2.07501">
        <ele>315</ele>
        <time>2011-03-26T14:09:41Z</time>
      </trkpt>
      <trkpt lat="44.01058" lon="2.07498">
        <ele>315</ele>
        <time>2011-03-26T14:09:42Z</time>
      </trkpt>
      <trkpt lat="44.01062" lon="2.07496">
        <ele>315</ele>
        <time>2011-03-26T14:09:43Z</time>
      </trkpt>
      <trkpt lat="44.01066" lon="2.07492">
        <ele>315</ele>
        <time>2011-03-26T14:09:44Z</time>
      </trkpt>
      <trkpt lat="44.01068" lon="2.07487">
        <ele>315</ele>
        <time>2011-03-26T14:09:45Z</time>
      </trkpt>
      <trkpt lat="44.01069" lon="2.07483">
        <ele>315</ele>
        <time>2011-03-26T14:09:46Z</time>
      </trkpt>
      <trkpt lat="44.01069" lon="2.07478">
        <ele>315</ele>
        <time>2011-03-26T14:09:47Z</time>
      </trkpt>
      <trkpt lat="44.01068" lon="2.07473">
        <ele>315</ele>
        <time>2011-03-26T14:09:48Z</time>
      </trkpt>
      <trkpt lat="44.01067" lon="2.07468">
        <ele>315</ele>
        <time>2011-03-26T14:09:49Z</time>
      </trkpt>
      <trkpt lat="44.01066" lon="2.07465">
        <ele>315</ele>
        <time>2011-03-26T14:09:50Z</time>
      </trkpt>
      <trkpt lat="44.01066" lon="2.07461">
        <ele>315</ele>
        <time>2011-03-26T14:09:51Z</time>
      </trkpt>
      <trkpt lat="44.01065" lon="2.07458">
        <ele>315</ele>
        <time>2011-03-26T14:09:52Z</time>
      </trkpt>
      <trkpt lat="44.01064" lon="2.07454">
        <ele>315</ele>
        <time>2011-03-26T14:09:53Z</time>
      </trkpt>
      <trkpt lat="44.01062" lon="2.07452">
        <ele>315</ele>
        <time>2011-03-26T14:09:54Z</time>
      </trkpt>
      <trkpt lat="44.0106" lon="2.0745">
        <ele>315</ele>
        <time>2011-03-26T14:09:55Z</time>
      </trkpt>
      <trkpt lat="44.01058" lon="2.07449">
        <ele>315</ele>
        <time>2011-03-26T14:09:56Z</time>
      </trkpt>
      <trkpt lat="44.01055" lon="2.07449">
        <ele>315</ele>
        <time>2011-03-26T14:09:57Z</time>
      </trkpt>
      <trkpt lat="44.01051" lon="2.07448">
        <ele>315</ele>
        <time>2011-03-26T14:09:58Z</time>
      </trkpt>
      <trkpt lat="44.01048" lon="2.07446">
        <ele>315</ele>
        <time>2011-03-26T14:09:59Z</time>
      </trkpt>
      <trkpt lat="44.01044" lon="2.07445">
        <ele>315</ele>
        <time>2011-03-26T14:10:00Z</time>
      </trkpt>
      <trkpt lat="44.0104" lon="2.07444">
        <ele>313</ele>
        <time>2011-03-26T14:10:01Z</time>
      </trkpt>
      <trkpt lat="44.01036" lon="2.07443">
        <ele>313</ele>
        <time>2011-03-26T14:10:02Z</time>
      </trkpt>
      <trkpt lat="44.01032" lon="2.07441">
        <ele>313</ele>
        <time>2011-03-26T14:10:03Z</time>
      </trkpt>
      <trkpt lat="44.01028" lon="2.07439">
        <ele>313</ele>
        <time>2011-03-26T14:10:04Z</time>
      </trkpt>
      <trkpt lat="44.01024" lon="2.07438">
        <ele>313</ele>
        <time>2011-03-26T14:10:05Z</time>
      </trkpt>
      <trkpt lat="44.0102" lon="2.07436">
        <ele>313</ele>
        <time>2011-03-26T14:10:06Z</time>
      </trkpt>
      <trkpt lat="44.01016" lon="2.07435">
        <ele>313</ele>
        <time>2011-03-26T14:10:07Z</time>
      </trkpt>
      <trkpt lat="44.01012" lon="2.07434">
        <ele>313</ele>
        <time>2011-03-26T14:10:08Z</time>
      </trkpt>
      <trkpt lat="44.01008" lon="2.07432">
        <ele>313</ele>
        <time>2011-03-26T14:10:09Z</time>
      </trkpt>
      <trkpt lat="44.01004" lon="2.0743">
        <ele>313</ele>
        <time>2011-03-26T14:10:10Z</time>
      </trkpt>
      <trkpt lat="44.00999" lon="2.07429">
        <ele>313</ele>
        <time>2011-03-26T14:10:11Z</time>
      </trkpt>
      <trkpt lat="44.00995" lon="2.07428">
        <ele>313</ele>
        <time>2011-03-26T14:10:12Z</time>
      </trkpt>
      <trkpt lat="44.00991" lon="2.07427">
        <ele>313</ele>
        <time>2011-03-26T14:10:13Z</time>
      </trkpt>
      <trkpt lat="44.00987" lon="2.07426">
        <ele>313</ele>
        <time>2011-03-26T14:10:14Z</time>
      </trkpt>
      <trkpt lat="44.00984" lon="2.07424">
        <ele>313</ele>
        <time>2011-03-26T14:10:15Z</time>
      </trkpt>
      <trkpt lat="44.0098" lon="2.07423">
        <ele>313</ele>
        <time>2011-03-26T14:10:16Z</time>
      </trkpt>
      <trkpt lat="44.00977" lon="2.07421">
        <ele>313</ele>
        <time>2011-03-26T14:10:17Z</time>
      </trkpt>
      <trkpt lat="44.00973" lon="2.07419">
        <ele>313</ele>
        <time>2011-03-26T14:10:18Z</time>
      </trkpt>
      <trkpt lat="44.00969" lon="2.07418">
        <ele>313</ele>
        <time>2011-03-26T14:10:19Z</time>
      </trkpt>
      <trkpt lat="44.00965" lon="2.07416">
        <ele>313</ele>
        <time>2011-03-26T14:10:20Z</time>
      </trkpt>
      <trkpt lat="44.00961" lon="2.07415">
        <ele>313</ele>
        <time>2011-03-26T14:10:21Z</time>
      </trkpt>
      <trkpt lat="44.00956" lon="2.07414">
        <ele>307</ele>
        <time>2011-03-26T14:10:22Z</time>
      </trkpt>
      <trkpt lat="44.00952" lon="2.07413">
        <ele>307</ele>
        <time>2011-03-26T14:10:23Z</time>
      </trkpt>
      <trkpt lat="44.00948" lon="2.07411">
        <ele>307</ele>
        <time>2011-03-26T14:10:24Z</time>
      </trkpt>
      <trkpt lat="44.00944" lon="2.07411">
        <ele>307</ele>
        <time>2011-03-26T14:10:25Z</time>
      </trkpt>
      <trkpt lat="44.00941" lon="2.07409">
        <ele>307</ele>
        <time>2011-03-26T14:10:27Z</time>
      </trkpt>
      <trkpt lat="44.0094" lon="2.07406">
        <ele>307</ele>
        <time>2011-03-26T14:10:29Z</time>
      </trkpt>
      <trkpt lat="44.00938" lon="2.07404">
        <ele>307</ele>
        <time>2011-03-26T14:10:38Z</time>
      </trkpt>
      <trkpt lat="44.00934" lon="2.07406">
        <ele>307</ele>
        <time>2011-03-26T14:10:50Z</time>
      </trkpt>
      <trkpt lat="44.00934" lon="2.07406">
        <ele>307</ele>
        <time>2011-03-26T14:10:52Z</time>
      </trkpt>
      <trkpt lat="44.00931" lon="2.07405">
        <ele>307</ele>
        <time>2011-03-26T14:11:20Z</time>
      </trkpt>
      <trkpt lat="44.00928" lon="2.07404">
        <ele>307</ele>
        <time>2011-03-26T14:11:22Z</time>
      </trkpt>
      <trkpt lat="44.00926" lon="2.07401">
        <ele>307</ele>
        <time>2011-03-26T14:11:24Z</time>
      </trkpt>
      <trkpt lat="44.00923" lon="2.07399">
        <ele>307</ele>
        <time>2011-03-26T14:11:32Z</time>
      </trkpt>
      <trkpt lat="44.0092" lon="2.07398">
        <ele>307</ele>
        <time>2011-03-26T14:11:34Z</time>
      </trkpt>
      <trkpt lat="44.00917" lon="2.07393">
        <ele>307</ele>
        <time>2011-03-26T14:11:36Z</time>
      </trkpt>
      <trkpt lat="44.00915" lon="2.07389">
        <ele>307</ele>
        <time>2011-03-26T14:11:37Z</time>
      </trkpt>
      <trkpt lat="44.00913" lon="2.07385">
        <ele>307</ele>
        <time>2011-03-26T14:11:38Z</time>
      </trkpt>
      <trkpt lat="44.00909" lon="2.0738">
        <ele>307</ele>
        <time>2011-03-26T14:11:39Z</time>
      </trkpt>
      <trkpt lat="44.00906" lon="2.07374">
        <ele>306</ele>
        <time>2011-03-26T14:11:40Z</time>
      </trkpt>
      <trkpt lat="44.00902" lon="2.07368">
        <ele>306</ele>
        <time>2011-03-26T14:11:41Z</time>
      </trkpt>
      <trkpt lat="44.00897" lon="2.0736">
        <ele>306</ele>
        <time>2011-03-26T14:11:42Z</time>
      </trkpt>
      <trkpt lat="44.00892" lon="2.07353">
        <ele>306</ele>
        <time>2011-03-26T14:11:43Z</time>
      </trkpt>
      <trkpt lat="44.00887" lon="2.07345">
        <ele>306</ele>
        <time>2011-03-26T14:11:44Z</time>
      </trkpt>
      <trkpt lat="44.00881" lon="2.07341">
        <ele>306</ele>
        <time>2011-03-26T14:11:45Z</time>
      </trkpt>
      <trkpt lat="44.00874" lon="2.0734">
        <ele>296</ele>
        <time>2011-03-26T14:11:46Z</time>
      </trkpt>
      <trkpt lat="44.00866" lon="2.07339">
        <ele>296</ele>
        <time>2011-03-26T14:11:47Z</time>
      </trkpt>
      <trkpt lat="44.00858" lon="2.07338">
        <ele>296</ele>
        <time>2011-03-26T14:11:48Z</time>
      </trkpt>
      <trkpt lat="44.00849" lon="2.07337">
        <ele>296</ele>
        <time>2011-03-26T14:11:49Z</time>
      </trkpt>
      <trkpt lat="44.00842" lon="2.07334">
        <ele>296</ele>
        <time>2011-03-26T14:11:50Z</time>
      </trkpt>
      <trkpt lat="44.00833" lon="2.07329">
        <ele>296</ele>
        <time>2011-03-26T14:11:51Z</time>
      </trkpt>
      <trkpt lat="44.00824" lon="2.07325">
        <ele>296</ele>
        <time>2011-03-26T14:11:52Z</time>
      </trkpt>
      <trkpt lat="44.00814" lon="2.07324">
        <ele>296</ele>
        <time>2011-03-26T14:11:53Z</time>
      </trkpt>
      <trkpt lat="44.00804" lon="2.07323">
        <ele>296</ele>
        <time>2011-03-26T14:11:54Z</time>
      </trkpt>
      <trkpt lat="44.00795" lon="2.07324">
        <ele>296</ele>
        <time>2011-03-26T14:11:55Z</time>
      </trkpt>
      <trkpt lat="44.00786" lon="2.07325">
        <ele>294</ele>
        <time>2011-03-26T14:11:56Z</time>
      </trkpt>
      <trkpt lat="44.00779" lon="2.07323">
        <ele>294</ele>
        <time>2011-03-26T14:11:57Z</time>
      </trkpt>
      <trkpt lat="44.00773" lon="2.0732">
        <ele>294</ele>
        <time>2011-03-26T14:11:58Z</time>
      </trkpt>
      <trkpt lat="44.00768" lon="2.07316">
        <ele>294</ele>
        <time>2011-03-26T14:11:59Z</time>
      </trkpt>
      <trkpt lat="44.00764" lon="2.07312">
        <ele>294</ele>
        <time>2011-03-26T14:12:00Z</time>
      </trkpt>
      <trkpt lat="44.00761" lon="2.07308">
        <ele>294</ele>
        <time>2011-03-26T14:12:01Z</time>
      </trkpt>
      <trkpt lat="44.00759" lon="2.07305">
        <ele>294</ele>
        <time>2011-03-26T14:12:02Z</time>
      </trkpt>
      <trkpt lat="44.00757" lon="2.07302">
        <ele>294</ele>
        <time>2011-03-26T14:12:03Z</time>
      </trkpt>
      <trkpt lat="44.00755" lon="2.073">
        <ele>294</ele>
        <time>2011-03-26T14:12:04Z</time>
      </trkpt>
      <trkpt lat="44.00753" lon="2.07297">
        <ele>294</ele>
        <time>2011-03-26T14:12:05Z</time>
      </trkpt>
      <trkpt lat="44.00751" lon="2.07295">
        <ele>294</ele>
        <time>2011-03-26T14:12:06Z</time>
      </trkpt>
      <trkpt lat="44.0075" lon="2.07293">
        <ele>294</ele>
        <time>2011-03-26T14:12:07Z</time>
      </trkpt>
      <trkpt lat="44.00746" lon="2.07289">
        <ele>295</ele>
        <time>2011-03-26T14:12:09Z</time>
      </trkpt>
      <trkpt lat="44.00745" lon="2.07287">
        <ele>295</ele>
        <time>2011-03-26T14:12:10Z</time>
      </trkpt>
      <trkpt lat="44.00741" lon="2.07284">
        <ele>295</ele>
        <time>2011-03-26T14:12:12Z</time>
      </trkpt>
      <trkpt lat="44.00739" lon="2.07282">
        <ele>295</ele>
        <time>2011-03-26T14:12:14Z</time>
      </trkpt>
      <trkpt lat="44.00737" lon="2.07278">
        <ele>295</ele>
        <time>2011-03-26T14:12:16Z</time>
      </trkpt>
      <trkpt lat="44.00734" lon="2.07275">
        <ele>295</ele>
        <time>2011-03-26T14:12:18Z</time>
      </trkpt>
      <trkpt lat="44.00731" lon="2.07273">
        <ele>295</ele>
        <time>2011-03-26T14:12:20Z</time>
      </trkpt>
      <trkpt lat="44.00729" lon="2.07272">
        <ele>295</ele>
        <time>2011-03-26T14:12:21Z</time>
      </trkpt>
      <trkpt lat="44.00726" lon="2.0727">
        <ele>295</ele>
        <time>2011-03-26T14:12:23Z</time>
      </trkpt>
      <trkpt lat="44.00724" lon="2.07267">
        <ele>295</ele>
        <time>2011-03-26T14:12:25Z</time>
      </trkpt>
      <trkpt lat="44.00723" lon="2.07266">
        <ele>295</ele>
        <time>2011-03-26T14:12:26Z</time>
      </trkpt>
      <trkpt lat="44.00721" lon="2.07264">
        <ele>295</ele>
        <time>2011-03-26T14:12:28Z</time>
      </trkpt>
      <trkpt lat="44.00719" lon="2.07261">
        <ele>295</ele>
        <time>2011-03-26T14:12:30Z</time>
      </trkpt>
      <trkpt lat="44.00716" lon="2.07259">
        <ele>295</ele>
        <time>2011-03-26T14:12:32Z</time>
      </trkpt>
      <trkpt lat="44.00713" lon="2.07258">
        <ele>295</ele>
        <time>2011-03-26T14:12:34Z</time>
      </trkpt>
      <trkpt lat="44.00711" lon="2.07257">
        <ele>295</ele>
        <time>2011-03-26T14:12:36Z</time>
      </trkpt>
      <trkpt lat="44.00708" lon="2.07254">
        <ele>309</ele>
        <time>2011-03-26T14:12:38Z</time>
      </trkpt>
      <trkpt lat="44.00705" lon="2.07252">
        <ele>309</ele>
        <time>2011-03-26T14:12:40Z</time>
      </trkpt>
      <trkpt lat="44.00702" lon="2.0725">
        <ele>309</ele>
        <time>2011-03-26T14:12:42Z</time>
      </trkpt>
      <trkpt lat="44.00699" lon="2.07247">
        <ele>309</ele>
        <time>2011-03-26T14:12:44Z</time>
      </trkpt>
      <trkpt lat="44.00695" lon="2.07245">
        <ele>309</ele>
        <time>2011-03-26T14:12:46Z</time>
      </trkpt>
      <trkpt lat="44.00694" lon="2.07243">
        <ele>309</ele>
        <time>2011-03-26T14:12:47Z</time>
      </trkpt>
      <trkpt lat="44.0069" lon="2.07241">
        <ele>309</ele>
        <time>2011-03-26T14:12:49Z</time>
      </trkpt>
      <trkpt lat="44.00688" lon="2.0724">
        <ele>309</ele>
        <time>2011-03-26T14:12:50Z</time>
      </trkpt>
      <trkpt lat="44.00685" lon="2.0724">
        <ele>309</ele>
        <time>2011-03-26T14:12:51Z</time>
      </trkpt>
      <trkpt lat="44.00683" lon="2.07239">
        <ele>309</ele>
        <time>2011-03-26T14:12:52Z</time>
      </trkpt>
      <trkpt lat="44.00681" lon="2.07238">
        <ele>309</ele>
        <time>2011-03-26T14:12:53Z</time>
      </trkpt>
      <trkpt lat="44.00678" lon="2.07238">
        <ele>309</ele>
        <time>2011-03-26T14:12:54Z</time>
      </trkpt>
      <trkpt lat="44.00676" lon="2.07238">
        <ele>309</ele>
        <time>2011-03-26T14:12:55Z</time>
      </trkpt>
      <trkpt lat="44.00674" lon="2.07239">
        <ele>309</ele>
        <time>2011-03-26T14:12:56Z</time>
      </trkpt>
      <trkpt lat="44.00671" lon="2.07239">
        <ele>309</ele>
        <time>2011-03-26T14:12:57Z</time>
      </trkpt>
      <trkpt lat="44.00669" lon="2.0724">
        <ele>309</ele>
        <time>2011-03-26T14:12:58Z</time>
      </trkpt>
      <trkpt lat="44.00666" lon="2.07241">
        <ele>309</ele>
        <time>2011-03-26T14:12:59Z</time>
      </trkpt>
      <trkpt lat="44.00664" lon="2.07242">
        <ele>309</ele>
        <time>2011-03-26T14:13:00Z</time>
      </trkpt>
      <trkpt lat="44.0066" lon="2.07243">
        <ele>309</ele>
        <time>2011-03-26T14:13:01Z</time>
      </trkpt>
      <trkpt lat="44.00657" lon="2.07244">
        <ele>309</ele>
        <time>2011-03-26T14:13:02Z</time>
      </trkpt>
      <trkpt lat="44.00655" lon="2.07244">
        <ele>309</ele>
        <time>2011-03-26T14:13:03Z</time>
      </trkpt>
      <trkpt lat="44.00652" lon="2.07244">
        <ele>309</ele>
        <time>2011-03-26T14:13:04Z</time>
      </trkpt>
      <trkpt lat="44.00649" lon="2.07243">
        <ele>309</ele>
        <time>2011-03-26T14:13:05Z</time>
      </trkpt>
      <trkpt lat="44.00646" lon="2.07242">
        <ele>309</ele>
        <time>2011-03-26T14:13:06Z</time>
      </trkpt>
      <trkpt lat="44.00643" lon="2.0724">
        <ele>309</ele>
        <time>2011-03-26T14:13:07Z</time>
      </trkpt>
      <trkpt lat="44.00639" lon="2.07238">
        <ele>309</ele>
        <time>2011-03-26T14:13:08Z</time>
      </trkpt>
      <trkpt lat="44.00635" lon="2.07236">
        <ele>309</ele>
        <time>2011-03-26T14:13:09Z</time>
      </trkpt>
      <trkpt lat="44.00631" lon="2.07233">
        <ele>309</ele>
        <time>2011-03-26T14:13:10Z</time>
      </trkpt>
      <trkpt lat="44.00628" lon="2.07231">
        <ele>309</ele>
        <time>2011-03-26T14:13:11Z</time>
      </trkpt>
      <trkpt lat="44.00624" lon="2.07228">
        <ele>304</ele>
        <time>2011-03-26T14:13:12Z</time>
      </trkpt>
      <trkpt lat="44.0062" lon="2.07223">
        <ele>304</ele>
        <time>2011-03-26T14:13:13Z</time>
      </trkpt>
      <trkpt lat="44.00617" lon="2.07219">
        <ele>304</ele>
        <time>2011-03-26T14:13:14Z</time>
      </trkpt>
      <trkpt lat="44.00613" lon="2.07216">
        <ele>304</ele>
        <time>2011-03-26T14:13:15Z</time>
      </trkpt>
      <trkpt lat="44.00608" lon="2.07213">
        <ele>304</ele>
        <time>2011-03-26T14:13:16Z</time>
      </trkpt>
      <trkpt lat="44.00604" lon="2.07212">
        <ele>304</ele>
        <time>2011-03-26T14:13:17Z</time>
      </trkpt>
      <trkpt lat="44.006" lon="2.07212">
        <ele>304</ele>
        <time>2011-03-26T14:13:18Z</time>
      </trkpt>
      <trkpt lat="44.00595" lon="2.07216">
        <ele>304</ele>
        <time>2011-03-26T14:13:19Z</time>
      </trkpt>
      <trkpt lat="44.00591" lon="2.0722">
        <ele>304</ele>
        <time>2011-03-26T14:13:20Z</time>
      </trkpt>
      <trkpt lat="44.00588" lon="2.07223">
        <ele>304</ele>
        <time>2011-03-26T14:13:21Z</time>
      </trkpt>
      <trkpt lat="44.00586" lon="2.07227">
        <ele>304</ele>
        <time>2011-03-26T14:13:23Z</time>
      </trkpt>
      <trkpt lat="44.00585" lon="2.07229">
        <ele>304</ele>
        <time>2011-03-26T14:13:25Z</time>
      </trkpt>
      <trkpt lat="44.00582" lon="2.07232">
        <ele>304</ele>
        <time>2011-03-26T14:13:27Z</time>
      </trkpt>
      <trkpt lat="44.00578" lon="2.0723">
        <ele>304</ele>
        <time>2011-03-26T14:13:31Z</time>
      </trkpt>
      <trkpt lat="44.00579" lon="2.07226">
        <ele>304</ele>
        <time>2011-03-26T14:13:32Z</time>
      </trkpt>
      <trkpt lat="44.0058" lon="2.07223">
        <ele>304</ele>
        <time>2011-03-26T14:13:33Z</time>
      </trkpt>
      <trkpt lat="44.0058" lon="2.07219">
        <ele>304</ele>
        <time>2011-03-26T14:13:34Z</time>
      </trkpt>
      <trkpt lat="44.0058" lon="2.07215">
        <ele>304</ele>
        <time>2011-03-26T14:13:35Z</time>
      </trkpt>
      <trkpt lat="44.0058" lon="2.07212">
        <ele>304</ele>
        <time>2011-03-26T14:13:36Z</time>
      </trkpt>
      <trkpt lat="44.00581" lon="2.07209">
        <ele>304</ele>
        <time>2011-03-26T14:13:37Z</time>
      </trkpt>
      <trkpt lat="44.0058" lon="2.07205">
        <ele>296</ele>
        <time>2011-03-26T14:13:38Z</time>
      </trkpt>
      <trkpt lat="44.0058" lon="2.07201">
        <ele>296</ele>
        <time>2011-03-26T14:13:39Z</time>
      </trkpt>
      <trkpt lat="44.00579" lon="2.07197">
        <ele>296</ele>
        <time>2011-03-26T14:13:40Z</time>
      </trkpt>
      <trkpt lat="44.00578" lon="2.07191">
        <ele>296</ele>
        <time>2011-03-26T14:13:41Z</time>
      </trkpt>
      <trkpt lat="44.00576" lon="2.07185">
        <ele>296</ele>
        <time>2011-03-26T14:13:42Z</time>
      </trkpt>
      <trkpt lat="44.00573" lon="2.07178">
        <ele>296</ele>
        <time>2011-03-26T14:13:43Z</time>
      </trkpt>
      <trkpt lat="44.0057" lon="2.0717">
        <ele>296</ele>
        <time>2011-03-26T14:13:44Z</time>
      </trkpt>
      <trkpt lat="44.00567" lon="2.07162">
        <ele>296</ele>
        <time>2011-03-26T14:13:45Z</time>
      </trkpt>
      <trkpt lat="44.00563" lon="2.07155">
        <ele>296</ele>
        <time>2011-03-26T14:13:46Z</time>
      </trkpt>
      <trkpt lat="44.0056" lon="2.07148">
        <ele>296</ele>
        <time>2011-03-26T14:13:47Z</time>
      </trkpt>
      <trkpt lat="44.00556" lon="2.07141">
        <ele>296</ele>
        <time>2011-03-26T14:13:48Z</time>
      </trkpt>
      <trkpt lat="44.00552" lon="2.07134">
        <ele>296</ele>
        <time>2011-03-26T14:13:49Z</time>
      </trkpt>
      <trkpt lat="44.00549" lon="2.07128">
        <ele>296</ele>
        <time>2011-03-26T14:13:50Z</time>
      </trkpt>
      <trkpt lat="44.00547" lon="2.07122">
        <ele>292</ele>
        <time>2011-03-26T14:13:51Z</time>
      </trkpt>
      <trkpt lat="44.00546" lon="2.07116">
        <ele>292</ele>
        <time>2011-03-26T14:13:52Z</time>
      </trkpt>
      <trkpt lat="44.00547" lon="2.07111">
        <ele>292</ele>
        <time>2011-03-26T14:13:53Z</time>
      </trkpt>
      <trkpt lat="44.00547" lon="2.07105">
        <ele>292</ele>
        <time>2011-03-26T14:13:54Z</time>
      </trkpt>
      <trkpt lat="44.00548" lon="2.071">
        <ele>292</ele>
        <time>2011-03-26T14:13:55Z</time>
      </trkpt>
      <trkpt lat="44.00548" lon="2.07094">
        <ele>292</ele>
        <time>2011-03-26T14:13:56Z</time>
      </trkpt>
      <trkpt lat="44.00549" lon="2.0709">
        <ele>292</ele>
        <time>2011-03-26T14:13:57Z</time>
      </trkpt>
      <trkpt lat="44.00549" lon="2.07086">
        <ele>292</ele>
        <time>2011-03-26T14:13:58Z</time>
      </trkpt>
      <trkpt lat="44.0055" lon="2.07083">
        <ele>292</ele>
        <time>2011-03-26T14:13:59Z</time>
      </trkpt>
      <trkpt lat="44.00551" lon="2.0708">
        <ele>292</ele>
        <time>2011-03-26T14:14:00Z</time>
      </trkpt>
      <trkpt lat="44.00552" lon="2.07076">
        <ele>292</ele>
        <time>2011-03-26T14:14:01Z</time>
      </trkpt>
      <trkpt lat="44.00554" lon="2.07073">
        <ele>292</ele>
        <time>2011-03-26T14:14:02Z</time>
      </trkpt>
      <trkpt lat="44.00555" lon="2.0707">
        <ele>292</ele>
        <time>2011-03-26T14:14:03Z</time>
      </trkpt>
      <trkpt lat="44.00557" lon="2.07065">
        <ele>292</ele>
        <time>2011-03-26T14:14:05Z</time>
      </trkpt>
      <trkpt lat="44.00557" lon="2.07062">
        <ele>292</ele>
        <time>2011-03-26T14:14:06Z</time>
      </trkpt>
      <trkpt lat="44.00558" lon="2.07059">
        <ele>292</ele>
        <time>2011-03-26T14:14:07Z</time>
      </trkpt>
      <trkpt lat="44.00558" lon="2.07055">
        <ele>292</ele>
        <time>2011-03-26T14:14:08Z</time>
      </trkpt>
      <trkpt lat="44.00559" lon="2.07052">
        <ele>292</ele>
        <time>2011-03-26T14:14:09Z</time>
      </trkpt>
      <trkpt lat="44.00561" lon="2.07047">
        <ele>292</ele>
        <time>2011-03-26T14:14:11Z</time>
      </trkpt>
      <trkpt lat="44.00563" lon="2.07043">
        <ele>292</ele>
        <time>2011-03-26T14:14:13Z</time>
      </trkpt>
      <trkpt lat="44.00565" lon="2.07039">
        <ele>286</ele>
        <time>2011-03-26T14:14:15Z</time>
      </trkpt>
      <trkpt lat="44.00565" lon="2.07031">
        <ele>286</ele>
        <time>2011-03-26T14:14:18Z</time>
      </trkpt>
      <trkpt lat="44.00563" lon="2.07029">
        <ele>286</ele>
        <time>2011-03-26T14:14:19Z</time>
      </trkpt>
      <trkpt lat="44.00561" lon="2.07027">
        <ele>286</ele>
        <time>2011-03-26T14:14:20Z</time>
      </trkpt>
      <trkpt lat="44.00558" lon="2.07023">
        <ele>286</ele>
        <time>2011-03-26T14:14:21Z</time>
      </trkpt>
      <trkpt lat="44.00556" lon="2.07018">
        <ele>286</ele>
        <time>2011-03-26T14:14:22Z</time>
      </trkpt>
      <trkpt lat="44.00554" lon="2.07013">
        <ele>286</ele>
        <time>2011-03-26T14:14:23Z</time>
      </trkpt>
      <trkpt lat="44.00552" lon="2.07008">
        <ele>286</ele>
        <time>2011-03-26T14:14:24Z</time>
      </trkpt>
      <trkpt lat="44.00549" lon="2.07003">
        <ele>286</ele>
        <time>2011-03-26T14:14:25Z</time>
      </trkpt>
      <trkpt lat="44.00547" lon="2.07">
        <ele>286</ele>
        <time>2011-03-26T14:14:26Z</time>
      </trkpt>
      <trkpt lat="44.00544" lon="2.06997">
        <ele>286</ele>
        <time>2011-03-26T14:14:27Z</time>
      </trkpt>
      <trkpt lat="44.00542" lon="2.06994">
        <ele>286</ele>
        <time>2011-03-26T14:14:28Z</time>
      </trkpt>
      <trkpt lat="44.00539" lon="2.06993">
        <ele>285</ele>
        <time>2011-03-26T14:14:29Z</time>
      </trkpt>
      <trkpt lat="44.00536" lon="2.06992">
        <ele>285</ele>
        <time>2011-03-26T14:14:30Z</time>
      </trkpt>
      <trkpt lat="44.00532" lon="2.06991">
        <ele>285</ele>
        <time>2011-03-26T14:14:31Z</time>
      </trkpt>
      <trkpt lat="44.00527" lon="2.0699">
        <ele>285</ele>
        <time>2011-03-26T14:14:32Z</time>
      </trkpt>
      <trkpt lat="44.00522" lon="2.06989">
        <ele>285</ele>
        <time>2011-03-26T14:14:33Z</time>
      </trkpt>
      <trkpt lat="44.00518" lon="2.06989">
        <ele>285</ele>
        <time>2011-03-26T14:14:34Z</time>
      </trkpt>
      <trkpt lat="44.00514" lon="2.06989">
        <ele>285</ele>
        <time>2011-03-26T14:14:35Z</time>
      </trkpt>
      <trkpt lat="44.00509" lon="2.0699">
        <ele>285</ele>
        <time>2011-03-26T14:14:36Z</time>
      </trkpt>
      <trkpt lat="44.00505" lon="2.06991">
        <ele>285</ele>
        <time>2011-03-26T14:14:37Z</time>
      </trkpt>
      <trkpt lat="44.00502" lon="2.06992">
        <ele>285</ele>
        <time>2011-03-26T14:14:38Z</time>
      </trkpt>
      <trkpt lat="44.00499" lon="2.06992">
        <ele>285</ele>
        <time>2011-03-26T14:14:39Z</time>
      </trkpt>
      <trkpt lat="44.00499" lon="2.06992">
        <ele>285</ele>
        <time>2011-03-26T14:14:48Z</time>
      </trkpt>
      <trkpt lat="44.00496" lon="2.06991">
        <ele>285</ele>
        <time>2011-03-26T14:14:59Z</time>
      </trkpt>
      <trkpt lat="44.00496" lon="2.06986">
        <ele>285</ele>
        <time>2011-03-26T14:15:02Z</time>
      </trkpt>
      <trkpt lat="44.00498" lon="2.06984">
        <ele>285</ele>
        <time>2011-03-26T14:15:04Z</time>
      </trkpt>
      <trkpt lat="44.00497" lon="2.0698">
        <ele>285</ele>
        <time>2011-03-26T14:15:07Z</time>
      </trkpt>
      <trkpt lat="44.00496" lon="2.06976">
        <ele>285</ele>
        <time>2011-03-26T14:15:10Z</time>
      </trkpt>
      <trkpt lat="44.00498" lon="2.06971">
        <ele>285</ele>
        <time>2011-03-26T14:15:12Z</time>
      </trkpt>
      <trkpt lat="44.00499" lon="2.06967">
        <ele>285</ele>
        <time>2011-03-26T14:15:13Z</time>
      </trkpt>
      <trkpt lat="44.005" lon="2.06963">
        <ele>285</ele>
        <time>2011-03-26T14:15:14Z</time>
      </trkpt>
      <trkpt lat="44.00501" lon="2.06958">
        <ele>275</ele>
        <time>2011-03-26T14:15:16Z</time>
      </trkpt>
      <trkpt lat="44.00498" lon="2.06955">
        <ele>275</ele>
        <time>2011-03-26T14:15:18Z</time>
      </trkpt>
      <trkpt lat="44.00496" lon="2.06956">
        <ele>275</ele>
        <time>2011-03-26T14:15:19Z</time>
      </trkpt>
      <trkpt lat="44.00492" lon="2.06958">
        <ele>275</ele>
        <time>2011-03-26T14:15:20Z</time>
      </trkpt>
      <trkpt lat="44.00488" lon="2.0696">
        <ele>285</ele>
        <time>2011-03-26T14:15:21Z</time>
      </trkpt>
      <trkpt lat="44.00484" lon="2.06962">
        <ele>285</ele>
        <time>2011-03-26T14:15:22Z</time>
      </trkpt>
      <trkpt lat="44.00479" lon="2.06965">
        <ele>285</ele>
        <time>2011-03-26T14:15:23Z</time>
      </trkpt>
      <trkpt lat="44.00473" lon="2.06967">
        <ele>285</ele>
        <time>2011-03-26T14:15:24Z</time>
      </trkpt>
      <trkpt lat="44.00467" lon="2.06967">
        <ele>285</ele>
        <time>2011-03-26T14:15:25Z</time>
      </trkpt>
      <trkpt lat="44.00461" lon="2.06964">
        <ele>285</ele>
        <time>2011-03-26T14:15:26Z</time>
      </trkpt>
      <trkpt lat="44.00455" lon="2.06959">
        <ele>275</ele>
        <time>2011-03-26T14:15:27Z</time>
      </trkpt>
      <trkpt lat="44.0045" lon="2.06953">
        <ele>270</ele>
        <time>2011-03-26T14:15:28Z</time>
      </trkpt>
      <trkpt lat="44.00445" lon="2.06946">
        <ele>270</ele>
        <time>2011-03-26T14:15:29Z</time>
      </trkpt>
      <trkpt lat="44.00439" lon="2.06939">
        <ele>270</ele>
        <time>2011-03-26T14:15:30Z</time>
      </trkpt>
      <trkpt lat="44.00434" lon="2.06933">
        <ele>270</ele>
        <time>2011-03-26T14:15:31Z</time>
      </trkpt>
      <trkpt lat="44.00427" lon="2.06928">
        <ele>270</ele>
        <time>2011-03-26T14:15:32Z</time>
      </trkpt>
      <trkpt lat="44.00419" lon="2.06924">
        <ele>270</ele>
        <time>2011-03-26T14:15:33Z</time>
      </trkpt>
      <trkpt lat="44.00411" lon="2.0692">
        <ele>270</ele>
        <time>2011-03-26T14:15:34Z</time>
      </trkpt>
      <trkpt lat="44.00402" lon="2.06917">
        <ele>270</ele>
        <time>2011-03-26T14:15:35Z</time>
      </trkpt>
      <trkpt lat="44.00393" lon="2.06914">
        <ele>270</ele>
        <time>2011-03-26T14:15:36Z</time>
      </trkpt>
      <trkpt lat="44.00386" lon="2.06911">
        <ele>270</ele>
        <time>2011-03-26T14:15:37Z</time>
      </trkpt>
      <trkpt lat="44.00379" lon="2.06909">
        <ele>270</ele>
        <time>2011-03-26T14:15:38Z</time>
      </trkpt>
      <trkpt lat="44.00374" lon="2.06906">
        <ele>272</ele>
        <time>2011-03-26T14:15:39Z</time>
      </trkpt>
      <trkpt lat="44.00369" lon="2.06902">
        <ele>272</ele>
        <time>2011-03-26T14:15:40Z</time>
      </trkpt>
      <trkpt lat="44.00367" lon="2.06897">
        <ele>272</ele>
        <time>2011-03-26T14:15:41Z</time>
      </trkpt>
      <trkpt lat="44.00366" lon="2.06891">
        <ele>272</ele>
        <time>2011-03-26T14:15:42Z</time>
      </trkpt>
      <trkpt lat="44.00367" lon="2.06885">
        <ele>272</ele>
        <time>2011-03-26T14:15:43Z</time>
      </trkpt>
      <trkpt lat="44.00368" lon="2.06879">
        <ele>272</ele>
        <time>2011-03-26T14:15:44Z</time>
      </trkpt>
      <trkpt lat="44.00368" lon="2.06874">
        <ele>273</ele>
        <time>2011-03-26T14:15:45Z</time>
      </trkpt>
      <trkpt lat="44.00369" lon="2.06868">
        <ele>273</ele>
        <time>2011-03-26T14:15:46Z</time>
      </trkpt>
      <trkpt lat="44.00369" lon="2.06862">
        <ele>273</ele>
        <time>2011-03-26T14:15:47Z</time>
      </trkpt>
      <trkpt lat="44.00369" lon="2.06856">
        <ele>273</ele>
        <time>2011-03-26T14:15:48Z</time>
      </trkpt>
      <trkpt lat="44.00369" lon="2.0685">
        <ele>273</ele>
        <time>2011-03-26T14:15:49Z</time>
      </trkpt>
      <trkpt lat="44.00368" lon="2.06845">
        <ele>273</ele>
        <time>2011-03-26T14:15:50Z</time>
      </trkpt>
      <trkpt lat="44.00368" lon="2.06839">
        <ele>273</ele>
        <time>2011-03-26T14:15:51Z</time>
      </trkpt>
      <trkpt lat="44.00368" lon="2.06835">
        <ele>273</ele>
        <time>2011-03-26T14:15:52Z</time>
      </trkpt>
      <trkpt lat="44.00368" lon="2.0683">
        <ele>273</ele>
        <time>2011-03-26T14:15:53Z</time>
      </trkpt>
      <trkpt lat="44.00368" lon="2.06826">
        <ele>273</ele>
        <time>2011-03-26T14:15:54Z</time>
      </trkpt>
      <trkpt lat="44.00368" lon="2.06822">
        <ele>273</ele>
        <time>2011-03-26T14:15:55Z</time>
      </trkpt>
      <trkpt lat="44.00368" lon="2.06818">
        <ele>273</ele>
        <time>2011-03-26T14:15:56Z</time>
      </trkpt>
      <trkpt lat="44.00367" lon="2.06814">
        <ele>273</ele>
        <time>2011-03-26T14:15:57Z</time>
      </trkpt>
      <trkpt lat="44.00367" lon="2.06809">
        <ele>273</ele>
        <time>2011-03-26T14:15:58Z</time>
      </trkpt>
      <trkpt lat="44.00367" lon="2.06805">
        <ele>273</ele>
        <time>2011-03-26T14:15:59Z</time>
      </trkpt>
      <trkpt lat="44.00368" lon="2.06802">
        <ele>273</ele>
        <time>2011-03-26T14:16:00Z</time>
      </trkpt>
      <trkpt lat="44.00368" lon="2.06798">
        <ele>273</ele>
        <time>2011-03-26T14:16:01Z</time>
      </trkpt>
      <trkpt lat="44.00368" lon="2.06793">
        <ele>273</ele>
        <time>2011-03-26T14:16:02Z</time>
      </trkpt>
      <trkpt lat="44.00366" lon="2.0679">
        <ele>277</ele>
        <time>2011-03-26T14:16:03Z</time>
      </trkpt>
      <trkpt lat="44.00364" lon="2.06786">
        <ele>277</ele>
        <time>2011-03-26T14:16:04Z</time>
      </trkpt>
      <trkpt lat="44.00362" lon="2.06783">
        <ele>277</ele>
        <time>2011-03-26T14:16:05Z</time>
      </trkpt>
      <trkpt lat="44.00359" lon="2.06779">
        <ele>277</ele>
        <time>2011-03-26T14:16:06Z</time>
      </trkpt>
      <trkpt lat="44.00356" lon="2.06776">
        <ele>277</ele>
        <time>2011-03-26T14:16:07Z</time>
      </trkpt>
      <trkpt lat="44.00354" lon="2.06773">
        <ele>277</ele>
        <time>2011-03-26T14:16:08Z</time>
      </trkpt>
      <trkpt lat="44.00351" lon="2.0677">
        <ele>277</ele>
        <time>2011-03-26T14:16:09Z</time>
      </trkpt>
      <trkpt lat="44.00348" lon="2.06768">
        <ele>277</ele>
        <time>2011-03-26T14:16:10Z</time>
      </trkpt>
      <trkpt lat="44.00346" lon="2.06766">
        <ele>277</ele>
        <time>2011-03-26T14:16:11Z</time>
      </trkpt>
      <trkpt lat="44.00343" lon="2.06764">
        <ele>277</ele>
        <time>2011-03-26T14:16:12Z</time>
      </trkpt>
      <trkpt lat="44.0034" lon="2.06763">
        <ele>277</ele>
        <time>2011-03-26T14:16:13Z</time>
      </trkpt>
      <trkpt lat="44.00338" lon="2.06762">
        <ele>277</ele>
        <time>2011-03-26T14:16:14Z</time>
      </trkpt>
      <trkpt lat="44.00335" lon="2.06761">
        <ele>277</ele>
        <time>2011-03-26T14:16:15Z</time>
      </trkpt>
      <trkpt lat="44.00333" lon="2.06761">
        <ele>277</ele>
        <time>2011-03-26T14:16:16Z</time>
      </trkpt>
      <trkpt lat="44.0033" lon="2.0676">
        <ele>277</ele>
        <time>2011-03-26T14:16:17Z</time>
      </trkpt>
      <trkpt lat="44.00327" lon="2.06761">
        <ele>277</ele>
        <time>2011-03-26T14:16:18Z</time>
      </trkpt>
      <trkpt lat="44.00324" lon="2.06762">
        <ele>277</ele>
        <time>2011-03-26T14:16:19Z</time>
      </trkpt>
      <trkpt lat="44.00322" lon="2.06763">
        <ele>277</ele>
        <time>2011-03-26T14:16:20Z</time>
      </trkpt>
      <trkpt lat="44.00319" lon="2.06764">
        <ele>277</ele>
        <time>2011-03-26T14:16:21Z</time>
      </trkpt>
      <trkpt lat="44.00316" lon="2.06765">
        <ele>277</ele>
        <time>2011-03-26T14:16:22Z</time>
      </trkpt>
      <trkpt lat="44.00313" lon="2.06765">
        <ele>277</ele>
        <time>2011-03-26T14:16:23Z</time>
      </trkpt>
      <trkpt lat="44.0031" lon="2.06764">
        <ele>277</ele>
        <time>2011-03-26T14:16:24Z</time>
      </trkpt>
      <trkpt lat="44.00308" lon="2.06763">
        <ele>277</ele>
        <time>2011-03-26T14:16:25Z</time>
      </trkpt>
      <trkpt lat="44.00305" lon="2.06762">
        <ele>277</ele>
        <time>2011-03-26T14:16:26Z</time>
      </trkpt>
      <trkpt lat="44.00302" lon="2.0676">
        <ele>277</ele>
        <time>2011-03-26T14:16:27Z</time>
      </trkpt>
      <trkpt lat="44.00299" lon="2.06759">
        <ele>277</ele>
        <time>2011-03-26T14:16:28Z</time>
      </trkpt>
      <trkpt lat="44.00296" lon="2.06757">
        <ele>277</ele>
        <time>2011-03-26T14:16:29Z</time>
      </trkpt>
      <trkpt lat="44.00294" lon="2.06756">
        <ele>277</ele>
        <time>2011-03-26T14:16:30Z</time>
      </trkpt>
      <trkpt lat="44.00291" lon="2.06755">
        <ele>274</ele>
        <time>2011-03-26T14:16:31Z</time>
      </trkpt>
      <trkpt lat="44.00287" lon="2.06754">
        <ele>274</ele>
        <time>2011-03-26T14:16:32Z</time>
      </trkpt>
      <trkpt lat="44.00284" lon="2.06752">
        <ele>274</ele>
        <time>2011-03-26T14:16:33Z</time>
      </trkpt>
      <trkpt lat="44.0028" lon="2.0675">
        <ele>274</ele>
        <time>2011-03-26T14:16:34Z</time>
      </trkpt>
      <trkpt lat="44.00277" lon="2.06749">
        <ele>274</ele>
        <time>2011-03-26T14:16:35Z</time>
      </trkpt>
      <trkpt lat="44.00274" lon="2.06747">
        <ele>274</ele>
        <time>2011-03-26T14:16:36Z</time>
      </trkpt>
      <trkpt lat="44.00271" lon="2.06745">
        <ele>274</ele>
        <time>2011-03-26T14:16:37Z</time>
      </trkpt>
      <trkpt lat="44.00267" lon="2.06743">
        <ele>274</ele>
        <time>2011-03-26T14:16:38Z</time>
      </trkpt>
      <trkpt lat="44.00263" lon="2.0674">
        <ele>274</ele>
        <time>2011-03-26T14:16:39Z</time>
      </trkpt>
      <trkpt lat="44.0026" lon="2.06736">
        <ele>274</ele>
        <time>2011-03-26T14:16:40Z</time>
      </trkpt>
      <trkpt lat="44.00256" lon="2.06732">
        <ele>274</ele>
        <time>2011-03-26T14:16:41Z</time>
      </trkpt>
      <trkpt lat="44.00252" lon="2.06728">
        <ele>274</ele>
        <time>2011-03-26T14:16:42Z</time>
      </trkpt>
      <trkpt lat="44.00249" lon="2.06722">
        <ele>274</ele>
        <time>2011-03-26T14:16:43Z</time>
      </trkpt>
      <trkpt lat="44.00246" lon="2.06716">
        <ele>274</ele>
        <time>2011-03-26T14:16:44Z</time>
      </trkpt>
      <trkpt lat="44.00243" lon="2.0671">
        <ele>274</ele>
        <time>2011-03-26T14:16:45Z</time>
      </trkpt>
      <trkpt lat="44.00241" lon="2.06704">
        <ele>277</ele>
        <time>2011-03-26T14:16:46Z</time>
      </trkpt>
      <trkpt lat="44.00238" lon="2.06698">
        <ele>277</ele>
        <time>2011-03-26T14:16:47Z</time>
      </trkpt>
      <trkpt lat="44.00235" lon="2.06692">
        <ele>277</ele>
        <time>2011-03-26T14:16:48Z</time>
      </trkpt>
      <trkpt lat="44.0023" lon="2.06687">
        <ele>277</ele>
        <time>2011-03-26T14:16:49Z</time>
      </trkpt>
      <trkpt lat="44.00226" lon="2.06682">
        <ele>277</ele>
        <time>2011-03-26T14:16:50Z</time>
      </trkpt>
      <trkpt lat="44.00221" lon="2.06678">
        <ele>277</ele>
        <time>2011-03-26T14:16:51Z</time>
      </trkpt>
      <trkpt lat="44.00215" lon="2.06676">
        <ele>277</ele>
        <time>2011-03-26T14:16:52Z</time>
      </trkpt>
      <trkpt lat="44.00209" lon="2.06674">
        <ele>277</ele>
        <time>2011-03-26T14:16:53Z</time>
      </trkpt>
      <trkpt lat="44.00204" lon="2.06673">
        <ele>276</ele>
        <time>2011-03-26T14:16:54Z</time>
      </trkpt>
      <trkpt lat="44.00199" lon="2.06672">
        <ele>276</ele>
        <time>2011-03-26T14:16:55Z</time>
      </trkpt>
      <trkpt lat="44.00194" lon="2.06672">
        <ele>276</ele>
        <time>2011-03-26T14:16:56Z</time>
      </trkpt>
      <trkpt lat="44.00188" lon="2.06671">
        <ele>276</ele>
        <time>2011-03-26T14:16:57Z</time>
      </trkpt>
      <trkpt lat="44.00184" lon="2.06671">
        <ele>276</ele>
        <time>2011-03-26T14:16:58Z</time>
      </trkpt>
      <trkpt lat="44.00179" lon="2.06671">
        <ele>276</ele>
        <time>2011-03-26T14:16:59Z</time>
      </trkpt>
      <trkpt lat="44.00174" lon="2.0667">
        <ele>276</ele>
        <time>2011-03-26T14:17:00Z</time>
      </trkpt>
      <trkpt lat="44.0017" lon="2.06669">
        <ele>276</ele>
        <time>2011-03-26T14:17:01Z</time>
      </trkpt>
      <trkpt lat="44.00166" lon="2.06668">
        <ele>276</ele>
        <time>2011-03-26T14:17:02Z</time>
      </trkpt>
      <trkpt lat="44.00162" lon="2.06666">
        <ele>276</ele>
        <time>2011-03-26T14:17:03Z</time>
      </trkpt>
      <trkpt lat="44.00158" lon="2.06665">
        <ele>276</ele>
        <time>2011-03-26T14:17:04Z</time>
      </trkpt>
      <trkpt lat="44.00155" lon="2.06663">
        <ele>276</ele>
        <time>2011-03-26T14:17:05Z</time>
      </trkpt>
      <trkpt lat="44.00152" lon="2.06661">
        <ele>276</ele>
        <time>2011-03-26T14:17:06Z</time>
      </trkpt>
      <trkpt lat="44.00149" lon="2.06661">
        <ele>276</ele>
        <time>2011-03-26T14:17:07Z</time>
      </trkpt>
      <trkpt lat="44.00144" lon="2.0666">
        <ele>276</ele>
        <time>2011-03-26T14:17:08Z</time>
      </trkpt>
      <trkpt lat="44.0014" lon="2.06659">
        <ele>276</ele>
        <time>2011-03-26T14:17:09Z</time>
      </trkpt>
      <trkpt lat="44.00135" lon="2.06658">
        <ele>276</ele>
        <time>2011-03-26T14:17:10Z</time>
      </trkpt>
      <trkpt lat="44.0013" lon="2.06657">
        <ele>276</ele>
        <time>2011-03-26T14:17:11Z</time>
      </trkpt>
      <trkpt lat="44.00126" lon="2.06657">
        <ele>276</ele>
        <time>2011-03-26T14:17:12Z</time>
      </trkpt>
      <trkpt lat="44.00121" lon="2.06656">
        <ele>275</ele>
        <time>2011-03-26T14:17:13Z</time>
      </trkpt>
      <trkpt lat="44.00117" lon="2.06656">
        <ele>275</ele>
        <time>2011-03-26T14:17:14Z</time>
      </trkpt>
      <trkpt lat="44.00113" lon="2.06655">
        <ele>275</ele>
        <time>2011-03-26T14:17:15Z</time>
      </trkpt>
      <trkpt lat="44.00108" lon="2.06655">
        <ele>275</ele>
        <time>2011-03-26T14:17:16Z</time>
      </trkpt>
      <trkpt lat="44.00104" lon="2.06654">
        <ele>275</ele>
        <time>2011-03-26T14:17:17Z</time>
      </trkpt>
      <trkpt lat="44.001" lon="2.06653">
        <ele>275</ele>
        <time>2011-03-26T14:17:18Z</time>
      </trkpt>
      <trkpt lat="44.00096" lon="2.06652">
        <ele>275</ele>
        <time>2011-03-26T14:17:19Z</time>
      </trkpt>
      <trkpt lat="44.00091" lon="2.06651">
        <ele>275</ele>
        <time>2011-03-26T14:17:20Z</time>
      </trkpt>
      <trkpt lat="44.00087" lon="2.06649">
        <ele>275</ele>
        <time>2011-03-26T14:17:21Z</time>
      </trkpt>
      <trkpt lat="44.00083" lon="2.06646">
        <ele>275</ele>
        <time>2011-03-26T14:17:22Z</time>
      </trkpt>
      <trkpt lat="44.00079" lon="2.06643">
        <ele>275</ele>
        <time>2011-03-26T14:17:23Z</time>
      </trkpt>
      <trkpt lat="44.00075" lon="2.0664">
        <ele>275</ele>
        <time>2011-03-26T14:17:24Z</time>
      </trkpt>
      <trkpt lat="44.00071" lon="2.06636">
        <ele>275</ele>
        <time>2011-03-26T14:17:25Z</time>
      </trkpt>
      <trkpt lat="44.00067" lon="2.06633">
        <ele>275</ele>
        <time>2011-03-26T14:17:26Z</time>
      </trkpt>
      <trkpt lat="44.00063" lon="2.06629">
        <ele>275</ele>
        <time>2011-03-26T14:17:27Z</time>
      </trkpt>
      <trkpt lat="44.00059" lon="2.06625">
        <ele>275</ele>
        <time>2011-03-26T14:17:28Z</time>
      </trkpt>
      <trkpt lat="44.00055" lon="2.06622">
        <ele>276</ele>
        <time>2011-03-26T14:17:29Z</time>
      </trkpt>
      <trkpt lat="44.00051" lon="2.06618">
        <ele>276</ele>
        <time>2011-03-26T14:17:30Z</time>
      </trkpt>
      <trkpt lat="44.00047" lon="2.06614">
        <ele>276</ele>
        <time>2011-03-26T14:17:31Z</time>
      </trkpt>
      <trkpt lat="44.00042" lon="2.0661">
        <ele>276</ele>
        <time>2011-03-26T14:17:32Z</time>
      </trkpt>
      <trkpt lat="44.00038" lon="2.06607">
        <ele>275</ele>
        <time>2011-03-26T14:17:33Z</time>
      </trkpt>
      <trkpt lat="44.00034" lon="2.06603">
        <ele>275</ele>
        <time>2011-03-26T14:17:34Z</time>
      </trkpt>
      <trkpt lat="44.0003" lon="2.066">
        <ele>275</ele>
        <time>2011-03-26T14:17:35Z</time>
      </trkpt>
      <trkpt lat="44.00027" lon="2.06596">
        <ele>275</ele>
        <time>2011-03-26T14:17:36Z</time>
      </trkpt>
      <trkpt lat="44.00024" lon="2.06593">
        <ele>275</ele>
        <time>2011-03-26T14:17:37Z</time>
      </trkpt>
      <trkpt lat="44.00021" lon="2.06591">
        <ele>275</ele>
        <time>2011-03-26T14:17:38Z</time>
      </trkpt>
      <trkpt lat="44.00019" lon="2.06588">
        <ele>275</ele>
        <time>2011-03-26T14:17:39Z</time>
      </trkpt>
      <trkpt lat="44.00017" lon="2.06585">
        <ele>275</ele>
        <time>2011-03-26T14:17:40Z</time>
      </trkpt>
      <trkpt lat="44.00016" lon="2.06581">
        <ele>275</ele>
        <time>2011-03-26T14:17:41Z</time>
      </trkpt>
      <trkpt lat="44.00016" lon="2.06578">
        <ele>275</ele>
        <time>2011-03-26T14:17:42Z</time>
      </trkpt>
      <trkpt lat="44.00019" lon="2.06574">
        <ele>275</ele>
        <time>2011-03-26T14:17:44Z</time>
      </trkpt>
      <trkpt lat="44.00022" lon="2.06573">
        <ele>275</ele>
        <time>2011-03-26T14:17:46Z</time>
      </trkpt>
      <trkpt lat="44.00026" lon="2.06571">
        <ele>275</ele>
        <time>2011-03-26T14:17:48Z</time>
      </trkpt>
      <trkpt lat="44.00029" lon="2.0657">
        <ele>275</ele>
        <time>2011-03-26T14:17:49Z</time>
      </trkpt>
      <trkpt lat="44.00031" lon="2.06569">
        <ele>275</ele>
        <time>2011-03-26T14:17:50Z</time>
      </trkpt>
      <trkpt lat="44.00033" lon="2.06567">
        <ele>275</ele>
        <time>2011-03-26T14:17:51Z</time>
      </trkpt>
      <trkpt lat="44.00035" lon="2.06565">
        <ele>275</ele>
        <time>2011-03-26T14:17:52Z</time>
      </trkpt>
      <trkpt lat="44.00038" lon="2.06562">
        <ele>275</ele>
        <time>2011-03-26T14:17:53Z</time>
      </trkpt>
      <trkpt lat="44.0004" lon="2.0656">
        <ele>275</ele>
        <time>2011-03-26T14:17:54Z</time>
      </trkpt>
      <trkpt lat="44.00043" lon="2.06559">
        <ele>276</ele>
        <time>2011-03-26T14:17:55Z</time>
      </trkpt>
      <trkpt lat="44.00046" lon="2.06557">
        <ele>276</ele>
        <time>2011-03-26T14:17:56Z</time>
      </trkpt>
      <trkpt lat="44.00049" lon="2.06555">
        <ele>276</ele>
        <time>2011-03-26T14:17:57Z</time>
      </trkpt>
      <trkpt lat="44.00051" lon="2.06554">
        <ele>276</ele>
        <time>2011-03-26T14:17:58Z</time>
      </trkpt>
      <trkpt lat="44.00054" lon="2.06552">
        <ele>276</ele>
        <time>2011-03-26T14:17:59Z</time>
      </trkpt>
      <trkpt lat="44.00057" lon="2.0655">
        <ele>276</ele>
        <time>2011-03-26T14:18:00Z</time>
      </trkpt>
      <trkpt lat="44.00059" lon="2.06549">
        <ele>276</ele>
        <time>2011-03-26T14:18:01Z</time>
      </trkpt>
      <trkpt lat="44.00062" lon="2.06548">
        <ele>276</ele>
        <time>2011-03-26T14:18:02Z</time>
      </trkpt>
      <trkpt lat="44.00065" lon="2.06547">
        <ele>276</ele>
        <time>2011-03-26T14:18:03Z</time>
      </trkpt>
      <trkpt lat="44.00068" lon="2.06545">
        <ele>276</ele>
        <time>2011-03-26T14:18:04Z</time>
      </trkpt>
      <trkpt lat="44.0007" lon="2.06544">
        <ele>276</ele>
        <time>2011-03-26T14:18:05Z</time>
      </trkpt>
      <trkpt lat="44.00073" lon="2.06543">
        <ele>276</ele>
        <time>2011-03-26T14:18:06Z</time>
      </trkpt>
      <trkpt lat="44.00076" lon="2.06542">
        <ele>276</ele>
        <time>2011-03-26T14:18:07Z</time>
      </trkpt>
      <trkpt lat="44.00078" lon="2.06541">
        <ele>280</ele>
        <time>2011-03-26T14:18:08Z</time>
      </trkpt>
      <trkpt lat="44.00081" lon="2.0654">
        <ele>280</ele>
        <time>2011-03-26T14:18:09Z</time>
      </trkpt>
      <trkpt lat="44.00084" lon="2.06538">
        <ele>280</ele>
        <time>2011-03-26T14:18:10Z</time>
      </trkpt>
      <trkpt lat="44.00087" lon="2.06537">
        <ele>280</ele>
        <time>2011-03-26T14:18:11Z</time>
      </trkpt>
      <trkpt lat="44.0009" lon="2.06535">
        <ele>280</ele>
        <time>2011-03-26T14:18:12Z</time>
      </trkpt>
      <trkpt lat="44.00092" lon="2.06534">
        <ele>280</ele>
        <time>2011-03-26T14:18:13Z</time>
      </trkpt>
      <trkpt lat="44.00095" lon="2.06533">
        <ele>280</ele>
        <time>2011-03-26T14:18:14Z</time>
      </trkpt>
      <trkpt lat="44.00098" lon="2.06532">
        <ele>280</ele>
        <time>2011-03-26T14:18:15Z</time>
      </trkpt>
      <trkpt lat="44.00101" lon="2.0653">
        <ele>280</ele>
        <time>2011-03-26T14:18:16Z</time>
      </trkpt>
      <trkpt lat="44.00104" lon="2.06529">
        <ele>280</ele>
        <time>2011-03-26T14:18:17Z</time>
      </trkpt>
      <trkpt lat="44.00107" lon="2.06528">
        <ele>280</ele>
        <time>2011-03-26T14:18:18Z</time>
      </trkpt>
      <trkpt lat="44.0011" lon="2.06527">
        <ele>280</ele>
        <time>2011-03-26T14:18:19Z</time>
      </trkpt>
      <trkpt lat="44.00113" lon="2.06526">
        <ele>280</ele>
        <time>2011-03-26T14:18:20Z</time>
      </trkpt>
      <trkpt lat="44.00115" lon="2.06525">
        <ele>280</ele>
        <time>2011-03-26T14:18:21Z</time>
      </trkpt>
      <trkpt lat="44.00119" lon="2.06523">
        <ele>280</ele>
        <time>2011-03-26T14:18:22Z</time>
      </trkpt>
      <trkpt lat="44.00122" lon="2.06522">
        <ele>280</ele>
        <time>2011-03-26T14:18:23Z</time>
      </trkpt>
      <trkpt lat="44.00125" lon="2.0652">
        <ele>280</ele>
        <time>2011-03-26T14:18:24Z</time>
      </trkpt>
      <trkpt lat="44.00127" lon="2.06519">
        <ele>280</ele>
        <time>2011-03-26T14:18:25Z</time>
      </trkpt>
      <trkpt lat="44.0013" lon="2.06517">
        <ele>280</ele>
        <time>2011-03-26T14:18:26Z</time>
      </trkpt>
      <trkpt lat="44.00132" lon="2.06516">
        <ele>280</ele>
        <time>2011-03-26T14:18:27Z</time>
      </trkpt>
      <trkpt lat="44.00135" lon="2.06515">
        <ele>280</ele>
        <time>2011-03-26T14:18:28Z</time>
      </trkpt>
      <trkpt lat="44.00137" lon="2.06514">
        <ele>280</ele>
        <time>2011-03-26T14:18:29Z</time>
      </trkpt>
      <trkpt lat="44.0014" lon="2.06512">
        <ele>280</ele>
        <time>2011-03-26T14:18:30Z</time>
      </trkpt>
      <trkpt lat="44.00142" lon="2.06511">
        <ele>280</ele>
        <time>2011-03-26T14:18:31Z</time>
      </trkpt>
      <trkpt lat="44.00145" lon="2.0651">
        <ele>280</ele>
        <time>2011-03-26T14:18:32Z</time>
      </trkpt>
      <trkpt lat="44.00147" lon="2.06508">
        <ele>280</ele>
        <time>2011-03-26T14:18:33Z</time>
      </trkpt>
      <trkpt lat="44.0015" lon="2.06507">
        <ele>280</ele>
        <time>2011-03-26T14:18:34Z</time>
      </trkpt>
      <trkpt lat="44.00152" lon="2.06505">
        <ele>280</ele>
        <time>2011-03-26T14:18:35Z</time>
      </trkpt>
      <trkpt lat="44.00155" lon="2.06504">
        <ele>280</ele>
        <time>2011-03-26T14:18:36Z</time>
      </trkpt>
      <trkpt lat="44.00157" lon="2.06502">
        <ele>280</ele>
        <time>2011-03-26T14:18:37Z</time>
      </trkpt>
      <trkpt lat="44.00159" lon="2.06501">
        <ele>280</ele>
        <time>2011-03-26T14:18:38Z</time>
      </trkpt>
      <trkpt lat="44.00161" lon="2.06499">
        <ele>280</ele>
        <time>2011-03-26T14:18:39Z</time>
      </trkpt>
      <trkpt lat="44.00164" lon="2.06498">
        <ele>280</ele>
        <time>2011-03-26T14:18:40Z</time>
      </trkpt>
      <trkpt lat="44.00166" lon="2.06497">
        <ele>280</ele>
        <time>2011-03-26T14:18:41Z</time>
      </trkpt>
      <trkpt lat="44.00168" lon="2.06496">
        <ele>280</ele>
        <time>2011-03-26T14:18:42Z</time>
      </trkpt>
      <trkpt lat="44.0017" lon="2.06494">
        <ele>280</ele>
        <time>2011-03-26T14:18:43Z</time>
      </trkpt>
      <trkpt lat="44.00172" lon="2.06493">
        <ele>280</ele>
        <time>2011-03-26T14:18:44Z</time>
      </trkpt>
      <trkpt lat="44.00175" lon="2.06491">
        <ele>280</ele>
        <time>2011-03-26T14:18:45Z</time>
      </trkpt>
      <trkpt lat="44.00178" lon="2.0649">
        <ele>280</ele>
        <time>2011-03-26T14:18:46Z</time>
      </trkpt>
      <trkpt lat="44.0018" lon="2.06488">
        <ele>280</ele>
        <time>2011-03-26T14:18:47Z</time>
      </trkpt>
      <trkpt lat="44.00182" lon="2.06486">
        <ele>280</ele>
        <time>2011-03-26T14:18:48Z</time>
      </trkpt>
      <trkpt lat="44.00185" lon="2.06485">
        <ele>280</ele>
        <time>2011-03-26T14:18:49Z</time>
      </trkpt>
      <trkpt lat="44.00187" lon="2.06483">
        <ele>280</ele>
        <time>2011-03-26T14:18:50Z</time>
      </trkpt>
      <trkpt lat="44.00189" lon="2.06482">
        <ele>280</ele>
        <time>2011-03-26T14:18:51Z</time>
      </trkpt>
      <trkpt lat="44.00192" lon="2.0648">
        <ele>280</ele>
        <time>2011-03-26T14:18:52Z</time>
      </trkpt>
      <trkpt lat="44.00194" lon="2.06478">
        <ele>280</ele>
        <time>2011-03-26T14:18:53Z</time>
      </trkpt>
      <trkpt lat="44.00197" lon="2.06477">
        <ele>280</ele>
        <time>2011-03-26T14:18:54Z</time>
      </trkpt>
      <trkpt lat="44.00199" lon="2.06475">
        <ele>280</ele>
        <time>2011-03-26T14:18:55Z</time>
      </trkpt>
      <trkpt lat="44.00202" lon="2.06473">
        <ele>280</ele>
        <time>2011-03-26T14:18:56Z</time>
      </trkpt>
      <trkpt lat="44.00204" lon="2.06471">
        <ele>280</ele>
        <time>2011-03-26T14:18:57Z</time>
      </trkpt>
      <trkpt lat="44.00206" lon="2.06469">
        <ele>280</ele>
        <time>2011-03-26T14:18:58Z</time>
      </trkpt>
      <trkpt lat="44.00209" lon="2.06468">
        <ele>282</ele>
        <time>2011-03-26T14:18:59Z</time>
      </trkpt>
      <trkpt lat="44.00211" lon="2.06466">
        <ele>282</ele>
        <time>2011-03-26T14:19:00Z</time>
      </trkpt>
      <trkpt lat="44.00214" lon="2.06465">
        <ele>282</ele>
        <time>2011-03-26T14:19:01Z</time>
      </trkpt>
      <trkpt lat="44.00216" lon="2.06463">
        <ele>282</ele>
        <time>2011-03-26T14:19:02Z</time>
      </trkpt>
      <trkpt lat="44.00219" lon="2.06461">
        <ele>282</ele>
        <time>2011-03-26T14:19:03Z</time>
      </trkpt>
      <trkpt lat="44.00221" lon="2.06459">
        <ele>282</ele>
        <time>2011-03-26T14:19:04Z</time>
      </trkpt>
      <trkpt lat="44.00223" lon="2.06457">
        <ele>288</ele>
        <time>2011-03-26T14:19:05Z</time>
      </trkpt>
      <trkpt lat="44.00226" lon="2.06455">
        <ele>288</ele>
        <time>2011-03-26T14:19:06Z</time>
      </trkpt>
      <trkpt lat="44.00228" lon="2.06453">
        <ele>288</ele>
        <time>2011-03-26T14:19:07Z</time>
      </trkpt>
      <trkpt lat="44.00231" lon="2.06451">
        <ele>288</ele>
        <time>2011-03-26T14:19:08Z</time>
      </trkpt>
      <trkpt lat="44.00233" lon="2.0645">
        <ele>288</ele>
        <time>2011-03-26T14:19:09Z</time>
      </trkpt>
      <trkpt lat="44.00236" lon="2.06448">
        <ele>288</ele>
        <time>2011-03-26T14:19:10Z</time>
      </trkpt>
      <trkpt lat="44.00238" lon="2.06446">
        <ele>288</ele>
        <time>2011-03-26T14:19:11Z</time>
      </trkpt>
      <trkpt lat="44.00241" lon="2.06444">
        <ele>288</ele>
        <time>2011-03-26T14:19:12Z</time>
      </trkpt>
      <trkpt lat="44.00243" lon="2.06442">
        <ele>288</ele>
        <time>2011-03-26T14:19:13Z</time>
      </trkpt>
      <trkpt lat="44.00245" lon="2.06441">
        <ele>288</ele>
        <time>2011-03-26T14:19:14Z</time>
      </trkpt>
      <trkpt lat="44.00247" lon="2.06438">
        <ele>288</ele>
        <time>2011-03-26T14:19:15Z</time>
      </trkpt>
      <trkpt lat="44.00249" lon="2.06436">
        <ele>288</ele>
        <time>2011-03-26T14:19:16Z</time>
      </trkpt>
      <trkpt lat="44.00251" lon="2.06435">
        <ele>288</ele>
        <time>2011-03-26T14:19:17Z</time>
      </trkpt>
      <trkpt lat="44.00254" lon="2.06433">
        <ele>288</ele>
        <time>2011-03-26T14:19:18Z</time>
      </trkpt>
      <trkpt lat="44.00256" lon="2.06431">
        <ele>288</ele>
        <time>2011-03-26T14:19:19Z</time>
      </trkpt>
      <trkpt lat="44.00258" lon="2.06429">
        <ele>288</ele>
        <time>2011-03-26T14:19:20Z</time>
      </trkpt>
      <trkpt lat="44.00261" lon="2.06428">
        <ele>288</ele>
        <time>2011-03-26T14:19:21Z</time>
      </trkpt>
      <trkpt lat="44.00264" lon="2.06426">
        <ele>288</ele>
        <time>2011-03-26T14:19:22Z</time>
      </trkpt>
      <trkpt lat="44.00266" lon="2.06425">
        <ele>288</ele>
        <time>2011-03-26T14:19:23Z</time>
      </trkpt>
      <trkpt lat="44.00269" lon="2.06423">
        <ele>288</ele>
        <time>2011-03-26T14:19:24Z</time>
      </trkpt>
      <trkpt lat="44.00271" lon="2.06421">
        <ele>288</ele>
        <time>2011-03-26T14:19:25Z</time>
      </trkpt>
      <trkpt lat="44.00274" lon="2.0642">
        <ele>288</ele>
        <time>2011-03-26T14:19:26Z</time>
      </trkpt>
      <trkpt lat="44.00277" lon="2.06418">
        <ele>288</ele>
        <time>2011-03-26T14:19:27Z</time>
      </trkpt>
      <trkpt lat="44.0028" lon="2.06416">
        <ele>288</ele>
        <time>2011-03-26T14:19:28Z</time>
      </trkpt>
      <trkpt lat="44.00282" lon="2.06415">
        <ele>288</ele>
        <time>2011-03-26T14:19:29Z</time>
      </trkpt>
      <trkpt lat="44.00285" lon="2.06414">
        <ele>288</ele>
        <time>2011-03-26T14:19:30Z</time>
      </trkpt>
      <trkpt lat="44.00288" lon="2.06413">
        <ele>288</ele>
        <time>2011-03-26T14:19:31Z</time>
      </trkpt>
      <trkpt lat="44.00291" lon="2.06412">
        <ele>288</ele>
        <time>2011-03-26T14:19:32Z</time>
      </trkpt>
      <trkpt lat="44.00293" lon="2.06411">
        <ele>291</ele>
        <time>2011-03-26T14:19:33Z</time>
      </trkpt>
      <trkpt lat="44.00296" lon="2.0641">
        <ele>291</ele>
        <time>2011-03-26T14:19:34Z</time>
      </trkpt>
      <trkpt lat="44.00298" lon="2.06409">
        <ele>291</ele>
        <time>2011-03-26T14:19:35Z</time>
      </trkpt>
      <trkpt lat="44.00301" lon="2.06408">
        <ele>291</ele>
        <time>2011-03-26T14:19:36Z</time>
      </trkpt>
      <trkpt lat="44.00303" lon="2.06407">
        <ele>291</ele>
        <time>2011-03-26T14:19:37Z</time>
      </trkpt>
      <trkpt lat="44.00306" lon="2.06405">
        <ele>291</ele>
        <time>2011-03-26T14:19:38Z</time>
      </trkpt>
      <trkpt lat="44.00308" lon="2.06404">
        <ele>291</ele>
        <time>2011-03-26T14:19:39Z</time>
      </trkpt>
      <trkpt lat="44.0031" lon="2.06403">
        <ele>291</ele>
        <time>2011-03-26T14:19:40Z</time>
      </trkpt>
      <trkpt lat="44.00313" lon="2.06402">
        <ele>291</ele>
        <time>2011-03-26T14:19:41Z</time>
      </trkpt>
      <trkpt lat="44.00316" lon="2.06401">
        <ele>291</ele>
        <time>2011-03-26T14:19:42Z</time>
      </trkpt>
      <trkpt lat="44.00318" lon="2.064">
        <ele>291</ele>
        <time>2011-03-26T14:19:43Z</time>
      </trkpt>
      <trkpt lat="44.00321" lon="2.06399">
        <ele>291</ele>
        <time>2011-03-26T14:19:44Z</time>
      </trkpt>
      <trkpt lat="44.00323" lon="2.06398">
        <ele>291</ele>
        <time>2011-03-26T14:19:45Z</time>
      </trkpt>
      <trkpt lat="44.00326" lon="2.06396">
        <ele>291</ele>
        <time>2011-03-26T14:19:46Z</time>
      </trkpt>
      <trkpt lat="44.00329" lon="2.06395">
        <ele>291</ele>
        <time>2011-03-26T14:19:47Z</time>
      </trkpt>
      <trkpt lat="44.00331" lon="2.06394">
        <ele>291</ele>
        <time>2011-03-26T14:19:48Z</time>
      </trkpt>
      <trkpt lat="44.00334" lon="2.06393">
        <ele>291</ele>
        <time>2011-03-26T14:19:49Z</time>
      </trkpt>
      <trkpt lat="44.00337" lon="2.06392">
        <ele>291</ele>
        <time>2011-03-26T14:19:50Z</time>
      </trkpt>
      <trkpt lat="44.0034" lon="2.06391">
        <ele>291</ele>
        <time>2011-03-26T14:19:51Z</time>
      </trkpt>
      <trkpt lat="44.00342" lon="2.0639">
        <ele>291</ele>
        <time>2011-03-26T14:19:52Z</time>
      </trkpt>
      <trkpt lat="44.00345" lon="2.06389">
        <ele>291</ele>
        <time>2011-03-26T14:19:53Z</time>
      </trkpt>
      <trkpt lat="44.00347" lon="2.06388">
        <ele>291</ele>
        <time>2011-03-26T14:19:54Z</time>
      </trkpt>
      <trkpt lat="44.0035" lon="2.06388">
        <ele>291</ele>
        <time>2011-03-26T14:19:55Z</time>
      </trkpt>
      <trkpt lat="44.00352" lon="2.06387">
        <ele>291</ele>
        <time>2011-03-26T14:19:56Z</time>
      </trkpt>
      <trkpt lat="44.00355" lon="2.06387">
        <ele>291</ele>
        <time>2011-03-26T14:19:57Z</time>
      </trkpt>
      <trkpt lat="44.00358" lon="2.06386">
        <ele>291</ele>
        <time>2011-03-26T14:19:58Z</time>
      </trkpt>
      <trkpt lat="44.00361" lon="2.06385">
        <ele>291</ele>
        <time>2011-03-26T14:19:59Z</time>
      </trkpt>
      <trkpt lat="44.00364" lon="2.06385">
        <ele>291</ele>
        <time>2011-03-26T14:20:00Z</time>
      </trkpt>
      <trkpt lat="44.00367" lon="2.06385">
        <ele>291</ele>
        <time>2011-03-26T14:20:01Z</time>
      </trkpt>
      <trkpt lat="44.00371" lon="2.06385">
        <ele>291</ele>
        <time>2011-03-26T14:20:02Z</time>
      </trkpt>
      <trkpt lat="44.00374" lon="2.06384">
        <ele>291</ele>
        <time>2011-03-26T14:20:03Z</time>
      </trkpt>
      <trkpt lat="44.00377" lon="2.06385">
        <ele>296</ele>
        <time>2011-03-26T14:20:04Z</time>
      </trkpt>
      <trkpt lat="44.00381" lon="2.06385">
        <ele>296</ele>
        <time>2011-03-26T14:20:05Z</time>
      </trkpt>
      <trkpt lat="44.00384" lon="2.06385">
        <ele>296</ele>
        <time>2011-03-26T14:20:06Z</time>
      </trkpt>
      <trkpt lat="44.00388" lon="2.06384">
        <ele>296</ele>
        <time>2011-03-26T14:20:07Z</time>
      </trkpt>
      <trkpt lat="44.00391" lon="2.06385">
        <ele>296</ele>
        <time>2011-03-26T14:20:08Z</time>
      </trkpt>
      <trkpt lat="44.00395" lon="2.06386">
        <ele>296</ele>
        <time>2011-03-26T14:20:09Z</time>
      </trkpt>
      <trkpt lat="44.00398" lon="2.06386">
        <ele>296</ele>
        <time>2011-03-26T14:20:10Z</time>
      </trkpt>
      <trkpt lat="44.00402" lon="2.06387">
        <ele>296</ele>
        <time>2011-03-26T14:20:11Z</time>
      </trkpt>
      <trkpt lat="44.00405" lon="2.06387">
        <ele>296</ele>
        <time>2011-03-26T14:20:12Z</time>
      </trkpt>
      <trkpt lat="44.00409" lon="2.06387">
        <ele>296</ele>
        <time>2011-03-26T14:20:13Z</time>
      </trkpt>
      <trkpt lat="44.00412" lon="2.06387">
        <ele>296</ele>
        <time>2011-03-26T14:20:14Z</time>
      </trkpt>
      <trkpt lat="44.00416" lon="2.06387">
        <ele>296</ele>
        <time>2011-03-26T14:20:15Z</time>
      </trkpt>
      <trkpt lat="44.00419" lon="2.06387">
        <ele>296</ele>
        <time>2011-03-26T14:20:16Z</time>
      </trkpt>
      <trkpt lat="44.00423" lon="2.06387">
        <ele>296</ele>
        <time>2011-03-26T14:20:17Z</time>
      </trkpt>
      <trkpt lat="44.00426" lon="2.06387">
        <ele>296</ele>
        <time>2011-03-26T14:20:18Z</time>
      </trkpt>
      <trkpt lat="44.0043" lon="2.06387">
        <ele>296</ele>
        <time>2011-03-26T14:20:19Z</time>
      </trkpt>
      <trkpt lat="44.00433" lon="2.06387">
        <ele>296</ele>
        <time>2011-03-26T14:20:20Z</time>
      </trkpt>
      <trkpt lat="44.00437" lon="2.06387">
        <ele>296</ele>
        <time>2011-03-26T14:20:21Z</time>
      </trkpt>
      <trkpt lat="44.00441" lon="2.06387">
        <ele>296</ele>
        <time>2011-03-26T14:20:22Z</time>
      </trkpt>
      <trkpt lat="44.00444" lon="2.06387">
        <ele>296</ele>
        <time>2011-03-26T14:20:23Z</time>
      </trkpt>
      <trkpt lat="44.00448" lon="2.06387">
        <ele>296</ele>
        <time>2011-03-26T14:20:24Z</time>
      </trkpt>
      <trkpt lat="44.00452" lon="2.06388">
        <ele>296</ele>
        <time>2011-03-26T14:20:25Z</time>
      </trkpt>
      <trkpt lat="44.00455" lon="2.06388">
        <ele>296</ele>
        <time>2011-03-26T14:20:26Z</time>
      </trkpt>
      <trkpt lat="44.00459" lon="2.06389">
        <ele>301</ele>
        <time>2011-03-26T14:20:27Z</time>
      </trkpt>
      <trkpt lat="44.00463" lon="2.06389">
        <ele>301</ele>
        <time>2011-03-26T14:20:28Z</time>
      </trkpt>
      <trkpt lat="44.00467" lon="2.0639">
        <ele>301</ele>
        <time>2011-03-26T14:20:29Z</time>
      </trkpt>
      <trkpt lat="44.00471" lon="2.06391">
        <ele>301</ele>
        <time>2011-03-26T14:20:30Z</time>
      </trkpt>
      <trkpt lat="44.00475" lon="2.06391">
        <ele>301</ele>
        <time>2011-03-26T14:20:31Z</time>
      </trkpt>
      <trkpt lat="44.00479" lon="2.06392">
        <ele>301</ele>
        <time>2011-03-26T14:20:32Z</time>
      </trkpt>
      <trkpt lat="44.00484" lon="2.06392">
        <ele>301</ele>
        <time>2011-03-26T14:20:33Z</time>
      </trkpt>
      <trkpt lat="44.00488" lon="2.06393">
        <ele>301</ele>
        <time>2011-03-26T14:20:34Z</time>
      </trkpt>
      <trkpt lat="44.00492" lon="2.06393">
        <ele>301</ele>
        <time>2011-03-26T14:20:35Z</time>
      </trkpt>
      <trkpt lat="44.00497" lon="2.06394">
        <ele>301</ele>
        <time>2011-03-26T14:20:36Z</time>
      </trkpt>
      <trkpt lat="44.00501" lon="2.06394">
        <ele>301</ele>
        <time>2011-03-26T14:20:37Z</time>
      </trkpt>
      <trkpt lat="44.00505" lon="2.06395">
        <ele>301</ele>
        <time>2011-03-26T14:20:38Z</time>
      </trkpt>
      <trkpt lat="44.0051" lon="2.06396">
        <ele>301</ele>
        <time>2011-03-26T14:20:39Z</time>
      </trkpt>
      <trkpt lat="44.00514" lon="2.06396">
        <ele>301</ele>
        <time>2011-03-26T14:20:40Z</time>
      </trkpt>
      <trkpt lat="44.00518" lon="2.06396">
        <ele>301</ele>
        <time>2011-03-26T14:20:41Z</time>
      </trkpt>
      <trkpt lat="44.00523" lon="2.06396">
        <ele>301</ele>
        <time>2011-03-26T14:20:42Z</time>
      </trkpt>
      <trkpt lat="44.00527" lon="2.06396">
        <ele>301</ele>
        <time>2011-03-26T14:20:43Z</time>
      </trkpt>
      <trkpt lat="44.00532" lon="2.06397">
        <ele>301</ele>
        <time>2011-03-26T14:20:44Z</time>
      </trkpt>
      <trkpt lat="44.00536" lon="2.06397">
        <ele>301</ele>
        <time>2011-03-26T14:20:45Z</time>
      </trkpt>
      <trkpt lat="44.00541" lon="2.06397">
        <ele>301</ele>
        <time>2011-03-26T14:20:46Z</time>
      </trkpt>
      <trkpt lat="44.00546" lon="2.06397">
        <ele>300</ele>
        <time>2011-03-26T14:20:47Z</time>
      </trkpt>
      <trkpt lat="44.0055" lon="2.06396">
        <ele>300</ele>
        <time>2011-03-26T14:20:48Z</time>
      </trkpt>
      <trkpt lat="44.00554" lon="2.06396">
        <ele>300</ele>
        <time>2011-03-26T14:20:49Z</time>
      </trkpt>
      <trkpt lat="44.00559" lon="2.06395">
        <ele>300</ele>
        <time>2011-03-26T14:20:50Z</time>
      </trkpt>
      <trkpt lat="44.00563" lon="2.06395">
        <ele>300</ele>
        <time>2011-03-26T14:20:51Z</time>
      </trkpt>
      <trkpt lat="44.00568" lon="2.06394">
        <ele>300</ele>
        <time>2011-03-26T14:20:52Z</time>
      </trkpt>
      <trkpt lat="44.00572" lon="2.06394">
        <ele>300</ele>
        <time>2011-03-26T14:20:53Z</time>
      </trkpt>
      <trkpt lat="44.00577" lon="2.06393">
        <ele>300</ele>
        <time>2011-03-26T14:20:54Z</time>
      </trkpt>
      <trkpt lat="44.00581" lon="2.06393">
        <ele>300</ele>
        <time>2011-03-26T14:20:55Z</time>
      </trkpt>
      <trkpt lat="44.00586" lon="2.06393">
        <ele>300</ele>
        <time>2011-03-26T14:20:56Z</time>
      </trkpt>
      <trkpt lat="44.0059" lon="2.06392">
        <ele>300</ele>
        <time>2011-03-26T14:20:57Z</time>
      </trkpt>
      <trkpt lat="44.00594" lon="2.06392">
        <ele>300</ele>
        <time>2011-03-26T14:20:58Z</time>
      </trkpt>
      <trkpt lat="44.00598" lon="2.06391">
        <ele>300</ele>
        <time>2011-03-26T14:20:59Z</time>
      </trkpt>
      <trkpt lat="44.00602" lon="2.06391">
        <ele>300</ele>
        <time>2011-03-26T14:21:00Z</time>
      </trkpt>
      <trkpt lat="44.00606" lon="2.06391">
        <ele>300</ele>
        <time>2011-03-26T14:21:01Z</time>
      </trkpt>
      <trkpt lat="44.00609" lon="2.0639">
        <ele>300</ele>
        <time>2011-03-26T14:21:02Z</time>
      </trkpt>
      <trkpt lat="44.00613" lon="2.0639">
        <ele>300</ele>
        <time>2011-03-26T14:21:03Z</time>
      </trkpt>
      <trkpt lat="44.00616" lon="2.0639">
        <ele>300</ele>
        <time>2011-03-26T14:21:04Z</time>
      </trkpt>
      <trkpt lat="44.00619" lon="2.06388">
        <ele>300</ele>
        <time>2011-03-26T14:21:05Z</time>
      </trkpt>
      <trkpt lat="44.00622" lon="2.06387">
        <ele>300</ele>
        <time>2011-03-26T14:21:06Z</time>
      </trkpt>
      <trkpt lat="44.00624" lon="2.06386">
        <ele>300</ele>
        <time>2011-03-26T14:21:07Z</time>
      </trkpt>
      <trkpt lat="44.00627" lon="2.06385">
        <ele>299</ele>
        <time>2011-03-26T14:21:08Z</time>
      </trkpt>
      <trkpt lat="44.00629" lon="2.06384">
        <ele>299</ele>
        <time>2011-03-26T14:21:09Z</time>
      </trkpt>
      <trkpt lat="44.00631" lon="2.06382">
        <ele>299</ele>
        <time>2011-03-26T14:21:10Z</time>
      </trkpt>
      <trkpt lat="44.00633" lon="2.06379">
        <ele>299</ele>
        <time>2011-03-26T14:21:11Z</time>
      </trkpt>
      <trkpt lat="44.00636" lon="2.06376">
        <ele>299</ele>
        <time>2011-03-26T14:21:12Z</time>
      </trkpt>
      <trkpt lat="44.00636" lon="2.06372">
        <ele>300</ele>
        <time>2011-03-26T14:21:13Z</time>
      </trkpt>
      <trkpt lat="44.00637" lon="2.06367">
        <ele>300</ele>
        <time>2011-03-26T14:21:14Z</time>
      </trkpt>
      <trkpt lat="44.00639" lon="2.06361">
        <ele>300</ele>
        <time>2011-03-26T14:21:15Z</time>
      </trkpt>
      <trkpt lat="44.0064" lon="2.06355">
        <ele>300</ele>
        <time>2011-03-26T14:21:16Z</time>
      </trkpt>
      <trkpt lat="44.00641" lon="2.06348">
        <ele>300</ele>
        <time>2011-03-26T14:21:17Z</time>
      </trkpt>
      <trkpt lat="44.00642" lon="2.06342">
        <ele>300</ele>
        <time>2011-03-26T14:21:18Z</time>
      </trkpt>
      <trkpt lat="44.00643" lon="2.06335">
        <ele>300</ele>
        <time>2011-03-26T14:21:19Z</time>
      </trkpt>
      <trkpt lat="44.00644" lon="2.06329">
        <ele>300</ele>
        <time>2011-03-26T14:21:20Z</time>
      </trkpt>
      <trkpt lat="44.00645" lon="2.06323">
        <ele>300</ele>
        <time>2011-03-26T14:21:21Z</time>
      </trkpt>
      <trkpt lat="44.00645" lon="2.06317">
        <ele>300</ele>
        <time>2011-03-26T14:21:22Z</time>
      </trkpt>
      <trkpt lat="44.00647" lon="2.06311">
        <ele>300</ele>
        <time>2011-03-26T14:21:23Z</time>
      </trkpt>
      <trkpt lat="44.00648" lon="2.06305">
        <ele>300</ele>
        <time>2011-03-26T14:21:24Z</time>
      </trkpt>
      <trkpt lat="44.00649" lon="2.06299">
        <ele>300</ele>
        <time>2011-03-26T14:21:25Z</time>
      </trkpt>
      <trkpt lat="44.0065" lon="2.06293">
        <ele>300</ele>
        <time>2011-03-26T14:21:26Z</time>
      </trkpt>
      <trkpt lat="44.00651" lon="2.06286">
        <ele>301</ele>
        <time>2011-03-26T14:21:27Z</time>
      </trkpt>
      <trkpt lat="44.00652" lon="2.0628">
        <ele>301</ele>
        <time>2011-03-26T14:21:28Z</time>
      </trkpt>
      <trkpt lat="44.00653" lon="2.06273">
        <ele>301</ele>
        <time>2011-03-26T14:21:29Z</time>
      </trkpt>
      <trkpt lat="44.00654" lon="2.06267">
        <ele>301</ele>
        <time>2011-03-26T14:21:30Z</time>
      </trkpt>
      <trkpt lat="44.00656" lon="2.06261">
        <ele>301</ele>
        <time>2011-03-26T14:21:31Z</time>
      </trkpt>
      <trkpt lat="44.00657" lon="2.06255">
        <ele>301</ele>
        <time>2011-03-26T14:21:32Z</time>
      </trkpt>
      <trkpt lat="44.00659" lon="2.06249">
        <ele>301</ele>
        <time>2011-03-26T14:21:33Z</time>
      </trkpt>
      <trkpt lat="44.00661" lon="2.06243">
        <ele>301</ele>
        <time>2011-03-26T14:21:34Z</time>
      </trkpt>
      <trkpt lat="44.00663" lon="2.06237">
        <ele>301</ele>
        <time>2011-03-26T14:21:35Z</time>
      </trkpt>
      <trkpt lat="44.00666" lon="2.06231">
        <ele>301</ele>
        <time>2011-03-26T14:21:36Z</time>
      </trkpt>
      <trkpt lat="44.00668" lon="2.06226">
        <ele>301</ele>
        <time>2011-03-26T14:21:37Z</time>
      </trkpt>
      <trkpt lat="44.00671" lon="2.0622">
        <ele>301</ele>
        <time>2011-03-26T14:21:38Z</time>
      </trkpt>
      <trkpt lat="44.00675" lon="2.06216">
        <ele>301</ele>
        <time>2011-03-26T14:21:39Z</time>
      </trkpt>
      <trkpt lat="44.00678" lon="2.06211">
        <ele>301</ele>
        <time>2011-03-26T14:21:40Z</time>
      </trkpt>
      <trkpt lat="44.00682" lon="2.06207">
        <ele>300</ele>
        <time>2011-03-26T14:21:41Z</time>
      </trkpt>
      <trkpt lat="44.00686" lon="2.06203">
        <ele>300</ele>
        <time>2011-03-26T14:21:42Z</time>
      </trkpt>
      <trkpt lat="44.0069" lon="2.062">
        <ele>300</ele>
        <time>2011-03-26T14:21:43Z</time>
      </trkpt>
      <trkpt lat="44.00694" lon="2.06196">
        <ele>300</ele>
        <time>2011-03-26T14:21:44Z</time>
      </trkpt>
      <trkpt lat="44.00698" lon="2.06193">
        <ele>300</ele>
        <time>2011-03-26T14:21:45Z</time>
      </trkpt>
      <trkpt lat="44.00702" lon="2.06189">
        <ele>300</ele>
        <time>2011-03-26T14:21:46Z</time>
      </trkpt>
      <trkpt lat="44.00706" lon="2.06186">
        <ele>300</ele>
        <time>2011-03-26T14:21:47Z</time>
      </trkpt>
      <trkpt lat="44.00709" lon="2.06183">
        <ele>301</ele>
        <time>2011-03-26T14:21:48Z</time>
      </trkpt>
      <trkpt lat="44.00713" lon="2.06181">
        <ele>301</ele>
        <time>2011-03-26T14:21:49Z</time>
      </trkpt>
      <trkpt lat="44.00716" lon="2.06178">
        <ele>301</ele>
        <time>2011-03-26T14:21:50Z</time>
      </trkpt>
      <trkpt lat="44.0072" lon="2.06176">
        <ele>301</ele>
        <time>2011-03-26T14:21:51Z</time>
      </trkpt>
      <trkpt lat="44.00722" lon="2.06173">
        <ele>301</ele>
        <time>2011-03-26T14:21:52Z</time>
      </trkpt>
      <trkpt lat="44.00724" lon="2.06169">
        <ele>301</ele>
        <time>2011-03-26T14:21:53Z</time>
      </trkpt>
      <trkpt lat="44.00724" lon="2.06164">
        <ele>301</ele>
        <time>2011-03-26T14:21:54Z</time>
      </trkpt>
      <trkpt lat="44.00723" lon="2.06159">
        <ele>301</ele>
        <time>2011-03-26T14:21:55Z</time>
      </trkpt>
      <trkpt lat="44.00722" lon="2.06153">
        <ele>301</ele>
        <time>2011-03-26T14:21:56Z</time>
      </trkpt>
      <trkpt lat="44.0072" lon="2.06147">
        <ele>301</ele>
        <time>2011-03-26T14:21:57Z</time>
      </trkpt>
      <trkpt lat="44.00719" lon="2.0614">
        <ele>301</ele>
        <time>2011-03-26T14:21:58Z</time>
      </trkpt>
      <trkpt lat="44.00717" lon="2.06133">
        <ele>301</ele>
        <time>2011-03-26T14:21:59Z</time>
      </trkpt>
      <trkpt lat="44.00715" lon="2.06126">
        <ele>301</ele>
        <time>2011-03-26T14:22:00Z</time>
      </trkpt>
      <trkpt lat="44.00712" lon="2.06118">
        <ele>299</ele>
        <time>2011-03-26T14:22:01Z</time>
      </trkpt>
      <trkpt lat="44.00708" lon="2.06111">
        <ele>297</ele>
        <time>2011-03-26T14:22:02Z</time>
      </trkpt>
      <trkpt lat="44.00704" lon="2.06103">
        <ele>297</ele>
        <time>2011-03-26T14:22:03Z</time>
      </trkpt>
      <trkpt lat="44.00699" lon="2.06095">
        <ele>297</ele>
        <time>2011-03-26T14:22:04Z</time>
      </trkpt>
      <trkpt lat="44.00694" lon="2.06088">
        <ele>297</ele>
        <time>2011-03-26T14:22:05Z</time>
      </trkpt>
      <trkpt lat="44.00688" lon="2.06081">
        <ele>297</ele>
        <time>2011-03-26T14:22:06Z</time>
      </trkpt>
      <trkpt lat="44.00682" lon="2.06074">
        <ele>297</ele>
        <time>2011-03-26T14:22:07Z</time>
      </trkpt>
      <trkpt lat="44.00675" lon="2.06067">
        <ele>297</ele>
        <time>2011-03-26T14:22:08Z</time>
      </trkpt>
      <trkpt lat="44.00669" lon="2.06061">
        <ele>297</ele>
        <time>2011-03-26T14:22:09Z</time>
      </trkpt>
      <trkpt lat="44.00662" lon="2.06054">
        <ele>297</ele>
        <time>2011-03-26T14:22:10Z</time>
      </trkpt>
      <trkpt lat="44.00655" lon="2.06048">
        <ele>297</ele>
        <time>2011-03-26T14:22:11Z</time>
      </trkpt>
      <trkpt lat="44.00649" lon="2.06041">
        <ele>290</ele>
        <time>2011-03-26T14:22:12Z</time>
      </trkpt>
      <trkpt lat="44.00643" lon="2.06033">
        <ele>290</ele>
        <time>2011-03-26T14:22:13Z</time>
      </trkpt>
      <trkpt lat="44.00639" lon="2.06022">
        <ele>290</ele>
        <time>2011-03-26T14:22:14Z</time>
      </trkpt>
      <trkpt lat="44.00635" lon="2.0601">
        <ele>290</ele>
        <time>2011-03-26T14:22:15Z</time>
      </trkpt>
      <trkpt lat="44.00631" lon="2.05998">
        <ele>290</ele>
        <time>2011-03-26T14:22:16Z</time>
      </trkpt>
      <trkpt lat="44.00627" lon="2.05985">
        <ele>290</ele>
        <time>2011-03-26T14:22:17Z</time>
      </trkpt>
      <trkpt lat="44.00622" lon="2.05972">
        <ele>286</ele>
        <time>2011-03-26T14:22:18Z</time>
      </trkpt>
      <trkpt lat="44.00617" lon="2.05957">
        <ele>278</ele>
        <time>2011-03-26T14:22:19Z</time>
      </trkpt>
      <trkpt lat="44.00611" lon="2.05942">
        <ele>278</ele>
        <time>2011-03-26T14:22:20Z</time>
      </trkpt>
      <trkpt lat="44.00604" lon="2.05927">
        <ele>278</ele>
        <time>2011-03-26T14:22:21Z</time>
      </trkpt>
      <trkpt lat="44.00599" lon="2.05912">
        <ele>278</ele>
        <time>2011-03-26T14:22:22Z</time>
      </trkpt>
      <trkpt lat="44.00593" lon="2.05897">
        <ele>278</ele>
        <time>2011-03-26T14:22:23Z</time>
      </trkpt>
      <trkpt lat="44.00588" lon="2.05882">
        <ele>278</ele>
        <time>2011-03-26T14:22:24Z</time>
      </trkpt>
      <trkpt lat="44.00585" lon="2.05869">
        <ele>280</ele>
        <time>2011-03-26T14:22:25Z</time>
      </trkpt>
      <trkpt lat="44.00583" lon="2.05858">
        <ele>280</ele>
        <time>2011-03-26T14:22:26Z</time>
      </trkpt>
      <trkpt lat="44.00581" lon="2.05848">
        <ele>280</ele>
        <time>2011-03-26T14:22:27Z</time>
      </trkpt>
      <trkpt lat="44.0058" lon="2.0584">
        <ele>280</ele>
        <time>2011-03-26T14:22:28Z</time>
      </trkpt>
      <trkpt lat="44.0058" lon="2.05832">
        <ele>280</ele>
        <time>2011-03-26T14:22:29Z</time>
      </trkpt>
      <trkpt lat="44.00579" lon="2.05827">
        <ele>280</ele>
        <time>2011-03-26T14:22:30Z</time>
      </trkpt>
      <trkpt lat="44.00579" lon="2.05821">
        <ele>280</ele>
        <time>2011-03-26T14:22:31Z</time>
      </trkpt>
      <trkpt lat="44.00579" lon="2.05816">
        <ele>280</ele>
        <time>2011-03-26T14:22:32Z</time>
      </trkpt>
      <trkpt lat="44.00579" lon="2.0581">
        <ele>280</ele>
        <time>2011-03-26T14:22:33Z</time>
      </trkpt>
      <trkpt lat="44.00579" lon="2.05805">
        <ele>280</ele>
        <time>2011-03-26T14:22:34Z</time>
      </trkpt>
      <trkpt lat="44.00578" lon="2.05799">
        <ele>280</ele>
        <time>2011-03-26T14:22:35Z</time>
      </trkpt>
      <trkpt lat="44.00578" lon="2.05794">
        <ele>280</ele>
        <time>2011-03-26T14:22:36Z</time>
      </trkpt>
      <trkpt lat="44.00578" lon="2.05789">
        <ele>287</ele>
        <time>2011-03-26T14:22:37Z</time>
      </trkpt>
      <trkpt lat="44.00578" lon="2.05784">
        <ele>287</ele>
        <time>2011-03-26T14:22:38Z</time>
      </trkpt>
      <trkpt lat="44.00579" lon="2.0578">
        <ele>287</ele>
        <time>2011-03-26T14:22:39Z</time>
      </trkpt>
      <trkpt lat="44.00579" lon="2.05776">
        <ele>287</ele>
        <time>2011-03-26T14:22:40Z</time>
      </trkpt>
      <trkpt lat="44.00578" lon="2.05772">
        <ele>287</ele>
        <time>2011-03-26T14:22:41Z</time>
      </trkpt>
      <trkpt lat="44.00578" lon="2.05767">
        <ele>287</ele>
        <time>2011-03-26T14:22:42Z</time>
      </trkpt>
      <trkpt lat="44.00578" lon="2.05763">
        <ele>287</ele>
        <time>2011-03-26T14:22:43Z</time>
      </trkpt>
      <trkpt lat="44.00578" lon="2.05758">
        <ele>287</ele>
        <time>2011-03-26T14:22:44Z</time>
      </trkpt>
      <trkpt lat="44.00578" lon="2.05754">
        <ele>287</ele>
        <time>2011-03-26T14:22:45Z</time>
      </trkpt>
      <trkpt lat="44.00578" lon="2.0575">
        <ele>287</ele>
        <time>2011-03-26T14:22:46Z</time>
      </trkpt>
      <trkpt lat="44.00578" lon="2.05745">
        <ele>287</ele>
        <time>2011-03-26T14:22:47Z</time>
      </trkpt>
      <trkpt lat="44.00578" lon="2.0574">
        <ele>287</ele>
        <time>2011-03-26T14:22:48Z</time>
      </trkpt>
      <trkpt lat="44.00578" lon="2.05735">
        <ele>287</ele>
        <time>2011-03-26T14:22:49Z</time>
      </trkpt>
      <trkpt lat="44.00578" lon="2.05731">
        <ele>287</ele>
        <time>2011-03-26T14:22:50Z</time>
      </trkpt>
      <trkpt lat="44.00577" lon="2.05726">
        <ele>287</ele>
        <time>2011-03-26T14:22:51Z</time>
      </trkpt>
      <trkpt lat="44.00577" lon="2.05722">
        <ele>287</ele>
        <time>2011-03-26T14:22:52Z</time>
      </trkpt>
      <trkpt lat="44.00576" lon="2.05718">
        <ele>287</ele>
        <time>2011-03-26T14:22:53Z</time>
      </trkpt>
      <trkpt lat="44.00576" lon="2.05714">
        <ele>287</ele>
        <time>2011-03-26T14:22:54Z</time>
      </trkpt>
      <trkpt lat="44.00575" lon="2.0571">
        <ele>287</ele>
        <time>2011-03-26T14:22:55Z</time>
      </trkpt>
      <trkpt lat="44.00575" lon="2.05706">
        <ele>295</ele>
        <time>2011-03-26T14:22:56Z</time>
      </trkpt>
      <trkpt lat="44.00575" lon="2.05702">
        <ele>295</ele>
        <time>2011-03-26T14:22:57Z</time>
      </trkpt>
      <trkpt lat="44.00574" lon="2.05698">
        <ele>295</ele>
        <time>2011-03-26T14:22:58Z</time>
      </trkpt>
      <trkpt lat="44.00574" lon="2.05694">
        <ele>295</ele>
        <time>2011-03-26T14:22:59Z</time>
      </trkpt>
      <trkpt lat="44.00573" lon="2.0569">
        <ele>295</ele>
        <time>2011-03-26T14:23:00Z</time>
      </trkpt>
      <trkpt lat="44.00573" lon="2.05685">
        <ele>295</ele>
        <time>2011-03-26T14:23:01Z</time>
      </trkpt>
      <trkpt lat="44.00572" lon="2.05681">
        <ele>295</ele>
        <time>2011-03-26T14:23:02Z</time>
      </trkpt>
      <trkpt lat="44.00572" lon="2.05677">
        <ele>295</ele>
        <time>2011-03-26T14:23:03Z</time>
      </trkpt>
      <trkpt lat="44.00571" lon="2.05673">
        <ele>295</ele>
        <time>2011-03-26T14:23:04Z</time>
      </trkpt>
      <trkpt lat="44.00571" lon="2.05669">
        <ele>295</ele>
        <time>2011-03-26T14:23:05Z</time>
      </trkpt>
      <trkpt lat="44.00571" lon="2.05664">
        <ele>295</ele>
        <time>2011-03-26T14:23:06Z</time>
      </trkpt>
      <trkpt lat="44.0057" lon="2.0566">
        <ele>295</ele>
        <time>2011-03-26T14:23:07Z</time>
      </trkpt>
      <trkpt lat="44.0057" lon="2.05656">
        <ele>295</ele>
        <time>2011-03-26T14:23:08Z</time>
      </trkpt>
      <trkpt lat="44.00569" lon="2.05652">
        <ele>295</ele>
        <time>2011-03-26T14:23:09Z</time>
      </trkpt>
      <trkpt lat="44.00569" lon="2.05648">
        <ele>295</ele>
        <time>2011-03-26T14:23:10Z</time>
      </trkpt>
      <trkpt lat="44.00569" lon="2.05643">
        <ele>295</ele>
        <time>2011-03-26T14:23:11Z</time>
      </trkpt>
      <trkpt lat="44.00569" lon="2.05638">
        <ele>295</ele>
        <time>2011-03-26T14:23:12Z</time>
      </trkpt>
      <trkpt lat="44.00568" lon="2.05633">
        <ele>295</ele>
        <time>2011-03-26T14:23:13Z</time>
      </trkpt>
      <trkpt lat="44.00568" lon="2.05628">
        <ele>295</ele>
        <time>2011-03-26T14:23:14Z</time>
      </trkpt>
      <trkpt lat="44.00568" lon="2.05623">
        <ele>298</ele>
        <time>2011-03-26T14:23:15Z</time>
      </trkpt>
      <trkpt lat="44.00568" lon="2.05618">
        <ele>298</ele>
        <time>2011-03-26T14:23:16Z</time>
      </trkpt>
      <trkpt lat="44.00568" lon="2.05613">
        <ele>298</ele>
        <time>2011-03-26T14:23:17Z</time>
      </trkpt>
      <trkpt lat="44.00568" lon="2.05608">
        <ele>298</ele>
        <time>2011-03-26T14:23:18Z</time>
      </trkpt>
      <trkpt lat="44.00568" lon="2.05603">
        <ele>298</ele>
        <time>2011-03-26T14:23:19Z</time>
      </trkpt>
      <trkpt lat="44.00568" lon="2.05598">
        <ele>298</ele>
        <time>2011-03-26T14:23:20Z</time>
      </trkpt>
      <trkpt lat="44.00568" lon="2.05593">
        <ele>298</ele>
        <time>2011-03-26T14:23:21Z</time>
      </trkpt>
      <trkpt lat="44.00568" lon="2.05588">
        <ele>298</ele>
        <time>2011-03-26T14:23:22Z</time>
      </trkpt>
      <trkpt lat="44.00567" lon="2.05583">
        <ele>298</ele>
        <time>2011-03-26T14:23:23Z</time>
      </trkpt>
      <trkpt lat="44.00567" lon="2.05578">
        <ele>298</ele>
        <time>2011-03-26T14:23:24Z</time>
      </trkpt>
      <trkpt lat="44.00567" lon="2.05573">
        <ele>298</ele>
        <time>2011-03-26T14:23:25Z</time>
      </trkpt>
      <trkpt lat="44.00567" lon="2.05568">
        <ele>298</ele>
        <time>2011-03-26T14:23:26Z</time>
      </trkpt>
      <trkpt lat="44.00567" lon="2.05563">
        <ele>298</ele>
        <time>2011-03-26T14:23:27Z</time>
      </trkpt>
      <trkpt lat="44.00567" lon="2.05557">
        <ele>298</ele>
        <time>2011-03-26T14:23:28Z</time>
      </trkpt>
      <trkpt lat="44.00567" lon="2.05552">
        <ele>298</ele>
        <time>2011-03-26T14:23:29Z</time>
      </trkpt>
      <trkpt lat="44.00566" lon="2.05547">
        <ele>298</ele>
        <time>2011-03-26T14:23:30Z</time>
      </trkpt>
      <trkpt lat="44.00566" lon="2.05541">
        <ele>297</ele>
        <time>2011-03-26T14:23:31Z</time>
      </trkpt>
      <trkpt lat="44.00565" lon="2.05535">
        <ele>297</ele>
        <time>2011-03-26T14:23:32Z</time>
      </trkpt>
      <trkpt lat="44.00564" lon="2.0553">
        <ele>297</ele>
        <time>2011-03-26T14:23:33Z</time>
      </trkpt>
      <trkpt lat="44.00563" lon="2.05524">
        <ele>297</ele>
        <time>2011-03-26T14:23:34Z</time>
      </trkpt>
      <trkpt lat="44.00563" lon="2.05518">
        <ele>297</ele>
        <time>2011-03-26T14:23:35Z</time>
      </trkpt>
      <trkpt lat="44.00562" lon="2.05512">
        <ele>297</ele>
        <time>2011-03-26T14:23:36Z</time>
      </trkpt>
      <trkpt lat="44.00561" lon="2.05507">
        <ele>297</ele>
        <time>2011-03-26T14:23:37Z</time>
      </trkpt>
      <trkpt lat="44.0056" lon="2.05501">
        <ele>297</ele>
        <time>2011-03-26T14:23:38Z</time>
      </trkpt>
      <trkpt lat="44.00559" lon="2.05494">
        <ele>297</ele>
        <time>2011-03-26T14:23:39Z</time>
      </trkpt>
      <trkpt lat="44.00558" lon="2.05488">
        <ele>297</ele>
        <time>2011-03-26T14:23:40Z</time>
      </trkpt>
      <trkpt lat="44.00557" lon="2.05482">
        <ele>297</ele>
        <time>2011-03-26T14:23:41Z</time>
      </trkpt>
      <trkpt lat="44.00556" lon="2.05475">
        <ele>297</ele>
        <time>2011-03-26T14:23:42Z</time>
      </trkpt>
      <trkpt lat="44.00555" lon="2.05469">
        <ele>297</ele>
        <time>2011-03-26T14:23:43Z</time>
      </trkpt>
      <trkpt lat="44.00553" lon="2.05462">
        <ele>297</ele>
        <time>2011-03-26T14:23:44Z</time>
      </trkpt>
      <trkpt lat="44.00552" lon="2.05455">
        <ele>299</ele>
        <time>2011-03-26T14:23:45Z</time>
      </trkpt>
      <trkpt lat="44.00551" lon="2.05448">
        <ele>299</ele>
        <time>2011-03-26T14:23:46Z</time>
      </trkpt>
      <trkpt lat="44.0055" lon="2.05441">
        <ele>299</ele>
        <time>2011-03-26T14:23:47Z</time>
      </trkpt>
      <trkpt lat="44.00549" lon="2.05434">
        <ele>299</ele>
        <time>2011-03-26T14:23:48Z</time>
      </trkpt>
      <trkpt lat="44.00548" lon="2.05426">
        <ele>299</ele>
        <time>2011-03-26T14:23:49Z</time>
      </trkpt>
      <trkpt lat="44.00547" lon="2.05419">
        <ele>299</ele>
        <time>2011-03-26T14:23:50Z</time>
      </trkpt>
      <trkpt lat="44.00546" lon="2.05412">
        <ele>299</ele>
        <time>2011-03-26T14:23:51Z</time>
      </trkpt>
      <trkpt lat="44.00544" lon="2.05406">
        <ele>299</ele>
        <time>2011-03-26T14:23:52Z</time>
      </trkpt>
      <trkpt lat="44.00543" lon="2.05399">
        <ele>299</ele>
        <time>2011-03-26T14:23:53Z</time>
      </trkpt>
      <trkpt lat="44.0054" lon="2.05394">
        <ele>293</ele>
        <time>2011-03-26T14:23:54Z</time>
      </trkpt>
      <trkpt lat="44.00536" lon="2.0539">
        <ele>293</ele>
        <time>2011-03-26T14:23:55Z</time>
      </trkpt>
      <trkpt lat="44.00533" lon="2.05384">
        <ele>293</ele>
        <time>2011-03-26T14:23:56Z</time>
      </trkpt>
      <trkpt lat="44.0053" lon="2.05379">
        <ele>293</ele>
        <time>2011-03-26T14:23:57Z</time>
      </trkpt>
      <trkpt lat="44.00527" lon="2.05374">
        <ele>294</ele>
        <time>2011-03-26T14:23:58Z</time>
      </trkpt>
      <trkpt lat="44.00524" lon="2.05369">
        <ele>294</ele>
        <time>2011-03-26T14:23:59Z</time>
      </trkpt>
      <trkpt lat="44.00521" lon="2.05364">
        <ele>294</ele>
        <time>2011-03-26T14:24:00Z</time>
      </trkpt>
      <trkpt lat="44.00519" lon="2.05358">
        <ele>294</ele>
        <time>2011-03-26T14:24:01Z</time>
      </trkpt>
      <trkpt lat="44.00515" lon="2.05353">
        <ele>294</ele>
        <time>2011-03-26T14:24:02Z</time>
      </trkpt>
      <trkpt lat="44.00512" lon="2.05349">
        <ele>294</ele>
        <time>2011-03-26T14:24:03Z</time>
      </trkpt>
      <trkpt lat="44.0051" lon="2.05344">
        <ele>294</ele>
        <time>2011-03-26T14:24:04Z</time>
      </trkpt>
      <trkpt lat="44.00507" lon="2.0534">
        <ele>294</ele>
        <time>2011-03-26T14:24:05Z</time>
      </trkpt>
      <trkpt lat="44.00505" lon="2.05336">
        <ele>294</ele>
        <time>2011-03-26T14:24:06Z</time>
      </trkpt>
      <trkpt lat="44.00504" lon="2.05332">
        <ele>294</ele>
        <time>2011-03-26T14:24:07Z</time>
      </trkpt>
      <trkpt lat="44.00505" lon="2.05327">
        <ele>294</ele>
        <time>2011-03-26T14:24:08Z</time>
      </trkpt>
      <trkpt lat="44.00507" lon="2.05324">
        <ele>294</ele>
        <time>2011-03-26T14:24:09Z</time>
      </trkpt>
      <trkpt lat="44.0051" lon="2.0532">
        <ele>294</ele>
        <time>2011-03-26T14:24:10Z</time>
      </trkpt>
      <trkpt lat="44.00512" lon="2.05316">
        <ele>294</ele>
        <time>2011-03-26T14:24:11Z</time>
      </trkpt>
      <trkpt lat="44.00514" lon="2.05311">
        <ele>294</ele>
        <time>2011-03-26T14:24:12Z</time>
      </trkpt>
      <trkpt lat="44.00516" lon="2.05306">
        <ele>294</ele>
        <time>2011-03-26T14:24:13Z</time>
      </trkpt>
      <trkpt lat="44.00519" lon="2.053">
        <ele>294</ele>
        <time>2011-03-26T14:24:14Z</time>
      </trkpt>
      <trkpt lat="44.00521" lon="2.05295">
        <ele>294</ele>
        <time>2011-03-26T14:24:15Z</time>
      </trkpt>
      <trkpt lat="44.00522" lon="2.05289">
        <ele>294</ele>
        <time>2011-03-26T14:24:16Z</time>
      </trkpt>
      <trkpt lat="44.00524" lon="2.05283">
        <ele>294</ele>
        <time>2011-03-26T14:24:17Z</time>
      </trkpt>
      <trkpt lat="44.00526" lon="2.05278">
        <ele>294</ele>
        <time>2011-03-26T14:24:18Z</time>
      </trkpt>
      <trkpt lat="44.00528" lon="2.05272">
        <ele>294</ele>
        <time>2011-03-26T14:24:19Z</time>
      </trkpt>
      <trkpt lat="44.0053" lon="2.05266">
        <ele>294</ele>
        <time>2011-03-26T14:24:20Z</time>
      </trkpt>
      <trkpt lat="44.00532" lon="2.0526">
        <ele>294</ele>
        <time>2011-03-26T14:24:21Z</time>
      </trkpt>
      <trkpt lat="44.00534" lon="2.05255">
        <ele>294</ele>
        <time>2011-03-26T14:24:22Z</time>
      </trkpt>
      <trkpt lat="44.00535" lon="2.0525">
        <ele>294</ele>
        <time>2011-03-26T14:24:23Z</time>
      </trkpt>
      <trkpt lat="44.00538" lon="2.05246">
        <ele>294</ele>
        <time>2011-03-26T14:24:24Z</time>
      </trkpt>
      <trkpt lat="44.00541" lon="2.05245">
        <ele>294</ele>
        <time>2011-03-26T14:24:25Z</time>
      </trkpt>
      <trkpt lat="44.00544" lon="2.05243">
        <ele>294</ele>
        <time>2011-03-26T14:24:26Z</time>
      </trkpt>
      <trkpt lat="44.00547" lon="2.05242">
        <ele>294</ele>
        <time>2011-03-26T14:24:27Z</time>
      </trkpt>
      <trkpt lat="44.0055" lon="2.05241">
        <ele>294</ele>
        <time>2011-03-26T14:24:28Z</time>
      </trkpt>
      <trkpt lat="44.00553" lon="2.05239">
        <ele>294</ele>
        <time>2011-03-26T14:24:29Z</time>
      </trkpt>
      <trkpt lat="44.00557" lon="2.05236">
        <ele>294</ele>
        <time>2011-03-26T14:24:30Z</time>
      </trkpt>
      <trkpt lat="44.00559" lon="2.05233">
        <ele>294</ele>
        <time>2011-03-26T14:24:31Z</time>
      </trkpt>
      <trkpt lat="44.00562" lon="2.0523">
        <ele>294</ele>
        <time>2011-03-26T14:24:32Z</time>
      </trkpt>
      <trkpt lat="44.00565" lon="2.05227">
        <ele>294</ele>
        <time>2011-03-26T14:24:33Z</time>
      </trkpt>
      <trkpt lat="44.00568" lon="2.05223">
        <ele>294</ele>
        <time>2011-03-26T14:24:34Z</time>
      </trkpt>
      <trkpt lat="44.00571" lon="2.05219">
        <ele>294</ele>
        <time>2011-03-26T14:24:35Z</time>
      </trkpt>
      <trkpt lat="44.00573" lon="2.05214">
        <ele>294</ele>
        <time>2011-03-26T14:24:36Z</time>
      </trkpt>
      <trkpt lat="44.00575" lon="2.05209">
        <ele>294</ele>
        <time>2011-03-26T14:24:37Z</time>
      </trkpt>
      <trkpt lat="44.00577" lon="2.05202">
        <ele>290</ele>
        <time>2011-03-26T14:24:38Z</time>
      </trkpt>
      <trkpt lat="44.00578" lon="2.05193">
        <ele>290</ele>
        <time>2011-03-26T14:24:39Z</time>
      </trkpt>
      <trkpt lat="44.0058" lon="2.05185">
        <ele>290</ele>
        <time>2011-03-26T14:24:40Z</time>
      </trkpt>
      <trkpt lat="44.00583" lon="2.05178">
        <ele>290</ele>
        <time>2011-03-26T14:24:41Z</time>
      </trkpt>
      <trkpt lat="44.00585" lon="2.0517">
        <ele>290</ele>
        <time>2011-03-26T14:24:42Z</time>
      </trkpt>
      <trkpt lat="44.00589" lon="2.05159">
        <ele>290</ele>
        <time>2011-03-26T14:24:43Z</time>
      </trkpt>
      <trkpt lat="44.00591" lon="2.05144">
        <ele>290</ele>
        <time>2011-03-26T14:24:44Z</time>
      </trkpt>
      <trkpt lat="44.00594" lon="2.05129">
        <ele>290</ele>
        <time>2011-03-26T14:24:45Z</time>
      </trkpt>
      <trkpt lat="44.00597" lon="2.05114">
        <ele>287</ele>
        <time>2011-03-26T14:24:46Z</time>
      </trkpt>
      <trkpt lat="44.00603" lon="2.05101">
        <ele>287</ele>
        <time>2011-03-26T14:24:47Z</time>
      </trkpt>
      <trkpt lat="44.00609" lon="2.05088">
        <ele>287</ele>
        <time>2011-03-26T14:24:48Z</time>
      </trkpt>
      <trkpt lat="44.00614" lon="2.05076">
        <ele>287</ele>
        <time>2011-03-26T14:24:49Z</time>
      </trkpt>
      <trkpt lat="44.00621" lon="2.05063">
        <ele>287</ele>
        <time>2011-03-26T14:24:50Z</time>
      </trkpt>
      <trkpt lat="44.00627" lon="2.05052">
        <ele>286</ele>
        <time>2011-03-26T14:24:51Z</time>
      </trkpt>
      <trkpt lat="44.00634" lon="2.05041">
        <ele>276</ele>
        <time>2011-03-26T14:24:52Z</time>
      </trkpt>
      <trkpt lat="44.00641" lon="2.0503">
        <ele>276</ele>
        <time>2011-03-26T14:24:53Z</time>
      </trkpt>
      <trkpt lat="44.00649" lon="2.0502">
        <ele>276</ele>
        <time>2011-03-26T14:24:54Z</time>
      </trkpt>
      <trkpt lat="44.00656" lon="2.05008">
        <ele>276</ele>
        <time>2011-03-26T14:24:55Z</time>
      </trkpt>
      <trkpt lat="44.00663" lon="2.04996">
        <ele>276</ele>
        <time>2011-03-26T14:24:56Z</time>
      </trkpt>
      <trkpt lat="44.0067" lon="2.04983">
        <ele>276</ele>
        <time>2011-03-26T14:24:57Z</time>
      </trkpt>
      <trkpt lat="44.00678" lon="2.0497">
        <ele>276</ele>
        <time>2011-03-26T14:24:58Z</time>
      </trkpt>
      <trkpt lat="44.00687" lon="2.04961">
        <ele>276</ele>
        <time>2011-03-26T14:24:59Z</time>
      </trkpt>
      <trkpt lat="44.00695" lon="2.0495">
        <ele>271</ele>
        <time>2011-03-26T14:25:00Z</time>
      </trkpt>
      <trkpt lat="44.00703" lon="2.04938">
        <ele>271</ele>
        <time>2011-03-26T14:25:01Z</time>
      </trkpt>
      <trkpt lat="44.0071" lon="2.04927">
        <ele>268</ele>
        <time>2011-03-26T14:25:02Z</time>
      </trkpt>
      <trkpt lat="44.00717" lon="2.04915">
        <ele>268</ele>
        <time>2011-03-26T14:25:03Z</time>
      </trkpt>
      <trkpt lat="44.00726" lon="2.04908">
        <ele>268</ele>
        <time>2011-03-26T14:25:04Z</time>
      </trkpt>
      <trkpt lat="44.00735" lon="2.04901">
        <ele>268</ele>
        <time>2011-03-26T14:25:05Z</time>
      </trkpt>
      <trkpt lat="44.00745" lon="2.04897">
        <ele>268</ele>
        <time>2011-03-26T14:25:06Z</time>
      </trkpt>
      <trkpt lat="44.00754" lon="2.04893">
        <ele>268</ele>
        <time>2011-03-26T14:25:07Z</time>
      </trkpt>
      <trkpt lat="44.00763" lon="2.0489">
        <ele>268</ele>
        <time>2011-03-26T14:25:08Z</time>
      </trkpt>
      <trkpt lat="44.00773" lon="2.04887">
        <ele>268</ele>
        <time>2011-03-26T14:25:09Z</time>
      </trkpt>
      <trkpt lat="44.00782" lon="2.04883">
        <ele>268</ele>
        <time>2011-03-26T14:25:10Z</time>
      </trkpt>
      <trkpt lat="44.00791" lon="2.04879">
        <ele>268</ele>
        <time>2011-03-26T14:25:11Z</time>
      </trkpt>
      <trkpt lat="44.00797" lon="2.04873">
        <ele>280</ele>
        <time>2011-03-26T14:25:12Z</time>
      </trkpt>
      <trkpt lat="44.00803" lon="2.04865">
        <ele>280</ele>
        <time>2011-03-26T14:25:13Z</time>
      </trkpt>
      <trkpt lat="44.00806" lon="2.04857">
        <ele>280</ele>
        <time>2011-03-26T14:25:14Z</time>
      </trkpt>
      <trkpt lat="44.00807" lon="2.04849">
        <ele>280</ele>
        <time>2011-03-26T14:25:15Z</time>
      </trkpt>
      <trkpt lat="44.00807" lon="2.04842">
        <ele>280</ele>
        <time>2011-03-26T14:25:16Z</time>
      </trkpt>
      <trkpt lat="44.00807" lon="2.04834">
        <ele>280</ele>
        <time>2011-03-26T14:25:17Z</time>
      </trkpt>
      <trkpt lat="44.00803" lon="2.0483">
        <ele>280</ele>
        <time>2011-03-26T14:25:18Z</time>
      </trkpt>
      <trkpt lat="44.00801" lon="2.04825">
        <ele>280</ele>
        <time>2011-03-26T14:25:19Z</time>
      </trkpt>
      <trkpt lat="44.008" lon="2.04821">
        <ele>280</ele>
        <time>2011-03-26T14:25:20Z</time>
      </trkpt>
      <trkpt lat="44.00798" lon="2.04817">
        <ele>280</ele>
        <time>2011-03-26T14:25:21Z</time>
      </trkpt>
      <trkpt lat="44.00796" lon="2.04813">
        <ele>280</ele>
        <time>2011-03-26T14:25:22Z</time>
      </trkpt>
      <trkpt lat="44.00794" lon="2.04809">
        <ele>280</ele>
        <time>2011-03-26T14:25:23Z</time>
      </trkpt>
      <trkpt lat="44.00792" lon="2.04805">
        <ele>280</ele>
        <time>2011-03-26T14:25:24Z</time>
      </trkpt>
      <trkpt lat="44.00791" lon="2.04801">
        <ele>265</ele>
        <time>2011-03-26T14:25:25Z</time>
      </trkpt>
      <trkpt lat="44.00789" lon="2.04796">
        <ele>265</ele>
        <time>2011-03-26T14:25:26Z</time>
      </trkpt>
      <trkpt lat="44.00787" lon="2.04792">
        <ele>265</ele>
        <time>2011-03-26T14:25:27Z</time>
      </trkpt>
      <trkpt lat="44.00785" lon="2.04788">
        <ele>269</ele>
        <time>2011-03-26T14:25:28Z</time>
      </trkpt>
      <trkpt lat="44.00784" lon="2.04783">
        <ele>269</ele>
        <time>2011-03-26T14:25:29Z</time>
      </trkpt>
      <trkpt lat="44.00782" lon="2.04779">
        <ele>269</ele>
        <time>2011-03-26T14:25:30Z</time>
      </trkpt>
      <trkpt lat="44.00781" lon="2.04774">
        <ele>269</ele>
        <time>2011-03-26T14:25:31Z</time>
      </trkpt>
      <trkpt lat="44.00779" lon="2.04769">
        <ele>269</ele>
        <time>2011-03-26T14:25:32Z</time>
      </trkpt>
      <trkpt lat="44.00778" lon="2.04765">
        <ele>269</ele>
        <time>2011-03-26T14:25:33Z</time>
      </trkpt>
      <trkpt lat="44.00777" lon="2.0476">
        <ele>269</ele>
        <time>2011-03-26T14:25:34Z</time>
      </trkpt>
      <trkpt lat="44.00777" lon="2.04756">
        <ele>269</ele>
        <time>2011-03-26T14:25:35Z</time>
      </trkpt>
      <trkpt lat="44.00777" lon="2.04752">
        <ele>269</ele>
        <time>2011-03-26T14:25:36Z</time>
      </trkpt>
      <trkpt lat="44.00777" lon="2.04748">
        <ele>269</ele>
        <time>2011-03-26T14:25:37Z</time>
      </trkpt>
      <trkpt lat="44.00777" lon="2.04744">
        <ele>269</ele>
        <time>2011-03-26T14:25:38Z</time>
      </trkpt>
      <trkpt lat="44.00777" lon="2.0474">
        <ele>269</ele>
        <time>2011-03-26T14:25:39Z</time>
      </trkpt>
      <trkpt lat="44.00778" lon="2.04736">
        <ele>269</ele>
        <time>2011-03-26T14:25:40Z</time>
      </trkpt>
      <trkpt lat="44.00779" lon="2.04733">
        <ele>269</ele>
        <time>2011-03-26T14:25:41Z</time>
      </trkpt>
      <trkpt lat="44.00781" lon="2.04729">
        <ele>269</ele>
        <time>2011-03-26T14:25:42Z</time>
      </trkpt>
      <trkpt lat="44.00782" lon="2.04724">
        <ele>269</ele>
        <time>2011-03-26T14:25:43Z</time>
      </trkpt>
      <trkpt lat="44.00784" lon="2.04721">
        <ele>269</ele>
        <time>2011-03-26T14:25:44Z</time>
      </trkpt>
      <trkpt lat="44.00786" lon="2.04717">
        <ele>269</ele>
        <time>2011-03-26T14:25:45Z</time>
      </trkpt>
      <trkpt lat="44.00787" lon="2.04714">
        <ele>269</ele>
        <time>2011-03-26T14:25:46Z</time>
      </trkpt>
      <trkpt lat="44.00789" lon="2.0471">
        <ele>269</ele>
        <time>2011-03-26T14:25:47Z</time>
      </trkpt>
      <trkpt lat="44.0079" lon="2.04707">
        <ele>267</ele>
        <time>2011-03-26T14:25:48Z</time>
      </trkpt>
      <trkpt lat="44.00792" lon="2.04704">
        <ele>282</ele>
        <time>2011-03-26T14:25:49Z</time>
      </trkpt>
      <trkpt lat="44.00794" lon="2.04701">
        <ele>282</ele>
        <time>2011-03-26T14:25:50Z</time>
      </trkpt>
      <trkpt lat="44.00796" lon="2.04698">
        <ele>282</ele>
        <time>2011-03-26T14:25:51Z</time>
      </trkpt>
      <trkpt lat="44.00797" lon="2.04695">
        <ele>282</ele>
        <time>2011-03-26T14:25:52Z</time>
      </trkpt>
      <trkpt lat="44.00799" lon="2.04693">
        <ele>282</ele>
        <time>2011-03-26T14:25:53Z</time>
      </trkpt>
      <trkpt lat="44.00801" lon="2.0469">
        <ele>282</ele>
        <time>2011-03-26T14:25:54Z</time>
      </trkpt>
      <trkpt lat="44.00803" lon="2.04689">
        <ele>282</ele>
        <time>2011-03-26T14:25:55Z</time>
      </trkpt>
      <trkpt lat="44.00805" lon="2.04687">
        <ele>282</ele>
        <time>2011-03-26T14:25:56Z</time>
      </trkpt>
      <trkpt lat="44.00807" lon="2.04685">
        <ele>282</ele>
        <time>2011-03-26T14:25:57Z</time>
      </trkpt>
      <trkpt lat="44.0081" lon="2.04685">
        <ele>282</ele>
        <time>2011-03-26T14:25:58Z</time>
      </trkpt>
      <trkpt lat="44.00814" lon="2.04683">
        <ele>282</ele>
        <time>2011-03-26T14:26:00Z</time>
      </trkpt>
      <trkpt lat="44.00816" lon="2.04683">
        <ele>282</ele>
        <time>2011-03-26T14:26:01Z</time>
      </trkpt>
      <trkpt lat="44.00821" lon="2.04683">
        <ele>282</ele>
        <time>2011-03-26T14:26:03Z</time>
      </trkpt>
      <trkpt lat="44.00825" lon="2.04683">
        <ele>282</ele>
        <time>2011-03-26T14:26:05Z</time>
      </trkpt>
      <trkpt lat="44.00829" lon="2.04685">
        <ele>282</ele>
        <time>2011-03-26T14:26:07Z</time>
      </trkpt>
      <trkpt lat="44.00833" lon="2.04687">
        <ele>282</ele>
        <time>2011-03-26T14:26:09Z</time>
      </trkpt>
      <trkpt lat="44.00835" lon="2.04688">
        <ele>282</ele>
        <time>2011-03-26T14:26:10Z</time>
      </trkpt>
      <trkpt lat="44.00839" lon="2.04689">
        <ele>282</ele>
        <time>2011-03-26T14:26:12Z</time>
      </trkpt>
      <trkpt lat="44.00843" lon="2.0469">
        <ele>282</ele>
        <time>2011-03-26T14:26:14Z</time>
      </trkpt>
      <trkpt lat="44.00847" lon="2.04692">
        <ele>282</ele>
        <time>2011-03-26T14:26:16Z</time>
      </trkpt>
      <trkpt lat="44.00851" lon="2.04694">
        <ele>282</ele>
        <time>2011-03-26T14:26:18Z</time>
      </trkpt>
      <trkpt lat="44.00854" lon="2.04697">
        <ele>282</ele>
        <time>2011-03-26T14:26:20Z</time>
      </trkpt>
      <trkpt lat="44.00858" lon="2.04698">
        <ele>282</ele>
        <time>2011-03-26T14:26:22Z</time>
      </trkpt>
      <trkpt lat="44.00862" lon="2.04698">
        <ele>282</ele>
        <time>2011-03-26T14:26:24Z</time>
      </trkpt>
      <trkpt lat="44.00866" lon="2.04699">
        <ele>282</ele>
        <time>2011-03-26T14:26:26Z</time>
      </trkpt>
      <trkpt lat="44.00869" lon="2.04699">
        <ele>282</ele>
        <time>2011-03-26T14:26:28Z</time>
      </trkpt>
      <trkpt lat="44.00874" lon="2.04698">
        <ele>282</ele>
        <time>2011-03-26T14:26:30Z</time>
      </trkpt>
      <trkpt lat="44.00876" lon="2.04697">
        <ele>293</ele>
        <time>2011-03-26T14:26:31Z</time>
      </trkpt>
      <trkpt lat="44.00878" lon="2.04696">
        <ele>293</ele>
        <time>2011-03-26T14:26:32Z</time>
      </trkpt>
      <trkpt lat="44.0088" lon="2.04695">
        <ele>293</ele>
        <time>2011-03-26T14:26:33Z</time>
      </trkpt>
      <trkpt lat="44.00882" lon="2.04693">
        <ele>293</ele>
        <time>2011-03-26T14:26:34Z</time>
      </trkpt>
      <trkpt lat="44.00885" lon="2.04692">
        <ele>293</ele>
        <time>2011-03-26T14:26:35Z</time>
      </trkpt>
      <trkpt lat="44.00887" lon="2.0469">
        <ele>293</ele>
        <time>2011-03-26T14:26:36Z</time>
      </trkpt>
      <trkpt lat="44.00889" lon="2.04688">
        <ele>293</ele>
        <time>2011-03-26T14:26:37Z</time>
      </trkpt>
      <trkpt lat="44.00891" lon="2.04686">
        <ele>293</ele>
        <time>2011-03-26T14:26:38Z</time>
      </trkpt>
      <trkpt lat="44.00893" lon="2.04685">
        <ele>293</ele>
        <time>2011-03-26T14:26:39Z</time>
      </trkpt>
      <trkpt lat="44.00894" lon="2.04683">
        <ele>293</ele>
        <time>2011-03-26T14:26:40Z</time>
      </trkpt>
      <trkpt lat="44.00898" lon="2.04679">
        <ele>293</ele>
        <time>2011-03-26T14:26:42Z</time>
      </trkpt>
      <trkpt lat="44.00901" lon="2.04675">
        <ele>293</ele>
        <time>2011-03-26T14:26:44Z</time>
      </trkpt>
      <trkpt lat="44.00904" lon="2.04671">
        <ele>293</ele>
        <time>2011-03-26T14:26:46Z</time>
      </trkpt>
      <trkpt lat="44.00906" lon="2.04668">
        <ele>293</ele>
        <time>2011-03-26T14:26:47Z</time>
      </trkpt>
      <trkpt lat="44.00907" lon="2.04666">
        <ele>293</ele>
        <time>2011-03-26T14:26:48Z</time>
      </trkpt>
      <trkpt lat="44.00908" lon="2.04663">
        <ele>293</ele>
        <time>2011-03-26T14:26:49Z</time>
      </trkpt>
      <trkpt lat="44.0091" lon="2.04657">
        <ele>293</ele>
        <time>2011-03-26T14:26:51Z</time>
      </trkpt>
      <trkpt lat="44.00909" lon="2.04649">
        <ele>293</ele>
        <time>2011-03-26T14:26:54Z</time>
      </trkpt>
      <trkpt lat="44.00909" lon="2.04649">
        <ele>293</ele>
        <time>2011-03-26T14:26:55Z</time>
      </trkpt>
      <trkpt lat="44.00905" lon="2.04645">
        <ele>293</ele>
        <time>2011-03-26T14:26:56Z</time>
      </trkpt>
      <trkpt lat="44.00904" lon="2.04643">
        <ele>293</ele>
        <time>2011-03-26T14:26:57Z</time>
      </trkpt>
      <trkpt lat="44.00899" lon="2.04637">
        <ele>293</ele>
        <time>2011-03-26T14:27:00Z</time>
      </trkpt>
      <trkpt lat="44.00897" lon="2.04634">
        <ele>293</ele>
        <time>2011-03-26T14:27:01Z</time>
      </trkpt>
      <trkpt lat="44.00894" lon="2.04631">
        <ele>293</ele>
        <time>2011-03-26T14:27:02Z</time>
      </trkpt>
      <trkpt lat="44.00892" lon="2.04628">
        <ele>293</ele>
        <time>2011-03-26T14:27:03Z</time>
      </trkpt>
      <trkpt lat="44.00891" lon="2.04625">
        <ele>296</ele>
        <time>2011-03-26T14:27:04Z</time>
      </trkpt>
      <trkpt lat="44.00889" lon="2.04621">
        <ele>296</ele>
        <time>2011-03-26T14:27:05Z</time>
      </trkpt>
      <trkpt lat="44.00888" lon="2.04619">
        <ele>296</ele>
        <time>2011-03-26T14:27:06Z</time>
      </trkpt>
      <trkpt lat="44.00885" lon="2.04614">
        <ele>296</ele>
        <time>2011-03-26T14:27:08Z</time>
      </trkpt>
      <trkpt lat="44.00882" lon="2.0461">
        <ele>296</ele>
        <time>2011-03-26T14:27:10Z</time>
      </trkpt>
      <trkpt lat="44.0088" lon="2.04606">
        <ele>296</ele>
        <time>2011-03-26T14:27:12Z</time>
      </trkpt>
      <trkpt lat="44.00878" lon="2.046">
        <ele>296</ele>
        <time>2011-03-26T14:27:14Z</time>
      </trkpt>
      <trkpt lat="44.00877" lon="2.04596">
        <ele>296</ele>
        <time>2011-03-26T14:27:15Z</time>
      </trkpt>
      <trkpt lat="44.00876" lon="2.04592">
        <ele>296</ele>
        <time>2011-03-26T14:27:16Z</time>
      </trkpt>
      <trkpt lat="44.00876" lon="2.04588">
        <ele>296</ele>
        <time>2011-03-26T14:27:17Z</time>
      </trkpt>
      <trkpt lat="44.00875" lon="2.04584">
        <ele>287</ele>
        <time>2011-03-26T14:27:18Z</time>
      </trkpt>
      <trkpt lat="44.00874" lon="2.0458">
        <ele>287</ele>
        <time>2011-03-26T14:27:19Z</time>
      </trkpt>
      <trkpt lat="44.00874" lon="2.04577">
        <ele>287</ele>
        <time>2011-03-26T14:27:20Z</time>
      </trkpt>
      <trkpt lat="44.00873" lon="2.04573">
        <ele>287</ele>
        <time>2011-03-26T14:27:21Z</time>
      </trkpt>
      <trkpt lat="44.00874" lon="2.04569">
        <ele>287</ele>
        <time>2011-03-26T14:27:22Z</time>
      </trkpt>
      <trkpt lat="44.00875" lon="2.04564">
        <ele>287</ele>
        <time>2011-03-26T14:27:23Z</time>
      </trkpt>
      <trkpt lat="44.00875" lon="2.04561">
        <ele>296</ele>
        <time>2011-03-26T14:27:24Z</time>
      </trkpt>
      <trkpt lat="44.00876" lon="2.04557">
        <ele>296</ele>
        <time>2011-03-26T14:27:25Z</time>
      </trkpt>
      <trkpt lat="44.00878" lon="2.04555">
        <ele>296</ele>
        <time>2011-03-26T14:27:26Z</time>
      </trkpt>
      <trkpt lat="44.0088" lon="2.04552">
        <ele>296</ele>
        <time>2011-03-26T14:27:27Z</time>
      </trkpt>
      <trkpt lat="44.00883" lon="2.04551">
        <ele>296</ele>
        <time>2011-03-26T14:27:28Z</time>
      </trkpt>
      <trkpt lat="44.00885" lon="2.04549">
        <ele>296</ele>
        <time>2011-03-26T14:27:29Z</time>
      </trkpt>
      <trkpt lat="44.00887" lon="2.04547">
        <ele>296</ele>
        <time>2011-03-26T14:27:30Z</time>
      </trkpt>
      <trkpt lat="44.0089" lon="2.04546">
        <ele>296</ele>
        <time>2011-03-26T14:27:31Z</time>
      </trkpt>
      <trkpt lat="44.00892" lon="2.04544">
        <ele>296</ele>
        <time>2011-03-26T14:27:32Z</time>
      </trkpt>
      <trkpt lat="44.00894" lon="2.04542">
        <ele>296</ele>
        <time>2011-03-26T14:27:33Z</time>
      </trkpt>
      <trkpt lat="44.00897" lon="2.0454">
        <ele>295</ele>
        <time>2011-03-26T14:27:34Z</time>
      </trkpt>
      <trkpt lat="44.00899" lon="2.04539">
        <ele>295</ele>
        <time>2011-03-26T14:27:35Z</time>
      </trkpt>
      <trkpt lat="44.00902" lon="2.04537">
        <ele>295</ele>
        <time>2011-03-26T14:27:36Z</time>
      </trkpt>
      <trkpt lat="44.00904" lon="2.04535">
        <ele>295</ele>
        <time>2011-03-26T14:27:37Z</time>
      </trkpt>
      <trkpt lat="44.00907" lon="2.04533">
        <ele>295</ele>
        <time>2011-03-26T14:27:38Z</time>
      </trkpt>
      <trkpt lat="44.0091" lon="2.04531">
        <ele>295</ele>
        <time>2011-03-26T14:27:39Z</time>
      </trkpt>
      <trkpt lat="44.00912" lon="2.0453">
        <ele>295</ele>
        <time>2011-03-26T14:27:40Z</time>
      </trkpt>
      <trkpt lat="44.00915" lon="2.04528">
        <ele>295</ele>
        <time>2011-03-26T14:27:41Z</time>
      </trkpt>
      <trkpt lat="44.00918" lon="2.04526">
        <ele>295</ele>
        <time>2011-03-26T14:27:42Z</time>
      </trkpt>
      <trkpt lat="44.0092" lon="2.04524">
        <ele>295</ele>
        <time>2011-03-26T14:27:43Z</time>
      </trkpt>
      <trkpt lat="44.00923" lon="2.04522">
        <ele>295</ele>
        <time>2011-03-26T14:27:44Z</time>
      </trkpt>
      <trkpt lat="44.00926" lon="2.0452">
        <ele>295</ele>
        <time>2011-03-26T14:27:45Z</time>
      </trkpt>
      <trkpt lat="44.00929" lon="2.04519">
        <ele>295</ele>
        <time>2011-03-26T14:27:46Z</time>
      </trkpt>
      <trkpt lat="44.00931" lon="2.04517">
        <ele>295</ele>
        <time>2011-03-26T14:27:47Z</time>
      </trkpt>
      <trkpt lat="44.00935" lon="2.04515">
        <ele>295</ele>
        <time>2011-03-26T14:27:48Z</time>
      </trkpt>
      <trkpt lat="44.00938" lon="2.04513">
        <ele>295</ele>
        <time>2011-03-26T14:27:49Z</time>
      </trkpt>
      <trkpt lat="44.0094" lon="2.04511">
        <ele>295</ele>
        <time>2011-03-26T14:27:50Z</time>
      </trkpt>
      <trkpt lat="44.00943" lon="2.04509">
        <ele>295</ele>
        <time>2011-03-26T14:27:51Z</time>
      </trkpt>
      <trkpt lat="44.00946" lon="2.04507">
        <ele>295</ele>
        <time>2011-03-26T14:27:52Z</time>
      </trkpt>
      <trkpt lat="44.00949" lon="2.04505">
        <ele>295</ele>
        <time>2011-03-26T14:27:53Z</time>
      </trkpt>
      <trkpt lat="44.00952" lon="2.04503">
        <ele>295</ele>
        <time>2011-03-26T14:27:54Z</time>
      </trkpt>
      <trkpt lat="44.00955" lon="2.04502">
        <ele>295</ele>
        <time>2011-03-26T14:27:55Z</time>
      </trkpt>
      <trkpt lat="44.00958" lon="2.045">
        <ele>295</ele>
        <time>2011-03-26T14:27:56Z</time>
      </trkpt>
      <trkpt lat="44.00961" lon="2.04499">
        <ele>299</ele>
        <time>2011-03-26T14:27:57Z</time>
      </trkpt>
      <trkpt lat="44.00964" lon="2.04498">
        <ele>299</ele>
        <time>2011-03-26T14:27:58Z</time>
      </trkpt>
      <trkpt lat="44.00966" lon="2.04498">
        <ele>299</ele>
        <time>2011-03-26T14:27:59Z</time>
      </trkpt>
      <trkpt lat="44.00969" lon="2.04498">
        <ele>299</ele>
        <time>2011-03-26T14:28:00Z</time>
      </trkpt>
      <trkpt lat="44.00972" lon="2.04498">
        <ele>299</ele>
        <time>2011-03-26T14:28:01Z</time>
      </trkpt>
      <trkpt lat="44.00975" lon="2.04499">
        <ele>299</ele>
        <time>2011-03-26T14:28:02Z</time>
      </trkpt>
      <trkpt lat="44.00978" lon="2.045">
        <ele>299</ele>
        <time>2011-03-26T14:28:03Z</time>
      </trkpt>
      <trkpt lat="44.00981" lon="2.04501">
        <ele>299</ele>
        <time>2011-03-26T14:28:04Z</time>
      </trkpt>
      <trkpt lat="44.00983" lon="2.04503">
        <ele>299</ele>
        <time>2011-03-26T14:28:05Z</time>
      </trkpt>
      <trkpt lat="44.00986" lon="2.04504">
        <ele>299</ele>
        <time>2011-03-26T14:28:06Z</time>
      </trkpt>
      <trkpt lat="44.00989" lon="2.04507">
        <ele>299</ele>
        <time>2011-03-26T14:28:07Z</time>
      </trkpt>
      <trkpt lat="44.00992" lon="2.04509">
        <ele>299</ele>
        <time>2011-03-26T14:28:08Z</time>
      </trkpt>
      <trkpt lat="44.00995" lon="2.04511">
        <ele>299</ele>
        <time>2011-03-26T14:28:09Z</time>
      </trkpt>
      <trkpt lat="44.00998" lon="2.04514">
        <ele>299</ele>
        <time>2011-03-26T14:28:10Z</time>
      </trkpt>
      <trkpt lat="44.01001" lon="2.04516">
        <ele>299</ele>
        <time>2011-03-26T14:28:11Z</time>
      </trkpt>
      <trkpt lat="44.01004" lon="2.04518">
        <ele>299</ele>
        <time>2011-03-26T14:28:12Z</time>
      </trkpt>
      <trkpt lat="44.01007" lon="2.04521">
        <ele>299</ele>
        <time>2011-03-26T14:28:13Z</time>
      </trkpt>
      <trkpt lat="44.0101" lon="2.04523">
        <ele>299</ele>
        <time>2011-03-26T14:28:14Z</time>
      </trkpt>
      <trkpt lat="44.01013" lon="2.04525">
        <ele>299</ele>
        <time>2011-03-26T14:28:15Z</time>
      </trkpt>
      <trkpt lat="44.01016" lon="2.04527">
        <ele>299</ele>
        <time>2011-03-26T14:28:16Z</time>
      </trkpt>
      <trkpt lat="44.01019" lon="2.04529">
        <ele>299</ele>
        <time>2011-03-26T14:28:17Z</time>
      </trkpt>
      <trkpt lat="44.01021" lon="2.04532">
        <ele>299</ele>
        <time>2011-03-26T14:28:18Z</time>
      </trkpt>
      <trkpt lat="44.01024" lon="2.04534">
        <ele>299</ele>
        <time>2011-03-26T14:28:19Z</time>
      </trkpt>
      <trkpt lat="44.01027" lon="2.04536">
        <ele>299</ele>
        <time>2011-03-26T14:28:20Z</time>
      </trkpt>
      <trkpt lat="44.01029" lon="2.04539">
        <ele>299</ele>
        <time>2011-03-26T14:28:21Z</time>
      </trkpt>
      <trkpt lat="44.01032" lon="2.04541">
        <ele>299</ele>
        <time>2011-03-26T14:28:22Z</time>
      </trkpt>
      <trkpt lat="44.01035" lon="2.04544">
        <ele>300</ele>
        <time>2011-03-26T14:28:23Z</time>
      </trkpt>
      <trkpt lat="44.01038" lon="2.04546">
        <ele>300</ele>
        <time>2011-03-26T14:28:24Z</time>
      </trkpt>
      <trkpt lat="44.01041" lon="2.04548">
        <ele>300</ele>
        <time>2011-03-26T14:28:25Z</time>
      </trkpt>
      <trkpt lat="44.01044" lon="2.04551">
        <ele>302</ele>
        <time>2011-03-26T14:28:26Z</time>
      </trkpt>
      <trkpt lat="44.01047" lon="2.04553">
        <ele>302</ele>
        <time>2011-03-26T14:28:27Z</time>
      </trkpt>
      <trkpt lat="44.0105" lon="2.04556">
        <ele>302</ele>
        <time>2011-03-26T14:28:28Z</time>
      </trkpt>
      <trkpt lat="44.01054" lon="2.04558">
        <ele>302</ele>
        <time>2011-03-26T14:28:29Z</time>
      </trkpt>
      <trkpt lat="44.01057" lon="2.04561">
        <ele>302</ele>
        <time>2011-03-26T14:28:30Z</time>
      </trkpt>
      <trkpt lat="44.0106" lon="2.04563">
        <ele>302</ele>
        <time>2011-03-26T14:28:31Z</time>
      </trkpt>
      <trkpt lat="44.01064" lon="2.04565">
        <ele>302</ele>
        <time>2011-03-26T14:28:32Z</time>
      </trkpt>
      <trkpt lat="44.01068" lon="2.04568">
        <ele>302</ele>
        <time>2011-03-26T14:28:33Z</time>
      </trkpt>
      <trkpt lat="44.01071" lon="2.0457">
        <ele>302</ele>
        <time>2011-03-26T14:28:34Z</time>
      </trkpt>
      <trkpt lat="44.01074" lon="2.04573">
        <ele>302</ele>
        <time>2011-03-26T14:28:35Z</time>
      </trkpt>
      <trkpt lat="44.01076" lon="2.04576">
        <ele>302</ele>
        <time>2011-03-26T14:28:36Z</time>
      </trkpt>
      <trkpt lat="44.01079" lon="2.04579">
        <ele>302</ele>
        <time>2011-03-26T14:28:37Z</time>
      </trkpt>
      <trkpt lat="44.01081" lon="2.04583">
        <ele>302</ele>
        <time>2011-03-26T14:28:38Z</time>
      </trkpt>
      <trkpt lat="44.01083" lon="2.04587">
        <ele>302</ele>
        <time>2011-03-26T14:28:39Z</time>
      </trkpt>
      <trkpt lat="44.01084" lon="2.04591">
        <ele>302</ele>
        <time>2011-03-26T14:28:40Z</time>
      </trkpt>
      <trkpt lat="44.01085" lon="2.04595">
        <ele>302</ele>
        <time>2011-03-26T14:28:41Z</time>
      </trkpt>
      <trkpt lat="44.01087" lon="2.046">
        <ele>302</ele>
        <time>2011-03-26T14:28:42Z</time>
      </trkpt>
      <trkpt lat="44.01088" lon="2.04605">
        <ele>302</ele>
        <time>2011-03-26T14:28:43Z</time>
      </trkpt>
      <trkpt lat="44.0109" lon="2.0461">
        <ele>302</ele>
        <time>2011-03-26T14:28:44Z</time>
      </trkpt>
      <trkpt lat="44.01091" lon="2.04616">
        <ele>302</ele>
        <time>2011-03-26T14:28:45Z</time>
      </trkpt>
      <trkpt lat="44.01092" lon="2.04621">
        <ele>302</ele>
        <time>2011-03-26T14:28:46Z</time>
      </trkpt>
      <trkpt lat="44.01093" lon="2.04627">
        <ele>301</ele>
        <time>2011-03-26T14:28:47Z</time>
      </trkpt>
      <trkpt lat="44.01094" lon="2.04632">
        <ele>301</ele>
        <time>2011-03-26T14:28:48Z</time>
      </trkpt>
      <trkpt lat="44.01095" lon="2.04638">
        <ele>301</ele>
        <time>2011-03-26T14:28:49Z</time>
      </trkpt>
      <trkpt lat="44.01096" lon="2.04644">
        <ele>301</ele>
        <time>2011-03-26T14:28:50Z</time>
      </trkpt>
      <trkpt lat="44.01098" lon="2.04649">
        <ele>301</ele>
        <time>2011-03-26T14:28:51Z</time>
      </trkpt>
      <trkpt lat="44.01099" lon="2.04655">
        <ele>301</ele>
        <time>2011-03-26T14:28:52Z</time>
      </trkpt>
      <trkpt lat="44.011" lon="2.04661">
        <ele>301</ele>
        <time>2011-03-26T14:28:53Z</time>
      </trkpt>
      <trkpt lat="44.01102" lon="2.04666">
        <ele>301</ele>
        <time>2011-03-26T14:28:54Z</time>
      </trkpt>
      <trkpt lat="44.01103" lon="2.04672">
        <ele>301</ele>
        <time>2011-03-26T14:28:55Z</time>
      </trkpt>
      <trkpt lat="44.01105" lon="2.04677">
        <ele>301</ele>
        <time>2011-03-26T14:28:56Z</time>
      </trkpt>
      <trkpt lat="44.01107" lon="2.04682">
        <ele>301</ele>
        <time>2011-03-26T14:28:57Z</time>
      </trkpt>
      <trkpt lat="44.01109" lon="2.04688">
        <ele>301</ele>
        <time>2011-03-26T14:28:58Z</time>
      </trkpt>
      <trkpt lat="44.01111" lon="2.04693">
        <ele>301</ele>
        <time>2011-03-26T14:28:59Z</time>
      </trkpt>
      <trkpt lat="44.01113" lon="2.04699">
        <ele>301</ele>
        <time>2011-03-26T14:29:00Z</time>
      </trkpt>
      <trkpt lat="44.01115" lon="2.04705">
        <ele>301</ele>
        <time>2011-03-26T14:29:01Z</time>
      </trkpt>
      <trkpt lat="44.01117" lon="2.0471">
        <ele>299</ele>
        <time>2011-03-26T14:29:02Z</time>
      </trkpt>
      <trkpt lat="44.01119" lon="2.04716">
        <ele>299</ele>
        <time>2011-03-26T14:29:03Z</time>
      </trkpt>
      <trkpt lat="44.01122" lon="2.04722">
        <ele>299</ele>
        <time>2011-03-26T14:29:04Z</time>
      </trkpt>
      <trkpt lat="44.01124" lon="2.04727">
        <ele>299</ele>
        <time>2011-03-26T14:29:05Z</time>
      </trkpt>
      <trkpt lat="44.01127" lon="2.04733">
        <ele>300</ele>
        <time>2011-03-26T14:29:06Z</time>
      </trkpt>
      <trkpt lat="44.01129" lon="2.04739">
        <ele>300</ele>
        <time>2011-03-26T14:29:07Z</time>
      </trkpt>
      <trkpt lat="44.01132" lon="2.04745">
        <ele>300</ele>
        <time>2011-03-26T14:29:08Z</time>
      </trkpt>
      <trkpt lat="44.01135" lon="2.04751">
        <ele>300</ele>
        <time>2011-03-26T14:29:09Z</time>
      </trkpt>
      <trkpt lat="44.01137" lon="2.04757">
        <ele>300</ele>
        <time>2011-03-26T14:29:10Z</time>
      </trkpt>
      <trkpt lat="44.0114" lon="2.04763">
        <ele>300</ele>
        <time>2011-03-26T14:29:11Z</time>
      </trkpt>
      <trkpt lat="44.01143" lon="2.04769">
        <ele>300</ele>
        <time>2011-03-26T14:29:12Z</time>
      </trkpt>
      <trkpt lat="44.01146" lon="2.04776">
        <ele>300</ele>
        <time>2011-03-26T14:29:13Z</time>
      </trkpt>
      <trkpt lat="44.01148" lon="2.04782">
        <ele>300</ele>
        <time>2011-03-26T14:29:14Z</time>
      </trkpt>
      <trkpt lat="44.01151" lon="2.04788">
        <ele>300</ele>
        <time>2011-03-26T14:29:15Z</time>
      </trkpt>
      <trkpt lat="44.01154" lon="2.04794">
        <ele>303</ele>
        <time>2011-03-26T14:29:16Z</time>
      </trkpt>
      <trkpt lat="44.01157" lon="2.048">
        <ele>303</ele>
        <time>2011-03-26T14:29:17Z</time>
      </trkpt>
      <trkpt lat="44.0116" lon="2.04807">
        <ele>303</ele>
        <time>2011-03-26T14:29:18Z</time>
      </trkpt>
      <trkpt lat="44.01163" lon="2.04812">
        <ele>303</ele>
        <time>2011-03-26T14:29:19Z</time>
      </trkpt>
      <trkpt lat="44.01166" lon="2.04819">
        <ele>303</ele>
        <time>2011-03-26T14:29:20Z</time>
      </trkpt>
      <trkpt lat="44.01168" lon="2.04825">
        <ele>303</ele>
        <time>2011-03-26T14:29:21Z</time>
      </trkpt>
      <trkpt lat="44.01171" lon="2.0483">
        <ele>303</ele>
        <time>2011-03-26T14:29:22Z</time>
      </trkpt>
      <trkpt lat="44.01174" lon="2.04836">
        <ele>303</ele>
        <time>2011-03-26T14:29:23Z</time>
      </trkpt>
      <trkpt lat="44.01177" lon="2.04841">
        <ele>303</ele>
        <time>2011-03-26T14:29:24Z</time>
      </trkpt>
      <trkpt lat="44.0118" lon="2.04846">
        <ele>303</ele>
        <time>2011-03-26T14:29:25Z</time>
      </trkpt>
      <trkpt lat="44.01183" lon="2.04851">
        <ele>303</ele>
        <time>2011-03-26T14:29:26Z</time>
      </trkpt>
      <trkpt lat="44.01187" lon="2.04856">
        <ele>303</ele>
        <time>2011-03-26T14:29:27Z</time>
      </trkpt>
      <trkpt lat="44.0119" lon="2.04861">
        <ele>303</ele>
        <time>2011-03-26T14:29:28Z</time>
      </trkpt>
      <trkpt lat="44.01193" lon="2.04867">
        <ele>303</ele>
        <time>2011-03-26T14:29:29Z</time>
      </trkpt>
      <trkpt lat="44.01197" lon="2.04872">
        <ele>303</ele>
        <time>2011-03-26T14:29:30Z</time>
      </trkpt>
      <trkpt lat="44.012" lon="2.04877">
        <ele>301</ele>
        <time>2011-03-26T14:29:31Z</time>
      </trkpt>
      <trkpt lat="44.01203" lon="2.04882">
        <ele>301</ele>
        <time>2011-03-26T14:29:32Z</time>
      </trkpt>
      <trkpt lat="44.01207" lon="2.04887">
        <ele>301</ele>
        <time>2011-03-26T14:29:33Z</time>
      </trkpt>
      <trkpt lat="44.0121" lon="2.04892">
        <ele>301</ele>
        <time>2011-03-26T14:29:34Z</time>
      </trkpt>
      <trkpt lat="44.01213" lon="2.04897">
        <ele>301</ele>
        <time>2011-03-26T14:29:35Z</time>
      </trkpt>
      <trkpt lat="44.01216" lon="2.04902">
        <ele>301</ele>
        <time>2011-03-26T14:29:36Z</time>
      </trkpt>
      <trkpt lat="44.01219" lon="2.04908">
        <ele>301</ele>
        <time>2011-03-26T14:29:37Z</time>
      </trkpt>
      <trkpt lat="44.01223" lon="2.04914">
        <ele>301</ele>
        <time>2011-03-26T14:29:38Z</time>
      </trkpt>
      <trkpt lat="44.01226" lon="2.04919">
        <ele>301</ele>
        <time>2011-03-26T14:29:39Z</time>
      </trkpt>
      <trkpt lat="44.0123" lon="2.04926">
        <ele>301</ele>
        <time>2011-03-26T14:29:40Z</time>
      </trkpt>
      <trkpt lat="44.01233" lon="2.04932">
        <ele>301</ele>
        <time>2011-03-26T14:29:41Z</time>
      </trkpt>
      <trkpt lat="44.01236" lon="2.04939">
        <ele>301</ele>
        <time>2011-03-26T14:29:42Z</time>
      </trkpt>
      <trkpt lat="44.0124" lon="2.04946">
        <ele>301</ele>
        <time>2011-03-26T14:29:43Z</time>
      </trkpt>
      <trkpt lat="44.01243" lon="2.04953">
        <ele>301</ele>
        <time>2011-03-26T14:29:44Z</time>
      </trkpt>
      <trkpt lat="44.01247" lon="2.0496">
        <ele>300</ele>
        <time>2011-03-26T14:29:45Z</time>
      </trkpt>
      <trkpt lat="44.0125" lon="2.04967">
        <ele>300</ele>
        <time>2011-03-26T14:29:46Z</time>
      </trkpt>
      <trkpt lat="44.01254" lon="2.04973">
        <ele>300</ele>
        <time>2011-03-26T14:29:47Z</time>
      </trkpt>
      <trkpt lat="44.01257" lon="2.0498">
        <ele>300</ele>
        <time>2011-03-26T14:29:48Z</time>
      </trkpt>
      <trkpt lat="44.0126" lon="2.04987">
        <ele>300</ele>
        <time>2011-03-26T14:29:49Z</time>
      </trkpt>
      <trkpt lat="44.01263" lon="2.04994">
        <ele>300</ele>
        <time>2011-03-26T14:29:50Z</time>
      </trkpt>
      <trkpt lat="44.01266" lon="2.05002">
        <ele>300</ele>
        <time>2011-03-26T14:29:51Z</time>
      </trkpt>
      <trkpt lat="44.0127" lon="2.05009">
        <ele>300</ele>
        <time>2011-03-26T14:29:52Z</time>
      </trkpt>
      <trkpt lat="44.01273" lon="2.05016">
        <ele>300</ele>
        <time>2011-03-26T14:29:53Z</time>
      </trkpt>
      <trkpt lat="44.01276" lon="2.05023">
        <ele>300</ele>
        <time>2011-03-26T14:29:54Z</time>
      </trkpt>
      <trkpt lat="44.01279" lon="2.05029">
        <ele>300</ele>
        <time>2011-03-26T14:29:55Z</time>
      </trkpt>
      <trkpt lat="44.01283" lon="2.05036">
        <ele>300</ele>
        <time>2011-03-26T14:29:56Z</time>
      </trkpt>
      <trkpt lat="44.01286" lon="2.05043">
        <ele>301</ele>
        <time>2011-03-26T14:29:57Z</time>
      </trkpt>
      <trkpt lat="44.01289" lon="2.05049">
        <ele>301</ele>
        <time>2011-03-26T14:29:58Z</time>
      </trkpt>
      <trkpt lat="44.01292" lon="2.05055">
        <ele>302</ele>
        <time>2011-03-26T14:29:59Z</time>
      </trkpt>
      <trkpt lat="44.01294" lon="2.0506">
        <ele>302</ele>
        <time>2011-03-26T14:30:00Z</time>
      </trkpt>
      <trkpt lat="44.01296" lon="2.05065">
        <ele>302</ele>
        <time>2011-03-26T14:30:01Z</time>
      </trkpt>
      <trkpt lat="44.01298" lon="2.05069">
        <ele>302</ele>
        <time>2011-03-26T14:30:02Z</time>
      </trkpt>
      <trkpt lat="44.01299" lon="2.05073">
        <ele>302</ele>
        <time>2011-03-26T14:30:03Z</time>
      </trkpt>
      <trkpt lat="44.01305" lon="2.05077">
        <ele>302</ele>
        <time>2011-03-26T14:30:06Z</time>
      </trkpt>
      <trkpt lat="44.01307" lon="2.05074">
        <ele>302</ele>
        <time>2011-03-26T14:30:07Z</time>
      </trkpt>
      <trkpt lat="44.0131" lon="2.05071">
        <ele>302</ele>
        <time>2011-03-26T14:30:08Z</time>
      </trkpt>
      <trkpt lat="44.01312" lon="2.05066">
        <ele>302</ele>
        <time>2011-03-26T14:30:09Z</time>
      </trkpt>
      <trkpt lat="44.01315" lon="2.05061">
        <ele>302</ele>
        <time>2011-03-26T14:30:10Z</time>
      </trkpt>
      <trkpt lat="44.01318" lon="2.05057">
        <ele>302</ele>
        <time>2011-03-26T14:30:11Z</time>
      </trkpt>
      <trkpt lat="44.0132" lon="2.05053">
        <ele>302</ele>
        <time>2011-03-26T14:30:12Z</time>
      </trkpt>
      <trkpt lat="44.01324" lon="2.05049">
        <ele>302</ele>
        <time>2011-03-26T14:30:13Z</time>
      </trkpt>
      <trkpt lat="44.01326" lon="2.05045">
        <ele>302</ele>
        <time>2011-03-26T14:30:14Z</time>
      </trkpt>
      <trkpt lat="44.01329" lon="2.05042">
        <ele>300</ele>
        <time>2011-03-26T14:30:15Z</time>
      </trkpt>
      <trkpt lat="44.01333" lon="2.05038">
        <ele>300</ele>
        <time>2011-03-26T14:30:16Z</time>
      </trkpt>
      <trkpt lat="44.01336" lon="2.05034">
        <ele>300</ele>
        <time>2011-03-26T14:30:17Z</time>
      </trkpt>
      <trkpt lat="44.01339" lon="2.0503">
        <ele>300</ele>
        <time>2011-03-26T14:30:18Z</time>
      </trkpt>
      <trkpt lat="44.01342" lon="2.05026">
        <ele>300</ele>
        <time>2011-03-26T14:30:19Z</time>
      </trkpt>
      <trkpt lat="44.01345" lon="2.05022">
        <ele>300</ele>
        <time>2011-03-26T14:30:20Z</time>
      </trkpt>
      <trkpt lat="44.01348" lon="2.05018">
        <ele>300</ele>
        <time>2011-03-26T14:30:21Z</time>
      </trkpt>
      <trkpt lat="44.01351" lon="2.05014">
        <ele>300</ele>
        <time>2011-03-26T14:30:22Z</time>
      </trkpt>
      <trkpt lat="44.01355" lon="2.0501">
        <ele>300</ele>
        <time>2011-03-26T14:30:23Z</time>
      </trkpt>
      <trkpt lat="44.01358" lon="2.05006">
        <ele>300</ele>
        <time>2011-03-26T14:30:24Z</time>
      </trkpt>
      <trkpt lat="44.01361" lon="2.05003">
        <ele>300</ele>
        <time>2011-03-26T14:30:25Z</time>
      </trkpt>
      <trkpt lat="44.01364" lon="2.04999">
        <ele>300</ele>
        <time>2011-03-26T14:30:26Z</time>
      </trkpt>
      <trkpt lat="44.01368" lon="2.04995">
        <ele>300</ele>
        <time>2011-03-26T14:30:27Z</time>
      </trkpt>
      <trkpt lat="44.01371" lon="2.0499">
        <ele>300</ele>
        <time>2011-03-26T14:30:28Z</time>
      </trkpt>
      <trkpt lat="44.01374" lon="2.04986">
        <ele>300</ele>
        <time>2011-03-26T14:30:29Z</time>
      </trkpt>
      <trkpt lat="44.01378" lon="2.04982">
        <ele>300</ele>
        <time>2011-03-26T14:30:30Z</time>
      </trkpt>
      <trkpt lat="44.01382" lon="2.04978">
        <ele>300</ele>
        <time>2011-03-26T14:30:31Z</time>
      </trkpt>
      <trkpt lat="44.01386" lon="2.04974">
        <ele>300</ele>
        <time>2011-03-26T14:30:32Z</time>
      </trkpt>
      <trkpt lat="44.01389" lon="2.0497">
        <ele>300</ele>
        <time>2011-03-26T14:30:33Z</time>
      </trkpt>
      <trkpt lat="44.01393" lon="2.04966">
        <ele>300</ele>
        <time>2011-03-26T14:30:34Z</time>
      </trkpt>
      <trkpt lat="44.01397" lon="2.04961">
        <ele>300</ele>
        <time>2011-03-26T14:30:35Z</time>
      </trkpt>
      <trkpt lat="44.01401" lon="2.04957">
        <ele>301</ele>
        <time>2011-03-26T14:30:36Z</time>
      </trkpt>
      <trkpt lat="44.01405" lon="2.04954">
        <ele>301</ele>
        <time>2011-03-26T14:30:37Z</time>
      </trkpt>
      <trkpt lat="44.01409" lon="2.0495">
        <ele>301</ele>
        <time>2011-03-26T14:30:38Z</time>
      </trkpt>
      <trkpt lat="44.01413" lon="2.04946">
        <ele>301</ele>
        <time>2011-03-26T14:30:39Z</time>
      </trkpt>
      <trkpt lat="44.01417" lon="2.04942">
        <ele>301</ele>
        <time>2011-03-26T14:30:40Z</time>
      </trkpt>
      <trkpt lat="44.01421" lon="2.04938">
        <ele>301</ele>
        <time>2011-03-26T14:30:41Z</time>
      </trkpt>
      <trkpt lat="44.01424" lon="2.04934">
        <ele>301</ele>
        <time>2011-03-26T14:30:42Z</time>
      </trkpt>
      <trkpt lat="44.01428" lon="2.0493">
        <ele>301</ele>
        <time>2011-03-26T14:30:43Z</time>
      </trkpt>
      <trkpt lat="44.01433" lon="2.04925">
        <ele>301</ele>
        <time>2011-03-26T14:30:44Z</time>
      </trkpt>
      <trkpt lat="44.01437" lon="2.04921">
        <ele>301</ele>
        <time>2011-03-26T14:30:45Z</time>
      </trkpt>
      <trkpt lat="44.01441" lon="2.04917">
        <ele>301</ele>
        <time>2011-03-26T14:30:46Z</time>
      </trkpt>
      <trkpt lat="44.01445" lon="2.04912">
        <ele>301</ele>
        <time>2011-03-26T14:30:47Z</time>
      </trkpt>
      <trkpt lat="44.0145" lon="2.04908">
        <ele>301</ele>
        <time>2011-03-26T14:30:48Z</time>
      </trkpt>
      <trkpt lat="44.01454" lon="2.04903">
        <ele>301</ele>
        <time>2011-03-26T14:30:49Z</time>
      </trkpt>
      <trkpt lat="44.01458" lon="2.04898">
        <ele>301</ele>
        <time>2011-03-26T14:30:50Z</time>
      </trkpt>
      <trkpt lat="44.01463" lon="2.04894">
        <ele>299</ele>
        <time>2011-03-26T14:30:51Z</time>
      </trkpt>
      <trkpt lat="44.01467" lon="2.04888">
        <ele>299</ele>
        <time>2011-03-26T14:30:52Z</time>
      </trkpt>
      <trkpt lat="44.01472" lon="2.04883">
        <ele>299</ele>
        <time>2011-03-26T14:30:53Z</time>
      </trkpt>
      <trkpt lat="44.01477" lon="2.04877">
        <ele>299</ele>
        <time>2011-03-26T14:30:54Z</time>
      </trkpt>
      <trkpt lat="44.01482" lon="2.04872">
        <ele>297</ele>
        <time>2011-03-26T14:30:55Z</time>
      </trkpt>
      <trkpt lat="44.01487" lon="2.04866">
        <ele>297</ele>
        <time>2011-03-26T14:30:56Z</time>
      </trkpt>
      <trkpt lat="44.01492" lon="2.04861">
        <ele>297</ele>
        <time>2011-03-26T14:30:57Z</time>
      </trkpt>
      <trkpt lat="44.01496" lon="2.04855">
        <ele>297</ele>
        <time>2011-03-26T14:30:58Z</time>
      </trkpt>
      <trkpt lat="44.01501" lon="2.0485">
        <ele>297</ele>
        <time>2011-03-26T14:30:59Z</time>
      </trkpt>
      <trkpt lat="44.01506" lon="2.04844">
        <ele>297</ele>
        <time>2011-03-26T14:31:00Z</time>
      </trkpt>
      <trkpt lat="44.01512" lon="2.04839">
        <ele>297</ele>
        <time>2011-03-26T14:31:01Z</time>
      </trkpt>
      <trkpt lat="44.01517" lon="2.04833">
        <ele>297</ele>
        <time>2011-03-26T14:31:02Z</time>
      </trkpt>
      <trkpt lat="44.01522" lon="2.04827">
        <ele>297</ele>
        <time>2011-03-26T14:31:03Z</time>
      </trkpt>
      <trkpt lat="44.01527" lon="2.04821">
        <ele>297</ele>
        <time>2011-03-26T14:31:04Z</time>
      </trkpt>
      <trkpt lat="44.01532" lon="2.04814">
        <ele>297</ele>
        <time>2011-03-26T14:31:05Z</time>
      </trkpt>
      <trkpt lat="44.01538" lon="2.04808">
        <ele>297</ele>
        <time>2011-03-26T14:31:06Z</time>
      </trkpt>
      <trkpt lat="44.01543" lon="2.04802">
        <ele>295</ele>
        <time>2011-03-26T14:31:07Z</time>
      </trkpt>
      <trkpt lat="44.01549" lon="2.04796">
        <ele>295</ele>
        <time>2011-03-26T14:31:08Z</time>
      </trkpt>
      <trkpt lat="44.01554" lon="2.0479">
        <ele>294</ele>
        <time>2011-03-26T14:31:09Z</time>
      </trkpt>
      <trkpt lat="44.01559" lon="2.04784">
        <ele>294</ele>
        <time>2011-03-26T14:31:10Z</time>
      </trkpt>
      <trkpt lat="44.01565" lon="2.04778">
        <ele>294</ele>
        <time>2011-03-26T14:31:11Z</time>
      </trkpt>
      <trkpt lat="44.0157" lon="2.04772">
        <ele>294</ele>
        <time>2011-03-26T14:31:12Z</time>
      </trkpt>
      <trkpt lat="44.01576" lon="2.04765">
        <ele>294</ele>
        <time>2011-03-26T14:31:13Z</time>
      </trkpt>
      <trkpt lat="44.01581" lon="2.04759">
        <ele>294</ele>
        <time>2011-03-26T14:31:14Z</time>
      </trkpt>
      <trkpt lat="44.01586" lon="2.04752">
        <ele>294</ele>
        <time>2011-03-26T14:31:15Z</time>
      </trkpt>
      <trkpt lat="44.01591" lon="2.04744">
        <ele>294</ele>
        <time>2011-03-26T14:31:16Z</time>
      </trkpt>
      <trkpt lat="44.01596" lon="2.04736">
        <ele>294</ele>
        <time>2011-03-26T14:31:17Z</time>
      </trkpt>
      <trkpt lat="44.016" lon="2.04728">
        <ele>294</ele>
        <time>2011-03-26T14:31:18Z</time>
      </trkpt>
      <trkpt lat="44.01605" lon="2.0472">
        <ele>294</ele>
        <time>2011-03-26T14:31:19Z</time>
      </trkpt>
      <trkpt lat="44.01609" lon="2.04712">
        <ele>294</ele>
        <time>2011-03-26T14:31:20Z</time>
      </trkpt>
      <trkpt lat="44.01613" lon="2.04703">
        <ele>290</ele>
        <time>2011-03-26T14:31:21Z</time>
      </trkpt>
      <trkpt lat="44.01618" lon="2.04695">
        <ele>290</ele>
        <time>2011-03-26T14:31:22Z</time>
      </trkpt>
      <trkpt lat="44.01622" lon="2.04686">
        <ele>290</ele>
        <time>2011-03-26T14:31:23Z</time>
      </trkpt>
      <trkpt lat="44.01627" lon="2.04677">
        <ele>288</ele>
        <time>2011-03-26T14:31:24Z</time>
      </trkpt>
      <trkpt lat="44.01631" lon="2.04669">
        <ele>288</ele>
        <time>2011-03-26T14:31:25Z</time>
      </trkpt>
      <trkpt lat="44.01636" lon="2.0466">
        <ele>288</ele>
        <time>2011-03-26T14:31:26Z</time>
      </trkpt>
      <trkpt lat="44.01641" lon="2.04651">
        <ele>288</ele>
        <time>2011-03-26T14:31:27Z</time>
      </trkpt>
      <trkpt lat="44.01646" lon="2.04642">
        <ele>288</ele>
        <time>2011-03-26T14:31:28Z</time>
      </trkpt>
      <trkpt lat="44.0165" lon="2.04634">
        <ele>288</ele>
        <time>2011-03-26T14:31:29Z</time>
      </trkpt>
      <trkpt lat="44.01655" lon="2.04626">
        <ele>288</ele>
        <time>2011-03-26T14:31:30Z</time>
      </trkpt>
      <trkpt lat="44.01659" lon="2.04618">
        <ele>286</ele>
        <time>2011-03-26T14:31:31Z</time>
      </trkpt>
      <trkpt lat="44.01664" lon="2.0461">
        <ele>286</ele>
        <time>2011-03-26T14:31:32Z</time>
      </trkpt>
      <trkpt lat="44.01668" lon="2.04602">
        <ele>286</ele>
        <time>2011-03-26T14:31:33Z</time>
      </trkpt>
      <trkpt lat="44.01672" lon="2.04594">
        <ele>286</ele>
        <time>2011-03-26T14:31:34Z</time>
      </trkpt>
      <trkpt lat="44.01676" lon="2.04586">
        <ele>286</ele>
        <time>2011-03-26T14:31:35Z</time>
      </trkpt>
      <trkpt lat="44.0168" lon="2.04578">
        <ele>286</ele>
        <time>2011-03-26T14:31:36Z</time>
      </trkpt>
      <trkpt lat="44.01684" lon="2.04569">
        <ele>286</ele>
        <time>2011-03-26T14:31:37Z</time>
      </trkpt>
      <trkpt lat="44.01688" lon="2.04561">
        <ele>286</ele>
        <time>2011-03-26T14:31:38Z</time>
      </trkpt>
      <trkpt lat="44.01692" lon="2.04553">
        <ele>286</ele>
        <time>2011-03-26T14:31:39Z</time>
      </trkpt>
      <trkpt lat="44.01696" lon="2.04545">
        <ele>286</ele>
        <time>2011-03-26T14:31:40Z</time>
      </trkpt>
      <trkpt lat="44.017" lon="2.04537">
        <ele>280</ele>
        <time>2011-03-26T14:31:41Z</time>
      </trkpt>
      <trkpt lat="44.01704" lon="2.04529">
        <ele>280</ele>
        <time>2011-03-26T14:31:42Z</time>
      </trkpt>
      <trkpt lat="44.01709" lon="2.04521">
        <ele>277</ele>
        <time>2011-03-26T14:31:43Z</time>
      </trkpt>
      <trkpt lat="44.01713" lon="2.04513">
        <ele>277</ele>
        <time>2011-03-26T14:31:44Z</time>
      </trkpt>
      <trkpt lat="44.01717" lon="2.04504">
        <ele>277</ele>
        <time>2011-03-26T14:31:45Z</time>
      </trkpt>
      <trkpt lat="44.0172" lon="2.04495">
        <ele>277</ele>
        <time>2011-03-26T14:31:46Z</time>
      </trkpt>
      <trkpt lat="44.01724" lon="2.04485">
        <ele>277</ele>
        <time>2011-03-26T14:31:47Z</time>
      </trkpt>
      <trkpt lat="44.01725" lon="2.04474">
        <ele>277</ele>
        <time>2011-03-26T14:31:48Z</time>
      </trkpt>
      <trkpt lat="44.01726" lon="2.04462">
        <ele>277</ele>
        <time>2011-03-26T14:31:49Z</time>
      </trkpt>
      <trkpt lat="44.01728" lon="2.04451">
        <ele>268</ele>
        <time>2011-03-26T14:31:50Z</time>
      </trkpt>
      <trkpt lat="44.0173" lon="2.04441">
        <ele>268</ele>
        <time>2011-03-26T14:31:51Z</time>
      </trkpt>
      <trkpt lat="44.01731" lon="2.04431">
        <ele>268</ele>
        <time>2011-03-26T14:31:52Z</time>
      </trkpt>
      <trkpt lat="44.01729" lon="2.04421">
        <ele>268</ele>
        <time>2011-03-26T14:31:53Z</time>
      </trkpt>
      <trkpt lat="44.01727" lon="2.04411">
        <ele>268</ele>
        <time>2011-03-26T14:31:54Z</time>
      </trkpt>
      <trkpt lat="44.01725" lon="2.04401">
        <ele>268</ele>
        <time>2011-03-26T14:31:55Z</time>
      </trkpt>
      <trkpt lat="44.01723" lon="2.04393">
        <ele>268</ele>
        <time>2011-03-26T14:31:56Z</time>
      </trkpt>
      <trkpt lat="44.0172" lon="2.04386">
        <ele>268</ele>
        <time>2011-03-26T14:31:57Z</time>
      </trkpt>
      <trkpt lat="44.01718" lon="2.0438">
        <ele>268</ele>
        <time>2011-03-26T14:31:58Z</time>
      </trkpt>
      <trkpt lat="44.01717" lon="2.04373">
        <ele>259</ele>
        <time>2011-03-26T14:31:59Z</time>
      </trkpt>
      <trkpt lat="44.01719" lon="2.04366">
        <ele>259</ele>
        <time>2011-03-26T14:32:00Z</time>
      </trkpt>
      <trkpt lat="44.01721" lon="2.04361">
        <ele>259</ele>
        <time>2011-03-26T14:32:01Z</time>
      </trkpt>
      <trkpt lat="44.01725" lon="2.04357">
        <ele>259</ele>
        <time>2011-03-26T14:32:02Z</time>
      </trkpt>
      <trkpt lat="44.01729" lon="2.04354">
        <ele>259</ele>
        <time>2011-03-26T14:32:03Z</time>
      </trkpt>
      <trkpt lat="44.01734" lon="2.04352">
        <ele>259</ele>
        <time>2011-03-26T14:32:04Z</time>
      </trkpt>
      <trkpt lat="44.01739" lon="2.04355">
        <ele>259</ele>
        <time>2011-03-26T14:32:05Z</time>
      </trkpt>
      <trkpt lat="44.01744" lon="2.04354">
        <ele>259</ele>
        <time>2011-03-26T14:32:06Z</time>
      </trkpt>
      <trkpt lat="44.01749" lon="2.04354">
        <ele>259</ele>
        <time>2011-03-26T14:32:07Z</time>
      </trkpt>
      <trkpt lat="44.01756" lon="2.04353">
        <ele>259</ele>
        <time>2011-03-26T14:32:08Z</time>
      </trkpt>
      <trkpt lat="44.01762" lon="2.0435">
        <ele>259</ele>
        <time>2011-03-26T14:32:09Z</time>
      </trkpt>
      <trkpt lat="44.01769" lon="2.04347">
        <ele>259</ele>
        <time>2011-03-26T14:32:10Z</time>
      </trkpt>
      <trkpt lat="44.01775" lon="2.04344">
        <ele>259</ele>
        <time>2011-03-26T14:32:11Z</time>
      </trkpt>
      <trkpt lat="44.01781" lon="2.04341">
        <ele>259</ele>
        <time>2011-03-26T14:32:12Z</time>
      </trkpt>
      <trkpt lat="44.01787" lon="2.04339">
        <ele>259</ele>
        <time>2011-03-26T14:32:13Z</time>
      </trkpt>
      <trkpt lat="44.01793" lon="2.04337">
        <ele>260</ele>
        <time>2011-03-26T14:32:14Z</time>
      </trkpt>
      <trkpt lat="44.01798" lon="2.04336">
        <ele>260</ele>
        <time>2011-03-26T14:32:15Z</time>
      </trkpt>
      <trkpt lat="44.01804" lon="2.04335">
        <ele>260</ele>
        <time>2011-03-26T14:32:16Z</time>
      </trkpt>
      <trkpt lat="44.01809" lon="2.04333">
        <ele>260</ele>
        <time>2011-03-26T14:32:17Z</time>
      </trkpt>
      <trkpt lat="44.01814" lon="2.04332">
        <ele>260</ele>
        <time>2011-03-26T14:32:18Z</time>
      </trkpt>
      <trkpt lat="44.0182" lon="2.0433">
        <ele>260</ele>
        <time>2011-03-26T14:32:19Z</time>
      </trkpt>
      <trkpt lat="44.01825" lon="2.04328">
        <ele>260</ele>
        <time>2011-03-26T14:32:20Z</time>
      </trkpt>
      <trkpt lat="44.01831" lon="2.04326">
        <ele>260</ele>
        <time>2011-03-26T14:32:21Z</time>
      </trkpt>
      <trkpt lat="44.01835" lon="2.04324">
        <ele>260</ele>
        <time>2011-03-26T14:32:22Z</time>
      </trkpt>
      <trkpt lat="44.01838" lon="2.04321">
        <ele>260</ele>
        <time>2011-03-26T14:32:23Z</time>
      </trkpt>
      <trkpt lat="44.0184" lon="2.04316">
        <ele>260</ele>
        <time>2011-03-26T14:32:24Z</time>
      </trkpt>
      <trkpt lat="44.01841" lon="2.04311">
        <ele>260</ele>
        <time>2011-03-26T14:32:25Z</time>
      </trkpt>
      <trkpt lat="44.01841" lon="2.04305">
        <ele>260</ele>
        <time>2011-03-26T14:32:26Z</time>
      </trkpt>
      <trkpt lat="44.0184" lon="2.043">
        <ele>260</ele>
        <time>2011-03-26T14:32:27Z</time>
      </trkpt>
      <trkpt lat="44.01839" lon="2.04294">
        <ele>260</ele>
        <time>2011-03-26T14:32:28Z</time>
      </trkpt>
      <trkpt lat="44.01838" lon="2.04287">
        <ele>264</ele>
        <time>2011-03-26T14:32:29Z</time>
      </trkpt>
      <trkpt lat="44.01837" lon="2.04282">
        <ele>264</ele>
        <time>2011-03-26T14:32:30Z</time>
      </trkpt>
      <trkpt lat="44.01836" lon="2.04276">
        <ele>264</ele>
        <time>2011-03-26T14:32:31Z</time>
      </trkpt>
      <trkpt lat="44.01835" lon="2.04271">
        <ele>264</ele>
        <time>2011-03-26T14:32:32Z</time>
      </trkpt>
      <trkpt lat="44.01834" lon="2.04265">
        <ele>264</ele>
        <time>2011-03-26T14:32:33Z</time>
      </trkpt>
      <trkpt lat="44.01833" lon="2.0426">
        <ele>264</ele>
        <time>2011-03-26T14:32:34Z</time>
      </trkpt>
      <trkpt lat="44.01831" lon="2.04254">
        <ele>264</ele>
        <time>2011-03-26T14:32:35Z</time>
      </trkpt>
      <trkpt lat="44.01829" lon="2.04248">
        <ele>264</ele>
        <time>2011-03-26T14:32:36Z</time>
      </trkpt>
      <trkpt lat="44.01827" lon="2.04241">
        <ele>264</ele>
        <time>2011-03-26T14:32:37Z</time>
      </trkpt>
      <trkpt lat="44.01825" lon="2.04234">
        <ele>264</ele>
        <time>2011-03-26T14:32:38Z</time>
      </trkpt>
      <trkpt lat="44.01823" lon="2.04226">
        <ele>264</ele>
        <time>2011-03-26T14:32:39Z</time>
      </trkpt>
      <trkpt lat="44.01821" lon="2.04219">
        <ele>264</ele>
        <time>2011-03-26T14:32:40Z</time>
      </trkpt>
      <trkpt lat="44.01818" lon="2.04211">
        <ele>264</ele>
        <time>2011-03-26T14:32:41Z</time>
      </trkpt>
      <trkpt lat="44.01816" lon="2.04203">
        <ele>269</ele>
        <time>2011-03-26T14:32:42Z</time>
      </trkpt>
      <trkpt lat="44.01813" lon="2.04195">
        <ele>269</ele>
        <time>2011-03-26T14:32:43Z</time>
      </trkpt>
      <trkpt lat="44.01811" lon="2.04188">
        <ele>269</ele>
        <time>2011-03-26T14:32:44Z</time>
      </trkpt>
      <trkpt lat="44.01808" lon="2.0418">
        <ele>269</ele>
        <time>2011-03-26T14:32:45Z</time>
      </trkpt>
      <trkpt lat="44.01805" lon="2.04172">
        <ele>269</ele>
        <time>2011-03-26T14:32:46Z</time>
      </trkpt>
      <trkpt lat="44.01803" lon="2.04165">
        <ele>269</ele>
        <time>2011-03-26T14:32:47Z</time>
      </trkpt>
      <trkpt lat="44.018" lon="2.04157">
        <ele>269</ele>
        <time>2011-03-26T14:32:48Z</time>
      </trkpt>
      <trkpt lat="44.01797" lon="2.04149">
        <ele>269</ele>
        <time>2011-03-26T14:32:49Z</time>
      </trkpt>
      <trkpt lat="44.01794" lon="2.04142">
        <ele>269</ele>
        <time>2011-03-26T14:32:50Z</time>
      </trkpt>
      <trkpt lat="44.01791" lon="2.04134">
        <ele>257</ele>
        <time>2011-03-26T14:32:51Z</time>
      </trkpt>
      <trkpt lat="44.01788" lon="2.04126">
        <ele>257</ele>
        <time>2011-03-26T14:32:52Z</time>
      </trkpt>
      <trkpt lat="44.01785" lon="2.04119">
        <ele>258</ele>
        <time>2011-03-26T14:32:53Z</time>
      </trkpt>
      <trkpt lat="44.01782" lon="2.04111">
        <ele>258</ele>
        <time>2011-03-26T14:32:54Z</time>
      </trkpt>
      <trkpt lat="44.0178" lon="2.04104">
        <ele>258</ele>
        <time>2011-03-26T14:32:55Z</time>
      </trkpt>
      <trkpt lat="44.01777" lon="2.04096">
        <ele>258</ele>
        <time>2011-03-26T14:32:56Z</time>
      </trkpt>
      <trkpt lat="44.01774" lon="2.04088">
        <ele>258</ele>
        <time>2011-03-26T14:32:57Z</time>
      </trkpt>
      <trkpt lat="44.0177" lon="2.0408">
        <ele>258</ele>
        <time>2011-03-26T14:32:58Z</time>
      </trkpt>
      <trkpt lat="44.01767" lon="2.04073">
        <ele>258</ele>
        <time>2011-03-26T14:32:59Z</time>
      </trkpt>
      <trkpt lat="44.01762" lon="2.04067">
        <ele>258</ele>
        <time>2011-03-26T14:33:00Z</time>
      </trkpt>
      <trkpt lat="44.01758" lon="2.04061">
        <ele>258</ele>
        <time>2011-03-26T14:33:01Z</time>
      </trkpt>
      <trkpt lat="44.01753" lon="2.04055">
        <ele>258</ele>
        <time>2011-03-26T14:33:02Z</time>
      </trkpt>
      <trkpt lat="44.01747" lon="2.0405">
        <ele>258</ele>
        <time>2011-03-26T14:33:03Z</time>
      </trkpt>
      <trkpt lat="44.01742" lon="2.04044">
        <ele>258</ele>
        <time>2011-03-26T14:33:04Z</time>
      </trkpt>
      <trkpt lat="44.01736" lon="2.04038">
        <ele>265</ele>
        <time>2011-03-26T14:33:05Z</time>
      </trkpt>
      <trkpt lat="44.0173" lon="2.04032">
        <ele>265</ele>
        <time>2011-03-26T14:33:06Z</time>
      </trkpt>
      <trkpt lat="44.01725" lon="2.04025">
        <ele>265</ele>
        <time>2011-03-26T14:33:07Z</time>
      </trkpt>
      <trkpt lat="44.0172" lon="2.04018">
        <ele>265</ele>
        <time>2011-03-26T14:33:08Z</time>
      </trkpt>
      <trkpt lat="44.01716" lon="2.0401">
        <ele>265</ele>
        <time>2011-03-26T14:33:09Z</time>
      </trkpt>
      <trkpt lat="44.01713" lon="2.04001">
        <ele>265</ele>
        <time>2011-03-26T14:33:10Z</time>
      </trkpt>
      <trkpt lat="44.01709" lon="2.03993">
        <ele>265</ele>
        <time>2011-03-26T14:33:11Z</time>
      </trkpt>
      <trkpt lat="44.01706" lon="2.03986">
        <ele>255</ele>
        <time>2011-03-26T14:33:12Z</time>
      </trkpt>
      <trkpt lat="44.01703" lon="2.03979">
        <ele>255</ele>
        <time>2011-03-26T14:33:13Z</time>
      </trkpt>
      <trkpt lat="44.017" lon="2.03971">
        <ele>255</ele>
        <time>2011-03-26T14:33:14Z</time>
      </trkpt>
      <trkpt lat="44.01697" lon="2.03964">
        <ele>255</ele>
        <time>2011-03-26T14:33:15Z</time>
      </trkpt>
      <trkpt lat="44.01695" lon="2.03957">
        <ele>256</ele>
        <time>2011-03-26T14:33:16Z</time>
      </trkpt>
      <trkpt lat="44.01692" lon="2.0395">
        <ele>256</ele>
        <time>2011-03-26T14:33:17Z</time>
      </trkpt>
      <trkpt lat="44.0169" lon="2.03942">
        <ele>256</ele>
        <time>2011-03-26T14:33:18Z</time>
      </trkpt>
      <trkpt lat="44.01688" lon="2.03935">
        <ele>256</ele>
        <time>2011-03-26T14:33:19Z</time>
      </trkpt>
      <trkpt lat="44.01685" lon="2.03928">
        <ele>256</ele>
        <time>2011-03-26T14:33:20Z</time>
      </trkpt>
      <trkpt lat="44.01683" lon="2.03921">
        <ele>256</ele>
        <time>2011-03-26T14:33:21Z</time>
      </trkpt>
      <trkpt lat="44.01681" lon="2.03914">
        <ele>256</ele>
        <time>2011-03-26T14:33:22Z</time>
      </trkpt>
      <trkpt lat="44.01678" lon="2.03907">
        <ele>256</ele>
        <time>2011-03-26T14:33:23Z</time>
      </trkpt>
      <trkpt lat="44.01676" lon="2.039">
        <ele>256</ele>
        <time>2011-03-26T14:33:24Z</time>
      </trkpt>
      <trkpt lat="44.01673" lon="2.03893">
        <ele>256</ele>
        <time>2011-03-26T14:33:25Z</time>
      </trkpt>
      <trkpt lat="44.01671" lon="2.03886">
        <ele>256</ele>
        <time>2011-03-26T14:33:26Z</time>
      </trkpt>
      <trkpt lat="44.01668" lon="2.0388">
        <ele>256</ele>
        <time>2011-03-26T14:33:27Z</time>
      </trkpt>
      <trkpt lat="44.01666" lon="2.03873">
        <ele>261</ele>
        <time>2011-03-26T14:33:28Z</time>
      </trkpt>
      <trkpt lat="44.01663" lon="2.03866">
        <ele>261</ele>
        <time>2011-03-26T14:33:29Z</time>
      </trkpt>
      <trkpt lat="44.0166" lon="2.0386">
        <ele>261</ele>
        <time>2011-03-26T14:33:30Z</time>
      </trkpt>
      <trkpt lat="44.01656" lon="2.03854">
        <ele>261</ele>
        <time>2011-03-26T14:33:31Z</time>
      </trkpt>
      <trkpt lat="44.01653" lon="2.03848">
        <ele>261</ele>
        <time>2011-03-26T14:33:32Z</time>
      </trkpt>
      <trkpt lat="44.01649" lon="2.03842">
        <ele>261</ele>
        <time>2011-03-26T14:33:33Z</time>
      </trkpt>
      <trkpt lat="44.01645" lon="2.03837">
        <ele>261</ele>
        <time>2011-03-26T14:33:34Z</time>
      </trkpt>
      <trkpt lat="44.01641" lon="2.03832">
        <ele>261</ele>
        <time>2011-03-26T14:33:35Z</time>
      </trkpt>
      <trkpt lat="44.01637" lon="2.03827">
        <ele>261</ele>
        <time>2011-03-26T14:33:36Z</time>
      </trkpt>
      <trkpt lat="44.01633" lon="2.03822">
        <ele>261</ele>
        <time>2011-03-26T14:33:37Z</time>
      </trkpt>
      <trkpt lat="44.01629" lon="2.03818">
        <ele>261</ele>
        <time>2011-03-26T14:33:38Z</time>
      </trkpt>
      <trkpt lat="44.01626" lon="2.03813">
        <ele>261</ele>
        <time>2011-03-26T14:33:39Z</time>
      </trkpt>
      <trkpt lat="44.01623" lon="2.03809">
        <ele>251</ele>
        <time>2011-03-26T14:33:40Z</time>
      </trkpt>
      <trkpt lat="44.01619" lon="2.03806">
        <ele>251</ele>
        <time>2011-03-26T14:33:41Z</time>
      </trkpt>
      <trkpt lat="44.01615" lon="2.03802">
        <ele>251</ele>
        <time>2011-03-26T14:33:42Z</time>
      </trkpt>
      <trkpt lat="44.01612" lon="2.03798">
        <ele>251</ele>
        <time>2011-03-26T14:33:43Z</time>
      </trkpt>
      <trkpt lat="44.01609" lon="2.03795">
        <ele>251</ele>
        <time>2011-03-26T14:33:44Z</time>
      </trkpt>
      <trkpt lat="44.01605" lon="2.03791">
        <ele>264</ele>
        <time>2011-03-26T14:33:45Z</time>
      </trkpt>
      <trkpt lat="44.01602" lon="2.03787">
        <ele>264</ele>
        <time>2011-03-26T14:33:46Z</time>
      </trkpt>
      <trkpt lat="44.01599" lon="2.03784">
        <ele>264</ele>
        <time>2011-03-26T14:33:47Z</time>
      </trkpt>
      <trkpt lat="44.01595" lon="2.0378">
        <ele>264</ele>
        <time>2011-03-26T14:33:48Z</time>
      </trkpt>
      <trkpt lat="44.01591" lon="2.03776">
        <ele>264</ele>
        <time>2011-03-26T14:33:49Z</time>
      </trkpt>
      <trkpt lat="44.01587" lon="2.03771">
        <ele>264</ele>
        <time>2011-03-26T14:33:50Z</time>
      </trkpt>
      <trkpt lat="44.01584" lon="2.03767">
        <ele>264</ele>
        <time>2011-03-26T14:33:51Z</time>
      </trkpt>
      <trkpt lat="44.01581" lon="2.03763">
        <ele>264</ele>
        <time>2011-03-26T14:33:52Z</time>
      </trkpt>
      <trkpt lat="44.01578" lon="2.03759">
        <ele>264</ele>
        <time>2011-03-26T14:33:53Z</time>
      </trkpt>
      <trkpt lat="44.01575" lon="2.03755">
        <ele>264</ele>
        <time>2011-03-26T14:33:54Z</time>
      </trkpt>
      <trkpt lat="44.01571" lon="2.03752">
        <ele>264</ele>
        <time>2011-03-26T14:33:55Z</time>
      </trkpt>
      <trkpt lat="44.01568" lon="2.03748">
        <ele>264</ele>
        <time>2011-03-26T14:33:56Z</time>
      </trkpt>
      <trkpt lat="44.01565" lon="2.03744">
        <ele>264</ele>
        <time>2011-03-26T14:33:57Z</time>
      </trkpt>
      <trkpt lat="44.01562" lon="2.0374">
        <ele>264</ele>
        <time>2011-03-26T14:33:58Z</time>
      </trkpt>
      <trkpt lat="44.01558" lon="2.03736">
        <ele>264</ele>
        <time>2011-03-26T14:33:59Z</time>
      </trkpt>
      <trkpt lat="44.01556" lon="2.03733">
        <ele>264</ele>
        <time>2011-03-26T14:34:00Z</time>
      </trkpt>
      <trkpt lat="44.01553" lon="2.03729">
        <ele>264</ele>
        <time>2011-03-26T14:34:01Z</time>
      </trkpt>
      <trkpt lat="44.01549" lon="2.03725">
        <ele>264</ele>
        <time>2011-03-26T14:34:02Z</time>
      </trkpt>
      <trkpt lat="44.01545" lon="2.03722">
        <ele>264</ele>
        <time>2011-03-26T14:34:03Z</time>
      </trkpt>
      <trkpt lat="44.01541" lon="2.03719">
        <ele>254</ele>
        <time>2011-03-26T14:34:04Z</time>
      </trkpt>
      <trkpt lat="44.01537" lon="2.03716">
        <ele>254</ele>
        <time>2011-03-26T14:34:05Z</time>
      </trkpt>
      <trkpt lat="44.01533" lon="2.03713">
        <ele>254</ele>
        <time>2011-03-26T14:34:06Z</time>
      </trkpt>
      <trkpt lat="44.01529" lon="2.03709">
        <ele>254</ele>
        <time>2011-03-26T14:34:07Z</time>
      </trkpt>
      <trkpt lat="44.01524" lon="2.03706">
        <ele>262</ele>
        <time>2011-03-26T14:34:08Z</time>
      </trkpt>
      <trkpt lat="44.01519" lon="2.03702">
        <ele>262</ele>
        <time>2011-03-26T14:34:09Z</time>
      </trkpt>
      <trkpt lat="44.01515" lon="2.03698">
        <ele>262</ele>
        <time>2011-03-26T14:34:10Z</time>
      </trkpt>
      <trkpt lat="44.0151" lon="2.03694">
        <ele>262</ele>
        <time>2011-03-26T14:34:11Z</time>
      </trkpt>
      <trkpt lat="44.01506" lon="2.03689">
        <ele>262</ele>
        <time>2011-03-26T14:34:12Z</time>
      </trkpt>
      <trkpt lat="44.01501" lon="2.03684">
        <ele>262</ele>
        <time>2011-03-26T14:34:13Z</time>
      </trkpt>
      <trkpt lat="44.01497" lon="2.03678">
        <ele>262</ele>
        <time>2011-03-26T14:34:14Z</time>
      </trkpt>
      <trkpt lat="44.01493" lon="2.03673">
        <ele>262</ele>
        <time>2011-03-26T14:34:15Z</time>
      </trkpt>
      <trkpt lat="44.01489" lon="2.03667">
        <ele>262</ele>
        <time>2011-03-26T14:34:16Z</time>
      </trkpt>
      <trkpt lat="44.01484" lon="2.03662">
        <ele>262</ele>
        <time>2011-03-26T14:34:17Z</time>
      </trkpt>
      <trkpt lat="44.0148" lon="2.03657">
        <ele>262</ele>
        <time>2011-03-26T14:34:18Z</time>
      </trkpt>
      <trkpt lat="44.01476" lon="2.03652">
        <ele>262</ele>
        <time>2011-03-26T14:34:19Z</time>
      </trkpt>
      <trkpt lat="44.01471" lon="2.03647">
        <ele>262</ele>
        <time>2011-03-26T14:34:20Z</time>
      </trkpt>
      <trkpt lat="44.01467" lon="2.03642">
        <ele>262</ele>
        <time>2011-03-26T14:34:21Z</time>
      </trkpt>
      <trkpt lat="44.01462" lon="2.03637">
        <ele>262</ele>
        <time>2011-03-26T14:34:22Z</time>
      </trkpt>
      <trkpt lat="44.01457" lon="2.03634">
        <ele>252</ele>
        <time>2011-03-26T14:34:23Z</time>
      </trkpt>
      <trkpt lat="44.01451" lon="2.0363">
        <ele>252</ele>
        <time>2011-03-26T14:34:24Z</time>
      </trkpt>
      <trkpt lat="44.01446" lon="2.03626">
        <ele>252</ele>
        <time>2011-03-26T14:34:25Z</time>
      </trkpt>
      <trkpt lat="44.0144" lon="2.03623">
        <ele>258</ele>
        <time>2011-03-26T14:34:26Z</time>
      </trkpt>
      <trkpt lat="44.01434" lon="2.03619">
        <ele>258</ele>
        <time>2011-03-26T14:34:27Z</time>
      </trkpt>
      <trkpt lat="44.01428" lon="2.03616">
        <ele>258</ele>
        <time>2011-03-26T14:34:28Z</time>
      </trkpt>
      <trkpt lat="44.01422" lon="2.03612">
        <ele>258</ele>
        <time>2011-03-26T14:34:29Z</time>
      </trkpt>
      <trkpt lat="44.01417" lon="2.03608">
        <ele>258</ele>
        <time>2011-03-26T14:34:30Z</time>
      </trkpt>
      <trkpt lat="44.01413" lon="2.03603">
        <ele>258</ele>
        <time>2011-03-26T14:34:31Z</time>
      </trkpt>
      <trkpt lat="44.0141" lon="2.03597">
        <ele>258</ele>
        <time>2011-03-26T14:34:32Z</time>
      </trkpt>
      <trkpt lat="44.01409" lon="2.0359">
        <ele>258</ele>
        <time>2011-03-26T14:34:33Z</time>
      </trkpt>
      <trkpt lat="44.0141" lon="2.03585">
        <ele>258</ele>
        <time>2011-03-26T14:34:34Z</time>
      </trkpt>
      <trkpt lat="44.0141" lon="2.03579">
        <ele>258</ele>
        <time>2011-03-26T14:34:35Z</time>
      </trkpt>
      <trkpt lat="44.01411" lon="2.03574">
        <ele>258</ele>
        <time>2011-03-26T14:34:36Z</time>
      </trkpt>
      <trkpt lat="44.01411" lon="2.0357">
        <ele>258</ele>
        <time>2011-03-26T14:34:37Z</time>
      </trkpt>
      <trkpt lat="44.01412" lon="2.03565">
        <ele>258</ele>
        <time>2011-03-26T14:34:38Z</time>
      </trkpt>
      <trkpt lat="44.01413" lon="2.03561">
        <ele>258</ele>
        <time>2011-03-26T14:34:39Z</time>
      </trkpt>
      <trkpt lat="44.01415" lon="2.03557">
        <ele>258</ele>
        <time>2011-03-26T14:34:40Z</time>
      </trkpt>
      <trkpt lat="44.01415" lon="2.03554">
        <ele>258</ele>
        <time>2011-03-26T14:34:41Z</time>
      </trkpt>
      <trkpt lat="44.01416" lon="2.0355">
        <ele>258</ele>
        <time>2011-03-26T14:34:42Z</time>
      </trkpt>
      <trkpt lat="44.01418" lon="2.03545">
        <ele>258</ele>
        <time>2011-03-26T14:34:44Z</time>
      </trkpt>
      <trkpt lat="44.0142" lon="2.0354">
        <ele>263</ele>
        <time>2011-03-26T14:34:46Z</time>
      </trkpt>
      <trkpt lat="44.01422" lon="2.03535">
        <ele>263</ele>
        <time>2011-03-26T14:34:48Z</time>
      </trkpt>
      <trkpt lat="44.01424" lon="2.03529">
        <ele>263</ele>
        <time>2011-03-26T14:34:50Z</time>
      </trkpt>
      <trkpt lat="44.01424" lon="2.03522">
        <ele>263</ele>
        <time>2011-03-26T14:34:52Z</time>
      </trkpt>
      <trkpt lat="44.01424" lon="2.03519">
        <ele>263</ele>
        <time>2011-03-26T14:34:53Z</time>
      </trkpt>
      <trkpt lat="44.01424" lon="2.03516">
        <ele>263</ele>
        <time>2011-03-26T14:34:54Z</time>
      </trkpt>
      <trkpt lat="44.01424" lon="2.03512">
        <ele>263</ele>
        <time>2011-03-26T14:34:55Z</time>
      </trkpt>
      <trkpt lat="44.01424" lon="2.03509">
        <ele>263</ele>
        <time>2011-03-26T14:34:56Z</time>
      </trkpt>
      <trkpt lat="44.01424" lon="2.03506">
        <ele>263</ele>
        <time>2011-03-26T14:34:57Z</time>
      </trkpt>
      <trkpt lat="44.01424" lon="2.03502">
        <ele>263</ele>
        <time>2011-03-26T14:34:58Z</time>
      </trkpt>
      <trkpt lat="44.01424" lon="2.03499">
        <ele>263</ele>
        <time>2011-03-26T14:34:59Z</time>
      </trkpt>
      <trkpt lat="44.01424" lon="2.03496">
        <ele>263</ele>
        <time>2011-03-26T14:35:00Z</time>
      </trkpt>
      <trkpt lat="44.01424" lon="2.0349">
        <ele>263</ele>
        <time>2011-03-26T14:35:02Z</time>
      </trkpt>
      <trkpt lat="44.01423" lon="2.03484">
        <ele>263</ele>
        <time>2011-03-26T14:35:04Z</time>
      </trkpt>
      <trkpt lat="44.01423" lon="2.03477">
        <ele>263</ele>
        <time>2011-03-26T14:35:06Z</time>
      </trkpt>
      <trkpt lat="44.01423" lon="2.03474">
        <ele>263</ele>
        <time>2011-03-26T14:35:07Z</time>
      </trkpt>
      <trkpt lat="44.01422" lon="2.03471">
        <ele>263</ele>
        <time>2011-03-26T14:35:08Z</time>
      </trkpt>
      <trkpt lat="44.01422" lon="2.03465">
        <ele>263</ele>
        <time>2011-03-26T14:35:10Z</time>
      </trkpt>
      <trkpt lat="44.01421" lon="2.03459">
        <ele>263</ele>
        <time>2011-03-26T14:35:12Z</time>
      </trkpt>
      <trkpt lat="44.01421" lon="2.03455">
        <ele>270</ele>
        <time>2011-03-26T14:35:13Z</time>
      </trkpt>
      <trkpt lat="44.0142" lon="2.03452">
        <ele>270</ele>
        <time>2011-03-26T14:35:14Z</time>
      </trkpt>
      <trkpt lat="44.0142" lon="2.03449">
        <ele>270</ele>
        <time>2011-03-26T14:35:15Z</time>
      </trkpt>
      <trkpt lat="44.01419" lon="2.03443">
        <ele>270</ele>
        <time>2011-03-26T14:35:17Z</time>
      </trkpt>
      <trkpt lat="44.01418" lon="2.03438">
        <ele>270</ele>
        <time>2011-03-26T14:35:19Z</time>
      </trkpt>
      <trkpt lat="44.01417" lon="2.03432">
        <ele>270</ele>
        <time>2011-03-26T14:35:21Z</time>
      </trkpt>
      <trkpt lat="44.01416" lon="2.03429">
        <ele>270</ele>
        <time>2011-03-26T14:35:22Z</time>
      </trkpt>
      <trkpt lat="44.01416" lon="2.03426">
        <ele>270</ele>
        <time>2011-03-26T14:35:23Z</time>
      </trkpt>
      <trkpt lat="44.01415" lon="2.03423">
        <ele>270</ele>
        <time>2011-03-26T14:35:24Z</time>
      </trkpt>
      <trkpt lat="44.01414" lon="2.03419">
        <ele>270</ele>
        <time>2011-03-26T14:35:25Z</time>
      </trkpt>
      <trkpt lat="44.01414" lon="2.03416">
        <ele>270</ele>
        <time>2011-03-26T14:35:26Z</time>
      </trkpt>
      <trkpt lat="44.01413" lon="2.03413">
        <ele>270</ele>
        <time>2011-03-26T14:35:27Z</time>
      </trkpt>
      <trkpt lat="44.01412" lon="2.03408">
        <ele>270</ele>
        <time>2011-03-26T14:35:29Z</time>
      </trkpt>
      <trkpt lat="44.0141" lon="2.03403">
        <ele>270</ele>
        <time>2011-03-26T14:35:31Z</time>
      </trkpt>
      <trkpt lat="44.01409" lon="2.03398">
        <ele>270</ele>
        <time>2011-03-26T14:35:33Z</time>
      </trkpt>
      <trkpt lat="44.01407" lon="2.03393">
        <ele>270</ele>
        <time>2011-03-26T14:35:35Z</time>
      </trkpt>
      <trkpt lat="44.01406" lon="2.0339">
        <ele>270</ele>
        <time>2011-03-26T14:35:36Z</time>
      </trkpt>
      <trkpt lat="44.01405" lon="2.03385">
        <ele>270</ele>
        <time>2011-03-26T14:35:38Z</time>
      </trkpt>
      <trkpt lat="44.01403" lon="2.0338">
        <ele>270</ele>
        <time>2011-03-26T14:35:40Z</time>
      </trkpt>
      <trkpt lat="44.01401" lon="2.03374">
        <ele>277</ele>
        <time>2011-03-26T14:35:42Z</time>
      </trkpt>
      <trkpt lat="44.014" lon="2.0337">
        <ele>277</ele>
        <time>2011-03-26T14:35:44Z</time>
      </trkpt>
      <trkpt lat="44.01399" lon="2.03367">
        <ele>277</ele>
        <time>2011-03-26T14:35:45Z</time>
      </trkpt>
      <trkpt lat="44.014" lon="2.03361">
        <ele>277</ele>
        <time>2011-03-26T14:35:47Z</time>
      </trkpt>
      <trkpt lat="44.01401" lon="2.03356">
        <ele>277</ele>
        <time>2011-03-26T14:35:49Z</time>
      </trkpt>
      <trkpt lat="44.01403" lon="2.03351">
        <ele>277</ele>
        <time>2011-03-26T14:35:51Z</time>
      </trkpt>
      <trkpt lat="44.01404" lon="2.03348">
        <ele>277</ele>
        <time>2011-03-26T14:35:52Z</time>
      </trkpt>
      <trkpt lat="44.01406" lon="2.03343">
        <ele>277</ele>
        <time>2011-03-26T14:35:54Z</time>
      </trkpt>
      <trkpt lat="44.01408" lon="2.03338">
        <ele>277</ele>
        <time>2011-03-26T14:35:56Z</time>
      </trkpt>
      <trkpt lat="44.0141" lon="2.03332">
        <ele>277</ele>
        <time>2011-03-26T14:35:58Z</time>
      </trkpt>
      <trkpt lat="44.01411" lon="2.0333">
        <ele>277</ele>
        <time>2011-03-26T14:35:59Z</time>
      </trkpt>
      <trkpt lat="44.01413" lon="2.03328">
        <ele>277</ele>
        <time>2011-03-26T14:36:00Z</time>
      </trkpt>
      <trkpt lat="44.01414" lon="2.03325">
        <ele>277</ele>
        <time>2011-03-26T14:36:01Z</time>
      </trkpt>
      <trkpt lat="44.01416" lon="2.03322">
        <ele>277</ele>
        <time>2011-03-26T14:36:02Z</time>
      </trkpt>
      <trkpt lat="44.01418" lon="2.0332">
        <ele>277</ele>
        <time>2011-03-26T14:36:03Z</time>
      </trkpt>
      <trkpt lat="44.01419" lon="2.03317">
        <ele>277</ele>
        <time>2011-03-26T14:36:04Z</time>
      </trkpt>
      <trkpt lat="44.01421" lon="2.03314">
        <ele>277</ele>
        <time>2011-03-26T14:36:05Z</time>
      </trkpt>
      <trkpt lat="44.01423" lon="2.03311">
        <ele>277</ele>
        <time>2011-03-26T14:36:06Z</time>
      </trkpt>
      <trkpt lat="44.01424" lon="2.03308">
        <ele>277</ele>
        <time>2011-03-26T14:36:07Z</time>
      </trkpt>
      <trkpt lat="44.01426" lon="2.03305">
        <ele>277</ele>
        <time>2011-03-26T14:36:08Z</time>
      </trkpt>
      <trkpt lat="44.01427" lon="2.03302">
        <ele>277</ele>
        <time>2011-03-26T14:36:09Z</time>
      </trkpt>
      <trkpt lat="44.01429" lon="2.03299">
        <ele>277</ele>
        <time>2011-03-26T14:36:10Z</time>
      </trkpt>
      <trkpt lat="44.01431" lon="2.03296">
        <ele>277</ele>
        <time>2011-03-26T14:36:11Z</time>
      </trkpt>
      <trkpt lat="44.01432" lon="2.03293">
        <ele>277</ele>
        <time>2011-03-26T14:36:12Z</time>
      </trkpt>
      <trkpt lat="44.01434" lon="2.0329">
        <ele>279</ele>
        <time>2011-03-26T14:36:13Z</time>
      </trkpt>
      <trkpt lat="44.01436" lon="2.03287">
        <ele>279</ele>
        <time>2011-03-26T14:36:14Z</time>
      </trkpt>
      <trkpt lat="44.01437" lon="2.03283">
        <ele>279</ele>
        <time>2011-03-26T14:36:15Z</time>
      </trkpt>
      <trkpt lat="44.01439" lon="2.0328">
        <ele>279</ele>
        <time>2011-03-26T14:36:16Z</time>
      </trkpt>
      <trkpt lat="44.0144" lon="2.03276">
        <ele>279</ele>
        <time>2011-03-26T14:36:17Z</time>
      </trkpt>
      <trkpt lat="44.01442" lon="2.03273">
        <ele>279</ele>
        <time>2011-03-26T14:36:18Z</time>
      </trkpt>
      <trkpt lat="44.01444" lon="2.0327">
        <ele>279</ele>
        <time>2011-03-26T14:36:19Z</time>
      </trkpt>
      <trkpt lat="44.01445" lon="2.03267">
        <ele>279</ele>
        <time>2011-03-26T14:36:20Z</time>
      </trkpt>
      <trkpt lat="44.01447" lon="2.03264">
        <ele>279</ele>
        <time>2011-03-26T14:36:21Z</time>
      </trkpt>
      <trkpt lat="44.01448" lon="2.03261">
        <ele>279</ele>
        <time>2011-03-26T14:36:22Z</time>
      </trkpt>
      <trkpt lat="44.0145" lon="2.03258">
        <ele>279</ele>
        <time>2011-03-26T14:36:23Z</time>
      </trkpt>
      <trkpt lat="44.01452" lon="2.03254">
        <ele>279</ele>
        <time>2011-03-26T14:36:24Z</time>
      </trkpt>
      <trkpt lat="44.01453" lon="2.03251">
        <ele>279</ele>
        <time>2011-03-26T14:36:25Z</time>
      </trkpt>
      <trkpt lat="44.01455" lon="2.03247">
        <ele>279</ele>
        <time>2011-03-26T14:36:26Z</time>
      </trkpt>
      <trkpt lat="44.01457" lon="2.03243">
        <ele>279</ele>
        <time>2011-03-26T14:36:27Z</time>
      </trkpt>
      <trkpt lat="44.01458" lon="2.0324">
        <ele>279</ele>
        <time>2011-03-26T14:36:28Z</time>
      </trkpt>
      <trkpt lat="44.0146" lon="2.03236">
        <ele>280</ele>
        <time>2011-03-26T14:36:29Z</time>
      </trkpt>
      <trkpt lat="44.01461" lon="2.03232">
        <ele>280</ele>
        <time>2011-03-26T14:36:30Z</time>
      </trkpt>
      <trkpt lat="44.01463" lon="2.03228">
        <ele>280</ele>
        <time>2011-03-26T14:36:31Z</time>
      </trkpt>
      <trkpt lat="44.01464" lon="2.03224">
        <ele>280</ele>
        <time>2011-03-26T14:36:32Z</time>
      </trkpt>
      <trkpt lat="44.01465" lon="2.0322">
        <ele>280</ele>
        <time>2011-03-26T14:36:33Z</time>
      </trkpt>
      <trkpt lat="44.01467" lon="2.03216">
        <ele>280</ele>
        <time>2011-03-26T14:36:34Z</time>
      </trkpt>
      <trkpt lat="44.01468" lon="2.03213">
        <ele>280</ele>
        <time>2011-03-26T14:36:35Z</time>
      </trkpt>
      <trkpt lat="44.0147" lon="2.03209">
        <ele>280</ele>
        <time>2011-03-26T14:36:36Z</time>
      </trkpt>
      <trkpt lat="44.01471" lon="2.03205">
        <ele>284</ele>
        <time>2011-03-26T14:36:37Z</time>
      </trkpt>
      <trkpt lat="44.01473" lon="2.03202">
        <ele>284</ele>
        <time>2011-03-26T14:36:38Z</time>
      </trkpt>
      <trkpt lat="44.01474" lon="2.03198">
        <ele>284</ele>
        <time>2011-03-26T14:36:39Z</time>
      </trkpt>
      <trkpt lat="44.01476" lon="2.03195">
        <ele>284</ele>
        <time>2011-03-26T14:36:40Z</time>
      </trkpt>
      <trkpt lat="44.01477" lon="2.03191">
        <ele>284</ele>
        <time>2011-03-26T14:36:41Z</time>
      </trkpt>
      <trkpt lat="44.01479" lon="2.03188">
        <ele>284</ele>
        <time>2011-03-26T14:36:42Z</time>
      </trkpt>
      <trkpt lat="44.01481" lon="2.03184">
        <ele>284</ele>
        <time>2011-03-26T14:36:43Z</time>
      </trkpt>
      <trkpt lat="44.01482" lon="2.03181">
        <ele>284</ele>
        <time>2011-03-26T14:36:44Z</time>
      </trkpt>
      <trkpt lat="44.01484" lon="2.03177">
        <ele>284</ele>
        <time>2011-03-26T14:36:45Z</time>
      </trkpt>
      <trkpt lat="44.01486" lon="2.03174">
        <ele>284</ele>
        <time>2011-03-26T14:36:46Z</time>
      </trkpt>
      <trkpt lat="44.01487" lon="2.0317">
        <ele>284</ele>
        <time>2011-03-26T14:36:47Z</time>
      </trkpt>
      <trkpt lat="44.01488" lon="2.03166">
        <ele>284</ele>
        <time>2011-03-26T14:36:48Z</time>
      </trkpt>
      <trkpt lat="44.01489" lon="2.03162">
        <ele>284</ele>
        <time>2011-03-26T14:36:49Z</time>
      </trkpt>
      <trkpt lat="44.01491" lon="2.03158">
        <ele>284</ele>
        <time>2011-03-26T14:36:50Z</time>
      </trkpt>
      <trkpt lat="44.01492" lon="2.03154">
        <ele>284</ele>
        <time>2011-03-26T14:36:51Z</time>
      </trkpt>
      <trkpt lat="44.01494" lon="2.03151">
        <ele>284</ele>
        <time>2011-03-26T14:36:52Z</time>
      </trkpt>
      <trkpt lat="44.01495" lon="2.03147">
        <ele>284</ele>
        <time>2011-03-26T14:36:53Z</time>
      </trkpt>
      <trkpt lat="44.01497" lon="2.03142">
        <ele>284</ele>
        <time>2011-03-26T14:36:54Z</time>
      </trkpt>
      <trkpt lat="44.01499" lon="2.03138">
        <ele>284</ele>
        <time>2011-03-26T14:36:55Z</time>
      </trkpt>
      <trkpt lat="44.01501" lon="2.03133">
        <ele>284</ele>
        <time>2011-03-26T14:36:56Z</time>
      </trkpt>
      <trkpt lat="44.01503" lon="2.03129">
        <ele>284</ele>
        <time>2011-03-26T14:36:57Z</time>
      </trkpt>
      <trkpt lat="44.01505" lon="2.03125">
        <ele>285</ele>
        <time>2011-03-26T14:36:58Z</time>
      </trkpt>
      <trkpt lat="44.01507" lon="2.0312">
        <ele>285</ele>
        <time>2011-03-26T14:36:59Z</time>
      </trkpt>
      <trkpt lat="44.01508" lon="2.03116">
        <ele>285</ele>
        <time>2011-03-26T14:37:00Z</time>
      </trkpt>
      <trkpt lat="44.0151" lon="2.03111">
        <ele>285</ele>
        <time>2011-03-26T14:37:01Z</time>
      </trkpt>
      <trkpt lat="44.01512" lon="2.03107">
        <ele>285</ele>
        <time>2011-03-26T14:37:02Z</time>
      </trkpt>
      <trkpt lat="44.01514" lon="2.03104">
        <ele>285</ele>
        <time>2011-03-26T14:37:03Z</time>
      </trkpt>
      <trkpt lat="44.01515" lon="2.031">
        <ele>285</ele>
        <time>2011-03-26T14:37:04Z</time>
      </trkpt>
      <trkpt lat="44.01517" lon="2.03096">
        <ele>285</ele>
        <time>2011-03-26T14:37:05Z</time>
      </trkpt>
      <trkpt lat="44.01519" lon="2.03093">
        <ele>285</ele>
        <time>2011-03-26T14:37:06Z</time>
      </trkpt>
      <trkpt lat="44.0152" lon="2.03088">
        <ele>285</ele>
        <time>2011-03-26T14:37:07Z</time>
      </trkpt>
      <trkpt lat="44.01521" lon="2.03084">
        <ele>285</ele>
        <time>2011-03-26T14:37:08Z</time>
      </trkpt>
      <trkpt lat="44.01522" lon="2.03081">
        <ele>285</ele>
        <time>2011-03-26T14:37:09Z</time>
      </trkpt>
      <trkpt lat="44.01524" lon="2.03077">
        <ele>285</ele>
        <time>2011-03-26T14:37:10Z</time>
      </trkpt>
      <trkpt lat="44.01526" lon="2.03074">
        <ele>285</ele>
        <time>2011-03-26T14:37:11Z</time>
      </trkpt>
      <trkpt lat="44.01528" lon="2.0307">
        <ele>285</ele>
        <time>2011-03-26T14:37:12Z</time>
      </trkpt>
      <trkpt lat="44.0153" lon="2.03066">
        <ele>285</ele>
        <time>2011-03-26T14:37:13Z</time>
      </trkpt>
      <trkpt lat="44.01532" lon="2.03063">
        <ele>285</ele>
        <time>2011-03-26T14:37:14Z</time>
      </trkpt>
      <trkpt lat="44.01535" lon="2.0306">
        <ele>285</ele>
        <time>2011-03-26T14:37:15Z</time>
      </trkpt>
      <trkpt lat="44.01537" lon="2.03059">
        <ele>285</ele>
        <time>2011-03-26T14:37:16Z</time>
      </trkpt>
      <trkpt lat="44.0154" lon="2.03057">
        <ele>285</ele>
        <time>2011-03-26T14:37:17Z</time>
      </trkpt>
      <trkpt lat="44.01544" lon="2.03057">
        <ele>284</ele>
        <time>2011-03-26T14:37:18Z</time>
      </trkpt>
      <trkpt lat="44.01547" lon="2.03058">
        <ele>284</ele>
        <time>2011-03-26T14:37:19Z</time>
      </trkpt>
      <trkpt lat="44.0155" lon="2.03058">
        <ele>284</ele>
        <time>2011-03-26T14:37:20Z</time>
      </trkpt>
      <trkpt lat="44.01553" lon="2.03059">
        <ele>284</ele>
        <time>2011-03-26T14:37:21Z</time>
      </trkpt>
      <trkpt lat="44.01557" lon="2.03059">
        <ele>284</ele>
        <time>2011-03-26T14:37:22Z</time>
      </trkpt>
      <trkpt lat="44.0156" lon="2.0306">
        <ele>284</ele>
        <time>2011-03-26T14:37:23Z</time>
      </trkpt>
      <trkpt lat="44.01564" lon="2.03061">
        <ele>284</ele>
        <time>2011-03-26T14:37:24Z</time>
      </trkpt>
      <trkpt lat="44.01567" lon="2.03063">
        <ele>284</ele>
        <time>2011-03-26T14:37:25Z</time>
      </trkpt>
      <trkpt lat="44.01571" lon="2.03064">
        <ele>284</ele>
        <time>2011-03-26T14:37:26Z</time>
      </trkpt>
      <trkpt lat="44.01575" lon="2.03065">
        <ele>284</ele>
        <time>2011-03-26T14:37:27Z</time>
      </trkpt>
      <trkpt lat="44.01578" lon="2.03066">
        <ele>284</ele>
        <time>2011-03-26T14:37:28Z</time>
      </trkpt>
      <trkpt lat="44.01582" lon="2.03067">
        <ele>284</ele>
        <time>2011-03-26T14:37:29Z</time>
      </trkpt>
      <trkpt lat="44.01586" lon="2.03068">
        <ele>284</ele>
        <time>2011-03-26T14:37:30Z</time>
      </trkpt>
      <trkpt lat="44.0159" lon="2.03069">
        <ele>284</ele>
        <time>2011-03-26T14:37:31Z</time>
      </trkpt>
      <trkpt lat="44.01595" lon="2.0307">
        <ele>284</ele>
        <time>2011-03-26T14:37:32Z</time>
      </trkpt>
      <trkpt lat="44.01599" lon="2.03071">
        <ele>284</ele>
        <time>2011-03-26T14:37:33Z</time>
      </trkpt>
      <trkpt lat="44.01604" lon="2.03071">
        <ele>284</ele>
        <time>2011-03-26T14:37:34Z</time>
      </trkpt>
      <trkpt lat="44.01609" lon="2.03073">
        <ele>284</ele>
        <time>2011-03-26T14:37:35Z</time>
      </trkpt>
      <trkpt lat="44.01614" lon="2.03075">
        <ele>284</ele>
        <time>2011-03-26T14:37:36Z</time>
      </trkpt>
      <trkpt lat="44.01618" lon="2.03077">
        <ele>284</ele>
        <time>2011-03-26T14:37:37Z</time>
      </trkpt>
      <trkpt lat="44.01623" lon="2.03079">
        <ele>284</ele>
        <time>2011-03-26T14:37:38Z</time>
      </trkpt>
      <trkpt lat="44.01628" lon="2.03082">
        <ele>284</ele>
        <time>2011-03-26T14:37:39Z</time>
      </trkpt>
      <trkpt lat="44.01633" lon="2.03083">
        <ele>284</ele>
        <time>2011-03-26T14:37:40Z</time>
      </trkpt>
      <trkpt lat="44.01637" lon="2.03085">
        <ele>284</ele>
        <time>2011-03-26T14:37:41Z</time>
      </trkpt>
      <trkpt lat="44.01642" lon="2.03088">
        <ele>284</ele>
        <time>2011-03-26T14:37:42Z</time>
      </trkpt>
      <trkpt lat="44.01646" lon="2.03091">
        <ele>284</ele>
        <time>2011-03-26T14:37:43Z</time>
      </trkpt>
      <trkpt lat="44.01651" lon="2.03094">
        <ele>284</ele>
        <time>2011-03-26T14:37:44Z</time>
      </trkpt>
      <trkpt lat="44.01655" lon="2.03096">
        <ele>284</ele>
        <time>2011-03-26T14:37:45Z</time>
      </trkpt>
      <trkpt lat="44.0166" lon="2.03099">
        <ele>284</ele>
        <time>2011-03-26T14:37:46Z</time>
      </trkpt>
      <trkpt lat="44.01664" lon="2.03101">
        <ele>284</ele>
        <time>2011-03-26T14:37:47Z</time>
      </trkpt>
      <trkpt lat="44.01669" lon="2.03103">
        <ele>284</ele>
        <time>2011-03-26T14:37:48Z</time>
      </trkpt>
      <trkpt lat="44.01673" lon="2.03106">
        <ele>284</ele>
        <time>2011-03-26T14:37:49Z</time>
      </trkpt>
      <trkpt lat="44.01678" lon="2.03109">
        <ele>284</ele>
        <time>2011-03-26T14:37:50Z</time>
      </trkpt>
      <trkpt lat="44.01682" lon="2.03112">
        <ele>284</ele>
        <time>2011-03-26T14:37:51Z</time>
      </trkpt>
      <trkpt lat="44.01687" lon="2.03114">
        <ele>284</ele>
        <time>2011-03-26T14:37:52Z</time>
      </trkpt>
      <trkpt lat="44.01692" lon="2.03117">
        <ele>284</ele>
        <time>2011-03-26T14:37:53Z</time>
      </trkpt>
      <trkpt lat="44.01696" lon="2.03121">
        <ele>284</ele>
        <time>2011-03-26T14:37:54Z</time>
      </trkpt>
      <trkpt lat="44.01701" lon="2.03124">
        <ele>284</ele>
        <time>2011-03-26T14:37:55Z</time>
      </trkpt>
      <trkpt lat="44.01706" lon="2.03126">
        <ele>281</ele>
        <time>2011-03-26T14:37:56Z</time>
      </trkpt>
      <trkpt lat="44.01711" lon="2.03129">
        <ele>284</ele>
        <time>2011-03-26T14:37:57Z</time>
      </trkpt>
      <trkpt lat="44.01716" lon="2.03133">
        <ele>284</ele>
        <time>2011-03-26T14:37:58Z</time>
      </trkpt>
      <trkpt lat="44.01721" lon="2.03136">
        <ele>284</ele>
        <time>2011-03-26T14:37:59Z</time>
      </trkpt>
      <trkpt lat="44.01726" lon="2.0314">
        <ele>284</ele>
        <time>2011-03-26T14:38:00Z</time>
      </trkpt>
      <trkpt lat="44.01731" lon="2.03143">
        <ele>284</ele>
        <time>2011-03-26T14:38:01Z</time>
      </trkpt>
      <trkpt lat="44.01736" lon="2.03146">
        <ele>284</ele>
        <time>2011-03-26T14:38:02Z</time>
      </trkpt>
      <trkpt lat="44.01741" lon="2.03149">
        <ele>284</ele>
        <time>2011-03-26T14:38:03Z</time>
      </trkpt>
      <trkpt lat="44.01746" lon="2.03152">
        <ele>284</ele>
        <time>2011-03-26T14:38:04Z</time>
      </trkpt>
      <trkpt lat="44.01751" lon="2.03155">
        <ele>284</ele>
        <time>2011-03-26T14:38:05Z</time>
      </trkpt>
      <trkpt lat="44.01757" lon="2.03157">
        <ele>284</ele>
        <time>2011-03-26T14:38:06Z</time>
      </trkpt>
      <trkpt lat="44.01762" lon="2.0316">
        <ele>284</ele>
        <time>2011-03-26T14:38:07Z</time>
      </trkpt>
      <trkpt lat="44.01768" lon="2.03161">
        <ele>284</ele>
        <time>2011-03-26T14:38:08Z</time>
      </trkpt>
      <trkpt lat="44.01773" lon="2.03163">
        <ele>284</ele>
        <time>2011-03-26T14:38:09Z</time>
      </trkpt>
      <trkpt lat="44.01779" lon="2.03165">
        <ele>284</ele>
        <time>2011-03-26T14:38:10Z</time>
      </trkpt>
      <trkpt lat="44.01784" lon="2.03166">
        <ele>284</ele>
        <time>2011-03-26T14:38:11Z</time>
      </trkpt>
      <trkpt lat="44.0179" lon="2.03168">
        <ele>284</ele>
        <time>2011-03-26T14:38:12Z</time>
      </trkpt>
      <trkpt lat="44.01796" lon="2.0317">
        <ele>288</ele>
        <time>2011-03-26T14:38:13Z</time>
      </trkpt>
      <trkpt lat="44.01801" lon="2.03172">
        <ele>288</ele>
        <time>2011-03-26T14:38:14Z</time>
      </trkpt>
      <trkpt lat="44.01807" lon="2.03175">
        <ele>288</ele>
        <time>2011-03-26T14:38:15Z</time>
      </trkpt>
      <trkpt lat="44.01812" lon="2.03178">
        <ele>288</ele>
        <time>2011-03-26T14:38:16Z</time>
      </trkpt>
      <trkpt lat="44.01817" lon="2.03181">
        <ele>288</ele>
        <time>2011-03-26T14:38:17Z</time>
      </trkpt>
      <trkpt lat="44.01822" lon="2.03185">
        <ele>288</ele>
        <time>2011-03-26T14:38:18Z</time>
      </trkpt>
      <trkpt lat="44.01826" lon="2.03189">
        <ele>288</ele>
        <time>2011-03-26T14:38:19Z</time>
      </trkpt>
      <trkpt lat="44.01831" lon="2.03193">
        <ele>288</ele>
        <time>2011-03-26T14:38:20Z</time>
      </trkpt>
      <trkpt lat="44.01835" lon="2.03198">
        <ele>288</ele>
        <time>2011-03-26T14:38:21Z</time>
      </trkpt>
      <trkpt lat="44.0184" lon="2.03202">
        <ele>288</ele>
        <time>2011-03-26T14:38:22Z</time>
      </trkpt>
      <trkpt lat="44.01843" lon="2.03207">
        <ele>288</ele>
        <time>2011-03-26T14:38:23Z</time>
      </trkpt>
      <trkpt lat="44.01847" lon="2.03211">
        <ele>287</ele>
        <time>2011-03-26T14:38:24Z</time>
      </trkpt>
      <trkpt lat="44.01851" lon="2.03215">
        <ele>287</ele>
        <time>2011-03-26T14:38:25Z</time>
      </trkpt>
      <trkpt lat="44.01855" lon="2.0322">
        <ele>287</ele>
        <time>2011-03-26T14:38:26Z</time>
      </trkpt>
      <trkpt lat="44.01858" lon="2.03225">
        <ele>287</ele>
        <time>2011-03-26T14:38:27Z</time>
      </trkpt>
      <trkpt lat="44.01862" lon="2.03229">
        <ele>287</ele>
        <time>2011-03-26T14:38:28Z</time>
      </trkpt>
      <trkpt lat="44.01866" lon="2.03233">
        <ele>287</ele>
        <time>2011-03-26T14:38:29Z</time>
      </trkpt>
      <trkpt lat="44.01869" lon="2.03237">
        <ele>287</ele>
        <time>2011-03-26T14:38:30Z</time>
      </trkpt>
      <trkpt lat="44.01872" lon="2.03241">
        <ele>287</ele>
        <time>2011-03-26T14:38:31Z</time>
      </trkpt>
      <trkpt lat="44.01876" lon="2.03245">
        <ele>291</ele>
        <time>2011-03-26T14:38:32Z</time>
      </trkpt>
      <trkpt lat="44.01879" lon="2.03249">
        <ele>291</ele>
        <time>2011-03-26T14:38:33Z</time>
      </trkpt>
      <trkpt lat="44.01882" lon="2.03252">
        <ele>291</ele>
        <time>2011-03-26T14:38:34Z</time>
      </trkpt>
      <trkpt lat="44.01886" lon="2.03256">
        <ele>291</ele>
        <time>2011-03-26T14:38:35Z</time>
      </trkpt>
      <trkpt lat="44.01889" lon="2.0326">
        <ele>291</ele>
        <time>2011-03-26T14:38:36Z</time>
      </trkpt>
      <trkpt lat="44.01893" lon="2.03263">
        <ele>291</ele>
        <time>2011-03-26T14:38:37Z</time>
      </trkpt>
      <trkpt lat="44.01897" lon="2.03267">
        <ele>291</ele>
        <time>2011-03-26T14:38:38Z</time>
      </trkpt>
      <trkpt lat="44.019" lon="2.03271">
        <ele>291</ele>
        <time>2011-03-26T14:38:39Z</time>
      </trkpt>
      <trkpt lat="44.01904" lon="2.03275">
        <ele>291</ele>
        <time>2011-03-26T14:38:40Z</time>
      </trkpt>
      <trkpt lat="44.01907" lon="2.03279">
        <ele>291</ele>
        <time>2011-03-26T14:38:41Z</time>
      </trkpt>
      <trkpt lat="44.01911" lon="2.03283">
        <ele>291</ele>
        <time>2011-03-26T14:38:42Z</time>
      </trkpt>
      <trkpt lat="44.01914" lon="2.03288">
        <ele>291</ele>
        <time>2011-03-26T14:38:43Z</time>
      </trkpt>
      <trkpt lat="44.01917" lon="2.03292">
        <ele>291</ele>
        <time>2011-03-26T14:38:44Z</time>
      </trkpt>
      <trkpt lat="44.01921" lon="2.03295">
        <ele>292</ele>
        <time>2011-03-26T14:38:45Z</time>
      </trkpt>
      <trkpt lat="44.01924" lon="2.033">
        <ele>292</ele>
        <time>2011-03-26T14:38:46Z</time>
      </trkpt>
      <trkpt lat="44.01927" lon="2.03303">
        <ele>292</ele>
        <time>2011-03-26T14:38:47Z</time>
      </trkpt>
      <trkpt lat="44.0193" lon="2.03308">
        <ele>292</ele>
        <time>2011-03-26T14:38:48Z</time>
      </trkpt>
      <trkpt lat="44.01933" lon="2.03312">
        <ele>292</ele>
        <time>2011-03-26T14:38:49Z</time>
      </trkpt>
      <trkpt lat="44.01936" lon="2.03316">
        <ele>292</ele>
        <time>2011-03-26T14:38:50Z</time>
      </trkpt>
      <trkpt lat="44.01939" lon="2.0332">
        <ele>292</ele>
        <time>2011-03-26T14:38:51Z</time>
      </trkpt>
      <trkpt lat="44.01942" lon="2.03325">
        <ele>292</ele>
        <time>2011-03-26T14:38:52Z</time>
      </trkpt>
      <trkpt lat="44.01945" lon="2.03329">
        <ele>292</ele>
        <time>2011-03-26T14:38:53Z</time>
      </trkpt>
      <trkpt lat="44.01948" lon="2.03333">
        <ele>292</ele>
        <time>2011-03-26T14:38:54Z</time>
      </trkpt>
      <trkpt lat="44.01951" lon="2.03338">
        <ele>292</ele>
        <time>2011-03-26T14:38:55Z</time>
      </trkpt>
      <trkpt lat="44.01954" lon="2.03342">
        <ele>292</ele>
        <time>2011-03-26T14:38:56Z</time>
      </trkpt>
      <trkpt lat="44.01957" lon="2.03346">
        <ele>292</ele>
        <time>2011-03-26T14:38:57Z</time>
      </trkpt>
      <trkpt lat="44.0196" lon="2.0335">
        <ele>291</ele>
        <time>2011-03-26T14:38:58Z</time>
      </trkpt>
      <trkpt lat="44.01963" lon="2.03355">
        <ele>291</ele>
        <time>2011-03-26T14:38:59Z</time>
      </trkpt>
      <trkpt lat="44.01967" lon="2.03359">
        <ele>291</ele>
        <time>2011-03-26T14:39:00Z</time>
      </trkpt>
      <trkpt lat="44.0197" lon="2.03363">
        <ele>291</ele>
        <time>2011-03-26T14:39:01Z</time>
      </trkpt>
      <trkpt lat="44.01973" lon="2.03368">
        <ele>291</ele>
        <time>2011-03-26T14:39:02Z</time>
      </trkpt>
      <trkpt lat="44.01977" lon="2.03372">
        <ele>291</ele>
        <time>2011-03-26T14:39:03Z</time>
      </trkpt>
      <trkpt lat="44.0198" lon="2.03376">
        <ele>291</ele>
        <time>2011-03-26T14:39:04Z</time>
      </trkpt>
      <trkpt lat="44.01984" lon="2.03381">
        <ele>291</ele>
        <time>2011-03-26T14:39:05Z</time>
      </trkpt>
      <trkpt lat="44.01987" lon="2.03385">
        <ele>291</ele>
        <time>2011-03-26T14:39:06Z</time>
      </trkpt>
      <trkpt lat="44.01991" lon="2.0339">
        <ele>291</ele>
        <time>2011-03-26T14:39:07Z</time>
      </trkpt>
      <trkpt lat="44.01994" lon="2.03395">
        <ele>291</ele>
        <time>2011-03-26T14:39:08Z</time>
      </trkpt>
      <trkpt lat="44.01998" lon="2.03399">
        <ele>291</ele>
        <time>2011-03-26T14:39:09Z</time>
      </trkpt>
      <trkpt lat="44.02001" lon="2.03404">
        <ele>291</ele>
        <time>2011-03-26T14:39:10Z</time>
      </trkpt>
      <trkpt lat="44.02005" lon="2.03408">
        <ele>291</ele>
        <time>2011-03-26T14:39:11Z</time>
      </trkpt>
      <trkpt lat="44.02008" lon="2.03413">
        <ele>291</ele>
        <time>2011-03-26T14:39:12Z</time>
      </trkpt>
      <trkpt lat="44.02012" lon="2.03418">
        <ele>291</ele>
        <time>2011-03-26T14:39:13Z</time>
      </trkpt>
      <trkpt lat="44.02015" lon="2.03423">
        <ele>291</ele>
        <time>2011-03-26T14:39:14Z</time>
      </trkpt>
      <trkpt lat="44.02019" lon="2.03428">
        <ele>291</ele>
        <time>2011-03-26T14:39:15Z</time>
      </trkpt>
      <trkpt lat="44.02022" lon="2.03434">
        <ele>291</ele>
        <time>2011-03-26T14:39:16Z</time>
      </trkpt>
      <trkpt lat="44.02026" lon="2.03438">
        <ele>291</ele>
        <time>2011-03-26T14:39:17Z</time>
      </trkpt>
      <trkpt lat="44.02029" lon="2.03443">
        <ele>291</ele>
        <time>2011-03-26T14:39:18Z</time>
      </trkpt>
      <trkpt lat="44.02033" lon="2.03448">
        <ele>291</ele>
        <time>2011-03-26T14:39:19Z</time>
      </trkpt>
      <trkpt lat="44.02037" lon="2.03451">
        <ele>291</ele>
        <time>2011-03-26T14:39:20Z</time>
      </trkpt>
      <trkpt lat="44.0204" lon="2.03455">
        <ele>291</ele>
        <time>2011-03-26T14:39:21Z</time>
      </trkpt>
      <trkpt lat="44.02043" lon="2.03459">
        <ele>294</ele>
        <time>2011-03-26T14:39:22Z</time>
      </trkpt>
      <trkpt lat="44.02047" lon="2.03463">
        <ele>294</ele>
        <time>2011-03-26T14:39:23Z</time>
      </trkpt>
      <trkpt lat="44.02051" lon="2.03465">
        <ele>294</ele>
        <time>2011-03-26T14:39:24Z</time>
      </trkpt>
      <trkpt lat="44.02056" lon="2.03466">
        <ele>294</ele>
        <time>2011-03-26T14:39:25Z</time>
      </trkpt>
      <trkpt lat="44.02061" lon="2.03467">
        <ele>294</ele>
        <time>2011-03-26T14:39:26Z</time>
      </trkpt>
      <trkpt lat="44.02066" lon="2.03468">
        <ele>294</ele>
        <time>2011-03-26T14:39:27Z</time>
      </trkpt>
      <trkpt lat="44.02071" lon="2.03467">
        <ele>294</ele>
        <time>2011-03-26T14:39:28Z</time>
      </trkpt>
      <trkpt lat="44.02077" lon="2.03467">
        <ele>294</ele>
        <time>2011-03-26T14:39:29Z</time>
      </trkpt>
      <trkpt lat="44.02082" lon="2.03467">
        <ele>294</ele>
        <time>2011-03-26T14:39:30Z</time>
      </trkpt>
      <trkpt lat="44.02087" lon="2.03466">
        <ele>294</ele>
        <time>2011-03-26T14:39:31Z</time>
      </trkpt>
      <trkpt lat="44.02092" lon="2.03466">
        <ele>294</ele>
        <time>2011-03-26T14:39:32Z</time>
      </trkpt>
      <trkpt lat="44.02097" lon="2.03465">
        <ele>294</ele>
        <time>2011-03-26T14:39:33Z</time>
      </trkpt>
      <trkpt lat="44.02102" lon="2.03465">
        <ele>294</ele>
        <time>2011-03-26T14:39:34Z</time>
      </trkpt>
      <trkpt lat="44.02107" lon="2.03465">
        <ele>294</ele>
        <time>2011-03-26T14:39:35Z</time>
      </trkpt>
      <trkpt lat="44.02112" lon="2.03465">
        <ele>294</ele>
        <time>2011-03-26T14:39:36Z</time>
      </trkpt>
      <trkpt lat="44.02117" lon="2.03465">
        <ele>294</ele>
        <time>2011-03-26T14:39:37Z</time>
      </trkpt>
      <trkpt lat="44.02122" lon="2.03465">
        <ele>294</ele>
        <time>2011-03-26T14:39:38Z</time>
      </trkpt>
      <trkpt lat="44.02127" lon="2.03465">
        <ele>293</ele>
        <time>2011-03-26T14:39:39Z</time>
      </trkpt>
      <trkpt lat="44.02133" lon="2.03466">
        <ele>293</ele>
        <time>2011-03-26T14:39:40Z</time>
      </trkpt>
      <trkpt lat="44.02139" lon="2.03467">
        <ele>293</ele>
        <time>2011-03-26T14:39:41Z</time>
      </trkpt>
      <trkpt lat="44.02145" lon="2.03468">
        <ele>293</ele>
        <time>2011-03-26T14:39:42Z</time>
      </trkpt>
      <trkpt lat="44.02152" lon="2.03467">
        <ele>293</ele>
        <time>2011-03-26T14:39:43Z</time>
      </trkpt>
      <trkpt lat="44.02158" lon="2.03465">
        <ele>293</ele>
        <time>2011-03-26T14:39:44Z</time>
      </trkpt>
      <trkpt lat="44.02163" lon="2.03462">
        <ele>293</ele>
        <time>2011-03-26T14:39:45Z</time>
      </trkpt>
      <trkpt lat="44.02169" lon="2.03458">
        <ele>290</ele>
        <time>2011-03-26T14:39:46Z</time>
      </trkpt>
      <trkpt lat="44.02174" lon="2.03455">
        <ele>290</ele>
        <time>2011-03-26T14:39:47Z</time>
      </trkpt>
      <trkpt lat="44.02179" lon="2.03451">
        <ele>290</ele>
        <time>2011-03-26T14:39:48Z</time>
      </trkpt>
      <trkpt lat="44.02183" lon="2.03447">
        <ele>290</ele>
        <time>2011-03-26T14:39:49Z</time>
      </trkpt>
      <trkpt lat="44.02187" lon="2.03444">
        <ele>290</ele>
        <time>2011-03-26T14:39:50Z</time>
      </trkpt>
      <trkpt lat="44.02192" lon="2.0344">
        <ele>290</ele>
        <time>2011-03-26T14:39:51Z</time>
      </trkpt>
      <trkpt lat="44.02196" lon="2.03437">
        <ele>290</ele>
        <time>2011-03-26T14:39:52Z</time>
      </trkpt>
      <trkpt lat="44.022" lon="2.03434">
        <ele>290</ele>
        <time>2011-03-26T14:39:53Z</time>
      </trkpt>
      <trkpt lat="44.02205" lon="2.03431">
        <ele>290</ele>
        <time>2011-03-26T14:39:54Z</time>
      </trkpt>
      <trkpt lat="44.02209" lon="2.03428">
        <ele>294</ele>
        <time>2011-03-26T14:39:55Z</time>
      </trkpt>
      <trkpt lat="44.02213" lon="2.03424">
        <ele>294</ele>
        <time>2011-03-26T14:39:56Z</time>
      </trkpt>
      <trkpt lat="44.02217" lon="2.03422">
        <ele>294</ele>
        <time>2011-03-26T14:39:57Z</time>
      </trkpt>
      <trkpt lat="44.02222" lon="2.03419">
        <ele>294</ele>
        <time>2011-03-26T14:39:58Z</time>
      </trkpt>
      <trkpt lat="44.02226" lon="2.03416">
        <ele>294</ele>
        <time>2011-03-26T14:39:59Z</time>
      </trkpt>
      <trkpt lat="44.02231" lon="2.03413">
        <ele>294</ele>
        <time>2011-03-26T14:40:00Z</time>
      </trkpt>
      <trkpt lat="44.02236" lon="2.0341">
        <ele>294</ele>
        <time>2011-03-26T14:40:01Z</time>
      </trkpt>
      <trkpt lat="44.0224" lon="2.03408">
        <ele>294</ele>
        <time>2011-03-26T14:40:02Z</time>
      </trkpt>
      <trkpt lat="44.02245" lon="2.03405">
        <ele>294</ele>
        <time>2011-03-26T14:40:03Z</time>
      </trkpt>
      <trkpt lat="44.0225" lon="2.03402">
        <ele>294</ele>
        <time>2011-03-26T14:40:04Z</time>
      </trkpt>
      <trkpt lat="44.02255" lon="2.034">
        <ele>294</ele>
        <time>2011-03-26T14:40:05Z</time>
      </trkpt>
      <trkpt lat="44.02259" lon="2.03397">
        <ele>294</ele>
        <time>2011-03-26T14:40:06Z</time>
      </trkpt>
      <trkpt lat="44.02264" lon="2.03394">
        <ele>294</ele>
        <time>2011-03-26T14:40:07Z</time>
      </trkpt>
      <trkpt lat="44.02269" lon="2.03391">
        <ele>294</ele>
        <time>2011-03-26T14:40:08Z</time>
      </trkpt>
      <trkpt lat="44.02274" lon="2.03388">
        <ele>294</ele>
        <time>2011-03-26T14:40:09Z</time>
      </trkpt>
      <trkpt lat="44.02279" lon="2.03386">
        <ele>294</ele>
        <time>2011-03-26T14:40:10Z</time>
      </trkpt>
      <trkpt lat="44.02283" lon="2.03383">
        <ele>294</ele>
        <time>2011-03-26T14:40:11Z</time>
      </trkpt>
      <trkpt lat="44.02288" lon="2.0338">
        <ele>294</ele>
        <time>2011-03-26T14:40:12Z</time>
      </trkpt>
      <trkpt lat="44.02292" lon="2.03377">
        <ele>294</ele>
        <time>2011-03-26T14:40:13Z</time>
      </trkpt>
      <trkpt lat="44.02297" lon="2.03375">
        <ele>293</ele>
        <time>2011-03-26T14:40:14Z</time>
      </trkpt>
      <trkpt lat="44.02301" lon="2.03372">
        <ele>293</ele>
        <time>2011-03-26T14:40:15Z</time>
      </trkpt>
      <trkpt lat="44.02306" lon="2.0337">
        <ele>293</ele>
        <time>2011-03-26T14:40:16Z</time>
      </trkpt>
      <trkpt lat="44.0231" lon="2.0337">
        <ele>293</ele>
        <time>2011-03-26T14:40:17Z</time>
      </trkpt>
      <trkpt lat="44.02315" lon="2.03372">
        <ele>293</ele>
        <time>2011-03-26T14:40:18Z</time>
      </trkpt>
      <trkpt lat="44.02319" lon="2.03375">
        <ele>294</ele>
        <time>2011-03-26T14:40:19Z</time>
      </trkpt>
      <trkpt lat="44.02324" lon="2.03378">
        <ele>294</ele>
        <time>2011-03-26T14:40:20Z</time>
      </trkpt>
      <trkpt lat="44.02328" lon="2.03382">
        <ele>294</ele>
        <time>2011-03-26T14:40:21Z</time>
      </trkpt>
      <trkpt lat="44.02332" lon="2.03386">
        <ele>294</ele>
        <time>2011-03-26T14:40:22Z</time>
      </trkpt>
      <trkpt lat="44.02335" lon="2.0339">
        <ele>294</ele>
        <time>2011-03-26T14:40:23Z</time>
      </trkpt>
      <trkpt lat="44.02339" lon="2.03394">
        <ele>294</ele>
        <time>2011-03-26T14:40:24Z</time>
      </trkpt>
      <trkpt lat="44.02343" lon="2.03397">
        <ele>294</ele>
        <time>2011-03-26T14:40:25Z</time>
      </trkpt>
      <trkpt lat="44.02347" lon="2.03399">
        <ele>294</ele>
        <time>2011-03-26T14:40:26Z</time>
      </trkpt>
      <trkpt lat="44.02351" lon="2.03399">
        <ele>294</ele>
        <time>2011-03-26T14:40:27Z</time>
      </trkpt>
      <trkpt lat="44.02356" lon="2.03397">
        <ele>294</ele>
        <time>2011-03-26T14:40:28Z</time>
      </trkpt>
      <trkpt lat="44.0236" lon="2.03395">
        <ele>294</ele>
        <time>2011-03-26T14:40:29Z</time>
      </trkpt>
      <trkpt lat="44.02363" lon="2.0339">
        <ele>294</ele>
        <time>2011-03-26T14:40:30Z</time>
      </trkpt>
      <trkpt lat="44.02367" lon="2.03385">
        <ele>294</ele>
        <time>2011-03-26T14:40:31Z</time>
      </trkpt>
      <trkpt lat="44.02371" lon="2.03381">
        <ele>294</ele>
        <time>2011-03-26T14:40:32Z</time>
      </trkpt>
      <trkpt lat="44.02374" lon="2.03376">
        <ele>294</ele>
        <time>2011-03-26T14:40:33Z</time>
      </trkpt>
      <trkpt lat="44.02378" lon="2.03371">
        <ele>293</ele>
        <time>2011-03-26T14:40:34Z</time>
      </trkpt>
      <trkpt lat="44.02381" lon="2.03367">
        <ele>293</ele>
        <time>2011-03-26T14:40:35Z</time>
      </trkpt>
      <trkpt lat="44.02385" lon="2.03363">
        <ele>293</ele>
        <time>2011-03-26T14:40:36Z</time>
      </trkpt>
      <trkpt lat="44.02388" lon="2.03358">
        <ele>293</ele>
        <time>2011-03-26T14:40:37Z</time>
      </trkpt>
      <trkpt lat="44.02392" lon="2.03353">
        <ele>293</ele>
        <time>2011-03-26T14:40:38Z</time>
      </trkpt>
      <trkpt lat="44.02395" lon="2.03347">
        <ele>293</ele>
        <time>2011-03-26T14:40:39Z</time>
      </trkpt>
      <trkpt lat="44.02399" lon="2.03342">
        <ele>293</ele>
        <time>2011-03-26T14:40:40Z</time>
      </trkpt>
      <trkpt lat="44.02403" lon="2.03337">
        <ele>293</ele>
        <time>2011-03-26T14:40:41Z</time>
      </trkpt>
      <trkpt lat="44.02408" lon="2.03331">
        <ele>293</ele>
        <time>2011-03-26T14:40:42Z</time>
      </trkpt>
      <trkpt lat="44.02412" lon="2.03326">
        <ele>293</ele>
        <time>2011-03-26T14:40:43Z</time>
      </trkpt>
      <trkpt lat="44.02417" lon="2.03322">
        <ele>293</ele>
        <time>2011-03-26T14:40:44Z</time>
      </trkpt>
      <trkpt lat="44.02421" lon="2.03317">
        <ele>293</ele>
        <time>2011-03-26T14:40:45Z</time>
      </trkpt>
      <trkpt lat="44.02426" lon="2.03313">
        <ele>293</ele>
        <time>2011-03-26T14:40:46Z</time>
      </trkpt>
      <trkpt lat="44.0243" lon="2.0331">
        <ele>293</ele>
        <time>2011-03-26T14:40:47Z</time>
      </trkpt>
      <trkpt lat="44.02434" lon="2.03306">
        <ele>293</ele>
        <time>2011-03-26T14:40:48Z</time>
      </trkpt>
      <trkpt lat="44.02439" lon="2.03302">
        <ele>293</ele>
        <time>2011-03-26T14:40:49Z</time>
      </trkpt>
      <trkpt lat="44.02444" lon="2.03298">
        <ele>293</ele>
        <time>2011-03-26T14:40:50Z</time>
      </trkpt>
      <trkpt lat="44.02449" lon="2.03294">
        <ele>293</ele>
        <time>2011-03-26T14:40:51Z</time>
      </trkpt>
      <trkpt lat="44.02455" lon="2.0329">
        <ele>294</ele>
        <time>2011-03-26T14:40:52Z</time>
      </trkpt>
      <trkpt lat="44.02461" lon="2.03286">
        <ele>288</ele>
        <time>2011-03-26T14:40:53Z</time>
      </trkpt>
      <trkpt lat="44.02466" lon="2.03282">
        <ele>288</ele>
        <time>2011-03-26T14:40:54Z</time>
      </trkpt>
      <trkpt lat="44.02472" lon="2.03278">
        <ele>288</ele>
        <time>2011-03-26T14:40:55Z</time>
      </trkpt>
      <trkpt lat="44.02478" lon="2.03274">
        <ele>288</ele>
        <time>2011-03-26T14:40:56Z</time>
      </trkpt>
      <trkpt lat="44.02484" lon="2.03269">
        <ele>288</ele>
        <time>2011-03-26T14:40:57Z</time>
      </trkpt>
      <trkpt lat="44.0249" lon="2.03265">
        <ele>288</ele>
        <time>2011-03-26T14:40:58Z</time>
      </trkpt>
      <trkpt lat="44.02496" lon="2.03259">
        <ele>288</ele>
        <time>2011-03-26T14:40:59Z</time>
      </trkpt>
      <trkpt lat="44.02502" lon="2.03254">
        <ele>288</ele>
        <time>2011-03-26T14:41:00Z</time>
      </trkpt>
      <trkpt lat="44.02508" lon="2.03249">
        <ele>288</ele>
        <time>2011-03-26T14:41:01Z</time>
      </trkpt>
      <trkpt lat="44.02515" lon="2.03244">
        <ele>288</ele>
        <time>2011-03-26T14:41:02Z</time>
      </trkpt>
      <trkpt lat="44.02521" lon="2.03239">
        <ele>288</ele>
        <time>2011-03-26T14:41:03Z</time>
      </trkpt>
      <trkpt lat="44.02527" lon="2.03234">
        <ele>288</ele>
        <time>2011-03-26T14:41:04Z</time>
      </trkpt>
      <trkpt lat="44.02534" lon="2.03229">
        <ele>288</ele>
        <time>2011-03-26T14:41:05Z</time>
      </trkpt>
      <trkpt lat="44.0254" lon="2.03224">
        <ele>288</ele>
        <time>2011-03-26T14:41:06Z</time>
      </trkpt>
      <trkpt lat="44.02546" lon="2.0322">
        <ele>281</ele>
        <time>2011-03-26T14:41:07Z</time>
      </trkpt>
      <trkpt lat="44.02552" lon="2.03215">
        <ele>281</ele>
        <time>2011-03-26T14:41:08Z</time>
      </trkpt>
      <trkpt lat="44.02558" lon="2.03211">
        <ele>281</ele>
        <time>2011-03-26T14:41:09Z</time>
      </trkpt>
      <trkpt lat="44.02564" lon="2.03206">
        <ele>286</ele>
        <time>2011-03-26T14:41:10Z</time>
      </trkpt>
      <trkpt lat="44.02571" lon="2.03201">
        <ele>286</ele>
        <time>2011-03-26T14:41:11Z</time>
      </trkpt>
      <trkpt lat="44.02577" lon="2.03195">
        <ele>286</ele>
        <time>2011-03-26T14:41:12Z</time>
      </trkpt>
      <trkpt lat="44.02583" lon="2.0319">
        <ele>286</ele>
        <time>2011-03-26T14:41:13Z</time>
      </trkpt>
      <trkpt lat="44.02589" lon="2.03183">
        <ele>286</ele>
        <time>2011-03-26T14:41:14Z</time>
      </trkpt>
      <trkpt lat="44.02596" lon="2.03176">
        <ele>286</ele>
        <time>2011-03-26T14:41:15Z</time>
      </trkpt>
      <trkpt lat="44.02603" lon="2.03169">
        <ele>286</ele>
        <time>2011-03-26T14:41:16Z</time>
      </trkpt>
      <trkpt lat="44.0261" lon="2.0316">
        <ele>286</ele>
        <time>2011-03-26T14:41:17Z</time>
      </trkpt>
      <trkpt lat="44.02618" lon="2.03152">
        <ele>286</ele>
        <time>2011-03-26T14:41:18Z</time>
      </trkpt>
      <trkpt lat="44.02626" lon="2.03143">
        <ele>277</ele>
        <time>2011-03-26T14:41:19Z</time>
      </trkpt>
      <trkpt lat="44.02633" lon="2.03135">
        <ele>277</ele>
        <time>2011-03-26T14:41:20Z</time>
      </trkpt>
      <trkpt lat="44.02641" lon="2.03127">
        <ele>277</ele>
        <time>2011-03-26T14:41:21Z</time>
      </trkpt>
      <trkpt lat="44.02649" lon="2.03118">
        <ele>282</ele>
        <time>2011-03-26T14:41:22Z</time>
      </trkpt>
      <trkpt lat="44.02656" lon="2.03111">
        <ele>282</ele>
        <time>2011-03-26T14:41:23Z</time>
      </trkpt>
      <trkpt lat="44.02664" lon="2.03103">
        <ele>282</ele>
        <time>2011-03-26T14:41:24Z</time>
      </trkpt>
      <trkpt lat="44.02671" lon="2.03095">
        <ele>282</ele>
        <time>2011-03-26T14:41:25Z</time>
      </trkpt>
      <trkpt lat="44.02678" lon="2.03086">
        <ele>282</ele>
        <time>2011-03-26T14:41:26Z</time>
      </trkpt>
      <trkpt lat="44.02684" lon="2.03078">
        <ele>282</ele>
        <time>2011-03-26T14:41:27Z</time>
      </trkpt>
      <trkpt lat="44.02691" lon="2.03071">
        <ele>282</ele>
        <time>2011-03-26T14:41:28Z</time>
      </trkpt>
      <trkpt lat="44.02699" lon="2.03063">
        <ele>282</ele>
        <time>2011-03-26T14:41:29Z</time>
      </trkpt>
      <trkpt lat="44.02707" lon="2.03056">
        <ele>282</ele>
        <time>2011-03-26T14:41:30Z</time>
      </trkpt>
      <trkpt lat="44.02715" lon="2.0305">
        <ele>269</ele>
        <time>2011-03-26T14:41:31Z</time>
      </trkpt>
      <trkpt lat="44.02724" lon="2.03045">
        <ele>269</ele>
        <time>2011-03-26T14:41:32Z</time>
      </trkpt>
      <trkpt lat="44.02732" lon="2.03041">
        <ele>271</ele>
        <time>2011-03-26T14:41:33Z</time>
      </trkpt>
      <trkpt lat="44.02741" lon="2.03037">
        <ele>271</ele>
        <time>2011-03-26T14:41:34Z</time>
      </trkpt>
      <trkpt lat="44.0275" lon="2.03033">
        <ele>271</ele>
        <time>2011-03-26T14:41:35Z</time>
      </trkpt>
      <trkpt lat="44.02759" lon="2.03028">
        <ele>271</ele>
        <time>2011-03-26T14:41:36Z</time>
      </trkpt>
      <trkpt lat="44.02767" lon="2.03024">
        <ele>271</ele>
        <time>2011-03-26T14:41:37Z</time>
      </trkpt>
      <trkpt lat="44.02776" lon="2.03018">
        <ele>271</ele>
        <time>2011-03-26T14:41:38Z</time>
      </trkpt>
      <trkpt lat="44.02784" lon="2.03012">
        <ele>271</ele>
        <time>2011-03-26T14:41:39Z</time>
      </trkpt>
      <trkpt lat="44.02794" lon="2.03006">
        <ele>260</ele>
        <time>2011-03-26T14:41:40Z</time>
      </trkpt>
      <trkpt lat="44.02804" lon="2.03001">
        <ele>260</ele>
        <time>2011-03-26T14:41:41Z</time>
      </trkpt>
      <trkpt lat="44.02813" lon="2.02996">
        <ele>260</ele>
        <time>2011-03-26T14:41:42Z</time>
      </trkpt>
      <trkpt lat="44.02823" lon="2.02992">
        <ele>260</ele>
        <time>2011-03-26T14:41:43Z</time>
      </trkpt>
      <trkpt lat="44.02834" lon="2.02987">
        <ele>260</ele>
        <time>2011-03-26T14:41:44Z</time>
      </trkpt>
      <trkpt lat="44.02844" lon="2.02982">
        <ele>260</ele>
        <time>2011-03-26T14:41:45Z</time>
      </trkpt>
      <trkpt lat="44.02853" lon="2.02977">
        <ele>260</ele>
        <time>2011-03-26T14:41:46Z</time>
      </trkpt>
      <trkpt lat="44.02863" lon="2.02976">
        <ele>260</ele>
        <time>2011-03-26T14:41:47Z</time>
      </trkpt>
      <trkpt lat="44.02873" lon="2.02975">
        <ele>260</ele>
        <time>2011-03-26T14:41:48Z</time>
      </trkpt>
      <trkpt lat="44.02881" lon="2.02973">
        <ele>259</ele>
        <time>2011-03-26T14:41:49Z</time>
      </trkpt>
      <trkpt lat="44.02889" lon="2.02968">
        <ele>259</ele>
        <time>2011-03-26T14:41:50Z</time>
      </trkpt>
      <trkpt lat="44.02896" lon="2.02963">
        <ele>259</ele>
        <time>2011-03-26T14:41:51Z</time>
      </trkpt>
      <trkpt lat="44.02902" lon="2.02957">
        <ele>262</ele>
        <time>2011-03-26T14:41:52Z</time>
      </trkpt>
      <trkpt lat="44.02907" lon="2.02951">
        <ele>262</ele>
        <time>2011-03-26T14:41:53Z</time>
      </trkpt>
      <trkpt lat="44.02912" lon="2.02945">
        <ele>262</ele>
        <time>2011-03-26T14:41:54Z</time>
      </trkpt>
      <trkpt lat="44.02916" lon="2.02939">
        <ele>262</ele>
        <time>2011-03-26T14:41:55Z</time>
      </trkpt>
      <trkpt lat="44.0292" lon="2.02933">
        <ele>262</ele>
        <time>2011-03-26T14:41:56Z</time>
      </trkpt>
      <trkpt lat="44.02923" lon="2.02928">
        <ele>262</ele>
        <time>2011-03-26T14:41:57Z</time>
      </trkpt>
      <trkpt lat="44.02924" lon="2.02924">
        <ele>262</ele>
        <time>2011-03-26T14:41:58Z</time>
      </trkpt>
      <trkpt lat="44.02925" lon="2.02919">
        <ele>262</ele>
        <time>2011-03-26T14:41:59Z</time>
      </trkpt>
      <trkpt lat="44.02924" lon="2.02914">
        <ele>262</ele>
        <time>2011-03-26T14:42:00Z</time>
      </trkpt>
      <trkpt lat="44.02923" lon="2.02908">
        <ele>262</ele>
        <time>2011-03-26T14:42:01Z</time>
      </trkpt>
      <trkpt lat="44.02922" lon="2.02903">
        <ele>262</ele>
        <time>2011-03-26T14:42:02Z</time>
      </trkpt>
      <trkpt lat="44.02921" lon="2.02899">
        <ele>262</ele>
        <time>2011-03-26T14:42:03Z</time>
      </trkpt>
      <trkpt lat="44.0292" lon="2.02893">
        <ele>262</ele>
        <time>2011-03-26T14:42:04Z</time>
      </trkpt>
      <trkpt lat="44.02917" lon="2.02888">
        <ele>262</ele>
        <time>2011-03-26T14:42:05Z</time>
      </trkpt>
      <trkpt lat="44.02916" lon="2.02884">
        <ele>262</ele>
        <time>2011-03-26T14:42:06Z</time>
      </trkpt>
      <trkpt lat="44.02914" lon="2.02881">
        <ele>262</ele>
        <time>2011-03-26T14:42:07Z</time>
      </trkpt>
      <trkpt lat="44.02913" lon="2.02877">
        <ele>262</ele>
        <time>2011-03-26T14:42:08Z</time>
      </trkpt>
      <trkpt lat="44.02911" lon="2.02874">
        <ele>269</ele>
        <time>2011-03-26T14:42:09Z</time>
      </trkpt>
      <trkpt lat="44.02909" lon="2.02871">
        <ele>269</ele>
        <time>2011-03-26T14:42:10Z</time>
      </trkpt>
      <trkpt lat="44.02907" lon="2.02868">
        <ele>269</ele>
        <time>2011-03-26T14:42:11Z</time>
      </trkpt>
      <trkpt lat="44.02905" lon="2.02865">
        <ele>269</ele>
        <time>2011-03-26T14:42:12Z</time>
      </trkpt>
      <trkpt lat="44.02903" lon="2.02862">
        <ele>269</ele>
        <time>2011-03-26T14:42:13Z</time>
      </trkpt>
      <trkpt lat="44.02901" lon="2.02858">
        <ele>269</ele>
        <time>2011-03-26T14:42:14Z</time>
      </trkpt>
      <trkpt lat="44.02899" lon="2.02855">
        <ele>269</ele>
        <time>2011-03-26T14:42:15Z</time>
      </trkpt>
      <trkpt lat="44.02897" lon="2.02851">
        <ele>269</ele>
        <time>2011-03-26T14:42:16Z</time>
      </trkpt>
      <trkpt lat="44.02894" lon="2.02847">
        <ele>269</ele>
        <time>2011-03-26T14:42:17Z</time>
      </trkpt>
      <trkpt lat="44.02891" lon="2.02843">
        <ele>269</ele>
        <time>2011-03-26T14:42:18Z</time>
      </trkpt>
      <trkpt lat="44.02887" lon="2.02839">
        <ele>269</ele>
        <time>2011-03-26T14:42:19Z</time>
      </trkpt>
      <trkpt lat="44.02884" lon="2.02835">
        <ele>269</ele>
        <time>2011-03-26T14:42:20Z</time>
      </trkpt>
      <trkpt lat="44.02881" lon="2.02831">
        <ele>269</ele>
        <time>2011-03-26T14:42:21Z</time>
      </trkpt>
      <trkpt lat="44.02878" lon="2.02827">
        <ele>269</ele>
        <time>2011-03-26T14:42:22Z</time>
      </trkpt>
      <trkpt lat="44.02875" lon="2.02822">
        <ele>269</ele>
        <time>2011-03-26T14:42:23Z</time>
      </trkpt>
      <trkpt lat="44.02873" lon="2.02818">
        <ele>263</ele>
        <time>2011-03-26T14:42:24Z</time>
      </trkpt>
      <trkpt lat="44.02869" lon="2.02814">
        <ele>263</ele>
        <time>2011-03-26T14:42:25Z</time>
      </trkpt>
      <trkpt lat="44.02866" lon="2.0281">
        <ele>263</ele>
        <time>2011-03-26T14:42:26Z</time>
      </trkpt>
      <trkpt lat="44.02863" lon="2.02806">
        <ele>263</ele>
        <time>2011-03-26T14:42:27Z</time>
      </trkpt>
      <trkpt lat="44.0286" lon="2.02801">
        <ele>263</ele>
        <time>2011-03-26T14:42:28Z</time>
      </trkpt>
      <trkpt lat="44.02857" lon="2.02797">
        <ele>263</ele>
        <time>2011-03-26T14:42:29Z</time>
      </trkpt>
      <trkpt lat="44.02855" lon="2.02793">
        <ele>263</ele>
        <time>2011-03-26T14:42:30Z</time>
      </trkpt>
      <trkpt lat="44.02852" lon="2.02789">
        <ele>268</ele>
        <time>2011-03-26T14:42:31Z</time>
      </trkpt>
      <trkpt lat="44.02849" lon="2.02784">
        <ele>268</ele>
        <time>2011-03-26T14:42:32Z</time>
      </trkpt>
      <trkpt lat="44.02847" lon="2.0278">
        <ele>268</ele>
        <time>2011-03-26T14:42:33Z</time>
      </trkpt>
      <trkpt lat="44.02844" lon="2.02776">
        <ele>268</ele>
        <time>2011-03-26T14:42:34Z</time>
      </trkpt>
      <trkpt lat="44.02841" lon="2.02772">
        <ele>268</ele>
        <time>2011-03-26T14:42:35Z</time>
      </trkpt>
      <trkpt lat="44.02838" lon="2.02768">
        <ele>268</ele>
        <time>2011-03-26T14:42:36Z</time>
      </trkpt>
      <trkpt lat="44.02835" lon="2.02764">
        <ele>268</ele>
        <time>2011-03-26T14:42:37Z</time>
      </trkpt>
      <trkpt lat="44.02833" lon="2.0276">
        <ele>268</ele>
        <time>2011-03-26T14:42:38Z</time>
      </trkpt>
      <trkpt lat="44.0283" lon="2.02756">
        <ele>268</ele>
        <time>2011-03-26T14:42:39Z</time>
      </trkpt>
      <trkpt lat="44.02827" lon="2.02752">
        <ele>268</ele>
        <time>2011-03-26T14:42:40Z</time>
      </trkpt>
      <trkpt lat="44.02825" lon="2.02748">
        <ele>268</ele>
        <time>2011-03-26T14:42:41Z</time>
      </trkpt>
      <trkpt lat="44.02822" lon="2.02744">
        <ele>268</ele>
        <time>2011-03-26T14:42:42Z</time>
      </trkpt>
      <trkpt lat="44.02819" lon="2.0274">
        <ele>268</ele>
        <time>2011-03-26T14:42:43Z</time>
      </trkpt>
      <trkpt lat="44.02817" lon="2.02735">
        <ele>268</ele>
        <time>2011-03-26T14:42:44Z</time>
      </trkpt>
      <trkpt lat="44.02814" lon="2.02731">
        <ele>268</ele>
        <time>2011-03-26T14:42:45Z</time>
      </trkpt>
      <trkpt lat="44.02811" lon="2.02726">
        <ele>268</ele>
        <time>2011-03-26T14:42:46Z</time>
      </trkpt>
      <trkpt lat="44.02808" lon="2.02722">
        <ele>268</ele>
        <time>2011-03-26T14:42:47Z</time>
      </trkpt>
      <trkpt lat="44.02805" lon="2.02719">
        <ele>268</ele>
        <time>2011-03-26T14:42:48Z</time>
      </trkpt>
      <trkpt lat="44.02801" lon="2.02717">
        <ele>268</ele>
        <time>2011-03-26T14:42:49Z</time>
      </trkpt>
      <trkpt lat="44.02796" lon="2.02716">
        <ele>268</ele>
        <time>2011-03-26T14:42:50Z</time>
      </trkpt>
      <trkpt lat="44.02789" lon="2.02715">
        <ele>260</ele>
        <time>2011-03-26T14:42:51Z</time>
      </trkpt>
      <trkpt lat="44.02782" lon="2.02714">
        <ele>260</ele>
        <time>2011-03-26T14:42:52Z</time>
      </trkpt>
      <trkpt lat="44.02775" lon="2.02714">
        <ele>260</ele>
        <time>2011-03-26T14:42:53Z</time>
      </trkpt>
      <trkpt lat="44.02767" lon="2.02712">
        <ele>260</ele>
        <time>2011-03-26T14:42:54Z</time>
      </trkpt>
      <trkpt lat="44.0276" lon="2.02711">
        <ele>260</ele>
        <time>2011-03-26T14:42:55Z</time>
      </trkpt>
      <trkpt lat="44.02752" lon="2.02707">
        <ele>263</ele>
        <time>2011-03-26T14:42:56Z</time>
      </trkpt>
      <trkpt lat="44.02743" lon="2.02702">
        <ele>263</ele>
        <time>2011-03-26T14:42:57Z</time>
      </trkpt>
      <trkpt lat="44.02736" lon="2.02697">
        <ele>263</ele>
        <time>2011-03-26T14:42:58Z</time>
      </trkpt>
      <trkpt lat="44.0273" lon="2.0269">
        <ele>263</ele>
        <time>2011-03-26T14:42:59Z</time>
      </trkpt>
      <trkpt lat="44.02724" lon="2.02683">
        <ele>263</ele>
        <time>2011-03-26T14:43:00Z</time>
      </trkpt>
      <trkpt lat="44.02718" lon="2.02676">
        <ele>263</ele>
        <time>2011-03-26T14:43:01Z</time>
      </trkpt>
      <trkpt lat="44.02712" lon="2.02668">
        <ele>263</ele>
        <time>2011-03-26T14:43:02Z</time>
      </trkpt>
      <trkpt lat="44.02706" lon="2.0266">
        <ele>255</ele>
        <time>2011-03-26T14:43:03Z</time>
      </trkpt>
      <trkpt lat="44.02701" lon="2.02652">
        <ele>255</ele>
        <time>2011-03-26T14:43:04Z</time>
      </trkpt>
      <trkpt lat="44.02695" lon="2.02643">
        <ele>255</ele>
        <time>2011-03-26T14:43:05Z</time>
      </trkpt>
      <trkpt lat="44.02691" lon="2.02635">
        <ele>255</ele>
        <time>2011-03-26T14:43:06Z</time>
      </trkpt>
      <trkpt lat="44.02686" lon="2.02627">
        <ele>255</ele>
        <time>2011-03-26T14:43:07Z</time>
      </trkpt>
      <trkpt lat="44.02682" lon="2.02618">
        <ele>258</ele>
        <time>2011-03-26T14:43:08Z</time>
      </trkpt>
      <trkpt lat="44.02678" lon="2.0261">
        <ele>258</ele>
        <time>2011-03-26T14:43:09Z</time>
      </trkpt>
      <trkpt lat="44.02674" lon="2.02602">
        <ele>258</ele>
        <time>2011-03-26T14:43:10Z</time>
      </trkpt>
      <trkpt lat="44.02669" lon="2.02594">
        <ele>258</ele>
        <time>2011-03-26T14:43:11Z</time>
      </trkpt>
      <trkpt lat="44.02665" lon="2.02586">
        <ele>258</ele>
        <time>2011-03-26T14:43:12Z</time>
      </trkpt>
      <trkpt lat="44.02661" lon="2.02578">
        <ele>258</ele>
        <time>2011-03-26T14:43:13Z</time>
      </trkpt>
      <trkpt lat="44.02656" lon="2.0257">
        <ele>258</ele>
        <time>2011-03-26T14:43:14Z</time>
      </trkpt>
      <trkpt lat="44.02652" lon="2.02564">
        <ele>258</ele>
        <time>2011-03-26T14:43:15Z</time>
      </trkpt>
      <trkpt lat="44.0265" lon="2.02558">
        <ele>258</ele>
        <time>2011-03-26T14:43:16Z</time>
      </trkpt>
      <trkpt lat="44.02648" lon="2.02552">
        <ele>258</ele>
        <time>2011-03-26T14:43:17Z</time>
      </trkpt>
      <trkpt lat="44.02649" lon="2.02546">
        <ele>258</ele>
        <time>2011-03-26T14:43:18Z</time>
      </trkpt>
      <trkpt lat="44.0265" lon="2.02542">
        <ele>261</ele>
        <time>2011-03-26T14:43:19Z</time>
      </trkpt>
      <trkpt lat="44.02653" lon="2.02538">
        <ele>261</ele>
        <time>2011-03-26T14:43:20Z</time>
      </trkpt>
      <trkpt lat="44.02655" lon="2.02536">
        <ele>261</ele>
        <time>2011-03-26T14:43:21Z</time>
      </trkpt>
      <trkpt lat="44.02658" lon="2.02534">
        <ele>261</ele>
        <time>2011-03-26T14:43:22Z</time>
      </trkpt>
      <trkpt lat="44.0266" lon="2.02532">
        <ele>261</ele>
        <time>2011-03-26T14:43:23Z</time>
      </trkpt>
      <trkpt lat="44.02662" lon="2.02529">
        <ele>261</ele>
        <time>2011-03-26T14:43:24Z</time>
      </trkpt>
      <trkpt lat="44.02665" lon="2.02527">
        <ele>261</ele>
        <time>2011-03-26T14:43:25Z</time>
      </trkpt>
      <trkpt lat="44.02667" lon="2.02525">
        <ele>261</ele>
        <time>2011-03-26T14:43:26Z</time>
      </trkpt>
      <trkpt lat="44.02669" lon="2.02523">
        <ele>261</ele>
        <time>2011-03-26T14:43:27Z</time>
      </trkpt>
      <trkpt lat="44.02671" lon="2.02521">
        <ele>261</ele>
        <time>2011-03-26T14:43:28Z</time>
      </trkpt>
      <trkpt lat="44.02673" lon="2.0252">
        <ele>261</ele>
        <time>2011-03-26T14:43:29Z</time>
      </trkpt>
      <trkpt lat="44.02675" lon="2.02518">
        <ele>261</ele>
        <time>2011-03-26T14:43:30Z</time>
      </trkpt>
      <trkpt lat="44.02677" lon="2.02516">
        <ele>261</ele>
        <time>2011-03-26T14:43:31Z</time>
      </trkpt>
      <trkpt lat="44.02679" lon="2.02515">
        <ele>261</ele>
        <time>2011-03-26T14:43:32Z</time>
      </trkpt>
      <trkpt lat="44.02682" lon="2.02513">
        <ele>261</ele>
        <time>2011-03-26T14:43:33Z</time>
      </trkpt>
      <trkpt lat="44.02684" lon="2.02511">
        <ele>261</ele>
        <time>2011-03-26T14:43:34Z</time>
      </trkpt>
      <trkpt lat="44.02687" lon="2.0251">
        <ele>261</ele>
        <time>2011-03-26T14:43:35Z</time>
      </trkpt>
      <trkpt lat="44.02689" lon="2.02508">
        <ele>261</ele>
        <time>2011-03-26T14:43:36Z</time>
      </trkpt>
      <trkpt lat="44.02692" lon="2.02506">
        <ele>261</ele>
        <time>2011-03-26T14:43:37Z</time>
      </trkpt>
      <trkpt lat="44.02695" lon="2.02504">
        <ele>261</ele>
        <time>2011-03-26T14:43:38Z</time>
      </trkpt>
      <trkpt lat="44.02698" lon="2.02502">
        <ele>261</ele>
        <time>2011-03-26T14:43:39Z</time>
      </trkpt>
      <trkpt lat="44.027" lon="2.02501">
        <ele>261</ele>
        <time>2011-03-26T14:43:40Z</time>
      </trkpt>
      <trkpt lat="44.02703" lon="2.02499">
        <ele>261</ele>
        <time>2011-03-26T14:43:41Z</time>
      </trkpt>
      <trkpt lat="44.02705" lon="2.02497">
        <ele>261</ele>
        <time>2011-03-26T14:43:42Z</time>
      </trkpt>
      <trkpt lat="44.02707" lon="2.02496">
        <ele>261</ele>
        <time>2011-03-26T14:43:43Z</time>
      </trkpt>
      <trkpt lat="44.02709" lon="2.02494">
        <ele>270</ele>
        <time>2011-03-26T14:43:44Z</time>
      </trkpt>
      <trkpt lat="44.02712" lon="2.02492">
        <ele>270</ele>
        <time>2011-03-26T14:43:45Z</time>
      </trkpt>
      <trkpt lat="44.02714" lon="2.02491">
        <ele>270</ele>
        <time>2011-03-26T14:43:46Z</time>
      </trkpt>
      <trkpt lat="44.02716" lon="2.02488">
        <ele>270</ele>
        <time>2011-03-26T14:43:47Z</time>
      </trkpt>
      <trkpt lat="44.02718" lon="2.02486">
        <ele>270</ele>
        <time>2011-03-26T14:43:48Z</time>
      </trkpt>
      <trkpt lat="44.02719" lon="2.02484">
        <ele>270</ele>
        <time>2011-03-26T14:43:49Z</time>
      </trkpt>
      <trkpt lat="44.02721" lon="2.02483">
        <ele>270</ele>
        <time>2011-03-26T14:43:50Z</time>
      </trkpt>
      <trkpt lat="44.02723" lon="2.02481">
        <ele>270</ele>
        <time>2011-03-26T14:43:51Z</time>
      </trkpt>
      <trkpt lat="44.02725" lon="2.02479">
        <ele>270</ele>
        <time>2011-03-26T14:43:52Z</time>
      </trkpt>
      <trkpt lat="44.02727" lon="2.02477">
        <ele>270</ele>
        <time>2011-03-26T14:43:53Z</time>
      </trkpt>
      <trkpt lat="44.02729" lon="2.02475">
        <ele>270</ele>
        <time>2011-03-26T14:43:54Z</time>
      </trkpt>
      <trkpt lat="44.02731" lon="2.02473">
        <ele>270</ele>
        <time>2011-03-26T14:43:55Z</time>
      </trkpt>
      <trkpt lat="44.02734" lon="2.02468">
        <ele>270</ele>
        <time>2011-03-26T14:43:57Z</time>
      </trkpt>
      <trkpt lat="44.02736" lon="2.02467">
        <ele>270</ele>
        <time>2011-03-26T14:43:58Z</time>
      </trkpt>
      <trkpt lat="44.02738" lon="2.02464">
        <ele>270</ele>
        <time>2011-03-26T14:43:59Z</time>
      </trkpt>
      <trkpt lat="44.0274" lon="2.02462">
        <ele>270</ele>
        <time>2011-03-26T14:44:00Z</time>
      </trkpt>
      <trkpt lat="44.02742" lon="2.0246">
        <ele>270</ele>
        <time>2011-03-26T14:44:01Z</time>
      </trkpt>
      <trkpt lat="44.02744" lon="2.02458">
        <ele>270</ele>
        <time>2011-03-26T14:44:02Z</time>
      </trkpt>
      <trkpt lat="44.02745" lon="2.02456">
        <ele>269</ele>
        <time>2011-03-26T14:44:03Z</time>
      </trkpt>
      <trkpt lat="44.02747" lon="2.02454">
        <ele>269</ele>
        <time>2011-03-26T14:44:04Z</time>
      </trkpt>
      <trkpt lat="44.02749" lon="2.02453">
        <ele>269</ele>
        <time>2011-03-26T14:44:05Z</time>
      </trkpt>
      <trkpt lat="44.02751" lon="2.02451">
        <ele>269</ele>
        <time>2011-03-26T14:44:06Z</time>
      </trkpt>
      <trkpt lat="44.02753" lon="2.02449">
        <ele>269</ele>
        <time>2011-03-26T14:44:07Z</time>
      </trkpt>
      <trkpt lat="44.02755" lon="2.02447">
        <ele>269</ele>
        <time>2011-03-26T14:44:08Z</time>
      </trkpt>
      <trkpt lat="44.02757" lon="2.02445">
        <ele>269</ele>
        <time>2011-03-26T14:44:09Z</time>
      </trkpt>
      <trkpt lat="44.02759" lon="2.02443">
        <ele>269</ele>
        <time>2011-03-26T14:44:10Z</time>
      </trkpt>
      <trkpt lat="44.02761" lon="2.02441">
        <ele>269</ele>
        <time>2011-03-26T14:44:11Z</time>
      </trkpt>
      <trkpt lat="44.02763" lon="2.02439">
        <ele>269</ele>
        <time>2011-03-26T14:44:12Z</time>
      </trkpt>
      <trkpt lat="44.02765" lon="2.02438">
        <ele>269</ele>
        <time>2011-03-26T14:44:13Z</time>
      </trkpt>
      <trkpt lat="44.02767" lon="2.02436">
        <ele>269</ele>
        <time>2011-03-26T14:44:14Z</time>
      </trkpt>
      <trkpt lat="44.0277" lon="2.02434">
        <ele>269</ele>
        <time>2011-03-26T14:44:15Z</time>
      </trkpt>
      <trkpt lat="44.02772" lon="2.02432">
        <ele>269</ele>
        <time>2011-03-26T14:44:16Z</time>
      </trkpt>
      <trkpt lat="44.02774" lon="2.0243">
        <ele>269</ele>
        <time>2011-03-26T14:44:17Z</time>
      </trkpt>
      <trkpt lat="44.02776" lon="2.02429">
        <ele>269</ele>
        <time>2011-03-26T14:44:18Z</time>
      </trkpt>
      <trkpt lat="44.02778" lon="2.02427">
        <ele>269</ele>
        <time>2011-03-26T14:44:19Z</time>
      </trkpt>
      <trkpt lat="44.0278" lon="2.02425">
        <ele>269</ele>
        <time>2011-03-26T14:44:20Z</time>
      </trkpt>
      <trkpt lat="44.02782" lon="2.02423">
        <ele>269</ele>
        <time>2011-03-26T14:44:21Z</time>
      </trkpt>
      <trkpt lat="44.02784" lon="2.02418">
        <ele>269</ele>
        <time>2011-03-26T14:44:23Z</time>
      </trkpt>
      <trkpt lat="44.02786" lon="2.02415">
        <ele>269</ele>
        <time>2011-03-26T14:44:24Z</time>
      </trkpt>
      <trkpt lat="44.02787" lon="2.02412">
        <ele>269</ele>
        <time>2011-03-26T14:44:25Z</time>
      </trkpt>
      <trkpt lat="44.02789" lon="2.02408">
        <ele>269</ele>
        <time>2011-03-26T14:44:26Z</time>
      </trkpt>
      <trkpt lat="44.02791" lon="2.02403">
        <ele>269</ele>
        <time>2011-03-26T14:44:27Z</time>
      </trkpt>
      <trkpt lat="44.02793" lon="2.02399">
        <ele>280</ele>
        <time>2011-03-26T14:44:28Z</time>
      </trkpt>
      <trkpt lat="44.02796" lon="2.02393">
        <ele>280</ele>
        <time>2011-03-26T14:44:29Z</time>
      </trkpt>
      <trkpt lat="44.02799" lon="2.02388">
        <ele>280</ele>
        <time>2011-03-26T14:44:30Z</time>
      </trkpt>
      <trkpt lat="44.02803" lon="2.02382">
        <ele>280</ele>
        <time>2011-03-26T14:44:31Z</time>
      </trkpt>
      <trkpt lat="44.02807" lon="2.02375">
        <ele>280</ele>
        <time>2011-03-26T14:44:32Z</time>
      </trkpt>
      <trkpt lat="44.02811" lon="2.02368">
        <ele>273</ele>
        <time>2011-03-26T14:44:33Z</time>
      </trkpt>
      <trkpt lat="44.02816" lon="2.02361">
        <ele>273</ele>
        <time>2011-03-26T14:44:34Z</time>
      </trkpt>
      <trkpt lat="44.02822" lon="2.02353">
        <ele>273</ele>
        <time>2011-03-26T14:44:35Z</time>
      </trkpt>
      <trkpt lat="44.02827" lon="2.02345">
        <ele>273</ele>
        <time>2011-03-26T14:44:36Z</time>
      </trkpt>
      <trkpt lat="44.02833" lon="2.02337">
        <ele>273</ele>
        <time>2011-03-26T14:44:37Z</time>
      </trkpt>
      <trkpt lat="44.02839" lon="2.02328">
        <ele>273</ele>
        <time>2011-03-26T14:44:38Z</time>
      </trkpt>
      <trkpt lat="44.02845" lon="2.02319">
        <ele>273</ele>
        <time>2011-03-26T14:44:39Z</time>
      </trkpt>
      <trkpt lat="44.02851" lon="2.02308">
        <ele>273</ele>
        <time>2011-03-26T14:44:40Z</time>
      </trkpt>
      <trkpt lat="44.02857" lon="2.02298">
        <ele>273</ele>
        <time>2011-03-26T14:44:41Z</time>
      </trkpt>
      <trkpt lat="44.02864" lon="2.02287">
        <ele>263</ele>
        <time>2011-03-26T14:44:42Z</time>
      </trkpt>
      <trkpt lat="44.0287" lon="2.02276">
        <ele>263</ele>
        <time>2011-03-26T14:44:43Z</time>
      </trkpt>
      <trkpt lat="44.02876" lon="2.02264">
        <ele>273</ele>
        <time>2011-03-26T14:44:44Z</time>
      </trkpt>
      <trkpt lat="44.02882" lon="2.02253">
        <ele>273</ele>
        <time>2011-03-26T14:44:45Z</time>
      </trkpt>
      <trkpt lat="44.02885" lon="2.0224">
        <ele>273</ele>
        <time>2011-03-26T14:44:46Z</time>
      </trkpt>
      <trkpt lat="44.02888" lon="2.02228">
        <ele>273</ele>
        <time>2011-03-26T14:44:47Z</time>
      </trkpt>
      <trkpt lat="44.02895" lon="2.02219">
        <ele>273</ele>
        <time>2011-03-26T14:44:48Z</time>
      </trkpt>
      <trkpt lat="44.02901" lon="2.0221">
        <ele>273</ele>
        <time>2011-03-26T14:44:49Z</time>
      </trkpt>
      <trkpt lat="44.02908" lon="2.02204">
        <ele>263</ele>
        <time>2011-03-26T14:44:50Z</time>
      </trkpt>
      <trkpt lat="44.02915" lon="2.02198">
        <ele>263</ele>
        <time>2011-03-26T14:44:51Z</time>
      </trkpt>
      <trkpt lat="44.02923" lon="2.02193">
        <ele>263</ele>
        <time>2011-03-26T14:44:52Z</time>
      </trkpt>
      <trkpt lat="44.02929" lon="2.02188">
        <ele>263</ele>
        <time>2011-03-26T14:44:53Z</time>
      </trkpt>
      <trkpt lat="44.02936" lon="2.02184">
        <ele>263</ele>
        <time>2011-03-26T14:44:54Z</time>
      </trkpt>
      <trkpt lat="44.02942" lon="2.02181">
        <ele>263</ele>
        <time>2011-03-26T14:44:55Z</time>
      </trkpt>
      <trkpt lat="44.02948" lon="2.02177">
        <ele>263</ele>
        <time>2011-03-26T14:44:56Z</time>
      </trkpt>
      <trkpt lat="44.02953" lon="2.02174">
        <ele>263</ele>
        <time>2011-03-26T14:44:57Z</time>
      </trkpt>
      <trkpt lat="44.02959" lon="2.02169">
        <ele>271</ele>
        <time>2011-03-26T14:44:58Z</time>
      </trkpt>
      <trkpt lat="44.02963" lon="2.02162">
        <ele>271</ele>
        <time>2011-03-26T14:44:59Z</time>
      </trkpt>
      <trkpt lat="44.02968" lon="2.02155">
        <ele>271</ele>
        <time>2011-03-26T14:45:00Z</time>
      </trkpt>
      <trkpt lat="44.02972" lon="2.02149">
        <ele>271</ele>
        <time>2011-03-26T14:45:01Z</time>
      </trkpt>
      <trkpt lat="44.02977" lon="2.02142">
        <ele>271</ele>
        <time>2011-03-26T14:45:02Z</time>
      </trkpt>
      <trkpt lat="44.02982" lon="2.02137">
        <ele>271</ele>
        <time>2011-03-26T14:45:03Z</time>
      </trkpt>
      <trkpt lat="44.02987" lon="2.02132">
        <ele>271</ele>
        <time>2011-03-26T14:45:04Z</time>
      </trkpt>
      <trkpt lat="44.02993" lon="2.02129">
        <ele>271</ele>
        <time>2011-03-26T14:45:05Z</time>
      </trkpt>
      <trkpt lat="44.02998" lon="2.02127">
        <ele>271</ele>
        <time>2011-03-26T14:45:06Z</time>
      </trkpt>
      <trkpt lat="44.03004" lon="2.02125">
        <ele>268</ele>
        <time>2011-03-26T14:45:07Z</time>
      </trkpt>
      <trkpt lat="44.03009" lon="2.02121">
        <ele>268</ele>
        <time>2011-03-26T14:45:08Z</time>
      </trkpt>
      <trkpt lat="44.03013" lon="2.02117">
        <ele>268</ele>
        <time>2011-03-26T14:45:09Z</time>
      </trkpt>
      <trkpt lat="44.03017" lon="2.02113">
        <ele>268</ele>
        <time>2011-03-26T14:45:10Z</time>
      </trkpt>
      <trkpt lat="44.03022" lon="2.02109">
        <ele>268</ele>
        <time>2011-03-26T14:45:11Z</time>
      </trkpt>
      <trkpt lat="44.03026" lon="2.02106">
        <ele>268</ele>
        <time>2011-03-26T14:45:12Z</time>
      </trkpt>
      <trkpt lat="44.03029" lon="2.02103">
        <ele>268</ele>
        <time>2011-03-26T14:45:13Z</time>
      </trkpt>
      <trkpt lat="44.03033" lon="2.021">
        <ele>268</ele>
        <time>2011-03-26T14:45:14Z</time>
      </trkpt>
      <trkpt lat="44.03037" lon="2.02097">
        <ele>268</ele>
        <time>2011-03-26T14:45:15Z</time>
      </trkpt>
      <trkpt lat="44.03041" lon="2.02094">
        <ele>268</ele>
        <time>2011-03-26T14:45:16Z</time>
      </trkpt>
      <trkpt lat="44.03044" lon="2.02092">
        <ele>268</ele>
        <time>2011-03-26T14:45:17Z</time>
      </trkpt>
      <trkpt lat="44.03047" lon="2.02091">
        <ele>268</ele>
        <time>2011-03-26T14:45:18Z</time>
      </trkpt>
      <trkpt lat="44.03051" lon="2.02088">
        <ele>268</ele>
        <time>2011-03-26T14:45:19Z</time>
      </trkpt>
      <trkpt lat="44.03055" lon="2.02083">
        <ele>268</ele>
        <time>2011-03-26T14:45:20Z</time>
      </trkpt>
      <trkpt lat="44.03059" lon="2.02078">
        <ele>268</ele>
        <time>2011-03-26T14:45:21Z</time>
      </trkpt>
      <trkpt lat="44.03062" lon="2.02072">
        <ele>268</ele>
        <time>2011-03-26T14:45:22Z</time>
      </trkpt>
      <trkpt lat="44.03063" lon="2.02064">
        <ele>268</ele>
        <time>2011-03-26T14:45:23Z</time>
      </trkpt>
      <trkpt lat="44.03064" lon="2.02057">
        <ele>268</ele>
        <time>2011-03-26T14:45:24Z</time>
      </trkpt>
      <trkpt lat="44.03064" lon="2.02049">
        <ele>268</ele>
        <time>2011-03-26T14:45:25Z</time>
      </trkpt>
      <trkpt lat="44.03066" lon="2.02043">
        <ele>268</ele>
        <time>2011-03-26T14:45:27Z</time>
      </trkpt>
      <trkpt lat="44.03067" lon="2.02038">
        <ele>273</ele>
        <time>2011-03-26T14:45:28Z</time>
      </trkpt>
      <trkpt lat="44.03069" lon="2.02033">
        <ele>273</ele>
        <time>2011-03-26T14:45:29Z</time>
      </trkpt>
      <trkpt lat="44.03071" lon="2.02029">
        <ele>273</ele>
        <time>2011-03-26T14:45:30Z</time>
      </trkpt>
      <trkpt lat="44.03072" lon="2.02024">
        <ele>273</ele>
        <time>2011-03-26T14:45:31Z</time>
      </trkpt>
      <trkpt lat="44.03074" lon="2.0202">
        <ele>273</ele>
        <time>2011-03-26T14:45:32Z</time>
      </trkpt>
      <trkpt lat="44.03075" lon="2.02015">
        <ele>273</ele>
        <time>2011-03-26T14:45:33Z</time>
      </trkpt>
      <trkpt lat="44.03077" lon="2.02011">
        <ele>273</ele>
        <time>2011-03-26T14:45:34Z</time>
      </trkpt>
      <trkpt lat="44.03079" lon="2.02006">
        <ele>273</ele>
        <time>2011-03-26T14:45:35Z</time>
      </trkpt>
      <trkpt lat="44.0308" lon="2.02002">
        <ele>273</ele>
        <time>2011-03-26T14:45:36Z</time>
      </trkpt>
      <trkpt lat="44.03082" lon="2.01998">
        <ele>273</ele>
        <time>2011-03-26T14:45:37Z</time>
      </trkpt>
      <trkpt lat="44.03084" lon="2.01994">
        <ele>273</ele>
        <time>2011-03-26T14:45:38Z</time>
      </trkpt>
      <trkpt lat="44.03085" lon="2.01991">
        <ele>273</ele>
        <time>2011-03-26T14:45:39Z</time>
      </trkpt>
      <trkpt lat="44.03087" lon="2.01987">
        <ele>273</ele>
        <time>2011-03-26T14:45:40Z</time>
      </trkpt>
      <trkpt lat="44.03088" lon="2.01984">
        <ele>273</ele>
        <time>2011-03-26T14:45:41Z</time>
      </trkpt>
      <trkpt lat="44.0309" lon="2.0198">
        <ele>273</ele>
        <time>2011-03-26T14:45:42Z</time>
      </trkpt>
      <trkpt lat="44.03091" lon="2.01977">
        <ele>273</ele>
        <time>2011-03-26T14:45:43Z</time>
      </trkpt>
      <trkpt lat="44.03093" lon="2.01973">
        <ele>273</ele>
        <time>2011-03-26T14:45:44Z</time>
      </trkpt>
      <trkpt lat="44.03095" lon="2.0197">
        <ele>273</ele>
        <time>2011-03-26T14:45:45Z</time>
      </trkpt>
      <trkpt lat="44.03096" lon="2.01967">
        <ele>273</ele>
        <time>2011-03-26T14:45:46Z</time>
      </trkpt>
      <trkpt lat="44.03098" lon="2.01964">
        <ele>273</ele>
        <time>2011-03-26T14:45:47Z</time>
      </trkpt>
      <trkpt lat="44.031" lon="2.0196">
        <ele>273</ele>
        <time>2011-03-26T14:45:48Z</time>
      </trkpt>
      <trkpt lat="44.03101" lon="2.01957">
        <ele>276</ele>
        <time>2011-03-26T14:45:49Z</time>
      </trkpt>
      <trkpt lat="44.03103" lon="2.01954">
        <ele>276</ele>
        <time>2011-03-26T14:45:50Z</time>
      </trkpt>
      <trkpt lat="44.03104" lon="2.0195">
        <ele>276</ele>
        <time>2011-03-26T14:45:51Z</time>
      </trkpt>
      <trkpt lat="44.03105" lon="2.01946">
        <ele>276</ele>
        <time>2011-03-26T14:45:52Z</time>
      </trkpt>
      <trkpt lat="44.03107" lon="2.01943">
        <ele>276</ele>
        <time>2011-03-26T14:45:53Z</time>
      </trkpt>
      <trkpt lat="44.03108" lon="2.01939">
        <ele>276</ele>
        <time>2011-03-26T14:45:54Z</time>
      </trkpt>
      <trkpt lat="44.03109" lon="2.01935">
        <ele>276</ele>
        <time>2011-03-26T14:45:55Z</time>
      </trkpt>
      <trkpt lat="44.03111" lon="2.01931">
        <ele>276</ele>
        <time>2011-03-26T14:45:56Z</time>
      </trkpt>
      <trkpt lat="44.03112" lon="2.01927">
        <ele>276</ele>
        <time>2011-03-26T14:45:57Z</time>
      </trkpt>
      <trkpt lat="44.03113" lon="2.01923">
        <ele>276</ele>
        <time>2011-03-26T14:45:58Z</time>
      </trkpt>
      <trkpt lat="44.03114" lon="2.01919">
        <ele>276</ele>
        <time>2011-03-26T14:45:59Z</time>
      </trkpt>
      <trkpt lat="44.03115" lon="2.01915">
        <ele>276</ele>
        <time>2011-03-26T14:46:00Z</time>
      </trkpt>
      <trkpt lat="44.03116" lon="2.01911">
        <ele>276</ele>
        <time>2011-03-26T14:46:01Z</time>
      </trkpt>
      <trkpt lat="44.03118" lon="2.01907">
        <ele>276</ele>
        <time>2011-03-26T14:46:02Z</time>
      </trkpt>
      <trkpt lat="44.03119" lon="2.01903">
        <ele>276</ele>
        <time>2011-03-26T14:46:03Z</time>
      </trkpt>
      <trkpt lat="44.0312" lon="2.019">
        <ele>276</ele>
        <time>2011-03-26T14:46:04Z</time>
      </trkpt>
      <trkpt lat="44.03122" lon="2.01896">
        <ele>276</ele>
        <time>2011-03-26T14:46:05Z</time>
      </trkpt>
      <trkpt lat="44.03123" lon="2.01892">
        <ele>276</ele>
        <time>2011-03-26T14:46:06Z</time>
      </trkpt>
      <trkpt lat="44.03125" lon="2.01888">
        <ele>282</ele>
        <time>2011-03-26T14:46:07Z</time>
      </trkpt>
      <trkpt lat="44.03127" lon="2.01884">
        <ele>282</ele>
        <time>2011-03-26T14:46:08Z</time>
      </trkpt>
      <trkpt lat="44.03129" lon="2.0188">
        <ele>282</ele>
        <time>2011-03-26T14:46:09Z</time>
      </trkpt>
      <trkpt lat="44.0313" lon="2.01877">
        <ele>282</ele>
        <time>2011-03-26T14:46:10Z</time>
      </trkpt>
      <trkpt lat="44.03132" lon="2.01873">
        <ele>279</ele>
        <time>2011-03-26T14:46:11Z</time>
      </trkpt>
      <trkpt lat="44.03134" lon="2.01869">
        <ele>279</ele>
        <time>2011-03-26T14:46:12Z</time>
      </trkpt>
      <trkpt lat="44.03136" lon="2.01866">
        <ele>279</ele>
        <time>2011-03-26T14:46:13Z</time>
      </trkpt>
      <trkpt lat="44.03137" lon="2.01862">
        <ele>279</ele>
        <time>2011-03-26T14:46:14Z</time>
      </trkpt>
      <trkpt lat="44.03139" lon="2.01858">
        <ele>279</ele>
        <time>2011-03-26T14:46:15Z</time>
      </trkpt>
      <trkpt lat="44.0314" lon="2.01854">
        <ele>279</ele>
        <time>2011-03-26T14:46:16Z</time>
      </trkpt>
      <trkpt lat="44.03141" lon="2.0185">
        <ele>279</ele>
        <time>2011-03-26T14:46:17Z</time>
      </trkpt>
      <trkpt lat="44.03143" lon="2.01846">
        <ele>279</ele>
        <time>2011-03-26T14:46:18Z</time>
      </trkpt>
      <trkpt lat="44.03144" lon="2.01842">
        <ele>279</ele>
        <time>2011-03-26T14:46:19Z</time>
      </trkpt>
      <trkpt lat="44.03145" lon="2.01837">
        <ele>279</ele>
        <time>2011-03-26T14:46:20Z</time>
      </trkpt>
      <trkpt lat="44.03146" lon="2.01834">
        <ele>279</ele>
        <time>2011-03-26T14:46:21Z</time>
      </trkpt>
      <trkpt lat="44.03147" lon="2.01829">
        <ele>279</ele>
        <time>2011-03-26T14:46:22Z</time>
      </trkpt>
      <trkpt lat="44.03148" lon="2.01825">
        <ele>279</ele>
        <time>2011-03-26T14:46:23Z</time>
      </trkpt>
      <trkpt lat="44.03149" lon="2.0182">
        <ele>279</ele>
        <time>2011-03-26T14:46:24Z</time>
      </trkpt>
      <trkpt lat="44.0315" lon="2.01816">
        <ele>279</ele>
        <time>2011-03-26T14:46:25Z</time>
      </trkpt>
      <trkpt lat="44.03151" lon="2.01812">
        <ele>279</ele>
        <time>2011-03-26T14:46:26Z</time>
      </trkpt>
      <trkpt lat="44.03152" lon="2.01808">
        <ele>279</ele>
        <time>2011-03-26T14:46:27Z</time>
      </trkpt>
      <trkpt lat="44.03153" lon="2.01804">
        <ele>279</ele>
        <time>2011-03-26T14:46:28Z</time>
      </trkpt>
      <trkpt lat="44.03154" lon="2.01799">
        <ele>279</ele>
        <time>2011-03-26T14:46:29Z</time>
      </trkpt>
      <trkpt lat="44.03155" lon="2.01795">
        <ele>279</ele>
        <time>2011-03-26T14:46:30Z</time>
      </trkpt>
      <trkpt lat="44.03156" lon="2.01791">
        <ele>279</ele>
        <time>2011-03-26T14:46:31Z</time>
      </trkpt>
      <trkpt lat="44.03157" lon="2.01787">
        <ele>279</ele>
        <time>2011-03-26T14:46:32Z</time>
      </trkpt>
      <trkpt lat="44.03159" lon="2.01783">
        <ele>279</ele>
        <time>2011-03-26T14:46:33Z</time>
      </trkpt>
      <trkpt lat="44.0316" lon="2.01779">
        <ele>279</ele>
        <time>2011-03-26T14:46:34Z</time>
      </trkpt>
      <trkpt lat="44.03161" lon="2.01775">
        <ele>279</ele>
        <time>2011-03-26T14:46:35Z</time>
      </trkpt>
      <trkpt lat="44.03163" lon="2.01771">
        <ele>279</ele>
        <time>2011-03-26T14:46:36Z</time>
      </trkpt>
      <trkpt lat="44.03164" lon="2.01767">
        <ele>279</ele>
        <time>2011-03-26T14:46:37Z</time>
      </trkpt>
      <trkpt lat="44.03166" lon="2.01763">
        <ele>279</ele>
        <time>2011-03-26T14:46:38Z</time>
      </trkpt>
      <trkpt lat="44.03167" lon="2.0176">
        <ele>279</ele>
        <time>2011-03-26T14:46:39Z</time>
      </trkpt>
      <trkpt lat="44.03169" lon="2.01756">
        <ele>279</ele>
        <time>2011-03-26T14:46:40Z</time>
      </trkpt>
      <trkpt lat="44.0317" lon="2.01753">
        <ele>279</ele>
        <time>2011-03-26T14:46:41Z</time>
      </trkpt>
      <trkpt lat="44.03171" lon="2.0175">
        <ele>279</ele>
        <time>2011-03-26T14:46:42Z</time>
      </trkpt>
      <trkpt lat="44.03173" lon="2.01746">
        <ele>279</ele>
        <time>2011-03-26T14:46:43Z</time>
      </trkpt>
      <trkpt lat="44.03174" lon="2.01742">
        <ele>279</ele>
        <time>2011-03-26T14:46:44Z</time>
      </trkpt>
      <trkpt lat="44.03176" lon="2.01739">
        <ele>279</ele>
        <time>2011-03-26T14:46:45Z</time>
      </trkpt>
      <trkpt lat="44.03177" lon="2.01735">
        <ele>279</ele>
        <time>2011-03-26T14:46:46Z</time>
      </trkpt>
      <trkpt lat="44.03179" lon="2.01731">
        <ele>279</ele>
        <time>2011-03-26T14:46:47Z</time>
      </trkpt>
      <trkpt lat="44.0318" lon="2.01728">
        <ele>279</ele>
        <time>2011-03-26T14:46:48Z</time>
      </trkpt>
      <trkpt lat="44.03182" lon="2.01724">
        <ele>279</ele>
        <time>2011-03-26T14:46:49Z</time>
      </trkpt>
      <trkpt lat="44.03183" lon="2.0172">
        <ele>279</ele>
        <time>2011-03-26T14:46:50Z</time>
      </trkpt>
      <trkpt lat="44.03184" lon="2.01716">
        <ele>279</ele>
        <time>2011-03-26T14:46:51Z</time>
      </trkpt>
      <trkpt lat="44.03186" lon="2.01711">
        <ele>279</ele>
        <time>2011-03-26T14:46:52Z</time>
      </trkpt>
      <trkpt lat="44.03187" lon="2.01707">
        <ele>281</ele>
        <time>2011-03-26T14:46:53Z</time>
      </trkpt>
      <trkpt lat="44.03188" lon="2.01704">
        <ele>281</ele>
        <time>2011-03-26T14:46:54Z</time>
      </trkpt>
      <trkpt lat="44.0319" lon="2.017">
        <ele>281</ele>
        <time>2011-03-26T14:46:55Z</time>
      </trkpt>
      <trkpt lat="44.03191" lon="2.01696">
        <ele>281</ele>
        <time>2011-03-26T14:46:56Z</time>
      </trkpt>
      <trkpt lat="44.03192" lon="2.01692">
        <ele>281</ele>
        <time>2011-03-26T14:46:57Z</time>
      </trkpt>
      <trkpt lat="44.03194" lon="2.01688">
        <ele>281</ele>
        <time>2011-03-26T14:46:58Z</time>
      </trkpt>
      <trkpt lat="44.03195" lon="2.01685">
        <ele>281</ele>
        <time>2011-03-26T14:46:59Z</time>
      </trkpt>
      <trkpt lat="44.03197" lon="2.01681">
        <ele>281</ele>
        <time>2011-03-26T14:47:00Z</time>
      </trkpt>
      <trkpt lat="44.03198" lon="2.01678">
        <ele>281</ele>
        <time>2011-03-26T14:47:01Z</time>
      </trkpt>
      <trkpt lat="44.032" lon="2.01674">
        <ele>281</ele>
        <time>2011-03-26T14:47:02Z</time>
      </trkpt>
      <trkpt lat="44.03201" lon="2.01671">
        <ele>281</ele>
        <time>2011-03-26T14:47:03Z</time>
      </trkpt>
      <trkpt lat="44.03203" lon="2.01668">
        <ele>281</ele>
        <time>2011-03-26T14:47:04Z</time>
      </trkpt>
      <trkpt lat="44.03204" lon="2.01665">
        <ele>281</ele>
        <time>2011-03-26T14:47:05Z</time>
      </trkpt>
      <trkpt lat="44.03205" lon="2.0166">
        <ele>281</ele>
        <time>2011-03-26T14:47:07Z</time>
      </trkpt>
      <trkpt lat="44.03205" lon="2.01658">
        <ele>281</ele>
        <time>2011-03-26T14:47:08Z</time>
      </trkpt>
      <trkpt lat="44.03208" lon="2.01655">
        <ele>281</ele>
        <time>2011-03-26T14:47:10Z</time>
      </trkpt>
      <trkpt lat="44.03211" lon="2.01656">
        <ele>287</ele>
        <time>2011-03-26T14:47:12Z</time>
      </trkpt>
      <trkpt lat="44.03213" lon="2.01658">
        <ele>287</ele>
        <time>2011-03-26T14:47:14Z</time>
      </trkpt>
      <trkpt lat="44.03214" lon="2.01661">
        <ele>287</ele>
        <time>2011-03-26T14:47:16Z</time>
      </trkpt>
      <trkpt lat="44.03217" lon="2.01664">
        <ele>287</ele>
        <time>2011-03-26T14:47:19Z</time>
      </trkpt>
      <trkpt lat="44.03219" lon="2.01666">
        <ele>287</ele>
        <time>2011-03-26T14:47:21Z</time>
      </trkpt>
      <trkpt lat="44.03221" lon="2.01668">
        <ele>287</ele>
        <time>2011-03-26T14:47:23Z</time>
      </trkpt>
      <trkpt lat="44.03223" lon="2.0167">
        <ele>287</ele>
        <time>2011-03-26T14:47:25Z</time>
      </trkpt>
      <trkpt lat="44.03225" lon="2.01672">
        <ele>287</ele>
        <time>2011-03-26T14:47:27Z</time>
      </trkpt>
      <trkpt lat="44.03227" lon="2.01673">
        <ele>287</ele>
        <time>2011-03-26T14:47:29Z</time>
      </trkpt>
      <trkpt lat="44.0323" lon="2.01675">
        <ele>287</ele>
        <time>2011-03-26T14:47:31Z</time>
      </trkpt>
      <trkpt lat="44.03232" lon="2.01676">
        <ele>287</ele>
        <time>2011-03-26T14:47:33Z</time>
      </trkpt>
      <trkpt lat="44.03237" lon="2.01679">
        <ele>287</ele>
        <time>2011-03-26T14:47:36Z</time>
      </trkpt>
      <trkpt lat="44.03239" lon="2.01681">
        <ele>287</ele>
        <time>2011-03-26T14:47:38Z</time>
      </trkpt>
      <trkpt lat="44.03243" lon="2.01682">
        <ele>287</ele>
        <time>2011-03-26T14:47:41Z</time>
      </trkpt>
      <trkpt lat="44.03246" lon="2.01684">
        <ele>287</ele>
        <time>2011-03-26T14:47:44Z</time>
      </trkpt>
      <trkpt lat="44.03248" lon="2.01686">
        <ele>287</ele>
        <time>2011-03-26T14:47:46Z</time>
      </trkpt>
      <trkpt lat="44.0325" lon="2.01688">
        <ele>287</ele>
        <time>2011-03-26T14:47:48Z</time>
      </trkpt>
      <trkpt lat="44.03251" lon="2.0169">
        <ele>287</ele>
        <time>2011-03-26T14:47:50Z</time>
      </trkpt>
      <trkpt lat="44.03253" lon="2.01693">
        <ele>287</ele>
        <time>2011-03-26T14:47:51Z</time>
      </trkpt>
      <trkpt lat="44.03254" lon="2.01695">
        <ele>287</ele>
        <time>2011-03-26T14:47:52Z</time>
      </trkpt>
      <trkpt lat="44.03256" lon="2.01698">
        <ele>287</ele>
        <time>2011-03-26T14:47:54Z</time>
      </trkpt>
      <trkpt lat="44.03258" lon="2.017">
        <ele>287</ele>
        <time>2011-03-26T14:47:56Z</time>
      </trkpt>
      <trkpt lat="44.03261" lon="2.01703">
        <ele>287</ele>
        <time>2011-03-26T14:47:58Z</time>
      </trkpt>
      <trkpt lat="44.03264" lon="2.01705">
        <ele>287</ele>
        <time>2011-03-26T14:48:00Z</time>
      </trkpt>
      <trkpt lat="44.03267" lon="2.01707">
        <ele>287</ele>
        <time>2011-03-26T14:48:02Z</time>
      </trkpt>
      <trkpt lat="44.03269" lon="2.01709">
        <ele>287</ele>
        <time>2011-03-26T14:48:04Z</time>
      </trkpt>
      <trkpt lat="44.03273" lon="2.0171">
        <ele>287</ele>
        <time>2011-03-26T14:48:06Z</time>
      </trkpt>
      <trkpt lat="44.03276" lon="2.01709">
        <ele>287</ele>
        <time>2011-03-26T14:48:08Z</time>
      </trkpt>
      <trkpt lat="44.03279" lon="2.01706">
        <ele>287</ele>
        <time>2011-03-26T14:48:10Z</time>
      </trkpt>
      <trkpt lat="44.0328" lon="2.01703">
        <ele>287</ele>
        <time>2011-03-26T14:48:11Z</time>
      </trkpt>
      <trkpt lat="44.03282" lon="2.01699">
        <ele>287</ele>
        <time>2011-03-26T14:48:13Z</time>
      </trkpt>
      <trkpt lat="44.03285" lon="2.01695">
        <ele>287</ele>
        <time>2011-03-26T14:48:15Z</time>
      </trkpt>
      <trkpt lat="44.03288" lon="2.01692">
        <ele>287</ele>
        <time>2011-03-26T14:48:17Z</time>
      </trkpt>
      <trkpt lat="44.03292" lon="2.01693">
        <ele>291</ele>
        <time>2011-03-26T14:48:19Z</time>
      </trkpt>
      <trkpt lat="44.03297" lon="2.01695">
        <ele>291</ele>
        <time>2011-03-26T14:48:21Z</time>
      </trkpt>
      <trkpt lat="44.03299" lon="2.01696">
        <ele>291</ele>
        <time>2011-03-26T14:48:22Z</time>
      </trkpt>
      <trkpt lat="44.03301" lon="2.01697">
        <ele>291</ele>
        <time>2011-03-26T14:48:23Z</time>
      </trkpt>
      <trkpt lat="44.03303" lon="2.01699">
        <ele>291</ele>
        <time>2011-03-26T14:48:24Z</time>
      </trkpt>
      <trkpt lat="44.03305" lon="2.01701">
        <ele>291</ele>
        <time>2011-03-26T14:48:25Z</time>
      </trkpt>
      <trkpt lat="44.03307" lon="2.01704">
        <ele>291</ele>
        <time>2011-03-26T14:48:26Z</time>
      </trkpt>
      <trkpt lat="44.03308" lon="2.01706">
        <ele>291</ele>
        <time>2011-03-26T14:48:27Z</time>
      </trkpt>
      <trkpt lat="44.0331" lon="2.01708">
        <ele>291</ele>
        <time>2011-03-26T14:48:28Z</time>
      </trkpt>
      <trkpt lat="44.03312" lon="2.0171">
        <ele>293</ele>
        <time>2011-03-26T14:48:29Z</time>
      </trkpt>
      <trkpt lat="44.03314" lon="2.01713">
        <ele>293</ele>
        <time>2011-03-26T14:48:30Z</time>
      </trkpt>
      <trkpt lat="44.03316" lon="2.01715">
        <ele>293</ele>
        <time>2011-03-26T14:48:31Z</time>
      </trkpt>
      <trkpt lat="44.03318" lon="2.01717">
        <ele>293</ele>
        <time>2011-03-26T14:48:32Z</time>
      </trkpt>
      <trkpt lat="44.03319" lon="2.0172">
        <ele>293</ele>
        <time>2011-03-26T14:48:33Z</time>
      </trkpt>
      <trkpt lat="44.03321" lon="2.01722">
        <ele>293</ele>
        <time>2011-03-26T14:48:34Z</time>
      </trkpt>
      <trkpt lat="44.03323" lon="2.01725">
        <ele>293</ele>
        <time>2011-03-26T14:48:35Z</time>
      </trkpt>
      <trkpt lat="44.03325" lon="2.01727">
        <ele>293</ele>
        <time>2011-03-26T14:48:36Z</time>
      </trkpt>
      <trkpt lat="44.03327" lon="2.01729">
        <ele>293</ele>
        <time>2011-03-26T14:48:37Z</time>
      </trkpt>
      <trkpt lat="44.03329" lon="2.01731">
        <ele>293</ele>
        <time>2011-03-26T14:48:38Z</time>
      </trkpt>
      <trkpt lat="44.03331" lon="2.01734">
        <ele>293</ele>
        <time>2011-03-26T14:48:39Z</time>
      </trkpt>
      <trkpt lat="44.03333" lon="2.01736">
        <ele>293</ele>
        <time>2011-03-26T14:48:40Z</time>
      </trkpt>
      <trkpt lat="44.03336" lon="2.01738">
        <ele>293</ele>
        <time>2011-03-26T14:48:41Z</time>
      </trkpt>
      <trkpt lat="44.03338" lon="2.0174">
        <ele>293</ele>
        <time>2011-03-26T14:48:43Z</time>
      </trkpt>
      <trkpt lat="44.0334" lon="2.01742">
        <ele>293</ele>
        <time>2011-03-26T14:48:44Z</time>
      </trkpt>
      <trkpt lat="44.03342" lon="2.01744">
        <ele>293</ele>
        <time>2011-03-26T14:48:45Z</time>
      </trkpt>
      <trkpt lat="44.03345" lon="2.01746">
        <ele>293</ele>
        <time>2011-03-26T14:48:46Z</time>
      </trkpt>
      <trkpt lat="44.03347" lon="2.01748">
        <ele>293</ele>
        <time>2011-03-26T14:48:47Z</time>
      </trkpt>
      <trkpt lat="44.03349" lon="2.0175">
        <ele>293</ele>
        <time>2011-03-26T14:48:48Z</time>
      </trkpt>
      <trkpt lat="44.03351" lon="2.01752">
        <ele>293</ele>
        <time>2011-03-26T14:48:49Z</time>
      </trkpt>
      <trkpt lat="44.03354" lon="2.01754">
        <ele>293</ele>
        <time>2011-03-26T14:48:50Z</time>
      </trkpt>
      <trkpt lat="44.03356" lon="2.01756">
        <ele>293</ele>
        <time>2011-03-26T14:48:51Z</time>
      </trkpt>
      <trkpt lat="44.03358" lon="2.01758">
        <ele>293</ele>
        <time>2011-03-26T14:48:52Z</time>
      </trkpt>
      <trkpt lat="44.03361" lon="2.01761">
        <ele>293</ele>
        <time>2011-03-26T14:48:53Z</time>
      </trkpt>
      <trkpt lat="44.03363" lon="2.01763">
        <ele>293</ele>
        <time>2011-03-26T14:48:54Z</time>
      </trkpt>
      <trkpt lat="44.03366" lon="2.01765">
        <ele>293</ele>
        <time>2011-03-26T14:48:55Z</time>
      </trkpt>
      <trkpt lat="44.03368" lon="2.01767">
        <ele>293</ele>
        <time>2011-03-26T14:48:56Z</time>
      </trkpt>
      <trkpt lat="44.0337" lon="2.01769">
        <ele>293</ele>
        <time>2011-03-26T14:48:57Z</time>
      </trkpt>
      <trkpt lat="44.03373" lon="2.01771">
        <ele>293</ele>
        <time>2011-03-26T14:48:58Z</time>
      </trkpt>
      <trkpt lat="44.03375" lon="2.01773">
        <ele>295</ele>
        <time>2011-03-26T14:48:59Z</time>
      </trkpt>
      <trkpt lat="44.03378" lon="2.01776">
        <ele>295</ele>
        <time>2011-03-26T14:49:00Z</time>
      </trkpt>
      <trkpt lat="44.03381" lon="2.01778">
        <ele>295</ele>
        <time>2011-03-26T14:49:01Z</time>
      </trkpt>
      <trkpt lat="44.03384" lon="2.0178">
        <ele>295</ele>
        <time>2011-03-26T14:49:02Z</time>
      </trkpt>
      <trkpt lat="44.03387" lon="2.01782">
        <ele>295</ele>
        <time>2011-03-26T14:49:03Z</time>
      </trkpt>
      <trkpt lat="44.03389" lon="2.01784">
        <ele>295</ele>
        <time>2011-03-26T14:49:04Z</time>
      </trkpt>
      <trkpt lat="44.03392" lon="2.01786">
        <ele>295</ele>
        <time>2011-03-26T14:49:05Z</time>
      </trkpt>
      <trkpt lat="44.03394" lon="2.01788">
        <ele>295</ele>
        <time>2011-03-26T14:49:06Z</time>
      </trkpt>
      <trkpt lat="44.03397" lon="2.01791">
        <ele>295</ele>
        <time>2011-03-26T14:49:07Z</time>
      </trkpt>
      <trkpt lat="44.03399" lon="2.01794">
        <ele>291</ele>
        <time>2011-03-26T14:49:08Z</time>
      </trkpt>
      <trkpt lat="44.03402" lon="2.01796">
        <ele>291</ele>
        <time>2011-03-26T14:49:09Z</time>
      </trkpt>
      <trkpt lat="44.03405" lon="2.01799">
        <ele>291</ele>
        <time>2011-03-26T14:49:10Z</time>
      </trkpt>
      <trkpt lat="44.03408" lon="2.01802">
        <ele>291</ele>
        <time>2011-03-26T14:49:11Z</time>
      </trkpt>
      <trkpt lat="44.03411" lon="2.01805">
        <ele>291</ele>
        <time>2011-03-26T14:49:12Z</time>
      </trkpt>
      <trkpt lat="44.03415" lon="2.01808">
        <ele>291</ele>
        <time>2011-03-26T14:49:13Z</time>
      </trkpt>
      <trkpt lat="44.03419" lon="2.01811">
        <ele>291</ele>
        <time>2011-03-26T14:49:14Z</time>
      </trkpt>
      <trkpt lat="44.03423" lon="2.01814">
        <ele>291</ele>
        <time>2011-03-26T14:49:15Z</time>
      </trkpt>
      <trkpt lat="44.03426" lon="2.01817">
        <ele>291</ele>
        <time>2011-03-26T14:49:16Z</time>
      </trkpt>
      <trkpt lat="44.03431" lon="2.0182">
        <ele>291</ele>
        <time>2011-03-26T14:49:17Z</time>
      </trkpt>
      <trkpt lat="44.03435" lon="2.01824">
        <ele>291</ele>
        <time>2011-03-26T14:49:18Z</time>
      </trkpt>
      <trkpt lat="44.03439" lon="2.01827">
        <ele>291</ele>
        <time>2011-03-26T14:49:19Z</time>
      </trkpt>
      <trkpt lat="44.03443" lon="2.01831">
        <ele>291</ele>
        <time>2011-03-26T14:49:20Z</time>
      </trkpt>
      <trkpt lat="44.03447" lon="2.01835">
        <ele>291</ele>
        <time>2011-03-26T14:49:21Z</time>
      </trkpt>
      <trkpt lat="44.03452" lon="2.01839">
        <ele>291</ele>
        <time>2011-03-26T14:49:22Z</time>
      </trkpt>
      <trkpt lat="44.03456" lon="2.01843">
        <ele>291</ele>
        <time>2011-03-26T14:49:23Z</time>
      </trkpt>
      <trkpt lat="44.03461" lon="2.01847">
        <ele>292</ele>
        <time>2011-03-26T14:49:24Z</time>
      </trkpt>
      <trkpt lat="44.03465" lon="2.01851">
        <ele>292</ele>
        <time>2011-03-26T14:49:25Z</time>
      </trkpt>
      <trkpt lat="44.0347" lon="2.01855">
        <ele>292</ele>
        <time>2011-03-26T14:49:26Z</time>
      </trkpt>
      <trkpt lat="44.03474" lon="2.01859">
        <ele>292</ele>
        <time>2011-03-26T14:49:27Z</time>
      </trkpt>
      <trkpt lat="44.03479" lon="2.01863">
        <ele>292</ele>
        <time>2011-03-26T14:49:28Z</time>
      </trkpt>
      <trkpt lat="44.03483" lon="2.01867">
        <ele>292</ele>
        <time>2011-03-26T14:49:29Z</time>
      </trkpt>
      <trkpt lat="44.03487" lon="2.01871">
        <ele>292</ele>
        <time>2011-03-26T14:49:30Z</time>
      </trkpt>
      <trkpt lat="44.03491" lon="2.01874">
        <ele>292</ele>
        <time>2011-03-26T14:49:31Z</time>
      </trkpt>
      <trkpt lat="44.03495" lon="2.01878">
        <ele>288</ele>
        <time>2011-03-26T14:49:32Z</time>
      </trkpt>
      <trkpt lat="44.03499" lon="2.01881">
        <ele>288</ele>
        <time>2011-03-26T14:49:33Z</time>
      </trkpt>
      <trkpt lat="44.03502" lon="2.01884">
        <ele>288</ele>
        <time>2011-03-26T14:49:34Z</time>
      </trkpt>
      <trkpt lat="44.03506" lon="2.01887">
        <ele>288</ele>
        <time>2011-03-26T14:49:35Z</time>
      </trkpt>
      <trkpt lat="44.0351" lon="2.01891">
        <ele>288</ele>
        <time>2011-03-26T14:49:36Z</time>
      </trkpt>
      <trkpt lat="44.03513" lon="2.01894">
        <ele>288</ele>
        <time>2011-03-26T14:49:37Z</time>
      </trkpt>
      <trkpt lat="44.03516" lon="2.01897">
        <ele>288</ele>
        <time>2011-03-26T14:49:38Z</time>
      </trkpt>
      <trkpt lat="44.0352" lon="2.01901">
        <ele>288</ele>
        <time>2011-03-26T14:49:39Z</time>
      </trkpt>
      <trkpt lat="44.03523" lon="2.01903">
        <ele>288</ele>
        <time>2011-03-26T14:49:40Z</time>
      </trkpt>
      <trkpt lat="44.03527" lon="2.01906">
        <ele>288</ele>
        <time>2011-03-26T14:49:41Z</time>
      </trkpt>
      <trkpt lat="44.03531" lon="2.01908">
        <ele>288</ele>
        <time>2011-03-26T14:49:42Z</time>
      </trkpt>
      <trkpt lat="44.03534" lon="2.0191">
        <ele>288</ele>
        <time>2011-03-26T14:49:43Z</time>
      </trkpt>
      <trkpt lat="44.03538" lon="2.01911">
        <ele>288</ele>
        <time>2011-03-26T14:49:44Z</time>
      </trkpt>
      <trkpt lat="44.03542" lon="2.01913">
        <ele>291</ele>
        <time>2011-03-26T14:49:45Z</time>
      </trkpt>
      <trkpt lat="44.03546" lon="2.01915">
        <ele>291</ele>
        <time>2011-03-26T14:49:46Z</time>
      </trkpt>
      <trkpt lat="44.03549" lon="2.01916">
        <ele>291</ele>
        <time>2011-03-26T14:49:47Z</time>
      </trkpt>
      <trkpt lat="44.03553" lon="2.01917">
        <ele>291</ele>
        <time>2011-03-26T14:49:48Z</time>
      </trkpt>
      <trkpt lat="44.03559" lon="2.01919">
        <ele>291</ele>
        <time>2011-03-26T14:49:49Z</time>
      </trkpt>
      <trkpt lat="44.03561" lon="2.0192">
        <ele>291</ele>
        <time>2011-03-26T14:49:50Z</time>
      </trkpt>
      <trkpt lat="44.03565" lon="2.01921">
        <ele>291</ele>
        <time>2011-03-26T14:49:52Z</time>
      </trkpt>
      <trkpt lat="44.03568" lon="2.01922">
        <ele>291</ele>
        <time>2011-03-26T14:49:53Z</time>
      </trkpt>
      <trkpt lat="44.0357" lon="2.01924">
        <ele>291</ele>
        <time>2011-03-26T14:49:54Z</time>
      </trkpt>
      <trkpt lat="44.03572" lon="2.01926">
        <ele>291</ele>
        <time>2011-03-26T14:49:55Z</time>
      </trkpt>
      <trkpt lat="44.03575" lon="2.01927">
        <ele>291</ele>
        <time>2011-03-26T14:49:56Z</time>
      </trkpt>
      <trkpt lat="44.03578" lon="2.01928">
        <ele>291</ele>
        <time>2011-03-26T14:49:57Z</time>
      </trkpt>
      <trkpt lat="44.0358" lon="2.01928">
        <ele>291</ele>
        <time>2011-03-26T14:49:58Z</time>
      </trkpt>
      <trkpt lat="44.03582" lon="2.01929">
        <ele>291</ele>
        <time>2011-03-26T14:49:59Z</time>
      </trkpt>
      <trkpt lat="44.03584" lon="2.01931">
        <ele>291</ele>
        <time>2011-03-26T14:50:00Z</time>
      </trkpt>
      <trkpt lat="44.03586" lon="2.01932">
        <ele>291</ele>
        <time>2011-03-26T14:50:01Z</time>
      </trkpt>
      <trkpt lat="44.03589" lon="2.01935">
        <ele>291</ele>
        <time>2011-03-26T14:50:02Z</time>
      </trkpt>
      <trkpt lat="44.03591" lon="2.01938">
        <ele>291</ele>
        <time>2011-03-26T14:50:03Z</time>
      </trkpt>
      <trkpt lat="44.03594" lon="2.01942">
        <ele>291</ele>
        <time>2011-03-26T14:50:04Z</time>
      </trkpt>
      <trkpt lat="44.03598" lon="2.01943">
        <ele>291</ele>
        <time>2011-03-26T14:50:05Z</time>
      </trkpt>
      <trkpt lat="44.03602" lon="2.01943">
        <ele>291</ele>
        <time>2011-03-26T14:50:06Z</time>
      </trkpt>
      <trkpt lat="44.03606" lon="2.01941">
        <ele>291</ele>
        <time>2011-03-26T14:50:07Z</time>
      </trkpt>
      <trkpt lat="44.03611" lon="2.01938">
        <ele>291</ele>
        <time>2011-03-26T14:50:08Z</time>
      </trkpt>
      <trkpt lat="44.03616" lon="2.01933">
        <ele>291</ele>
        <time>2011-03-26T14:50:09Z</time>
      </trkpt>
      <trkpt lat="44.03621" lon="2.01929">
        <ele>291</ele>
        <time>2011-03-26T14:50:10Z</time>
      </trkpt>
      <trkpt lat="44.03626" lon="2.01924">
        <ele>291</ele>
        <time>2011-03-26T14:50:11Z</time>
      </trkpt>
      <trkpt lat="44.03632" lon="2.01919">
        <ele>291</ele>
        <time>2011-03-26T14:50:12Z</time>
      </trkpt>
      <trkpt lat="44.03637" lon="2.01915">
        <ele>291</ele>
        <time>2011-03-26T14:50:13Z</time>
      </trkpt>
      <trkpt lat="44.03643" lon="2.01915">
        <ele>291</ele>
        <time>2011-03-26T14:50:14Z</time>
      </trkpt>
      <trkpt lat="44.03649" lon="2.01915">
        <ele>291</ele>
        <time>2011-03-26T14:50:15Z</time>
      </trkpt>
      <trkpt lat="44.03654" lon="2.01916">
        <ele>291</ele>
        <time>2011-03-26T14:50:16Z</time>
      </trkpt>
      <trkpt lat="44.03658" lon="2.01919">
        <ele>291</ele>
        <time>2011-03-26T14:50:17Z</time>
      </trkpt>
      <trkpt lat="44.03662" lon="2.01922">
        <ele>291</ele>
        <time>2011-03-26T14:50:18Z</time>
      </trkpt>
      <trkpt lat="44.03665" lon="2.01925">
        <ele>291</ele>
        <time>2011-03-26T14:50:19Z</time>
      </trkpt>
      <trkpt lat="44.03667" lon="2.01929">
        <ele>291</ele>
        <time>2011-03-26T14:50:20Z</time>
      </trkpt>
      <trkpt lat="44.03669" lon="2.01933">
        <ele>291</ele>
        <time>2011-03-26T14:50:21Z</time>
      </trkpt>
      <trkpt lat="44.0367" lon="2.01937">
        <ele>291</ele>
        <time>2011-03-26T14:50:22Z</time>
      </trkpt>
      <trkpt lat="44.03671" lon="2.01942">
        <ele>291</ele>
        <time>2011-03-26T14:50:23Z</time>
      </trkpt>
      <trkpt lat="44.03672" lon="2.01947">
        <ele>291</ele>
        <time>2011-03-26T14:50:24Z</time>
      </trkpt>
      <trkpt lat="44.03673" lon="2.01952">
        <ele>291</ele>
        <time>2011-03-26T14:50:25Z</time>
      </trkpt>
      <trkpt lat="44.03674" lon="2.01956">
        <ele>291</ele>
        <time>2011-03-26T14:50:26Z</time>
      </trkpt>
      <trkpt lat="44.03675" lon="2.01961">
        <ele>288</ele>
        <time>2011-03-26T14:50:27Z</time>
      </trkpt>
      <trkpt lat="44.03677" lon="2.01964">
        <ele>288</ele>
        <time>2011-03-26T14:50:28Z</time>
      </trkpt>
      <trkpt lat="44.0368" lon="2.01966">
        <ele>288</ele>
        <time>2011-03-26T14:50:29Z</time>
      </trkpt>
      <trkpt lat="44.03683" lon="2.01966">
        <ele>288</ele>
        <time>2011-03-26T14:50:30Z</time>
      </trkpt>
      <trkpt lat="44.03686" lon="2.01965">
        <ele>288</ele>
        <time>2011-03-26T14:50:31Z</time>
      </trkpt>
      <trkpt lat="44.03688" lon="2.01964">
        <ele>288</ele>
        <time>2011-03-26T14:50:32Z</time>
      </trkpt>
      <trkpt lat="44.0369" lon="2.01962">
        <ele>288</ele>
        <time>2011-03-26T14:50:33Z</time>
      </trkpt>
      <trkpt lat="44.03693" lon="2.01959">
        <ele>288</ele>
        <time>2011-03-26T14:50:34Z</time>
      </trkpt>
      <trkpt lat="44.03695" lon="2.01957">
        <ele>291</ele>
        <time>2011-03-26T14:50:35Z</time>
      </trkpt>
      <trkpt lat="44.03698" lon="2.01955">
        <ele>291</ele>
        <time>2011-03-26T14:50:36Z</time>
      </trkpt>
      <trkpt lat="44.037" lon="2.01953">
        <ele>291</ele>
        <time>2011-03-26T14:50:37Z</time>
      </trkpt>
      <trkpt lat="44.03704" lon="2.01952">
        <ele>291</ele>
        <time>2011-03-26T14:50:38Z</time>
      </trkpt>
      <trkpt lat="44.03707" lon="2.01952">
        <ele>291</ele>
        <time>2011-03-26T14:50:39Z</time>
      </trkpt>
      <trkpt lat="44.0371" lon="2.01953">
        <ele>297</ele>
        <time>2011-03-26T14:50:40Z</time>
      </trkpt>
      <trkpt lat="44.03713" lon="2.01954">
        <ele>297</ele>
        <time>2011-03-26T14:50:41Z</time>
      </trkpt>
      <trkpt lat="44.03716" lon="2.01956">
        <ele>297</ele>
        <time>2011-03-26T14:50:42Z</time>
      </trkpt>
      <trkpt lat="44.03719" lon="2.01957">
        <ele>297</ele>
        <time>2011-03-26T14:50:43Z</time>
      </trkpt>
      <trkpt lat="44.03722" lon="2.01958">
        <ele>297</ele>
        <time>2011-03-26T14:50:44Z</time>
      </trkpt>
      <trkpt lat="44.03725" lon="2.01959">
        <ele>295</ele>
        <time>2011-03-26T14:50:45Z</time>
      </trkpt>
      <trkpt lat="44.03727" lon="2.0196">
        <ele>295</ele>
        <time>2011-03-26T14:50:46Z</time>
      </trkpt>
      <trkpt lat="44.0373" lon="2.01961">
        <ele>295</ele>
        <time>2011-03-26T14:50:47Z</time>
      </trkpt>
      <trkpt lat="44.03733" lon="2.01963">
        <ele>295</ele>
        <time>2011-03-26T14:50:48Z</time>
      </trkpt>
      <trkpt lat="44.03735" lon="2.01964">
        <ele>295</ele>
        <time>2011-03-26T14:50:49Z</time>
      </trkpt>
      <trkpt lat="44.03738" lon="2.01965">
        <ele>295</ele>
        <time>2011-03-26T14:50:50Z</time>
      </trkpt>
      <trkpt lat="44.03741" lon="2.01966">
        <ele>295</ele>
        <time>2011-03-26T14:50:51Z</time>
      </trkpt>
      <trkpt lat="44.03743" lon="2.01968">
        <ele>295</ele>
        <time>2011-03-26T14:50:52Z</time>
      </trkpt>
      <trkpt lat="44.03746" lon="2.0197">
        <ele>295</ele>
        <time>2011-03-26T14:50:53Z</time>
      </trkpt>
      <trkpt lat="44.03749" lon="2.01971">
        <ele>295</ele>
        <time>2011-03-26T14:50:54Z</time>
      </trkpt>
      <trkpt lat="44.03752" lon="2.01973">
        <ele>295</ele>
        <time>2011-03-26T14:50:55Z</time>
      </trkpt>
      <trkpt lat="44.03754" lon="2.01974">
        <ele>295</ele>
        <time>2011-03-26T14:50:56Z</time>
      </trkpt>
      <trkpt lat="44.03757" lon="2.01976">
        <ele>295</ele>
        <time>2011-03-26T14:50:57Z</time>
      </trkpt>
      <trkpt lat="44.0376" lon="2.01977">
        <ele>295</ele>
        <time>2011-03-26T14:50:58Z</time>
      </trkpt>
      <trkpt lat="44.03763" lon="2.01978">
        <ele>295</ele>
        <time>2011-03-26T14:50:59Z</time>
      </trkpt>
      <trkpt lat="44.03766" lon="2.0198">
        <ele>295</ele>
        <time>2011-03-26T14:51:00Z</time>
      </trkpt>
      <trkpt lat="44.03769" lon="2.01981">
        <ele>295</ele>
        <time>2011-03-26T14:51:01Z</time>
      </trkpt>
      <trkpt lat="44.03772" lon="2.01982">
        <ele>295</ele>
        <time>2011-03-26T14:51:02Z</time>
      </trkpt>
      <trkpt lat="44.03775" lon="2.01984">
        <ele>295</ele>
        <time>2011-03-26T14:51:03Z</time>
      </trkpt>
      <trkpt lat="44.03777" lon="2.01985">
        <ele>295</ele>
        <time>2011-03-26T14:51:04Z</time>
      </trkpt>
      <trkpt lat="44.0378" lon="2.01987">
        <ele>295</ele>
        <time>2011-03-26T14:51:05Z</time>
      </trkpt>
      <trkpt lat="44.03783" lon="2.01989">
        <ele>295</ele>
        <time>2011-03-26T14:51:06Z</time>
      </trkpt>
      <trkpt lat="44.03786" lon="2.01991">
        <ele>295</ele>
        <time>2011-03-26T14:51:07Z</time>
      </trkpt>
      <trkpt lat="44.03788" lon="2.01992">
        <ele>295</ele>
        <time>2011-03-26T14:51:08Z</time>
      </trkpt>
      <trkpt lat="44.03791" lon="2.01994">
        <ele>295</ele>
        <time>2011-03-26T14:51:09Z</time>
      </trkpt>
      <trkpt lat="44.03794" lon="2.01996">
        <ele>302</ele>
        <time>2011-03-26T14:51:10Z</time>
      </trkpt>
      <trkpt lat="44.03796" lon="2.01998">
        <ele>302</ele>
        <time>2011-03-26T14:51:11Z</time>
      </trkpt>
      <trkpt lat="44.03799" lon="2.02">
        <ele>302</ele>
        <time>2011-03-26T14:51:12Z</time>
      </trkpt>
      <trkpt lat="44.03801" lon="2.02002">
        <ele>302</ele>
        <time>2011-03-26T14:51:13Z</time>
      </trkpt>
      <trkpt lat="44.03804" lon="2.02004">
        <ele>302</ele>
        <time>2011-03-26T14:51:14Z</time>
      </trkpt>
      <trkpt lat="44.03806" lon="2.02006">
        <ele>302</ele>
        <time>2011-03-26T14:51:15Z</time>
      </trkpt>
      <trkpt lat="44.03809" lon="2.02008">
        <ele>302</ele>
        <time>2011-03-26T14:51:16Z</time>
      </trkpt>
      <trkpt lat="44.03812" lon="2.0201">
        <ele>302</ele>
        <time>2011-03-26T14:51:17Z</time>
      </trkpt>
      <trkpt lat="44.03814" lon="2.02013">
        <ele>302</ele>
        <time>2011-03-26T14:51:18Z</time>
      </trkpt>
      <trkpt lat="44.03817" lon="2.02015">
        <ele>302</ele>
        <time>2011-03-26T14:51:19Z</time>
      </trkpt>
      <trkpt lat="44.0382" lon="2.02017">
        <ele>302</ele>
        <time>2011-03-26T14:51:20Z</time>
      </trkpt>
      <trkpt lat="44.03822" lon="2.0202">
        <ele>302</ele>
        <time>2011-03-26T14:51:21Z</time>
      </trkpt>
      <trkpt lat="44.03825" lon="2.02022">
        <ele>302</ele>
        <time>2011-03-26T14:51:22Z</time>
      </trkpt>
      <trkpt lat="44.03828" lon="2.02025">
        <ele>302</ele>
        <time>2011-03-26T14:51:23Z</time>
      </trkpt>
      <trkpt lat="44.0383" lon="2.02028">
        <ele>302</ele>
        <time>2011-03-26T14:51:24Z</time>
      </trkpt>
      <trkpt lat="44.03833" lon="2.02031">
        <ele>302</ele>
        <time>2011-03-26T14:51:25Z</time>
      </trkpt>
      <trkpt lat="44.03836" lon="2.02033">
        <ele>302</ele>
        <time>2011-03-26T14:51:26Z</time>
      </trkpt>
      <trkpt lat="44.03839" lon="2.02036">
        <ele>302</ele>
        <time>2011-03-26T14:51:27Z</time>
      </trkpt>
      <trkpt lat="44.03842" lon="2.02039">
        <ele>302</ele>
        <time>2011-03-26T14:51:28Z</time>
      </trkpt>
      <trkpt lat="44.03844" lon="2.02042">
        <ele>302</ele>
        <time>2011-03-26T14:51:29Z</time>
      </trkpt>
      <trkpt lat="44.03847" lon="2.02044">
        <ele>298</ele>
        <time>2011-03-26T14:51:30Z</time>
      </trkpt>
      <trkpt lat="44.0385" lon="2.02047">
        <ele>298</ele>
        <time>2011-03-26T14:51:31Z</time>
      </trkpt>
      <trkpt lat="44.03852" lon="2.0205">
        <ele>298</ele>
        <time>2011-03-26T14:51:32Z</time>
      </trkpt>
      <trkpt lat="44.03855" lon="2.02054">
        <ele>298</ele>
        <time>2011-03-26T14:51:33Z</time>
      </trkpt>
      <trkpt lat="44.03857" lon="2.02057">
        <ele>298</ele>
        <time>2011-03-26T14:51:34Z</time>
      </trkpt>
      <trkpt lat="44.0386" lon="2.0206">
        <ele>298</ele>
        <time>2011-03-26T14:51:35Z</time>
      </trkpt>
      <trkpt lat="44.03862" lon="2.02063">
        <ele>298</ele>
        <time>2011-03-26T14:51:36Z</time>
      </trkpt>
      <trkpt lat="44.03865" lon="2.02066">
        <ele>298</ele>
        <time>2011-03-26T14:51:37Z</time>
      </trkpt>
      <trkpt lat="44.03868" lon="2.02067">
        <ele>298</ele>
        <time>2011-03-26T14:51:38Z</time>
      </trkpt>
      <trkpt lat="44.03871" lon="2.02067">
        <ele>298</ele>
        <time>2011-03-26T14:51:39Z</time>
      </trkpt>
      <trkpt lat="44.03873" lon="2.02065">
        <ele>298</ele>
        <time>2011-03-26T14:51:40Z</time>
      </trkpt>
      <trkpt lat="44.03874" lon="2.02063">
        <ele>298</ele>
        <time>2011-03-26T14:51:41Z</time>
      </trkpt>
      <trkpt lat="44.03877" lon="2.02058">
        <ele>300</ele>
        <time>2011-03-26T14:51:43Z</time>
      </trkpt>
      <trkpt lat="44.03878" lon="2.02056">
        <ele>300</ele>
        <time>2011-03-26T14:51:44Z</time>
      </trkpt>
      <trkpt lat="44.0388" lon="2.02052">
        <ele>300</ele>
        <time>2011-03-26T14:51:46Z</time>
      </trkpt>
      <trkpt lat="44.0388" lon="2.02048">
        <ele>300</ele>
        <time>2011-03-26T14:51:48Z</time>
      </trkpt>
      <trkpt lat="44.03881" lon="2.02044">
        <ele>300</ele>
        <time>2011-03-26T14:51:50Z</time>
      </trkpt>
      <trkpt lat="44.03882" lon="2.0204">
        <ele>306</ele>
        <time>2011-03-26T14:51:52Z</time>
      </trkpt>
      <trkpt lat="44.03885" lon="2.02035">
        <ele>306</ele>
        <time>2011-03-26T14:51:54Z</time>
      </trkpt>
      <trkpt lat="44.03886" lon="2.0203">
        <ele>306</ele>
        <time>2011-03-26T14:51:56Z</time>
      </trkpt>
      <trkpt lat="44.03888" lon="2.02024">
        <ele>306</ele>
        <time>2011-03-26T14:51:58Z</time>
      </trkpt>
      <trkpt lat="44.0389" lon="2.02019">
        <ele>306</ele>
        <time>2011-03-26T14:52:00Z</time>
      </trkpt>
      <trkpt lat="44.03892" lon="2.02014">
        <ele>306</ele>
        <time>2011-03-26T14:52:02Z</time>
      </trkpt>
      <trkpt lat="44.03893" lon="2.02011">
        <ele>306</ele>
        <time>2011-03-26T14:52:03Z</time>
      </trkpt>
      <trkpt lat="44.03895" lon="2.02006">
        <ele>306</ele>
        <time>2011-03-26T14:52:05Z</time>
      </trkpt>
      <trkpt lat="44.03897" lon="2.02001">
        <ele>306</ele>
        <time>2011-03-26T14:52:07Z</time>
      </trkpt>
      <trkpt lat="44.03899" lon="2.01996">
        <ele>306</ele>
        <time>2011-03-26T14:52:09Z</time>
      </trkpt>
      <trkpt lat="44.03901" lon="2.01991">
        <ele>306</ele>
        <time>2011-03-26T14:52:11Z</time>
      </trkpt>
      <trkpt lat="44.03902" lon="2.01986">
        <ele>306</ele>
        <time>2011-03-26T14:52:13Z</time>
      </trkpt>
      <trkpt lat="44.03904" lon="2.0198">
        <ele>306</ele>
        <time>2011-03-26T14:52:15Z</time>
      </trkpt>
      <trkpt lat="44.03905" lon="2.01978">
        <ele>306</ele>
        <time>2011-03-26T14:52:16Z</time>
      </trkpt>
      <trkpt lat="44.03906" lon="2.01972">
        <ele>306</ele>
        <time>2011-03-26T14:52:18Z</time>
      </trkpt>
      <trkpt lat="44.03907" lon="2.0197">
        <ele>306</ele>
        <time>2011-03-26T14:52:19Z</time>
      </trkpt>
      <trkpt lat="44.03909" lon="2.01965">
        <ele>306</ele>
        <time>2011-03-26T14:52:21Z</time>
      </trkpt>
      <trkpt lat="44.03911" lon="2.0196">
        <ele>306</ele>
        <time>2011-03-26T14:52:23Z</time>
      </trkpt>
      <trkpt lat="44.03914" lon="2.01956">
        <ele>313</ele>
        <time>2011-03-26T14:52:25Z</time>
      </trkpt>
      <trkpt lat="44.03915" lon="2.01953">
        <ele>313</ele>
        <time>2011-03-26T14:52:26Z</time>
      </trkpt>
      <trkpt lat="44.03917" lon="2.01951">
        <ele>313</ele>
        <time>2011-03-26T14:52:27Z</time>
      </trkpt>
      <trkpt lat="44.03918" lon="2.01948">
        <ele>313</ele>
        <time>2011-03-26T14:52:28Z</time>
      </trkpt>
      <trkpt lat="44.0392" lon="2.01943">
        <ele>313</ele>
        <time>2011-03-26T14:52:30Z</time>
      </trkpt>
      <trkpt lat="44.03922" lon="2.01937">
        <ele>313</ele>
        <time>2011-03-26T14:52:32Z</time>
      </trkpt>
      <trkpt lat="44.03923" lon="2.01934">
        <ele>313</ele>
        <time>2011-03-26T14:52:33Z</time>
      </trkpt>
      <trkpt lat="44.03924" lon="2.01929">
        <ele>313</ele>
        <time>2011-03-26T14:52:35Z</time>
      </trkpt>
      <trkpt lat="44.03925" lon="2.01926">
        <ele>313</ele>
        <time>2011-03-26T14:52:36Z</time>
      </trkpt>
      <trkpt lat="44.03927" lon="2.0192">
        <ele>313</ele>
        <time>2011-03-26T14:52:38Z</time>
      </trkpt>
      <trkpt lat="44.03927" lon="2.01917">
        <ele>313</ele>
        <time>2011-03-26T14:52:39Z</time>
      </trkpt>
      <trkpt lat="44.03928" lon="2.01914">
        <ele>313</ele>
        <time>2011-03-26T14:52:40Z</time>
      </trkpt>
      <trkpt lat="44.03929" lon="2.0191">
        <ele>313</ele>
        <time>2011-03-26T14:52:41Z</time>
      </trkpt>
      <trkpt lat="44.03929" lon="2.01907">
        <ele>313</ele>
        <time>2011-03-26T14:52:42Z</time>
      </trkpt>
      <trkpt lat="44.0393" lon="2.01904">
        <ele>313</ele>
        <time>2011-03-26T14:52:43Z</time>
      </trkpt>
      <trkpt lat="44.0393" lon="2.01901">
        <ele>313</ele>
        <time>2011-03-26T14:52:44Z</time>
      </trkpt>
      <trkpt lat="44.03932" lon="2.01895">
        <ele>313</ele>
        <time>2011-03-26T14:52:46Z</time>
      </trkpt>
      <trkpt lat="44.03934" lon="2.01889">
        <ele>313</ele>
        <time>2011-03-26T14:52:48Z</time>
      </trkpt>
      <trkpt lat="44.03935" lon="2.01886">
        <ele>313</ele>
        <time>2011-03-26T14:52:49Z</time>
      </trkpt>
      <trkpt lat="44.03936" lon="2.01883">
        <ele>313</ele>
        <time>2011-03-26T14:52:50Z</time>
      </trkpt>
      <trkpt lat="44.03938" lon="2.0188">
        <ele>313</ele>
        <time>2011-03-26T14:52:51Z</time>
      </trkpt>
      <trkpt lat="44.03939" lon="2.01878">
        <ele>313</ele>
        <time>2011-03-26T14:52:52Z</time>
      </trkpt>
      <trkpt lat="44.03941" lon="2.01875">
        <ele>313</ele>
        <time>2011-03-26T14:52:53Z</time>
      </trkpt>
      <trkpt lat="44.03943" lon="2.01873">
        <ele>313</ele>
        <time>2011-03-26T14:52:54Z</time>
      </trkpt>
      <trkpt lat="44.03945" lon="2.0187">
        <ele>313</ele>
        <time>2011-03-26T14:52:55Z</time>
      </trkpt>
      <trkpt lat="44.03947" lon="2.01868">
        <ele>313</ele>
        <time>2011-03-26T14:52:56Z</time>
      </trkpt>
      <trkpt lat="44.03949" lon="2.01865">
        <ele>313</ele>
        <time>2011-03-26T14:52:57Z</time>
      </trkpt>
      <trkpt lat="44.03951" lon="2.01863">
        <ele>313</ele>
        <time>2011-03-26T14:52:58Z</time>
      </trkpt>
      <trkpt lat="44.03953" lon="2.0186">
        <ele>313</ele>
        <time>2011-03-26T14:52:59Z</time>
      </trkpt>
      <trkpt lat="44.03955" lon="2.01858">
        <ele>313</ele>
        <time>2011-03-26T14:53:00Z</time>
      </trkpt>
      <trkpt lat="44.03957" lon="2.01855">
        <ele>313</ele>
        <time>2011-03-26T14:53:01Z</time>
      </trkpt>
      <trkpt lat="44.03959" lon="2.01853">
        <ele>315</ele>
        <time>2011-03-26T14:53:02Z</time>
      </trkpt>
      <trkpt lat="44.03961" lon="2.0185">
        <ele>315</ele>
        <time>2011-03-26T14:53:03Z</time>
      </trkpt>
      <trkpt lat="44.03963" lon="2.01848">
        <ele>315</ele>
        <time>2011-03-26T14:53:04Z</time>
      </trkpt>
      <trkpt lat="44.03965" lon="2.01846">
        <ele>315</ele>
        <time>2011-03-26T14:53:05Z</time>
      </trkpt>
      <trkpt lat="44.03967" lon="2.01843">
        <ele>315</ele>
        <time>2011-03-26T14:53:06Z</time>
      </trkpt>
      <trkpt lat="44.03969" lon="2.01841">
        <ele>315</ele>
        <time>2011-03-26T14:53:07Z</time>
      </trkpt>
      <trkpt lat="44.03971" lon="2.01839">
        <ele>315</ele>
        <time>2011-03-26T14:53:08Z</time>
      </trkpt>
      <trkpt lat="44.03973" lon="2.01837">
        <ele>315</ele>
        <time>2011-03-26T14:53:09Z</time>
      </trkpt>
      <trkpt lat="44.03975" lon="2.01835">
        <ele>315</ele>
        <time>2011-03-26T14:53:10Z</time>
      </trkpt>
      <trkpt lat="44.03977" lon="2.01833">
        <ele>315</ele>
        <time>2011-03-26T14:53:11Z</time>
      </trkpt>
      <trkpt lat="44.0398" lon="2.01831">
        <ele>315</ele>
        <time>2011-03-26T14:53:12Z</time>
      </trkpt>
      <trkpt lat="44.03982" lon="2.01829">
        <ele>315</ele>
        <time>2011-03-26T14:53:13Z</time>
      </trkpt>
      <trkpt lat="44.03984" lon="2.01826">
        <ele>315</ele>
        <time>2011-03-26T14:53:14Z</time>
      </trkpt>
      <trkpt lat="44.03986" lon="2.01824">
        <ele>315</ele>
        <time>2011-03-26T14:53:15Z</time>
      </trkpt>
      <trkpt lat="44.03988" lon="2.01821">
        <ele>315</ele>
        <time>2011-03-26T14:53:16Z</time>
      </trkpt>
      <trkpt lat="44.03991" lon="2.01819">
        <ele>315</ele>
        <time>2011-03-26T14:53:17Z</time>
      </trkpt>
      <trkpt lat="44.03993" lon="2.01816">
        <ele>315</ele>
        <time>2011-03-26T14:53:18Z</time>
      </trkpt>
      <trkpt lat="44.03995" lon="2.01814">
        <ele>315</ele>
        <time>2011-03-26T14:53:19Z</time>
      </trkpt>
      <trkpt lat="44.03997" lon="2.01811">
        <ele>315</ele>
        <time>2011-03-26T14:53:20Z</time>
      </trkpt>
      <trkpt lat="44.03999" lon="2.01808">
        <ele>315</ele>
        <time>2011-03-26T14:53:21Z</time>
      </trkpt>
      <trkpt lat="44.04002" lon="2.01806">
        <ele>315</ele>
        <time>2011-03-26T14:53:22Z</time>
      </trkpt>
      <trkpt lat="44.04004" lon="2.01803">
        <ele>315</ele>
        <time>2011-03-26T14:53:23Z</time>
      </trkpt>
      <trkpt lat="44.04007" lon="2.01801">
        <ele>315</ele>
        <time>2011-03-26T14:53:24Z</time>
      </trkpt>
      <trkpt lat="44.0401" lon="2.01798">
        <ele>315</ele>
        <time>2011-03-26T14:53:26Z</time>
      </trkpt>
      <trkpt lat="44.04012" lon="2.01795">
        <ele>315</ele>
        <time>2011-03-26T14:53:27Z</time>
      </trkpt>
      <trkpt lat="44.04013" lon="2.01792">
        <ele>315</ele>
        <time>2011-03-26T14:53:28Z</time>
      </trkpt>
      <trkpt lat="44.04015" lon="2.0179">
        <ele>316</ele>
        <time>2011-03-26T14:53:29Z</time>
      </trkpt>
      <trkpt lat="44.04017" lon="2.01787">
        <ele>316</ele>
        <time>2011-03-26T14:53:30Z</time>
      </trkpt>
      <trkpt lat="44.04019" lon="2.01784">
        <ele>316</ele>
        <time>2011-03-26T14:53:31Z</time>
      </trkpt>
      <trkpt lat="44.04021" lon="2.01781">
        <ele>316</ele>
        <time>2011-03-26T14:53:32Z</time>
      </trkpt>
      <trkpt lat="44.04023" lon="2.01778">
        <ele>316</ele>
        <time>2011-03-26T14:53:33Z</time>
      </trkpt>
      <trkpt lat="44.04025" lon="2.01774">
        <ele>316</ele>
        <time>2011-03-26T14:53:34Z</time>
      </trkpt>
      <trkpt lat="44.04028" lon="2.01771">
        <ele>316</ele>
        <time>2011-03-26T14:53:35Z</time>
      </trkpt>
      <trkpt lat="44.0403" lon="2.01768">
        <ele>316</ele>
        <time>2011-03-26T14:53:36Z</time>
      </trkpt>
      <trkpt lat="44.04032" lon="2.01765">
        <ele>316</ele>
        <time>2011-03-26T14:53:37Z</time>
      </trkpt>
      <trkpt lat="44.04035" lon="2.01762">
        <ele>316</ele>
        <time>2011-03-26T14:53:38Z</time>
      </trkpt>
      <trkpt lat="44.04037" lon="2.01759">
        <ele>316</ele>
        <time>2011-03-26T14:53:39Z</time>
      </trkpt>
      <trkpt lat="44.0404" lon="2.01756">
        <ele>316</ele>
        <time>2011-03-26T14:53:40Z</time>
      </trkpt>
      <trkpt lat="44.04043" lon="2.01754">
        <ele>317</ele>
        <time>2011-03-26T14:53:41Z</time>
      </trkpt>
      <trkpt lat="44.04046" lon="2.01753">
        <ele>317</ele>
        <time>2011-03-26T14:53:42Z</time>
      </trkpt>
      <trkpt lat="44.04049" lon="2.01751">
        <ele>317</ele>
        <time>2011-03-26T14:53:43Z</time>
      </trkpt>
      <trkpt lat="44.04052" lon="2.01751">
        <ele>317</ele>
        <time>2011-03-26T14:53:44Z</time>
      </trkpt>
      <trkpt lat="44.04056" lon="2.01751">
        <ele>317</ele>
        <time>2011-03-26T14:53:45Z</time>
      </trkpt>
      <trkpt lat="44.04059" lon="2.01752">
        <ele>317</ele>
        <time>2011-03-26T14:53:46Z</time>
      </trkpt>
      <trkpt lat="44.04063" lon="2.01753">
        <ele>317</ele>
        <time>2011-03-26T14:53:47Z</time>
      </trkpt>
      <trkpt lat="44.04067" lon="2.01755">
        <ele>317</ele>
        <time>2011-03-26T14:53:48Z</time>
      </trkpt>
      <trkpt lat="44.0407" lon="2.01756">
        <ele>317</ele>
        <time>2011-03-26T14:53:49Z</time>
      </trkpt>
      <trkpt lat="44.04074" lon="2.01757">
        <ele>317</ele>
        <time>2011-03-26T14:53:50Z</time>
      </trkpt>
      <trkpt lat="44.04078" lon="2.01758">
        <ele>317</ele>
        <time>2011-03-26T14:53:51Z</time>
      </trkpt>
      <trkpt lat="44.04082" lon="2.01759">
        <ele>317</ele>
        <time>2011-03-26T14:53:52Z</time>
      </trkpt>
      <trkpt lat="44.04086" lon="2.0176">
        <ele>317</ele>
        <time>2011-03-26T14:53:53Z</time>
      </trkpt>
      <trkpt lat="44.04089" lon="2.01761">
        <ele>317</ele>
        <time>2011-03-26T14:53:54Z</time>
      </trkpt>
      <trkpt lat="44.04093" lon="2.01763">
        <ele>317</ele>
        <time>2011-03-26T14:53:55Z</time>
      </trkpt>
      <trkpt lat="44.04096" lon="2.01764">
        <ele>317</ele>
        <time>2011-03-26T14:53:56Z</time>
      </trkpt>
      <trkpt lat="44.041" lon="2.01765">
        <ele>317</ele>
        <time>2011-03-26T14:53:57Z</time>
      </trkpt>
      <trkpt lat="44.04103" lon="2.01766">
        <ele>317</ele>
        <time>2011-03-26T14:53:58Z</time>
      </trkpt>
      <trkpt lat="44.04106" lon="2.01769">
        <ele>317</ele>
        <time>2011-03-26T14:53:59Z</time>
      </trkpt>
      <trkpt lat="44.04109" lon="2.01771">
        <ele>317</ele>
        <time>2011-03-26T14:54:00Z</time>
      </trkpt>
      <trkpt lat="44.04112" lon="2.01772">
        <ele>317</ele>
        <time>2011-03-26T14:54:01Z</time>
      </trkpt>
      <trkpt lat="44.04116" lon="2.01774">
        <ele>317</ele>
        <time>2011-03-26T14:54:02Z</time>
      </trkpt>
      <trkpt lat="44.04119" lon="2.01776">
        <ele>317</ele>
        <time>2011-03-26T14:54:03Z</time>
      </trkpt>
      <trkpt lat="44.04122" lon="2.01778">
        <ele>317</ele>
        <time>2011-03-26T14:54:04Z</time>
      </trkpt>
      <trkpt lat="44.04124" lon="2.0178">
        <ele>317</ele>
        <time>2011-03-26T14:54:05Z</time>
      </trkpt>
      <trkpt lat="44.04127" lon="2.01782">
        <ele>317</ele>
        <time>2011-03-26T14:54:06Z</time>
      </trkpt>
      <trkpt lat="44.04129" lon="2.01783">
        <ele>317</ele>
        <time>2011-03-26T14:54:07Z</time>
      </trkpt>
      <trkpt lat="44.04132" lon="2.01785">
        <ele>317</ele>
        <time>2011-03-26T14:54:08Z</time>
      </trkpt>
      <trkpt lat="44.04135" lon="2.01785">
        <ele>317</ele>
        <time>2011-03-26T14:54:09Z</time>
      </trkpt>
      <trkpt lat="44.04138" lon="2.01786">
        <ele>317</ele>
        <time>2011-03-26T14:54:10Z</time>
      </trkpt>
      <trkpt lat="44.04141" lon="2.01786">
        <ele>317</ele>
        <time>2011-03-26T14:54:11Z</time>
      </trkpt>
      <trkpt lat="44.04144" lon="2.01786">
        <ele>317</ele>
        <time>2011-03-26T14:54:12Z</time>
      </trkpt>
      <trkpt lat="44.04148" lon="2.01785">
        <ele>317</ele>
        <time>2011-03-26T14:54:14Z</time>
      </trkpt>
      <trkpt lat="44.0415" lon="2.01782">
        <ele>317</ele>
        <time>2011-03-26T14:54:16Z</time>
      </trkpt>
      <trkpt lat="44.04152" lon="2.01779">
        <ele>317</ele>
        <time>2011-03-26T14:54:18Z</time>
      </trkpt>
      <trkpt lat="44.04154" lon="2.01778">
        <ele>317</ele>
        <time>2011-03-26T14:54:20Z</time>
      </trkpt>
      <trkpt lat="44.04156" lon="2.01775">
        <ele>317</ele>
        <time>2011-03-26T14:54:22Z</time>
      </trkpt>
      <trkpt lat="44.04157" lon="2.0177">
        <ele>317</ele>
        <time>2011-03-26T14:54:24Z</time>
      </trkpt>
      <trkpt lat="44.04155" lon="2.01767">
        <ele>317</ele>
        <time>2011-03-26T14:54:26Z</time>
      </trkpt>
      <trkpt lat="44.04154" lon="2.01771">
        <ele>317</ele>
        <time>2011-03-26T14:54:29Z</time>
      </trkpt>
      <trkpt lat="44.04154" lon="2.01775">
        <ele>317</ele>
        <time>2011-03-26T14:54:31Z</time>
      </trkpt>
      <trkpt lat="44.04156" lon="2.01778">
        <ele>317</ele>
        <time>2011-03-26T14:54:33Z</time>
      </trkpt>
      <trkpt lat="44.04159" lon="2.01777">
        <ele>317</ele>
        <time>2011-03-26T14:54:36Z</time>
      </trkpt>
      <trkpt lat="44.04158" lon="2.01774">
        <ele>317</ele>
        <time>2011-03-26T14:54:38Z</time>
      </trkpt>
      <trkpt lat="44.04156" lon="2.01772">
        <ele>317</ele>
        <time>2011-03-26T14:54:40Z</time>
      </trkpt>
      <trkpt lat="44.04154" lon="2.01775">
        <ele>317</ele>
        <time>2011-03-26T14:54:42Z</time>
      </trkpt>
      <trkpt lat="44.04153" lon="2.01779">
        <ele>317</ele>
        <time>2011-03-26T14:54:44Z</time>
      </trkpt>
      <trkpt lat="44.04154" lon="2.01783">
        <ele>317</ele>
        <time>2011-03-26T14:54:46Z</time>
      </trkpt>
      <trkpt lat="44.04156" lon="2.01783">
        <ele>317</ele>
        <time>2011-03-26T14:54:48Z</time>
      </trkpt>
      <trkpt lat="44.04156" lon="2.01778">
        <ele>317</ele>
        <time>2011-03-26T14:54:50Z</time>
      </trkpt>
      <trkpt lat="44.04155" lon="2.01774">
        <ele>317</ele>
        <time>2011-03-26T14:54:52Z</time>
      </trkpt>
      <trkpt lat="44.04154" lon="2.01771">
        <ele>317</ele>
        <time>2011-03-26T14:54:54Z</time>
      </trkpt>
      <trkpt lat="44.04155" lon="2.01767">
        <ele>317</ele>
        <time>2011-03-26T14:54:56Z</time>
      </trkpt>
      <trkpt lat="44.04154" lon="2.01764">
        <ele>317</ele>
        <time>2011-03-26T14:54:58Z</time>
      </trkpt>
      <trkpt lat="44.04152" lon="2.01763">
        <ele>317</ele>
        <time>2011-03-26T14:55:00Z</time>
      </trkpt>
      <trkpt lat="44.04151" lon="2.01766">
        <ele>317</ele>
        <time>2011-03-26T14:55:02Z</time>
      </trkpt>
      <trkpt lat="44.04152" lon="2.0177">
        <ele>317</ele>
        <time>2011-03-26T14:55:04Z</time>
      </trkpt>
      <trkpt lat="44.04153" lon="2.01773">
        <ele>317</ele>
        <time>2011-03-26T14:55:06Z</time>
      </trkpt>
      <trkpt lat="44.04153" lon="2.01777">
        <ele>317</ele>
        <time>2011-03-26T14:55:08Z</time>
      </trkpt>
      <trkpt lat="44.04153" lon="2.01781">
        <ele>317</ele>
        <time>2011-03-26T14:55:11Z</time>
      </trkpt>
      <trkpt lat="44.04155" lon="2.01778">
        <ele>317</ele>
        <time>2011-03-26T14:55:13Z</time>
      </trkpt>
      <trkpt lat="44.04155" lon="2.01774">
        <ele>317</ele>
        <time>2011-03-26T14:55:15Z</time>
      </trkpt>
      <trkpt lat="44.04154" lon="2.01772">
        <ele>317</ele>
        <time>2011-03-26T14:55:17Z</time>
      </trkpt>
      <trkpt lat="44.04155" lon="2.01768">
        <ele>317</ele>
        <time>2011-03-26T14:55:38Z</time>
      </trkpt>
      <trkpt lat="44.04156" lon="2.01764">
        <ele>317</ele>
        <time>2011-03-26T14:55:40Z</time>
      </trkpt>
      <trkpt lat="44.04157" lon="2.01759">
        <ele>317</ele>
        <time>2011-03-26T14:55:42Z</time>
      </trkpt>
      <trkpt lat="44.04158" lon="2.01753">
        <ele>317</ele>
        <time>2011-03-26T14:55:44Z</time>
      </trkpt>
      <trkpt lat="44.04158" lon="2.01749">
        <ele>317</ele>
        <time>2011-03-26T14:55:45Z</time>
      </trkpt>
      <trkpt lat="44.04158" lon="2.01745">
        <ele>317</ele>
        <time>2011-03-26T14:55:46Z</time>
      </trkpt>
      <trkpt lat="44.04158" lon="2.01742">
        <ele>317</ele>
        <time>2011-03-26T14:55:47Z</time>
      </trkpt>
      <trkpt lat="44.04158" lon="2.01738">
        <ele>317</ele>
        <time>2011-03-26T14:55:48Z</time>
      </trkpt>
      <trkpt lat="44.04157" lon="2.01734">
        <ele>317</ele>
        <time>2011-03-26T14:55:49Z</time>
      </trkpt>
      <trkpt lat="44.04157" lon="2.0173">
        <ele>317</ele>
        <time>2011-03-26T14:55:50Z</time>
      </trkpt>
      <trkpt lat="44.04156" lon="2.01727">
        <ele>317</ele>
        <time>2011-03-26T14:55:51Z</time>
      </trkpt>
      <trkpt lat="44.04156" lon="2.01723">
        <ele>317</ele>
        <time>2011-03-26T14:55:52Z</time>
      </trkpt>
      <trkpt lat="44.04155" lon="2.01719">
        <ele>317</ele>
        <time>2011-03-26T14:55:53Z</time>
      </trkpt>
      <trkpt lat="44.04154" lon="2.01715">
        <ele>317</ele>
        <time>2011-03-26T14:55:54Z</time>
      </trkpt>
      <trkpt lat="44.04153" lon="2.01711">
        <ele>317</ele>
        <time>2011-03-26T14:55:55Z</time>
      </trkpt>
      <trkpt lat="44.04152" lon="2.01707">
        <ele>319</ele>
        <time>2011-03-26T14:55:56Z</time>
      </trkpt>
      <trkpt lat="44.04151" lon="2.01702">
        <ele>319</ele>
        <time>2011-03-26T14:55:57Z</time>
      </trkpt>
      <trkpt lat="44.0415" lon="2.01698">
        <ele>319</ele>
        <time>2011-03-26T14:55:58Z</time>
      </trkpt>
      <trkpt lat="44.04149" lon="2.01694">
        <ele>319</ele>
        <time>2011-03-26T14:55:59Z</time>
      </trkpt>
      <trkpt lat="44.04148" lon="2.0169">
        <ele>319</ele>
        <time>2011-03-26T14:56:00Z</time>
      </trkpt>
      <trkpt lat="44.04147" lon="2.01685">
        <ele>319</ele>
        <time>2011-03-26T14:56:01Z</time>
      </trkpt>
      <trkpt lat="44.04146" lon="2.01681">
        <ele>319</ele>
        <time>2011-03-26T14:56:02Z</time>
      </trkpt>
      <trkpt lat="44.04144" lon="2.01677">
        <ele>319</ele>
        <time>2011-03-26T14:56:03Z</time>
      </trkpt>
      <trkpt lat="44.04142" lon="2.01672">
        <ele>319</ele>
        <time>2011-03-26T14:56:04Z</time>
      </trkpt>
      <trkpt lat="44.04141" lon="2.01668">
        <ele>319</ele>
        <time>2011-03-26T14:56:05Z</time>
      </trkpt>
      <trkpt lat="44.04139" lon="2.01663">
        <ele>319</ele>
        <time>2011-03-26T14:56:06Z</time>
      </trkpt>
      <trkpt lat="44.04137" lon="2.01659">
        <ele>319</ele>
        <time>2011-03-26T14:56:07Z</time>
      </trkpt>
      <trkpt lat="44.04137" lon="2.01654">
        <ele>319</ele>
        <time>2011-03-26T14:56:08Z</time>
      </trkpt>
      <trkpt lat="44.04135" lon="2.01649">
        <ele>319</ele>
        <time>2011-03-26T14:56:09Z</time>
      </trkpt>
      <trkpt lat="44.04133" lon="2.01644">
        <ele>319</ele>
        <time>2011-03-26T14:56:10Z</time>
      </trkpt>
      <trkpt lat="44.04131" lon="2.01639">
        <ele>319</ele>
        <time>2011-03-26T14:56:11Z</time>
      </trkpt>
      <trkpt lat="44.0413" lon="2.01634">
        <ele>319</ele>
        <time>2011-03-26T14:56:12Z</time>
      </trkpt>
      <trkpt lat="44.04128" lon="2.01629">
        <ele>319</ele>
        <time>2011-03-26T14:56:13Z</time>
      </trkpt>
      <trkpt lat="44.04126" lon="2.01624">
        <ele>318</ele>
        <time>2011-03-26T14:56:14Z</time>
      </trkpt>
      <trkpt lat="44.04125" lon="2.01619">
        <ele>316</ele>
        <time>2011-03-26T14:56:15Z</time>
      </trkpt>
      <trkpt lat="44.04123" lon="2.01614">
        <ele>316</ele>
        <time>2011-03-26T14:56:16Z</time>
      </trkpt>
      <trkpt lat="44.04121" lon="2.01609">
        <ele>316</ele>
        <time>2011-03-26T14:56:17Z</time>
      </trkpt>
      <trkpt lat="44.04119" lon="2.01604">
        <ele>316</ele>
        <time>2011-03-26T14:56:18Z</time>
      </trkpt>
      <trkpt lat="44.04117" lon="2.01599">
        <ele>316</ele>
        <time>2011-03-26T14:56:19Z</time>
      </trkpt>
      <trkpt lat="44.04115" lon="2.01594">
        <ele>316</ele>
        <time>2011-03-26T14:56:20Z</time>
      </trkpt>
      <trkpt lat="44.04113" lon="2.01589">
        <ele>316</ele>
        <time>2011-03-26T14:56:21Z</time>
      </trkpt>
      <trkpt lat="44.04111" lon="2.01584">
        <ele>316</ele>
        <time>2011-03-26T14:56:22Z</time>
      </trkpt>
      <trkpt lat="44.04109" lon="2.0158">
        <ele>316</ele>
        <time>2011-03-26T14:56:23Z</time>
      </trkpt>
      <trkpt lat="44.04107" lon="2.01575">
        <ele>316</ele>
        <time>2011-03-26T14:56:24Z</time>
      </trkpt>
      <trkpt lat="44.04106" lon="2.01569">
        <ele>316</ele>
        <time>2011-03-26T14:56:25Z</time>
      </trkpt>
      <trkpt lat="44.04104" lon="2.01564">
        <ele>316</ele>
        <time>2011-03-26T14:56:26Z</time>
      </trkpt>
      <trkpt lat="44.04103" lon="2.01558">
        <ele>316</ele>
        <time>2011-03-26T14:56:27Z</time>
      </trkpt>
      <trkpt lat="44.04101" lon="2.01553">
        <ele>316</ele>
        <time>2011-03-26T14:56:28Z</time>
      </trkpt>
      <trkpt lat="44.04099" lon="2.01548">
        <ele>316</ele>
        <time>2011-03-26T14:56:29Z</time>
      </trkpt>
      <trkpt lat="44.04099" lon="2.01542">
        <ele>316</ele>
        <time>2011-03-26T14:56:30Z</time>
      </trkpt>
      <trkpt lat="44.04101" lon="2.01537">
        <ele>315</ele>
        <time>2011-03-26T14:56:31Z</time>
      </trkpt>
      <trkpt lat="44.04103" lon="2.01532">
        <ele>315</ele>
        <time>2011-03-26T14:56:32Z</time>
      </trkpt>
      <trkpt lat="44.04105" lon="2.01529">
        <ele>315</ele>
        <time>2011-03-26T14:56:33Z</time>
      </trkpt>
      <trkpt lat="44.04108" lon="2.01525">
        <ele>315</ele>
        <time>2011-03-26T14:56:34Z</time>
      </trkpt>
      <trkpt lat="44.04111" lon="2.01523">
        <ele>315</ele>
        <time>2011-03-26T14:56:35Z</time>
      </trkpt>
      <trkpt lat="44.04114" lon="2.0152">
        <ele>315</ele>
        <time>2011-03-26T14:56:36Z</time>
      </trkpt>
      <trkpt lat="44.04118" lon="2.01518">
        <ele>315</ele>
        <time>2011-03-26T14:56:37Z</time>
      </trkpt>
      <trkpt lat="44.04121" lon="2.01517">
        <ele>315</ele>
        <time>2011-03-26T14:56:38Z</time>
      </trkpt>
      <trkpt lat="44.04124" lon="2.01516">
        <ele>315</ele>
        <time>2011-03-26T14:56:39Z</time>
      </trkpt>
      <trkpt lat="44.04128" lon="2.01516">
        <ele>316</ele>
        <time>2011-03-26T14:56:40Z</time>
      </trkpt>
      <trkpt lat="44.04132" lon="2.01516">
        <ele>316</ele>
        <time>2011-03-26T14:56:41Z</time>
      </trkpt>
      <trkpt lat="44.04135" lon="2.01516">
        <ele>316</ele>
        <time>2011-03-26T14:56:42Z</time>
      </trkpt>
      <trkpt lat="44.04139" lon="2.01516">
        <ele>316</ele>
        <time>2011-03-26T14:56:43Z</time>
      </trkpt>
      <trkpt lat="44.04143" lon="2.01516">
        <ele>316</ele>
        <time>2011-03-26T14:56:44Z</time>
      </trkpt>
      <trkpt lat="44.04146" lon="2.01517">
        <ele>316</ele>
        <time>2011-03-26T14:56:45Z</time>
      </trkpt>
      <trkpt lat="44.04149" lon="2.01517">
        <ele>316</ele>
        <time>2011-03-26T14:56:46Z</time>
      </trkpt>
      <trkpt lat="44.04152" lon="2.01517">
        <ele>316</ele>
        <time>2011-03-26T14:56:47Z</time>
      </trkpt>
      <trkpt lat="44.04155" lon="2.01518">
        <ele>316</ele>
        <time>2011-03-26T14:56:48Z</time>
      </trkpt>
      <trkpt lat="44.04158" lon="2.01521">
        <ele>316</ele>
        <time>2011-03-26T14:56:49Z</time>
      </trkpt>
      <trkpt lat="44.0416" lon="2.01524">
        <ele>316</ele>
        <time>2011-03-26T14:56:50Z</time>
      </trkpt>
      <trkpt lat="44.04162" lon="2.01526">
        <ele>316</ele>
        <time>2011-03-26T14:56:51Z</time>
      </trkpt>
      <trkpt lat="44.04165" lon="2.01529">
        <ele>316</ele>
        <time>2011-03-26T14:56:52Z</time>
      </trkpt>
      <trkpt lat="44.04168" lon="2.01532">
        <ele>316</ele>
        <time>2011-03-26T14:56:53Z</time>
      </trkpt>
      <trkpt lat="44.04171" lon="2.01536">
        <ele>316</ele>
        <time>2011-03-26T14:56:54Z</time>
      </trkpt>
      <trkpt lat="44.04174" lon="2.01539">
        <ele>316</ele>
        <time>2011-03-26T14:56:55Z</time>
      </trkpt>
      <trkpt lat="44.04177" lon="2.01543">
        <ele>318</ele>
        <time>2011-03-26T14:56:56Z</time>
      </trkpt>
      <trkpt lat="44.04181" lon="2.01547">
        <ele>318</ele>
        <time>2011-03-26T14:56:57Z</time>
      </trkpt>
      <trkpt lat="44.04185" lon="2.01551">
        <ele>318</ele>
        <time>2011-03-26T14:56:58Z</time>
      </trkpt>
      <trkpt lat="44.04188" lon="2.01555">
        <ele>318</ele>
        <time>2011-03-26T14:56:59Z</time>
      </trkpt>
      <trkpt lat="44.04192" lon="2.01558">
        <ele>318</ele>
        <time>2011-03-26T14:57:00Z</time>
      </trkpt>
      <trkpt lat="44.04196" lon="2.01562">
        <ele>318</ele>
        <time>2011-03-26T14:57:01Z</time>
      </trkpt>
      <trkpt lat="44.04199" lon="2.01565">
        <ele>318</ele>
        <time>2011-03-26T14:57:02Z</time>
      </trkpt>
      <trkpt lat="44.04203" lon="2.01569">
        <ele>318</ele>
        <time>2011-03-26T14:57:03Z</time>
      </trkpt>
      <trkpt lat="44.04206" lon="2.01572">
        <ele>318</ele>
        <time>2011-03-26T14:57:04Z</time>
      </trkpt>
      <trkpt lat="44.0421" lon="2.01575">
        <ele>315</ele>
        <time>2011-03-26T14:57:05Z</time>
      </trkpt>
      <trkpt lat="44.04213" lon="2.01578">
        <ele>315</ele>
        <time>2011-03-26T14:57:06Z</time>
      </trkpt>
      <trkpt lat="44.04216" lon="2.0158">
        <ele>315</ele>
        <time>2011-03-26T14:57:07Z</time>
      </trkpt>
      <trkpt lat="44.0422" lon="2.01582">
        <ele>315</ele>
        <time>2011-03-26T14:57:08Z</time>
      </trkpt>
      <trkpt lat="44.04223" lon="2.01585">
        <ele>315</ele>
        <time>2011-03-26T14:57:09Z</time>
      </trkpt>
      <trkpt lat="44.04227" lon="2.01588">
        <ele>315</ele>
        <time>2011-03-26T14:57:10Z</time>
      </trkpt>
      <trkpt lat="44.04231" lon="2.0159">
        <ele>315</ele>
        <time>2011-03-26T14:57:11Z</time>
      </trkpt>
      <trkpt lat="44.04235" lon="2.01593">
        <ele>315</ele>
        <time>2011-03-26T14:57:12Z</time>
      </trkpt>
      <trkpt lat="44.04239" lon="2.01596">
        <ele>315</ele>
        <time>2011-03-26T14:57:13Z</time>
      </trkpt>
      <trkpt lat="44.04244" lon="2.01599">
        <ele>315</ele>
        <time>2011-03-26T14:57:14Z</time>
      </trkpt>
      <trkpt lat="44.04248" lon="2.01601">
        <ele>315</ele>
        <time>2011-03-26T14:57:15Z</time>
      </trkpt>
      <trkpt lat="44.04252" lon="2.01604">
        <ele>315</ele>
        <time>2011-03-26T14:57:16Z</time>
      </trkpt>
      <trkpt lat="44.04256" lon="2.01606">
        <ele>315</ele>
        <time>2011-03-26T14:57:17Z</time>
      </trkpt>
      <trkpt lat="44.0426" lon="2.01609">
        <ele>315</ele>
        <time>2011-03-26T14:57:18Z</time>
      </trkpt>
      <trkpt lat="44.04264" lon="2.01612">
        <ele>315</ele>
        <time>2011-03-26T14:57:19Z</time>
      </trkpt>
      <trkpt lat="44.04268" lon="2.01615">
        <ele>315</ele>
        <time>2011-03-26T14:57:20Z</time>
      </trkpt>
      <trkpt lat="44.04273" lon="2.01618">
        <ele>315</ele>
        <time>2011-03-26T14:57:21Z</time>
      </trkpt>
      <trkpt lat="44.04277" lon="2.01621">
        <ele>315</ele>
        <time>2011-03-26T14:57:22Z</time>
      </trkpt>
      <trkpt lat="44.04282" lon="2.01625">
        <ele>315</ele>
        <time>2011-03-26T14:57:23Z</time>
      </trkpt>
      <trkpt lat="44.04287" lon="2.01628">
        <ele>315</ele>
        <time>2011-03-26T14:57:24Z</time>
      </trkpt>
      <trkpt lat="44.04292" lon="2.01631">
        <ele>315</ele>
        <time>2011-03-26T14:57:25Z</time>
      </trkpt>
      <trkpt lat="44.04297" lon="2.01635">
        <ele>310</ele>
        <time>2011-03-26T14:57:26Z</time>
      </trkpt>
      <trkpt lat="44.04302" lon="2.01638">
        <ele>310</ele>
        <time>2011-03-26T14:57:27Z</time>
      </trkpt>
      <trkpt lat="44.04308" lon="2.01642">
        <ele>310</ele>
        <time>2011-03-26T14:57:28Z</time>
      </trkpt>
      <trkpt lat="44.04315" lon="2.01646">
        <ele>310</ele>
        <time>2011-03-26T14:57:29Z</time>
      </trkpt>
      <trkpt lat="44.04321" lon="2.0165">
        <ele>310</ele>
        <time>2011-03-26T14:57:30Z</time>
      </trkpt>
      <trkpt lat="44.04328" lon="2.01654">
        <ele>310</ele>
        <time>2011-03-26T14:57:31Z</time>
      </trkpt>
      <trkpt lat="44.04335" lon="2.01659">
        <ele>310</ele>
        <time>2011-03-26T14:57:32Z</time>
      </trkpt>
      <trkpt lat="44.04342" lon="2.01663">
        <ele>310</ele>
        <time>2011-03-26T14:57:33Z</time>
      </trkpt>
      <trkpt lat="44.04349" lon="2.01668">
        <ele>310</ele>
        <time>2011-03-26T14:57:34Z</time>
      </trkpt>
      <trkpt lat="44.04356" lon="2.01673">
        <ele>310</ele>
        <time>2011-03-26T14:57:35Z</time>
      </trkpt>
      <trkpt lat="44.04364" lon="2.01678">
        <ele>310</ele>
        <time>2011-03-26T14:57:36Z</time>
      </trkpt>
      <trkpt lat="44.04372" lon="2.01684">
        <ele>310</ele>
        <time>2011-03-26T14:57:37Z</time>
      </trkpt>
      <trkpt lat="44.04381" lon="2.01689">
        <ele>306</ele>
        <time>2011-03-26T14:57:38Z</time>
      </trkpt>
      <trkpt lat="44.0439" lon="2.01695">
        <ele>306</ele>
        <time>2011-03-26T14:57:39Z</time>
      </trkpt>
      <trkpt lat="44.04399" lon="2.01701">
        <ele>306</ele>
        <time>2011-03-26T14:57:40Z</time>
      </trkpt>
      <trkpt lat="44.04409" lon="2.01706">
        <ele>306</ele>
        <time>2011-03-26T14:57:41Z</time>
      </trkpt>
      <trkpt lat="44.04419" lon="2.01711">
        <ele>305</ele>
        <time>2011-03-26T14:57:42Z</time>
      </trkpt>
      <trkpt lat="44.04429" lon="2.01716">
        <ele>305</ele>
        <time>2011-03-26T14:57:43Z</time>
      </trkpt>
      <trkpt lat="44.04439" lon="2.0172">
        <ele>305</ele>
        <time>2011-03-26T14:57:44Z</time>
      </trkpt>
      <trkpt lat="44.04448" lon="2.01725">
        <ele>305</ele>
        <time>2011-03-26T14:57:45Z</time>
      </trkpt>
      <trkpt lat="44.04458" lon="2.01729">
        <ele>306</ele>
        <time>2011-03-26T14:57:46Z</time>
      </trkpt>
      <trkpt lat="44.04468" lon="2.01732">
        <ele>306</ele>
        <time>2011-03-26T14:57:47Z</time>
      </trkpt>
      <trkpt lat="44.04478" lon="2.01736">
        <ele>306</ele>
        <time>2011-03-26T14:57:48Z</time>
      </trkpt>
      <trkpt lat="44.04487" lon="2.01739">
        <ele>306</ele>
        <time>2011-03-26T14:57:49Z</time>
      </trkpt>
      <trkpt lat="44.04496" lon="2.01741">
        <ele>306</ele>
        <time>2011-03-26T14:57:50Z</time>
      </trkpt>
      <trkpt lat="44.04504" lon="2.01744">
        <ele>306</ele>
        <time>2011-03-26T14:57:51Z</time>
      </trkpt>
      <trkpt lat="44.04512" lon="2.01746">
        <ele>306</ele>
        <time>2011-03-26T14:57:52Z</time>
      </trkpt>
      <trkpt lat="44.04519" lon="2.01748">
        <ele>306</ele>
        <time>2011-03-26T14:57:53Z</time>
      </trkpt>
      <trkpt lat="44.04526" lon="2.0175">
        <ele>306</ele>
        <time>2011-03-26T14:57:54Z</time>
      </trkpt>
      <trkpt lat="44.04532" lon="2.01753">
        <ele>306</ele>
        <time>2011-03-26T14:57:55Z</time>
      </trkpt>
      <trkpt lat="44.04538" lon="2.01755">
        <ele>306</ele>
        <time>2011-03-26T14:57:56Z</time>
      </trkpt>
      <trkpt lat="44.04544" lon="2.01757">
        <ele>308</ele>
        <time>2011-03-26T14:57:57Z</time>
      </trkpt>
      <trkpt lat="44.04549" lon="2.01758">
        <ele>308</ele>
        <time>2011-03-26T14:57:58Z</time>
      </trkpt>
      <trkpt lat="44.04554" lon="2.0176">
        <ele>308</ele>
        <time>2011-03-26T14:57:59Z</time>
      </trkpt>
      <trkpt lat="44.04559" lon="2.01762">
        <ele>308</ele>
        <time>2011-03-26T14:58:00Z</time>
      </trkpt>
      <trkpt lat="44.04564" lon="2.01763">
        <ele>308</ele>
        <time>2011-03-26T14:58:01Z</time>
      </trkpt>
      <trkpt lat="44.04568" lon="2.01764">
        <ele>308</ele>
        <time>2011-03-26T14:58:02Z</time>
      </trkpt>
      <trkpt lat="44.04572" lon="2.01766">
        <ele>308</ele>
        <time>2011-03-26T14:58:03Z</time>
      </trkpt>
      <trkpt lat="44.04576" lon="2.01767">
        <ele>308</ele>
        <time>2011-03-26T14:58:04Z</time>
      </trkpt>
      <trkpt lat="44.0458" lon="2.01768">
        <ele>308</ele>
        <time>2011-03-26T14:58:05Z</time>
      </trkpt>
      <trkpt lat="44.04584" lon="2.0177">
        <ele>308</ele>
        <time>2011-03-26T14:58:06Z</time>
      </trkpt>
      <trkpt lat="44.04588" lon="2.01772">
        <ele>308</ele>
        <time>2011-03-26T14:58:07Z</time>
      </trkpt>
      <trkpt lat="44.04592" lon="2.01773">
        <ele>308</ele>
        <time>2011-03-26T14:58:08Z</time>
      </trkpt>
      <trkpt lat="44.04595" lon="2.01775">
        <ele>308</ele>
        <time>2011-03-26T14:58:09Z</time>
      </trkpt>
      <trkpt lat="44.04599" lon="2.01776">
        <ele>308</ele>
        <time>2011-03-26T14:58:10Z</time>
      </trkpt>
      <trkpt lat="44.04603" lon="2.01778">
        <ele>308</ele>
        <time>2011-03-26T14:58:11Z</time>
      </trkpt>
      <trkpt lat="44.04607" lon="2.0178">
        <ele>308</ele>
        <time>2011-03-26T14:58:12Z</time>
      </trkpt>
      <trkpt lat="44.04611" lon="2.01781">
        <ele>308</ele>
        <time>2011-03-26T14:58:13Z</time>
      </trkpt>
      <trkpt lat="44.04615" lon="2.01783">
        <ele>308</ele>
        <time>2011-03-26T14:58:14Z</time>
      </trkpt>
      <trkpt lat="44.04618" lon="2.01784">
        <ele>308</ele>
        <time>2011-03-26T14:58:15Z</time>
      </trkpt>
      <trkpt lat="44.04622" lon="2.01785">
        <ele>308</ele>
        <time>2011-03-26T14:58:16Z</time>
      </trkpt>
      <trkpt lat="44.04625" lon="2.01786">
        <ele>314</ele>
        <time>2011-03-26T14:58:17Z</time>
      </trkpt>
      <trkpt lat="44.04628" lon="2.01787">
        <ele>314</ele>
        <time>2011-03-26T14:58:18Z</time>
      </trkpt>
      <trkpt lat="44.04632" lon="2.01788">
        <ele>314</ele>
        <time>2011-03-26T14:58:19Z</time>
      </trkpt>
      <trkpt lat="44.04634" lon="2.01789">
        <ele>314</ele>
        <time>2011-03-26T14:58:20Z</time>
      </trkpt>
      <trkpt lat="44.04637" lon="2.0179">
        <ele>314</ele>
        <time>2011-03-26T14:58:21Z</time>
      </trkpt>
      <trkpt lat="44.0464" lon="2.0179">
        <ele>314</ele>
        <time>2011-03-26T14:58:22Z</time>
      </trkpt>
      <trkpt lat="44.04643" lon="2.0179">
        <ele>314</ele>
        <time>2011-03-26T14:58:23Z</time>
      </trkpt>
      <trkpt lat="44.04646" lon="2.01791">
        <ele>314</ele>
        <time>2011-03-26T14:58:24Z</time>
      </trkpt>
      <trkpt lat="44.04649" lon="2.01791">
        <ele>314</ele>
        <time>2011-03-26T14:58:25Z</time>
      </trkpt>
      <trkpt lat="44.04652" lon="2.01791">
        <ele>314</ele>
        <time>2011-03-26T14:58:26Z</time>
      </trkpt>
      <trkpt lat="44.04655" lon="2.01792">
        <ele>314</ele>
        <time>2011-03-26T14:58:27Z</time>
      </trkpt>
      <trkpt lat="44.04658" lon="2.01791">
        <ele>314</ele>
        <time>2011-03-26T14:58:28Z</time>
      </trkpt>
      <trkpt lat="44.04661" lon="2.01791">
        <ele>314</ele>
        <time>2011-03-26T14:58:29Z</time>
      </trkpt>
      <trkpt lat="44.04664" lon="2.01791">
        <ele>314</ele>
        <time>2011-03-26T14:58:30Z</time>
      </trkpt>
      <trkpt lat="44.04667" lon="2.01791">
        <ele>314</ele>
        <time>2011-03-26T14:58:31Z</time>
      </trkpt>
      <trkpt lat="44.0467" lon="2.01791">
        <ele>314</ele>
        <time>2011-03-26T14:58:32Z</time>
      </trkpt>
      <trkpt lat="44.04674" lon="2.01791">
        <ele>314</ele>
        <time>2011-03-26T14:58:33Z</time>
      </trkpt>
      <trkpt lat="44.04678" lon="2.01791">
        <ele>314</ele>
        <time>2011-03-26T14:58:34Z</time>
      </trkpt>
      <trkpt lat="44.04681" lon="2.01792">
        <ele>314</ele>
        <time>2011-03-26T14:58:35Z</time>
      </trkpt>
      <trkpt lat="44.04685" lon="2.01792">
        <ele>317</ele>
        <time>2011-03-26T14:58:36Z</time>
      </trkpt>
      <trkpt lat="44.04688" lon="2.01793">
        <ele>317</ele>
        <time>2011-03-26T14:58:37Z</time>
      </trkpt>
      <trkpt lat="44.04692" lon="2.01793">
        <ele>317</ele>
        <time>2011-03-26T14:58:38Z</time>
      </trkpt>
      <trkpt lat="44.04696" lon="2.01794">
        <ele>317</ele>
        <time>2011-03-26T14:58:39Z</time>
      </trkpt>
      <trkpt lat="44.047" lon="2.01795">
        <ele>317</ele>
        <time>2011-03-26T14:58:40Z</time>
      </trkpt>
      <trkpt lat="44.04704" lon="2.01796">
        <ele>317</ele>
        <time>2011-03-26T14:58:41Z</time>
      </trkpt>
      <trkpt lat="44.04707" lon="2.01796">
        <ele>317</ele>
        <time>2011-03-26T14:58:42Z</time>
      </trkpt>
      <trkpt lat="44.04711" lon="2.01797">
        <ele>317</ele>
        <time>2011-03-26T14:58:43Z</time>
      </trkpt>
      <trkpt lat="44.04715" lon="2.01797">
        <ele>317</ele>
        <time>2011-03-26T14:58:44Z</time>
      </trkpt>
      <trkpt lat="44.04718" lon="2.01798">
        <ele>317</ele>
        <time>2011-03-26T14:58:45Z</time>
      </trkpt>
      <trkpt lat="44.04721" lon="2.01798">
        <ele>317</ele>
        <time>2011-03-26T14:58:46Z</time>
      </trkpt>
      <trkpt lat="44.04725" lon="2.01798">
        <ele>317</ele>
        <time>2011-03-26T14:58:47Z</time>
      </trkpt>
      <trkpt lat="44.04728" lon="2.01799">
        <ele>317</ele>
        <time>2011-03-26T14:58:48Z</time>
      </trkpt>
      <trkpt lat="44.04731" lon="2.01799">
        <ele>317</ele>
        <time>2011-03-26T14:58:49Z</time>
      </trkpt>
      <trkpt lat="44.04734" lon="2.018">
        <ele>317</ele>
        <time>2011-03-26T14:58:50Z</time>
      </trkpt>
      <trkpt lat="44.04737" lon="2.01801">
        <ele>317</ele>
        <time>2011-03-26T14:58:51Z</time>
      </trkpt>
      <trkpt lat="44.0474" lon="2.01801">
        <ele>317</ele>
        <time>2011-03-26T14:58:52Z</time>
      </trkpt>
      <trkpt lat="44.04743" lon="2.01802">
        <ele>317</ele>
        <time>2011-03-26T14:58:53Z</time>
      </trkpt>
      <trkpt lat="44.04746" lon="2.01803">
        <ele>317</ele>
        <time>2011-03-26T14:58:54Z</time>
      </trkpt>
      <trkpt lat="44.04748" lon="2.01804">
        <ele>317</ele>
        <time>2011-03-26T14:58:55Z</time>
      </trkpt>
      <trkpt lat="44.04751" lon="2.01804">
        <ele>317</ele>
        <time>2011-03-26T14:58:56Z</time>
      </trkpt>
      <trkpt lat="44.04754" lon="2.01805">
        <ele>317</ele>
        <time>2011-03-26T14:58:57Z</time>
      </trkpt>
      <trkpt lat="44.04756" lon="2.01805">
        <ele>317</ele>
        <time>2011-03-26T14:58:58Z</time>
      </trkpt>
      <trkpt lat="44.04759" lon="2.01806">
        <ele>317</ele>
        <time>2011-03-26T14:58:59Z</time>
      </trkpt>
      <trkpt lat="44.04762" lon="2.01807">
        <ele>317</ele>
        <time>2011-03-26T14:59:00Z</time>
      </trkpt>
      <trkpt lat="44.04765" lon="2.01808">
        <ele>317</ele>
        <time>2011-03-26T14:59:01Z</time>
      </trkpt>
      <trkpt lat="44.04768" lon="2.01809">
        <ele>317</ele>
        <time>2011-03-26T14:59:02Z</time>
      </trkpt>
      <trkpt lat="44.04771" lon="2.01811">
        <ele>317</ele>
        <time>2011-03-26T14:59:03Z</time>
      </trkpt>
      <trkpt lat="44.04774" lon="2.01812">
        <ele>317</ele>
        <time>2011-03-26T14:59:04Z</time>
      </trkpt>
      <trkpt lat="44.04778" lon="2.01813">
        <ele>317</ele>
        <time>2011-03-26T14:59:05Z</time>
      </trkpt>
      <trkpt lat="44.04782" lon="2.01815">
        <ele>317</ele>
        <time>2011-03-26T14:59:06Z</time>
      </trkpt>
      <trkpt lat="44.04786" lon="2.01816">
        <ele>317</ele>
        <time>2011-03-26T14:59:07Z</time>
      </trkpt>
      <trkpt lat="44.0479" lon="2.01818">
        <ele>317</ele>
        <time>2011-03-26T14:59:08Z</time>
      </trkpt>
      <trkpt lat="44.04794" lon="2.0182">
        <ele>314</ele>
        <time>2011-03-26T14:59:09Z</time>
      </trkpt>
      <trkpt lat="44.04799" lon="2.01822">
        <ele>314</ele>
        <time>2011-03-26T14:59:10Z</time>
      </trkpt>
      <trkpt lat="44.04804" lon="2.01824">
        <ele>314</ele>
        <time>2011-03-26T14:59:11Z</time>
      </trkpt>
      <trkpt lat="44.04808" lon="2.01826">
        <ele>314</ele>
        <time>2011-03-26T14:59:12Z</time>
      </trkpt>
      <trkpt lat="44.04814" lon="2.01828">
        <ele>314</ele>
        <time>2011-03-26T14:59:13Z</time>
      </trkpt>
      <trkpt lat="44.04821" lon="2.01831">
        <ele>314</ele>
        <time>2011-03-26T14:59:14Z</time>
      </trkpt>
      <trkpt lat="44.04827" lon="2.01833">
        <ele>314</ele>
        <time>2011-03-26T14:59:15Z</time>
      </trkpt>
      <trkpt lat="44.04833" lon="2.01836">
        <ele>314</ele>
        <time>2011-03-26T14:59:16Z</time>
      </trkpt>
      <trkpt lat="44.0484" lon="2.01839">
        <ele>314</ele>
        <time>2011-03-26T14:59:17Z</time>
      </trkpt>
      <trkpt lat="44.04847" lon="2.01841">
        <ele>314</ele>
        <time>2011-03-26T14:59:18Z</time>
      </trkpt>
      <trkpt lat="44.04854" lon="2.01844">
        <ele>314</ele>
        <time>2011-03-26T14:59:19Z</time>
      </trkpt>
      <trkpt lat="44.04861" lon="2.01847">
        <ele>314</ele>
        <time>2011-03-26T14:59:20Z</time>
      </trkpt>
      <trkpt lat="44.04868" lon="2.01849">
        <ele>314</ele>
        <time>2011-03-26T14:59:21Z</time>
      </trkpt>
      <trkpt lat="44.04874" lon="2.01852">
        <ele>314</ele>
        <time>2011-03-26T14:59:22Z</time>
      </trkpt>
      <trkpt lat="44.0488" lon="2.01854">
        <ele>317</ele>
        <time>2011-03-26T14:59:23Z</time>
      </trkpt>
      <trkpt lat="44.04886" lon="2.01856">
        <ele>317</ele>
        <time>2011-03-26T14:59:24Z</time>
      </trkpt>
      <trkpt lat="44.04892" lon="2.01858">
        <ele>317</ele>
        <time>2011-03-26T14:59:25Z</time>
      </trkpt>
      <trkpt lat="44.04897" lon="2.01859">
        <ele>317</ele>
        <time>2011-03-26T14:59:26Z</time>
      </trkpt>
      <trkpt lat="44.04903" lon="2.0186">
        <ele>317</ele>
        <time>2011-03-26T14:59:27Z</time>
      </trkpt>
      <trkpt lat="44.04908" lon="2.01861">
        <ele>317</ele>
        <time>2011-03-26T14:59:28Z</time>
      </trkpt>
      <trkpt lat="44.04912" lon="2.01862">
        <ele>317</ele>
        <time>2011-03-26T14:59:29Z</time>
      </trkpt>
      <trkpt lat="44.04917" lon="2.01863">
        <ele>317</ele>
        <time>2011-03-26T14:59:30Z</time>
      </trkpt>
      <trkpt lat="44.04921" lon="2.01864">
        <ele>317</ele>
        <time>2011-03-26T14:59:31Z</time>
      </trkpt>
      <trkpt lat="44.04925" lon="2.01864">
        <ele>317</ele>
        <time>2011-03-26T14:59:32Z</time>
      </trkpt>
      <trkpt lat="44.04929" lon="2.01864">
        <ele>317</ele>
        <time>2011-03-26T14:59:33Z</time>
      </trkpt>
      <trkpt lat="44.04933" lon="2.01864">
        <ele>317</ele>
        <time>2011-03-26T14:59:34Z</time>
      </trkpt>
      <trkpt lat="44.04936" lon="2.01864">
        <ele>317</ele>
        <time>2011-03-26T14:59:35Z</time>
      </trkpt>
      <trkpt lat="44.0494" lon="2.01864">
        <ele>317</ele>
        <time>2011-03-26T14:59:36Z</time>
      </trkpt>
      <trkpt lat="44.04943" lon="2.01864">
        <ele>317</ele>
        <time>2011-03-26T14:59:37Z</time>
      </trkpt>
      <trkpt lat="44.04947" lon="2.01863">
        <ele>317</ele>
        <time>2011-03-26T14:59:38Z</time>
      </trkpt>
      <trkpt lat="44.0495" lon="2.01863">
        <ele>317</ele>
        <time>2011-03-26T14:59:39Z</time>
      </trkpt>
      <trkpt lat="44.04954" lon="2.01863">
        <ele>317</ele>
        <time>2011-03-26T14:59:40Z</time>
      </trkpt>
      <trkpt lat="44.04957" lon="2.01863">
        <ele>317</ele>
        <time>2011-03-26T14:59:41Z</time>
      </trkpt>
      <trkpt lat="44.04961" lon="2.01863">
        <ele>319</ele>
        <time>2011-03-26T14:59:42Z</time>
      </trkpt>
      <trkpt lat="44.04964" lon="2.01863">
        <ele>319</ele>
        <time>2011-03-26T14:59:43Z</time>
      </trkpt>
      <trkpt lat="44.04968" lon="2.01863">
        <ele>319</ele>
        <time>2011-03-26T14:59:44Z</time>
      </trkpt>
      <trkpt lat="44.04972" lon="2.01863">
        <ele>319</ele>
        <time>2011-03-26T14:59:45Z</time>
      </trkpt>
      <trkpt lat="44.04976" lon="2.01863">
        <ele>319</ele>
        <time>2011-03-26T14:59:46Z</time>
      </trkpt>
      <trkpt lat="44.04979" lon="2.01863">
        <ele>319</ele>
        <time>2011-03-26T14:59:47Z</time>
      </trkpt>
      <trkpt lat="44.04983" lon="2.01863">
        <ele>319</ele>
        <time>2011-03-26T14:59:48Z</time>
      </trkpt>
      <trkpt lat="44.04986" lon="2.01864">
        <ele>319</ele>
        <time>2011-03-26T14:59:49Z</time>
      </trkpt>
      <trkpt lat="44.0499" lon="2.01864">
        <ele>319</ele>
        <time>2011-03-26T14:59:50Z</time>
      </trkpt>
      <trkpt lat="44.04994" lon="2.01864">
        <ele>319</ele>
        <time>2011-03-26T14:59:51Z</time>
      </trkpt>
      <trkpt lat="44.04998" lon="2.01864">
        <ele>319</ele>
        <time>2011-03-26T14:59:52Z</time>
      </trkpt>
      <trkpt lat="44.05001" lon="2.01864">
        <ele>319</ele>
        <time>2011-03-26T14:59:53Z</time>
      </trkpt>
      <trkpt lat="44.05005" lon="2.01864">
        <ele>319</ele>
        <time>2011-03-26T14:59:54Z</time>
      </trkpt>
      <trkpt lat="44.05009" lon="2.01864">
        <ele>319</ele>
        <time>2011-03-26T14:59:55Z</time>
      </trkpt>
      <trkpt lat="44.05013" lon="2.01864">
        <ele>319</ele>
        <time>2011-03-26T14:59:56Z</time>
      </trkpt>
      <trkpt lat="44.05017" lon="2.01863">
        <ele>319</ele>
        <time>2011-03-26T14:59:57Z</time>
      </trkpt>
      <trkpt lat="44.05022" lon="2.01863">
        <ele>319</ele>
        <time>2011-03-26T14:59:58Z</time>
      </trkpt>
      <trkpt lat="44.05026" lon="2.01863">
        <ele>319</ele>
        <time>2011-03-26T14:59:59Z</time>
      </trkpt>
      <trkpt lat="44.0503" lon="2.01863">
        <ele>319</ele>
        <time>2011-03-26T15:00:00Z</time>
      </trkpt>
      <trkpt lat="44.05034" lon="2.01862">
        <ele>319</ele>
        <time>2011-03-26T15:00:01Z</time>
      </trkpt>
      <trkpt lat="44.05038" lon="2.01861">
        <ele>319</ele>
        <time>2011-03-26T15:00:02Z</time>
      </trkpt>
      <trkpt lat="44.05041" lon="2.0186">
        <ele>319</ele>
        <time>2011-03-26T15:00:03Z</time>
      </trkpt>
      <trkpt lat="44.05044" lon="2.01858">
        <ele>320</ele>
        <time>2011-03-26T15:00:04Z</time>
      </trkpt>
      <trkpt lat="44.05047" lon="2.01854">
        <ele>320</ele>
        <time>2011-03-26T15:00:05Z</time>
      </trkpt>
      <trkpt lat="44.0505" lon="2.0185">
        <ele>320</ele>
        <time>2011-03-26T15:00:06Z</time>
      </trkpt>
      <trkpt lat="44.05052" lon="2.01845">
        <ele>320</ele>
        <time>2011-03-26T15:00:07Z</time>
      </trkpt>
      <trkpt lat="44.05054" lon="2.0184">
        <ele>320</ele>
        <time>2011-03-26T15:00:08Z</time>
      </trkpt>
      <trkpt lat="44.05055" lon="2.01834">
        <ele>320</ele>
        <time>2011-03-26T15:00:09Z</time>
      </trkpt>
      <trkpt lat="44.05055" lon="2.01828">
        <ele>320</ele>
        <time>2011-03-26T15:00:10Z</time>
      </trkpt>
      <trkpt lat="44.05056" lon="2.01822">
        <ele>320</ele>
        <time>2011-03-26T15:00:11Z</time>
      </trkpt>
      <trkpt lat="44.05057" lon="2.01816">
        <ele>320</ele>
        <time>2011-03-26T15:00:12Z</time>
      </trkpt>
      <trkpt lat="44.05058" lon="2.01809">
        <ele>320</ele>
        <time>2011-03-26T15:00:13Z</time>
      </trkpt>
      <trkpt lat="44.05059" lon="2.01803">
        <ele>320</ele>
        <time>2011-03-26T15:00:14Z</time>
      </trkpt>
      <trkpt lat="44.0506" lon="2.01797">
        <ele>320</ele>
        <time>2011-03-26T15:00:15Z</time>
      </trkpt>
      <trkpt lat="44.05061" lon="2.0179">
        <ele>320</ele>
        <time>2011-03-26T15:00:16Z</time>
      </trkpt>
      <trkpt lat="44.05063" lon="2.01784">
        <ele>320</ele>
        <time>2011-03-26T15:00:17Z</time>
      </trkpt>
      <trkpt lat="44.05064" lon="2.01777">
        <ele>320</ele>
        <time>2011-03-26T15:00:18Z</time>
      </trkpt>
      <trkpt lat="44.05065" lon="2.01771">
        <ele>320</ele>
        <time>2011-03-26T15:00:19Z</time>
      </trkpt>
      <trkpt lat="44.05066" lon="2.01764">
        <ele>320</ele>
        <time>2011-03-26T15:00:20Z</time>
      </trkpt>
      <trkpt lat="44.05067" lon="2.01757">
        <ele>320</ele>
        <time>2011-03-26T15:00:21Z</time>
      </trkpt>
      <trkpt lat="44.05067" lon="2.0175">
        <ele>320</ele>
        <time>2011-03-26T15:00:22Z</time>
      </trkpt>
      <trkpt lat="44.05068" lon="2.01743">
        <ele>320</ele>
        <time>2011-03-26T15:00:23Z</time>
      </trkpt>
      <trkpt lat="44.05069" lon="2.01737">
        <ele>320</ele>
        <time>2011-03-26T15:00:24Z</time>
      </trkpt>
      <trkpt lat="44.0507" lon="2.01731">
        <ele>320</ele>
        <time>2011-03-26T15:00:25Z</time>
      </trkpt>
      <trkpt lat="44.05071" lon="2.01725">
        <ele>320</ele>
        <time>2011-03-26T15:00:26Z</time>
      </trkpt>
      <trkpt lat="44.05071" lon="2.01718">
        <ele>320</ele>
        <time>2011-03-26T15:00:27Z</time>
      </trkpt>
      <trkpt lat="44.05072" lon="2.01712">
        <ele>320</ele>
        <time>2011-03-26T15:00:28Z</time>
      </trkpt>
      <trkpt lat="44.05073" lon="2.01706">
        <ele>321</ele>
        <time>2011-03-26T15:00:29Z</time>
      </trkpt>
      <trkpt lat="44.05074" lon="2.017">
        <ele>321</ele>
        <time>2011-03-26T15:00:30Z</time>
      </trkpt>
      <trkpt lat="44.05074" lon="2.01693">
        <ele>321</ele>
        <time>2011-03-26T15:00:31Z</time>
      </trkpt>
      <trkpt lat="44.05074" lon="2.01686">
        <ele>321</ele>
        <time>2011-03-26T15:00:32Z</time>
      </trkpt>
      <trkpt lat="44.05075" lon="2.01679">
        <ele>321</ele>
        <time>2011-03-26T15:00:33Z</time>
      </trkpt>
      <trkpt lat="44.05075" lon="2.01673">
        <ele>321</ele>
        <time>2011-03-26T15:00:34Z</time>
      </trkpt>
      <trkpt lat="44.05074" lon="2.01667">
        <ele>321</ele>
        <time>2011-03-26T15:00:35Z</time>
      </trkpt>
      <trkpt lat="44.05074" lon="2.0166">
        <ele>321</ele>
        <time>2011-03-26T15:00:36Z</time>
      </trkpt>
      <trkpt lat="44.05074" lon="2.01654">
        <ele>321</ele>
        <time>2011-03-26T15:00:37Z</time>
      </trkpt>
      <trkpt lat="44.05073" lon="2.01647">
        <ele>321</ele>
        <time>2011-03-26T15:00:38Z</time>
      </trkpt>
      <trkpt lat="44.05073" lon="2.0164">
        <ele>321</ele>
        <time>2011-03-26T15:00:39Z</time>
      </trkpt>
      <trkpt lat="44.05072" lon="2.01633">
        <ele>321</ele>
        <time>2011-03-26T15:00:40Z</time>
      </trkpt>
      <trkpt lat="44.05071" lon="2.01627">
        <ele>321</ele>
        <time>2011-03-26T15:00:41Z</time>
      </trkpt>
      <trkpt lat="44.05071" lon="2.0162">
        <ele>320</ele>
        <time>2011-03-26T15:00:42Z</time>
      </trkpt>
      <trkpt lat="44.0507" lon="2.01614">
        <ele>320</ele>
        <time>2011-03-26T15:00:43Z</time>
      </trkpt>
      <trkpt lat="44.0507" lon="2.01608">
        <ele>320</ele>
        <time>2011-03-26T15:00:44Z</time>
      </trkpt>
      <trkpt lat="44.0507" lon="2.01602">
        <ele>320</ele>
        <time>2011-03-26T15:00:45Z</time>
      </trkpt>
      <trkpt lat="44.05069" lon="2.01595">
        <ele>320</ele>
        <time>2011-03-26T15:00:46Z</time>
      </trkpt>
      <trkpt lat="44.05069" lon="2.01589">
        <ele>320</ele>
        <time>2011-03-26T15:00:47Z</time>
      </trkpt>
      <trkpt lat="44.05068" lon="2.01583">
        <ele>320</ele>
        <time>2011-03-26T15:00:48Z</time>
      </trkpt>
      <trkpt lat="44.05067" lon="2.01577">
        <ele>320</ele>
        <time>2011-03-26T15:00:49Z</time>
      </trkpt>
      <trkpt lat="44.05066" lon="2.0157">
        <ele>320</ele>
        <time>2011-03-26T15:00:50Z</time>
      </trkpt>
      <trkpt lat="44.05065" lon="2.01563">
        <ele>320</ele>
        <time>2011-03-26T15:00:51Z</time>
      </trkpt>
      <trkpt lat="44.05064" lon="2.01556">
        <ele>320</ele>
        <time>2011-03-26T15:00:52Z</time>
      </trkpt>
      <trkpt lat="44.05063" lon="2.01549">
        <ele>320</ele>
        <time>2011-03-26T15:00:53Z</time>
      </trkpt>
      <trkpt lat="44.05063" lon="2.01541">
        <ele>319</ele>
        <time>2011-03-26T15:00:54Z</time>
      </trkpt>
      <trkpt lat="44.05062" lon="2.01534">
        <ele>319</ele>
        <time>2011-03-26T15:00:55Z</time>
      </trkpt>
      <trkpt lat="44.05062" lon="2.01526">
        <ele>319</ele>
        <time>2011-03-26T15:00:56Z</time>
      </trkpt>
      <trkpt lat="44.05062" lon="2.01517">
        <ele>319</ele>
        <time>2011-03-26T15:00:57Z</time>
      </trkpt>
      <trkpt lat="44.05062" lon="2.01509">
        <ele>319</ele>
        <time>2011-03-26T15:00:58Z</time>
      </trkpt>
      <trkpt lat="44.05061" lon="2.01501">
        <ele>319</ele>
        <time>2011-03-26T15:00:59Z</time>
      </trkpt>
      <trkpt lat="44.05061" lon="2.01493">
        <ele>319</ele>
        <time>2011-03-26T15:01:00Z</time>
      </trkpt>
      <trkpt lat="44.05061" lon="2.01485">
        <ele>319</ele>
        <time>2011-03-26T15:01:01Z</time>
      </trkpt>
      <trkpt lat="44.05061" lon="2.01478">
        <ele>319</ele>
        <time>2011-03-26T15:01:02Z</time>
      </trkpt>
      <trkpt lat="44.0506" lon="2.0147">
        <ele>319</ele>
        <time>2011-03-26T15:01:03Z</time>
      </trkpt>
      <trkpt lat="44.05059" lon="2.01462">
        <ele>319</ele>
        <time>2011-03-26T15:01:04Z</time>
      </trkpt>
      <trkpt lat="44.05058" lon="2.01455">
        <ele>317</ele>
        <time>2011-03-26T15:01:05Z</time>
      </trkpt>
      <trkpt lat="44.05056" lon="2.01448">
        <ele>317</ele>
        <time>2011-03-26T15:01:06Z</time>
      </trkpt>
      <trkpt lat="44.05054" lon="2.0144">
        <ele>317</ele>
        <time>2011-03-26T15:01:07Z</time>
      </trkpt>
      <trkpt lat="44.05051" lon="2.01434">
        <ele>317</ele>
        <time>2011-03-26T15:01:08Z</time>
      </trkpt>
      <trkpt lat="44.05048" lon="2.01427">
        <ele>317</ele>
        <time>2011-03-26T15:01:09Z</time>
      </trkpt>
      <trkpt lat="44.05046" lon="2.0142">
        <ele>317</ele>
        <time>2011-03-26T15:01:10Z</time>
      </trkpt>
      <trkpt lat="44.05043" lon="2.01414">
        <ele>317</ele>
        <time>2011-03-26T15:01:11Z</time>
      </trkpt>
      <trkpt lat="44.0504" lon="2.01408">
        <ele>313</ele>
        <time>2011-03-26T15:01:12Z</time>
      </trkpt>
      <trkpt lat="44.05037" lon="2.01402">
        <ele>313</ele>
        <time>2011-03-26T15:01:13Z</time>
      </trkpt>
      <trkpt lat="44.05034" lon="2.01395">
        <ele>313</ele>
        <time>2011-03-26T15:01:14Z</time>
      </trkpt>
      <trkpt lat="44.0503" lon="2.01389">
        <ele>313</ele>
        <time>2011-03-26T15:01:15Z</time>
      </trkpt>
      <trkpt lat="44.05027" lon="2.01383">
        <ele>313</ele>
        <time>2011-03-26T15:01:16Z</time>
      </trkpt>
      <trkpt lat="44.05024" lon="2.01376">
        <ele>313</ele>
        <time>2011-03-26T15:01:17Z</time>
      </trkpt>
      <trkpt lat="44.05021" lon="2.01369">
        <ele>314</ele>
        <time>2011-03-26T15:01:18Z</time>
      </trkpt>
      <trkpt lat="44.05018" lon="2.01363">
        <ele>314</ele>
        <time>2011-03-26T15:01:19Z</time>
      </trkpt>
      <trkpt lat="44.05015" lon="2.01356">
        <ele>314</ele>
        <time>2011-03-26T15:01:20Z</time>
      </trkpt>
      <trkpt lat="44.05012" lon="2.01349">
        <ele>314</ele>
        <time>2011-03-26T15:01:21Z</time>
      </trkpt>
      <trkpt lat="44.05008" lon="2.01341">
        <ele>314</ele>
        <time>2011-03-26T15:01:22Z</time>
      </trkpt>
      <trkpt lat="44.05005" lon="2.01334">
        <ele>314</ele>
        <time>2011-03-26T15:01:23Z</time>
      </trkpt>
      <trkpt lat="44.05002" lon="2.01327">
        <ele>314</ele>
        <time>2011-03-26T15:01:24Z</time>
      </trkpt>
      <trkpt lat="44.04999" lon="2.01319">
        <ele>314</ele>
        <time>2011-03-26T15:01:25Z</time>
      </trkpt>
      <trkpt lat="44.04995" lon="2.01312">
        <ele>314</ele>
        <time>2011-03-26T15:01:26Z</time>
      </trkpt>
      <trkpt lat="44.04992" lon="2.01305">
        <ele>314</ele>
        <time>2011-03-26T15:01:27Z</time>
      </trkpt>
      <trkpt lat="44.04988" lon="2.01297">
        <ele>314</ele>
        <time>2011-03-26T15:01:28Z</time>
      </trkpt>
      <trkpt lat="44.04985" lon="2.01289">
        <ele>312</ele>
        <time>2011-03-26T15:01:29Z</time>
      </trkpt>
      <trkpt lat="44.04982" lon="2.01281">
        <ele>312</ele>
        <time>2011-03-26T15:01:30Z</time>
      </trkpt>
      <trkpt lat="44.04979" lon="2.01273">
        <ele>312</ele>
        <time>2011-03-26T15:01:31Z</time>
      </trkpt>
      <trkpt lat="44.04976" lon="2.01264">
        <ele>312</ele>
        <time>2011-03-26T15:01:32Z</time>
      </trkpt>
      <trkpt lat="44.04973" lon="2.01255">
        <ele>312</ele>
        <time>2011-03-26T15:01:33Z</time>
      </trkpt>
      <trkpt lat="44.0497" lon="2.01246">
        <ele>312</ele>
        <time>2011-03-26T15:01:34Z</time>
      </trkpt>
      <trkpt lat="44.04968" lon="2.01236">
        <ele>312</ele>
        <time>2011-03-26T15:01:35Z</time>
      </trkpt>
      <trkpt lat="44.04967" lon="2.01228">
        <ele>312</ele>
        <time>2011-03-26T15:01:36Z</time>
      </trkpt>
      <trkpt lat="44.04965" lon="2.01219">
        <ele>312</ele>
        <time>2011-03-26T15:01:37Z</time>
      </trkpt>
      <trkpt lat="44.04962" lon="2.01211">
        <ele>312</ele>
        <time>2011-03-26T15:01:38Z</time>
      </trkpt>
      <trkpt lat="44.0496" lon="2.01202">
        <ele>307</ele>
        <time>2011-03-26T15:01:39Z</time>
      </trkpt>
      <trkpt lat="44.04958" lon="2.01194">
        <ele>297</ele>
        <time>2011-03-26T15:01:40Z</time>
      </trkpt>
      <trkpt lat="44.04954" lon="2.0119">
        <ele>297</ele>
        <time>2011-03-26T15:01:41Z</time>
      </trkpt>
      <trkpt lat="44.0495" lon="2.01187">
        <ele>297</ele>
        <time>2011-03-26T15:01:42Z</time>
      </trkpt>
      <trkpt lat="44.04945" lon="2.01187">
        <ele>297</ele>
        <time>2011-03-26T15:01:43Z</time>
      </trkpt>
      <trkpt lat="44.0494" lon="2.01188">
        <ele>297</ele>
        <time>2011-03-26T15:01:44Z</time>
      </trkpt>
      <trkpt lat="44.04934" lon="2.0119">
        <ele>297</ele>
        <time>2011-03-26T15:01:45Z</time>
      </trkpt>
      <trkpt lat="44.04928" lon="2.01193">
        <ele>297</ele>
        <time>2011-03-26T15:01:46Z</time>
      </trkpt>
      <trkpt lat="44.04919" lon="2.01199">
        <ele>297</ele>
        <time>2011-03-26T15:01:47Z</time>
      </trkpt>
      <trkpt lat="44.04912" lon="2.01204">
        <ele>297</ele>
        <time>2011-03-26T15:01:48Z</time>
      </trkpt>
      <trkpt lat="44.04906" lon="2.01209">
        <ele>303</ele>
        <time>2011-03-26T15:01:49Z</time>
      </trkpt>
      <trkpt lat="44.04902" lon="2.01213">
        <ele>303</ele>
        <time>2011-03-26T15:01:50Z</time>
      </trkpt>
      <trkpt lat="44.04899" lon="2.01217">
        <ele>303</ele>
        <time>2011-03-26T15:01:51Z</time>
      </trkpt>
      <trkpt lat="44.04895" lon="2.01219">
        <ele>303</ele>
        <time>2011-03-26T15:01:52Z</time>
      </trkpt>
      <trkpt lat="44.04891" lon="2.0122">
        <ele>303</ele>
        <time>2011-03-26T15:01:53Z</time>
      </trkpt>
      <trkpt lat="44.04888" lon="2.01217">
        <ele>303</ele>
        <time>2011-03-26T15:01:54Z</time>
      </trkpt>
      <trkpt lat="44.04885" lon="2.01215">
        <ele>303</ele>
        <time>2011-03-26T15:01:55Z</time>
      </trkpt>
      <trkpt lat="44.04885" lon="2.01209">
        <ele>303</ele>
        <time>2011-03-26T15:01:56Z</time>
      </trkpt>
      <trkpt lat="44.04884" lon="2.01202">
        <ele>297</ele>
        <time>2011-03-26T15:01:57Z</time>
      </trkpt>
      <trkpt lat="44.04883" lon="2.01193">
        <ele>297</ele>
        <time>2011-03-26T15:01:58Z</time>
      </trkpt>
      <trkpt lat="44.04882" lon="2.01183">
        <ele>297</ele>
        <time>2011-03-26T15:01:59Z</time>
      </trkpt>
      <trkpt lat="44.04881" lon="2.01172">
        <ele>297</ele>
        <time>2011-03-26T15:02:00Z</time>
      </trkpt>
      <trkpt lat="44.04881" lon="2.01161">
        <ele>297</ele>
        <time>2011-03-26T15:02:01Z</time>
      </trkpt>
      <trkpt lat="44.0488" lon="2.01148">
        <ele>297</ele>
        <time>2011-03-26T15:02:02Z</time>
      </trkpt>
      <trkpt lat="44.04879" lon="2.01136">
        <ele>297</ele>
        <time>2011-03-26T15:02:03Z</time>
      </trkpt>
      <trkpt lat="44.04879" lon="2.01123">
        <ele>285</ele>
        <time>2011-03-26T15:02:04Z</time>
      </trkpt>
      <trkpt lat="44.04879" lon="2.01111">
        <ele>285</ele>
        <time>2011-03-26T15:02:05Z</time>
      </trkpt>
      <trkpt lat="44.04881" lon="2.011">
        <ele>285</ele>
        <time>2011-03-26T15:02:06Z</time>
      </trkpt>
      <trkpt lat="44.04884" lon="2.01088">
        <ele>285</ele>
        <time>2011-03-26T15:02:07Z</time>
      </trkpt>
      <trkpt lat="44.04888" lon="2.01077">
        <ele>285</ele>
        <time>2011-03-26T15:02:08Z</time>
      </trkpt>
      <trkpt lat="44.04895" lon="2.01066">
        <ele>285</ele>
        <time>2011-03-26T15:02:09Z</time>
      </trkpt>
      <trkpt lat="44.04901" lon="2.01057">
        <ele>285</ele>
        <time>2011-03-26T15:02:10Z</time>
      </trkpt>
      <trkpt lat="44.04908" lon="2.01048">
        <ele>285</ele>
        <time>2011-03-26T15:02:11Z</time>
      </trkpt>
      <trkpt lat="44.04916" lon="2.01044">
        <ele>285</ele>
        <time>2011-03-26T15:02:12Z</time>
      </trkpt>
      <trkpt lat="44.04924" lon="2.01037">
        <ele>279</ele>
        <time>2011-03-26T15:02:13Z</time>
      </trkpt>
      <trkpt lat="44.04932" lon="2.01033">
        <ele>279</ele>
        <time>2011-03-26T15:02:14Z</time>
      </trkpt>
      <trkpt lat="44.0494" lon="2.0103">
        <ele>279</ele>
        <time>2011-03-26T15:02:15Z</time>
      </trkpt>
      <trkpt lat="44.04948" lon="2.01025">
        <ele>279</ele>
        <time>2011-03-26T15:02:16Z</time>
      </trkpt>
      <trkpt lat="44.04955" lon="2.01018">
        <ele>279</ele>
        <time>2011-03-26T15:02:17Z</time>
      </trkpt>
      <trkpt lat="44.04961" lon="2.01011">
        <ele>284</ele>
        <time>2011-03-26T15:02:18Z</time>
      </trkpt>
      <trkpt lat="44.04967" lon="2.01004">
        <ele>284</ele>
        <time>2011-03-26T15:02:19Z</time>
      </trkpt>
      <trkpt lat="44.04972" lon="2.00997">
        <ele>284</ele>
        <time>2011-03-26T15:02:20Z</time>
      </trkpt>
      <trkpt lat="44.04976" lon="2.0099">
        <ele>284</ele>
        <time>2011-03-26T15:02:21Z</time>
      </trkpt>
      <trkpt lat="44.04981" lon="2.00983">
        <ele>284</ele>
        <time>2011-03-26T15:02:22Z</time>
      </trkpt>
      <trkpt lat="44.04984" lon="2.00977">
        <ele>284</ele>
        <time>2011-03-26T15:02:23Z</time>
      </trkpt>
      <trkpt lat="44.04988" lon="2.0097">
        <ele>284</ele>
        <time>2011-03-26T15:02:24Z</time>
      </trkpt>
      <trkpt lat="44.04991" lon="2.00963">
        <ele>284</ele>
        <time>2011-03-26T15:02:25Z</time>
      </trkpt>
      <trkpt lat="44.04995" lon="2.00955">
        <ele>274</ele>
        <time>2011-03-26T15:02:26Z</time>
      </trkpt>
      <trkpt lat="44.04998" lon="2.00947">
        <ele>274</ele>
        <time>2011-03-26T15:02:27Z</time>
      </trkpt>
      <trkpt lat="44.05001" lon="2.00938">
        <ele>274</ele>
        <time>2011-03-26T15:02:28Z</time>
      </trkpt>
      <trkpt lat="44.05003" lon="2.00929">
        <ele>274</ele>
        <time>2011-03-26T15:02:29Z</time>
      </trkpt>
      <trkpt lat="44.05006" lon="2.00919">
        <ele>274</ele>
        <time>2011-03-26T15:02:30Z</time>
      </trkpt>
      <trkpt lat="44.05008" lon="2.00907">
        <ele>274</ele>
        <time>2011-03-26T15:02:31Z</time>
      </trkpt>
      <trkpt lat="44.0501" lon="2.00895">
        <ele>274</ele>
        <time>2011-03-26T15:02:32Z</time>
      </trkpt>
      <trkpt lat="44.05013" lon="2.00883">
        <ele>274</ele>
        <time>2011-03-26T15:02:33Z</time>
      </trkpt>
      <trkpt lat="44.05015" lon="2.00871">
        <ele>272</ele>
        <time>2011-03-26T15:02:34Z</time>
      </trkpt>
      <trkpt lat="44.05018" lon="2.0086">
        <ele>272</ele>
        <time>2011-03-26T15:02:35Z</time>
      </trkpt>
      <trkpt lat="44.05018" lon="2.0085">
        <ele>272</ele>
        <time>2011-03-26T15:02:36Z</time>
      </trkpt>
      <trkpt lat="44.0502" lon="2.00839">
        <ele>272</ele>
        <time>2011-03-26T15:02:37Z</time>
      </trkpt>
      <trkpt lat="44.0502" lon="2.00828">
        <ele>272</ele>
        <time>2011-03-26T15:02:38Z</time>
      </trkpt>
      <trkpt lat="44.0502" lon="2.00818">
        <ele>272</ele>
        <time>2011-03-26T15:02:39Z</time>
      </trkpt>
      <trkpt lat="44.0502" lon="2.00807">
        <ele>272</ele>
        <time>2011-03-26T15:02:40Z</time>
      </trkpt>
      <trkpt lat="44.0502" lon="2.00797">
        <ele>272</ele>
        <time>2011-03-26T15:02:41Z</time>
      </trkpt>
      <trkpt lat="44.05021" lon="2.00787">
        <ele>265</ele>
        <time>2011-03-26T15:02:42Z</time>
      </trkpt>
      <trkpt lat="44.05021" lon="2.00777">
        <ele>265</ele>
        <time>2011-03-26T15:02:43Z</time>
      </trkpt>
      <trkpt lat="44.05023" lon="2.00768">
        <ele>265</ele>
        <time>2011-03-26T15:02:44Z</time>
      </trkpt>
      <trkpt lat="44.05025" lon="2.00758">
        <ele>265</ele>
        <time>2011-03-26T15:02:45Z</time>
      </trkpt>
      <trkpt lat="44.05028" lon="2.00749">
        <ele>265</ele>
        <time>2011-03-26T15:02:46Z</time>
      </trkpt>
      <trkpt lat="44.05032" lon="2.0074">
        <ele>265</ele>
        <time>2011-03-26T15:02:47Z</time>
      </trkpt>
      <trkpt lat="44.05036" lon="2.00731">
        <ele>265</ele>
        <time>2011-03-26T15:02:48Z</time>
      </trkpt>
      <trkpt lat="44.05038" lon="2.0072">
        <ele>265</ele>
        <time>2011-03-26T15:02:49Z</time>
      </trkpt>
      <trkpt lat="44.05036" lon="2.00709">
        <ele>265</ele>
        <time>2011-03-26T15:02:50Z</time>
      </trkpt>
      <trkpt lat="44.05035" lon="2.00699">
        <ele>267</ele>
        <time>2011-03-26T15:02:51Z</time>
      </trkpt>
      <trkpt lat="44.05029" lon="2.00689">
        <ele>267</ele>
        <time>2011-03-26T15:02:52Z</time>
      </trkpt>
      <trkpt lat="44.05024" lon="2.00679">
        <ele>267</ele>
        <time>2011-03-26T15:02:53Z</time>
      </trkpt>
      <trkpt lat="44.05019" lon="2.00669">
        <ele>267</ele>
        <time>2011-03-26T15:02:54Z</time>
      </trkpt>
      <trkpt lat="44.05015" lon="2.0066">
        <ele>267</ele>
        <time>2011-03-26T15:02:55Z</time>
      </trkpt>
      <trkpt lat="44.05011" lon="2.00652">
        <ele>267</ele>
        <time>2011-03-26T15:02:56Z</time>
      </trkpt>
      <trkpt lat="44.05009" lon="2.00646">
        <ele>267</ele>
        <time>2011-03-26T15:02:57Z</time>
      </trkpt>
      <trkpt lat="44.05009" lon="2.00641">
        <ele>267</ele>
        <time>2011-03-26T15:02:58Z</time>
      </trkpt>
      <trkpt lat="44.0501" lon="2.00637">
        <ele>267</ele>
        <time>2011-03-26T15:02:59Z</time>
      </trkpt>
      <trkpt lat="44.05013" lon="2.00633">
        <ele>267</ele>
        <time>2011-03-26T15:03:00Z</time>
      </trkpt>
      <trkpt lat="44.05016" lon="2.0063">
        <ele>267</ele>
        <time>2011-03-26T15:03:01Z</time>
      </trkpt>
      <trkpt lat="44.0502" lon="2.00629">
        <ele>267</ele>
        <time>2011-03-26T15:03:02Z</time>
      </trkpt>
      <trkpt lat="44.05024" lon="2.00626">
        <ele>267</ele>
        <time>2011-03-26T15:03:03Z</time>
      </trkpt>
      <trkpt lat="44.05029" lon="2.00624">
        <ele>280</ele>
        <time>2011-03-26T15:03:04Z</time>
      </trkpt>
      <trkpt lat="44.05034" lon="2.00621">
        <ele>280</ele>
        <time>2011-03-26T15:03:05Z</time>
      </trkpt>
      <trkpt lat="44.05039" lon="2.00618">
        <ele>280</ele>
        <time>2011-03-26T15:03:06Z</time>
      </trkpt>
      <trkpt lat="44.05044" lon="2.00615">
        <ele>265</ele>
        <time>2011-03-26T15:03:07Z</time>
      </trkpt>
      <trkpt lat="44.05048" lon="2.00612">
        <ele>265</ele>
        <time>2011-03-26T15:03:08Z</time>
      </trkpt>
      <trkpt lat="44.05052" lon="2.00608">
        <ele>265</ele>
        <time>2011-03-26T15:03:09Z</time>
      </trkpt>
      <trkpt lat="44.05057" lon="2.00604">
        <ele>265</ele>
        <time>2011-03-26T15:03:10Z</time>
      </trkpt>
      <trkpt lat="44.0506" lon="2.00599">
        <ele>265</ele>
        <time>2011-03-26T15:03:11Z</time>
      </trkpt>
      <trkpt lat="44.05064" lon="2.00596">
        <ele>265</ele>
        <time>2011-03-26T15:03:12Z</time>
      </trkpt>
      <trkpt lat="44.05067" lon="2.00595">
        <ele>265</ele>
        <time>2011-03-26T15:03:13Z</time>
      </trkpt>
      <trkpt lat="44.05072" lon="2.00594">
        <ele>265</ele>
        <time>2011-03-26T15:03:14Z</time>
      </trkpt>
      <trkpt lat="44.05077" lon="2.00592">
        <ele>265</ele>
        <time>2011-03-26T15:03:15Z</time>
      </trkpt>
      <trkpt lat="44.05083" lon="2.00589">
        <ele>265</ele>
        <time>2011-03-26T15:03:16Z</time>
      </trkpt>
      <trkpt lat="44.05089" lon="2.00587">
        <ele>265</ele>
        <time>2011-03-26T15:03:17Z</time>
      </trkpt>
      <trkpt lat="44.05096" lon="2.00584">
        <ele>265</ele>
        <time>2011-03-26T15:03:18Z</time>
      </trkpt>
      <trkpt lat="44.05102" lon="2.00581">
        <ele>265</ele>
        <time>2011-03-26T15:03:19Z</time>
      </trkpt>
      <trkpt lat="44.05108" lon="2.00576">
        <ele>265</ele>
        <time>2011-03-26T15:03:20Z</time>
      </trkpt>
      <trkpt lat="44.05113" lon="2.00571">
        <ele>265</ele>
        <time>2011-03-26T15:03:21Z</time>
      </trkpt>
      <trkpt lat="44.05118" lon="2.00566">
        <ele>265</ele>
        <time>2011-03-26T15:03:22Z</time>
      </trkpt>
      <trkpt lat="44.05123" lon="2.00561">
        <ele>265</ele>
        <time>2011-03-26T15:03:23Z</time>
      </trkpt>
      <trkpt lat="44.05128" lon="2.00556">
        <ele>263</ele>
        <time>2011-03-26T15:03:24Z</time>
      </trkpt>
      <trkpt lat="44.05133" lon="2.0055">
        <ele>263</ele>
        <time>2011-03-26T15:03:25Z</time>
      </trkpt>
      <trkpt lat="44.05138" lon="2.00544">
        <ele>263</ele>
        <time>2011-03-26T15:03:26Z</time>
      </trkpt>
      <trkpt lat="44.05143" lon="2.00538">
        <ele>257</ele>
        <time>2011-03-26T15:03:27Z</time>
      </trkpt>
      <trkpt lat="44.05147" lon="2.00532">
        <ele>257</ele>
        <time>2011-03-26T15:03:28Z</time>
      </trkpt>
      <trkpt lat="44.05152" lon="2.00526">
        <ele>257</ele>
        <time>2011-03-26T15:03:29Z</time>
      </trkpt>
      <trkpt lat="44.05157" lon="2.00521">
        <ele>257</ele>
        <time>2011-03-26T15:03:30Z</time>
      </trkpt>
      <trkpt lat="44.05161" lon="2.00515">
        <ele>257</ele>
        <time>2011-03-26T15:03:31Z</time>
      </trkpt>
      <trkpt lat="44.05165" lon="2.00509">
        <ele>257</ele>
        <time>2011-03-26T15:03:32Z</time>
      </trkpt>
      <trkpt lat="44.05169" lon="2.00502">
        <ele>257</ele>
        <time>2011-03-26T15:03:33Z</time>
      </trkpt>
      <trkpt lat="44.05173" lon="2.00496">
        <ele>257</ele>
        <time>2011-03-26T15:03:34Z</time>
      </trkpt>
      <trkpt lat="44.05177" lon="2.00489">
        <ele>257</ele>
        <time>2011-03-26T15:03:35Z</time>
      </trkpt>
      <trkpt lat="44.0518" lon="2.00483">
        <ele>257</ele>
        <time>2011-03-26T15:03:36Z</time>
      </trkpt>
      <trkpt lat="44.05184" lon="2.00476">
        <ele>257</ele>
        <time>2011-03-26T15:03:37Z</time>
      </trkpt>
      <trkpt lat="44.05188" lon="2.00468">
        <ele>257</ele>
        <time>2011-03-26T15:03:38Z</time>
      </trkpt>
      <trkpt lat="44.05192" lon="2.00461">
        <ele>257</ele>
        <time>2011-03-26T15:03:39Z</time>
      </trkpt>
      <trkpt lat="44.05195" lon="2.00453">
        <ele>262</ele>
        <time>2011-03-26T15:03:40Z</time>
      </trkpt>
      <trkpt lat="44.05199" lon="2.00446">
        <ele>262</ele>
        <time>2011-03-26T15:03:41Z</time>
      </trkpt>
      <trkpt lat="44.05203" lon="2.00439">
        <ele>262</ele>
        <time>2011-03-26T15:03:42Z</time>
      </trkpt>
      <trkpt lat="44.05206" lon="2.00432">
        <ele>262</ele>
        <time>2011-03-26T15:03:43Z</time>
      </trkpt>
      <trkpt lat="44.0521" lon="2.00424">
        <ele>256</ele>
        <time>2011-03-26T15:03:44Z</time>
      </trkpt>
      <trkpt lat="44.05213" lon="2.00417">
        <ele>256</ele>
        <time>2011-03-26T15:03:45Z</time>
      </trkpt>
      <trkpt lat="44.05217" lon="2.00411">
        <ele>256</ele>
        <time>2011-03-26T15:03:46Z</time>
      </trkpt>
      <trkpt lat="44.0522" lon="2.00404">
        <ele>256</ele>
        <time>2011-03-26T15:03:47Z</time>
      </trkpt>
      <trkpt lat="44.05223" lon="2.00397">
        <ele>256</ele>
        <time>2011-03-26T15:03:48Z</time>
      </trkpt>
      <trkpt lat="44.05227" lon="2.0039">
        <ele>256</ele>
        <time>2011-03-26T15:03:49Z</time>
      </trkpt>
      <trkpt lat="44.05229" lon="2.00383">
        <ele>256</ele>
        <time>2011-03-26T15:03:50Z</time>
      </trkpt>
      <trkpt lat="44.05232" lon="2.00375">
        <ele>256</ele>
        <time>2011-03-26T15:03:51Z</time>
      </trkpt>
      <trkpt lat="44.05234" lon="2.00367">
        <ele>256</ele>
        <time>2011-03-26T15:03:52Z</time>
      </trkpt>
      <trkpt lat="44.05236" lon="2.00358">
        <ele>256</ele>
        <time>2011-03-26T15:03:53Z</time>
      </trkpt>
      <trkpt lat="44.05239" lon="2.0035">
        <ele>256</ele>
        <time>2011-03-26T15:03:54Z</time>
      </trkpt>
      <trkpt lat="44.05241" lon="2.00343">
        <ele>256</ele>
        <time>2011-03-26T15:03:55Z</time>
      </trkpt>
      <trkpt lat="44.05244" lon="2.00335">
        <ele>256</ele>
        <time>2011-03-26T15:03:56Z</time>
      </trkpt>
      <trkpt lat="44.05246" lon="2.00327">
        <ele>256</ele>
        <time>2011-03-26T15:03:57Z</time>
      </trkpt>
      <trkpt lat="44.05248" lon="2.00319">
        <ele>256</ele>
        <time>2011-03-26T15:03:58Z</time>
      </trkpt>
      <trkpt lat="44.0525" lon="2.00311">
        <ele>256</ele>
        <time>2011-03-26T15:03:59Z</time>
      </trkpt>
      <trkpt lat="44.05253" lon="2.00303">
        <ele>256</ele>
        <time>2011-03-26T15:04:00Z</time>
      </trkpt>
      <trkpt lat="44.05255" lon="2.00296">
        <ele>256</ele>
        <time>2011-03-26T15:04:01Z</time>
      </trkpt>
      <trkpt lat="44.05258" lon="2.00288">
        <ele>262</ele>
        <time>2011-03-26T15:04:02Z</time>
      </trkpt>
      <trkpt lat="44.0526" lon="2.0028">
        <ele>262</ele>
        <time>2011-03-26T15:04:03Z</time>
      </trkpt>
      <trkpt lat="44.05263" lon="2.00272">
        <ele>262</ele>
        <time>2011-03-26T15:04:04Z</time>
      </trkpt>
      <trkpt lat="44.05265" lon="2.00264">
        <ele>262</ele>
        <time>2011-03-26T15:04:05Z</time>
      </trkpt>
      <trkpt lat="44.05268" lon="2.00256">
        <ele>262</ele>
        <time>2011-03-26T15:04:06Z</time>
      </trkpt>
      <trkpt lat="44.0527" lon="2.00248">
        <ele>262</ele>
        <time>2011-03-26T15:04:07Z</time>
      </trkpt>
      <trkpt lat="44.05272" lon="2.0024">
        <ele>262</ele>
        <time>2011-03-26T15:04:08Z</time>
      </trkpt>
      <trkpt lat="44.05275" lon="2.00233">
        <ele>262</ele>
        <time>2011-03-26T15:04:09Z</time>
      </trkpt>
      <trkpt lat="44.05278" lon="2.00225">
        <ele>262</ele>
        <time>2011-03-26T15:04:10Z</time>
      </trkpt>
      <trkpt lat="44.05282" lon="2.00217">
        <ele>262</ele>
        <time>2011-03-26T15:04:11Z</time>
      </trkpt>
      <trkpt lat="44.05286" lon="2.0021">
        <ele>262</ele>
        <time>2011-03-26T15:04:12Z</time>
      </trkpt>
      <trkpt lat="44.0529" lon="2.00203">
        <ele>275</ele>
        <time>2011-03-26T15:04:13Z</time>
      </trkpt>
      <trkpt lat="44.05295" lon="2.00197">
        <ele>255</ele>
        <time>2011-03-26T15:04:14Z</time>
      </trkpt>
      <trkpt lat="44.053" lon="2.00191">
        <ele>255</ele>
        <time>2011-03-26T15:04:15Z</time>
      </trkpt>
      <trkpt lat="44.05305" lon="2.00186">
        <ele>255</ele>
        <time>2011-03-26T15:04:16Z</time>
      </trkpt>
      <trkpt lat="44.0531" lon="2.0018">
        <ele>255</ele>
        <time>2011-03-26T15:04:17Z</time>
      </trkpt>
      <trkpt lat="44.05315" lon="2.00174">
        <ele>255</ele>
        <time>2011-03-26T15:04:18Z</time>
      </trkpt>
      <trkpt lat="44.0532" lon="2.00167">
        <ele>255</ele>
        <time>2011-03-26T15:04:19Z</time>
      </trkpt>
      <trkpt lat="44.05325" lon="2.00161">
        <ele>255</ele>
        <time>2011-03-26T15:04:20Z</time>
      </trkpt>
      <trkpt lat="44.05329" lon="2.00155">
        <ele>255</ele>
        <time>2011-03-26T15:04:21Z</time>
      </trkpt>
      <trkpt lat="44.05334" lon="2.00149">
        <ele>255</ele>
        <time>2011-03-26T15:04:22Z</time>
      </trkpt>
      <trkpt lat="44.05338" lon="2.00142">
        <ele>255</ele>
        <time>2011-03-26T15:04:23Z</time>
      </trkpt>
      <trkpt lat="44.05343" lon="2.00136">
        <ele>255</ele>
        <time>2011-03-26T15:04:24Z</time>
      </trkpt>
      <trkpt lat="44.05348" lon="2.00129">
        <ele>255</ele>
        <time>2011-03-26T15:04:25Z</time>
      </trkpt>
      <trkpt lat="44.05352" lon="2.00123">
        <ele>265</ele>
        <time>2011-03-26T15:04:26Z</time>
      </trkpt>
      <trkpt lat="44.05357" lon="2.00116">
        <ele>265</ele>
        <time>2011-03-26T15:04:27Z</time>
      </trkpt>
      <trkpt lat="44.05361" lon="2.00109">
        <ele>265</ele>
        <time>2011-03-26T15:04:28Z</time>
      </trkpt>
      <trkpt lat="44.05366" lon="2.00103">
        <ele>265</ele>
        <time>2011-03-26T15:04:29Z</time>
      </trkpt>
      <trkpt lat="44.0537" lon="2.00096">
        <ele>265</ele>
        <time>2011-03-26T15:04:30Z</time>
      </trkpt>
      <trkpt lat="44.05373" lon="2.0009">
        <ele>265</ele>
        <time>2011-03-26T15:04:31Z</time>
      </trkpt>
      <trkpt lat="44.05377" lon="2.00085">
        <ele>252</ele>
        <time>2011-03-26T15:04:32Z</time>
      </trkpt>
      <trkpt lat="44.05381" lon="2.00079">
        <ele>252</ele>
        <time>2011-03-26T15:04:33Z</time>
      </trkpt>
      <trkpt lat="44.05386" lon="2.00074">
        <ele>252</ele>
        <time>2011-03-26T15:04:34Z</time>
      </trkpt>
      <trkpt lat="44.0539" lon="2.00068">
        <ele>252</ele>
        <time>2011-03-26T15:04:35Z</time>
      </trkpt>
      <trkpt lat="44.05394" lon="2.00063">
        <ele>252</ele>
        <time>2011-03-26T15:04:36Z</time>
      </trkpt>
      <trkpt lat="44.05398" lon="2.00058">
        <ele>252</ele>
        <time>2011-03-26T15:04:37Z</time>
      </trkpt>
      <trkpt lat="44.05402" lon="2.00054">
        <ele>252</ele>
        <time>2011-03-26T15:04:38Z</time>
      </trkpt>
      <trkpt lat="44.05406" lon="2.00049">
        <ele>252</ele>
        <time>2011-03-26T15:04:39Z</time>
      </trkpt>
      <trkpt lat="44.05409" lon="2.00046">
        <ele>252</ele>
        <time>2011-03-26T15:04:40Z</time>
      </trkpt>
      <trkpt lat="44.05412" lon="2.00043">
        <ele>252</ele>
        <time>2011-03-26T15:04:41Z</time>
      </trkpt>
      <trkpt lat="44.05414" lon="2.0004">
        <ele>259</ele>
        <time>2011-03-26T15:04:42Z</time>
      </trkpt>
      <trkpt lat="44.05417" lon="2.00038">
        <ele>259</ele>
        <time>2011-03-26T15:04:43Z</time>
      </trkpt>
      <trkpt lat="44.0542" lon="2.00038">
        <ele>259</ele>
        <time>2011-03-26T15:04:44Z</time>
      </trkpt>
      <trkpt lat="44.05423" lon="2.0004">
        <ele>259</ele>
        <time>2011-03-26T15:04:45Z</time>
      </trkpt>
      <trkpt lat="44.05427" lon="2.00044">
        <ele>252</ele>
        <time>2011-03-26T15:04:46Z</time>
      </trkpt>
      <trkpt lat="44.0543" lon="2.00049">
        <ele>252</ele>
        <time>2011-03-26T15:04:47Z</time>
      </trkpt>
      <trkpt lat="44.05433" lon="2.00054">
        <ele>252</ele>
        <time>2011-03-26T15:04:48Z</time>
      </trkpt>
      <trkpt lat="44.05435" lon="2.00058">
        <ele>252</ele>
        <time>2011-03-26T15:04:49Z</time>
      </trkpt>
      <trkpt lat="44.05439" lon="2.00063">
        <ele>252</ele>
        <time>2011-03-26T15:04:50Z</time>
      </trkpt>
      <trkpt lat="44.05443" lon="2.00067">
        <ele>252</ele>
        <time>2011-03-26T15:04:51Z</time>
      </trkpt>
      <trkpt lat="44.05447" lon="2.00072">
        <ele>252</ele>
        <time>2011-03-26T15:04:52Z</time>
      </trkpt>
      <trkpt lat="44.05451" lon="2.00075">
        <ele>252</ele>
        <time>2011-03-26T15:04:53Z</time>
      </trkpt>
      <trkpt lat="44.05455" lon="2.00079">
        <ele>252</ele>
        <time>2011-03-26T15:04:54Z</time>
      </trkpt>
      <trkpt lat="44.05459" lon="2.00082">
        <ele>257</ele>
        <time>2011-03-26T15:04:55Z</time>
      </trkpt>
      <trkpt lat="44.05462" lon="2.00086">
        <ele>257</ele>
        <time>2011-03-26T15:04:56Z</time>
      </trkpt>
      <trkpt lat="44.05466" lon="2.00089">
        <ele>257</ele>
        <time>2011-03-26T15:04:57Z</time>
      </trkpt>
      <trkpt lat="44.05468" lon="2.00093">
        <ele>257</ele>
        <time>2011-03-26T15:04:58Z</time>
      </trkpt>
      <trkpt lat="44.05471" lon="2.00096">
        <ele>257</ele>
        <time>2011-03-26T15:04:59Z</time>
      </trkpt>
      <trkpt lat="44.05473" lon="2.00099">
        <ele>257</ele>
        <time>2011-03-26T15:05:00Z</time>
      </trkpt>
      <trkpt lat="44.05475" lon="2.00102">
        <ele>257</ele>
        <time>2011-03-26T15:05:01Z</time>
      </trkpt>
      <trkpt lat="44.05476" lon="2.00105">
        <ele>257</ele>
        <time>2011-03-26T15:05:02Z</time>
      </trkpt>
      <trkpt lat="44.05478" lon="2.00107">
        <ele>257</ele>
        <time>2011-03-26T15:05:03Z</time>
      </trkpt>
      <trkpt lat="44.0548" lon="2.0011">
        <ele>257</ele>
        <time>2011-03-26T15:05:04Z</time>
      </trkpt>
      <trkpt lat="44.05483" lon="2.00111">
        <ele>257</ele>
        <time>2011-03-26T15:05:06Z</time>
      </trkpt>
      <trkpt lat="44.05487" lon="2.00111">
        <ele>257</ele>
        <time>2011-03-26T15:05:08Z</time>
      </trkpt>
      <trkpt lat="44.05492" lon="2.0011">
        <ele>257</ele>
        <time>2011-03-26T15:05:10Z</time>
      </trkpt>
      <trkpt lat="44.05494" lon="2.0011">
        <ele>257</ele>
        <time>2011-03-26T15:05:11Z</time>
      </trkpt>
      <trkpt lat="44.05497" lon="2.00109">
        <ele>257</ele>
        <time>2011-03-26T15:05:12Z</time>
      </trkpt>
      <trkpt lat="44.05499" lon="2.00107">
        <ele>257</ele>
        <time>2011-03-26T15:05:13Z</time>
      </trkpt>
      <trkpt lat="44.05502" lon="2.00104">
        <ele>257</ele>
        <time>2011-03-26T15:05:14Z</time>
      </trkpt>
      <trkpt lat="44.05504" lon="2.00101">
        <ele>257</ele>
        <time>2011-03-26T15:05:15Z</time>
      </trkpt>
      <trkpt lat="44.05506" lon="2.00097">
        <ele>257</ele>
        <time>2011-03-26T15:05:16Z</time>
      </trkpt>
      <trkpt lat="44.05508" lon="2.00092">
        <ele>257</ele>
        <time>2011-03-26T15:05:17Z</time>
      </trkpt>
      <trkpt lat="44.0551" lon="2.00088">
        <ele>257</ele>
        <time>2011-03-26T15:05:18Z</time>
      </trkpt>
      <trkpt lat="44.05512" lon="2.00082">
        <ele>257</ele>
        <time>2011-03-26T15:05:19Z</time>
      </trkpt>
      <trkpt lat="44.05515" lon="2.00076">
        <ele>257</ele>
        <time>2011-03-26T15:05:20Z</time>
      </trkpt>
      <trkpt lat="44.05517" lon="2.0007">
        <ele>257</ele>
        <time>2011-03-26T15:05:21Z</time>
      </trkpt>
      <trkpt lat="44.05519" lon="2.00062">
        <ele>257</ele>
        <time>2011-03-26T15:05:22Z</time>
      </trkpt>
      <trkpt lat="44.05522" lon="2.00054">
        <ele>257</ele>
        <time>2011-03-26T15:05:23Z</time>
      </trkpt>
      <trkpt lat="44.05525" lon="2.00046">
        <ele>257</ele>
        <time>2011-03-26T15:05:24Z</time>
      </trkpt>
      <trkpt lat="44.05527" lon="2.00039">
        <ele>252</ele>
        <time>2011-03-26T15:05:25Z</time>
      </trkpt>
      <trkpt lat="44.0553" lon="2.00033">
        <ele>252</ele>
        <time>2011-03-26T15:05:26Z</time>
      </trkpt>
      <trkpt lat="44.05532" lon="2.00027">
        <ele>252</ele>
        <time>2011-03-26T15:05:27Z</time>
      </trkpt>
      <trkpt lat="44.05534" lon="2.00021">
        <ele>252</ele>
        <time>2011-03-26T15:05:28Z</time>
      </trkpt>
      <trkpt lat="44.05539" lon="2.00011">
        <ele>252</ele>
        <time>2011-03-26T15:05:29Z</time>
      </trkpt>
      <trkpt lat="44.05543" lon="2.00001">
        <ele>265</ele>
        <time>2011-03-26T15:05:30Z</time>
      </trkpt>
      <trkpt lat="44.05546" lon="1.9999">
        <ele>265</ele>
        <time>2011-03-26T15:05:31Z</time>
      </trkpt>
      <trkpt lat="44.0555" lon="1.9998">
        <ele>265</ele>
        <time>2011-03-26T15:05:32Z</time>
      </trkpt>
      <trkpt lat="44.05554" lon="1.99969">
        <ele>265</ele>
        <time>2011-03-26T15:05:33Z</time>
      </trkpt>
      <trkpt lat="44.05557" lon="1.99959">
        <ele>265</ele>
        <time>2011-03-26T15:05:34Z</time>
      </trkpt>
      <trkpt lat="44.05561" lon="1.9995">
        <ele>257</ele>
        <time>2011-03-26T15:05:35Z</time>
      </trkpt>
      <trkpt lat="44.05565" lon="1.99941">
        <ele>257</ele>
        <time>2011-03-26T15:05:36Z</time>
      </trkpt>
      <trkpt lat="44.05568" lon="1.99933">
        <ele>257</ele>
        <time>2011-03-26T15:05:37Z</time>
      </trkpt>
      <trkpt lat="44.05573" lon="1.99925">
        <ele>257</ele>
        <time>2011-03-26T15:05:38Z</time>
      </trkpt>
      <trkpt lat="44.05577" lon="1.99918">
        <ele>257</ele>
        <time>2011-03-26T15:05:39Z</time>
      </trkpt>
      <trkpt lat="44.05581" lon="1.99911">
        <ele>257</ele>
        <time>2011-03-26T15:05:40Z</time>
      </trkpt>
      <trkpt lat="44.05585" lon="1.99903">
        <ele>257</ele>
        <time>2011-03-26T15:05:41Z</time>
      </trkpt>
      <trkpt lat="44.05586" lon="1.99894">
        <ele>257</ele>
        <time>2011-03-26T15:05:42Z</time>
      </trkpt>
      <trkpt lat="44.05588" lon="1.99884">
        <ele>257</ele>
        <time>2011-03-26T15:05:43Z</time>
      </trkpt>
      <trkpt lat="44.05589" lon="1.99876">
        <ele>257</ele>
        <time>2011-03-26T15:05:44Z</time>
      </trkpt>
      <trkpt lat="44.05591" lon="1.99867">
        <ele>251</ele>
        <time>2011-03-26T15:05:45Z</time>
      </trkpt>
      <trkpt lat="44.05592" lon="1.99858">
        <ele>251</ele>
        <time>2011-03-26T15:05:46Z</time>
      </trkpt>
      <trkpt lat="44.05593" lon="1.9985">
        <ele>251</ele>
        <time>2011-03-26T15:05:47Z</time>
      </trkpt>
      <trkpt lat="44.05594" lon="1.99842">
        <ele>251</ele>
        <time>2011-03-26T15:05:48Z</time>
      </trkpt>
      <trkpt lat="44.05596" lon="1.99834">
        <ele>251</ele>
        <time>2011-03-26T15:05:49Z</time>
      </trkpt>
      <trkpt lat="44.05597" lon="1.99826">
        <ele>251</ele>
        <time>2011-03-26T15:05:50Z</time>
      </trkpt>
      <trkpt lat="44.05599" lon="1.99817">
        <ele>251</ele>
        <time>2011-03-26T15:05:51Z</time>
      </trkpt>
      <trkpt lat="44.05601" lon="1.99809">
        <ele>251</ele>
        <time>2011-03-26T15:05:52Z</time>
      </trkpt>
      <trkpt lat="44.05603" lon="1.99798">
        <ele>251</ele>
        <time>2011-03-26T15:05:53Z</time>
      </trkpt>
      <trkpt lat="44.05606" lon="1.99787">
        <ele>246</ele>
        <time>2011-03-26T15:05:54Z</time>
      </trkpt>
      <trkpt lat="44.05608" lon="1.99776">
        <ele>246</ele>
        <time>2011-03-26T15:05:55Z</time>
      </trkpt>
      <trkpt lat="44.05611" lon="1.99766">
        <ele>246</ele>
        <time>2011-03-26T15:05:56Z</time>
      </trkpt>
      <trkpt lat="44.05614" lon="1.99756">
        <ele>246</ele>
        <time>2011-03-26T15:05:57Z</time>
      </trkpt>
      <trkpt lat="44.05617" lon="1.99746">
        <ele>246</ele>
        <time>2011-03-26T15:05:58Z</time>
      </trkpt>
      <trkpt lat="44.0562" lon="1.99736">
        <ele>246</ele>
        <time>2011-03-26T15:05:59Z</time>
      </trkpt>
      <trkpt lat="44.05623" lon="1.99727">
        <ele>246</ele>
        <time>2011-03-26T15:06:00Z</time>
      </trkpt>
      <trkpt lat="44.05625" lon="1.99717">
        <ele>262</ele>
        <time>2011-03-26T15:06:01Z</time>
      </trkpt>
      <trkpt lat="44.05628" lon="1.99708">
        <ele>256</ele>
        <time>2011-03-26T15:06:02Z</time>
      </trkpt>
      <trkpt lat="44.05628" lon="1.99699">
        <ele>256</ele>
        <time>2011-03-26T15:06:03Z</time>
      </trkpt>
      <trkpt lat="44.05629" lon="1.99689">
        <ele>256</ele>
        <time>2011-03-26T15:06:04Z</time>
      </trkpt>
      <trkpt lat="44.05629" lon="1.99678">
        <ele>256</ele>
        <time>2011-03-26T15:06:05Z</time>
      </trkpt>
      <trkpt lat="44.05629" lon="1.99666">
        <ele>256</ele>
        <time>2011-03-26T15:06:06Z</time>
      </trkpt>
      <trkpt lat="44.05628" lon="1.99654">
        <ele>256</ele>
        <time>2011-03-26T15:06:07Z</time>
      </trkpt>
      <trkpt lat="44.05627" lon="1.99642">
        <ele>256</ele>
        <time>2011-03-26T15:06:08Z</time>
      </trkpt>
      <trkpt lat="44.05626" lon="1.9963">
        <ele>256</ele>
        <time>2011-03-26T15:06:09Z</time>
      </trkpt>
      <trkpt lat="44.05625" lon="1.99617">
        <ele>250</ele>
        <time>2011-03-26T15:06:10Z</time>
      </trkpt>
      <trkpt lat="44.05625" lon="1.99607">
        <ele>250</ele>
        <time>2011-03-26T15:06:11Z</time>
      </trkpt>
      <trkpt lat="44.05628" lon="1.99598">
        <ele>250</ele>
        <time>2011-03-26T15:06:12Z</time>
      </trkpt>
      <trkpt lat="44.05631" lon="1.9959">
        <ele>250</ele>
        <time>2011-03-26T15:06:13Z</time>
      </trkpt>
      <trkpt lat="44.05635" lon="1.99582">
        <ele>250</ele>
        <time>2011-03-26T15:06:14Z</time>
      </trkpt>
      <trkpt lat="44.05639" lon="1.99576">
        <ele>250</ele>
        <time>2011-03-26T15:06:15Z</time>
      </trkpt>
      <trkpt lat="44.05643" lon="1.9957">
        <ele>250</ele>
        <time>2011-03-26T15:06:16Z</time>
      </trkpt>
      <trkpt lat="44.05645" lon="1.99563">
        <ele>250</ele>
        <time>2011-03-26T15:06:17Z</time>
      </trkpt>
      <trkpt lat="44.05647" lon="1.99556">
        <ele>250</ele>
        <time>2011-03-26T15:06:18Z</time>
      </trkpt>
      <trkpt lat="44.05651" lon="1.9955">
        <ele>250</ele>
        <time>2011-03-26T15:06:19Z</time>
      </trkpt>
      <trkpt lat="44.05654" lon="1.99544">
        <ele>250</ele>
        <time>2011-03-26T15:06:20Z</time>
      </trkpt>
      <trkpt lat="44.05658" lon="1.99537">
        <ele>244</ele>
        <time>2011-03-26T15:06:21Z</time>
      </trkpt>
      <trkpt lat="44.05661" lon="1.99531">
        <ele>244</ele>
        <time>2011-03-26T15:06:22Z</time>
      </trkpt>
      <trkpt lat="44.05664" lon="1.99526">
        <ele>244</ele>
        <time>2011-03-26T15:06:23Z</time>
      </trkpt>
      <trkpt lat="44.05667" lon="1.99521">
        <ele>244</ele>
        <time>2011-03-26T15:06:24Z</time>
      </trkpt>
      <trkpt lat="44.0567" lon="1.99517">
        <ele>244</ele>
        <time>2011-03-26T15:06:25Z</time>
      </trkpt>
      <trkpt lat="44.05672" lon="1.99514">
        <ele>244</ele>
        <time>2011-03-26T15:06:26Z</time>
      </trkpt>
      <trkpt lat="44.05675" lon="1.99511">
        <ele>244</ele>
        <time>2011-03-26T15:06:27Z</time>
      </trkpt>
      <trkpt lat="44.05677" lon="1.99509">
        <ele>244</ele>
        <time>2011-03-26T15:06:28Z</time>
      </trkpt>
      <trkpt lat="44.05679" lon="1.99504">
        <ele>244</ele>
        <time>2011-03-26T15:06:29Z</time>
      </trkpt>
      <trkpt lat="44.05681" lon="1.995">
        <ele>244</ele>
        <time>2011-03-26T15:06:30Z</time>
      </trkpt>
      <trkpt lat="44.05683" lon="1.99497">
        <ele>244</ele>
        <time>2011-03-26T15:06:31Z</time>
      </trkpt>
      <trkpt lat="44.05685" lon="1.99494">
        <ele>244</ele>
        <time>2011-03-26T15:06:32Z</time>
      </trkpt>
      <trkpt lat="44.05688" lon="1.9949">
        <ele>244</ele>
        <time>2011-03-26T15:06:33Z</time>
      </trkpt>
      <trkpt lat="44.0569" lon="1.99487">
        <ele>244</ele>
        <time>2011-03-26T15:06:34Z</time>
      </trkpt>
      <trkpt lat="44.05691" lon="1.99484">
        <ele>244</ele>
        <time>2011-03-26T15:06:35Z</time>
      </trkpt>
      <trkpt lat="44.05693" lon="1.99481">
        <ele>244</ele>
        <time>2011-03-26T15:06:36Z</time>
      </trkpt>
      <trkpt lat="44.05696" lon="1.99478">
        <ele>244</ele>
        <time>2011-03-26T15:06:37Z</time>
      </trkpt>
      <trkpt lat="44.05699" lon="1.99474">
        <ele>244</ele>
        <time>2011-03-26T15:06:39Z</time>
      </trkpt>
      <trkpt lat="44.05701" lon="1.99471">
        <ele>244</ele>
        <time>2011-03-26T15:06:40Z</time>
      </trkpt>
      <trkpt lat="44.05703" lon="1.99469">
        <ele>244</ele>
        <time>2011-03-26T15:06:41Z</time>
      </trkpt>
      <trkpt lat="44.05706" lon="1.99468">
        <ele>244</ele>
        <time>2011-03-26T15:06:42Z</time>
      </trkpt>
      <trkpt lat="44.05708" lon="1.99466">
        <ele>244</ele>
        <time>2011-03-26T15:06:43Z</time>
      </trkpt>
      <trkpt lat="44.0571" lon="1.99464">
        <ele>259</ele>
        <time>2011-03-26T15:06:44Z</time>
      </trkpt>
      <trkpt lat="44.05712" lon="1.99463">
        <ele>259</ele>
        <time>2011-03-26T15:06:45Z</time>
      </trkpt>
      <trkpt lat="44.05714" lon="1.99462">
        <ele>259</ele>
        <time>2011-03-26T15:06:46Z</time>
      </trkpt>
      <trkpt lat="44.05716" lon="1.99461">
        <ele>259</ele>
        <time>2011-03-26T15:06:47Z</time>
      </trkpt>
      <trkpt lat="44.0572" lon="1.9946">
        <ele>259</ele>
        <time>2011-03-26T15:06:49Z</time>
      </trkpt>
      <trkpt lat="44.05725" lon="1.99459">
        <ele>259</ele>
        <time>2011-03-26T15:06:51Z</time>
      </trkpt>
      <trkpt lat="44.05729" lon="1.99459">
        <ele>259</ele>
        <time>2011-03-26T15:06:53Z</time>
      </trkpt>
      <trkpt lat="44.05733" lon="1.99459">
        <ele>259</ele>
        <time>2011-03-26T15:06:55Z</time>
      </trkpt>
      <trkpt lat="44.05737" lon="1.99459">
        <ele>259</ele>
        <time>2011-03-26T15:06:57Z</time>
      </trkpt>
      <trkpt lat="44.05741" lon="1.99459">
        <ele>259</ele>
        <time>2011-03-26T15:06:59Z</time>
      </trkpt>
      <trkpt lat="44.05745" lon="1.9946">
        <ele>259</ele>
        <time>2011-03-26T15:07:01Z</time>
      </trkpt>
      <trkpt lat="44.05747" lon="1.9946">
        <ele>259</ele>
        <time>2011-03-26T15:07:02Z</time>
      </trkpt>
      <trkpt lat="44.05751" lon="1.99461">
        <ele>259</ele>
        <time>2011-03-26T15:07:04Z</time>
      </trkpt>
      <trkpt lat="44.05753" lon="1.99462">
        <ele>259</ele>
        <time>2011-03-26T15:07:05Z</time>
      </trkpt>
      <trkpt lat="44.05755" lon="1.99463">
        <ele>259</ele>
        <time>2011-03-26T15:07:06Z</time>
      </trkpt>
      <trkpt lat="44.0576" lon="1.99464">
        <ele>259</ele>
        <time>2011-03-26T15:07:08Z</time>
      </trkpt>
      <trkpt lat="44.05762" lon="1.99464">
        <ele>259</ele>
        <time>2011-03-26T15:07:09Z</time>
      </trkpt>
      <trkpt lat="44.05764" lon="1.99464">
        <ele>259</ele>
        <time>2011-03-26T15:07:10Z</time>
      </trkpt>
      <trkpt lat="44.05769" lon="1.99464">
        <ele>259</ele>
        <time>2011-03-26T15:07:12Z</time>
      </trkpt>
      <trkpt lat="44.05771" lon="1.99463">
        <ele>259</ele>
        <time>2011-03-26T15:07:13Z</time>
      </trkpt>
      <trkpt lat="44.05774" lon="1.99462">
        <ele>259</ele>
        <time>2011-03-26T15:07:14Z</time>
      </trkpt>
      <trkpt lat="44.05778" lon="1.99461">
        <ele>259</ele>
        <time>2011-03-26T15:07:16Z</time>
      </trkpt>
      <trkpt lat="44.05781" lon="1.99461">
        <ele>259</ele>
        <time>2011-03-26T15:07:17Z</time>
      </trkpt>
      <trkpt lat="44.05783" lon="1.99461">
        <ele>259</ele>
        <time>2011-03-26T15:07:18Z</time>
      </trkpt>
      <trkpt lat="44.05786" lon="1.99461">
        <ele>259</ele>
        <time>2011-03-26T15:07:19Z</time>
      </trkpt>
      <trkpt lat="44.05788" lon="1.9946">
        <ele>259</ele>
        <time>2011-03-26T15:07:20Z</time>
      </trkpt>
      <trkpt lat="44.0579" lon="1.9946">
        <ele>259</ele>
        <time>2011-03-26T15:07:21Z</time>
      </trkpt>
      <trkpt lat="44.05793" lon="1.9946">
        <ele>267</ele>
        <time>2011-03-26T15:07:22Z</time>
      </trkpt>
      <trkpt lat="44.05795" lon="1.99459">
        <ele>267</ele>
        <time>2011-03-26T15:07:23Z</time>
      </trkpt>
      <trkpt lat="44.05797" lon="1.99459">
        <ele>267</ele>
        <time>2011-03-26T15:07:24Z</time>
      </trkpt>
      <trkpt lat="44.058" lon="1.99459">
        <ele>267</ele>
        <time>2011-03-26T15:07:25Z</time>
      </trkpt>
      <trkpt lat="44.05802" lon="1.99458">
        <ele>244</ele>
        <time>2011-03-26T15:07:26Z</time>
      </trkpt>
      <trkpt lat="44.05805" lon="1.99458">
        <ele>244</ele>
        <time>2011-03-26T15:07:27Z</time>
      </trkpt>
      <trkpt lat="44.05807" lon="1.99457">
        <ele>244</ele>
        <time>2011-03-26T15:07:28Z</time>
      </trkpt>
      <trkpt lat="44.0581" lon="1.99456">
        <ele>244</ele>
        <time>2011-03-26T15:07:29Z</time>
      </trkpt>
      <trkpt lat="44.05813" lon="1.99455">
        <ele>244</ele>
        <time>2011-03-26T15:07:30Z</time>
      </trkpt>
      <trkpt lat="44.05815" lon="1.99454">
        <ele>244</ele>
        <time>2011-03-26T15:07:31Z</time>
      </trkpt>
      <trkpt lat="44.05818" lon="1.99453">
        <ele>244</ele>
        <time>2011-03-26T15:07:32Z</time>
      </trkpt>
      <trkpt lat="44.05821" lon="1.99451">
        <ele>244</ele>
        <time>2011-03-26T15:07:33Z</time>
      </trkpt>
      <trkpt lat="44.05824" lon="1.9945">
        <ele>244</ele>
        <time>2011-03-26T15:07:34Z</time>
      </trkpt>
      <trkpt lat="44.05827" lon="1.99449">
        <ele>244</ele>
        <time>2011-03-26T15:07:35Z</time>
      </trkpt>
      <trkpt lat="44.0583" lon="1.99447">
        <ele>244</ele>
        <time>2011-03-26T15:07:36Z</time>
      </trkpt>
      <trkpt lat="44.05833" lon="1.99445">
        <ele>244</ele>
        <time>2011-03-26T15:07:37Z</time>
      </trkpt>
      <trkpt lat="44.05836" lon="1.99443">
        <ele>244</ele>
        <time>2011-03-26T15:07:38Z</time>
      </trkpt>
      <trkpt lat="44.05839" lon="1.99441">
        <ele>244</ele>
        <time>2011-03-26T15:07:39Z</time>
      </trkpt>
      <trkpt lat="44.05842" lon="1.99441">
        <ele>244</ele>
        <time>2011-03-26T15:07:40Z</time>
      </trkpt>
      <trkpt lat="44.05845" lon="1.9944">
        <ele>244</ele>
        <time>2011-03-26T15:07:41Z</time>
      </trkpt>
      <trkpt lat="44.05848" lon="1.9944">
        <ele>244</ele>
        <time>2011-03-26T15:07:42Z</time>
      </trkpt>
      <trkpt lat="44.05851" lon="1.9944">
        <ele>244</ele>
        <time>2011-03-26T15:07:43Z</time>
      </trkpt>
      <trkpt lat="44.05854" lon="1.9944">
        <ele>244</ele>
        <time>2011-03-26T15:07:44Z</time>
      </trkpt>
      <trkpt lat="44.05857" lon="1.9944">
        <ele>244</ele>
        <time>2011-03-26T15:07:45Z</time>
      </trkpt>
      <trkpt lat="44.0586" lon="1.99441">
        <ele>244</ele>
        <time>2011-03-26T15:07:46Z</time>
      </trkpt>
      <trkpt lat="44.05862" lon="1.99441">
        <ele>244</ele>
        <time>2011-03-26T15:07:47Z</time>
      </trkpt>
      <trkpt lat="44.05865" lon="1.99442">
        <ele>244</ele>
        <time>2011-03-26T15:07:48Z</time>
      </trkpt>
      <trkpt lat="44.05868" lon="1.99443">
        <ele>244</ele>
        <time>2011-03-26T15:07:49Z</time>
      </trkpt>
      <trkpt lat="44.0587" lon="1.99445">
        <ele>244</ele>
        <time>2011-03-26T15:07:50Z</time>
      </trkpt>
      <trkpt lat="44.05872" lon="1.99447">
        <ele>244</ele>
        <time>2011-03-26T15:07:51Z</time>
      </trkpt>
      <trkpt lat="44.05874" lon="1.99449">
        <ele>244</ele>
        <time>2011-03-26T15:07:52Z</time>
      </trkpt>
      <trkpt lat="44.05876" lon="1.99451">
        <ele>255</ele>
        <time>2011-03-26T15:07:53Z</time>
      </trkpt>
      <trkpt lat="44.05878" lon="1.99452">
        <ele>255</ele>
        <time>2011-03-26T15:07:54Z</time>
      </trkpt>
      <trkpt lat="44.05881" lon="1.99454">
        <ele>255</ele>
        <time>2011-03-26T15:07:56Z</time>
      </trkpt>
      <trkpt lat="44.05884" lon="1.99456">
        <ele>255</ele>
        <time>2011-03-26T15:07:58Z</time>
      </trkpt>
      <trkpt lat="44.05886" lon="1.99459">
        <ele>270</ele>
        <time>2011-03-26T15:08:00Z</time>
      </trkpt>
      <trkpt lat="44.05889" lon="1.99461">
        <ele>270</ele>
        <time>2011-03-26T15:08:02Z</time>
      </trkpt>
      <trkpt lat="44.05893" lon="1.99463">
        <ele>270</ele>
        <time>2011-03-26T15:08:04Z</time>
      </trkpt>
      <trkpt lat="44.05896" lon="1.99466">
        <ele>270</ele>
        <time>2011-03-26T15:08:06Z</time>
      </trkpt>
      <trkpt lat="44.059" lon="1.99468">
        <ele>270</ele>
        <time>2011-03-26T15:08:08Z</time>
      </trkpt>
      <trkpt lat="44.05903" lon="1.99469">
        <ele>270</ele>
        <time>2011-03-26T15:08:10Z</time>
      </trkpt>
      <trkpt lat="44.05906" lon="1.99469">
        <ele>270</ele>
        <time>2011-03-26T15:08:12Z</time>
      </trkpt>
      <trkpt lat="44.05909" lon="1.99469">
        <ele>270</ele>
        <time>2011-03-26T15:08:14Z</time>
      </trkpt>
      <trkpt lat="44.05912" lon="1.99467">
        <ele>270</ele>
        <time>2011-03-26T15:08:16Z</time>
      </trkpt>
      <trkpt lat="44.05914" lon="1.99464">
        <ele>270</ele>
        <time>2011-03-26T15:08:18Z</time>
      </trkpt>
      <trkpt lat="44.05916" lon="1.99463">
        <ele>270</ele>
        <time>2011-03-26T15:08:19Z</time>
      </trkpt>
      <trkpt lat="44.05919" lon="1.9946">
        <ele>270</ele>
        <time>2011-03-26T15:08:21Z</time>
      </trkpt>
      <trkpt lat="44.05922" lon="1.99458">
        <ele>255</ele>
        <time>2011-03-26T15:08:23Z</time>
      </trkpt>
      <trkpt lat="44.05925" lon="1.99455">
        <ele>255</ele>
        <time>2011-03-26T15:08:25Z</time>
      </trkpt>
      <trkpt lat="44.05928" lon="1.99452">
        <ele>255</ele>
        <time>2011-03-26T15:08:27Z</time>
      </trkpt>
      <trkpt lat="44.0593" lon="1.99449">
        <ele>255</ele>
        <time>2011-03-26T15:08:29Z</time>
      </trkpt>
      <trkpt lat="44.05932" lon="1.99447">
        <ele>255</ele>
        <time>2011-03-26T15:08:31Z</time>
      </trkpt>
      <trkpt lat="44.05932" lon="1.99443">
        <ele>255</ele>
        <time>2011-03-26T15:08:33Z</time>
      </trkpt>
      <trkpt lat="44.05934" lon="1.9944">
        <ele>255</ele>
        <time>2011-03-26T15:08:35Z</time>
      </trkpt>
      <trkpt lat="44.05935" lon="1.99437">
        <ele>255</ele>
        <time>2011-03-26T15:08:37Z</time>
      </trkpt>
      <trkpt lat="44.05936" lon="1.99434">
        <ele>255</ele>
        <time>2011-03-26T15:08:39Z</time>
      </trkpt>
      <trkpt lat="44.05938" lon="1.99431">
        <ele>255</ele>
        <time>2011-03-26T15:08:41Z</time>
      </trkpt>
      <trkpt lat="44.05939" lon="1.99428">
        <ele>255</ele>
        <time>2011-03-26T15:08:43Z</time>
      </trkpt>
      <trkpt lat="44.0594" lon="1.99426">
        <ele>255</ele>
        <time>2011-03-26T15:08:44Z</time>
      </trkpt>
      <trkpt lat="44.05941" lon="1.99422">
        <ele>255</ele>
        <time>2011-03-26T15:08:46Z</time>
      </trkpt>
      <trkpt lat="44.05943" lon="1.99418">
        <ele>255</ele>
        <time>2011-03-26T15:08:48Z</time>
      </trkpt>
      <trkpt lat="44.05945" lon="1.99414">
        <ele>255</ele>
        <time>2011-03-26T15:08:50Z</time>
      </trkpt>
      <trkpt lat="44.05947" lon="1.99411">
        <ele>255</ele>
        <time>2011-03-26T15:08:52Z</time>
      </trkpt>
      <trkpt lat="44.05948" lon="1.99408">
        <ele>255</ele>
        <time>2011-03-26T15:08:53Z</time>
      </trkpt>
      <trkpt lat="44.0595" lon="1.99406">
        <ele>255</ele>
        <time>2011-03-26T15:08:54Z</time>
      </trkpt>
      <trkpt lat="44.05952" lon="1.99403">
        <ele>255</ele>
        <time>2011-03-26T15:08:55Z</time>
      </trkpt>
      <trkpt lat="44.05953" lon="1.99401">
        <ele>255</ele>
        <time>2011-03-26T15:08:56Z</time>
      </trkpt>
      <trkpt lat="44.05955" lon="1.99399">
        <ele>255</ele>
        <time>2011-03-26T15:08:57Z</time>
      </trkpt>
      <trkpt lat="44.05958" lon="1.99396">
        <ele>255</ele>
        <time>2011-03-26T15:08:59Z</time>
      </trkpt>
      <trkpt lat="44.05961" lon="1.99396">
        <ele>272</ele>
        <time>2011-03-26T15:09:01Z</time>
      </trkpt>
      <trkpt lat="44.05964" lon="1.99396">
        <ele>272</ele>
        <time>2011-03-26T15:09:03Z</time>
      </trkpt>
      <trkpt lat="44.05966" lon="1.99397">
        <ele>272</ele>
        <time>2011-03-26T15:09:05Z</time>
      </trkpt>
      <trkpt lat="44.05968" lon="1.99398">
        <ele>272</ele>
        <time>2011-03-26T15:09:07Z</time>
      </trkpt>
      <trkpt lat="44.05971" lon="1.99399">
        <ele>272</ele>
        <time>2011-03-26T15:09:10Z</time>
      </trkpt>
      <trkpt lat="44.05974" lon="1.99401">
        <ele>272</ele>
        <time>2011-03-26T15:09:13Z</time>
      </trkpt>
      <trkpt lat="44.05976" lon="1.99404">
        <ele>272</ele>
        <time>2011-03-26T15:09:16Z</time>
      </trkpt>
      <trkpt lat="44.05977" lon="1.99408">
        <ele>272</ele>
        <time>2011-03-26T15:09:18Z</time>
      </trkpt>
      <trkpt lat="44.05977" lon="1.9941">
        <ele>272</ele>
        <time>2011-03-26T15:09:19Z</time>
      </trkpt>
      <trkpt lat="44.05978" lon="1.99414">
        <ele>272</ele>
        <time>2011-03-26T15:09:21Z</time>
      </trkpt>
      <trkpt lat="44.05978" lon="1.99416">
        <ele>272</ele>
        <time>2011-03-26T15:09:22Z</time>
      </trkpt>
      <trkpt lat="44.0598" lon="1.99419">
        <ele>272</ele>
        <time>2011-03-26T15:09:24Z</time>
      </trkpt>
      <trkpt lat="44.05981" lon="1.99423">
        <ele>272</ele>
        <time>2011-03-26T15:09:26Z</time>
      </trkpt>
      <trkpt lat="44.05982" lon="1.99426">
        <ele>272</ele>
        <time>2011-03-26T15:09:28Z</time>
      </trkpt>
      <trkpt lat="44.05983" lon="1.99428">
        <ele>272</ele>
        <time>2011-03-26T15:09:29Z</time>
      </trkpt>
      <trkpt lat="44.05984" lon="1.99431">
        <ele>272</ele>
        <time>2011-03-26T15:09:31Z</time>
      </trkpt>
      <trkpt lat="44.05985" lon="1.99435">
        <ele>272</ele>
        <time>2011-03-26T15:09:33Z</time>
      </trkpt>
      <trkpt lat="44.05986" lon="1.99438">
        <ele>272</ele>
        <time>2011-03-26T15:09:35Z</time>
      </trkpt>
      <trkpt lat="44.05987" lon="1.99441">
        <ele>272</ele>
        <time>2011-03-26T15:09:37Z</time>
      </trkpt>
      <trkpt lat="44.05988" lon="1.99445">
        <ele>272</ele>
        <time>2011-03-26T15:09:39Z</time>
      </trkpt>
      <trkpt lat="44.05989" lon="1.99448">
        <ele>272</ele>
        <time>2011-03-26T15:09:41Z</time>
      </trkpt>
      <trkpt lat="44.0599" lon="1.99452">
        <ele>272</ele>
        <time>2011-03-26T15:09:43Z</time>
      </trkpt>
      <trkpt lat="44.05991" lon="1.99455">
        <ele>272</ele>
        <time>2011-03-26T15:09:45Z</time>
      </trkpt>
      <trkpt lat="44.05992" lon="1.99458">
        <ele>272</ele>
        <time>2011-03-26T15:09:47Z</time>
      </trkpt>
      <trkpt lat="44.05993" lon="1.99461">
        <ele>284</ele>
        <time>2011-03-26T15:09:49Z</time>
      </trkpt>
      <trkpt lat="44.05994" lon="1.99464">
        <ele>284</ele>
        <time>2011-03-26T15:09:51Z</time>
      </trkpt>
      <trkpt lat="44.05995" lon="1.99468">
        <ele>284</ele>
        <time>2011-03-26T15:09:53Z</time>
      </trkpt>
      <trkpt lat="44.05996" lon="1.99471">
        <ele>284</ele>
        <time>2011-03-26T15:09:55Z</time>
      </trkpt>
      <trkpt lat="44.05997" lon="1.99474">
        <ele>284</ele>
        <time>2011-03-26T15:09:57Z</time>
      </trkpt>
      <trkpt lat="44.05998" lon="1.99477">
        <ele>284</ele>
        <time>2011-03-26T15:09:59Z</time>
      </trkpt>
      <trkpt lat="44.05999" lon="1.9948">
        <ele>284</ele>
        <time>2011-03-26T15:10:01Z</time>
      </trkpt>
      <trkpt lat="44.06001" lon="1.99484">
        <ele>284</ele>
        <time>2011-03-26T15:10:03Z</time>
      </trkpt>
      <trkpt lat="44.06002" lon="1.99487">
        <ele>284</ele>
        <time>2011-03-26T15:10:05Z</time>
      </trkpt>
      <trkpt lat="44.06003" lon="1.9949">
        <ele>284</ele>
        <time>2011-03-26T15:10:07Z</time>
      </trkpt>
      <trkpt lat="44.06004" lon="1.99493">
        <ele>284</ele>
        <time>2011-03-26T15:10:09Z</time>
      </trkpt>
      <trkpt lat="44.06005" lon="1.99496">
        <ele>284</ele>
        <time>2011-03-26T15:10:11Z</time>
      </trkpt>
      <trkpt lat="44.06006" lon="1.99499">
        <ele>284</ele>
        <time>2011-03-26T15:10:13Z</time>
      </trkpt>
      <trkpt lat="44.06008" lon="1.99502">
        <ele>284</ele>
        <time>2011-03-26T15:10:15Z</time>
      </trkpt>
      <trkpt lat="44.06009" lon="1.99505">
        <ele>284</ele>
        <time>2011-03-26T15:10:18Z</time>
      </trkpt>
      <trkpt lat="44.0601" lon="1.99508">
        <ele>284</ele>
        <time>2011-03-26T15:10:20Z</time>
      </trkpt>
      <trkpt lat="44.06011" lon="1.99512">
        <ele>284</ele>
        <time>2011-03-26T15:10:22Z</time>
      </trkpt>
      <trkpt lat="44.06013" lon="1.99515">
        <ele>284</ele>
        <time>2011-03-26T15:10:24Z</time>
      </trkpt>
      <trkpt lat="44.06014" lon="1.99519">
        <ele>284</ele>
        <time>2011-03-26T15:10:26Z</time>
      </trkpt>
      <trkpt lat="44.06016" lon="1.99522">
        <ele>284</ele>
        <time>2011-03-26T15:10:28Z</time>
      </trkpt>
      <trkpt lat="44.06017" lon="1.99524">
        <ele>284</ele>
        <time>2011-03-26T15:10:30Z</time>
      </trkpt>
      <trkpt lat="44.06018" lon="1.99527">
        <ele>284</ele>
        <time>2011-03-26T15:10:32Z</time>
      </trkpt>
      <trkpt lat="44.06019" lon="1.99531">
        <ele>284</ele>
        <time>2011-03-26T15:10:34Z</time>
      </trkpt>
      <trkpt lat="44.0602" lon="1.99534">
        <ele>284</ele>
        <time>2011-03-26T15:10:36Z</time>
      </trkpt>
      <trkpt lat="44.06022" lon="1.99537">
        <ele>284</ele>
        <time>2011-03-26T15:10:38Z</time>
      </trkpt>
      <trkpt lat="44.06022" lon="1.9954">
        <ele>284</ele>
        <time>2011-03-26T15:10:40Z</time>
      </trkpt>
      <trkpt lat="44.06024" lon="1.99543">
        <ele>295</ele>
        <time>2011-03-26T15:10:42Z</time>
      </trkpt>
      <trkpt lat="44.06024" lon="1.99545">
        <ele>295</ele>
        <time>2011-03-26T15:10:43Z</time>
      </trkpt>
      <trkpt lat="44.06025" lon="1.99548">
        <ele>295</ele>
        <time>2011-03-26T15:10:45Z</time>
      </trkpt>
      <trkpt lat="44.06027" lon="1.99551">
        <ele>295</ele>
        <time>2011-03-26T15:10:47Z</time>
      </trkpt>
      <trkpt lat="44.06028" lon="1.99555">
        <ele>295</ele>
        <time>2011-03-26T15:10:49Z</time>
      </trkpt>
      <trkpt lat="44.0603" lon="1.99558">
        <ele>295</ele>
        <time>2011-03-26T15:10:51Z</time>
      </trkpt>
      <trkpt lat="44.06031" lon="1.9956">
        <ele>295</ele>
        <time>2011-03-26T15:10:53Z</time>
      </trkpt>
      <trkpt lat="44.06033" lon="1.99564">
        <ele>295</ele>
        <time>2011-03-26T15:10:55Z</time>
      </trkpt>
      <trkpt lat="44.06034" lon="1.99567">
        <ele>295</ele>
        <time>2011-03-26T15:10:57Z</time>
      </trkpt>
      <trkpt lat="44.06036" lon="1.9957">
        <ele>295</ele>
        <time>2011-03-26T15:10:59Z</time>
      </trkpt>
      <trkpt lat="44.06038" lon="1.99574">
        <ele>295</ele>
        <time>2011-03-26T15:11:01Z</time>
      </trkpt>
      <trkpt lat="44.0604" lon="1.99577">
        <ele>295</ele>
        <time>2011-03-26T15:11:03Z</time>
      </trkpt>
      <trkpt lat="44.06041" lon="1.9958">
        <ele>295</ele>
        <time>2011-03-26T15:11:05Z</time>
      </trkpt>
      <trkpt lat="44.06043" lon="1.99583">
        <ele>296</ele>
        <time>2011-03-26T15:11:07Z</time>
      </trkpt>
      <trkpt lat="44.06044" lon="1.99586">
        <ele>296</ele>
        <time>2011-03-26T15:11:09Z</time>
      </trkpt>
      <trkpt lat="44.06046" lon="1.9959">
        <ele>296</ele>
        <time>2011-03-26T15:11:11Z</time>
      </trkpt>
      <trkpt lat="44.06047" lon="1.99593">
        <ele>296</ele>
        <time>2011-03-26T15:11:13Z</time>
      </trkpt>
      <trkpt lat="44.06048" lon="1.99596">
        <ele>296</ele>
        <time>2011-03-26T15:11:15Z</time>
      </trkpt>
      <trkpt lat="44.0605" lon="1.996">
        <ele>296</ele>
        <time>2011-03-26T15:11:18Z</time>
      </trkpt>
      <trkpt lat="44.06051" lon="1.99603">
        <ele>296</ele>
        <time>2011-03-26T15:11:20Z</time>
      </trkpt>
      <trkpt lat="44.06052" lon="1.99607">
        <ele>296</ele>
        <time>2011-03-26T15:11:22Z</time>
      </trkpt>
      <trkpt lat="44.06054" lon="1.99612">
        <ele>296</ele>
        <time>2011-03-26T15:11:24Z</time>
      </trkpt>
      <trkpt lat="44.06056" lon="1.99616">
        <ele>296</ele>
        <time>2011-03-26T15:11:26Z</time>
      </trkpt>
      <trkpt lat="44.06058" lon="1.9962">
        <ele>296</ele>
        <time>2011-03-26T15:11:28Z</time>
      </trkpt>
      <trkpt lat="44.0606" lon="1.99624">
        <ele>296</ele>
        <time>2011-03-26T15:11:30Z</time>
      </trkpt>
      <trkpt lat="44.06062" lon="1.99628">
        <ele>294</ele>
        <time>2011-03-26T15:11:32Z</time>
      </trkpt>
      <trkpt lat="44.06063" lon="1.99633">
        <ele>294</ele>
        <time>2011-03-26T15:11:34Z</time>
      </trkpt>
      <trkpt lat="44.06063" lon="1.99638">
        <ele>294</ele>
        <time>2011-03-26T15:11:36Z</time>
      </trkpt>
      <trkpt lat="44.06062" lon="1.99641">
        <ele>294</ele>
        <time>2011-03-26T15:11:38Z</time>
      </trkpt>
      <trkpt lat="44.0606" lon="1.99645">
        <ele>294</ele>
        <time>2011-03-26T15:11:40Z</time>
      </trkpt>
      <trkpt lat="44.06058" lon="1.99649">
        <ele>294</ele>
        <time>2011-03-26T15:11:42Z</time>
      </trkpt>
      <trkpt lat="44.06056" lon="1.99653">
        <ele>294</ele>
        <time>2011-03-26T15:11:44Z</time>
      </trkpt>
      <trkpt lat="44.06054" lon="1.99658">
        <ele>294</ele>
        <time>2011-03-26T15:11:46Z</time>
      </trkpt>
      <trkpt lat="44.06052" lon="1.99663">
        <ele>294</ele>
        <time>2011-03-26T15:11:48Z</time>
      </trkpt>
      <trkpt lat="44.0605" lon="1.99667">
        <ele>294</ele>
        <time>2011-03-26T15:11:50Z</time>
      </trkpt>
      <trkpt lat="44.06048" lon="1.99671">
        <ele>294</ele>
        <time>2011-03-26T15:11:52Z</time>
      </trkpt>
      <trkpt lat="44.06046" lon="1.99675">
        <ele>294</ele>
        <time>2011-03-26T15:11:54Z</time>
      </trkpt>
      <trkpt lat="44.06043" lon="1.99679">
        <ele>294</ele>
        <time>2011-03-26T15:11:56Z</time>
      </trkpt>
      <trkpt lat="44.06041" lon="1.99683">
        <ele>304</ele>
        <time>2011-03-26T15:11:58Z</time>
      </trkpt>
      <trkpt lat="44.0604" lon="1.99687">
        <ele>304</ele>
        <time>2011-03-26T15:12:00Z</time>
      </trkpt>
      <trkpt lat="44.06038" lon="1.99692">
        <ele>304</ele>
        <time>2011-03-26T15:12:02Z</time>
      </trkpt>
      <trkpt lat="44.06036" lon="1.99696">
        <ele>304</ele>
        <time>2011-03-26T15:12:04Z</time>
      </trkpt>
      <trkpt lat="44.06037" lon="1.99701">
        <ele>304</ele>
        <time>2011-03-26T15:12:06Z</time>
      </trkpt>
      <trkpt lat="44.06038" lon="1.99705">
        <ele>304</ele>
        <time>2011-03-26T15:12:08Z</time>
      </trkpt>
      <trkpt lat="44.0604" lon="1.99711">
        <ele>308</ele>
        <time>2011-03-26T15:12:10Z</time>
      </trkpt>
      <trkpt lat="44.06042" lon="1.99714">
        <ele>301</ele>
        <time>2011-03-26T15:12:11Z</time>
      </trkpt>
      <trkpt lat="44.06045" lon="1.99717">
        <ele>301</ele>
        <time>2011-03-26T15:12:12Z</time>
      </trkpt>
      <trkpt lat="44.06047" lon="1.99721">
        <ele>301</ele>
        <time>2011-03-26T15:12:13Z</time>
      </trkpt>
      <trkpt lat="44.0605" lon="1.99726">
        <ele>301</ele>
        <time>2011-03-26T15:12:14Z</time>
      </trkpt>
      <trkpt lat="44.06052" lon="1.9973">
        <ele>301</ele>
        <time>2011-03-26T15:12:15Z</time>
      </trkpt>
      <trkpt lat="44.06055" lon="1.99734">
        <ele>301</ele>
        <time>2011-03-26T15:12:16Z</time>
      </trkpt>
      <trkpt lat="44.06058" lon="1.99739">
        <ele>301</ele>
        <time>2011-03-26T15:12:17Z</time>
      </trkpt>
      <trkpt lat="44.06061" lon="1.99742">
        <ele>301</ele>
        <time>2011-03-26T15:12:18Z</time>
      </trkpt>
      <trkpt lat="44.06063" lon="1.99746">
        <ele>301</ele>
        <time>2011-03-26T15:12:19Z</time>
      </trkpt>
      <trkpt lat="44.06066" lon="1.9975">
        <ele>301</ele>
        <time>2011-03-26T15:12:20Z</time>
      </trkpt>
      <trkpt lat="44.06069" lon="1.99753">
        <ele>301</ele>
        <time>2011-03-26T15:12:21Z</time>
      </trkpt>
      <trkpt lat="44.06071" lon="1.99757">
        <ele>301</ele>
        <time>2011-03-26T15:12:22Z</time>
      </trkpt>
      <trkpt lat="44.06074" lon="1.9976">
        <ele>301</ele>
        <time>2011-03-26T15:12:23Z</time>
      </trkpt>
      <trkpt lat="44.06076" lon="1.99764">
        <ele>301</ele>
        <time>2011-03-26T15:12:24Z</time>
      </trkpt>
      <trkpt lat="44.06079" lon="1.99767">
        <ele>301</ele>
        <time>2011-03-26T15:12:25Z</time>
      </trkpt>
      <trkpt lat="44.06081" lon="1.99769">
        <ele>301</ele>
        <time>2011-03-26T15:12:26Z</time>
      </trkpt>
      <trkpt lat="44.06084" lon="1.99773">
        <ele>301</ele>
        <time>2011-03-26T15:12:27Z</time>
      </trkpt>
      <trkpt lat="44.06086" lon="1.99776">
        <ele>301</ele>
        <time>2011-03-26T15:12:28Z</time>
      </trkpt>
      <trkpt lat="44.06089" lon="1.99778">
        <ele>301</ele>
        <time>2011-03-26T15:12:29Z</time>
      </trkpt>
      <trkpt lat="44.06092" lon="1.9978">
        <ele>301</ele>
        <time>2011-03-26T15:12:30Z</time>
      </trkpt>
      <trkpt lat="44.06094" lon="1.99783">
        <ele>301</ele>
        <time>2011-03-26T15:12:31Z</time>
      </trkpt>
      <trkpt lat="44.06096" lon="1.99785">
        <ele>301</ele>
        <time>2011-03-26T15:12:32Z</time>
      </trkpt>
      <trkpt lat="44.06099" lon="1.99787">
        <ele>301</ele>
        <time>2011-03-26T15:12:33Z</time>
      </trkpt>
      <trkpt lat="44.06101" lon="1.99789">
        <ele>301</ele>
        <time>2011-03-26T15:12:34Z</time>
      </trkpt>
      <trkpt lat="44.06103" lon="1.99791">
        <ele>301</ele>
        <time>2011-03-26T15:12:35Z</time>
      </trkpt>
      <trkpt lat="44.06106" lon="1.99794">
        <ele>304</ele>
        <time>2011-03-26T15:12:36Z</time>
      </trkpt>
      <trkpt lat="44.06108" lon="1.99797">
        <ele>304</ele>
        <time>2011-03-26T15:12:37Z</time>
      </trkpt>
      <trkpt lat="44.06111" lon="1.998">
        <ele>304</ele>
        <time>2011-03-26T15:12:38Z</time>
      </trkpt>
      <trkpt lat="44.06115" lon="1.99803">
        <ele>304</ele>
        <time>2011-03-26T15:12:39Z</time>
      </trkpt>
      <trkpt lat="44.06118" lon="1.99807">
        <ele>304</ele>
        <time>2011-03-26T15:12:40Z</time>
      </trkpt>
      <trkpt lat="44.06121" lon="1.9981">
        <ele>304</ele>
        <time>2011-03-26T15:12:41Z</time>
      </trkpt>
      <trkpt lat="44.06124" lon="1.99814">
        <ele>304</ele>
        <time>2011-03-26T15:12:42Z</time>
      </trkpt>
      <trkpt lat="44.06128" lon="1.99819">
        <ele>302</ele>
        <time>2011-03-26T15:12:43Z</time>
      </trkpt>
      <trkpt lat="44.06131" lon="1.99823">
        <ele>302</ele>
        <time>2011-03-26T15:12:44Z</time>
      </trkpt>
      <trkpt lat="44.06134" lon="1.99827">
        <ele>302</ele>
        <time>2011-03-26T15:12:45Z</time>
      </trkpt>
      <trkpt lat="44.06137" lon="1.9983">
        <ele>302</ele>
        <time>2011-03-26T15:12:46Z</time>
      </trkpt>
      <trkpt lat="44.0614" lon="1.99834">
        <ele>302</ele>
        <time>2011-03-26T15:12:47Z</time>
      </trkpt>
      <trkpt lat="44.06143" lon="1.99838">
        <ele>302</ele>
        <time>2011-03-26T15:12:48Z</time>
      </trkpt>
      <trkpt lat="44.06146" lon="1.99841">
        <ele>302</ele>
        <time>2011-03-26T15:12:49Z</time>
      </trkpt>
      <trkpt lat="44.06148" lon="1.99844">
        <ele>302</ele>
        <time>2011-03-26T15:12:50Z</time>
      </trkpt>
      <trkpt lat="44.06151" lon="1.99848">
        <ele>302</ele>
        <time>2011-03-26T15:12:51Z</time>
      </trkpt>
      <trkpt lat="44.06153" lon="1.99851">
        <ele>302</ele>
        <time>2011-03-26T15:12:52Z</time>
      </trkpt>
      <trkpt lat="44.06156" lon="1.99854">
        <ele>302</ele>
        <time>2011-03-26T15:12:53Z</time>
      </trkpt>
      <trkpt lat="44.06158" lon="1.99858">
        <ele>302</ele>
        <time>2011-03-26T15:12:54Z</time>
      </trkpt>
      <trkpt lat="44.06161" lon="1.99862">
        <ele>302</ele>
        <time>2011-03-26T15:12:55Z</time>
      </trkpt>
      <trkpt lat="44.06163" lon="1.99868">
        <ele>302</ele>
        <time>2011-03-26T15:12:56Z</time>
      </trkpt>
      <trkpt lat="44.06165" lon="1.99873">
        <ele>302</ele>
        <time>2011-03-26T15:12:57Z</time>
      </trkpt>
      <trkpt lat="44.06166" lon="1.99879">
        <ele>304</ele>
        <time>2011-03-26T15:12:58Z</time>
      </trkpt>
      <trkpt lat="44.06168" lon="1.99886">
        <ele>304</ele>
        <time>2011-03-26T15:12:59Z</time>
      </trkpt>
      <trkpt lat="44.06169" lon="1.99892">
        <ele>304</ele>
        <time>2011-03-26T15:13:00Z</time>
      </trkpt>
      <trkpt lat="44.06169" lon="1.99899">
        <ele>304</ele>
        <time>2011-03-26T15:13:01Z</time>
      </trkpt>
      <trkpt lat="44.0617" lon="1.99906">
        <ele>304</ele>
        <time>2011-03-26T15:13:02Z</time>
      </trkpt>
      <trkpt lat="44.0617" lon="1.99913">
        <ele>304</ele>
        <time>2011-03-26T15:13:03Z</time>
      </trkpt>
      <trkpt lat="44.06171" lon="1.99919">
        <ele>304</ele>
        <time>2011-03-26T15:13:04Z</time>
      </trkpt>
      <trkpt lat="44.06171" lon="1.99926">
        <ele>304</ele>
        <time>2011-03-26T15:13:05Z</time>
      </trkpt>
      <trkpt lat="44.06171" lon="1.99933">
        <ele>304</ele>
        <time>2011-03-26T15:13:06Z</time>
      </trkpt>
      <trkpt lat="44.06171" lon="1.99941">
        <ele>304</ele>
        <time>2011-03-26T15:13:07Z</time>
      </trkpt>
      <trkpt lat="44.06172" lon="1.99948">
        <ele>304</ele>
        <time>2011-03-26T15:13:08Z</time>
      </trkpt>
      <trkpt lat="44.06174" lon="1.99956">
        <ele>304</ele>
        <time>2011-03-26T15:13:09Z</time>
      </trkpt>
      <trkpt lat="44.06174" lon="1.99963">
        <ele>303</ele>
        <time>2011-03-26T15:13:10Z</time>
      </trkpt>
      <trkpt lat="44.06175" lon="1.99971">
        <ele>303</ele>
        <time>2011-03-26T15:13:11Z</time>
      </trkpt>
      <trkpt lat="44.06176" lon="1.99979">
        <ele>303</ele>
        <time>2011-03-26T15:13:12Z</time>
      </trkpt>
      <trkpt lat="44.06177" lon="1.99986">
        <ele>303</ele>
        <time>2011-03-26T15:13:13Z</time>
      </trkpt>
      <trkpt lat="44.06177" lon="1.99993">
        <ele>303</ele>
        <time>2011-03-26T15:13:14Z</time>
      </trkpt>
      <trkpt lat="44.06177" lon="2.00001">
        <ele>303</ele>
        <time>2011-03-26T15:13:15Z</time>
      </trkpt>
      <trkpt lat="44.06178" lon="2.00009">
        <ele>303</ele>
        <time>2011-03-26T15:13:16Z</time>
      </trkpt>
      <trkpt lat="44.06179" lon="2.00017">
        <ele>303</ele>
        <time>2011-03-26T15:13:17Z</time>
      </trkpt>
      <trkpt lat="44.0618" lon="2.00025">
        <ele>303</ele>
        <time>2011-03-26T15:13:18Z</time>
      </trkpt>
      <trkpt lat="44.06181" lon="2.00033">
        <ele>303</ele>
        <time>2011-03-26T15:13:19Z</time>
      </trkpt>
      <trkpt lat="44.06182" lon="2.00041">
        <ele>303</ele>
        <time>2011-03-26T15:13:20Z</time>
      </trkpt>
      <trkpt lat="44.06183" lon="2.00049">
        <ele>305</ele>
        <time>2011-03-26T15:13:21Z</time>
      </trkpt>
      <trkpt lat="44.06184" lon="2.00058">
        <ele>305</ele>
        <time>2011-03-26T15:13:22Z</time>
      </trkpt>
      <trkpt lat="44.06185" lon="2.00067">
        <ele>305</ele>
        <time>2011-03-26T15:13:23Z</time>
      </trkpt>
      <trkpt lat="44.06186" lon="2.00076">
        <ele>305</ele>
        <time>2011-03-26T15:13:24Z</time>
      </trkpt>
      <trkpt lat="44.06187" lon="2.00085">
        <ele>305</ele>
        <time>2011-03-26T15:13:25Z</time>
      </trkpt>
      <trkpt lat="44.06188" lon="2.00095">
        <ele>305</ele>
        <time>2011-03-26T15:13:26Z</time>
      </trkpt>
      <trkpt lat="44.06189" lon="2.00106">
        <ele>305</ele>
        <time>2011-03-26T15:13:27Z</time>
      </trkpt>
      <trkpt lat="44.0619" lon="2.00115">
        <ele>305</ele>
        <time>2011-03-26T15:13:28Z</time>
      </trkpt>
      <trkpt lat="44.06192" lon="2.00125">
        <ele>305</ele>
        <time>2011-03-26T15:13:29Z</time>
      </trkpt>
      <trkpt lat="44.06195" lon="2.00133">
        <ele>303</ele>
        <time>2011-03-26T15:13:30Z</time>
      </trkpt>
      <trkpt lat="44.06199" lon="2.0014">
        <ele>303</ele>
        <time>2011-03-26T15:13:31Z</time>
      </trkpt>
      <trkpt lat="44.06203" lon="2.00147">
        <ele>303</ele>
        <time>2011-03-26T15:13:32Z</time>
      </trkpt>
      <trkpt lat="44.06207" lon="2.00155">
        <ele>303</ele>
        <time>2011-03-26T15:13:33Z</time>
      </trkpt>
      <trkpt lat="44.06212" lon="2.00163">
        <ele>292</ele>
        <time>2011-03-26T15:13:34Z</time>
      </trkpt>
      <trkpt lat="44.06216" lon="2.0017">
        <ele>292</ele>
        <time>2011-03-26T15:13:35Z</time>
      </trkpt>
      <trkpt lat="44.0622" lon="2.00177">
        <ele>292</ele>
        <time>2011-03-26T15:13:36Z</time>
      </trkpt>
      <trkpt lat="44.06223" lon="2.00184">
        <ele>292</ele>
        <time>2011-03-26T15:13:37Z</time>
      </trkpt>
      <trkpt lat="44.06227" lon="2.00192">
        <ele>292</ele>
        <time>2011-03-26T15:13:38Z</time>
      </trkpt>
      <trkpt lat="44.06231" lon="2.002">
        <ele>292</ele>
        <time>2011-03-26T15:13:39Z</time>
      </trkpt>
      <trkpt lat="44.06234" lon="2.00208">
        <ele>292</ele>
        <time>2011-03-26T15:13:40Z</time>
      </trkpt>
      <trkpt lat="44.06237" lon="2.00217">
        <ele>289</ele>
        <time>2011-03-26T15:13:41Z</time>
      </trkpt>
      <trkpt lat="44.0624" lon="2.00226">
        <ele>289</ele>
        <time>2011-03-26T15:13:42Z</time>
      </trkpt>
      <trkpt lat="44.06242" lon="2.00236">
        <ele>289</ele>
        <time>2011-03-26T15:13:43Z</time>
      </trkpt>
      <trkpt lat="44.06243" lon="2.00247">
        <ele>289</ele>
        <time>2011-03-26T15:13:44Z</time>
      </trkpt>
      <trkpt lat="44.06244" lon="2.00258">
        <ele>289</ele>
        <time>2011-03-26T15:13:45Z</time>
      </trkpt>
      <trkpt lat="44.06244" lon="2.0027">
        <ele>289</ele>
        <time>2011-03-26T15:13:46Z</time>
      </trkpt>
      <trkpt lat="44.06245" lon="2.00283">
        <ele>289</ele>
        <time>2011-03-26T15:13:47Z</time>
      </trkpt>
      <trkpt lat="44.06244" lon="2.00294">
        <ele>282</ele>
        <time>2011-03-26T15:13:48Z</time>
      </trkpt>
      <trkpt lat="44.06244" lon="2.00305">
        <ele>282</ele>
        <time>2011-03-26T15:13:49Z</time>
      </trkpt>
      <trkpt lat="44.06243" lon="2.00316">
        <ele>282</ele>
        <time>2011-03-26T15:13:50Z</time>
      </trkpt>
      <trkpt lat="44.06242" lon="2.00328">
        <ele>282</ele>
        <time>2011-03-26T15:13:51Z</time>
      </trkpt>
      <trkpt lat="44.06239" lon="2.00339">
        <ele>282</ele>
        <time>2011-03-26T15:13:52Z</time>
      </trkpt>
      <trkpt lat="44.06236" lon="2.0035">
        <ele>282</ele>
        <time>2011-03-26T15:13:53Z</time>
      </trkpt>
      <trkpt lat="44.06231" lon="2.0036">
        <ele>282</ele>
        <time>2011-03-26T15:13:54Z</time>
      </trkpt>
      <trkpt lat="44.06224" lon="2.00367">
        <ele>282</ele>
        <time>2011-03-26T15:13:55Z</time>
      </trkpt>
      <trkpt lat="44.06217" lon="2.00374">
        <ele>282</ele>
        <time>2011-03-26T15:13:56Z</time>
      </trkpt>
      <trkpt lat="44.0621" lon="2.00381">
        <ele>268</ele>
        <time>2011-03-26T15:13:57Z</time>
      </trkpt>
      <trkpt lat="44.06202" lon="2.00388">
        <ele>279</ele>
        <time>2011-03-26T15:13:58Z</time>
      </trkpt>
      <trkpt lat="44.06194" lon="2.00395">
        <ele>279</ele>
        <time>2011-03-26T15:13:59Z</time>
      </trkpt>
      <trkpt lat="44.06185" lon="2.00403">
        <ele>279</ele>
        <time>2011-03-26T15:14:00Z</time>
      </trkpt>
      <trkpt lat="44.06177" lon="2.00409">
        <ele>279</ele>
        <time>2011-03-26T15:14:01Z</time>
      </trkpt>
      <trkpt lat="44.06169" lon="2.00415">
        <ele>279</ele>
        <time>2011-03-26T15:14:02Z</time>
      </trkpt>
      <trkpt lat="44.06161" lon="2.0042">
        <ele>279</ele>
        <time>2011-03-26T15:14:03Z</time>
      </trkpt>
      <trkpt lat="44.06155" lon="2.00425">
        <ele>279</ele>
        <time>2011-03-26T15:14:04Z</time>
      </trkpt>
      <trkpt lat="44.06152" lon="2.00427">
        <ele>279</ele>
        <time>2011-03-26T15:14:05Z</time>
      </trkpt>
      <trkpt lat="44.0615" lon="2.00431">
        <ele>279</ele>
        <time>2011-03-26T15:14:06Z</time>
      </trkpt>
      <trkpt lat="44.06149" lon="2.00434">
        <ele>279</ele>
        <time>2011-03-26T15:14:07Z</time>
      </trkpt>
      <trkpt lat="44.06149" lon="2.00437">
        <ele>279</ele>
        <time>2011-03-26T15:14:08Z</time>
      </trkpt>
      <trkpt lat="44.06151" lon="2.00441">
        <ele>279</ele>
        <time>2011-03-26T15:14:09Z</time>
      </trkpt>
      <trkpt lat="44.06157" lon="2.00443">
        <ele>279</ele>
        <time>2011-03-26T15:14:10Z</time>
      </trkpt>
      <trkpt lat="44.06163" lon="2.00446">
        <ele>279</ele>
        <time>2011-03-26T15:14:11Z</time>
      </trkpt>
      <trkpt lat="44.0617" lon="2.00448">
        <ele>279</ele>
        <time>2011-03-26T15:14:12Z</time>
      </trkpt>
      <trkpt lat="44.06176" lon="2.00451">
        <ele>279</ele>
        <time>2011-03-26T15:14:13Z</time>
      </trkpt>
      <trkpt lat="44.06183" lon="2.00455">
        <ele>279</ele>
        <time>2011-03-26T15:14:14Z</time>
      </trkpt>
      <trkpt lat="44.06191" lon="2.00459">
        <ele>259</ele>
        <time>2011-03-26T15:14:15Z</time>
      </trkpt>
      <trkpt lat="44.06199" lon="2.00463">
        <ele>259</ele>
        <time>2011-03-26T15:14:16Z</time>
      </trkpt>
      <trkpt lat="44.06209" lon="2.00467">
        <ele>254</ele>
        <time>2011-03-26T15:14:17Z</time>
      </trkpt>
      <trkpt lat="44.06219" lon="2.00471">
        <ele>254</ele>
        <time>2011-03-26T15:14:18Z</time>
      </trkpt>
      <trkpt lat="44.06229" lon="2.00475">
        <ele>254</ele>
        <time>2011-03-26T15:14:19Z</time>
      </trkpt>
      <trkpt lat="44.06239" lon="2.00477">
        <ele>254</ele>
        <time>2011-03-26T15:14:20Z</time>
      </trkpt>
      <trkpt lat="44.06247" lon="2.0048">
        <ele>254</ele>
        <time>2011-03-26T15:14:21Z</time>
      </trkpt>
      <trkpt lat="44.06256" lon="2.00483">
        <ele>254</ele>
        <time>2011-03-26T15:14:22Z</time>
      </trkpt>
      <trkpt lat="44.06263" lon="2.00485">
        <ele>254</ele>
        <time>2011-03-26T15:14:23Z</time>
      </trkpt>
      <trkpt lat="44.06268" lon="2.00488">
        <ele>254</ele>
        <time>2011-03-26T15:14:24Z</time>
      </trkpt>
      <trkpt lat="44.06272" lon="2.00495">
        <ele>254</ele>
        <time>2011-03-26T15:14:25Z</time>
      </trkpt>
      <trkpt lat="44.06274" lon="2.00503">
        <ele>254</ele>
        <time>2011-03-26T15:14:26Z</time>
      </trkpt>
      <trkpt lat="44.06276" lon="2.00512">
        <ele>254</ele>
        <time>2011-03-26T15:14:27Z</time>
      </trkpt>
      <trkpt lat="44.06279" lon="2.00515">
        <ele>254</ele>
        <time>2011-03-26T15:14:28Z</time>
      </trkpt>
      <trkpt lat="44.06281" lon="2.00522">
        <ele>254</ele>
        <time>2011-03-26T15:14:29Z</time>
      </trkpt>
      <trkpt lat="44.06282" lon="2.0053">
        <ele>254</ele>
        <time>2011-03-26T15:14:30Z</time>
      </trkpt>
      <trkpt lat="44.06283" lon="2.00539">
        <ele>254</ele>
        <time>2011-03-26T15:14:31Z</time>
      </trkpt>
      <trkpt lat="44.06284" lon="2.00548">
        <ele>254</ele>
        <time>2011-03-26T15:14:32Z</time>
      </trkpt>
      <trkpt lat="44.06286" lon="2.00557">
        <ele>254</ele>
        <time>2011-03-26T15:14:33Z</time>
      </trkpt>
      <trkpt lat="44.06286" lon="2.00567">
        <ele>254</ele>
        <time>2011-03-26T15:14:34Z</time>
      </trkpt>
      <trkpt lat="44.06287" lon="2.00576">
        <ele>254</ele>
        <time>2011-03-26T15:14:35Z</time>
      </trkpt>
      <trkpt lat="44.06288" lon="2.00585">
        <ele>254</ele>
        <time>2011-03-26T15:14:36Z</time>
      </trkpt>
      <trkpt lat="44.06291" lon="2.00591">
        <ele>254</ele>
        <time>2011-03-26T15:14:37Z</time>
      </trkpt>
      <trkpt lat="44.06293" lon="2.00597">
        <ele>249</ele>
        <time>2011-03-26T15:14:38Z</time>
      </trkpt>
      <trkpt lat="44.06295" lon="2.00603">
        <ele>249</ele>
        <time>2011-03-26T15:14:39Z</time>
      </trkpt>
      <trkpt lat="44.06296" lon="2.00608">
        <ele>249</ele>
        <time>2011-03-26T15:14:40Z</time>
      </trkpt>
      <trkpt lat="44.06299" lon="2.00614">
        <ele>249</ele>
        <time>2011-03-26T15:14:41Z</time>
      </trkpt>
      <trkpt lat="44.06301" lon="2.00619">
        <ele>249</ele>
        <time>2011-03-26T15:14:42Z</time>
      </trkpt>
      <trkpt lat="44.06303" lon="2.00624">
        <ele>249</ele>
        <time>2011-03-26T15:14:43Z</time>
      </trkpt>
      <trkpt lat="44.06306" lon="2.00631">
        <ele>243</ele>
        <time>2011-03-26T15:14:44Z</time>
      </trkpt>
      <trkpt lat="44.0631" lon="2.00638">
        <ele>243</ele>
        <time>2011-03-26T15:14:45Z</time>
      </trkpt>
      <trkpt lat="44.06313" lon="2.00645">
        <ele>243</ele>
        <time>2011-03-26T15:14:46Z</time>
      </trkpt>
      <trkpt lat="44.06316" lon="2.00654">
        <ele>243</ele>
        <time>2011-03-26T15:14:47Z</time>
      </trkpt>
      <trkpt lat="44.06317" lon="2.00663">
        <ele>243</ele>
        <time>2011-03-26T15:14:48Z</time>
      </trkpt>
      <trkpt lat="44.06318" lon="2.00673">
        <ele>243</ele>
        <time>2011-03-26T15:14:49Z</time>
      </trkpt>
      <trkpt lat="44.06319" lon="2.00682">
        <ele>243</ele>
        <time>2011-03-26T15:14:50Z</time>
      </trkpt>
      <trkpt lat="44.06319" lon="2.0069">
        <ele>243</ele>
        <time>2011-03-26T15:14:51Z</time>
      </trkpt>
      <trkpt lat="44.06319" lon="2.00699">
        <ele>243</ele>
        <time>2011-03-26T15:14:52Z</time>
      </trkpt>
      <trkpt lat="44.06319" lon="2.00707">
        <ele>243</ele>
        <time>2011-03-26T15:14:53Z</time>
      </trkpt>
      <trkpt lat="44.0632" lon="2.00716">
        <ele>240</ele>
        <time>2011-03-26T15:14:54Z</time>
      </trkpt>
      <trkpt lat="44.06321" lon="2.00725">
        <ele>240</ele>
        <time>2011-03-26T15:14:55Z</time>
      </trkpt>
      <trkpt lat="44.06321" lon="2.00734">
        <ele>240</ele>
        <time>2011-03-26T15:14:56Z</time>
      </trkpt>
      <trkpt lat="44.06321" lon="2.00743">
        <ele>240</ele>
        <time>2011-03-26T15:14:57Z</time>
      </trkpt>
      <trkpt lat="44.06321" lon="2.00752">
        <ele>240</ele>
        <time>2011-03-26T15:14:58Z</time>
      </trkpt>
      <trkpt lat="44.0632" lon="2.0076">
        <ele>240</ele>
        <time>2011-03-26T15:14:59Z</time>
      </trkpt>
      <trkpt lat="44.06318" lon="2.00769">
        <ele>240</ele>
        <time>2011-03-26T15:15:00Z</time>
      </trkpt>
      <trkpt lat="44.06316" lon="2.00777">
        <ele>240</ele>
        <time>2011-03-26T15:15:01Z</time>
      </trkpt>
      <trkpt lat="44.06314" lon="2.00784">
        <ele>240</ele>
        <time>2011-03-26T15:15:02Z</time>
      </trkpt>
      <trkpt lat="44.06311" lon="2.00792">
        <ele>240</ele>
        <time>2011-03-26T15:15:03Z</time>
      </trkpt>
      <trkpt lat="44.06307" lon="2.00797">
        <ele>242</ele>
        <time>2011-03-26T15:15:04Z</time>
      </trkpt>
      <trkpt lat="44.06303" lon="2.00803">
        <ele>242</ele>
        <time>2011-03-26T15:15:05Z</time>
      </trkpt>
      <trkpt lat="44.06299" lon="2.00808">
        <ele>242</ele>
        <time>2011-03-26T15:15:06Z</time>
      </trkpt>
      <trkpt lat="44.06294" lon="2.00811">
        <ele>242</ele>
        <time>2011-03-26T15:15:07Z</time>
      </trkpt>
      <trkpt lat="44.0629" lon="2.00815">
        <ele>252</ele>
        <time>2011-03-26T15:15:08Z</time>
      </trkpt>
      <trkpt lat="44.06285" lon="2.00818">
        <ele>252</ele>
        <time>2011-03-26T15:15:09Z</time>
      </trkpt>
      <trkpt lat="44.06281" lon="2.00821">
        <ele>252</ele>
        <time>2011-03-26T15:15:10Z</time>
      </trkpt>
      <trkpt lat="44.06278" lon="2.00825">
        <ele>252</ele>
        <time>2011-03-26T15:15:11Z</time>
      </trkpt>
      <trkpt lat="44.06275" lon="2.00831">
        <ele>252</ele>
        <time>2011-03-26T15:15:12Z</time>
      </trkpt>
      <trkpt lat="44.06274" lon="2.00839">
        <ele>252</ele>
        <time>2011-03-26T15:15:13Z</time>
      </trkpt>
      <trkpt lat="44.06276" lon="2.00847">
        <ele>252</ele>
        <time>2011-03-26T15:15:14Z</time>
      </trkpt>
      <trkpt lat="44.06279" lon="2.00853">
        <ele>252</ele>
        <time>2011-03-26T15:15:15Z</time>
      </trkpt>
      <trkpt lat="44.06284" lon="2.00858">
        <ele>252</ele>
        <time>2011-03-26T15:15:16Z</time>
      </trkpt>
      <trkpt lat="44.06289" lon="2.00862">
        <ele>252</ele>
        <time>2011-03-26T15:15:17Z</time>
      </trkpt>
      <trkpt lat="44.06293" lon="2.00865">
        <ele>242</ele>
        <time>2011-03-26T15:15:18Z</time>
      </trkpt>
      <trkpt lat="44.06298" lon="2.00868">
        <ele>242</ele>
        <time>2011-03-26T15:15:19Z</time>
      </trkpt>
      <trkpt lat="44.06302" lon="2.00871">
        <ele>242</ele>
        <time>2011-03-26T15:15:20Z</time>
      </trkpt>
      <trkpt lat="44.06306" lon="2.00875">
        <ele>242</ele>
        <time>2011-03-26T15:15:21Z</time>
      </trkpt>
      <trkpt lat="44.0631" lon="2.00878">
        <ele>252</ele>
        <time>2011-03-26T15:15:22Z</time>
      </trkpt>
      <trkpt lat="44.06313" lon="2.00881">
        <ele>252</ele>
        <time>2011-03-26T15:15:23Z</time>
      </trkpt>
      <trkpt lat="44.06317" lon="2.00885">
        <ele>252</ele>
        <time>2011-03-26T15:15:24Z</time>
      </trkpt>
      <trkpt lat="44.06319" lon="2.00888">
        <ele>252</ele>
        <time>2011-03-26T15:15:25Z</time>
      </trkpt>
      <trkpt lat="44.06321" lon="2.00892">
        <ele>252</ele>
        <time>2011-03-26T15:15:26Z</time>
      </trkpt>
      <trkpt lat="44.06323" lon="2.00896">
        <ele>252</ele>
        <time>2011-03-26T15:15:27Z</time>
      </trkpt>
      <trkpt lat="44.06325" lon="2.009">
        <ele>252</ele>
        <time>2011-03-26T15:15:28Z</time>
      </trkpt>
      <trkpt lat="44.06327" lon="2.00904">
        <ele>252</ele>
        <time>2011-03-26T15:15:29Z</time>
      </trkpt>
      <trkpt lat="44.0633" lon="2.00908">
        <ele>252</ele>
        <time>2011-03-26T15:15:30Z</time>
      </trkpt>
      <trkpt lat="44.06332" lon="2.00913">
        <ele>252</ele>
        <time>2011-03-26T15:15:31Z</time>
      </trkpt>
      <trkpt lat="44.06333" lon="2.00918">
        <ele>252</ele>
        <time>2011-03-26T15:15:32Z</time>
      </trkpt>
      <trkpt lat="44.06334" lon="2.00922">
        <ele>252</ele>
        <time>2011-03-26T15:15:33Z</time>
      </trkpt>
      <trkpt lat="44.06336" lon="2.00927">
        <ele>252</ele>
        <time>2011-03-26T15:15:34Z</time>
      </trkpt>
      <trkpt lat="44.06337" lon="2.00932">
        <ele>252</ele>
        <time>2011-03-26T15:15:35Z</time>
      </trkpt>
      <trkpt lat="44.06339" lon="2.00936">
        <ele>252</ele>
        <time>2011-03-26T15:15:36Z</time>
      </trkpt>
      <trkpt lat="44.0634" lon="2.00941">
        <ele>252</ele>
        <time>2011-03-26T15:15:37Z</time>
      </trkpt>
      <trkpt lat="44.06341" lon="2.00945">
        <ele>252</ele>
        <time>2011-03-26T15:15:38Z</time>
      </trkpt>
      <trkpt lat="44.06342" lon="2.00949">
        <ele>252</ele>
        <time>2011-03-26T15:15:39Z</time>
      </trkpt>
      <trkpt lat="44.06344" lon="2.00954">
        <ele>252</ele>
        <time>2011-03-26T15:15:40Z</time>
      </trkpt>
      <trkpt lat="44.06344" lon="2.00958">
        <ele>252</ele>
        <time>2011-03-26T15:15:41Z</time>
      </trkpt>
      <trkpt lat="44.06345" lon="2.00962">
        <ele>257</ele>
        <time>2011-03-26T15:15:42Z</time>
      </trkpt>
      <trkpt lat="44.06346" lon="2.00967">
        <ele>257</ele>
        <time>2011-03-26T15:15:43Z</time>
      </trkpt>
      <trkpt lat="44.06347" lon="2.00972">
        <ele>257</ele>
        <time>2011-03-26T15:15:44Z</time>
      </trkpt>
      <trkpt lat="44.06347" lon="2.00976">
        <ele>257</ele>
        <time>2011-03-26T15:15:45Z</time>
      </trkpt>
      <trkpt lat="44.06347" lon="2.00981">
        <ele>257</ele>
        <time>2011-03-26T15:15:46Z</time>
      </trkpt>
      <trkpt lat="44.06348" lon="2.00985">
        <ele>257</ele>
        <time>2011-03-26T15:15:47Z</time>
      </trkpt>
      <trkpt lat="44.06348" lon="2.0099">
        <ele>257</ele>
        <time>2011-03-26T15:15:48Z</time>
      </trkpt>
      <trkpt lat="44.06348" lon="2.00995">
        <ele>257</ele>
        <time>2011-03-26T15:15:49Z</time>
      </trkpt>
      <trkpt lat="44.06349" lon="2.00999">
        <ele>257</ele>
        <time>2011-03-26T15:15:50Z</time>
      </trkpt>
      <trkpt lat="44.06349" lon="2.01004">
        <ele>257</ele>
        <time>2011-03-26T15:15:51Z</time>
      </trkpt>
      <trkpt lat="44.06349" lon="2.01009">
        <ele>257</ele>
        <time>2011-03-26T15:15:52Z</time>
      </trkpt>
      <trkpt lat="44.0635" lon="2.01014">
        <ele>257</ele>
        <time>2011-03-26T15:15:53Z</time>
      </trkpt>
      <trkpt lat="44.0635" lon="2.01018">
        <ele>257</ele>
        <time>2011-03-26T15:15:54Z</time>
      </trkpt>
      <trkpt lat="44.0635" lon="2.01023">
        <ele>257</ele>
        <time>2011-03-26T15:15:55Z</time>
      </trkpt>
      <trkpt lat="44.0635" lon="2.01028">
        <ele>257</ele>
        <time>2011-03-26T15:15:56Z</time>
      </trkpt>
      <trkpt lat="44.0635" lon="2.01032">
        <ele>257</ele>
        <time>2011-03-26T15:15:57Z</time>
      </trkpt>
      <trkpt lat="44.0635" lon="2.01037">
        <ele>257</ele>
        <time>2011-03-26T15:15:58Z</time>
      </trkpt>
      <trkpt lat="44.0635" lon="2.01041">
        <ele>257</ele>
        <time>2011-03-26T15:15:59Z</time>
      </trkpt>
      <trkpt lat="44.06349" lon="2.01045">
        <ele>257</ele>
        <time>2011-03-26T15:16:00Z</time>
      </trkpt>
      <trkpt lat="44.06348" lon="2.01048">
        <ele>257</ele>
        <time>2011-03-26T15:16:01Z</time>
      </trkpt>
      <trkpt lat="44.06348" lon="2.01052">
        <ele>257</ele>
        <time>2011-03-26T15:16:02Z</time>
      </trkpt>
      <trkpt lat="44.06347" lon="2.01055">
        <ele>257</ele>
        <time>2011-03-26T15:16:03Z</time>
      </trkpt>
      <trkpt lat="44.06346" lon="2.01058">
        <ele>257</ele>
        <time>2011-03-26T15:16:04Z</time>
      </trkpt>
      <trkpt lat="44.06346" lon="2.01062">
        <ele>257</ele>
        <time>2011-03-26T15:16:05Z</time>
      </trkpt>
      <trkpt lat="44.06345" lon="2.01065">
        <ele>257</ele>
        <time>2011-03-26T15:16:06Z</time>
      </trkpt>
      <trkpt lat="44.06344" lon="2.01069">
        <ele>257</ele>
        <time>2011-03-26T15:16:07Z</time>
      </trkpt>
      <trkpt lat="44.06343" lon="2.01074">
        <ele>257</ele>
        <time>2011-03-26T15:16:08Z</time>
      </trkpt>
      <trkpt lat="44.06343" lon="2.0108">
        <ele>257</ele>
        <time>2011-03-26T15:16:09Z</time>
      </trkpt>
      <trkpt lat="44.06344" lon="2.01088">
        <ele>257</ele>
        <time>2011-03-26T15:16:10Z</time>
      </trkpt>
      <trkpt lat="44.06345" lon="2.01097">
        <ele>257</ele>
        <time>2011-03-26T15:16:11Z</time>
      </trkpt>
      <trkpt lat="44.06348" lon="2.01107">
        <ele>257</ele>
        <time>2011-03-26T15:16:12Z</time>
      </trkpt>
      <trkpt lat="44.06349" lon="2.01117">
        <ele>257</ele>
        <time>2011-03-26T15:16:13Z</time>
      </trkpt>
      <trkpt lat="44.0635" lon="2.01127">
        <ele>252</ele>
        <time>2011-03-26T15:16:14Z</time>
      </trkpt>
      <trkpt lat="44.06347" lon="2.01137">
        <ele>252</ele>
        <time>2011-03-26T15:16:15Z</time>
      </trkpt>
      <trkpt lat="44.06344" lon="2.01148">
        <ele>252</ele>
        <time>2011-03-26T15:16:16Z</time>
      </trkpt>
      <trkpt lat="44.06341" lon="2.0116">
        <ele>252</ele>
        <time>2011-03-26T15:16:17Z</time>
      </trkpt>
      <trkpt lat="44.06338" lon="2.01172">
        <ele>252</ele>
        <time>2011-03-26T15:16:18Z</time>
      </trkpt>
      <trkpt lat="44.06334" lon="2.01184">
        <ele>252</ele>
        <time>2011-03-26T15:16:19Z</time>
      </trkpt>
      <trkpt lat="44.06331" lon="2.01194">
        <ele>252</ele>
        <time>2011-03-26T15:16:20Z</time>
      </trkpt>
      <trkpt lat="44.06327" lon="2.01203">
        <ele>252</ele>
        <time>2011-03-26T15:16:21Z</time>
      </trkpt>
      <trkpt lat="44.06323" lon="2.01211">
        <ele>251</ele>
        <time>2011-03-26T15:16:22Z</time>
      </trkpt>
      <trkpt lat="44.0632" lon="2.01219">
        <ele>251</ele>
        <time>2011-03-26T15:16:23Z</time>
      </trkpt>
      <trkpt lat="44.06316" lon="2.01225">
        <ele>251</ele>
        <time>2011-03-26T15:16:24Z</time>
      </trkpt>
      <trkpt lat="44.06314" lon="2.01232">
        <ele>251</ele>
        <time>2011-03-26T15:16:25Z</time>
      </trkpt>
      <trkpt lat="44.06311" lon="2.01239">
        <ele>251</ele>
        <time>2011-03-26T15:16:26Z</time>
      </trkpt>
      <trkpt lat="44.06309" lon="2.01246">
        <ele>251</ele>
        <time>2011-03-26T15:16:27Z</time>
      </trkpt>
      <trkpt lat="44.06307" lon="2.01253">
        <ele>251</ele>
        <time>2011-03-26T15:16:28Z</time>
      </trkpt>
      <trkpt lat="44.06305" lon="2.01261">
        <ele>251</ele>
        <time>2011-03-26T15:16:29Z</time>
      </trkpt>
      <trkpt lat="44.06303" lon="2.01268">
        <ele>251</ele>
        <time>2011-03-26T15:16:30Z</time>
      </trkpt>
      <trkpt lat="44.06302" lon="2.01276">
        <ele>251</ele>
        <time>2011-03-26T15:16:31Z</time>
      </trkpt>
      <trkpt lat="44.06301" lon="2.01284">
        <ele>251</ele>
        <time>2011-03-26T15:16:32Z</time>
      </trkpt>
      <trkpt lat="44.063" lon="2.01292">
        <ele>251</ele>
        <time>2011-03-26T15:16:33Z</time>
      </trkpt>
      <trkpt lat="44.06299" lon="2.01298">
        <ele>253</ele>
        <time>2011-03-26T15:16:34Z</time>
      </trkpt>
      <trkpt lat="44.06298" lon="2.01305">
        <ele>253</ele>
        <time>2011-03-26T15:16:35Z</time>
      </trkpt>
      <trkpt lat="44.06297" lon="2.01312">
        <ele>253</ele>
        <time>2011-03-26T15:16:36Z</time>
      </trkpt>
      <trkpt lat="44.06296" lon="2.01319">
        <ele>253</ele>
        <time>2011-03-26T15:16:37Z</time>
      </trkpt>
      <trkpt lat="44.06295" lon="2.01326">
        <ele>253</ele>
        <time>2011-03-26T15:16:38Z</time>
      </trkpt>
      <trkpt lat="44.06295" lon="2.01333">
        <ele>253</ele>
        <time>2011-03-26T15:16:39Z</time>
      </trkpt>
      <trkpt lat="44.06294" lon="2.01339">
        <ele>253</ele>
        <time>2011-03-26T15:16:40Z</time>
      </trkpt>
      <trkpt lat="44.06294" lon="2.01346">
        <ele>253</ele>
        <time>2011-03-26T15:16:41Z</time>
      </trkpt>
      <trkpt lat="44.06293" lon="2.01353">
        <ele>253</ele>
        <time>2011-03-26T15:16:42Z</time>
      </trkpt>
      <trkpt lat="44.06292" lon="2.0136">
        <ele>253</ele>
        <time>2011-03-26T15:16:43Z</time>
      </trkpt>
      <trkpt lat="44.06291" lon="2.01366">
        <ele>261</ele>
        <time>2011-03-26T15:16:44Z</time>
      </trkpt>
      <trkpt lat="44.0629" lon="2.01373">
        <ele>261</ele>
        <time>2011-03-26T15:16:45Z</time>
      </trkpt>
      <trkpt lat="44.06288" lon="2.01379">
        <ele>259</ele>
        <time>2011-03-26T15:16:46Z</time>
      </trkpt>
      <trkpt lat="44.06287" lon="2.01386">
        <ele>259</ele>
        <time>2011-03-26T15:16:47Z</time>
      </trkpt>
      <trkpt lat="44.06285" lon="2.01392">
        <ele>259</ele>
        <time>2011-03-26T15:16:48Z</time>
      </trkpt>
      <trkpt lat="44.06284" lon="2.01399">
        <ele>259</ele>
        <time>2011-03-26T15:16:49Z</time>
      </trkpt>
      <trkpt lat="44.06282" lon="2.01405">
        <ele>259</ele>
        <time>2011-03-26T15:16:50Z</time>
      </trkpt>
      <trkpt lat="44.06281" lon="2.01411">
        <ele>259</ele>
        <time>2011-03-26T15:16:51Z</time>
      </trkpt>
      <trkpt lat="44.06279" lon="2.01416">
        <ele>259</ele>
        <time>2011-03-26T15:16:52Z</time>
      </trkpt>
      <trkpt lat="44.06277" lon="2.01422">
        <ele>259</ele>
        <time>2011-03-26T15:16:53Z</time>
      </trkpt>
      <trkpt lat="44.06274" lon="2.01427">
        <ele>259</ele>
        <time>2011-03-26T15:16:54Z</time>
      </trkpt>
      <trkpt lat="44.06272" lon="2.01432">
        <ele>259</ele>
        <time>2011-03-26T15:16:55Z</time>
      </trkpt>
      <trkpt lat="44.0627" lon="2.01438">
        <ele>259</ele>
        <time>2011-03-26T15:16:56Z</time>
      </trkpt>
      <trkpt lat="44.06267" lon="2.01443">
        <ele>259</ele>
        <time>2011-03-26T15:16:57Z</time>
      </trkpt>
      <trkpt lat="44.06265" lon="2.01448">
        <ele>259</ele>
        <time>2011-03-26T15:16:58Z</time>
      </trkpt>
      <trkpt lat="44.06262" lon="2.01454">
        <ele>259</ele>
        <time>2011-03-26T15:16:59Z</time>
      </trkpt>
      <trkpt lat="44.0626" lon="2.0146">
        <ele>256</ele>
        <time>2011-03-26T15:17:00Z</time>
      </trkpt>
      <trkpt lat="44.06258" lon="2.01465">
        <ele>256</ele>
        <time>2011-03-26T15:17:01Z</time>
      </trkpt>
      <trkpt lat="44.06255" lon="2.01472">
        <ele>256</ele>
        <time>2011-03-26T15:17:02Z</time>
      </trkpt>
      <trkpt lat="44.06253" lon="2.01478">
        <ele>256</ele>
        <time>2011-03-26T15:17:03Z</time>
      </trkpt>
      <trkpt lat="44.0625" lon="2.01484">
        <ele>256</ele>
        <time>2011-03-26T15:17:04Z</time>
      </trkpt>
      <trkpt lat="44.06248" lon="2.01489">
        <ele>256</ele>
        <time>2011-03-26T15:17:05Z</time>
      </trkpt>
      <trkpt lat="44.06246" lon="2.01495">
        <ele>256</ele>
        <time>2011-03-26T15:17:06Z</time>
      </trkpt>
      <trkpt lat="44.06243" lon="2.015">
        <ele>256</ele>
        <time>2011-03-26T15:17:07Z</time>
      </trkpt>
      <trkpt lat="44.06241" lon="2.01505">
        <ele>256</ele>
        <time>2011-03-26T15:17:08Z</time>
      </trkpt>
      <trkpt lat="44.06239" lon="2.0151">
        <ele>256</ele>
        <time>2011-03-26T15:17:09Z</time>
      </trkpt>
      <trkpt lat="44.06236" lon="2.01515">
        <ele>256</ele>
        <time>2011-03-26T15:17:10Z</time>
      </trkpt>
      <trkpt lat="44.06233" lon="2.0152">
        <ele>256</ele>
        <time>2011-03-26T15:17:11Z</time>
      </trkpt>
      <trkpt lat="44.06229" lon="2.01525">
        <ele>256</ele>
        <time>2011-03-26T15:17:12Z</time>
      </trkpt>
      <trkpt lat="44.06226" lon="2.01531">
        <ele>256</ele>
        <time>2011-03-26T15:17:13Z</time>
      </trkpt>
      <trkpt lat="44.06222" lon="2.01537">
        <ele>256</ele>
        <time>2011-03-26T15:17:14Z</time>
      </trkpt>
      <trkpt lat="44.06219" lon="2.01542">
        <ele>255</ele>
        <time>2011-03-26T15:17:15Z</time>
      </trkpt>
      <trkpt lat="44.06215" lon="2.01548">
        <ele>255</ele>
        <time>2011-03-26T15:17:16Z</time>
      </trkpt>
      <trkpt lat="44.06211" lon="2.01554">
        <ele>255</ele>
        <time>2011-03-26T15:17:17Z</time>
      </trkpt>
      <trkpt lat="44.06207" lon="2.01561">
        <ele>258</ele>
        <time>2011-03-26T15:17:18Z</time>
      </trkpt>
      <trkpt lat="44.06204" lon="2.01568">
        <ele>258</ele>
        <time>2011-03-26T15:17:19Z</time>
      </trkpt>
      <trkpt lat="44.06201" lon="2.01575">
        <ele>258</ele>
        <time>2011-03-26T15:17:20Z</time>
      </trkpt>
      <trkpt lat="44.06199" lon="2.01584">
        <ele>258</ele>
        <time>2011-03-26T15:17:21Z</time>
      </trkpt>
      <trkpt lat="44.06198" lon="2.01593">
        <ele>258</ele>
        <time>2011-03-26T15:17:22Z</time>
      </trkpt>
      <trkpt lat="44.06198" lon="2.01601">
        <ele>258</ele>
        <time>2011-03-26T15:17:23Z</time>
      </trkpt>
      <trkpt lat="44.06198" lon="2.01609">
        <ele>258</ele>
        <time>2011-03-26T15:17:24Z</time>
      </trkpt>
      <trkpt lat="44.06199" lon="2.01617">
        <ele>258</ele>
        <time>2011-03-26T15:17:25Z</time>
      </trkpt>
      <trkpt lat="44.06199" lon="2.01625">
        <ele>262</ele>
        <time>2011-03-26T15:17:26Z</time>
      </trkpt>
      <trkpt lat="44.062" lon="2.01633">
        <ele>262</ele>
        <time>2011-03-26T15:17:27Z</time>
      </trkpt>
      <trkpt lat="44.06201" lon="2.0164">
        <ele>262</ele>
        <time>2011-03-26T15:17:28Z</time>
      </trkpt>
      <trkpt lat="44.06201" lon="2.01647">
        <ele>262</ele>
        <time>2011-03-26T15:17:29Z</time>
      </trkpt>
      <trkpt lat="44.06202" lon="2.01655">
        <ele>262</ele>
        <time>2011-03-26T15:17:30Z</time>
      </trkpt>
      <trkpt lat="44.06203" lon="2.01662">
        <ele>262</ele>
        <time>2011-03-26T15:17:31Z</time>
      </trkpt>
      <trkpt lat="44.06203" lon="2.01669">
        <ele>262</ele>
        <time>2011-03-26T15:17:32Z</time>
      </trkpt>
      <trkpt lat="44.06202" lon="2.01677">
        <ele>262</ele>
        <time>2011-03-26T15:17:33Z</time>
      </trkpt>
      <trkpt lat="44.06202" lon="2.01684">
        <ele>262</ele>
        <time>2011-03-26T15:17:34Z</time>
      </trkpt>
      <trkpt lat="44.06201" lon="2.01692">
        <ele>262</ele>
        <time>2011-03-26T15:17:35Z</time>
      </trkpt>
      <trkpt lat="44.06201" lon="2.01699">
        <ele>262</ele>
        <time>2011-03-26T15:17:36Z</time>
      </trkpt>
      <trkpt lat="44.062" lon="2.01706">
        <ele>262</ele>
        <time>2011-03-26T15:17:37Z</time>
      </trkpt>
      <trkpt lat="44.06199" lon="2.01712">
        <ele>266</ele>
        <time>2011-03-26T15:17:38Z</time>
      </trkpt>
      <trkpt lat="44.06198" lon="2.01717">
        <ele>266</ele>
        <time>2011-03-26T15:17:39Z</time>
      </trkpt>
      <trkpt lat="44.06197" lon="2.01723">
        <ele>266</ele>
        <time>2011-03-26T15:17:40Z</time>
      </trkpt>
      <trkpt lat="44.06197" lon="2.01728">
        <ele>266</ele>
        <time>2011-03-26T15:17:41Z</time>
      </trkpt>
      <trkpt lat="44.06196" lon="2.01733">
        <ele>266</ele>
        <time>2011-03-26T15:17:42Z</time>
      </trkpt>
      <trkpt lat="44.06195" lon="2.01738">
        <ele>266</ele>
        <time>2011-03-26T15:17:43Z</time>
      </trkpt>
      <trkpt lat="44.06194" lon="2.01743">
        <ele>266</ele>
        <time>2011-03-26T15:17:44Z</time>
      </trkpt>
      <trkpt lat="44.06193" lon="2.01749">
        <ele>266</ele>
        <time>2011-03-26T15:17:45Z</time>
      </trkpt>
      <trkpt lat="44.06192" lon="2.01754">
        <ele>266</ele>
        <time>2011-03-26T15:17:46Z</time>
      </trkpt>
      <trkpt lat="44.06191" lon="2.0176">
        <ele>266</ele>
        <time>2011-03-26T15:17:47Z</time>
      </trkpt>
      <trkpt lat="44.0619" lon="2.01765">
        <ele>266</ele>
        <time>2011-03-26T15:17:48Z</time>
      </trkpt>
      <trkpt lat="44.06189" lon="2.01768">
        <ele>266</ele>
        <time>2011-03-26T15:17:49Z</time>
      </trkpt>
      <trkpt lat="44.06187" lon="2.01772">
        <ele>266</ele>
        <time>2011-03-26T15:17:50Z</time>
      </trkpt>
      <trkpt lat="44.06187" lon="2.01772">
        <ele>266</ele>
        <time>2011-03-26T15:17:51Z</time>
      </trkpt>
      <trkpt lat="44.06185" lon="2.01779">
        <ele>266</ele>
        <time>2011-03-26T15:17:52Z</time>
      </trkpt>
      <trkpt lat="44.06184" lon="2.01785">
        <ele>266</ele>
        <time>2011-03-26T15:17:53Z</time>
      </trkpt>
      <trkpt lat="44.06182" lon="2.01791">
        <ele>266</ele>
        <time>2011-03-26T15:17:54Z</time>
      </trkpt>
      <trkpt lat="44.06181" lon="2.01797">
        <ele>266</ele>
        <time>2011-03-26T15:17:55Z</time>
      </trkpt>
      <trkpt lat="44.06181" lon="2.01804">
        <ele>266</ele>
        <time>2011-03-26T15:17:56Z</time>
      </trkpt>
      <trkpt lat="44.06179" lon="2.01809">
        <ele>266</ele>
        <time>2011-03-26T15:17:57Z</time>
      </trkpt>
      <trkpt lat="44.06177" lon="2.01815">
        <ele>266</ele>
        <time>2011-03-26T15:17:58Z</time>
      </trkpt>
      <trkpt lat="44.06175" lon="2.0182">
        <ele>266</ele>
        <time>2011-03-26T15:17:59Z</time>
      </trkpt>
      <trkpt lat="44.06174" lon="2.01825">
        <ele>266</ele>
        <time>2011-03-26T15:18:00Z</time>
      </trkpt>
      <trkpt lat="44.06173" lon="2.0183">
        <ele>266</ele>
        <time>2011-03-26T15:18:01Z</time>
      </trkpt>
      <trkpt lat="44.06171" lon="2.01835">
        <ele>266</ele>
        <time>2011-03-26T15:18:02Z</time>
      </trkpt>
      <trkpt lat="44.06171" lon="2.0184">
        <ele>266</ele>
        <time>2011-03-26T15:18:03Z</time>
      </trkpt>
      <trkpt lat="44.0617" lon="2.01845">
        <ele>266</ele>
        <time>2011-03-26T15:18:04Z</time>
      </trkpt>
      <trkpt lat="44.06169" lon="2.01848">
        <ele>266</ele>
        <time>2011-03-26T15:18:05Z</time>
      </trkpt>
      <trkpt lat="44.06167" lon="2.01851">
        <ele>266</ele>
        <time>2011-03-26T15:18:06Z</time>
      </trkpt>
      <trkpt lat="44.06165" lon="2.01855">
        <ele>266</ele>
        <time>2011-03-26T15:18:07Z</time>
      </trkpt>
      <trkpt lat="44.06163" lon="2.01858">
        <ele>266</ele>
        <time>2011-03-26T15:18:08Z</time>
      </trkpt>
      <trkpt lat="44.06163" lon="2.01864">
        <ele>266</ele>
        <time>2011-03-26T15:18:09Z</time>
      </trkpt>
      <trkpt lat="44.06163" lon="2.01869">
        <ele>266</ele>
        <time>2011-03-26T15:18:10Z</time>
      </trkpt>
      <trkpt lat="44.06163" lon="2.01875">
        <ele>261</ele>
        <time>2011-03-26T15:18:11Z</time>
      </trkpt>
      <trkpt lat="44.06164" lon="2.01883">
        <ele>261</ele>
        <time>2011-03-26T15:18:12Z</time>
      </trkpt>
      <trkpt lat="44.06166" lon="2.01891">
        <ele>261</ele>
        <time>2011-03-26T15:18:13Z</time>
      </trkpt>
      <trkpt lat="44.06167" lon="2.01899">
        <ele>261</ele>
        <time>2011-03-26T15:18:14Z</time>
      </trkpt>
      <trkpt lat="44.06168" lon="2.01907">
        <ele>261</ele>
        <time>2011-03-26T15:18:15Z</time>
      </trkpt>
      <trkpt lat="44.06169" lon="2.01915">
        <ele>261</ele>
        <time>2011-03-26T15:18:16Z</time>
      </trkpt>
      <trkpt lat="44.06169" lon="2.01922">
        <ele>261</ele>
        <time>2011-03-26T15:18:17Z</time>
      </trkpt>
      <trkpt lat="44.0617" lon="2.01929">
        <ele>261</ele>
        <time>2011-03-26T15:18:18Z</time>
      </trkpt>
      <trkpt lat="44.06171" lon="2.01935">
        <ele>261</ele>
        <time>2011-03-26T15:18:19Z</time>
      </trkpt>
      <trkpt lat="44.06173" lon="2.0194">
        <ele>261</ele>
        <time>2011-03-26T15:18:20Z</time>
      </trkpt>
      <trkpt lat="44.06174" lon="2.01945">
        <ele>261</ele>
        <time>2011-03-26T15:18:21Z</time>
      </trkpt>
      <trkpt lat="44.06176" lon="2.01949">
        <ele>261</ele>
        <time>2011-03-26T15:18:22Z</time>
      </trkpt>
      <trkpt lat="44.06179" lon="2.01952">
        <ele>261</ele>
        <time>2011-03-26T15:18:23Z</time>
      </trkpt>
      <trkpt lat="44.06182" lon="2.01956">
        <ele>261</ele>
        <time>2011-03-26T15:18:24Z</time>
      </trkpt>
      <trkpt lat="44.06184" lon="2.01959">
        <ele>257</ele>
        <time>2011-03-26T15:18:25Z</time>
      </trkpt>
      <trkpt lat="44.06186" lon="2.01963">
        <ele>257</ele>
        <time>2011-03-26T15:18:26Z</time>
      </trkpt>
      <trkpt lat="44.06188" lon="2.01967">
        <ele>257</ele>
        <time>2011-03-26T15:18:27Z</time>
      </trkpt>
      <trkpt lat="44.0619" lon="2.01971">
        <ele>257</ele>
        <time>2011-03-26T15:18:28Z</time>
      </trkpt>
      <trkpt lat="44.06192" lon="2.01974">
        <ele>257</ele>
        <time>2011-03-26T15:18:29Z</time>
      </trkpt>
      <trkpt lat="44.06194" lon="2.01978">
        <ele>257</ele>
        <time>2011-03-26T15:18:30Z</time>
      </trkpt>
      <trkpt lat="44.06195" lon="2.01981">
        <ele>257</ele>
        <time>2011-03-26T15:18:31Z</time>
      </trkpt>
      <trkpt lat="44.06197" lon="2.01985">
        <ele>257</ele>
        <time>2011-03-26T15:18:33Z</time>
      </trkpt>
      <trkpt lat="44.06196" lon="2.01993">
        <ele>257</ele>
        <time>2011-03-26T15:18:36Z</time>
      </trkpt>
      <trkpt lat="44.06197" lon="2.01999">
        <ele>257</ele>
        <time>2011-03-26T15:18:38Z</time>
      </trkpt>
      <trkpt lat="44.06197" lon="2.02004">
        <ele>257</ele>
        <time>2011-03-26T15:18:40Z</time>
      </trkpt>
      <trkpt lat="44.06199" lon="2.0201">
        <ele>257</ele>
        <time>2011-03-26T15:18:42Z</time>
      </trkpt>
      <trkpt lat="44.062" lon="2.02014">
        <ele>257</ele>
        <time>2011-03-26T15:18:44Z</time>
      </trkpt>
      <trkpt lat="44.06201" lon="2.02018">
        <ele>257</ele>
        <time>2011-03-26T15:18:47Z</time>
      </trkpt>
      <trkpt lat="44.06205" lon="2.02021">
        <ele>257</ele>
        <time>2011-03-26T15:18:51Z</time>
      </trkpt>
      <trkpt lat="44.06211" lon="2.02026">
        <ele>262</ele>
        <time>2011-03-26T15:18:54Z</time>
      </trkpt>
      <trkpt lat="44.06218" lon="2.02031">
        <ele>262</ele>
        <time>2011-03-26T15:18:57Z</time>
      </trkpt>
      <trkpt lat="44.06221" lon="2.02032">
        <ele>262</ele>
        <time>2011-03-26T15:18:58Z</time>
      </trkpt>
      <trkpt lat="44.06223" lon="2.02034">
        <ele>262</ele>
        <time>2011-03-26T15:18:59Z</time>
      </trkpt>
      <trkpt lat="44.06225" lon="2.02036">
        <ele>262</ele>
        <time>2011-03-26T15:19:00Z</time>
      </trkpt>
      <trkpt lat="44.06227" lon="2.02038">
        <ele>262</ele>
        <time>2011-03-26T15:19:01Z</time>
      </trkpt>
      <trkpt lat="44.0623" lon="2.02039">
        <ele>262</ele>
        <time>2011-03-26T15:19:02Z</time>
      </trkpt>
      <trkpt lat="44.06232" lon="2.02041">
        <ele>262</ele>
        <time>2011-03-26T15:19:03Z</time>
      </trkpt>
      <trkpt lat="44.06234" lon="2.02042">
        <ele>266</ele>
        <time>2011-03-26T15:19:04Z</time>
      </trkpt>
      <trkpt lat="44.06236" lon="2.02044">
        <ele>266</ele>
        <time>2011-03-26T15:19:05Z</time>
      </trkpt>
      <trkpt lat="44.06238" lon="2.02045">
        <ele>266</ele>
        <time>2011-03-26T15:19:11Z</time>
      </trkpt>
      <trkpt lat="44.06244" lon="2.02046">
        <ele>266</ele>
        <time>2011-03-26T15:19:25Z</time>
      </trkpt>
      <trkpt lat="44.06247" lon="2.02047">
        <ele>266</ele>
        <time>2011-03-26T15:19:26Z</time>
      </trkpt>
      <trkpt lat="44.06249" lon="2.02048">
        <ele>266</ele>
        <time>2011-03-26T15:19:27Z</time>
      </trkpt>
      <trkpt lat="44.06253" lon="2.0205">
        <ele>266</ele>
        <time>2011-03-26T15:19:29Z</time>
      </trkpt>
      <trkpt lat="44.06256" lon="2.02051">
        <ele>266</ele>
        <time>2011-03-26T15:19:31Z</time>
      </trkpt>
      <trkpt lat="44.06258" lon="2.02052">
        <ele>266</ele>
        <time>2011-03-26T15:19:33Z</time>
      </trkpt>
      <trkpt lat="44.06261" lon="2.02053">
        <ele>266</ele>
        <time>2011-03-26T15:19:38Z</time>
      </trkpt>
      <trkpt lat="44.06264" lon="2.02053">
        <ele>266</ele>
        <time>2011-03-26T15:19:41Z</time>
      </trkpt>
      <trkpt lat="44.06266" lon="2.02054">
        <ele>266</ele>
        <time>2011-03-26T15:19:44Z</time>
      </trkpt>
      <trkpt lat="44.06268" lon="2.02055">
        <ele>266</ele>
        <time>2011-03-26T15:19:47Z</time>
      </trkpt>
      <trkpt lat="44.06271" lon="2.02055">
        <ele>266</ele>
        <time>2011-03-26T15:19:51Z</time>
      </trkpt>
      <trkpt lat="44.06274" lon="2.02054">
        <ele>266</ele>
        <time>2011-03-26T15:19:55Z</time>
      </trkpt>
      <trkpt lat="44.06277" lon="2.02054">
        <ele>266</ele>
        <time>2011-03-26T15:20:00Z</time>
      </trkpt>
      <trkpt lat="44.06281" lon="2.02057">
        <ele>266</ele>
        <time>2011-03-26T15:20:07Z</time>
      </trkpt>
      <trkpt lat="44.06283" lon="2.02057">
        <ele>266</ele>
        <time>2011-03-26T15:20:09Z</time>
      </trkpt>
      <trkpt lat="44.06285" lon="2.02058">
        <ele>266</ele>
        <time>2011-03-26T15:20:11Z</time>
      </trkpt>
      <trkpt lat="44.0629" lon="2.02061">
        <ele>266</ele>
        <time>2011-03-26T15:20:20Z</time>
      </trkpt>
      <trkpt lat="44.06292" lon="2.02062">
        <ele>289</ele>
        <time>2011-03-26T15:20:23Z</time>
      </trkpt>
      <trkpt lat="44.06295" lon="2.02062">
        <ele>289</ele>
        <time>2011-03-26T15:20:26Z</time>
      </trkpt>
      <trkpt lat="44.06297" lon="2.02062">
        <ele>289</ele>
        <time>2011-03-26T15:20:29Z</time>
      </trkpt>
      <trkpt lat="44.063" lon="2.02063">
        <ele>289</ele>
        <time>2011-03-26T15:20:33Z</time>
      </trkpt>
      <trkpt lat="44.06302" lon="2.02063">
        <ele>289</ele>
        <time>2011-03-26T15:20:37Z</time>
      </trkpt>
      <trkpt lat="44.06304" lon="2.02064">
        <ele>289</ele>
        <time>2011-03-26T15:20:40Z</time>
      </trkpt>
      <trkpt lat="44.06306" lon="2.02062">
        <ele>289</ele>
        <time>2011-03-26T15:20:43Z</time>
      </trkpt>
      <trkpt lat="44.06309" lon="2.0206">
        <ele>289</ele>
        <time>2011-03-26T15:20:47Z</time>
      </trkpt>
      <trkpt lat="44.06312" lon="2.02061">
        <ele>289</ele>
        <time>2011-03-26T15:20:53Z</time>
      </trkpt>
      <trkpt lat="44.06315" lon="2.02061">
        <ele>289</ele>
        <time>2011-03-26T15:20:59Z</time>
      </trkpt>
      <trkpt lat="44.06315" lon="2.02061">
        <ele>289</ele>
        <time>2011-03-26T15:21:00Z</time>
      </trkpt>
      <trkpt lat="44.06318" lon="2.02062">
        <ele>289</ele>
        <time>2011-03-26T15:21:05Z</time>
      </trkpt>
      <trkpt lat="44.0632" lon="2.02064">
        <ele>289</ele>
        <time>2011-03-26T15:21:10Z</time>
      </trkpt>
      <trkpt lat="44.06322" lon="2.02064">
        <ele>289</ele>
        <time>2011-03-26T15:21:17Z</time>
      </trkpt>
      <trkpt lat="44.06323" lon="2.02065">
        <ele>289</ele>
        <time>2011-03-26T15:21:19Z</time>
      </trkpt>
      <trkpt lat="44.06323" lon="2.02069">
        <ele>289</ele>
        <time>2011-03-26T15:21:29Z</time>
      </trkpt>
      <trkpt lat="44.06324" lon="2.02072">
        <ele>289</ele>
        <time>2011-03-26T15:21:36Z</time>
      </trkpt>
      <trkpt lat="44.06323" lon="2.02073">
        <ele>289</ele>
        <time>2011-03-26T15:21:37Z</time>
      </trkpt>
      <trkpt lat="44.06324" lon="2.02077">
        <ele>289</ele>
        <time>2011-03-26T15:21:40Z</time>
      </trkpt>
      <trkpt lat="44.06323" lon="2.02081">
        <ele>289</ele>
        <time>2011-03-26T15:21:43Z</time>
      </trkpt>
      <trkpt lat="44.06323" lon="2.02085">
        <ele>289</ele>
        <time>2011-03-26T15:21:46Z</time>
      </trkpt>
      <trkpt lat="44.06323" lon="2.02086">
        <ele>289</ele>
        <time>2011-03-26T15:21:47Z</time>
      </trkpt>
      <trkpt lat="44.06323" lon="2.0209">
        <ele>289</ele>
        <time>2011-03-26T15:21:50Z</time>
      </trkpt>
      <trkpt lat="44.06323" lon="2.02091">
        <ele>289</ele>
        <time>2011-03-26T15:21:51Z</time>
      </trkpt>
      <trkpt lat="44.06323" lon="2.02094">
        <ele>289</ele>
        <time>2011-03-26T15:21:54Z</time>
      </trkpt>
      <trkpt lat="44.06324" lon="2.02098">
        <ele>289</ele>
        <time>2011-03-26T15:21:56Z</time>
      </trkpt>
      <trkpt lat="44.06324" lon="2.02101">
        <ele>289</ele>
        <time>2011-03-26T15:21:58Z</time>
      </trkpt>
      <trkpt lat="44.06324" lon="2.02106">
        <ele>289</ele>
        <time>2011-03-26T15:22:01Z</time>
      </trkpt>
      <trkpt lat="44.06325" lon="2.02109">
        <ele>289</ele>
        <time>2011-03-26T15:22:05Z</time>
      </trkpt>
      <trkpt lat="44.06326" lon="2.02112">
        <ele>289</ele>
        <time>2011-03-26T15:22:08Z</time>
      </trkpt>
      <trkpt lat="44.06327" lon="2.02116">
        <ele>289</ele>
        <time>2011-03-26T15:22:11Z</time>
      </trkpt>
      <trkpt lat="44.06326" lon="2.02119">
        <ele>289</ele>
        <time>2011-03-26T15:22:14Z</time>
      </trkpt>
      <trkpt lat="44.06326" lon="2.02123">
        <ele>289</ele>
        <time>2011-03-26T15:22:18Z</time>
      </trkpt>
      <trkpt lat="44.06327" lon="2.02127">
        <ele>293</ele>
        <time>2011-03-26T15:22:23Z</time>
      </trkpt>
      <trkpt lat="44.06327" lon="2.02131">
        <ele>293</ele>
        <time>2011-03-26T15:22:26Z</time>
      </trkpt>
      <trkpt lat="44.06327" lon="2.02132">
        <ele>293</ele>
        <time>2011-03-26T15:22:27Z</time>
      </trkpt>
      <trkpt lat="44.06328" lon="2.02136">
        <ele>293</ele>
        <time>2011-03-26T15:22:31Z</time>
      </trkpt>
      <trkpt lat="44.06329" lon="2.02139">
        <ele>293</ele>
        <time>2011-03-26T15:22:34Z</time>
      </trkpt>
      <trkpt lat="44.0633" lon="2.02142">
        <ele>293</ele>
        <time>2011-03-26T15:22:37Z</time>
      </trkpt>
      <trkpt lat="44.06331" lon="2.02146">
        <ele>293</ele>
        <time>2011-03-26T15:22:40Z</time>
      </trkpt>
      <trkpt lat="44.06332" lon="2.0215">
        <ele>293</ele>
        <time>2011-03-26T15:22:43Z</time>
      </trkpt>
      <trkpt lat="44.06332" lon="2.02154">
        <ele>293</ele>
        <time>2011-03-26T15:22:45Z</time>
      </trkpt>
      <trkpt lat="44.06332" lon="2.02157">
        <ele>293</ele>
        <time>2011-03-26T15:22:47Z</time>
      </trkpt>
      <trkpt lat="44.06333" lon="2.02161">
        <ele>293</ele>
        <time>2011-03-26T15:22:49Z</time>
      </trkpt>
      <trkpt lat="44.06333" lon="2.02162">
        <ele>293</ele>
        <time>2011-03-26T15:22:50Z</time>
      </trkpt>
      <trkpt lat="44.06333" lon="2.02166">
        <ele>293</ele>
        <time>2011-03-26T15:22:53Z</time>
      </trkpt>
      <trkpt lat="44.06335" lon="2.02169">
        <ele>293</ele>
        <time>2011-03-26T15:22:56Z</time>
      </trkpt>
      <trkpt lat="44.06336" lon="2.02173">
        <ele>293</ele>
        <time>2011-03-26T15:22:59Z</time>
      </trkpt>
      <trkpt lat="44.06337" lon="2.02176">
        <ele>293</ele>
        <time>2011-03-26T15:23:01Z</time>
      </trkpt>
      <trkpt lat="44.06338" lon="2.02177">
        <ele>293</ele>
        <time>2011-03-26T15:23:02Z</time>
      </trkpt>
      <trkpt lat="44.06339" lon="2.02181">
        <ele>293</ele>
        <time>2011-03-26T15:23:05Z</time>
      </trkpt>
      <trkpt lat="44.0634" lon="2.02184">
        <ele>293</ele>
        <time>2011-03-26T15:23:07Z</time>
      </trkpt>
      <trkpt lat="44.06342" lon="2.02187">
        <ele>293</ele>
        <time>2011-03-26T15:23:10Z</time>
      </trkpt>
      <trkpt lat="44.06343" lon="2.02189">
        <ele>293</ele>
        <time>2011-03-26T15:23:11Z</time>
      </trkpt>
      <trkpt lat="44.06344" lon="2.02192">
        <ele>293</ele>
        <time>2011-03-26T15:23:14Z</time>
      </trkpt>
      <trkpt lat="44.06346" lon="2.02195">
        <ele>293</ele>
        <time>2011-03-26T15:23:17Z</time>
      </trkpt>
      <trkpt lat="44.06348" lon="2.02198">
        <ele>293</ele>
        <time>2011-03-26T15:23:19Z</time>
      </trkpt>
      <trkpt lat="44.06349" lon="2.022">
        <ele>293</ele>
        <time>2011-03-26T15:23:21Z</time>
      </trkpt>
      <trkpt lat="44.06352" lon="2.02202">
        <ele>293</ele>
        <time>2011-03-26T15:23:24Z</time>
      </trkpt>
      <trkpt lat="44.06354" lon="2.02205">
        <ele>293</ele>
        <time>2011-03-26T15:23:27Z</time>
      </trkpt>
      <trkpt lat="44.06356" lon="2.02207">
        <ele>293</ele>
        <time>2011-03-26T15:23:29Z</time>
      </trkpt>
      <trkpt lat="44.06357" lon="2.0221">
        <ele>299</ele>
        <time>2011-03-26T15:23:32Z</time>
      </trkpt>
      <trkpt lat="44.06359" lon="2.02213">
        <ele>299</ele>
        <time>2011-03-26T15:23:35Z</time>
      </trkpt>
      <trkpt lat="44.0636" lon="2.02216">
        <ele>299</ele>
        <time>2011-03-26T15:23:39Z</time>
      </trkpt>
      <trkpt lat="44.06362" lon="2.02219">
        <ele>299</ele>
        <time>2011-03-26T15:23:43Z</time>
      </trkpt>
      <trkpt lat="44.06363" lon="2.02223">
        <ele>299</ele>
        <time>2011-03-26T15:23:46Z</time>
      </trkpt>
      <trkpt lat="44.06364" lon="2.02226">
        <ele>299</ele>
        <time>2011-03-26T15:23:48Z</time>
      </trkpt>
      <trkpt lat="44.06365" lon="2.0223">
        <ele>299</ele>
        <time>2011-03-26T15:23:51Z</time>
      </trkpt>
      <trkpt lat="44.06366" lon="2.02233">
        <ele>299</ele>
        <time>2011-03-26T15:23:53Z</time>
      </trkpt>
      <trkpt lat="44.06367" lon="2.02236">
        <ele>299</ele>
        <time>2011-03-26T15:23:56Z</time>
      </trkpt>
      <trkpt lat="44.06369" lon="2.0224">
        <ele>299</ele>
        <time>2011-03-26T15:23:59Z</time>
      </trkpt>
      <trkpt lat="44.0637" lon="2.02242">
        <ele>299</ele>
        <time>2011-03-26T15:24:03Z</time>
      </trkpt>
      <trkpt lat="44.06372" lon="2.02246">
        <ele>299</ele>
        <time>2011-03-26T15:24:09Z</time>
      </trkpt>
      <trkpt lat="44.06372" lon="2.02249">
        <ele>299</ele>
        <time>2011-03-26T15:24:12Z</time>
      </trkpt>
      <trkpt lat="44.06374" lon="2.02253">
        <ele>299</ele>
        <time>2011-03-26T15:24:15Z</time>
      </trkpt>
      <trkpt lat="44.06376" lon="2.02257">
        <ele>313</ele>
        <time>2011-03-26T15:24:17Z</time>
      </trkpt>
      <trkpt lat="44.06378" lon="2.0226">
        <ele>313</ele>
        <time>2011-03-26T15:24:19Z</time>
      </trkpt>
      <trkpt lat="44.0638" lon="2.02263">
        <ele>313</ele>
        <time>2011-03-26T15:24:22Z</time>
      </trkpt>
      <trkpt lat="44.06382" lon="2.02265">
        <ele>313</ele>
        <time>2011-03-26T15:24:25Z</time>
      </trkpt>
      <trkpt lat="44.06383" lon="2.02268">
        <ele>313</ele>
        <time>2011-03-26T15:24:27Z</time>
      </trkpt>
      <trkpt lat="44.06385" lon="2.0227">
        <ele>313</ele>
        <time>2011-03-26T15:24:29Z</time>
      </trkpt>
      <trkpt lat="44.06388" lon="2.02272">
        <ele>313</ele>
        <time>2011-03-26T15:24:31Z</time>
      </trkpt>
      <trkpt lat="44.0639" lon="2.02275">
        <ele>313</ele>
        <time>2011-03-26T15:24:33Z</time>
      </trkpt>
      <trkpt lat="44.06391" lon="2.02276">
        <ele>313</ele>
        <time>2011-03-26T15:24:34Z</time>
      </trkpt>
      <trkpt lat="44.06393" lon="2.02278">
        <ele>313</ele>
        <time>2011-03-26T15:24:36Z</time>
      </trkpt>
      <trkpt lat="44.06396" lon="2.0228">
        <ele>313</ele>
        <time>2011-03-26T15:24:38Z</time>
      </trkpt>
      <trkpt lat="44.06398" lon="2.02283">
        <ele>313</ele>
        <time>2011-03-26T15:24:40Z</time>
      </trkpt>
      <trkpt lat="44.064" lon="2.02285">
        <ele>313</ele>
        <time>2011-03-26T15:24:42Z</time>
      </trkpt>
      <trkpt lat="44.06402" lon="2.02287">
        <ele>313</ele>
        <time>2011-03-26T15:24:44Z</time>
      </trkpt>
      <trkpt lat="44.06404" lon="2.02291">
        <ele>313</ele>
        <time>2011-03-26T15:24:46Z</time>
      </trkpt>
      <trkpt lat="44.06406" lon="2.02294">
        <ele>314</ele>
        <time>2011-03-26T15:24:48Z</time>
      </trkpt>
      <trkpt lat="44.06407" lon="2.02297">
        <ele>314</ele>
        <time>2011-03-26T15:24:50Z</time>
      </trkpt>
      <trkpt lat="44.06408" lon="2.023">
        <ele>314</ele>
        <time>2011-03-26T15:24:52Z</time>
      </trkpt>
      <trkpt lat="44.06409" lon="2.02304">
        <ele>314</ele>
        <time>2011-03-26T15:24:54Z</time>
      </trkpt>
      <trkpt lat="44.0641" lon="2.02306">
        <ele>314</ele>
        <time>2011-03-26T15:24:56Z</time>
      </trkpt>
      <trkpt lat="44.06411" lon="2.02309">
        <ele>314</ele>
        <time>2011-03-26T15:24:58Z</time>
      </trkpt>
      <trkpt lat="44.06413" lon="2.02313">
        <ele>314</ele>
        <time>2011-03-26T15:25:00Z</time>
      </trkpt>
      <trkpt lat="44.06414" lon="2.02316">
        <ele>314</ele>
        <time>2011-03-26T15:25:02Z</time>
      </trkpt>
      <trkpt lat="44.06416" lon="2.02319">
        <ele>314</ele>
        <time>2011-03-26T15:25:04Z</time>
      </trkpt>
      <trkpt lat="44.06417" lon="2.02322">
        <ele>314</ele>
        <time>2011-03-26T15:25:06Z</time>
      </trkpt>
      <trkpt lat="44.0642" lon="2.02325">
        <ele>314</ele>
        <time>2011-03-26T15:25:08Z</time>
      </trkpt>
      <trkpt lat="44.06422" lon="2.02328">
        <ele>314</ele>
        <time>2011-03-26T15:25:10Z</time>
      </trkpt>
      <trkpt lat="44.06425" lon="2.02331">
        <ele>314</ele>
        <time>2011-03-26T15:25:12Z</time>
      </trkpt>
      <trkpt lat="44.06428" lon="2.02333">
        <ele>314</ele>
        <time>2011-03-26T15:25:14Z</time>
      </trkpt>
      <trkpt lat="44.06431" lon="2.02335">
        <ele>314</ele>
        <time>2011-03-26T15:25:16Z</time>
      </trkpt>
      <trkpt lat="44.06434" lon="2.02336">
        <ele>314</ele>
        <time>2011-03-26T15:25:18Z</time>
      </trkpt>
      <trkpt lat="44.06436" lon="2.02339">
        <ele>314</ele>
        <time>2011-03-26T15:25:20Z</time>
      </trkpt>
      <trkpt lat="44.06439" lon="2.02341">
        <ele>314</ele>
        <time>2011-03-26T15:25:22Z</time>
      </trkpt>
      <trkpt lat="44.06442" lon="2.02345">
        <ele>314</ele>
        <time>2011-03-26T15:25:24Z</time>
      </trkpt>
      <trkpt lat="44.06445" lon="2.02349">
        <ele>314</ele>
        <time>2011-03-26T15:25:26Z</time>
      </trkpt>
      <trkpt lat="44.06448" lon="2.02353">
        <ele>314</ele>
        <time>2011-03-26T15:25:28Z</time>
      </trkpt>
      <trkpt lat="44.0645" lon="2.02355">
        <ele>314</ele>
        <time>2011-03-26T15:25:29Z</time>
      </trkpt>
      <trkpt lat="44.06452" lon="2.02357">
        <ele>314</ele>
        <time>2011-03-26T15:25:30Z</time>
      </trkpt>
      <trkpt lat="44.06454" lon="2.02359">
        <ele>314</ele>
        <time>2011-03-26T15:25:31Z</time>
      </trkpt>
      <trkpt lat="44.06457" lon="2.02361">
        <ele>314</ele>
        <time>2011-03-26T15:25:32Z</time>
      </trkpt>
      <trkpt lat="44.06459" lon="2.02363">
        <ele>319</ele>
        <time>2011-03-26T15:25:33Z</time>
      </trkpt>
      <trkpt lat="44.06462" lon="2.02365">
        <ele>319</ele>
        <time>2011-03-26T15:25:34Z</time>
      </trkpt>
      <trkpt lat="44.06464" lon="2.02366">
        <ele>319</ele>
        <time>2011-03-26T15:25:35Z</time>
      </trkpt>
      <trkpt lat="44.06466" lon="2.02368">
        <ele>319</ele>
        <time>2011-03-26T15:25:36Z</time>
      </trkpt>
      <trkpt lat="44.06468" lon="2.0237">
        <ele>319</ele>
        <time>2011-03-26T15:25:37Z</time>
      </trkpt>
      <trkpt lat="44.0647" lon="2.02372">
        <ele>319</ele>
        <time>2011-03-26T15:25:38Z</time>
      </trkpt>
      <trkpt lat="44.06474" lon="2.02375">
        <ele>320</ele>
        <time>2011-03-26T15:25:40Z</time>
      </trkpt>
      <trkpt lat="44.06477" lon="2.02379">
        <ele>320</ele>
        <time>2011-03-26T15:25:42Z</time>
      </trkpt>
      <trkpt lat="44.06479" lon="2.02382">
        <ele>320</ele>
        <time>2011-03-26T15:25:43Z</time>
      </trkpt>
      <trkpt lat="44.06481" lon="2.02384">
        <ele>320</ele>
        <time>2011-03-26T15:25:44Z</time>
      </trkpt>
      <trkpt lat="44.06483" lon="2.02387">
        <ele>320</ele>
        <time>2011-03-26T15:25:45Z</time>
      </trkpt>
      <trkpt lat="44.06484" lon="2.0239">
        <ele>320</ele>
        <time>2011-03-26T15:25:46Z</time>
      </trkpt>
      <trkpt lat="44.06486" lon="2.02393">
        <ele>320</ele>
        <time>2011-03-26T15:25:47Z</time>
      </trkpt>
      <trkpt lat="44.06488" lon="2.02396">
        <ele>320</ele>
        <time>2011-03-26T15:25:49Z</time>
      </trkpt>
      <trkpt lat="44.06491" lon="2.024">
        <ele>320</ele>
        <time>2011-03-26T15:25:51Z</time>
      </trkpt>
      <trkpt lat="44.06493" lon="2.02404">
        <ele>320</ele>
        <time>2011-03-26T15:25:53Z</time>
      </trkpt>
      <trkpt lat="44.06495" lon="2.02408">
        <ele>320</ele>
        <time>2011-03-26T15:25:55Z</time>
      </trkpt>
      <trkpt lat="44.06496" lon="2.02412">
        <ele>320</ele>
        <time>2011-03-26T15:25:57Z</time>
      </trkpt>
      <trkpt lat="44.06497" lon="2.02415">
        <ele>320</ele>
        <time>2011-03-26T15:25:59Z</time>
      </trkpt>
      <trkpt lat="44.06499" lon="2.02417">
        <ele>320</ele>
        <time>2011-03-26T15:26:02Z</time>
      </trkpt>
      <trkpt lat="44.06502" lon="2.0242">
        <ele>320</ele>
        <time>2011-03-26T15:26:06Z</time>
      </trkpt>
      <trkpt lat="44.06504" lon="2.02423">
        <ele>320</ele>
        <time>2011-03-26T15:26:08Z</time>
      </trkpt>
      <trkpt lat="44.06505" lon="2.02426">
        <ele>320</ele>
        <time>2011-03-26T15:26:10Z</time>
      </trkpt>
      <trkpt lat="44.06508" lon="2.02428">
        <ele>320</ele>
        <time>2011-03-26T15:26:20Z</time>
      </trkpt>
      <trkpt lat="44.06508" lon="2.02429">
        <ele>320</ele>
        <time>2011-03-26T15:26:22Z</time>
      </trkpt>
      <trkpt lat="44.06509" lon="2.02433">
        <ele>320</ele>
        <time>2011-03-26T15:26:26Z</time>
      </trkpt>
      <trkpt lat="44.06511" lon="2.02438">
        <ele>320</ele>
        <time>2011-03-26T15:26:28Z</time>
      </trkpt>
      <trkpt lat="44.06514" lon="2.02443">
        <ele>320</ele>
        <time>2011-03-26T15:26:30Z</time>
      </trkpt>
      <trkpt lat="44.06515" lon="2.02446">
        <ele>320</ele>
        <time>2011-03-26T15:26:31Z</time>
      </trkpt>
      <trkpt lat="44.06516" lon="2.0245">
        <ele>320</ele>
        <time>2011-03-26T15:26:32Z</time>
      </trkpt>
      <trkpt lat="44.06517" lon="2.02453">
        <ele>320</ele>
        <time>2011-03-26T15:26:33Z</time>
      </trkpt>
      <trkpt lat="44.06518" lon="2.02457">
        <ele>320</ele>
        <time>2011-03-26T15:26:34Z</time>
      </trkpt>
      <trkpt lat="44.0652" lon="2.0246">
        <ele>318</ele>
        <time>2011-03-26T15:26:35Z</time>
      </trkpt>
      <trkpt lat="44.06522" lon="2.02464">
        <ele>318</ele>
        <time>2011-03-26T15:26:36Z</time>
      </trkpt>
      <trkpt lat="44.06523" lon="2.02468">
        <ele>318</ele>
        <time>2011-03-26T15:26:37Z</time>
      </trkpt>
      <trkpt lat="44.06525" lon="2.02473">
        <ele>318</ele>
        <time>2011-03-26T15:26:38Z</time>
      </trkpt>
      <trkpt lat="44.06526" lon="2.02477">
        <ele>318</ele>
        <time>2011-03-26T15:26:39Z</time>
      </trkpt>
      <trkpt lat="44.06528" lon="2.02481">
        <ele>318</ele>
        <time>2011-03-26T15:26:40Z</time>
      </trkpt>
      <trkpt lat="44.06529" lon="2.02484">
        <ele>318</ele>
        <time>2011-03-26T15:26:41Z</time>
      </trkpt>
      <trkpt lat="44.0653" lon="2.02487">
        <ele>318</ele>
        <time>2011-03-26T15:26:42Z</time>
      </trkpt>
      <trkpt lat="44.06531" lon="2.02491">
        <ele>318</ele>
        <time>2011-03-26T15:26:43Z</time>
      </trkpt>
      <trkpt lat="44.06532" lon="2.02495">
        <ele>318</ele>
        <time>2011-03-26T15:26:44Z</time>
      </trkpt>
      <trkpt lat="44.06534" lon="2.025">
        <ele>318</ele>
        <time>2011-03-26T15:26:45Z</time>
      </trkpt>
      <trkpt lat="44.06535" lon="2.02505">
        <ele>318</ele>
        <time>2011-03-26T15:26:46Z</time>
      </trkpt>
      <trkpt lat="44.06537" lon="2.0251">
        <ele>318</ele>
        <time>2011-03-26T15:26:47Z</time>
      </trkpt>
      <trkpt lat="44.06539" lon="2.02515">
        <ele>318</ele>
        <time>2011-03-26T15:26:48Z</time>
      </trkpt>
      <trkpt lat="44.0654" lon="2.02521">
        <ele>318</ele>
        <time>2011-03-26T15:26:49Z</time>
      </trkpt>
      <trkpt lat="44.06541" lon="2.02527">
        <ele>318</ele>
        <time>2011-03-26T15:26:50Z</time>
      </trkpt>
      <trkpt lat="44.06542" lon="2.02533">
        <ele>318</ele>
        <time>2011-03-26T15:26:51Z</time>
      </trkpt>
      <trkpt lat="44.06542" lon="2.0254">
        <ele>316</ele>
        <time>2011-03-26T15:26:52Z</time>
      </trkpt>
      <trkpt lat="44.06543" lon="2.02547">
        <ele>303</ele>
        <time>2011-03-26T15:26:53Z</time>
      </trkpt>
      <trkpt lat="44.06543" lon="2.02555">
        <ele>303</ele>
        <time>2011-03-26T15:26:54Z</time>
      </trkpt>
      <trkpt lat="44.06544" lon="2.02563">
        <ele>303</ele>
        <time>2011-03-26T15:26:55Z</time>
      </trkpt>
      <trkpt lat="44.06545" lon="2.02572">
        <ele>303</ele>
        <time>2011-03-26T15:26:56Z</time>
      </trkpt>
      <trkpt lat="44.06546" lon="2.02581">
        <ele>303</ele>
        <time>2011-03-26T15:26:57Z</time>
      </trkpt>
      <trkpt lat="44.06547" lon="2.0259">
        <ele>303</ele>
        <time>2011-03-26T15:26:58Z</time>
      </trkpt>
      <trkpt lat="44.06548" lon="2.026">
        <ele>303</ele>
        <time>2011-03-26T15:26:59Z</time>
      </trkpt>
      <trkpt lat="44.06549" lon="2.0261">
        <ele>303</ele>
        <time>2011-03-26T15:27:00Z</time>
      </trkpt>
      <trkpt lat="44.06549" lon="2.0262">
        <ele>303</ele>
        <time>2011-03-26T15:27:01Z</time>
      </trkpt>
      <trkpt lat="44.0655" lon="2.02632">
        <ele>298</ele>
        <time>2011-03-26T15:27:02Z</time>
      </trkpt>
      <trkpt lat="44.06551" lon="2.02643">
        <ele>298</ele>
        <time>2011-03-26T15:27:03Z</time>
      </trkpt>
      <trkpt lat="44.06552" lon="2.02655">
        <ele>298</ele>
        <time>2011-03-26T15:27:04Z</time>
      </trkpt>
      <trkpt lat="44.06554" lon="2.02666">
        <ele>298</ele>
        <time>2011-03-26T15:27:05Z</time>
      </trkpt>
      <trkpt lat="44.06558" lon="2.02677">
        <ele>298</ele>
        <time>2011-03-26T15:27:06Z</time>
      </trkpt>
      <trkpt lat="44.06562" lon="2.02688">
        <ele>298</ele>
        <time>2011-03-26T15:27:07Z</time>
      </trkpt>
      <trkpt lat="44.06566" lon="2.02698">
        <ele>298</ele>
        <time>2011-03-26T15:27:08Z</time>
      </trkpt>
      <trkpt lat="44.0657" lon="2.02709">
        <ele>300</ele>
        <time>2011-03-26T15:27:09Z</time>
      </trkpt>
      <trkpt lat="44.06575" lon="2.02721">
        <ele>300</ele>
        <time>2011-03-26T15:27:10Z</time>
      </trkpt>
      <trkpt lat="44.0658" lon="2.02732">
        <ele>300</ele>
        <time>2011-03-26T15:27:11Z</time>
      </trkpt>
      <trkpt lat="44.06585" lon="2.02743">
        <ele>300</ele>
        <time>2011-03-26T15:27:12Z</time>
      </trkpt>
      <trkpt lat="44.06589" lon="2.02753">
        <ele>300</ele>
        <time>2011-03-26T15:27:13Z</time>
      </trkpt>
      <trkpt lat="44.06593" lon="2.02764">
        <ele>300</ele>
        <time>2011-03-26T15:27:14Z</time>
      </trkpt>
      <trkpt lat="44.06597" lon="2.02774">
        <ele>300</ele>
        <time>2011-03-26T15:27:15Z</time>
      </trkpt>
      <trkpt lat="44.06601" lon="2.02784">
        <ele>300</ele>
        <time>2011-03-26T15:27:16Z</time>
      </trkpt>
      <trkpt lat="44.06606" lon="2.02796">
        <ele>301</ele>
        <time>2011-03-26T15:27:17Z</time>
      </trkpt>
      <trkpt lat="44.0661" lon="2.02807">
        <ele>301</ele>
        <time>2011-03-26T15:27:18Z</time>
      </trkpt>
      <trkpt lat="44.06616" lon="2.02817">
        <ele>301</ele>
        <time>2011-03-26T15:27:19Z</time>
      </trkpt>
      <trkpt lat="44.06621" lon="2.02828">
        <ele>301</ele>
        <time>2011-03-26T15:27:20Z</time>
      </trkpt>
      <trkpt lat="44.06626" lon="2.02837">
        <ele>291</ele>
        <time>2011-03-26T15:27:21Z</time>
      </trkpt>
      <trkpt lat="44.06631" lon="2.02845">
        <ele>291</ele>
        <time>2011-03-26T15:27:22Z</time>
      </trkpt>
      <trkpt lat="44.06637" lon="2.02853">
        <ele>291</ele>
        <time>2011-03-26T15:27:23Z</time>
      </trkpt>
      <trkpt lat="44.06642" lon="2.02861">
        <ele>291</ele>
        <time>2011-03-26T15:27:24Z</time>
      </trkpt>
      <trkpt lat="44.06647" lon="2.0287">
        <ele>291</ele>
        <time>2011-03-26T15:27:25Z</time>
      </trkpt>
      <trkpt lat="44.06653" lon="2.02875">
        <ele>291</ele>
        <time>2011-03-26T15:27:26Z</time>
      </trkpt>
      <trkpt lat="44.0666" lon="2.0288">
        <ele>298</ele>
        <time>2011-03-26T15:27:27Z</time>
      </trkpt>
      <trkpt lat="44.06666" lon="2.02884">
        <ele>298</ele>
        <time>2011-03-26T15:27:28Z</time>
      </trkpt>
      <trkpt lat="44.06673" lon="2.02889">
        <ele>298</ele>
        <time>2011-03-26T15:27:29Z</time>
      </trkpt>
      <trkpt lat="44.06679" lon="2.02893">
        <ele>298</ele>
        <time>2011-03-26T15:27:30Z</time>
      </trkpt>
      <trkpt lat="44.06685" lon="2.02897">
        <ele>298</ele>
        <time>2011-03-26T15:27:31Z</time>
      </trkpt>
      <trkpt lat="44.06692" lon="2.02902">
        <ele>298</ele>
        <time>2011-03-26T15:27:32Z</time>
      </trkpt>
      <trkpt lat="44.06698" lon="2.02906">
        <ele>298</ele>
        <time>2011-03-26T15:27:33Z</time>
      </trkpt>
      <trkpt lat="44.06704" lon="2.02907">
        <ele>298</ele>
        <time>2011-03-26T15:27:34Z</time>
      </trkpt>
      <trkpt lat="44.06711" lon="2.02908">
        <ele>286</ele>
        <time>2011-03-26T15:27:35Z</time>
      </trkpt>
      <trkpt lat="44.06717" lon="2.02909">
        <ele>286</ele>
        <time>2011-03-26T15:27:36Z</time>
      </trkpt>
      <trkpt lat="44.06723" lon="2.0291">
        <ele>286</ele>
        <time>2011-03-26T15:27:37Z</time>
      </trkpt>
      <trkpt lat="44.06729" lon="2.02912">
        <ele>286</ele>
        <time>2011-03-26T15:27:38Z</time>
      </trkpt>
      <trkpt lat="44.06735" lon="2.02917">
        <ele>286</ele>
        <time>2011-03-26T15:27:39Z</time>
      </trkpt>
      <trkpt lat="44.06741" lon="2.02921">
        <ele>286</ele>
        <time>2011-03-26T15:27:40Z</time>
      </trkpt>
      <trkpt lat="44.06748" lon="2.02925">
        <ele>286</ele>
        <time>2011-03-26T15:27:41Z</time>
      </trkpt>
      <trkpt lat="44.06754" lon="2.02929">
        <ele>286</ele>
        <time>2011-03-26T15:27:42Z</time>
      </trkpt>
      <trkpt lat="44.06761" lon="2.02931">
        <ele>286</ele>
        <time>2011-03-26T15:27:43Z</time>
      </trkpt>
      <trkpt lat="44.06768" lon="2.02933">
        <ele>286</ele>
        <time>2011-03-26T15:27:44Z</time>
      </trkpt>
      <trkpt lat="44.06774" lon="2.02936">
        <ele>286</ele>
        <time>2011-03-26T15:27:45Z</time>
      </trkpt>
      <trkpt lat="44.06781" lon="2.02939">
        <ele>286</ele>
        <time>2011-03-26T15:27:46Z</time>
      </trkpt>
      <trkpt lat="44.06787" lon="2.02941">
        <ele>286</ele>
        <time>2011-03-26T15:27:47Z</time>
      </trkpt>
      <trkpt lat="44.06793" lon="2.02944">
        <ele>268</ele>
        <time>2011-03-26T15:27:48Z</time>
      </trkpt>
      <trkpt lat="44.06797" lon="2.02946">
        <ele>268</ele>
        <time>2011-03-26T15:27:49Z</time>
      </trkpt>
      <trkpt lat="44.068" lon="2.02948">
        <ele>268</ele>
        <time>2011-03-26T15:27:50Z</time>
      </trkpt>
      <trkpt lat="44.06804" lon="2.0295">
        <ele>268</ele>
        <time>2011-03-26T15:27:51Z</time>
      </trkpt>
      <trkpt lat="44.06809" lon="2.02953">
        <ele>268</ele>
        <time>2011-03-26T15:27:52Z</time>
      </trkpt>
      <trkpt lat="44.06815" lon="2.02958">
        <ele>268</ele>
        <time>2011-03-26T15:27:53Z</time>
      </trkpt>
      <trkpt lat="44.06819" lon="2.02961">
        <ele>276</ele>
        <time>2011-03-26T15:27:54Z</time>
      </trkpt>
      <trkpt lat="44.06825" lon="2.02966">
        <ele>276</ele>
        <time>2011-03-26T15:27:55Z</time>
      </trkpt>
      <trkpt lat="44.0683" lon="2.02969">
        <ele>276</ele>
        <time>2011-03-26T15:27:56Z</time>
      </trkpt>
      <trkpt lat="44.06834" lon="2.02973">
        <ele>276</ele>
        <time>2011-03-26T15:27:57Z</time>
      </trkpt>
      <trkpt lat="44.06839" lon="2.02978">
        <ele>276</ele>
        <time>2011-03-26T15:27:58Z</time>
      </trkpt>
      <trkpt lat="44.06843" lon="2.02982">
        <ele>276</ele>
        <time>2011-03-26T15:27:59Z</time>
      </trkpt>
      <trkpt lat="44.06847" lon="2.02987">
        <ele>276</ele>
        <time>2011-03-26T15:28:00Z</time>
      </trkpt>
      <trkpt lat="44.0685" lon="2.02991">
        <ele>276</ele>
        <time>2011-03-26T15:28:01Z</time>
      </trkpt>
      <trkpt lat="44.06854" lon="2.02996">
        <ele>276</ele>
        <time>2011-03-26T15:28:02Z</time>
      </trkpt>
      <trkpt lat="44.06857" lon="2.03001">
        <ele>276</ele>
        <time>2011-03-26T15:28:03Z</time>
      </trkpt>
      <trkpt lat="44.06861" lon="2.03007">
        <ele>276</ele>
        <time>2011-03-26T15:28:04Z</time>
      </trkpt>
      <trkpt lat="44.06865" lon="2.03012">
        <ele>276</ele>
        <time>2011-03-26T15:28:05Z</time>
      </trkpt>
      <trkpt lat="44.06868" lon="2.03017">
        <ele>276</ele>
        <time>2011-03-26T15:28:06Z</time>
      </trkpt>
      <trkpt lat="44.06871" lon="2.03022">
        <ele>276</ele>
        <time>2011-03-26T15:28:07Z</time>
      </trkpt>
      <trkpt lat="44.06873" lon="2.03027">
        <ele>276</ele>
        <time>2011-03-26T15:28:08Z</time>
      </trkpt>
      <trkpt lat="44.06877" lon="2.03032">
        <ele>263</ele>
        <time>2011-03-26T15:28:09Z</time>
      </trkpt>
      <trkpt lat="44.0688" lon="2.03038">
        <ele>263</ele>
        <time>2011-03-26T15:28:10Z</time>
      </trkpt>
      <trkpt lat="44.06884" lon="2.03043">
        <ele>265</ele>
        <time>2011-03-26T15:28:11Z</time>
      </trkpt>
      <trkpt lat="44.06888" lon="2.0305">
        <ele>265</ele>
        <time>2011-03-26T15:28:12Z</time>
      </trkpt>
      <trkpt lat="44.06893" lon="2.03058">
        <ele>265</ele>
        <time>2011-03-26T15:28:13Z</time>
      </trkpt>
      <trkpt lat="44.06896" lon="2.03067">
        <ele>265</ele>
        <time>2011-03-26T15:28:14Z</time>
      </trkpt>
      <trkpt lat="44.069" lon="2.03075">
        <ele>265</ele>
        <time>2011-03-26T15:28:15Z</time>
      </trkpt>
      <trkpt lat="44.06903" lon="2.03083">
        <ele>265</ele>
        <time>2011-03-26T15:28:16Z</time>
      </trkpt>
      <trkpt lat="44.06905" lon="2.0309">
        <ele>265</ele>
        <time>2011-03-26T15:28:17Z</time>
      </trkpt>
      <trkpt lat="44.06906" lon="2.03098">
        <ele>265</ele>
        <time>2011-03-26T15:28:18Z</time>
      </trkpt>
      <trkpt lat="44.06905" lon="2.03104">
        <ele>265</ele>
        <time>2011-03-26T15:28:19Z</time>
      </trkpt>
      <trkpt lat="44.06904" lon="2.03108">
        <ele>265</ele>
        <time>2011-03-26T15:28:20Z</time>
      </trkpt>
      <trkpt lat="44.06903" lon="2.03115">
        <ele>265</ele>
        <time>2011-03-26T15:28:21Z</time>
      </trkpt>
      <trkpt lat="44.06903" lon="2.03123">
        <ele>265</ele>
        <time>2011-03-26T15:28:22Z</time>
      </trkpt>
      <trkpt lat="44.06905" lon="2.03132">
        <ele>263</ele>
        <time>2011-03-26T15:28:23Z</time>
      </trkpt>
      <trkpt lat="44.06907" lon="2.0314">
        <ele>263</ele>
        <time>2011-03-26T15:28:24Z</time>
      </trkpt>
      <trkpt lat="44.06909" lon="2.03148">
        <ele>263</ele>
        <time>2011-03-26T15:28:25Z</time>
      </trkpt>
      <trkpt lat="44.0691" lon="2.03156">
        <ele>263</ele>
        <time>2011-03-26T15:28:26Z</time>
      </trkpt>
      <trkpt lat="44.06912" lon="2.03164">
        <ele>263</ele>
        <time>2011-03-26T15:28:27Z</time>
      </trkpt>
      <trkpt lat="44.06913" lon="2.03169">
        <ele>263</ele>
        <time>2011-03-26T15:28:28Z</time>
      </trkpt>
      <trkpt lat="44.06918" lon="2.0318">
        <ele>263</ele>
        <time>2011-03-26T15:28:29Z</time>
      </trkpt>
      <trkpt lat="44.06921" lon="2.03188">
        <ele>263</ele>
        <time>2011-03-26T15:28:30Z</time>
      </trkpt>
      <trkpt lat="44.06924" lon="2.03195">
        <ele>263</ele>
        <time>2011-03-26T15:28:31Z</time>
      </trkpt>
      <trkpt lat="44.06926" lon="2.03201">
        <ele>263</ele>
        <time>2011-03-26T15:28:32Z</time>
      </trkpt>
      <trkpt lat="44.06929" lon="2.03208">
        <ele>263</ele>
        <time>2011-03-26T15:28:33Z</time>
      </trkpt>
      <trkpt lat="44.06931" lon="2.03214">
        <ele>257</ele>
        <time>2011-03-26T15:28:34Z</time>
      </trkpt>
      <trkpt lat="44.06933" lon="2.0322">
        <ele>257</ele>
        <time>2011-03-26T15:28:35Z</time>
      </trkpt>
      <trkpt lat="44.06935" lon="2.03226">
        <ele>257</ele>
        <time>2011-03-26T15:28:36Z</time>
      </trkpt>
      <trkpt lat="44.06937" lon="2.03232">
        <ele>257</ele>
        <time>2011-03-26T15:28:37Z</time>
      </trkpt>
      <trkpt lat="44.06939" lon="2.03238">
        <ele>257</ele>
        <time>2011-03-26T15:28:38Z</time>
      </trkpt>
      <trkpt lat="44.06941" lon="2.03244">
        <ele>257</ele>
        <time>2011-03-26T15:28:39Z</time>
      </trkpt>
      <trkpt lat="44.06943" lon="2.03251">
        <ele>257</ele>
        <time>2011-03-26T15:28:40Z</time>
      </trkpt>
      <trkpt lat="44.06944" lon="2.03257">
        <ele>257</ele>
        <time>2011-03-26T15:28:41Z</time>
      </trkpt>
      <trkpt lat="44.06945" lon="2.03264">
        <ele>257</ele>
        <time>2011-03-26T15:28:42Z</time>
      </trkpt>
      <trkpt lat="44.06945" lon="2.03268">
        <ele>257</ele>
        <time>2011-03-26T15:28:43Z</time>
      </trkpt>
      <trkpt lat="44.06944" lon="2.03275">
        <ele>257</ele>
        <time>2011-03-26T15:28:44Z</time>
      </trkpt>
      <trkpt lat="44.06938" lon="2.03281">
        <ele>257</ele>
        <time>2011-03-26T15:28:45Z</time>
      </trkpt>
      <trkpt lat="44.06933" lon="2.03287">
        <ele>257</ele>
        <time>2011-03-26T15:28:46Z</time>
      </trkpt>
      <trkpt lat="44.06929" lon="2.03293">
        <ele>245</ele>
        <time>2011-03-26T15:28:47Z</time>
      </trkpt>
      <trkpt lat="44.06926" lon="2.03299">
        <ele>245</ele>
        <time>2011-03-26T15:28:48Z</time>
      </trkpt>
      <trkpt lat="44.06924" lon="2.03306">
        <ele>245</ele>
        <time>2011-03-26T15:28:49Z</time>
      </trkpt>
      <trkpt lat="44.06921" lon="2.03313">
        <ele>245</ele>
        <time>2011-03-26T15:28:50Z</time>
      </trkpt>
      <trkpt lat="44.06917" lon="2.0332">
        <ele>245</ele>
        <time>2011-03-26T15:28:51Z</time>
      </trkpt>
      <trkpt lat="44.06913" lon="2.03329">
        <ele>245</ele>
        <time>2011-03-26T15:28:52Z</time>
      </trkpt>
      <trkpt lat="44.0691" lon="2.03337">
        <ele>245</ele>
        <time>2011-03-26T15:28:53Z</time>
      </trkpt>
      <trkpt lat="44.06906" lon="2.03346">
        <ele>245</ele>
        <time>2011-03-26T15:28:54Z</time>
      </trkpt>
      <trkpt lat="44.06902" lon="2.03354">
        <ele>245</ele>
        <time>2011-03-26T15:28:55Z</time>
      </trkpt>
      <trkpt lat="44.06898" lon="2.03363">
        <ele>245</ele>
        <time>2011-03-26T15:28:56Z</time>
      </trkpt>
      <trkpt lat="44.06894" lon="2.03371">
        <ele>245</ele>
        <time>2011-03-26T15:28:57Z</time>
      </trkpt>
      <trkpt lat="44.0689" lon="2.0338">
        <ele>234</ele>
        <time>2011-03-26T15:28:58Z</time>
      </trkpt>
      <trkpt lat="44.06886" lon="2.03388">
        <ele>234</ele>
        <time>2011-03-26T15:28:59Z</time>
      </trkpt>
      <trkpt lat="44.06882" lon="2.03397">
        <ele>234</ele>
        <time>2011-03-26T15:29:00Z</time>
      </trkpt>
      <trkpt lat="44.06881" lon="2.03401">
        <ele>234</ele>
        <time>2011-03-26T15:29:01Z</time>
      </trkpt>
      <trkpt lat="44.06879" lon="2.03405">
        <ele>234</ele>
        <time>2011-03-26T15:29:02Z</time>
      </trkpt>
      <trkpt lat="44.06877" lon="2.0341">
        <ele>234</ele>
        <time>2011-03-26T15:29:03Z</time>
      </trkpt>
      <trkpt lat="44.06875" lon="2.03414">
        <ele>234</ele>
        <time>2011-03-26T15:29:04Z</time>
      </trkpt>
      <trkpt lat="44.06873" lon="2.03416">
        <ele>255</ele>
        <time>2011-03-26T15:29:05Z</time>
      </trkpt>
      <trkpt lat="44.06871" lon="2.03421">
        <ele>255</ele>
        <time>2011-03-26T15:29:06Z</time>
      </trkpt>
      <trkpt lat="44.06869" lon="2.03426">
        <ele>255</ele>
        <time>2011-03-26T15:29:07Z</time>
      </trkpt>
      <trkpt lat="44.06867" lon="2.03431">
        <ele>255</ele>
        <time>2011-03-26T15:29:08Z</time>
      </trkpt>
      <trkpt lat="44.06865" lon="2.03436">
        <ele>255</ele>
        <time>2011-03-26T15:29:09Z</time>
      </trkpt>
      <trkpt lat="44.06862" lon="2.03442">
        <ele>255</ele>
        <time>2011-03-26T15:29:10Z</time>
      </trkpt>
      <trkpt lat="44.0686" lon="2.03448">
        <ele>255</ele>
        <time>2011-03-26T15:29:11Z</time>
      </trkpt>
      <trkpt lat="44.06857" lon="2.03454">
        <ele>255</ele>
        <time>2011-03-26T15:29:12Z</time>
      </trkpt>
      <trkpt lat="44.06854" lon="2.0346">
        <ele>242</ele>
        <time>2011-03-26T15:29:13Z</time>
      </trkpt>
      <trkpt lat="44.06851" lon="2.03466">
        <ele>242</ele>
        <time>2011-03-26T15:29:14Z</time>
      </trkpt>
      <trkpt lat="44.06847" lon="2.03472">
        <ele>242</ele>
        <time>2011-03-26T15:29:15Z</time>
      </trkpt>
      <trkpt lat="44.06844" lon="2.03478">
        <ele>242</ele>
        <time>2011-03-26T15:29:16Z</time>
      </trkpt>
      <trkpt lat="44.06841" lon="2.03484">
        <ele>242</ele>
        <time>2011-03-26T15:29:17Z</time>
      </trkpt>
      <trkpt lat="44.06838" lon="2.03489">
        <ele>242</ele>
        <time>2011-03-26T15:29:18Z</time>
      </trkpt>
      <trkpt lat="44.06834" lon="2.03495">
        <ele>242</ele>
        <time>2011-03-26T15:29:19Z</time>
      </trkpt>
      <trkpt lat="44.06831" lon="2.03501">
        <ele>242</ele>
        <time>2011-03-26T15:29:20Z</time>
      </trkpt>
      <trkpt lat="44.06828" lon="2.03506">
        <ele>242</ele>
        <time>2011-03-26T15:29:21Z</time>
      </trkpt>
      <trkpt lat="44.06825" lon="2.03512">
        <ele>242</ele>
        <time>2011-03-26T15:29:22Z</time>
      </trkpt>
      <trkpt lat="44.06823" lon="2.03518">
        <ele>242</ele>
        <time>2011-03-26T15:29:23Z</time>
      </trkpt>
      <trkpt lat="44.06821" lon="2.03522">
        <ele>242</ele>
        <time>2011-03-26T15:29:24Z</time>
      </trkpt>
      <trkpt lat="44.0682" lon="2.03525">
        <ele>242</ele>
        <time>2011-03-26T15:29:25Z</time>
      </trkpt>
      <trkpt lat="44.06818" lon="2.03529">
        <ele>242</ele>
        <time>2011-03-26T15:29:26Z</time>
      </trkpt>
      <trkpt lat="44.06818" lon="2.03535">
        <ele>242</ele>
        <time>2011-03-26T15:29:27Z</time>
      </trkpt>
      <trkpt lat="44.06818" lon="2.03539">
        <ele>242</ele>
        <time>2011-03-26T15:29:28Z</time>
      </trkpt>
      <trkpt lat="44.06818" lon="2.03546">
        <ele>239</ele>
        <time>2011-03-26T15:29:29Z</time>
      </trkpt>
      <trkpt lat="44.06819" lon="2.03554">
        <ele>239</ele>
        <time>2011-03-26T15:29:30Z</time>
      </trkpt>
      <trkpt lat="44.06821" lon="2.03562">
        <ele>239</ele>
        <time>2011-03-26T15:29:31Z</time>
      </trkpt>
      <trkpt lat="44.06822" lon="2.0357">
        <ele>239</ele>
        <time>2011-03-26T15:29:32Z</time>
      </trkpt>
      <trkpt lat="44.06823" lon="2.03574">
        <ele>239</ele>
        <time>2011-03-26T15:29:33Z</time>
      </trkpt>
      <trkpt lat="44.06819" lon="2.03586">
        <ele>239</ele>
        <time>2011-03-26T15:31:02Z</time>
      </trkpt>
      <trkpt lat="44.06817" lon="2.03591">
        <ele>239</ele>
        <time>2011-03-26T15:31:04Z</time>
      </trkpt>
      <trkpt lat="44.06821" lon="2.0359">
        <ele>239</ele>
        <time>2011-03-26T15:31:06Z</time>
      </trkpt>
      <trkpt lat="44.06824" lon="2.03589">
        <ele>239</ele>
        <time>2011-03-26T15:31:07Z</time>
      </trkpt>
      <trkpt lat="44.06827" lon="2.03588">
        <ele>239</ele>
        <time>2011-03-26T15:31:08Z</time>
      </trkpt>
      <trkpt lat="44.06832" lon="2.03587">
        <ele>239</ele>
        <time>2011-03-26T15:31:09Z</time>
      </trkpt>
      <trkpt lat="44.06836" lon="2.03585">
        <ele>239</ele>
        <time>2011-03-26T15:31:10Z</time>
      </trkpt>
      <trkpt lat="44.06842" lon="2.03583">
        <ele>239</ele>
        <time>2011-03-26T15:31:11Z</time>
      </trkpt>
      <trkpt lat="44.06848" lon="2.03581">
        <ele>239</ele>
        <time>2011-03-26T15:31:12Z</time>
      </trkpt>
      <trkpt lat="44.06854" lon="2.0358">
        <ele>239</ele>
        <time>2011-03-26T15:31:13Z</time>
      </trkpt>
      <trkpt lat="44.0686" lon="2.03578">
        <ele>239</ele>
        <time>2011-03-26T15:31:14Z</time>
      </trkpt>
      <trkpt lat="44.06866" lon="2.03576">
        <ele>239</ele>
        <time>2011-03-26T15:31:15Z</time>
      </trkpt>
      <trkpt lat="44.06872" lon="2.03574">
        <ele>239</ele>
        <time>2011-03-26T15:31:16Z</time>
      </trkpt>
      <trkpt lat="44.06879" lon="2.03573">
        <ele>234</ele>
        <time>2011-03-26T15:31:17Z</time>
      </trkpt>
      <trkpt lat="44.06887" lon="2.03574">
        <ele>234</ele>
        <time>2011-03-26T15:31:18Z</time>
      </trkpt>
      <trkpt lat="44.06894" lon="2.03574">
        <ele>234</ele>
        <time>2011-03-26T15:31:19Z</time>
      </trkpt>
      <trkpt lat="44.069" lon="2.03576">
        <ele>234</ele>
        <time>2011-03-26T15:31:20Z</time>
      </trkpt>
      <trkpt lat="44.06907" lon="2.03578">
        <ele>234</ele>
        <time>2011-03-26T15:31:21Z</time>
      </trkpt>
      <trkpt lat="44.06914" lon="2.03579">
        <ele>234</ele>
        <time>2011-03-26T15:31:22Z</time>
      </trkpt>
      <trkpt lat="44.06921" lon="2.03581">
        <ele>234</ele>
        <time>2011-03-26T15:31:23Z</time>
      </trkpt>
      <trkpt lat="44.06928" lon="2.03582">
        <ele>234</ele>
        <time>2011-03-26T15:31:24Z</time>
      </trkpt>
      <trkpt lat="44.06935" lon="2.03583">
        <ele>234</ele>
        <time>2011-03-26T15:31:25Z</time>
      </trkpt>
      <trkpt lat="44.06942" lon="2.03584">
        <ele>234</ele>
        <time>2011-03-26T15:31:26Z</time>
      </trkpt>
      <trkpt lat="44.0695" lon="2.03584">
        <ele>234</ele>
        <time>2011-03-26T15:31:27Z</time>
      </trkpt>
      <trkpt lat="44.06959" lon="2.03583">
        <ele>223</ele>
        <time>2011-03-26T15:31:28Z</time>
      </trkpt>
      <trkpt lat="44.06967" lon="2.0358">
        <ele>223</ele>
        <time>2011-03-26T15:31:29Z</time>
      </trkpt>
      <trkpt lat="44.06975" lon="2.03577">
        <ele>223</ele>
        <time>2011-03-26T15:31:30Z</time>
      </trkpt>
      <trkpt lat="44.06983" lon="2.03573">
        <ele>223</ele>
        <time>2011-03-26T15:31:31Z</time>
      </trkpt>
      <trkpt lat="44.0699" lon="2.03572">
        <ele>223</ele>
        <time>2011-03-26T15:31:32Z</time>
      </trkpt>
      <trkpt lat="44.06995" lon="2.03572">
        <ele>223</ele>
        <time>2011-03-26T15:31:33Z</time>
      </trkpt>
      <trkpt lat="44.07" lon="2.03573">
        <ele>223</ele>
        <time>2011-03-26T15:31:34Z</time>
      </trkpt>
      <trkpt lat="44.07004" lon="2.03575">
        <ele>223</ele>
        <time>2011-03-26T15:31:35Z</time>
      </trkpt>
      <trkpt lat="44.07009" lon="2.03578">
        <ele>223</ele>
        <time>2011-03-26T15:31:36Z</time>
      </trkpt>
      <trkpt lat="44.07015" lon="2.03581">
        <ele>223</ele>
        <time>2011-03-26T15:31:37Z</time>
      </trkpt>
      <trkpt lat="44.07019" lon="2.03588">
        <ele>223</ele>
        <time>2011-03-26T15:31:38Z</time>
      </trkpt>
      <trkpt lat="44.07023" lon="2.03596">
        <ele>223</ele>
        <time>2011-03-26T15:31:39Z</time>
      </trkpt>
      <trkpt lat="44.07028" lon="2.03604">
        <ele>223</ele>
        <time>2011-03-26T15:31:40Z</time>
      </trkpt>
      <trkpt lat="44.07032" lon="2.03613">
        <ele>223</ele>
        <time>2011-03-26T15:31:41Z</time>
      </trkpt>
      <trkpt lat="44.07037" lon="2.03622">
        <ele>223</ele>
        <time>2011-03-26T15:31:42Z</time>
      </trkpt>
      <trkpt lat="44.07042" lon="2.03633">
        <ele>231</ele>
        <time>2011-03-26T15:31:43Z</time>
      </trkpt>
      <trkpt lat="44.07046" lon="2.03643">
        <ele>208</ele>
        <time>2011-03-26T15:31:44Z</time>
      </trkpt>
      <trkpt lat="44.07051" lon="2.03654">
        <ele>208</ele>
        <time>2011-03-26T15:31:45Z</time>
      </trkpt>
      <trkpt lat="44.07055" lon="2.03664">
        <ele>208</ele>
        <time>2011-03-26T15:31:46Z</time>
      </trkpt>
      <trkpt lat="44.07058" lon="2.0367">
        <ele>208</ele>
        <time>2011-03-26T15:31:47Z</time>
      </trkpt>
      <trkpt lat="44.07061" lon="2.03676">
        <ele>208</ele>
        <time>2011-03-26T15:31:48Z</time>
      </trkpt>
      <trkpt lat="44.07064" lon="2.03684">
        <ele>208</ele>
        <time>2011-03-26T15:31:49Z</time>
      </trkpt>
      <trkpt lat="44.07066" lon="2.0369">
        <ele>208</ele>
        <time>2011-03-26T15:31:50Z</time>
      </trkpt>
      <trkpt lat="44.07066" lon="2.03696">
        <ele>208</ele>
        <time>2011-03-26T15:31:51Z</time>
      </trkpt>
      <trkpt lat="44.07067" lon="2.03702">
        <ele>208</ele>
        <time>2011-03-26T15:31:52Z</time>
      </trkpt>
      <trkpt lat="44.07067" lon="2.03708">
        <ele>208</ele>
        <time>2011-03-26T15:31:53Z</time>
      </trkpt>
      <trkpt lat="44.07068" lon="2.03715">
        <ele>211</ele>
        <time>2011-03-26T15:31:54Z</time>
      </trkpt>
      <trkpt lat="44.07069" lon="2.03721">
        <ele>211</ele>
        <time>2011-03-26T15:31:55Z</time>
      </trkpt>
      <trkpt lat="44.0707" lon="2.03726">
        <ele>211</ele>
        <time>2011-03-26T15:31:56Z</time>
      </trkpt>
      <trkpt lat="44.07071" lon="2.03731">
        <ele>211</ele>
        <time>2011-03-26T15:31:57Z</time>
      </trkpt>
      <trkpt lat="44.07073" lon="2.03735">
        <ele>211</ele>
        <time>2011-03-26T15:31:58Z</time>
      </trkpt>
      <trkpt lat="44.07074" lon="2.03739">
        <ele>211</ele>
        <time>2011-03-26T15:31:59Z</time>
      </trkpt>
      <trkpt lat="44.07076" lon="2.03742">
        <ele>211</ele>
        <time>2011-03-26T15:32:00Z</time>
      </trkpt>
      <trkpt lat="44.07077" lon="2.03746">
        <ele>211</ele>
        <time>2011-03-26T15:32:01Z</time>
      </trkpt>
      <trkpt lat="44.07079" lon="2.0375">
        <ele>211</ele>
        <time>2011-03-26T15:32:02Z</time>
      </trkpt>
      <trkpt lat="44.07081" lon="2.03755">
        <ele>211</ele>
        <time>2011-03-26T15:32:03Z</time>
      </trkpt>
      <trkpt lat="44.07083" lon="2.0376">
        <ele>211</ele>
        <time>2011-03-26T15:32:04Z</time>
      </trkpt>
      <trkpt lat="44.07085" lon="2.03765">
        <ele>211</ele>
        <time>2011-03-26T15:32:05Z</time>
      </trkpt>
      <trkpt lat="44.07087" lon="2.03771">
        <ele>211</ele>
        <time>2011-03-26T15:32:06Z</time>
      </trkpt>
      <trkpt lat="44.07089" lon="2.03777">
        <ele>211</ele>
        <time>2011-03-26T15:32:07Z</time>
      </trkpt>
      <trkpt lat="44.07092" lon="2.03784">
        <ele>211</ele>
        <time>2011-03-26T15:32:08Z</time>
      </trkpt>
      <trkpt lat="44.07094" lon="2.0379">
        <ele>211</ele>
        <time>2011-03-26T15:32:09Z</time>
      </trkpt>
      <trkpt lat="44.07096" lon="2.03796">
        <ele>215</ele>
        <time>2011-03-26T15:32:10Z</time>
      </trkpt>
      <trkpt lat="44.07097" lon="2.03801">
        <ele>215</ele>
        <time>2011-03-26T15:32:11Z</time>
      </trkpt>
      <trkpt lat="44.07098" lon="2.03808">
        <ele>215</ele>
        <time>2011-03-26T15:32:12Z</time>
      </trkpt>
      <trkpt lat="44.07099" lon="2.03814">
        <ele>215</ele>
        <time>2011-03-26T15:32:13Z</time>
      </trkpt>
      <trkpt lat="44.07099" lon="2.03821">
        <ele>215</ele>
        <time>2011-03-26T15:32:14Z</time>
      </trkpt>
      <trkpt lat="44.071" lon="2.03828">
        <ele>215</ele>
        <time>2011-03-26T15:32:15Z</time>
      </trkpt>
      <trkpt lat="44.07101" lon="2.03835">
        <ele>215</ele>
        <time>2011-03-26T15:32:16Z</time>
      </trkpt>
      <trkpt lat="44.07101" lon="2.03841">
        <ele>215</ele>
        <time>2011-03-26T15:32:17Z</time>
      </trkpt>
      <trkpt lat="44.07102" lon="2.03848">
        <ele>215</ele>
        <time>2011-03-26T15:32:18Z</time>
      </trkpt>
      <trkpt lat="44.07103" lon="2.03855">
        <ele>215</ele>
        <time>2011-03-26T15:32:19Z</time>
      </trkpt>
      <trkpt lat="44.07104" lon="2.03861">
        <ele>215</ele>
        <time>2011-03-26T15:32:20Z</time>
      </trkpt>
      <trkpt lat="44.07105" lon="2.03868">
        <ele>215</ele>
        <time>2011-03-26T15:32:21Z</time>
      </trkpt>
      <trkpt lat="44.07106" lon="2.03873">
        <ele>215</ele>
        <time>2011-03-26T15:32:22Z</time>
      </trkpt>
      <trkpt lat="44.07108" lon="2.03878">
        <ele>214</ele>
        <time>2011-03-26T15:32:23Z</time>
      </trkpt>
      <trkpt lat="44.07109" lon="2.03883">
        <ele>214</ele>
        <time>2011-03-26T15:32:24Z</time>
      </trkpt>
      <trkpt lat="44.07113" lon="2.03886">
        <ele>214</ele>
        <time>2011-03-26T15:32:25Z</time>
      </trkpt>
      <trkpt lat="44.07118" lon="2.03887">
        <ele>214</ele>
        <time>2011-03-26T15:32:26Z</time>
      </trkpt>
      <trkpt lat="44.07123" lon="2.03888">
        <ele>214</ele>
        <time>2011-03-26T15:32:27Z</time>
      </trkpt>
      <trkpt lat="44.07128" lon="2.03889">
        <ele>194</ele>
        <time>2011-03-26T15:32:28Z</time>
      </trkpt>
      <trkpt lat="44.07133" lon="2.03889">
        <ele>194</ele>
        <time>2011-03-26T15:32:29Z</time>
      </trkpt>
      <trkpt lat="44.07138" lon="2.03889">
        <ele>194</ele>
        <time>2011-03-26T15:32:30Z</time>
      </trkpt>
      <trkpt lat="44.07143" lon="2.03888">
        <ele>194</ele>
        <time>2011-03-26T15:32:31Z</time>
      </trkpt>
      <trkpt lat="44.07148" lon="2.03888">
        <ele>194</ele>
        <time>2011-03-26T15:32:32Z</time>
      </trkpt>
      <trkpt lat="44.07153" lon="2.03886">
        <ele>194</ele>
        <time>2011-03-26T15:32:33Z</time>
      </trkpt>
      <trkpt lat="44.07156" lon="2.03884">
        <ele>194</ele>
        <time>2011-03-26T15:32:34Z</time>
      </trkpt>
      <trkpt lat="44.0716" lon="2.03882">
        <ele>194</ele>
        <time>2011-03-26T15:32:35Z</time>
      </trkpt>
      <trkpt lat="44.07163" lon="2.0388">
        <ele>194</ele>
        <time>2011-03-26T15:32:36Z</time>
      </trkpt>
      <trkpt lat="44.07165" lon="2.03877">
        <ele>194</ele>
        <time>2011-03-26T15:32:37Z</time>
      </trkpt>
      <trkpt lat="44.07167" lon="2.03874">
        <ele>196</ele>
        <time>2011-03-26T15:32:38Z</time>
      </trkpt>
      <trkpt lat="44.07169" lon="2.03871">
        <ele>196</ele>
        <time>2011-03-26T15:32:39Z</time>
      </trkpt>
      <trkpt lat="44.0717" lon="2.0387">
        <ele>196</ele>
        <time>2011-03-26T15:32:41Z</time>
      </trkpt>
      <trkpt lat="44.07169" lon="2.03866">
        <ele>196</ele>
        <time>2011-03-26T15:32:52Z</time>
      </trkpt>
      <trkpt lat="44.07167" lon="2.03873">
        <ele>196</ele>
        <time>2011-03-26T15:34:51Z</time>
      </trkpt>
      <trkpt lat="44.07167" lon="2.03873">
        <ele>196</ele>
        <time>2011-03-26T15:34:55Z</time>
      </trkpt>
      <trkpt lat="44.07168" lon="2.03866">
        <ele>196</ele>
        <time>2011-03-26T15:35:12Z</time>
      </trkpt>
      <trkpt lat="44.07167" lon="2.0386">
        <ele>196</ele>
        <time>2011-03-26T15:35:25Z</time>
      </trkpt>
      <trkpt lat="44.07167" lon="2.0386">
        <ele>196</ele>
        <time>2011-03-26T15:35:28Z</time>
      </trkpt>
      <trkpt lat="44.07166" lon="2.03867">
        <ele>196</ele>
        <time>2011-03-26T15:35:42Z</time>
      </trkpt>
      <trkpt lat="44.07162" lon="2.03863">
        <ele>196</ele>
        <time>2011-03-26T15:35:53Z</time>
      </trkpt>
      <trkpt lat="44.07162" lon="2.03863">
        <ele>196</ele>
        <time>2011-03-26T15:36:00Z</time>
      </trkpt>
      <trkpt lat="44.07167" lon="2.03862">
        <ele>196</ele>
        <time>2011-03-26T15:36:06Z</time>
      </trkpt>
      <trkpt lat="44.07171" lon="2.03861">
        <ele>196</ele>
        <time>2011-03-26T15:36:15Z</time>
      </trkpt>
      <trkpt lat="44.07171" lon="2.03861">
        <ele>196</ele>
        <time>2011-03-26T15:36:16Z</time>
      </trkpt>
      <trkpt lat="44.07172" lon="2.03867">
        <ele>196</ele>
        <time>2011-03-26T15:36:37Z</time>
      </trkpt>
      <trkpt lat="44.07172" lon="2.03867">
        <ele>196</ele>
        <time>2011-03-26T15:36:42Z</time>
      </trkpt>
      <trkpt lat="44.0717" lon="2.03867">
        <ele>196</ele>
        <time>2011-03-26T15:36:49Z</time>
      </trkpt>
      <trkpt lat="44.07165" lon="2.03863">
        <ele>196</ele>
        <time>2011-03-26T15:37:00Z</time>
      </trkpt>
      <trkpt lat="44.07165" lon="2.03863">
        <ele>196</ele>
        <time>2011-03-26T15:37:04Z</time>
      </trkpt>
      <trkpt lat="44.07166" lon="2.03866">
        <ele>196</ele>
        <time>2011-03-26T15:37:08Z</time>
      </trkpt>
      <trkpt lat="44.07166" lon="2.03866">
        <ele>196</ele>
        <time>2011-03-26T15:37:16Z</time>
      </trkpt>
      <trkpt lat="44.07165" lon="2.0387">
        <ele>196</ele>
        <time>2011-03-26T15:37:19Z</time>
      </trkpt>
      <trkpt lat="44.07164" lon="2.03871">
        <ele>196</ele>
        <time>2011-03-26T15:37:20Z</time>
      </trkpt>
      <trkpt lat="44.07163" lon="2.03875">
        <ele>196</ele>
        <time>2011-03-26T15:37:24Z</time>
      </trkpt>
      <trkpt lat="44.07162" lon="2.03878">
        <ele>194</ele>
        <time>2011-03-26T15:37:26Z</time>
      </trkpt>
      <trkpt lat="44.07159" lon="2.03882">
        <ele>194</ele>
        <time>2011-03-26T15:37:28Z</time>
      </trkpt>
      <trkpt lat="44.07157" lon="2.03887">
        <ele>194</ele>
        <time>2011-03-26T15:37:30Z</time>
      </trkpt>
      <trkpt lat="44.07153" lon="2.03892">
        <ele>194</ele>
        <time>2011-03-26T15:37:32Z</time>
      </trkpt>
      <trkpt lat="44.07151" lon="2.03895">
        <ele>194</ele>
        <time>2011-03-26T15:37:33Z</time>
      </trkpt>
      <trkpt lat="44.0715" lon="2.03898">
        <ele>194</ele>
        <time>2011-03-26T15:37:34Z</time>
      </trkpt>
      <trkpt lat="44.07148" lon="2.03901">
        <ele>194</ele>
        <time>2011-03-26T15:37:35Z</time>
      </trkpt>
      <trkpt lat="44.07146" lon="2.03903">
        <ele>194</ele>
        <time>2011-03-26T15:37:36Z</time>
      </trkpt>
      <trkpt lat="44.07144" lon="2.03906">
        <ele>194</ele>
        <time>2011-03-26T15:37:37Z</time>
      </trkpt>
      <trkpt lat="44.07142" lon="2.03909">
        <ele>194</ele>
        <time>2011-03-26T15:37:38Z</time>
      </trkpt>
      <trkpt lat="44.0714" lon="2.03912">
        <ele>194</ele>
        <time>2011-03-26T15:37:39Z</time>
      </trkpt>
      <trkpt lat="44.07138" lon="2.03915">
        <ele>194</ele>
        <time>2011-03-26T15:37:40Z</time>
      </trkpt>
      <trkpt lat="44.07136" lon="2.03918">
        <ele>194</ele>
        <time>2011-03-26T15:37:41Z</time>
      </trkpt>
      <trkpt lat="44.07133" lon="2.03921">
        <ele>194</ele>
        <time>2011-03-26T15:37:42Z</time>
      </trkpt>
      <trkpt lat="44.07131" lon="2.03923">
        <ele>194</ele>
        <time>2011-03-26T15:37:43Z</time>
      </trkpt>
      <trkpt lat="44.07129" lon="2.03926">
        <ele>194</ele>
        <time>2011-03-26T15:37:44Z</time>
      </trkpt>
      <trkpt lat="44.07127" lon="2.0393">
        <ele>194</ele>
        <time>2011-03-26T15:37:45Z</time>
      </trkpt>
      <trkpt lat="44.07124" lon="2.03931">
        <ele>214</ele>
        <time>2011-03-26T15:37:46Z</time>
      </trkpt>
      <trkpt lat="44.07121" lon="2.03935">
        <ele>214</ele>
        <time>2011-03-26T15:37:47Z</time>
      </trkpt>
      <trkpt lat="44.07119" lon="2.03939">
        <ele>214</ele>
        <time>2011-03-26T15:37:48Z</time>
      </trkpt>
      <trkpt lat="44.07116" lon="2.03943">
        <ele>214</ele>
        <time>2011-03-26T15:37:49Z</time>
      </trkpt>
      <trkpt lat="44.07114" lon="2.03948">
        <ele>214</ele>
        <time>2011-03-26T15:37:50Z</time>
      </trkpt>
      <trkpt lat="44.07112" lon="2.03952">
        <ele>214</ele>
        <time>2011-03-26T15:37:51Z</time>
      </trkpt>
      <trkpt lat="44.0711" lon="2.03957">
        <ele>214</ele>
        <time>2011-03-26T15:37:52Z</time>
      </trkpt>
      <trkpt lat="44.07107" lon="2.03961">
        <ele>205</ele>
        <time>2011-03-26T15:37:53Z</time>
      </trkpt>
      <trkpt lat="44.07105" lon="2.03965">
        <ele>205</ele>
        <time>2011-03-26T15:37:54Z</time>
      </trkpt>
      <trkpt lat="44.07102" lon="2.03969">
        <ele>205</ele>
        <time>2011-03-26T15:37:55Z</time>
      </trkpt>
      <trkpt lat="44.071" lon="2.03972">
        <ele>205</ele>
        <time>2011-03-26T15:37:56Z</time>
      </trkpt>
      <trkpt lat="44.07097" lon="2.03975">
        <ele>205</ele>
        <time>2011-03-26T15:37:57Z</time>
      </trkpt>
      <trkpt lat="44.07093" lon="2.03977">
        <ele>205</ele>
        <time>2011-03-26T15:37:58Z</time>
      </trkpt>
      <trkpt lat="44.0709" lon="2.03981">
        <ele>205</ele>
        <time>2011-03-26T15:37:59Z</time>
      </trkpt>
      <trkpt lat="44.07086" lon="2.03984">
        <ele>205</ele>
        <time>2011-03-26T15:38:00Z</time>
      </trkpt>
      <trkpt lat="44.07082" lon="2.03987">
        <ele>205</ele>
        <time>2011-03-26T15:38:01Z</time>
      </trkpt>
      <trkpt lat="44.07078" lon="2.03991">
        <ele>205</ele>
        <time>2011-03-26T15:38:02Z</time>
      </trkpt>
      <trkpt lat="44.07075" lon="2.03995">
        <ele>205</ele>
        <time>2011-03-26T15:38:03Z</time>
      </trkpt>
      <trkpt lat="44.07072" lon="2.03999">
        <ele>205</ele>
        <time>2011-03-26T15:38:04Z</time>
      </trkpt>
      <trkpt lat="44.07069" lon="2.04002">
        <ele>205</ele>
        <time>2011-03-26T15:38:05Z</time>
      </trkpt>
      <trkpt lat="44.07066" lon="2.04004">
        <ele>205</ele>
        <time>2011-03-26T15:38:06Z</time>
      </trkpt>
      <trkpt lat="44.07062" lon="2.04007">
        <ele>205</ele>
        <time>2011-03-26T15:38:07Z</time>
      </trkpt>
      <trkpt lat="44.07059" lon="2.04009">
        <ele>205</ele>
        <time>2011-03-26T15:38:08Z</time>
      </trkpt>
      <trkpt lat="44.07055" lon="2.04012">
        <ele>205</ele>
        <time>2011-03-26T15:38:09Z</time>
      </trkpt>
      <trkpt lat="44.07051" lon="2.04015">
        <ele>205</ele>
        <time>2011-03-26T15:38:10Z</time>
      </trkpt>
      <trkpt lat="44.07047" lon="2.04018">
        <ele>205</ele>
        <time>2011-03-26T15:38:11Z</time>
      </trkpt>
      <trkpt lat="44.07042" lon="2.04021">
        <ele>205</ele>
        <time>2011-03-26T15:38:12Z</time>
      </trkpt>
      <trkpt lat="44.07038" lon="2.04023">
        <ele>210</ele>
        <time>2011-03-26T15:38:13Z</time>
      </trkpt>
      <trkpt lat="44.07034" lon="2.04025">
        <ele>210</ele>
        <time>2011-03-26T15:38:14Z</time>
      </trkpt>
      <trkpt lat="44.0703" lon="2.04026">
        <ele>210</ele>
        <time>2011-03-26T15:38:15Z</time>
      </trkpt>
      <trkpt lat="44.07027" lon="2.04027">
        <ele>210</ele>
        <time>2011-03-26T15:38:16Z</time>
      </trkpt>
      <trkpt lat="44.07024" lon="2.04028">
        <ele>210</ele>
        <time>2011-03-26T15:38:17Z</time>
      </trkpt>
      <trkpt lat="44.0702" lon="2.04029">
        <ele>210</ele>
        <time>2011-03-26T15:38:18Z</time>
      </trkpt>
      <trkpt lat="44.07017" lon="2.0403">
        <ele>210</ele>
        <time>2011-03-26T15:38:19Z</time>
      </trkpt>
      <trkpt lat="44.07013" lon="2.04031">
        <ele>210</ele>
        <time>2011-03-26T15:38:20Z</time>
      </trkpt>
      <trkpt lat="44.07009" lon="2.04033">
        <ele>210</ele>
        <time>2011-03-26T15:38:21Z</time>
      </trkpt>
      <trkpt lat="44.07005" lon="2.04036">
        <ele>210</ele>
        <time>2011-03-26T15:38:22Z</time>
      </trkpt>
      <trkpt lat="44.07" lon="2.04038">
        <ele>210</ele>
        <time>2011-03-26T15:38:23Z</time>
      </trkpt>
      <trkpt lat="44.06995" lon="2.04041">
        <ele>210</ele>
        <time>2011-03-26T15:38:24Z</time>
      </trkpt>
      <trkpt lat="44.06991" lon="2.04043">
        <ele>197</ele>
        <time>2011-03-26T15:38:25Z</time>
      </trkpt>
      <trkpt lat="44.06987" lon="2.04045">
        <ele>197</ele>
        <time>2011-03-26T15:38:26Z</time>
      </trkpt>
      <trkpt lat="44.06983" lon="2.04047">
        <ele>197</ele>
        <time>2011-03-26T15:38:27Z</time>
      </trkpt>
      <trkpt lat="44.06979" lon="2.0405">
        <ele>197</ele>
        <time>2011-03-26T15:38:28Z</time>
      </trkpt>
      <trkpt lat="44.06975" lon="2.04052">
        <ele>197</ele>
        <time>2011-03-26T15:38:29Z</time>
      </trkpt>
      <trkpt lat="44.06971" lon="2.04055">
        <ele>197</ele>
        <time>2011-03-26T15:38:30Z</time>
      </trkpt>
      <trkpt lat="44.06967" lon="2.04056">
        <ele>197</ele>
        <time>2011-03-26T15:38:31Z</time>
      </trkpt>
      <trkpt lat="44.06964" lon="2.04058">
        <ele>197</ele>
        <time>2011-03-26T15:38:32Z</time>
      </trkpt>
      <trkpt lat="44.0696" lon="2.04059">
        <ele>197</ele>
        <time>2011-03-26T15:38:33Z</time>
      </trkpt>
      <trkpt lat="44.06957" lon="2.04061">
        <ele>201</ele>
        <time>2011-03-26T15:38:34Z</time>
      </trkpt>
      <trkpt lat="44.06954" lon="2.04063">
        <ele>201</ele>
        <time>2011-03-26T15:38:35Z</time>
      </trkpt>
      <trkpt lat="44.0695" lon="2.04065">
        <ele>201</ele>
        <time>2011-03-26T15:38:36Z</time>
      </trkpt>
      <trkpt lat="44.06947" lon="2.04067">
        <ele>201</ele>
        <time>2011-03-26T15:38:37Z</time>
      </trkpt>
      <trkpt lat="44.06944" lon="2.04069">
        <ele>201</ele>
        <time>2011-03-26T15:38:38Z</time>
      </trkpt>
      <trkpt lat="44.06941" lon="2.04071">
        <ele>201</ele>
        <time>2011-03-26T15:38:39Z</time>
      </trkpt>
      <trkpt lat="44.06938" lon="2.04074">
        <ele>201</ele>
        <time>2011-03-26T15:38:40Z</time>
      </trkpt>
      <trkpt lat="44.06935" lon="2.04077">
        <ele>201</ele>
        <time>2011-03-26T15:38:41Z</time>
      </trkpt>
      <trkpt lat="44.06932" lon="2.04079">
        <ele>201</ele>
        <time>2011-03-26T15:38:42Z</time>
      </trkpt>
      <trkpt lat="44.06929" lon="2.04082">
        <ele>201</ele>
        <time>2011-03-26T15:38:43Z</time>
      </trkpt>
      <trkpt lat="44.06926" lon="2.04084">
        <ele>201</ele>
        <time>2011-03-26T15:38:44Z</time>
      </trkpt>
      <trkpt lat="44.06923" lon="2.04087">
        <ele>201</ele>
        <time>2011-03-26T15:38:45Z</time>
      </trkpt>
      <trkpt lat="44.0692" lon="2.04089">
        <ele>201</ele>
        <time>2011-03-26T15:38:46Z</time>
      </trkpt>
      <trkpt lat="44.06917" lon="2.04091">
        <ele>201</ele>
        <time>2011-03-26T15:38:47Z</time>
      </trkpt>
      <trkpt lat="44.06913" lon="2.04093">
        <ele>201</ele>
        <time>2011-03-26T15:38:48Z</time>
      </trkpt>
      <trkpt lat="44.0691" lon="2.04095">
        <ele>201</ele>
        <time>2011-03-26T15:38:49Z</time>
      </trkpt>
      <trkpt lat="44.06907" lon="2.04097">
        <ele>201</ele>
        <time>2011-03-26T15:38:50Z</time>
      </trkpt>
      <trkpt lat="44.06905" lon="2.041">
        <ele>201</ele>
        <time>2011-03-26T15:38:51Z</time>
      </trkpt>
      <trkpt lat="44.06902" lon="2.04102">
        <ele>201</ele>
        <time>2011-03-26T15:38:52Z</time>
      </trkpt>
      <trkpt lat="44.06899" lon="2.04105">
        <ele>201</ele>
        <time>2011-03-26T15:38:53Z</time>
      </trkpt>
      <trkpt lat="44.06894" lon="2.04108">
        <ele>201</ele>
        <time>2011-03-26T15:38:54Z</time>
      </trkpt>
      <trkpt lat="44.0689" lon="2.04111">
        <ele>201</ele>
        <time>2011-03-26T15:38:55Z</time>
      </trkpt>
      <trkpt lat="44.06885" lon="2.04113">
        <ele>201</ele>
        <time>2011-03-26T15:38:56Z</time>
      </trkpt>
      <trkpt lat="44.0688" lon="2.04115">
        <ele>201</ele>
        <time>2011-03-26T15:38:57Z</time>
      </trkpt>
      <trkpt lat="44.06875" lon="2.04118">
        <ele>210</ele>
        <time>2011-03-26T15:38:58Z</time>
      </trkpt>
      <trkpt lat="44.0687" lon="2.0412">
        <ele>210</ele>
        <time>2011-03-26T15:38:59Z</time>
      </trkpt>
      <trkpt lat="44.06865" lon="2.04122">
        <ele>210</ele>
        <time>2011-03-26T15:39:00Z</time>
      </trkpt>
      <trkpt lat="44.0686" lon="2.04124">
        <ele>210</ele>
        <time>2011-03-26T15:39:01Z</time>
      </trkpt>
      <trkpt lat="44.06855" lon="2.04126">
        <ele>198</ele>
        <time>2011-03-26T15:39:02Z</time>
      </trkpt>
      <trkpt lat="44.0685" lon="2.04128">
        <ele>198</ele>
        <time>2011-03-26T15:39:03Z</time>
      </trkpt>
      <trkpt lat="44.06845" lon="2.0413">
        <ele>198</ele>
        <time>2011-03-26T15:39:04Z</time>
      </trkpt>
      <trkpt lat="44.0684" lon="2.04132">
        <ele>198</ele>
        <time>2011-03-26T15:39:05Z</time>
      </trkpt>
      <trkpt lat="44.06835" lon="2.04134">
        <ele>198</ele>
        <time>2011-03-26T15:39:06Z</time>
      </trkpt>
      <trkpt lat="44.0683" lon="2.04136">
        <ele>198</ele>
        <time>2011-03-26T15:39:07Z</time>
      </trkpt>
      <trkpt lat="44.06825" lon="2.04138">
        <ele>198</ele>
        <time>2011-03-26T15:39:08Z</time>
      </trkpt>
      <trkpt lat="44.0682" lon="2.04141">
        <ele>198</ele>
        <time>2011-03-26T15:39:09Z</time>
      </trkpt>
      <trkpt lat="44.06815" lon="2.04143">
        <ele>198</ele>
        <time>2011-03-26T15:39:10Z</time>
      </trkpt>
      <trkpt lat="44.06811" lon="2.04146">
        <ele>198</ele>
        <time>2011-03-26T15:39:11Z</time>
      </trkpt>
      <trkpt lat="44.06807" lon="2.0415">
        <ele>198</ele>
        <time>2011-03-26T15:39:12Z</time>
      </trkpt>
      <trkpt lat="44.06804" lon="2.04154">
        <ele>198</ele>
        <time>2011-03-26T15:39:13Z</time>
      </trkpt>
      <trkpt lat="44.06802" lon="2.04159">
        <ele>198</ele>
        <time>2011-03-26T15:39:14Z</time>
      </trkpt>
      <trkpt lat="44.06798" lon="2.04162">
        <ele>198</ele>
        <time>2011-03-26T15:39:15Z</time>
      </trkpt>
      <trkpt lat="44.06795" lon="2.04165">
        <ele>198</ele>
        <time>2011-03-26T15:39:16Z</time>
      </trkpt>
      <trkpt lat="44.06791" lon="2.04169">
        <ele>210</ele>
        <time>2011-03-26T15:39:17Z</time>
      </trkpt>
      <trkpt lat="44.06789" lon="2.04175">
        <ele>210</ele>
        <time>2011-03-26T15:39:18Z</time>
      </trkpt>
      <trkpt lat="44.06786" lon="2.0418">
        <ele>210</ele>
        <time>2011-03-26T15:39:19Z</time>
      </trkpt>
      <trkpt lat="44.06783" lon="2.04186">
        <ele>210</ele>
        <time>2011-03-26T15:39:20Z</time>
      </trkpt>
      <trkpt lat="44.0678" lon="2.0419">
        <ele>210</ele>
        <time>2011-03-26T15:39:21Z</time>
      </trkpt>
      <trkpt lat="44.06777" lon="2.04196">
        <ele>210</ele>
        <time>2011-03-26T15:39:22Z</time>
      </trkpt>
      <trkpt lat="44.06775" lon="2.04201">
        <ele>210</ele>
        <time>2011-03-26T15:39:23Z</time>
      </trkpt>
      <trkpt lat="44.06772" lon="2.04207">
        <ele>210</ele>
        <time>2011-03-26T15:39:24Z</time>
      </trkpt>
      <trkpt lat="44.06769" lon="2.04214">
        <ele>203</ele>
        <time>2011-03-26T15:39:25Z</time>
      </trkpt>
      <trkpt lat="44.06766" lon="2.04221">
        <ele>203</ele>
        <time>2011-03-26T15:39:26Z</time>
      </trkpt>
      <trkpt lat="44.06763" lon="2.04227">
        <ele>203</ele>
        <time>2011-03-26T15:39:27Z</time>
      </trkpt>
      <trkpt lat="44.0676" lon="2.04234">
        <ele>203</ele>
        <time>2011-03-26T15:39:28Z</time>
      </trkpt>
      <trkpt lat="44.06757" lon="2.04241">
        <ele>203</ele>
        <time>2011-03-26T15:39:29Z</time>
      </trkpt>
      <trkpt lat="44.06754" lon="2.04248">
        <ele>203</ele>
        <time>2011-03-26T15:39:30Z</time>
      </trkpt>
      <trkpt lat="44.06751" lon="2.04255">
        <ele>203</ele>
        <time>2011-03-26T15:39:31Z</time>
      </trkpt>
      <trkpt lat="44.06748" lon="2.04262">
        <ele>203</ele>
        <time>2011-03-26T15:39:32Z</time>
      </trkpt>
      <trkpt lat="44.06744" lon="2.04269">
        <ele>203</ele>
        <time>2011-03-26T15:39:33Z</time>
      </trkpt>
      <trkpt lat="44.06741" lon="2.04275">
        <ele>203</ele>
        <time>2011-03-26T15:39:34Z</time>
      </trkpt>
      <trkpt lat="44.06737" lon="2.0428">
        <ele>203</ele>
        <time>2011-03-26T15:39:35Z</time>
      </trkpt>
      <trkpt lat="44.06734" lon="2.04285">
        <ele>203</ele>
        <time>2011-03-26T15:39:36Z</time>
      </trkpt>
      <trkpt lat="44.06731" lon="2.04289">
        <ele>203</ele>
        <time>2011-03-26T15:39:37Z</time>
      </trkpt>
      <trkpt lat="44.06728" lon="2.04294">
        <ele>198</ele>
        <time>2011-03-26T15:39:38Z</time>
      </trkpt>
      <trkpt lat="44.06725" lon="2.04299">
        <ele>198</ele>
        <time>2011-03-26T15:39:39Z</time>
      </trkpt>
      <trkpt lat="44.06721" lon="2.04303">
        <ele>198</ele>
        <time>2011-03-26T15:39:40Z</time>
      </trkpt>
      <trkpt lat="44.06719" lon="2.04308">
        <ele>198</ele>
        <time>2011-03-26T15:39:41Z</time>
      </trkpt>
      <trkpt lat="44.06716" lon="2.04313">
        <ele>198</ele>
        <time>2011-03-26T15:39:42Z</time>
      </trkpt>
      <trkpt lat="44.06714" lon="2.04318">
        <ele>198</ele>
        <time>2011-03-26T15:39:43Z</time>
      </trkpt>
      <trkpt lat="44.06712" lon="2.04322">
        <ele>198</ele>
        <time>2011-03-26T15:39:44Z</time>
      </trkpt>
      <trkpt lat="44.06711" lon="2.04327">
        <ele>198</ele>
        <time>2011-03-26T15:39:45Z</time>
      </trkpt>
      <trkpt lat="44.0671" lon="2.04332">
        <ele>198</ele>
        <time>2011-03-26T15:39:46Z</time>
      </trkpt>
      <trkpt lat="44.06709" lon="2.04337">
        <ele>198</ele>
        <time>2011-03-26T15:39:47Z</time>
      </trkpt>
      <trkpt lat="44.06708" lon="2.04343">
        <ele>198</ele>
        <time>2011-03-26T15:39:48Z</time>
      </trkpt>
      <trkpt lat="44.06709" lon="2.04348">
        <ele>198</ele>
        <time>2011-03-26T15:39:49Z</time>
      </trkpt>
      <trkpt lat="44.06709" lon="2.04354">
        <ele>198</ele>
        <time>2011-03-26T15:39:50Z</time>
      </trkpt>
      <trkpt lat="44.06708" lon="2.0436">
        <ele>222</ele>
        <time>2011-03-26T15:39:51Z</time>
      </trkpt>
      <trkpt lat="44.06708" lon="2.04366">
        <ele>198</ele>
        <time>2011-03-26T15:39:52Z</time>
      </trkpt>
      <trkpt lat="44.06708" lon="2.04371">
        <ele>198</ele>
        <time>2011-03-26T15:39:53Z</time>
      </trkpt>
      <trkpt lat="44.06708" lon="2.04376">
        <ele>220</ele>
        <time>2011-03-26T15:39:54Z</time>
      </trkpt>
      <trkpt lat="44.06708" lon="2.04381">
        <ele>220</ele>
        <time>2011-03-26T15:39:55Z</time>
      </trkpt>
      <trkpt lat="44.06706" lon="2.04385">
        <ele>220</ele>
        <time>2011-03-26T15:39:56Z</time>
      </trkpt>
      <trkpt lat="44.06705" lon="2.04389">
        <ele>220</ele>
        <time>2011-03-26T15:39:57Z</time>
      </trkpt>
      <trkpt lat="44.06704" lon="2.04394">
        <ele>220</ele>
        <time>2011-03-26T15:39:58Z</time>
      </trkpt>
      <trkpt lat="44.06702" lon="2.04398">
        <ele>220</ele>
        <time>2011-03-26T15:39:59Z</time>
      </trkpt>
      <trkpt lat="44.06701" lon="2.04402">
        <ele>220</ele>
        <time>2011-03-26T15:40:00Z</time>
      </trkpt>
      <trkpt lat="44.06699" lon="2.04405">
        <ele>220</ele>
        <time>2011-03-26T15:40:01Z</time>
      </trkpt>
      <trkpt lat="44.06698" lon="2.04409">
        <ele>220</ele>
        <time>2011-03-26T15:40:02Z</time>
      </trkpt>
      <trkpt lat="44.06696" lon="2.04412">
        <ele>220</ele>
        <time>2011-03-26T15:40:03Z</time>
      </trkpt>
      <trkpt lat="44.06695" lon="2.04416">
        <ele>220</ele>
        <time>2011-03-26T15:40:04Z</time>
      </trkpt>
      <trkpt lat="44.06695" lon="2.0442">
        <ele>220</ele>
        <time>2011-03-26T15:40:05Z</time>
      </trkpt>
      <trkpt lat="44.06695" lon="2.04425">
        <ele>220</ele>
        <time>2011-03-26T15:40:06Z</time>
      </trkpt>
      <trkpt lat="44.06695" lon="2.0443">
        <ele>220</ele>
        <time>2011-03-26T15:40:07Z</time>
      </trkpt>
      <trkpt lat="44.06695" lon="2.04434">
        <ele>220</ele>
        <time>2011-03-26T15:40:08Z</time>
      </trkpt>
      <trkpt lat="44.06694" lon="2.04438">
        <ele>220</ele>
        <time>2011-03-26T15:40:09Z</time>
      </trkpt>
      <trkpt lat="44.06694" lon="2.04441">
        <ele>220</ele>
        <time>2011-03-26T15:40:10Z</time>
      </trkpt>
      <trkpt lat="44.06694" lon="2.04445">
        <ele>220</ele>
        <time>2011-03-26T15:40:11Z</time>
      </trkpt>
      <trkpt lat="44.06694" lon="2.0445">
        <ele>220</ele>
        <time>2011-03-26T15:40:12Z</time>
      </trkpt>
      <trkpt lat="44.06694" lon="2.04454">
        <ele>220</ele>
        <time>2011-03-26T15:40:13Z</time>
      </trkpt>
      <trkpt lat="44.06695" lon="2.04459">
        <ele>223</ele>
        <time>2011-03-26T15:40:14Z</time>
      </trkpt>
      <trkpt lat="44.06696" lon="2.04463">
        <ele>223</ele>
        <time>2011-03-26T15:40:15Z</time>
      </trkpt>
      <trkpt lat="44.06696" lon="2.04468">
        <ele>223</ele>
        <time>2011-03-26T15:40:16Z</time>
      </trkpt>
      <trkpt lat="44.06696" lon="2.04472">
        <ele>223</ele>
        <time>2011-03-26T15:40:17Z</time>
      </trkpt>
      <trkpt lat="44.06696" lon="2.04475">
        <ele>223</ele>
        <time>2011-03-26T15:40:18Z</time>
      </trkpt>
      <trkpt lat="44.06696" lon="2.04479">
        <ele>223</ele>
        <time>2011-03-26T15:40:19Z</time>
      </trkpt>
      <trkpt lat="44.06695" lon="2.04482">
        <ele>223</ele>
        <time>2011-03-26T15:40:20Z</time>
      </trkpt>
      <trkpt lat="44.06695" lon="2.04486">
        <ele>223</ele>
        <time>2011-03-26T15:40:21Z</time>
      </trkpt>
      <trkpt lat="44.06694" lon="2.04491">
        <ele>223</ele>
        <time>2011-03-26T15:40:22Z</time>
      </trkpt>
      <trkpt lat="44.06694" lon="2.04495">
        <ele>223</ele>
        <time>2011-03-26T15:40:23Z</time>
      </trkpt>
      <trkpt lat="44.06694" lon="2.04499">
        <ele>223</ele>
        <time>2011-03-26T15:40:24Z</time>
      </trkpt>
      <trkpt lat="44.06693" lon="2.04502">
        <ele>223</ele>
        <time>2011-03-26T15:40:25Z</time>
      </trkpt>
      <trkpt lat="44.06693" lon="2.04505">
        <ele>223</ele>
        <time>2011-03-26T15:40:26Z</time>
      </trkpt>
      <trkpt lat="44.06693" lon="2.04508">
        <ele>223</ele>
        <time>2011-03-26T15:40:27Z</time>
      </trkpt>
      <trkpt lat="44.06693" lon="2.04512">
        <ele>223</ele>
        <time>2011-03-26T15:40:28Z</time>
      </trkpt>
      <trkpt lat="44.06692" lon="2.04517">
        <ele>223</ele>
        <time>2011-03-26T15:40:29Z</time>
      </trkpt>
      <trkpt lat="44.06692" lon="2.04521">
        <ele>223</ele>
        <time>2011-03-26T15:40:30Z</time>
      </trkpt>
      <trkpt lat="44.06691" lon="2.04525">
        <ele>223</ele>
        <time>2011-03-26T15:40:31Z</time>
      </trkpt>
      <trkpt lat="44.06691" lon="2.04529">
        <ele>223</ele>
        <time>2011-03-26T15:40:32Z</time>
      </trkpt>
      <trkpt lat="44.06691" lon="2.04532">
        <ele>223</ele>
        <time>2011-03-26T15:40:33Z</time>
      </trkpt>
      <trkpt lat="44.06691" lon="2.04536">
        <ele>223</ele>
        <time>2011-03-26T15:40:34Z</time>
      </trkpt>
      <trkpt lat="44.06692" lon="2.0454">
        <ele>223</ele>
        <time>2011-03-26T15:40:35Z</time>
      </trkpt>
      <trkpt lat="44.06693" lon="2.04544">
        <ele>228</ele>
        <time>2011-03-26T15:40:36Z</time>
      </trkpt>
      <trkpt lat="44.06694" lon="2.04547">
        <ele>228</ele>
        <time>2011-03-26T15:40:37Z</time>
      </trkpt>
      <trkpt lat="44.06695" lon="2.04551">
        <ele>228</ele>
        <time>2011-03-26T15:40:38Z</time>
      </trkpt>
      <trkpt lat="44.06696" lon="2.04555">
        <ele>228</ele>
        <time>2011-03-26T15:40:39Z</time>
      </trkpt>
      <trkpt lat="44.06696" lon="2.04559">
        <ele>228</ele>
        <time>2011-03-26T15:40:40Z</time>
      </trkpt>
      <trkpt lat="44.06697" lon="2.04562">
        <ele>228</ele>
        <time>2011-03-26T15:40:41Z</time>
      </trkpt>
      <trkpt lat="44.06698" lon="2.04565">
        <ele>228</ele>
        <time>2011-03-26T15:40:42Z</time>
      </trkpt>
      <trkpt lat="44.06699" lon="2.04568">
        <ele>228</ele>
        <time>2011-03-26T15:40:43Z</time>
      </trkpt>
      <trkpt lat="44.06699" lon="2.04573">
        <ele>228</ele>
        <time>2011-03-26T15:40:44Z</time>
      </trkpt>
      <trkpt lat="44.067" lon="2.04577">
        <ele>228</ele>
        <time>2011-03-26T15:40:45Z</time>
      </trkpt>
      <trkpt lat="44.067" lon="2.04581">
        <ele>228</ele>
        <time>2011-03-26T15:40:46Z</time>
      </trkpt>
      <trkpt lat="44.06701" lon="2.04584">
        <ele>228</ele>
        <time>2011-03-26T15:40:47Z</time>
      </trkpt>
      <trkpt lat="44.06704" lon="2.04589">
        <ele>228</ele>
        <time>2011-03-26T15:40:49Z</time>
      </trkpt>
      <trkpt lat="44.06705" lon="2.04592">
        <ele>228</ele>
        <time>2011-03-26T15:40:50Z</time>
      </trkpt>
      <trkpt lat="44.06706" lon="2.04594">
        <ele>228</ele>
        <time>2011-03-26T15:40:51Z</time>
      </trkpt>
      <trkpt lat="44.06708" lon="2.04597">
        <ele>228</ele>
        <time>2011-03-26T15:40:52Z</time>
      </trkpt>
      <trkpt lat="44.06709" lon="2.04601">
        <ele>202</ele>
        <time>2011-03-26T15:40:53Z</time>
      </trkpt>
      <trkpt lat="44.06711" lon="2.04605">
        <ele>202</ele>
        <time>2011-03-26T15:40:54Z</time>
      </trkpt>
      <trkpt lat="44.06712" lon="2.0461">
        <ele>202</ele>
        <time>2011-03-26T15:40:55Z</time>
      </trkpt>
      <trkpt lat="44.06713" lon="2.04614">
        <ele>202</ele>
        <time>2011-03-26T15:40:56Z</time>
      </trkpt>
      <trkpt lat="44.06714" lon="2.04617">
        <ele>202</ele>
        <time>2011-03-26T15:40:57Z</time>
      </trkpt>
      <trkpt lat="44.06716" lon="2.04621">
        <ele>202</ele>
        <time>2011-03-26T15:40:58Z</time>
      </trkpt>
      <trkpt lat="44.06717" lon="2.04624">
        <ele>202</ele>
        <time>2011-03-26T15:40:59Z</time>
      </trkpt>
      <trkpt lat="44.06718" lon="2.04628">
        <ele>215</ele>
        <time>2011-03-26T15:41:00Z</time>
      </trkpt>
      <trkpt lat="44.06719" lon="2.04631">
        <ele>215</ele>
        <time>2011-03-26T15:41:01Z</time>
      </trkpt>
      <trkpt lat="44.06721" lon="2.04634">
        <ele>215</ele>
        <time>2011-03-26T15:41:02Z</time>
      </trkpt>
      <trkpt lat="44.06722" lon="2.04637">
        <ele>215</ele>
        <time>2011-03-26T15:41:03Z</time>
      </trkpt>
      <trkpt lat="44.06723" lon="2.04641">
        <ele>215</ele>
        <time>2011-03-26T15:41:04Z</time>
      </trkpt>
      <trkpt lat="44.06724" lon="2.04644">
        <ele>215</ele>
        <time>2011-03-26T15:41:05Z</time>
      </trkpt>
      <trkpt lat="44.06725" lon="2.0465">
        <ele>215</ele>
        <time>2011-03-26T15:41:07Z</time>
      </trkpt>
      <trkpt lat="44.06726" lon="2.04654">
        <ele>215</ele>
        <time>2011-03-26T15:41:08Z</time>
      </trkpt>
      <trkpt lat="44.06727" lon="2.04658">
        <ele>215</ele>
        <time>2011-03-26T15:41:09Z</time>
      </trkpt>
      <trkpt lat="44.06727" lon="2.04661">
        <ele>215</ele>
        <time>2011-03-26T15:41:10Z</time>
      </trkpt>
      <trkpt lat="44.06728" lon="2.04665">
        <ele>215</ele>
        <time>2011-03-26T15:41:11Z</time>
      </trkpt>
      <trkpt lat="44.06729" lon="2.04668">
        <ele>215</ele>
        <time>2011-03-26T15:41:12Z</time>
      </trkpt>
      <trkpt lat="44.06729" lon="2.04672">
        <ele>215</ele>
        <time>2011-03-26T15:41:13Z</time>
      </trkpt>
      <trkpt lat="44.06729" lon="2.04675">
        <ele>215</ele>
        <time>2011-03-26T15:41:14Z</time>
      </trkpt>
      <trkpt lat="44.0673" lon="2.04678">
        <ele>215</ele>
        <time>2011-03-26T15:41:15Z</time>
      </trkpt>
      <trkpt lat="44.06731" lon="2.04683">
        <ele>215</ele>
        <time>2011-03-26T15:41:16Z</time>
      </trkpt>
      <trkpt lat="44.06732" lon="2.04688">
        <ele>215</ele>
        <time>2011-03-26T15:41:17Z</time>
      </trkpt>
      <trkpt lat="44.06733" lon="2.04692">
        <ele>215</ele>
        <time>2011-03-26T15:41:18Z</time>
      </trkpt>
      <trkpt lat="44.06734" lon="2.04697">
        <ele>215</ele>
        <time>2011-03-26T15:41:19Z</time>
      </trkpt>
      <trkpt lat="44.06736" lon="2.04702">
        <ele>215</ele>
        <time>2011-03-26T15:41:20Z</time>
      </trkpt>
      <trkpt lat="44.06737" lon="2.04707">
        <ele>215</ele>
        <time>2011-03-26T15:41:21Z</time>
      </trkpt>
      <trkpt lat="44.06739" lon="2.04711">
        <ele>219</ele>
        <time>2011-03-26T15:41:22Z</time>
      </trkpt>
      <trkpt lat="44.0674" lon="2.04715">
        <ele>219</ele>
        <time>2011-03-26T15:41:23Z</time>
      </trkpt>
      <trkpt lat="44.06741" lon="2.04719">
        <ele>219</ele>
        <time>2011-03-26T15:41:24Z</time>
      </trkpt>
      <trkpt lat="44.06742" lon="2.04723">
        <ele>219</ele>
        <time>2011-03-26T15:41:25Z</time>
      </trkpt>
      <trkpt lat="44.06742" lon="2.04727">
        <ele>219</ele>
        <time>2011-03-26T15:41:26Z</time>
      </trkpt>
      <trkpt lat="44.06743" lon="2.04731">
        <ele>219</ele>
        <time>2011-03-26T15:41:27Z</time>
      </trkpt>
      <trkpt lat="44.06744" lon="2.04735">
        <ele>219</ele>
        <time>2011-03-26T15:41:28Z</time>
      </trkpt>
      <trkpt lat="44.06745" lon="2.04738">
        <ele>219</ele>
        <time>2011-03-26T15:41:29Z</time>
      </trkpt>
      <trkpt lat="44.06746" lon="2.04742">
        <ele>219</ele>
        <time>2011-03-26T15:41:30Z</time>
      </trkpt>
      <trkpt lat="44.06747" lon="2.04745">
        <ele>219</ele>
        <time>2011-03-26T15:41:31Z</time>
      </trkpt>
      <trkpt lat="44.06748" lon="2.04749">
        <ele>219</ele>
        <time>2011-03-26T15:41:32Z</time>
      </trkpt>
      <trkpt lat="44.06749" lon="2.04754">
        <ele>219</ele>
        <time>2011-03-26T15:41:33Z</time>
      </trkpt>
      <trkpt lat="44.0675" lon="2.04758">
        <ele>219</ele>
        <time>2011-03-26T15:41:34Z</time>
      </trkpt>
      <trkpt lat="44.06752" lon="2.04762">
        <ele>219</ele>
        <time>2011-03-26T15:41:35Z</time>
      </trkpt>
      <trkpt lat="44.06753" lon="2.04766">
        <ele>219</ele>
        <time>2011-03-26T15:41:36Z</time>
      </trkpt>
      <trkpt lat="44.06754" lon="2.04771">
        <ele>219</ele>
        <time>2011-03-26T15:41:37Z</time>
      </trkpt>
      <trkpt lat="44.06755" lon="2.04775">
        <ele>219</ele>
        <time>2011-03-26T15:41:38Z</time>
      </trkpt>
      <trkpt lat="44.06755" lon="2.04779">
        <ele>219</ele>
        <time>2011-03-26T15:41:39Z</time>
      </trkpt>
      <trkpt lat="44.06756" lon="2.04783">
        <ele>219</ele>
        <time>2011-03-26T15:41:40Z</time>
      </trkpt>
      <trkpt lat="44.06756" lon="2.04787">
        <ele>219</ele>
        <time>2011-03-26T15:41:41Z</time>
      </trkpt>
      <trkpt lat="44.06756" lon="2.04791">
        <ele>219</ele>
        <time>2011-03-26T15:41:42Z</time>
      </trkpt>
      <trkpt lat="44.06756" lon="2.04795">
        <ele>224</ele>
        <time>2011-03-26T15:41:43Z</time>
      </trkpt>
      <trkpt lat="44.06755" lon="2.04799">
        <ele>224</ele>
        <time>2011-03-26T15:41:44Z</time>
      </trkpt>
      <trkpt lat="44.06755" lon="2.04803">
        <ele>224</ele>
        <time>2011-03-26T15:41:45Z</time>
      </trkpt>
      <trkpt lat="44.06754" lon="2.04807">
        <ele>224</ele>
        <time>2011-03-26T15:41:46Z</time>
      </trkpt>
      <trkpt lat="44.06754" lon="2.04811">
        <ele>224</ele>
        <time>2011-03-26T15:41:47Z</time>
      </trkpt>
      <trkpt lat="44.06753" lon="2.04814">
        <ele>224</ele>
        <time>2011-03-26T15:41:48Z</time>
      </trkpt>
      <trkpt lat="44.06752" lon="2.04818">
        <ele>224</ele>
        <time>2011-03-26T15:41:49Z</time>
      </trkpt>
      <trkpt lat="44.06751" lon="2.04822">
        <ele>224</ele>
        <time>2011-03-26T15:41:50Z</time>
      </trkpt>
      <trkpt lat="44.0675" lon="2.04825">
        <ele>224</ele>
        <time>2011-03-26T15:41:51Z</time>
      </trkpt>
      <trkpt lat="44.06748" lon="2.04829">
        <ele>224</ele>
        <time>2011-03-26T15:41:52Z</time>
      </trkpt>
      <trkpt lat="44.06747" lon="2.04832">
        <ele>224</ele>
        <time>2011-03-26T15:41:53Z</time>
      </trkpt>
      <trkpt lat="44.06746" lon="2.04836">
        <ele>224</ele>
        <time>2011-03-26T15:41:54Z</time>
      </trkpt>
      <trkpt lat="44.06744" lon="2.04838">
        <ele>224</ele>
        <time>2011-03-26T15:41:55Z</time>
      </trkpt>
      <trkpt lat="44.06742" lon="2.04841">
        <ele>224</ele>
        <time>2011-03-26T15:41:56Z</time>
      </trkpt>
      <trkpt lat="44.0674" lon="2.04845">
        <ele>224</ele>
        <time>2011-03-26T15:41:57Z</time>
      </trkpt>
      <trkpt lat="44.06738" lon="2.04847">
        <ele>224</ele>
        <time>2011-03-26T15:41:58Z</time>
      </trkpt>
      <trkpt lat="44.06736" lon="2.0485">
        <ele>224</ele>
        <time>2011-03-26T15:41:59Z</time>
      </trkpt>
      <trkpt lat="44.06734" lon="2.04852">
        <ele>224</ele>
        <time>2011-03-26T15:42:00Z</time>
      </trkpt>
      <trkpt lat="44.06731" lon="2.04854">
        <ele>224</ele>
        <time>2011-03-26T15:42:01Z</time>
      </trkpt>
      <trkpt lat="44.06729" lon="2.04856">
        <ele>224</ele>
        <time>2011-03-26T15:42:02Z</time>
      </trkpt>
      <trkpt lat="44.06727" lon="2.04858">
        <ele>224</ele>
        <time>2011-03-26T15:42:03Z</time>
      </trkpt>
      <trkpt lat="44.06725" lon="2.04861">
        <ele>224</ele>
        <time>2011-03-26T15:42:04Z</time>
      </trkpt>
      <trkpt lat="44.06723" lon="2.04864">
        <ele>224</ele>
        <time>2011-03-26T15:42:05Z</time>
      </trkpt>
      <trkpt lat="44.06721" lon="2.04867">
        <ele>224</ele>
        <time>2011-03-26T15:42:06Z</time>
      </trkpt>
      <trkpt lat="44.06718" lon="2.04869">
        <ele>224</ele>
        <time>2011-03-26T15:42:07Z</time>
      </trkpt>
      <trkpt lat="44.06716" lon="2.04872">
        <ele>224</ele>
        <time>2011-03-26T15:42:08Z</time>
      </trkpt>
      <trkpt lat="44.06714" lon="2.04875">
        <ele>224</ele>
        <time>2011-03-26T15:42:09Z</time>
      </trkpt>
      <trkpt lat="44.06712" lon="2.04878">
        <ele>223</ele>
        <time>2011-03-26T15:42:10Z</time>
      </trkpt>
      <trkpt lat="44.0671" lon="2.04881">
        <ele>223</ele>
        <time>2011-03-26T15:42:11Z</time>
      </trkpt>
      <trkpt lat="44.06708" lon="2.04885">
        <ele>231</ele>
        <time>2011-03-26T15:42:12Z</time>
      </trkpt>
      <trkpt lat="44.06706" lon="2.04889">
        <ele>231</ele>
        <time>2011-03-26T15:42:13Z</time>
      </trkpt>
      <trkpt lat="44.06704" lon="2.04893">
        <ele>231</ele>
        <time>2011-03-26T15:42:14Z</time>
      </trkpt>
      <trkpt lat="44.06703" lon="2.04897">
        <ele>231</ele>
        <time>2011-03-26T15:42:15Z</time>
      </trkpt>
      <trkpt lat="44.067" lon="2.04901">
        <ele>231</ele>
        <time>2011-03-26T15:42:16Z</time>
      </trkpt>
      <trkpt lat="44.06699" lon="2.04905">
        <ele>231</ele>
        <time>2011-03-26T15:42:17Z</time>
      </trkpt>
      <trkpt lat="44.06697" lon="2.04909">
        <ele>231</ele>
        <time>2011-03-26T15:42:18Z</time>
      </trkpt>
      <trkpt lat="44.06696" lon="2.04913">
        <ele>231</ele>
        <time>2011-03-26T15:42:19Z</time>
      </trkpt>
      <trkpt lat="44.06694" lon="2.04916">
        <ele>231</ele>
        <time>2011-03-26T15:42:20Z</time>
      </trkpt>
      <trkpt lat="44.06691" lon="2.0492">
        <ele>231</ele>
        <time>2011-03-26T15:42:21Z</time>
      </trkpt>
      <trkpt lat="44.06689" lon="2.04923">
        <ele>231</ele>
        <time>2011-03-26T15:42:22Z</time>
      </trkpt>
      <trkpt lat="44.06686" lon="2.04927">
        <ele>231</ele>
        <time>2011-03-26T15:42:23Z</time>
      </trkpt>
      <trkpt lat="44.06684" lon="2.04931">
        <ele>231</ele>
        <time>2011-03-26T15:42:24Z</time>
      </trkpt>
      <trkpt lat="44.06681" lon="2.04936">
        <ele>231</ele>
        <time>2011-03-26T15:42:25Z</time>
      </trkpt>
      <trkpt lat="44.06678" lon="2.04941">
        <ele>231</ele>
        <time>2011-03-26T15:42:26Z</time>
      </trkpt>
      <trkpt lat="44.06675" lon="2.04945">
        <ele>231</ele>
        <time>2011-03-26T15:42:27Z</time>
      </trkpt>
      <trkpt lat="44.06672" lon="2.04949">
        <ele>231</ele>
        <time>2011-03-26T15:42:28Z</time>
      </trkpt>
      <trkpt lat="44.06669" lon="2.04954">
        <ele>231</ele>
        <time>2011-03-26T15:42:29Z</time>
      </trkpt>
      <trkpt lat="44.06666" lon="2.04959">
        <ele>223</ele>
        <time>2011-03-26T15:42:30Z</time>
      </trkpt>
      <trkpt lat="44.06663" lon="2.04965">
        <ele>223</ele>
        <time>2011-03-26T15:42:31Z</time>
      </trkpt>
      <trkpt lat="44.0666" lon="2.0497">
        <ele>223</ele>
        <time>2011-03-26T15:42:32Z</time>
      </trkpt>
      <trkpt lat="44.06656" lon="2.04976">
        <ele>223</ele>
        <time>2011-03-26T15:42:33Z</time>
      </trkpt>
      <trkpt lat="44.06653" lon="2.04982">
        <ele>223</ele>
        <time>2011-03-26T15:42:34Z</time>
      </trkpt>
      <trkpt lat="44.0665" lon="2.04986">
        <ele>223</ele>
        <time>2011-03-26T15:42:35Z</time>
      </trkpt>
      <trkpt lat="44.06647" lon="2.04991">
        <ele>223</ele>
        <time>2011-03-26T15:42:36Z</time>
      </trkpt>
      <trkpt lat="44.06644" lon="2.04997">
        <ele>223</ele>
        <time>2011-03-26T15:42:37Z</time>
      </trkpt>
      <trkpt lat="44.06641" lon="2.05002">
        <ele>223</ele>
        <time>2011-03-26T15:42:38Z</time>
      </trkpt>
      <trkpt lat="44.06638" lon="2.05006">
        <ele>223</ele>
        <time>2011-03-26T15:42:39Z</time>
      </trkpt>
      <trkpt lat="44.06635" lon="2.05011">
        <ele>223</ele>
        <time>2011-03-26T15:42:40Z</time>
      </trkpt>
      <trkpt lat="44.06632" lon="2.05015">
        <ele>223</ele>
        <time>2011-03-26T15:42:41Z</time>
      </trkpt>
      <trkpt lat="44.06628" lon="2.05019">
        <ele>223</ele>
        <time>2011-03-26T15:42:42Z</time>
      </trkpt>
      <trkpt lat="44.06625" lon="2.05023">
        <ele>238</ele>
        <time>2011-03-26T15:42:43Z</time>
      </trkpt>
      <trkpt lat="44.0662" lon="2.05028">
        <ele>238</ele>
        <time>2011-03-26T15:42:44Z</time>
      </trkpt>
      <trkpt lat="44.06615" lon="2.05033">
        <ele>238</ele>
        <time>2011-03-26T15:42:45Z</time>
      </trkpt>
      <trkpt lat="44.0661" lon="2.05039">
        <ele>238</ele>
        <time>2011-03-26T15:42:46Z</time>
      </trkpt>
      <trkpt lat="44.06604" lon="2.05045">
        <ele>225</ele>
        <time>2011-03-26T15:42:47Z</time>
      </trkpt>
      <trkpt lat="44.06598" lon="2.05051">
        <ele>225</ele>
        <time>2011-03-26T15:42:48Z</time>
      </trkpt>
      <trkpt lat="44.06591" lon="2.05056">
        <ele>225</ele>
        <time>2011-03-26T15:42:49Z</time>
      </trkpt>
      <trkpt lat="44.06585" lon="2.05062">
        <ele>225</ele>
        <time>2011-03-26T15:42:50Z</time>
      </trkpt>
      <trkpt lat="44.06578" lon="2.05066">
        <ele>225</ele>
        <time>2011-03-26T15:42:51Z</time>
      </trkpt>
      <trkpt lat="44.06571" lon="2.0507">
        <ele>225</ele>
        <time>2011-03-26T15:42:52Z</time>
      </trkpt>
      <trkpt lat="44.06565" lon="2.05076">
        <ele>225</ele>
        <time>2011-03-26T15:42:53Z</time>
      </trkpt>
      <trkpt lat="44.06559" lon="2.05081">
        <ele>225</ele>
        <time>2011-03-26T15:42:54Z</time>
      </trkpt>
      <trkpt lat="44.06553" lon="2.05086">
        <ele>225</ele>
        <time>2011-03-26T15:42:55Z</time>
      </trkpt>
      <trkpt lat="44.06548" lon="2.05091">
        <ele>225</ele>
        <time>2011-03-26T15:42:56Z</time>
      </trkpt>
      <trkpt lat="44.06544" lon="2.05095">
        <ele>225</ele>
        <time>2011-03-26T15:42:57Z</time>
      </trkpt>
      <trkpt lat="44.0654" lon="2.05099">
        <ele>247</ele>
        <time>2011-03-26T15:42:58Z</time>
      </trkpt>
      <trkpt lat="44.06538" lon="2.05105">
        <ele>247</ele>
        <time>2011-03-26T15:42:59Z</time>
      </trkpt>
      <trkpt lat="44.06535" lon="2.05112">
        <ele>247</ele>
        <time>2011-03-26T15:43:00Z</time>
      </trkpt>
      <trkpt lat="44.06534" lon="2.05119">
        <ele>247</ele>
        <time>2011-03-26T15:43:01Z</time>
      </trkpt>
      <trkpt lat="44.06532" lon="2.05126">
        <ele>235</ele>
        <time>2011-03-26T15:43:02Z</time>
      </trkpt>
      <trkpt lat="44.06531" lon="2.05133">
        <ele>235</ele>
        <time>2011-03-26T15:43:03Z</time>
      </trkpt>
      <trkpt lat="44.06529" lon="2.0514">
        <ele>235</ele>
        <time>2011-03-26T15:43:04Z</time>
      </trkpt>
      <trkpt lat="44.06528" lon="2.05147">
        <ele>235</ele>
        <time>2011-03-26T15:43:05Z</time>
      </trkpt>
      <trkpt lat="44.06527" lon="2.05154">
        <ele>235</ele>
        <time>2011-03-26T15:43:06Z</time>
      </trkpt>
      <trkpt lat="44.06526" lon="2.05162">
        <ele>235</ele>
        <time>2011-03-26T15:43:07Z</time>
      </trkpt>
      <trkpt lat="44.06525" lon="2.0517">
        <ele>235</ele>
        <time>2011-03-26T15:43:08Z</time>
      </trkpt>
      <trkpt lat="44.06523" lon="2.0518">
        <ele>235</ele>
        <time>2011-03-26T15:43:09Z</time>
      </trkpt>
      <trkpt lat="44.06521" lon="2.05189">
        <ele>235</ele>
        <time>2011-03-26T15:43:10Z</time>
      </trkpt>
      <trkpt lat="44.06519" lon="2.05198">
        <ele>235</ele>
        <time>2011-03-26T15:43:11Z</time>
      </trkpt>
      <trkpt lat="44.06516" lon="2.05206">
        <ele>235</ele>
        <time>2011-03-26T15:43:12Z</time>
      </trkpt>
      <trkpt lat="44.06513" lon="2.05214">
        <ele>221</ele>
        <time>2011-03-26T15:43:13Z</time>
      </trkpt>
      <trkpt lat="44.06509" lon="2.05221">
        <ele>221</ele>
        <time>2011-03-26T15:43:14Z</time>
      </trkpt>
      <trkpt lat="44.06505" lon="2.05228">
        <ele>221</ele>
        <time>2011-03-26T15:43:15Z</time>
      </trkpt>
      <trkpt lat="44.06501" lon="2.05235">
        <ele>221</ele>
        <time>2011-03-26T15:43:16Z</time>
      </trkpt>
      <trkpt lat="44.06497" lon="2.0524">
        <ele>221</ele>
        <time>2011-03-26T15:43:17Z</time>
      </trkpt>
      <trkpt lat="44.06492" lon="2.05245">
        <ele>221</ele>
        <time>2011-03-26T15:43:18Z</time>
      </trkpt>
      <trkpt lat="44.06488" lon="2.0525">
        <ele>221</ele>
        <time>2011-03-26T15:43:19Z</time>
      </trkpt>
      <trkpt lat="44.06485" lon="2.05247">
        <ele>221</ele>
        <time>2011-03-26T15:43:20Z</time>
      </trkpt>
      <trkpt lat="44.0648" lon="2.0525">
        <ele>221</ele>
        <time>2011-03-26T15:43:21Z</time>
      </trkpt>
      <trkpt lat="44.06476" lon="2.05253">
        <ele>221</ele>
        <time>2011-03-26T15:43:22Z</time>
      </trkpt>
      <trkpt lat="44.06472" lon="2.05257">
        <ele>221</ele>
        <time>2011-03-26T15:43:23Z</time>
      </trkpt>
      <trkpt lat="44.06469" lon="2.0526">
        <ele>221</ele>
        <time>2011-03-26T15:43:24Z</time>
      </trkpt>
      <trkpt lat="44.06467" lon="2.05265">
        <ele>221</ele>
        <time>2011-03-26T15:43:25Z</time>
      </trkpt>
      <trkpt lat="44.06466" lon="2.05272">
        <ele>221</ele>
        <time>2011-03-26T15:43:26Z</time>
      </trkpt>
      <trkpt lat="44.06466" lon="2.05279">
        <ele>221</ele>
        <time>2011-03-26T15:43:27Z</time>
      </trkpt>
      <trkpt lat="44.06466" lon="2.05285">
        <ele>221</ele>
        <time>2011-03-26T15:43:28Z</time>
      </trkpt>
      <trkpt lat="44.06466" lon="2.05291">
        <ele>221</ele>
        <time>2011-03-26T15:43:29Z</time>
      </trkpt>
      <trkpt lat="44.06465" lon="2.05297">
        <ele>206</ele>
        <time>2011-03-26T15:43:30Z</time>
      </trkpt>
      <trkpt lat="44.06464" lon="2.05302">
        <ele>206</ele>
        <time>2011-03-26T15:43:31Z</time>
      </trkpt>
      <trkpt lat="44.06463" lon="2.05307">
        <ele>206</ele>
        <time>2011-03-26T15:43:32Z</time>
      </trkpt>
      <trkpt lat="44.06461" lon="2.05313">
        <ele>206</ele>
        <time>2011-03-26T15:43:33Z</time>
      </trkpt>
      <trkpt lat="44.06459" lon="2.05318">
        <ele>206</ele>
        <time>2011-03-26T15:43:34Z</time>
      </trkpt>
      <trkpt lat="44.06456" lon="2.05323">
        <ele>223</ele>
        <time>2011-03-26T15:43:35Z</time>
      </trkpt>
      <trkpt lat="44.06454" lon="2.05328">
        <ele>223</ele>
        <time>2011-03-26T15:43:36Z</time>
      </trkpt>
      <trkpt lat="44.0645" lon="2.05331">
        <ele>223</ele>
        <time>2011-03-26T15:43:37Z</time>
      </trkpt>
      <trkpt lat="44.06447" lon="2.05335">
        <ele>223</ele>
        <time>2011-03-26T15:43:38Z</time>
      </trkpt>
      <trkpt lat="44.06444" lon="2.05338">
        <ele>223</ele>
        <time>2011-03-26T15:43:39Z</time>
      </trkpt>
      <trkpt lat="44.06441" lon="2.05342">
        <ele>223</ele>
        <time>2011-03-26T15:43:40Z</time>
      </trkpt>
      <trkpt lat="44.06438" lon="2.05345">
        <ele>223</ele>
        <time>2011-03-26T15:43:41Z</time>
      </trkpt>
      <trkpt lat="44.06434" lon="2.05348">
        <ele>223</ele>
        <time>2011-03-26T15:43:42Z</time>
      </trkpt>
      <trkpt lat="44.06431" lon="2.05352">
        <ele>223</ele>
        <time>2011-03-26T15:43:43Z</time>
      </trkpt>
      <trkpt lat="44.06428" lon="2.05356">
        <ele>223</ele>
        <time>2011-03-26T15:43:44Z</time>
      </trkpt>
      <trkpt lat="44.06424" lon="2.0536">
        <ele>223</ele>
        <time>2011-03-26T15:43:45Z</time>
      </trkpt>
      <trkpt lat="44.06421" lon="2.05364">
        <ele>223</ele>
        <time>2011-03-26T15:43:46Z</time>
      </trkpt>
      <trkpt lat="44.06417" lon="2.0537">
        <ele>223</ele>
        <time>2011-03-26T15:43:47Z</time>
      </trkpt>
      <trkpt lat="44.06413" lon="2.05377">
        <ele>208</ele>
        <time>2011-03-26T15:43:48Z</time>
      </trkpt>
      <trkpt lat="44.06408" lon="2.05383">
        <ele>208</ele>
        <time>2011-03-26T15:43:49Z</time>
      </trkpt>
      <trkpt lat="44.06403" lon="2.0539">
        <ele>208</ele>
        <time>2011-03-26T15:43:50Z</time>
      </trkpt>
      <trkpt lat="44.06399" lon="2.05395">
        <ele>208</ele>
        <time>2011-03-26T15:43:51Z</time>
      </trkpt>
      <trkpt lat="44.06394" lon="2.054">
        <ele>208</ele>
        <time>2011-03-26T15:43:52Z</time>
      </trkpt>
      <trkpt lat="44.06389" lon="2.05405">
        <ele>208</ele>
        <time>2011-03-26T15:43:53Z</time>
      </trkpt>
      <trkpt lat="44.06384" lon="2.05409">
        <ele>208</ele>
        <time>2011-03-26T15:43:54Z</time>
      </trkpt>
      <trkpt lat="44.06379" lon="2.05413">
        <ele>208</ele>
        <time>2011-03-26T15:43:55Z</time>
      </trkpt>
      <trkpt lat="44.06374" lon="2.05417">
        <ele>217</ele>
        <time>2011-03-26T15:43:56Z</time>
      </trkpt>
      <trkpt lat="44.0637" lon="2.0542">
        <ele>217</ele>
        <time>2011-03-26T15:43:57Z</time>
      </trkpt>
      <trkpt lat="44.06366" lon="2.05424">
        <ele>217</ele>
        <time>2011-03-26T15:43:58Z</time>
      </trkpt>
      <trkpt lat="44.06362" lon="2.05428">
        <ele>217</ele>
        <time>2011-03-26T15:43:59Z</time>
      </trkpt>
      <trkpt lat="44.06358" lon="2.05432">
        <ele>217</ele>
        <time>2011-03-26T15:44:00Z</time>
      </trkpt>
      <trkpt lat="44.06353" lon="2.05436">
        <ele>217</ele>
        <time>2011-03-26T15:44:01Z</time>
      </trkpt>
      <trkpt lat="44.06349" lon="2.0544">
        <ele>217</ele>
        <time>2011-03-26T15:44:02Z</time>
      </trkpt>
      <trkpt lat="44.06345" lon="2.05444">
        <ele>217</ele>
        <time>2011-03-26T15:44:03Z</time>
      </trkpt>
      <trkpt lat="44.06341" lon="2.05448">
        <ele>217</ele>
        <time>2011-03-26T15:44:04Z</time>
      </trkpt>
      <trkpt lat="44.06336" lon="2.05452">
        <ele>217</ele>
        <time>2011-03-26T15:44:05Z</time>
      </trkpt>
      <trkpt lat="44.06332" lon="2.05456">
        <ele>217</ele>
        <time>2011-03-26T15:44:06Z</time>
      </trkpt>
      <trkpt lat="44.06327" lon="2.05459">
        <ele>206</ele>
        <time>2011-03-26T15:44:07Z</time>
      </trkpt>
      <trkpt lat="44.06321" lon="2.05463">
        <ele>206</ele>
        <time>2011-03-26T15:44:08Z</time>
      </trkpt>
      <trkpt lat="44.06315" lon="2.05467">
        <ele>206</ele>
        <time>2011-03-26T15:44:09Z</time>
      </trkpt>
      <trkpt lat="44.0631" lon="2.05471">
        <ele>206</ele>
        <time>2011-03-26T15:44:10Z</time>
      </trkpt>
      <trkpt lat="44.06304" lon="2.05475">
        <ele>206</ele>
        <time>2011-03-26T15:44:11Z</time>
      </trkpt>
      <trkpt lat="44.06299" lon="2.05479">
        <ele>206</ele>
        <time>2011-03-26T15:44:12Z</time>
      </trkpt>
      <trkpt lat="44.06294" lon="2.05483">
        <ele>206</ele>
        <time>2011-03-26T15:44:13Z</time>
      </trkpt>
      <trkpt lat="44.06289" lon="2.05487">
        <ele>228</ele>
        <time>2011-03-26T15:44:14Z</time>
      </trkpt>
      <trkpt lat="44.06285" lon="2.05491">
        <ele>228</ele>
        <time>2011-03-26T15:44:15Z</time>
      </trkpt>
      <trkpt lat="44.06281" lon="2.05495">
        <ele>228</ele>
        <time>2011-03-26T15:44:16Z</time>
      </trkpt>
      <trkpt lat="44.06278" lon="2.05499">
        <ele>228</ele>
        <time>2011-03-26T15:44:17Z</time>
      </trkpt>
      <trkpt lat="44.06274" lon="2.05502">
        <ele>228</ele>
        <time>2011-03-26T15:44:18Z</time>
      </trkpt>
      <trkpt lat="44.06271" lon="2.05505">
        <ele>228</ele>
        <time>2011-03-26T15:44:19Z</time>
      </trkpt>
      <trkpt lat="44.06268" lon="2.05508">
        <ele>228</ele>
        <time>2011-03-26T15:44:20Z</time>
      </trkpt>
      <trkpt lat="44.06265" lon="2.05511">
        <ele>228</ele>
        <time>2011-03-26T15:44:21Z</time>
      </trkpt>
      <trkpt lat="44.06261" lon="2.05514">
        <ele>228</ele>
        <time>2011-03-26T15:44:22Z</time>
      </trkpt>
      <trkpt lat="44.06258" lon="2.05517">
        <ele>228</ele>
        <time>2011-03-26T15:44:23Z</time>
      </trkpt>
      <trkpt lat="44.06255" lon="2.0552">
        <ele>228</ele>
        <time>2011-03-26T15:44:24Z</time>
      </trkpt>
      <trkpt lat="44.06252" lon="2.05522">
        <ele>228</ele>
        <time>2011-03-26T15:44:25Z</time>
      </trkpt>
      <trkpt lat="44.06249" lon="2.05524">
        <ele>228</ele>
        <time>2011-03-26T15:44:26Z</time>
      </trkpt>
      <trkpt lat="44.06245" lon="2.05527">
        <ele>228</ele>
        <time>2011-03-26T15:44:27Z</time>
      </trkpt>
      <trkpt lat="44.06242" lon="2.0553">
        <ele>228</ele>
        <time>2011-03-26T15:44:28Z</time>
      </trkpt>
      <trkpt lat="44.06239" lon="2.05532">
        <ele>228</ele>
        <time>2011-03-26T15:44:29Z</time>
      </trkpt>
      <trkpt lat="44.06236" lon="2.05535">
        <ele>228</ele>
        <time>2011-03-26T15:44:30Z</time>
      </trkpt>
      <trkpt lat="44.06233" lon="2.05538">
        <ele>228</ele>
        <time>2011-03-26T15:44:31Z</time>
      </trkpt>
      <trkpt lat="44.0623" lon="2.05541">
        <ele>228</ele>
        <time>2011-03-26T15:44:32Z</time>
      </trkpt>
      <trkpt lat="44.06227" lon="2.05544">
        <ele>211</ele>
        <time>2011-03-26T15:44:33Z</time>
      </trkpt>
      <trkpt lat="44.06224" lon="2.05547">
        <ele>211</ele>
        <time>2011-03-26T15:44:34Z</time>
      </trkpt>
      <trkpt lat="44.06221" lon="2.05549">
        <ele>211</ele>
        <time>2011-03-26T15:44:35Z</time>
      </trkpt>
      <trkpt lat="44.06218" lon="2.05552">
        <ele>211</ele>
        <time>2011-03-26T15:44:36Z</time>
      </trkpt>
      <trkpt lat="44.06215" lon="2.05555">
        <ele>211</ele>
        <time>2011-03-26T15:44:37Z</time>
      </trkpt>
      <trkpt lat="44.06211" lon="2.05557">
        <ele>211</ele>
        <time>2011-03-26T15:44:38Z</time>
      </trkpt>
      <trkpt lat="44.06207" lon="2.05559">
        <ele>213</ele>
        <time>2011-03-26T15:44:40Z</time>
      </trkpt>
      <trkpt lat="44.06202" lon="2.05561">
        <ele>213</ele>
        <time>2011-03-26T15:44:42Z</time>
      </trkpt>
      <trkpt lat="44.06198" lon="2.05561">
        <ele>213</ele>
        <time>2011-03-26T15:44:43Z</time>
      </trkpt>
      <trkpt lat="44.06195" lon="2.05562">
        <ele>213</ele>
        <time>2011-03-26T15:44:44Z</time>
      </trkpt>
      <trkpt lat="44.06192" lon="2.05562">
        <ele>213</ele>
        <time>2011-03-26T15:44:45Z</time>
      </trkpt>
      <trkpt lat="44.06188" lon="2.05563">
        <ele>213</ele>
        <time>2011-03-26T15:44:46Z</time>
      </trkpt>
      <trkpt lat="44.06183" lon="2.05565">
        <ele>213</ele>
        <time>2011-03-26T15:44:47Z</time>
      </trkpt>
      <trkpt lat="44.06178" lon="2.05567">
        <ele>213</ele>
        <time>2011-03-26T15:44:48Z</time>
      </trkpt>
      <trkpt lat="44.06173" lon="2.05569">
        <ele>213</ele>
        <time>2011-03-26T15:44:49Z</time>
      </trkpt>
      <trkpt lat="44.06168" lon="2.05572">
        <ele>213</ele>
        <time>2011-03-26T15:44:50Z</time>
      </trkpt>
      <trkpt lat="44.06164" lon="2.05576">
        <ele>213</ele>
        <time>2011-03-26T15:44:51Z</time>
      </trkpt>
      <trkpt lat="44.0616" lon="2.05578">
        <ele>213</ele>
        <time>2011-03-26T15:44:52Z</time>
      </trkpt>
      <trkpt lat="44.06157" lon="2.0558">
        <ele>213</ele>
        <time>2011-03-26T15:44:53Z</time>
      </trkpt>
      <trkpt lat="44.06154" lon="2.05582">
        <ele>213</ele>
        <time>2011-03-26T15:44:54Z</time>
      </trkpt>
      <trkpt lat="44.06151" lon="2.05585">
        <ele>213</ele>
        <time>2011-03-26T15:44:55Z</time>
      </trkpt>
      <trkpt lat="44.06148" lon="2.05587">
        <ele>213</ele>
        <time>2011-03-26T15:44:56Z</time>
      </trkpt>
      <trkpt lat="44.06144" lon="2.05589">
        <ele>213</ele>
        <time>2011-03-26T15:44:57Z</time>
      </trkpt>
      <trkpt lat="44.06141" lon="2.05591">
        <ele>213</ele>
        <time>2011-03-26T15:44:58Z</time>
      </trkpt>
      <trkpt lat="44.06138" lon="2.05593">
        <ele>213</ele>
        <time>2011-03-26T15:44:59Z</time>
      </trkpt>
      <trkpt lat="44.06134" lon="2.05595">
        <ele>213</ele>
        <time>2011-03-26T15:45:00Z</time>
      </trkpt>
      <trkpt lat="44.0613" lon="2.05597">
        <ele>213</ele>
        <time>2011-03-26T15:45:01Z</time>
      </trkpt>
      <trkpt lat="44.06126" lon="2.05598">
        <ele>213</ele>
        <time>2011-03-26T15:45:02Z</time>
      </trkpt>
      <trkpt lat="44.06123" lon="2.056">
        <ele>224</ele>
        <time>2011-03-26T15:45:03Z</time>
      </trkpt>
      <trkpt lat="44.06119" lon="2.05601">
        <ele>224</ele>
        <time>2011-03-26T15:45:04Z</time>
      </trkpt>
      <trkpt lat="44.06115" lon="2.05602">
        <ele>224</ele>
        <time>2011-03-26T15:45:05Z</time>
      </trkpt>
      <trkpt lat="44.06111" lon="2.05604">
        <ele>224</ele>
        <time>2011-03-26T15:45:06Z</time>
      </trkpt>
      <trkpt lat="44.06107" lon="2.05606">
        <ele>224</ele>
        <time>2011-03-26T15:45:07Z</time>
      </trkpt>
      <trkpt lat="44.06104" lon="2.05607">
        <ele>224</ele>
        <time>2011-03-26T15:45:08Z</time>
      </trkpt>
      <trkpt lat="44.061" lon="2.05609">
        <ele>224</ele>
        <time>2011-03-26T15:45:09Z</time>
      </trkpt>
      <trkpt lat="44.06097" lon="2.0561">
        <ele>224</ele>
        <time>2011-03-26T15:45:10Z</time>
      </trkpt>
      <trkpt lat="44.06094" lon="2.05612">
        <ele>224</ele>
        <time>2011-03-26T15:45:11Z</time>
      </trkpt>
      <trkpt lat="44.0609" lon="2.05613">
        <ele>224</ele>
        <time>2011-03-26T15:45:12Z</time>
      </trkpt>
      <trkpt lat="44.06087" lon="2.05614">
        <ele>224</ele>
        <time>2011-03-26T15:45:13Z</time>
      </trkpt>
      <trkpt lat="44.06084" lon="2.05616">
        <ele>224</ele>
        <time>2011-03-26T15:45:14Z</time>
      </trkpt>
      <trkpt lat="44.06081" lon="2.05617">
        <ele>224</ele>
        <time>2011-03-26T15:45:15Z</time>
      </trkpt>
      <trkpt lat="44.06078" lon="2.05618">
        <ele>224</ele>
        <time>2011-03-26T15:45:16Z</time>
      </trkpt>
      <trkpt lat="44.06076" lon="2.05619">
        <ele>224</ele>
        <time>2011-03-26T15:45:17Z</time>
      </trkpt>
      <trkpt lat="44.06073" lon="2.05621">
        <ele>224</ele>
        <time>2011-03-26T15:45:18Z</time>
      </trkpt>
      <trkpt lat="44.06071" lon="2.05622">
        <ele>224</ele>
        <time>2011-03-26T15:45:19Z</time>
      </trkpt>
      <trkpt lat="44.06068" lon="2.05624">
        <ele>224</ele>
        <time>2011-03-26T15:45:21Z</time>
      </trkpt>
      <trkpt lat="44.06065" lon="2.05625">
        <ele>224</ele>
        <time>2011-03-26T15:45:23Z</time>
      </trkpt>
      <trkpt lat="44.06062" lon="2.05626">
        <ele>212</ele>
        <time>2011-03-26T15:45:25Z</time>
      </trkpt>
      <trkpt lat="44.06058" lon="2.05626">
        <ele>212</ele>
        <time>2011-03-26T15:45:27Z</time>
      </trkpt>
      <trkpt lat="44.06054" lon="2.05625">
        <ele>212</ele>
        <time>2011-03-26T15:45:29Z</time>
      </trkpt>
      <trkpt lat="44.06051" lon="2.05625">
        <ele>224</ele>
        <time>2011-03-26T15:45:30Z</time>
      </trkpt>
      <trkpt lat="44.06048" lon="2.05625">
        <ele>224</ele>
        <time>2011-03-26T15:45:31Z</time>
      </trkpt>
      <trkpt lat="44.06046" lon="2.05625">
        <ele>224</ele>
        <time>2011-03-26T15:45:32Z</time>
      </trkpt>
      <trkpt lat="44.06042" lon="2.05624">
        <ele>224</ele>
        <time>2011-03-26T15:45:34Z</time>
      </trkpt>
      <trkpt lat="44.0604" lon="2.05624">
        <ele>232</ele>
        <time>2011-03-26T15:45:35Z</time>
      </trkpt>
      <trkpt lat="44.06037" lon="2.05624">
        <ele>232</ele>
        <time>2011-03-26T15:45:36Z</time>
      </trkpt>
      <trkpt lat="44.06035" lon="2.05624">
        <ele>232</ele>
        <time>2011-03-26T15:45:37Z</time>
      </trkpt>
      <trkpt lat="44.06032" lon="2.05625">
        <ele>232</ele>
        <time>2011-03-26T15:45:38Z</time>
      </trkpt>
      <trkpt lat="44.06029" lon="2.05626">
        <ele>220</ele>
        <time>2011-03-26T15:45:39Z</time>
      </trkpt>
      <trkpt lat="44.06025" lon="2.05626">
        <ele>220</ele>
        <time>2011-03-26T15:45:40Z</time>
      </trkpt>
      <trkpt lat="44.06021" lon="2.05627">
        <ele>220</ele>
        <time>2011-03-26T15:45:41Z</time>
      </trkpt>
      <trkpt lat="44.06016" lon="2.05628">
        <ele>220</ele>
        <time>2011-03-26T15:45:42Z</time>
      </trkpt>
      <trkpt lat="44.06011" lon="2.05629">
        <ele>220</ele>
        <time>2011-03-26T15:45:43Z</time>
      </trkpt>
      <trkpt lat="44.06005" lon="2.0563">
        <ele>220</ele>
        <time>2011-03-26T15:45:44Z</time>
      </trkpt>
      <trkpt lat="44.05999" lon="2.05632">
        <ele>220</ele>
        <time>2011-03-26T15:45:45Z</time>
      </trkpt>
      <trkpt lat="44.05994" lon="2.05635">
        <ele>220</ele>
        <time>2011-03-26T15:45:46Z</time>
      </trkpt>
      <trkpt lat="44.0599" lon="2.05639">
        <ele>220</ele>
        <time>2011-03-26T15:45:47Z</time>
      </trkpt>
      <trkpt lat="44.05987" lon="2.05643">
        <ele>220</ele>
        <time>2011-03-26T15:45:48Z</time>
      </trkpt>
      <trkpt lat="44.05983" lon="2.05647">
        <ele>220</ele>
        <time>2011-03-26T15:45:49Z</time>
      </trkpt>
      <trkpt lat="44.0598" lon="2.0565">
        <ele>220</ele>
        <time>2011-03-26T15:45:50Z</time>
      </trkpt>
      <trkpt lat="44.05978" lon="2.05654">
        <ele>220</ele>
        <time>2011-03-26T15:45:51Z</time>
      </trkpt>
      <trkpt lat="44.05976" lon="2.05657">
        <ele>220</ele>
        <time>2011-03-26T15:45:52Z</time>
      </trkpt>
      <trkpt lat="44.05974" lon="2.0566">
        <ele>220</ele>
        <time>2011-03-26T15:45:53Z</time>
      </trkpt>
      <trkpt lat="44.05973" lon="2.05663">
        <ele>220</ele>
        <time>2011-03-26T15:45:54Z</time>
      </trkpt>
      <trkpt lat="44.05973" lon="2.05666">
        <ele>220</ele>
        <time>2011-03-26T15:45:55Z</time>
      </trkpt>
      <trkpt lat="44.05972" lon="2.05669">
        <ele>220</ele>
        <time>2011-03-26T15:45:56Z</time>
      </trkpt>
      <trkpt lat="44.05972" lon="2.05673">
        <ele>220</ele>
        <time>2011-03-26T15:45:57Z</time>
      </trkpt>
      <trkpt lat="44.05974" lon="2.05678">
        <ele>220</ele>
        <time>2011-03-26T15:45:58Z</time>
      </trkpt>
      <trkpt lat="44.05975" lon="2.05683">
        <ele>220</ele>
        <time>2011-03-26T15:45:59Z</time>
      </trkpt>
      <trkpt lat="44.05976" lon="2.0569">
        <ele>220</ele>
        <time>2011-03-26T15:46:00Z</time>
      </trkpt>
      <trkpt lat="44.05976" lon="2.05697">
        <ele>220</ele>
        <time>2011-03-26T15:46:01Z</time>
      </trkpt>
      <trkpt lat="44.05976" lon="2.05705">
        <ele>220</ele>
        <time>2011-03-26T15:46:02Z</time>
      </trkpt>
      <trkpt lat="44.05974" lon="2.05714">
        <ele>213</ele>
        <time>2011-03-26T15:46:03Z</time>
      </trkpt>
      <trkpt lat="44.05971" lon="2.05721">
        <ele>213</ele>
        <time>2011-03-26T15:46:04Z</time>
      </trkpt>
      <trkpt lat="44.05969" lon="2.05728">
        <ele>213</ele>
        <time>2011-03-26T15:46:05Z</time>
      </trkpt>
      <trkpt lat="44.05966" lon="2.05734">
        <ele>213</ele>
        <time>2011-03-26T15:46:06Z</time>
      </trkpt>
      <trkpt lat="44.05962" lon="2.05743">
        <ele>213</ele>
        <time>2011-03-26T15:46:07Z</time>
      </trkpt>
      <trkpt lat="44.05959" lon="2.05751">
        <ele>213</ele>
        <time>2011-03-26T15:46:08Z</time>
      </trkpt>
      <trkpt lat="44.05956" lon="2.05759">
        <ele>230</ele>
        <time>2011-03-26T15:46:09Z</time>
      </trkpt>
      <trkpt lat="44.05952" lon="2.05768">
        <ele>230</ele>
        <time>2011-03-26T15:46:10Z</time>
      </trkpt>
      <trkpt lat="44.05948" lon="2.05776">
        <ele>230</ele>
        <time>2011-03-26T15:46:11Z</time>
      </trkpt>
      <trkpt lat="44.05944" lon="2.05784">
        <ele>230</ele>
        <time>2011-03-26T15:46:12Z</time>
      </trkpt>
      <trkpt lat="44.0594" lon="2.05793">
        <ele>219</ele>
        <time>2011-03-26T15:46:13Z</time>
      </trkpt>
      <trkpt lat="44.05937" lon="2.05802">
        <ele>219</ele>
        <time>2011-03-26T15:46:14Z</time>
      </trkpt>
      <trkpt lat="44.05933" lon="2.05808">
        <ele>219</ele>
        <time>2011-03-26T15:46:15Z</time>
      </trkpt>
      <trkpt lat="44.05929" lon="2.05814">
        <ele>219</ele>
        <time>2011-03-26T15:46:16Z</time>
      </trkpt>
      <trkpt lat="44.05925" lon="2.05819">
        <ele>219</ele>
        <time>2011-03-26T15:46:17Z</time>
      </trkpt>
      <trkpt lat="44.0592" lon="2.05823">
        <ele>219</ele>
        <time>2011-03-26T15:46:18Z</time>
      </trkpt>
      <trkpt lat="44.05916" lon="2.05827">
        <ele>219</ele>
        <time>2011-03-26T15:46:19Z</time>
      </trkpt>
      <trkpt lat="44.05912" lon="2.0583">
        <ele>219</ele>
        <time>2011-03-26T15:46:20Z</time>
      </trkpt>
      <trkpt lat="44.05908" lon="2.05834">
        <ele>219</ele>
        <time>2011-03-26T15:46:21Z</time>
      </trkpt>
      <trkpt lat="44.05905" lon="2.05837">
        <ele>219</ele>
        <time>2011-03-26T15:46:22Z</time>
      </trkpt>
      <trkpt lat="44.05901" lon="2.05839">
        <ele>219</ele>
        <time>2011-03-26T15:46:23Z</time>
      </trkpt>
      <trkpt lat="44.05898" lon="2.05842">
        <ele>219</ele>
        <time>2011-03-26T15:46:24Z</time>
      </trkpt>
      <trkpt lat="44.05894" lon="2.05845">
        <ele>219</ele>
        <time>2011-03-26T15:46:25Z</time>
      </trkpt>
      <trkpt lat="44.05891" lon="2.05848">
        <ele>219</ele>
        <time>2011-03-26T15:46:26Z</time>
      </trkpt>
      <trkpt lat="44.05888" lon="2.0585">
        <ele>219</ele>
        <time>2011-03-26T15:46:27Z</time>
      </trkpt>
      <trkpt lat="44.05885" lon="2.05853">
        <ele>219</ele>
        <time>2011-03-26T15:46:28Z</time>
      </trkpt>
      <trkpt lat="44.05883" lon="2.05856">
        <ele>219</ele>
        <time>2011-03-26T15:46:29Z</time>
      </trkpt>
      <trkpt lat="44.05881" lon="2.0586">
        <ele>219</ele>
        <time>2011-03-26T15:46:30Z</time>
      </trkpt>
      <trkpt lat="44.05879" lon="2.05863">
        <ele>219</ele>
        <time>2011-03-26T15:46:31Z</time>
      </trkpt>
      <trkpt lat="44.05876" lon="2.05867">
        <ele>219</ele>
        <time>2011-03-26T15:46:32Z</time>
      </trkpt>
      <trkpt lat="44.05874" lon="2.0587">
        <ele>232</ele>
        <time>2011-03-26T15:46:33Z</time>
      </trkpt>
      <trkpt lat="44.05872" lon="2.05873">
        <ele>232</ele>
        <time>2011-03-26T15:46:34Z</time>
      </trkpt>
      <trkpt lat="44.05867" lon="2.05884">
        <ele>225</ele>
        <time>2011-03-26T15:46:38Z</time>
      </trkpt>
      <trkpt lat="44.05866" lon="2.05888">
        <ele>225</ele>
        <time>2011-03-26T15:46:39Z</time>
      </trkpt>
      <trkpt lat="44.05865" lon="2.05894">
        <ele>225</ele>
        <time>2011-03-26T15:46:40Z</time>
      </trkpt>
      <trkpt lat="44.05865" lon="2.059">
        <ele>225</ele>
        <time>2011-03-26T15:46:41Z</time>
      </trkpt>
      <trkpt lat="44.05866" lon="2.05909">
        <ele>225</ele>
        <time>2011-03-26T15:46:42Z</time>
      </trkpt>
      <trkpt lat="44.05866" lon="2.05917">
        <ele>225</ele>
        <time>2011-03-26T15:46:43Z</time>
      </trkpt>
      <trkpt lat="44.05866" lon="2.05926">
        <ele>225</ele>
        <time>2011-03-26T15:46:44Z</time>
      </trkpt>
      <trkpt lat="44.05865" lon="2.05934">
        <ele>225</ele>
        <time>2011-03-26T15:46:45Z</time>
      </trkpt>
      <trkpt lat="44.05863" lon="2.05943">
        <ele>225</ele>
        <time>2011-03-26T15:46:46Z</time>
      </trkpt>
      <trkpt lat="44.05862" lon="2.05952">
        <ele>225</ele>
        <time>2011-03-26T15:46:47Z</time>
      </trkpt>
      <trkpt lat="44.0586" lon="2.05962">
        <ele>213</ele>
        <time>2011-03-26T15:46:48Z</time>
      </trkpt>
      <trkpt lat="44.05858" lon="2.0597">
        <ele>213</ele>
        <time>2011-03-26T15:46:49Z</time>
      </trkpt>
      <trkpt lat="44.05855" lon="2.05976">
        <ele>213</ele>
        <time>2011-03-26T15:46:50Z</time>
      </trkpt>
      <trkpt lat="44.05852" lon="2.05981">
        <ele>213</ele>
        <time>2011-03-26T15:46:51Z</time>
      </trkpt>
      <trkpt lat="44.05851" lon="2.05984">
        <ele>213</ele>
        <time>2011-03-26T15:46:52Z</time>
      </trkpt>
      <trkpt lat="44.05849" lon="2.05987">
        <ele>213</ele>
        <time>2011-03-26T15:46:53Z</time>
      </trkpt>
      <trkpt lat="44.05847" lon="2.05992">
        <ele>213</ele>
        <time>2011-03-26T15:46:55Z</time>
      </trkpt>
      <trkpt lat="44.05844" lon="2.05997">
        <ele>213</ele>
        <time>2011-03-26T15:46:57Z</time>
      </trkpt>
      <trkpt lat="44.05843" lon="2.06001">
        <ele>213</ele>
        <time>2011-03-26T15:46:58Z</time>
      </trkpt>
      <trkpt lat="44.05842" lon="2.06004">
        <ele>213</ele>
        <time>2011-03-26T15:46:59Z</time>
      </trkpt>
      <trkpt lat="44.05839" lon="2.06009">
        <ele>213</ele>
        <time>2011-03-26T15:47:01Z</time>
      </trkpt>
      <trkpt lat="44.05838" lon="2.06012">
        <ele>213</ele>
        <time>2011-03-26T15:47:02Z</time>
      </trkpt>
      <trkpt lat="44.05836" lon="2.06015">
        <ele>213</ele>
        <time>2011-03-26T15:47:03Z</time>
      </trkpt>
      <trkpt lat="44.05835" lon="2.06018">
        <ele>213</ele>
        <time>2011-03-26T15:47:04Z</time>
      </trkpt>
      <trkpt lat="44.05834" lon="2.06022">
        <ele>213</ele>
        <time>2011-03-26T15:47:05Z</time>
      </trkpt>
      <trkpt lat="44.05834" lon="2.06026">
        <ele>213</ele>
        <time>2011-03-26T15:47:06Z</time>
      </trkpt>
      <trkpt lat="44.05833" lon="2.06029">
        <ele>213</ele>
        <time>2011-03-26T15:47:07Z</time>
      </trkpt>
      <trkpt lat="44.05831" lon="2.06033">
        <ele>213</ele>
        <time>2011-03-26T15:47:08Z</time>
      </trkpt>
      <trkpt lat="44.0583" lon="2.06037">
        <ele>213</ele>
        <time>2011-03-26T15:47:09Z</time>
      </trkpt>
      <trkpt lat="44.05828" lon="2.06041">
        <ele>213</ele>
        <time>2011-03-26T15:47:10Z</time>
      </trkpt>
      <trkpt lat="44.05827" lon="2.06046">
        <ele>209</ele>
        <time>2011-03-26T15:47:11Z</time>
      </trkpt>
      <trkpt lat="44.05826" lon="2.0605">
        <ele>209</ele>
        <time>2011-03-26T15:47:12Z</time>
      </trkpt>
      <trkpt lat="44.05824" lon="2.06055">
        <ele>209</ele>
        <time>2011-03-26T15:47:13Z</time>
      </trkpt>
      <trkpt lat="44.05822" lon="2.06059">
        <ele>209</ele>
        <time>2011-03-26T15:47:14Z</time>
      </trkpt>
      <trkpt lat="44.05821" lon="2.06064">
        <ele>209</ele>
        <time>2011-03-26T15:47:15Z</time>
      </trkpt>
      <trkpt lat="44.05819" lon="2.06069">
        <ele>209</ele>
        <time>2011-03-26T15:47:16Z</time>
      </trkpt>
      <trkpt lat="44.05817" lon="2.06073">
        <ele>209</ele>
        <time>2011-03-26T15:47:17Z</time>
      </trkpt>
      <trkpt lat="44.05815" lon="2.06077">
        <ele>209</ele>
        <time>2011-03-26T15:47:18Z</time>
      </trkpt>
      <trkpt lat="44.05812" lon="2.06081">
        <ele>209</ele>
        <time>2011-03-26T15:47:19Z</time>
      </trkpt>
      <trkpt lat="44.0581" lon="2.06084">
        <ele>209</ele>
        <time>2011-03-26T15:47:20Z</time>
      </trkpt>
      <trkpt lat="44.05807" lon="2.06087">
        <ele>209</ele>
        <time>2011-03-26T15:47:21Z</time>
      </trkpt>
      <trkpt lat="44.05804" lon="2.0609">
        <ele>209</ele>
        <time>2011-03-26T15:47:22Z</time>
      </trkpt>
      <trkpt lat="44.05801" lon="2.06094">
        <ele>209</ele>
        <time>2011-03-26T15:47:23Z</time>
      </trkpt>
      <trkpt lat="44.05799" lon="2.06097">
        <ele>209</ele>
        <time>2011-03-26T15:47:24Z</time>
      </trkpt>
      <trkpt lat="44.05797" lon="2.06101">
        <ele>209</ele>
        <time>2011-03-26T15:47:25Z</time>
      </trkpt>
      <trkpt lat="44.05794" lon="2.06104">
        <ele>209</ele>
        <time>2011-03-26T15:47:26Z</time>
      </trkpt>
      <trkpt lat="44.05791" lon="2.06108">
        <ele>223</ele>
        <time>2011-03-26T15:47:27Z</time>
      </trkpt>
      <trkpt lat="44.05788" lon="2.06112">
        <ele>223</ele>
        <time>2011-03-26T15:47:28Z</time>
      </trkpt>
      <trkpt lat="44.05786" lon="2.06116">
        <ele>223</ele>
        <time>2011-03-26T15:47:29Z</time>
      </trkpt>
      <trkpt lat="44.05783" lon="2.0612">
        <ele>223</ele>
        <time>2011-03-26T15:47:30Z</time>
      </trkpt>
      <trkpt lat="44.0578" lon="2.06124">
        <ele>223</ele>
        <time>2011-03-26T15:47:31Z</time>
      </trkpt>
      <trkpt lat="44.05776" lon="2.06127">
        <ele>214</ele>
        <time>2011-03-26T15:47:32Z</time>
      </trkpt>
      <trkpt lat="44.05773" lon="2.06131">
        <ele>214</ele>
        <time>2011-03-26T15:47:33Z</time>
      </trkpt>
      <trkpt lat="44.0577" lon="2.06134">
        <ele>214</ele>
        <time>2011-03-26T15:47:34Z</time>
      </trkpt>
      <trkpt lat="44.05768" lon="2.06137">
        <ele>214</ele>
        <time>2011-03-26T15:47:35Z</time>
      </trkpt>
      <trkpt lat="44.05765" lon="2.0614">
        <ele>214</ele>
        <time>2011-03-26T15:47:36Z</time>
      </trkpt>
      <trkpt lat="44.05762" lon="2.06144">
        <ele>214</ele>
        <time>2011-03-26T15:47:37Z</time>
      </trkpt>
      <trkpt lat="44.05758" lon="2.06148">
        <ele>214</ele>
        <time>2011-03-26T15:47:38Z</time>
      </trkpt>
      <trkpt lat="44.05755" lon="2.06152">
        <ele>214</ele>
        <time>2011-03-26T15:47:39Z</time>
      </trkpt>
      <trkpt lat="44.05752" lon="2.06156">
        <ele>214</ele>
        <time>2011-03-26T15:47:40Z</time>
      </trkpt>
      <trkpt lat="44.05749" lon="2.06161">
        <ele>214</ele>
        <time>2011-03-26T15:47:41Z</time>
      </trkpt>
      <trkpt lat="44.05746" lon="2.06165">
        <ele>214</ele>
        <time>2011-03-26T15:47:42Z</time>
      </trkpt>
      <trkpt lat="44.05743" lon="2.0617">
        <ele>214</ele>
        <time>2011-03-26T15:47:43Z</time>
      </trkpt>
      <trkpt lat="44.0574" lon="2.06174">
        <ele>214</ele>
        <time>2011-03-26T15:47:44Z</time>
      </trkpt>
      <trkpt lat="44.05737" lon="2.06178">
        <ele>214</ele>
        <time>2011-03-26T15:47:45Z</time>
      </trkpt>
      <trkpt lat="44.05734" lon="2.06182">
        <ele>214</ele>
        <time>2011-03-26T15:47:46Z</time>
      </trkpt>
      <trkpt lat="44.05731" lon="2.06186">
        <ele>214</ele>
        <time>2011-03-26T15:47:47Z</time>
      </trkpt>
      <trkpt lat="44.05728" lon="2.06191">
        <ele>214</ele>
        <time>2011-03-26T15:47:48Z</time>
      </trkpt>
      <trkpt lat="44.05726" lon="2.06195">
        <ele>214</ele>
        <time>2011-03-26T15:47:49Z</time>
      </trkpt>
      <trkpt lat="44.05723" lon="2.06199">
        <ele>214</ele>
        <time>2011-03-26T15:47:50Z</time>
      </trkpt>
      <trkpt lat="44.0572" lon="2.06204">
        <ele>214</ele>
        <time>2011-03-26T15:47:51Z</time>
      </trkpt>
      <trkpt lat="44.05718" lon="2.06207">
        <ele>214</ele>
        <time>2011-03-26T15:47:52Z</time>
      </trkpt>
      <trkpt lat="44.05715" lon="2.06211">
        <ele>209</ele>
        <time>2011-03-26T15:47:53Z</time>
      </trkpt>
      <trkpt lat="44.05712" lon="2.06215">
        <ele>209</ele>
        <time>2011-03-26T15:47:54Z</time>
      </trkpt>
      <trkpt lat="44.05709" lon="2.06218">
        <ele>209</ele>
        <time>2011-03-26T15:47:55Z</time>
      </trkpt>
      <trkpt lat="44.05706" lon="2.06222">
        <ele>221</ele>
        <time>2011-03-26T15:47:56Z</time>
      </trkpt>
      <trkpt lat="44.05704" lon="2.06226">
        <ele>221</ele>
        <time>2011-03-26T15:47:57Z</time>
      </trkpt>
      <trkpt lat="44.057" lon="2.06228">
        <ele>221</ele>
        <time>2011-03-26T15:47:58Z</time>
      </trkpt>
      <trkpt lat="44.05697" lon="2.06232">
        <ele>221</ele>
        <time>2011-03-26T15:47:59Z</time>
      </trkpt>
      <trkpt lat="44.05694" lon="2.06236">
        <ele>221</ele>
        <time>2011-03-26T15:48:00Z</time>
      </trkpt>
      <trkpt lat="44.05692" lon="2.06239">
        <ele>221</ele>
        <time>2011-03-26T15:48:01Z</time>
      </trkpt>
      <trkpt lat="44.05689" lon="2.06242">
        <ele>221</ele>
        <time>2011-03-26T15:48:02Z</time>
      </trkpt>
      <trkpt lat="44.05687" lon="2.06246">
        <ele>221</ele>
        <time>2011-03-26T15:48:03Z</time>
      </trkpt>
      <trkpt lat="44.05685" lon="2.06249">
        <ele>221</ele>
        <time>2011-03-26T15:48:04Z</time>
      </trkpt>
      <trkpt lat="44.05684" lon="2.06252">
        <ele>221</ele>
        <time>2011-03-26T15:48:05Z</time>
      </trkpt>
      <trkpt lat="44.05682" lon="2.06255">
        <ele>221</ele>
        <time>2011-03-26T15:48:06Z</time>
      </trkpt>
      <trkpt lat="44.05681" lon="2.0626">
        <ele>221</ele>
        <time>2011-03-26T15:48:07Z</time>
      </trkpt>
      <trkpt lat="44.05679" lon="2.06264">
        <ele>221</ele>
        <time>2011-03-26T15:48:08Z</time>
      </trkpt>
      <trkpt lat="44.05677" lon="2.06268">
        <ele>221</ele>
        <time>2011-03-26T15:48:09Z</time>
      </trkpt>
      <trkpt lat="44.05675" lon="2.06272">
        <ele>221</ele>
        <time>2011-03-26T15:48:10Z</time>
      </trkpt>
      <trkpt lat="44.05673" lon="2.06277">
        <ele>221</ele>
        <time>2011-03-26T15:48:11Z</time>
      </trkpt>
      <trkpt lat="44.05671" lon="2.06281">
        <ele>221</ele>
        <time>2011-03-26T15:48:12Z</time>
      </trkpt>
      <trkpt lat="44.05669" lon="2.06285">
        <ele>221</ele>
        <time>2011-03-26T15:48:13Z</time>
      </trkpt>
      <trkpt lat="44.05666" lon="2.06288">
        <ele>221</ele>
        <time>2011-03-26T15:48:14Z</time>
      </trkpt>
      <trkpt lat="44.05663" lon="2.06292">
        <ele>221</ele>
        <time>2011-03-26T15:48:15Z</time>
      </trkpt>
      <trkpt lat="44.05661" lon="2.06295">
        <ele>213</ele>
        <time>2011-03-26T15:48:16Z</time>
      </trkpt>
      <trkpt lat="44.05659" lon="2.06297">
        <ele>213</ele>
        <time>2011-03-26T15:48:17Z</time>
      </trkpt>
      <trkpt lat="44.05658" lon="2.063">
        <ele>213</ele>
        <time>2011-03-26T15:48:18Z</time>
      </trkpt>
      <trkpt lat="44.05656" lon="2.06305">
        <ele>213</ele>
        <time>2011-03-26T15:48:20Z</time>
      </trkpt>
      <trkpt lat="44.05655" lon="2.06311">
        <ele>213</ele>
        <time>2011-03-26T15:48:22Z</time>
      </trkpt>
      <trkpt lat="44.05654" lon="2.06315">
        <ele>213</ele>
        <time>2011-03-26T15:48:24Z</time>
      </trkpt>
      <trkpt lat="44.05654" lon="2.0632">
        <ele>213</ele>
        <time>2011-03-26T15:48:26Z</time>
      </trkpt>
      <trkpt lat="44.05652" lon="2.06325">
        <ele>213</ele>
        <time>2011-03-26T15:48:28Z</time>
      </trkpt>
      <trkpt lat="44.0565" lon="2.0633">
        <ele>213</ele>
        <time>2011-03-26T15:48:30Z</time>
      </trkpt>
      <trkpt lat="44.05648" lon="2.06335">
        <ele>213</ele>
        <time>2011-03-26T15:48:32Z</time>
      </trkpt>
      <trkpt lat="44.05647" lon="2.06339">
        <ele>213</ele>
        <time>2011-03-26T15:48:33Z</time>
      </trkpt>
      <trkpt lat="44.05646" lon="2.06342">
        <ele>213</ele>
        <time>2011-03-26T15:48:34Z</time>
      </trkpt>
      <trkpt lat="44.05644" lon="2.06345">
        <ele>213</ele>
        <time>2011-03-26T15:48:35Z</time>
      </trkpt>
      <trkpt lat="44.05643" lon="2.06348">
        <ele>213</ele>
        <time>2011-03-26T15:48:36Z</time>
      </trkpt>
      <trkpt lat="44.05641" lon="2.06351">
        <ele>213</ele>
        <time>2011-03-26T15:48:37Z</time>
      </trkpt>
      <trkpt lat="44.0564" lon="2.06354">
        <ele>213</ele>
        <time>2011-03-26T15:48:38Z</time>
      </trkpt>
      <trkpt lat="44.05638" lon="2.06358">
        <ele>213</ele>
        <time>2011-03-26T15:48:39Z</time>
      </trkpt>
      <trkpt lat="44.05637" lon="2.06361">
        <ele>213</ele>
        <time>2011-03-26T15:48:40Z</time>
      </trkpt>
      <trkpt lat="44.05636" lon="2.06364">
        <ele>213</ele>
        <time>2011-03-26T15:48:41Z</time>
      </trkpt>
      <trkpt lat="44.05634" lon="2.06368">
        <ele>213</ele>
        <time>2011-03-26T15:48:42Z</time>
      </trkpt>
      <trkpt lat="44.05633" lon="2.06371">
        <ele>213</ele>
        <time>2011-03-26T15:48:43Z</time>
      </trkpt>
      <trkpt lat="44.05632" lon="2.06375">
        <ele>213</ele>
        <time>2011-03-26T15:48:44Z</time>
      </trkpt>
      <trkpt lat="44.05631" lon="2.06378">
        <ele>210</ele>
        <time>2011-03-26T15:48:45Z</time>
      </trkpt>
      <trkpt lat="44.0563" lon="2.06381">
        <ele>210</ele>
        <time>2011-03-26T15:48:46Z</time>
      </trkpt>
      <trkpt lat="44.05629" lon="2.06384">
        <ele>210</ele>
        <time>2011-03-26T15:48:47Z</time>
      </trkpt>
      <trkpt lat="44.05629" lon="2.06388">
        <ele>210</ele>
        <time>2011-03-26T15:48:48Z</time>
      </trkpt>
      <trkpt lat="44.05628" lon="2.06391">
        <ele>210</ele>
        <time>2011-03-26T15:48:49Z</time>
      </trkpt>
      <trkpt lat="44.05626" lon="2.06396">
        <ele>210</ele>
        <time>2011-03-26T15:48:51Z</time>
      </trkpt>
      <trkpt lat="44.05625" lon="2.06401">
        <ele>225</ele>
        <time>2011-03-26T15:48:53Z</time>
      </trkpt>
      <trkpt lat="44.05623" lon="2.06403">
        <ele>225</ele>
        <time>2011-03-26T15:48:54Z</time>
      </trkpt>
      <trkpt lat="44.05621" lon="2.06406">
        <ele>225</ele>
        <time>2011-03-26T15:48:55Z</time>
      </trkpt>
      <trkpt lat="44.05619" lon="2.06409">
        <ele>225</ele>
        <time>2011-03-26T15:48:56Z</time>
      </trkpt>
      <trkpt lat="44.05616" lon="2.06412">
        <ele>225</ele>
        <time>2011-03-26T15:48:57Z</time>
      </trkpt>
      <trkpt lat="44.05614" lon="2.06414">
        <ele>225</ele>
        <time>2011-03-26T15:48:58Z</time>
      </trkpt>
      <trkpt lat="44.05612" lon="2.06416">
        <ele>225</ele>
        <time>2011-03-26T15:48:59Z</time>
      </trkpt>
      <trkpt lat="44.0561" lon="2.06418">
        <ele>225</ele>
        <time>2011-03-26T15:49:00Z</time>
      </trkpt>
      <trkpt lat="44.05608" lon="2.0642">
        <ele>225</ele>
        <time>2011-03-26T15:49:01Z</time>
      </trkpt>
      <trkpt lat="44.05606" lon="2.06422">
        <ele>225</ele>
        <time>2011-03-26T15:49:02Z</time>
      </trkpt>
      <trkpt lat="44.05604" lon="2.06424">
        <ele>225</ele>
        <time>2011-03-26T15:49:03Z</time>
      </trkpt>
      <trkpt lat="44.05602" lon="2.06426">
        <ele>225</ele>
        <time>2011-03-26T15:49:04Z</time>
      </trkpt>
      <trkpt lat="44.056" lon="2.06429">
        <ele>225</ele>
        <time>2011-03-26T15:49:05Z</time>
      </trkpt>
      <trkpt lat="44.05598" lon="2.06432">
        <ele>225</ele>
        <time>2011-03-26T15:49:06Z</time>
      </trkpt>
      <trkpt lat="44.05595" lon="2.06435">
        <ele>225</ele>
        <time>2011-03-26T15:49:07Z</time>
      </trkpt>
      <trkpt lat="44.05593" lon="2.06438">
        <ele>225</ele>
        <time>2011-03-26T15:49:08Z</time>
      </trkpt>
      <trkpt lat="44.05591" lon="2.06441">
        <ele>225</ele>
        <time>2011-03-26T15:49:09Z</time>
      </trkpt>
      <trkpt lat="44.05588" lon="2.06445">
        <ele>225</ele>
        <time>2011-03-26T15:49:10Z</time>
      </trkpt>
      <trkpt lat="44.05585" lon="2.06449">
        <ele>225</ele>
        <time>2011-03-26T15:49:11Z</time>
      </trkpt>
      <trkpt lat="44.05583" lon="2.06453">
        <ele>225</ele>
        <time>2011-03-26T15:49:12Z</time>
      </trkpt>
      <trkpt lat="44.0558" lon="2.06457">
        <ele>225</ele>
        <time>2011-03-26T15:49:13Z</time>
      </trkpt>
      <trkpt lat="44.05578" lon="2.06462">
        <ele>214</ele>
        <time>2011-03-26T15:49:14Z</time>
      </trkpt>
      <trkpt lat="44.05575" lon="2.06468">
        <ele>214</ele>
        <time>2011-03-26T15:49:15Z</time>
      </trkpt>
      <trkpt lat="44.05573" lon="2.06475">
        <ele>214</ele>
        <time>2011-03-26T15:49:16Z</time>
      </trkpt>
      <trkpt lat="44.05571" lon="2.06481">
        <ele>214</ele>
        <time>2011-03-26T15:49:17Z</time>
      </trkpt>
      <trkpt lat="44.05569" lon="2.06487">
        <ele>214</ele>
        <time>2011-03-26T15:49:18Z</time>
      </trkpt>
      <trkpt lat="44.05567" lon="2.06493">
        <ele>214</ele>
        <time>2011-03-26T15:49:19Z</time>
      </trkpt>
      <trkpt lat="44.05564" lon="2.06499">
        <ele>214</ele>
        <time>2011-03-26T15:49:20Z</time>
      </trkpt>
      <trkpt lat="44.05562" lon="2.06504">
        <ele>214</ele>
        <time>2011-03-26T15:49:21Z</time>
      </trkpt>
      <trkpt lat="44.05559" lon="2.06509">
        <ele>214</ele>
        <time>2011-03-26T15:49:22Z</time>
      </trkpt>
      <trkpt lat="44.05556" lon="2.06515">
        <ele>214</ele>
        <time>2011-03-26T15:49:23Z</time>
      </trkpt>
      <trkpt lat="44.05554" lon="2.0652">
        <ele>214</ele>
        <time>2011-03-26T15:49:24Z</time>
      </trkpt>
      <trkpt lat="44.05551" lon="2.06524">
        <ele>214</ele>
        <time>2011-03-26T15:49:25Z</time>
      </trkpt>
      <trkpt lat="44.05548" lon="2.06529">
        <ele>214</ele>
        <time>2011-03-26T15:49:26Z</time>
      </trkpt>
      <trkpt lat="44.05546" lon="2.06533">
        <ele>214</ele>
        <time>2011-03-26T15:49:27Z</time>
      </trkpt>
      <trkpt lat="44.05542" lon="2.06537">
        <ele>214</ele>
        <time>2011-03-26T15:49:28Z</time>
      </trkpt>
      <trkpt lat="44.05539" lon="2.0654">
        <ele>227</ele>
        <time>2011-03-26T15:49:29Z</time>
      </trkpt>
      <trkpt lat="44.05537" lon="2.06545">
        <ele>217</ele>
        <time>2011-03-26T15:49:30Z</time>
      </trkpt>
      <trkpt lat="44.05534" lon="2.06548">
        <ele>217</ele>
        <time>2011-03-26T15:49:31Z</time>
      </trkpt>
      <trkpt lat="44.05531" lon="2.06552">
        <ele>217</ele>
        <time>2011-03-26T15:49:32Z</time>
      </trkpt>
      <trkpt lat="44.05528" lon="2.06555">
        <ele>217</ele>
        <time>2011-03-26T15:49:33Z</time>
      </trkpt>
      <trkpt lat="44.05525" lon="2.06559">
        <ele>217</ele>
        <time>2011-03-26T15:49:34Z</time>
      </trkpt>
      <trkpt lat="44.05522" lon="2.06563">
        <ele>217</ele>
        <time>2011-03-26T15:49:35Z</time>
      </trkpt>
      <trkpt lat="44.05519" lon="2.06567">
        <ele>217</ele>
        <time>2011-03-26T15:49:36Z</time>
      </trkpt>
      <trkpt lat="44.05515" lon="2.06571">
        <ele>217</ele>
        <time>2011-03-26T15:49:37Z</time>
      </trkpt>
      <trkpt lat="44.05512" lon="2.06575">
        <ele>217</ele>
        <time>2011-03-26T15:49:38Z</time>
      </trkpt>
      <trkpt lat="44.05508" lon="2.06579">
        <ele>217</ele>
        <time>2011-03-26T15:49:39Z</time>
      </trkpt>
      <trkpt lat="44.05504" lon="2.06582">
        <ele>217</ele>
        <time>2011-03-26T15:49:40Z</time>
      </trkpt>
      <trkpt lat="44.05501" lon="2.06586">
        <ele>217</ele>
        <time>2011-03-26T15:49:41Z</time>
      </trkpt>
      <trkpt lat="44.05497" lon="2.0659">
        <ele>217</ele>
        <time>2011-03-26T15:49:42Z</time>
      </trkpt>
      <trkpt lat="44.05494" lon="2.06593">
        <ele>217</ele>
        <time>2011-03-26T15:49:43Z</time>
      </trkpt>
      <trkpt lat="44.05491" lon="2.06596">
        <ele>217</ele>
        <time>2011-03-26T15:49:44Z</time>
      </trkpt>
      <trkpt lat="44.05487" lon="2.066">
        <ele>217</ele>
        <time>2011-03-26T15:49:45Z</time>
      </trkpt>
      <trkpt lat="44.05484" lon="2.06603">
        <ele>217</ele>
        <time>2011-03-26T15:49:46Z</time>
      </trkpt>
      <trkpt lat="44.0548" lon="2.06606">
        <ele>217</ele>
        <time>2011-03-26T15:49:47Z</time>
      </trkpt>
      <trkpt lat="44.05477" lon="2.0661">
        <ele>217</ele>
        <time>2011-03-26T15:49:48Z</time>
      </trkpt>
      <trkpt lat="44.05473" lon="2.06614">
        <ele>217</ele>
        <time>2011-03-26T15:49:49Z</time>
      </trkpt>
      <trkpt lat="44.05471" lon="2.06618">
        <ele>217</ele>
        <time>2011-03-26T15:49:50Z</time>
      </trkpt>
      <trkpt lat="44.05468" lon="2.06622">
        <ele>217</ele>
        <time>2011-03-26T15:49:51Z</time>
      </trkpt>
      <trkpt lat="44.05465" lon="2.06626">
        <ele>213</ele>
        <time>2011-03-26T15:49:52Z</time>
      </trkpt>
      <trkpt lat="44.05462" lon="2.0663">
        <ele>213</ele>
        <time>2011-03-26T15:49:53Z</time>
      </trkpt>
      <trkpt lat="44.05459" lon="2.06635">
        <ele>213</ele>
        <time>2011-03-26T15:49:54Z</time>
      </trkpt>
      <trkpt lat="44.05457" lon="2.06639">
        <ele>224</ele>
        <time>2011-03-26T15:49:55Z</time>
      </trkpt>
      <trkpt lat="44.05454" lon="2.06643">
        <ele>224</ele>
        <time>2011-03-26T15:49:56Z</time>
      </trkpt>
      <trkpt lat="44.05451" lon="2.06647">
        <ele>224</ele>
        <time>2011-03-26T15:49:57Z</time>
      </trkpt>
      <trkpt lat="44.05447" lon="2.06652">
        <ele>224</ele>
        <time>2011-03-26T15:49:58Z</time>
      </trkpt>
      <trkpt lat="44.05444" lon="2.06656">
        <ele>224</ele>
        <time>2011-03-26T15:49:59Z</time>
      </trkpt>
      <trkpt lat="44.0544" lon="2.06661">
        <ele>224</ele>
        <time>2011-03-26T15:50:00Z</time>
      </trkpt>
      <trkpt lat="44.05433" lon="2.06671">
        <ele>224</ele>
        <time>2011-03-26T15:50:02Z</time>
      </trkpt>
      <trkpt lat="44.0543" lon="2.06676">
        <ele>224</ele>
        <time>2011-03-26T15:50:03Z</time>
      </trkpt>
      <trkpt lat="44.05427" lon="2.06682">
        <ele>224</ele>
        <time>2011-03-26T15:50:04Z</time>
      </trkpt>
      <trkpt lat="44.05423" lon="2.06687">
        <ele>224</ele>
        <time>2011-03-26T15:50:05Z</time>
      </trkpt>
      <trkpt lat="44.0542" lon="2.06693">
        <ele>224</ele>
        <time>2011-03-26T15:50:06Z</time>
      </trkpt>
      <trkpt lat="44.05416" lon="2.06697">
        <ele>224</ele>
        <time>2011-03-26T15:50:07Z</time>
      </trkpt>
      <trkpt lat="44.05412" lon="2.06702">
        <ele>224</ele>
        <time>2011-03-26T15:50:08Z</time>
      </trkpt>
      <trkpt lat="44.0541" lon="2.06707">
        <ele>224</ele>
        <time>2011-03-26T15:50:09Z</time>
      </trkpt>
      <trkpt lat="44.05407" lon="2.0671">
        <ele>218</ele>
        <time>2011-03-26T15:50:10Z</time>
      </trkpt>
      <trkpt lat="44.05403" lon="2.06711">
        <ele>218</ele>
        <time>2011-03-26T15:50:11Z</time>
      </trkpt>
      <trkpt lat="44.054" lon="2.06713">
        <ele>218</ele>
        <time>2011-03-26T15:50:12Z</time>
      </trkpt>
      <trkpt lat="44.05396" lon="2.06716">
        <ele>218</ele>
        <time>2011-03-26T15:50:13Z</time>
      </trkpt>
      <trkpt lat="44.05392" lon="2.06718">
        <ele>218</ele>
        <time>2011-03-26T15:50:14Z</time>
      </trkpt>
      <trkpt lat="44.0539" lon="2.06721">
        <ele>218</ele>
        <time>2011-03-26T15:50:15Z</time>
      </trkpt>
      <trkpt lat="44.05386" lon="2.06723">
        <ele>218</ele>
        <time>2011-03-26T15:50:16Z</time>
      </trkpt>
      <trkpt lat="44.05383" lon="2.06726">
        <ele>218</ele>
        <time>2011-03-26T15:50:17Z</time>
      </trkpt>
      <trkpt lat="44.0538" lon="2.06729">
        <ele>218</ele>
        <time>2011-03-26T15:50:18Z</time>
      </trkpt>
      <trkpt lat="44.05376" lon="2.06732">
        <ele>218</ele>
        <time>2011-03-26T15:50:19Z</time>
      </trkpt>
      <trkpt lat="44.05373" lon="2.06736">
        <ele>228</ele>
        <time>2011-03-26T15:50:20Z</time>
      </trkpt>
      <trkpt lat="44.05369" lon="2.06739">
        <ele>228</ele>
        <time>2011-03-26T15:50:21Z</time>
      </trkpt>
      <trkpt lat="44.05365" lon="2.06743">
        <ele>228</ele>
        <time>2011-03-26T15:50:22Z</time>
      </trkpt>
      <trkpt lat="44.05362" lon="2.06747">
        <ele>228</ele>
        <time>2011-03-26T15:50:23Z</time>
      </trkpt>
      <trkpt lat="44.05358" lon="2.06752">
        <ele>228</ele>
        <time>2011-03-26T15:50:24Z</time>
      </trkpt>
      <trkpt lat="44.05355" lon="2.06755">
        <ele>228</ele>
        <time>2011-03-26T15:50:25Z</time>
      </trkpt>
      <trkpt lat="44.05352" lon="2.06758">
        <ele>228</ele>
        <time>2011-03-26T15:50:26Z</time>
      </trkpt>
      <trkpt lat="44.0535" lon="2.06761">
        <ele>228</ele>
        <time>2011-03-26T15:50:27Z</time>
      </trkpt>
      <trkpt lat="44.05347" lon="2.06764">
        <ele>228</ele>
        <time>2011-03-26T15:50:28Z</time>
      </trkpt>
      <trkpt lat="44.05345" lon="2.06766">
        <ele>228</ele>
        <time>2011-03-26T15:50:29Z</time>
      </trkpt>
      <trkpt lat="44.05343" lon="2.06768">
        <ele>228</ele>
        <time>2011-03-26T15:50:30Z</time>
      </trkpt>
      <trkpt lat="44.0534" lon="2.06771">
        <ele>228</ele>
        <time>2011-03-26T15:50:31Z</time>
      </trkpt>
      <trkpt lat="44.05338" lon="2.06773">
        <ele>228</ele>
        <time>2011-03-26T15:50:32Z</time>
      </trkpt>
      <trkpt lat="44.05336" lon="2.06775">
        <ele>228</ele>
        <time>2011-03-26T15:50:33Z</time>
      </trkpt>
      <trkpt lat="44.05333" lon="2.06777">
        <ele>228</ele>
        <time>2011-03-26T15:50:34Z</time>
      </trkpt>
      <trkpt lat="44.05331" lon="2.06779">
        <ele>228</ele>
        <time>2011-03-26T15:50:35Z</time>
      </trkpt>
      <trkpt lat="44.05329" lon="2.06781">
        <ele>228</ele>
        <time>2011-03-26T15:50:36Z</time>
      </trkpt>
      <trkpt lat="44.05326" lon="2.06783">
        <ele>228</ele>
        <time>2011-03-26T15:50:37Z</time>
      </trkpt>
      <trkpt lat="44.05324" lon="2.06785">
        <ele>228</ele>
        <time>2011-03-26T15:50:38Z</time>
      </trkpt>
      <trkpt lat="44.05322" lon="2.06788">
        <ele>228</ele>
        <time>2011-03-26T15:50:39Z</time>
      </trkpt>
      <trkpt lat="44.0532" lon="2.0679">
        <ele>228</ele>
        <time>2011-03-26T15:50:40Z</time>
      </trkpt>
      <trkpt lat="44.05318" lon="2.06792">
        <ele>220</ele>
        <time>2011-03-26T15:50:41Z</time>
      </trkpt>
      <trkpt lat="44.05316" lon="2.06794">
        <ele>220</ele>
        <time>2011-03-26T15:50:42Z</time>
      </trkpt>
      <trkpt lat="44.05313" lon="2.06798">
        <ele>220</ele>
        <time>2011-03-26T15:50:44Z</time>
      </trkpt>
      <trkpt lat="44.0531" lon="2.06802">
        <ele>220</ele>
        <time>2011-03-26T15:50:46Z</time>
      </trkpt>
      <trkpt lat="44.05309" lon="2.06805">
        <ele>220</ele>
        <time>2011-03-26T15:50:47Z</time>
      </trkpt>
      <trkpt lat="44.05307" lon="2.06808">
        <ele>220</ele>
        <time>2011-03-26T15:50:48Z</time>
      </trkpt>
      <trkpt lat="44.05305" lon="2.06811">
        <ele>220</ele>
        <time>2011-03-26T15:50:49Z</time>
      </trkpt>
      <trkpt lat="44.05303" lon="2.06814">
        <ele>220</ele>
        <time>2011-03-26T15:50:50Z</time>
      </trkpt>
      <trkpt lat="44.05302" lon="2.06817">
        <ele>220</ele>
        <time>2011-03-26T15:50:51Z</time>
      </trkpt>
      <trkpt lat="44.05301" lon="2.06821">
        <ele>220</ele>
        <time>2011-03-26T15:50:52Z</time>
      </trkpt>
      <trkpt lat="44.05299" lon="2.06824">
        <ele>220</ele>
        <time>2011-03-26T15:50:53Z</time>
      </trkpt>
      <trkpt lat="44.05298" lon="2.06827">
        <ele>220</ele>
        <time>2011-03-26T15:50:54Z</time>
      </trkpt>
      <trkpt lat="44.05294" lon="2.0683">
        <ele>220</ele>
        <time>2011-03-26T15:50:56Z</time>
      </trkpt>
      <trkpt lat="44.05292" lon="2.06832">
        <ele>220</ele>
        <time>2011-03-26T15:50:57Z</time>
      </trkpt>
      <trkpt lat="44.05291" lon="2.06834">
        <ele>232</ele>
        <time>2011-03-26T15:50:58Z</time>
      </trkpt>
      <trkpt lat="44.05287" lon="2.06838">
        <ele>232</ele>
        <time>2011-03-26T15:51:00Z</time>
      </trkpt>
      <trkpt lat="44.05284" lon="2.06842">
        <ele>232</ele>
        <time>2011-03-26T15:51:02Z</time>
      </trkpt>
      <trkpt lat="44.05281" lon="2.06845">
        <ele>232</ele>
        <time>2011-03-26T15:51:04Z</time>
      </trkpt>
      <trkpt lat="44.05278" lon="2.06849">
        <ele>232</ele>
        <time>2011-03-26T15:51:06Z</time>
      </trkpt>
      <trkpt lat="44.05277" lon="2.0685">
        <ele>232</ele>
        <time>2011-03-26T15:51:07Z</time>
      </trkpt>
      <trkpt lat="44.05275" lon="2.06853">
        <ele>232</ele>
        <time>2011-03-26T15:51:09Z</time>
      </trkpt>
      <trkpt lat="44.05273" lon="2.06856">
        <ele>232</ele>
        <time>2011-03-26T15:51:10Z</time>
      </trkpt>
      <trkpt lat="44.05272" lon="2.0686">
        <ele>232</ele>
        <time>2011-03-26T15:51:11Z</time>
      </trkpt>
      <trkpt lat="44.0527" lon="2.06863">
        <ele>232</ele>
        <time>2011-03-26T15:51:12Z</time>
      </trkpt>
      <trkpt lat="44.05268" lon="2.06866">
        <ele>232</ele>
        <time>2011-03-26T15:51:13Z</time>
      </trkpt>
      <trkpt lat="44.05266" lon="2.06869">
        <ele>232</ele>
        <time>2011-03-26T15:51:14Z</time>
      </trkpt>
      <trkpt lat="44.05264" lon="2.06872">
        <ele>232</ele>
        <time>2011-03-26T15:51:15Z</time>
      </trkpt>
      <trkpt lat="44.05262" lon="2.06876">
        <ele>226</ele>
        <time>2011-03-26T15:51:16Z</time>
      </trkpt>
      <trkpt lat="44.05259" lon="2.06879">
        <ele>226</ele>
        <time>2011-03-26T15:51:17Z</time>
      </trkpt>
      <trkpt lat="44.05257" lon="2.06883">
        <ele>226</ele>
        <time>2011-03-26T15:51:18Z</time>
      </trkpt>
      <trkpt lat="44.05254" lon="2.06886">
        <ele>226</ele>
        <time>2011-03-26T15:51:19Z</time>
      </trkpt>
      <trkpt lat="44.05252" lon="2.06889">
        <ele>226</ele>
        <time>2011-03-26T15:51:20Z</time>
      </trkpt>
      <trkpt lat="44.0525" lon="2.06893">
        <ele>226</ele>
        <time>2011-03-26T15:51:21Z</time>
      </trkpt>
      <trkpt lat="44.05248" lon="2.06897">
        <ele>226</ele>
        <time>2011-03-26T15:51:22Z</time>
      </trkpt>
      <trkpt lat="44.05246" lon="2.069">
        <ele>226</ele>
        <time>2011-03-26T15:51:23Z</time>
      </trkpt>
      <trkpt lat="44.05245" lon="2.06904">
        <ele>226</ele>
        <time>2011-03-26T15:51:24Z</time>
      </trkpt>
      <trkpt lat="44.05243" lon="2.06907">
        <ele>226</ele>
        <time>2011-03-26T15:51:25Z</time>
      </trkpt>
      <trkpt lat="44.05242" lon="2.0691">
        <ele>226</ele>
        <time>2011-03-26T15:51:26Z</time>
      </trkpt>
      <trkpt lat="44.05239" lon="2.06913">
        <ele>226</ele>
        <time>2011-03-26T15:51:28Z</time>
      </trkpt>
      <trkpt lat="44.05236" lon="2.06916">
        <ele>226</ele>
        <time>2011-03-26T15:51:30Z</time>
      </trkpt>
      <trkpt lat="44.05232" lon="2.06919">
        <ele>226</ele>
        <time>2011-03-26T15:51:32Z</time>
      </trkpt>
      <trkpt lat="44.05229" lon="2.06922">
        <ele>226</ele>
        <time>2011-03-26T15:51:33Z</time>
      </trkpt>
      <trkpt lat="44.05227" lon="2.06924">
        <ele>226</ele>
        <time>2011-03-26T15:51:34Z</time>
      </trkpt>
      <trkpt lat="44.05224" lon="2.06927">
        <ele>226</ele>
        <time>2011-03-26T15:51:35Z</time>
      </trkpt>
      <trkpt lat="44.05222" lon="2.06931">
        <ele>226</ele>
        <time>2011-03-26T15:51:36Z</time>
      </trkpt>
      <trkpt lat="44.0522" lon="2.06934">
        <ele>226</ele>
        <time>2011-03-26T15:51:37Z</time>
      </trkpt>
      <trkpt lat="44.05218" lon="2.06939">
        <ele>226</ele>
        <time>2011-03-26T15:51:38Z</time>
      </trkpt>
      <trkpt lat="44.05216" lon="2.06943">
        <ele>226</ele>
        <time>2011-03-26T15:51:39Z</time>
      </trkpt>
      <trkpt lat="44.05214" lon="2.06948">
        <ele>226</ele>
        <time>2011-03-26T15:51:40Z</time>
      </trkpt>
      <trkpt lat="44.05211" lon="2.06952">
        <ele>226</ele>
        <time>2011-03-26T15:51:41Z</time>
      </trkpt>
      <trkpt lat="44.05209" lon="2.06956">
        <ele>226</ele>
        <time>2011-03-26T15:51:42Z</time>
      </trkpt>
      <trkpt lat="44.05207" lon="2.0696">
        <ele>234</ele>
        <time>2011-03-26T15:51:43Z</time>
      </trkpt>
      <trkpt lat="44.05204" lon="2.06963">
        <ele>234</ele>
        <time>2011-03-26T15:51:44Z</time>
      </trkpt>
      <trkpt lat="44.05202" lon="2.06967">
        <ele>234</ele>
        <time>2011-03-26T15:51:45Z</time>
      </trkpt>
      <trkpt lat="44.05199" lon="2.0697">
        <ele>234</ele>
        <time>2011-03-26T15:51:46Z</time>
      </trkpt>
      <trkpt lat="44.05197" lon="2.06973">
        <ele>234</ele>
        <time>2011-03-26T15:51:47Z</time>
      </trkpt>
      <trkpt lat="44.05194" lon="2.06976">
        <ele>234</ele>
        <time>2011-03-26T15:51:48Z</time>
      </trkpt>
      <trkpt lat="44.05192" lon="2.06978">
        <ele>234</ele>
        <time>2011-03-26T15:51:49Z</time>
      </trkpt>
      <trkpt lat="44.05189" lon="2.06982">
        <ele>234</ele>
        <time>2011-03-26T15:51:50Z</time>
      </trkpt>
      <trkpt lat="44.05187" lon="2.06985">
        <ele>234</ele>
        <time>2011-03-26T15:51:51Z</time>
      </trkpt>
      <trkpt lat="44.05185" lon="2.06991">
        <ele>234</ele>
        <time>2011-03-26T15:51:53Z</time>
      </trkpt>
      <trkpt lat="44.05184" lon="2.06995">
        <ele>234</ele>
        <time>2011-03-26T15:51:54Z</time>
      </trkpt>
      <trkpt lat="44.05182" lon="2.06998">
        <ele>234</ele>
        <time>2011-03-26T15:51:55Z</time>
      </trkpt>
      <trkpt lat="44.05181" lon="2.07002">
        <ele>234</ele>
        <time>2011-03-26T15:51:56Z</time>
      </trkpt>
      <trkpt lat="44.0518" lon="2.07006">
        <ele>234</ele>
        <time>2011-03-26T15:51:57Z</time>
      </trkpt>
      <trkpt lat="44.05179" lon="2.07011">
        <ele>234</ele>
        <time>2011-03-26T15:51:58Z</time>
      </trkpt>
      <trkpt lat="44.0518" lon="2.07015">
        <ele>234</ele>
        <time>2011-03-26T15:51:59Z</time>
      </trkpt>
      <trkpt lat="44.05183" lon="2.07019">
        <ele>234</ele>
        <time>2011-03-26T15:52:01Z</time>
      </trkpt>
      <trkpt lat="44.05185" lon="2.07021">
        <ele>234</ele>
        <time>2011-03-26T15:52:02Z</time>
      </trkpt>
      <trkpt lat="44.05188" lon="2.07025">
        <ele>234</ele>
        <time>2011-03-26T15:52:04Z</time>
      </trkpt>
      <trkpt lat="44.0519" lon="2.07027">
        <ele>234</ele>
        <time>2011-03-26T15:52:05Z</time>
      </trkpt>
      <trkpt lat="44.05191" lon="2.0703">
        <ele>234</ele>
        <time>2011-03-26T15:52:06Z</time>
      </trkpt>
      <trkpt lat="44.05194" lon="2.07033">
        <ele>234</ele>
        <time>2011-03-26T15:52:07Z</time>
      </trkpt>
      <trkpt lat="44.05196" lon="2.07037">
        <ele>234</ele>
        <time>2011-03-26T15:52:08Z</time>
      </trkpt>
      <trkpt lat="44.05199" lon="2.07042">
        <ele>234</ele>
        <time>2011-03-26T15:52:09Z</time>
      </trkpt>
      <trkpt lat="44.05202" lon="2.07047">
        <ele>227</ele>
        <time>2011-03-26T15:52:10Z</time>
      </trkpt>
      <trkpt lat="44.05205" lon="2.07052">
        <ele>227</ele>
        <time>2011-03-26T15:52:11Z</time>
      </trkpt>
      <trkpt lat="44.05208" lon="2.07057">
        <ele>227</ele>
        <time>2011-03-26T15:52:12Z</time>
      </trkpt>
      <trkpt lat="44.0521" lon="2.07062">
        <ele>214</ele>
        <time>2011-03-26T15:52:13Z</time>
      </trkpt>
      <trkpt lat="44.05213" lon="2.07067">
        <ele>214</ele>
        <time>2011-03-26T15:52:14Z</time>
      </trkpt>
      <trkpt lat="44.05215" lon="2.07071">
        <ele>214</ele>
        <time>2011-03-26T15:52:15Z</time>
      </trkpt>
      <trkpt lat="44.05217" lon="2.07076">
        <ele>214</ele>
        <time>2011-03-26T15:52:16Z</time>
      </trkpt>
      <trkpt lat="44.05219" lon="2.0708">
        <ele>214</ele>
        <time>2011-03-26T15:52:17Z</time>
      </trkpt>
      <trkpt lat="44.05222" lon="2.07083">
        <ele>214</ele>
        <time>2011-03-26T15:52:18Z</time>
      </trkpt>
      <trkpt lat="44.05224" lon="2.07087">
        <ele>214</ele>
        <time>2011-03-26T15:52:19Z</time>
      </trkpt>
      <trkpt lat="44.05226" lon="2.07091">
        <ele>214</ele>
        <time>2011-03-26T15:52:20Z</time>
      </trkpt>
      <trkpt lat="44.05228" lon="2.07094">
        <ele>214</ele>
        <time>2011-03-26T15:52:21Z</time>
      </trkpt>
      <trkpt lat="44.0523" lon="2.07098">
        <ele>214</ele>
        <time>2011-03-26T15:52:22Z</time>
      </trkpt>
      <trkpt lat="44.05232" lon="2.07101">
        <ele>214</ele>
        <time>2011-03-26T15:52:23Z</time>
      </trkpt>
      <trkpt lat="44.05234" lon="2.07105">
        <ele>214</ele>
        <time>2011-03-26T15:52:24Z</time>
      </trkpt>
      <trkpt lat="44.05237" lon="2.07109">
        <ele>214</ele>
        <time>2011-03-26T15:52:25Z</time>
      </trkpt>
      <trkpt lat="44.05239" lon="2.07112">
        <ele>214</ele>
        <time>2011-03-26T15:52:26Z</time>
      </trkpt>
      <trkpt lat="44.05242" lon="2.07115">
        <ele>214</ele>
        <time>2011-03-26T15:52:27Z</time>
      </trkpt>
      <trkpt lat="44.05244" lon="2.07118">
        <ele>214</ele>
        <time>2011-03-26T15:52:28Z</time>
      </trkpt>
      <trkpt lat="44.05246" lon="2.07123">
        <ele>214</ele>
        <time>2011-03-26T15:52:30Z</time>
      </trkpt>
      <trkpt lat="44.05248" lon="2.07129">
        <ele>216</ele>
        <time>2011-03-26T15:52:32Z</time>
      </trkpt>
      <trkpt lat="44.05249" lon="2.07132">
        <ele>216</ele>
        <time>2011-03-26T15:52:33Z</time>
      </trkpt>
      <trkpt lat="44.0525" lon="2.07135">
        <ele>216</ele>
        <time>2011-03-26T15:52:34Z</time>
      </trkpt>
      <trkpt lat="44.0525" lon="2.07138">
        <ele>216</ele>
        <time>2011-03-26T15:52:35Z</time>
      </trkpt>
      <trkpt lat="44.05252" lon="2.07144">
        <ele>216</ele>
        <time>2011-03-26T15:52:37Z</time>
      </trkpt>
      <trkpt lat="44.05253" lon="2.07147">
        <ele>216</ele>
        <time>2011-03-26T15:52:38Z</time>
      </trkpt>
      <trkpt lat="44.05254" lon="2.0715">
        <ele>216</ele>
        <time>2011-03-26T15:52:39Z</time>
      </trkpt>
      <trkpt lat="44.05254" lon="2.07154">
        <ele>216</ele>
        <time>2011-03-26T15:52:40Z</time>
      </trkpt>
      <trkpt lat="44.05254" lon="2.07157">
        <ele>216</ele>
        <time>2011-03-26T15:52:41Z</time>
      </trkpt>
      <trkpt lat="44.05255" lon="2.07161">
        <ele>216</ele>
        <time>2011-03-26T15:52:42Z</time>
      </trkpt>
      <trkpt lat="44.05256" lon="2.07165">
        <ele>216</ele>
        <time>2011-03-26T15:52:43Z</time>
      </trkpt>
      <trkpt lat="44.05257" lon="2.0717">
        <ele>216</ele>
        <time>2011-03-26T15:52:44Z</time>
      </trkpt>
      <trkpt lat="44.05258" lon="2.07175">
        <ele>216</ele>
        <time>2011-03-26T15:52:45Z</time>
      </trkpt>
      <trkpt lat="44.0526" lon="2.07179">
        <ele>216</ele>
        <time>2011-03-26T15:52:46Z</time>
      </trkpt>
      <trkpt lat="44.05261" lon="2.07183">
        <ele>216</ele>
        <time>2011-03-26T15:52:47Z</time>
      </trkpt>
      <trkpt lat="44.05262" lon="2.07187">
        <ele>216</ele>
        <time>2011-03-26T15:52:48Z</time>
      </trkpt>
      <trkpt lat="44.05264" lon="2.07191">
        <ele>216</ele>
        <time>2011-03-26T15:52:49Z</time>
      </trkpt>
      <trkpt lat="44.05265" lon="2.07195">
        <ele>216</ele>
        <time>2011-03-26T15:52:50Z</time>
      </trkpt>
      <trkpt lat="44.05267" lon="2.07198">
        <ele>216</ele>
        <time>2011-03-26T15:52:51Z</time>
      </trkpt>
      <trkpt lat="44.05268" lon="2.07202">
        <ele>216</ele>
        <time>2011-03-26T15:52:52Z</time>
      </trkpt>
      <trkpt lat="44.0527" lon="2.07205">
        <ele>216</ele>
        <time>2011-03-26T15:52:53Z</time>
      </trkpt>
      <trkpt lat="44.05272" lon="2.07209">
        <ele>216</ele>
        <time>2011-03-26T15:52:54Z</time>
      </trkpt>
      <trkpt lat="44.05274" lon="2.07212">
        <ele>216</ele>
        <time>2011-03-26T15:52:55Z</time>
      </trkpt>
      <trkpt lat="44.05276" lon="2.07216">
        <ele>216</ele>
        <time>2011-03-26T15:52:56Z</time>
      </trkpt>
      <trkpt lat="44.05278" lon="2.07219">
        <ele>216</ele>
        <time>2011-03-26T15:52:57Z</time>
      </trkpt>
      <trkpt lat="44.0528" lon="2.07223">
        <ele>216</ele>
        <time>2011-03-26T15:52:58Z</time>
      </trkpt>
      <trkpt lat="44.05282" lon="2.07226">
        <ele>216</ele>
        <time>2011-03-26T15:52:59Z</time>
      </trkpt>
      <trkpt lat="44.05284" lon="2.0723">
        <ele>216</ele>
        <time>2011-03-26T15:53:00Z</time>
      </trkpt>
      <trkpt lat="44.05286" lon="2.07232">
        <ele>216</ele>
        <time>2011-03-26T15:53:01Z</time>
      </trkpt>
      <trkpt lat="44.05288" lon="2.07234">
        <ele>216</ele>
        <time>2011-03-26T15:53:02Z</time>
      </trkpt>
      <trkpt lat="44.0529" lon="2.07236">
        <ele>216</ele>
        <time>2011-03-26T15:53:03Z</time>
      </trkpt>
      <trkpt lat="44.05291" lon="2.07239">
        <ele>216</ele>
        <time>2011-03-26T15:53:04Z</time>
      </trkpt>
      <trkpt lat="44.05294" lon="2.0724">
        <ele>220</ele>
        <time>2011-03-26T15:53:05Z</time>
      </trkpt>
      <trkpt lat="44.05296" lon="2.07242">
        <ele>220</ele>
        <time>2011-03-26T15:53:06Z</time>
      </trkpt>
      <trkpt lat="44.05298" lon="2.07244">
        <ele>220</ele>
        <time>2011-03-26T15:53:07Z</time>
      </trkpt>
      <trkpt lat="44.05301" lon="2.07246">
        <ele>220</ele>
        <time>2011-03-26T15:53:08Z</time>
      </trkpt>
      <trkpt lat="44.05303" lon="2.07247">
        <ele>220</ele>
        <time>2011-03-26T15:53:09Z</time>
      </trkpt>
      <trkpt lat="44.05305" lon="2.07249">
        <ele>220</ele>
        <time>2011-03-26T15:53:10Z</time>
      </trkpt>
      <trkpt lat="44.05308" lon="2.07251">
        <ele>220</ele>
        <time>2011-03-26T15:53:11Z</time>
      </trkpt>
      <trkpt lat="44.0531" lon="2.07253">
        <ele>220</ele>
        <time>2011-03-26T15:53:12Z</time>
      </trkpt>
      <trkpt lat="44.05312" lon="2.07254">
        <ele>220</ele>
        <time>2011-03-26T15:53:13Z</time>
      </trkpt>
      <trkpt lat="44.05314" lon="2.07256">
        <ele>220</ele>
        <time>2011-03-26T15:53:14Z</time>
      </trkpt>
      <trkpt lat="44.05317" lon="2.07258">
        <ele>220</ele>
        <time>2011-03-26T15:53:15Z</time>
      </trkpt>
      <trkpt lat="44.0532" lon="2.0726">
        <ele>220</ele>
        <time>2011-03-26T15:53:16Z</time>
      </trkpt>
      <trkpt lat="44.05323" lon="2.07263">
        <ele>220</ele>
        <time>2011-03-26T15:53:17Z</time>
      </trkpt>
      <trkpt lat="44.05325" lon="2.07265">
        <ele>220</ele>
        <time>2011-03-26T15:53:18Z</time>
      </trkpt>
      <trkpt lat="44.05328" lon="2.07267">
        <ele>220</ele>
        <time>2011-03-26T15:53:19Z</time>
      </trkpt>
      <trkpt lat="44.05331" lon="2.07268">
        <ele>220</ele>
        <time>2011-03-26T15:53:20Z</time>
      </trkpt>
      <trkpt lat="44.05334" lon="2.07269">
        <ele>220</ele>
        <time>2011-03-26T15:53:21Z</time>
      </trkpt>
      <trkpt lat="44.05337" lon="2.0727">
        <ele>220</ele>
        <time>2011-03-26T15:53:22Z</time>
      </trkpt>
      <trkpt lat="44.05339" lon="2.07272">
        <ele>220</ele>
        <time>2011-03-26T15:53:23Z</time>
      </trkpt>
      <trkpt lat="44.05342" lon="2.07273">
        <ele>220</ele>
        <time>2011-03-26T15:53:24Z</time>
      </trkpt>
      <trkpt lat="44.05344" lon="2.07274">
        <ele>220</ele>
        <time>2011-03-26T15:53:25Z</time>
      </trkpt>
      <trkpt lat="44.05346" lon="2.07275">
        <ele>220</ele>
        <time>2011-03-26T15:53:26Z</time>
      </trkpt>
      <trkpt lat="44.05348" lon="2.07277">
        <ele>220</ele>
        <time>2011-03-26T15:53:27Z</time>
      </trkpt>
      <trkpt lat="44.0535" lon="2.07279">
        <ele>220</ele>
        <time>2011-03-26T15:53:28Z</time>
      </trkpt>
      <trkpt lat="44.05352" lon="2.07282">
        <ele>220</ele>
        <time>2011-03-26T15:53:29Z</time>
      </trkpt>
      <trkpt lat="44.05353" lon="2.07285">
        <ele>220</ele>
        <time>2011-03-26T15:53:30Z</time>
      </trkpt>
      <trkpt lat="44.05354" lon="2.0729">
        <ele>220</ele>
        <time>2011-03-26T15:53:32Z</time>
      </trkpt>
      <trkpt lat="44.05355" lon="2.07294">
        <ele>227</ele>
        <time>2011-03-26T15:53:34Z</time>
      </trkpt>
      <trkpt lat="44.05355" lon="2.07298">
        <ele>227</ele>
        <time>2011-03-26T15:53:36Z</time>
      </trkpt>
      <trkpt lat="44.05354" lon="2.07301">
        <ele>227</ele>
        <time>2011-03-26T15:53:38Z</time>
      </trkpt>
      <trkpt lat="44.05353" lon="2.07305">
        <ele>227</ele>
        <time>2011-03-26T15:53:40Z</time>
      </trkpt>
      <trkpt lat="44.05352" lon="2.07309">
        <ele>227</ele>
        <time>2011-03-26T15:53:42Z</time>
      </trkpt>
      <trkpt lat="44.0535" lon="2.07312">
        <ele>227</ele>
        <time>2011-03-26T15:53:44Z</time>
      </trkpt>
      <trkpt lat="44.05348" lon="2.07316">
        <ele>227</ele>
        <time>2011-03-26T15:53:46Z</time>
      </trkpt>
      <trkpt lat="44.05346" lon="2.07321">
        <ele>227</ele>
        <time>2011-03-26T15:53:48Z</time>
      </trkpt>
      <trkpt lat="44.05345" lon="2.07326">
        <ele>227</ele>
        <time>2011-03-26T15:53:50Z</time>
      </trkpt>
      <trkpt lat="44.05344" lon="2.0733">
        <ele>227</ele>
        <time>2011-03-26T15:53:52Z</time>
      </trkpt>
      <trkpt lat="44.05343" lon="2.07334">
        <ele>227</ele>
        <time>2011-03-26T15:53:54Z</time>
      </trkpt>
      <trkpt lat="44.05342" lon="2.07337">
        <ele>227</ele>
        <time>2011-03-26T15:53:56Z</time>
      </trkpt>
      <trkpt lat="44.05341" lon="2.07339">
        <ele>227</ele>
        <time>2011-03-26T15:53:57Z</time>
      </trkpt>
      <trkpt lat="44.05339" lon="2.07343">
        <ele>227</ele>
        <time>2011-03-26T15:53:59Z</time>
      </trkpt>
      <trkpt lat="44.05338" lon="2.07347">
        <ele>227</ele>
        <time>2011-03-26T15:54:01Z</time>
      </trkpt>
      <trkpt lat="44.05336" lon="2.07352">
        <ele>227</ele>
        <time>2011-03-26T15:54:03Z</time>
      </trkpt>
      <trkpt lat="44.05335" lon="2.07357">
        <ele>227</ele>
        <time>2011-03-26T15:54:05Z</time>
      </trkpt>
      <trkpt lat="44.05333" lon="2.07362">
        <ele>227</ele>
        <time>2011-03-26T15:54:07Z</time>
      </trkpt>
      <trkpt lat="44.05332" lon="2.07366">
        <ele>227</ele>
        <time>2011-03-26T15:54:09Z</time>
      </trkpt>
      <trkpt lat="44.05331" lon="2.0737">
        <ele>227</ele>
        <time>2011-03-26T15:54:11Z</time>
      </trkpt>
      <trkpt lat="44.0533" lon="2.07374">
        <ele>227</ele>
        <time>2011-03-26T15:54:13Z</time>
      </trkpt>
      <trkpt lat="44.05329" lon="2.07378">
        <ele>238</ele>
        <time>2011-03-26T15:54:15Z</time>
      </trkpt>
      <trkpt lat="44.05328" lon="2.07382">
        <ele>238</ele>
        <time>2011-03-26T15:54:17Z</time>
      </trkpt>
      <trkpt lat="44.05327" lon="2.07386">
        <ele>238</ele>
        <time>2011-03-26T15:54:19Z</time>
      </trkpt>
      <trkpt lat="44.05326" lon="2.0739">
        <ele>238</ele>
        <time>2011-03-26T15:54:21Z</time>
      </trkpt>
      <trkpt lat="44.05326" lon="2.07392">
        <ele>238</ele>
        <time>2011-03-26T15:54:22Z</time>
      </trkpt>
      <trkpt lat="44.05326" lon="2.07397">
        <ele>238</ele>
        <time>2011-03-26T15:54:24Z</time>
      </trkpt>
      <trkpt lat="44.05326" lon="2.07402">
        <ele>238</ele>
        <time>2011-03-26T15:54:26Z</time>
      </trkpt>
      <trkpt lat="44.05327" lon="2.07407">
        <ele>238</ele>
        <time>2011-03-26T15:54:28Z</time>
      </trkpt>
      <trkpt lat="44.05327" lon="2.0741">
        <ele>238</ele>
        <time>2011-03-26T15:54:29Z</time>
      </trkpt>
      <trkpt lat="44.05328" lon="2.07413">
        <ele>238</ele>
        <time>2011-03-26T15:54:30Z</time>
      </trkpt>
      <trkpt lat="44.05329" lon="2.07418">
        <ele>238</ele>
        <time>2011-03-26T15:54:32Z</time>
      </trkpt>
      <trkpt lat="44.05329" lon="2.07423">
        <ele>238</ele>
        <time>2011-03-26T15:54:34Z</time>
      </trkpt>
      <trkpt lat="44.05328" lon="2.07428">
        <ele>238</ele>
        <time>2011-03-26T15:54:36Z</time>
      </trkpt>
      <trkpt lat="44.05328" lon="2.0743">
        <ele>238</ele>
        <time>2011-03-26T15:54:37Z</time>
      </trkpt>
      <trkpt lat="44.05329" lon="2.07435">
        <ele>238</ele>
        <time>2011-03-26T15:54:39Z</time>
      </trkpt>
      <trkpt lat="44.05329" lon="2.07439">
        <ele>238</ele>
        <time>2011-03-26T15:54:41Z</time>
      </trkpt>
      <trkpt lat="44.05329" lon="2.07443">
        <ele>238</ele>
        <time>2011-03-26T15:54:43Z</time>
      </trkpt>
      <trkpt lat="44.05329" lon="2.07447">
        <ele>238</ele>
        <time>2011-03-26T15:54:45Z</time>
      </trkpt>
      <trkpt lat="44.05329" lon="2.07451">
        <ele>238</ele>
        <time>2011-03-26T15:54:46Z</time>
      </trkpt>
      <trkpt lat="44.05329" lon="2.07454">
        <ele>238</ele>
        <time>2011-03-26T15:54:47Z</time>
      </trkpt>
      <trkpt lat="44.05329" lon="2.07458">
        <ele>238</ele>
        <time>2011-03-26T15:54:48Z</time>
      </trkpt>
      <trkpt lat="44.0533" lon="2.07461">
        <ele>249</ele>
        <time>2011-03-26T15:54:49Z</time>
      </trkpt>
      <trkpt lat="44.0533" lon="2.07465">
        <ele>249</ele>
        <time>2011-03-26T15:54:50Z</time>
      </trkpt>
      <trkpt lat="44.0533" lon="2.07469">
        <ele>249</ele>
        <time>2011-03-26T15:54:51Z</time>
      </trkpt>
      <trkpt lat="44.0533" lon="2.07475">
        <ele>249</ele>
        <time>2011-03-26T15:54:53Z</time>
      </trkpt>
      <trkpt lat="44.0533" lon="2.0748">
        <ele>249</ele>
        <time>2011-03-26T15:54:55Z</time>
      </trkpt>
      <trkpt lat="44.0533" lon="2.07486">
        <ele>249</ele>
        <time>2011-03-26T15:54:57Z</time>
      </trkpt>
      <trkpt lat="44.0533" lon="2.07489">
        <ele>249</ele>
        <time>2011-03-26T15:54:58Z</time>
      </trkpt>
      <trkpt lat="44.0533" lon="2.07493">
        <ele>249</ele>
        <time>2011-03-26T15:55:00Z</time>
      </trkpt>
      <trkpt lat="44.0533" lon="2.07496">
        <ele>249</ele>
        <time>2011-03-26T15:55:02Z</time>
      </trkpt>
      <trkpt lat="44.05329" lon="2.075">
        <ele>249</ele>
        <time>2011-03-26T15:55:05Z</time>
      </trkpt>
      <trkpt lat="44.05328" lon="2.07503">
        <ele>249</ele>
        <time>2011-03-26T15:55:07Z</time>
      </trkpt>
      <trkpt lat="44.05326" lon="2.07507">
        <ele>249</ele>
        <time>2011-03-26T15:55:09Z</time>
      </trkpt>
      <trkpt lat="44.05324" lon="2.0751">
        <ele>249</ele>
        <time>2011-03-26T15:55:11Z</time>
      </trkpt>
      <trkpt lat="44.05321" lon="2.07512">
        <ele>249</ele>
        <time>2011-03-26T15:55:13Z</time>
      </trkpt>
      <trkpt lat="44.05318" lon="2.07514">
        <ele>249</ele>
        <time>2011-03-26T15:55:15Z</time>
      </trkpt>
      <trkpt lat="44.05315" lon="2.07517">
        <ele>249</ele>
        <time>2011-03-26T15:55:17Z</time>
      </trkpt>
      <trkpt lat="44.05313" lon="2.0752">
        <ele>249</ele>
        <time>2011-03-26T15:55:18Z</time>
      </trkpt>
      <trkpt lat="44.05311" lon="2.07523">
        <ele>249</ele>
        <time>2011-03-26T15:55:19Z</time>
      </trkpt>
      <trkpt lat="44.05309" lon="2.07525">
        <ele>249</ele>
        <time>2011-03-26T15:55:20Z</time>
      </trkpt>
      <trkpt lat="44.05307" lon="2.07528">
        <ele>249</ele>
        <time>2011-03-26T15:55:21Z</time>
      </trkpt>
      <trkpt lat="44.05306" lon="2.0753">
        <ele>249</ele>
        <time>2011-03-26T15:55:22Z</time>
      </trkpt>
      <trkpt lat="44.05302" lon="2.07533">
        <ele>249</ele>
        <time>2011-03-26T15:55:24Z</time>
      </trkpt>
      <trkpt lat="44.05299" lon="2.07535">
        <ele>249</ele>
        <time>2011-03-26T15:55:26Z</time>
      </trkpt>
      <trkpt lat="44.05296" lon="2.07536">
        <ele>249</ele>
        <time>2011-03-26T15:55:28Z</time>
      </trkpt>
      <trkpt lat="44.05293" lon="2.07537">
        <ele>249</ele>
        <time>2011-03-26T15:55:30Z</time>
      </trkpt>
      <trkpt lat="44.0529" lon="2.07537">
        <ele>238</ele>
        <time>2011-03-26T15:55:32Z</time>
      </trkpt>
      <trkpt lat="44.05288" lon="2.07537">
        <ele>238</ele>
        <time>2011-03-26T15:55:33Z</time>
      </trkpt>
      <trkpt lat="44.05284" lon="2.07537">
        <ele>238</ele>
        <time>2011-03-26T15:55:35Z</time>
      </trkpt>
      <trkpt lat="44.05281" lon="2.07539">
        <ele>238</ele>
        <time>2011-03-26T15:55:37Z</time>
      </trkpt>
      <trkpt lat="44.05278" lon="2.0754">
        <ele>238</ele>
        <time>2011-03-26T15:55:39Z</time>
      </trkpt>
      <trkpt lat="44.05278" lon="2.07543">
        <ele>256</ele>
        <time>2011-03-26T15:55:41Z</time>
      </trkpt>
      <trkpt lat="44.05279" lon="2.07547">
        <ele>256</ele>
        <time>2011-03-26T15:55:43Z</time>
      </trkpt>
      <trkpt lat="44.05281" lon="2.0755">
        <ele>256</ele>
        <time>2011-03-26T15:55:45Z</time>
      </trkpt>
      <trkpt lat="44.05283" lon="2.07553">
        <ele>256</ele>
        <time>2011-03-26T15:55:47Z</time>
      </trkpt>
      <trkpt lat="44.05285" lon="2.07557">
        <ele>256</ele>
        <time>2011-03-26T15:55:49Z</time>
      </trkpt>
      <trkpt lat="44.05288" lon="2.07558">
        <ele>256</ele>
        <time>2011-03-26T15:55:51Z</time>
      </trkpt>
      <trkpt lat="44.05292" lon="2.0756">
        <ele>258</ele>
        <time>2011-03-26T15:55:53Z</time>
      </trkpt>
      <trkpt lat="44.05294" lon="2.07561">
        <ele>258</ele>
        <time>2011-03-26T15:55:54Z</time>
      </trkpt>
      <trkpt lat="44.05297" lon="2.07562">
        <ele>258</ele>
        <time>2011-03-26T15:55:55Z</time>
      </trkpt>
      <trkpt lat="44.053" lon="2.07563">
        <ele>258</ele>
        <time>2011-03-26T15:55:56Z</time>
      </trkpt>
      <trkpt lat="44.05302" lon="2.07563">
        <ele>258</ele>
        <time>2011-03-26T15:55:57Z</time>
      </trkpt>
      <trkpt lat="44.05305" lon="2.07564">
        <ele>258</ele>
        <time>2011-03-26T15:55:58Z</time>
      </trkpt>
      <trkpt lat="44.05307" lon="2.07564">
        <ele>258</ele>
        <time>2011-03-26T15:55:59Z</time>
      </trkpt>
      <trkpt lat="44.0531" lon="2.07565">
        <ele>258</ele>
        <time>2011-03-26T15:56:00Z</time>
      </trkpt>
      <trkpt lat="44.05313" lon="2.07566">
        <ele>258</ele>
        <time>2011-03-26T15:56:01Z</time>
      </trkpt>
      <trkpt lat="44.05315" lon="2.07567">
        <ele>258</ele>
        <time>2011-03-26T15:56:02Z</time>
      </trkpt>
      <trkpt lat="44.05319" lon="2.07568">
        <ele>258</ele>
        <time>2011-03-26T15:56:04Z</time>
      </trkpt>
      <trkpt lat="44.05323" lon="2.07569">
        <ele>258</ele>
        <time>2011-03-26T15:56:06Z</time>
      </trkpt>
      <trkpt lat="44.05326" lon="2.0757">
        <ele>258</ele>
        <time>2011-03-26T15:56:08Z</time>
      </trkpt>
      <trkpt lat="44.0533" lon="2.07571">
        <ele>258</ele>
        <time>2011-03-26T15:56:10Z</time>
      </trkpt>
      <trkpt lat="44.05333" lon="2.0757">
        <ele>258</ele>
        <time>2011-03-26T15:56:12Z</time>
      </trkpt>
      <trkpt lat="44.05337" lon="2.07572">
        <ele>258</ele>
        <time>2011-03-26T15:56:14Z</time>
      </trkpt>
      <trkpt lat="44.0534" lon="2.07573">
        <ele>258</ele>
        <time>2011-03-26T15:56:16Z</time>
      </trkpt>
      <trkpt lat="44.05342" lon="2.07573">
        <ele>258</ele>
        <time>2011-03-26T15:56:17Z</time>
      </trkpt>
      <trkpt lat="44.05345" lon="2.07573">
        <ele>258</ele>
        <time>2011-03-26T15:56:19Z</time>
      </trkpt>
      <trkpt lat="44.05349" lon="2.07573">
        <ele>258</ele>
        <time>2011-03-26T15:56:21Z</time>
      </trkpt>
      <trkpt lat="44.05352" lon="2.07573">
        <ele>258</ele>
        <time>2011-03-26T15:56:22Z</time>
      </trkpt>
      <trkpt lat="44.05355" lon="2.07573">
        <ele>258</ele>
        <time>2011-03-26T15:56:23Z</time>
      </trkpt>
      <trkpt lat="44.05357" lon="2.07574">
        <ele>258</ele>
        <time>2011-03-26T15:56:24Z</time>
      </trkpt>
      <trkpt lat="44.0536" lon="2.07574">
        <ele>258</ele>
        <time>2011-03-26T15:56:25Z</time>
      </trkpt>
      <trkpt lat="44.05362" lon="2.07574">
        <ele>258</ele>
        <time>2011-03-26T15:56:26Z</time>
      </trkpt>
      <trkpt lat="44.05364" lon="2.07574">
        <ele>258</ele>
        <time>2011-03-26T15:56:27Z</time>
      </trkpt>
      <trkpt lat="44.05368" lon="2.07572">
        <ele>258</ele>
        <time>2011-03-26T15:56:29Z</time>
      </trkpt>
      <trkpt lat="44.05372" lon="2.07569">
        <ele>258</ele>
        <time>2011-03-26T15:56:31Z</time>
      </trkpt>
      <trkpt lat="44.05374" lon="2.07566">
        <ele>258</ele>
        <time>2011-03-26T15:56:32Z</time>
      </trkpt>
      <trkpt lat="44.05376" lon="2.07563">
        <ele>268</ele>
        <time>2011-03-26T15:56:33Z</time>
      </trkpt>
      <trkpt lat="44.05378" lon="2.0756">
        <ele>268</ele>
        <time>2011-03-26T15:56:34Z</time>
      </trkpt>
      <trkpt lat="44.0538" lon="2.07557">
        <ele>268</ele>
        <time>2011-03-26T15:56:35Z</time>
      </trkpt>
      <trkpt lat="44.05382" lon="2.07554">
        <ele>268</ele>
        <time>2011-03-26T15:56:36Z</time>
      </trkpt>
      <trkpt lat="44.05384" lon="2.07551">
        <ele>268</ele>
        <time>2011-03-26T15:56:37Z</time>
      </trkpt>
      <trkpt lat="44.05387" lon="2.07548">
        <ele>268</ele>
        <time>2011-03-26T15:56:39Z</time>
      </trkpt>
      <trkpt lat="44.05388" lon="2.07547">
        <ele>268</ele>
        <time>2011-03-26T15:56:40Z</time>
      </trkpt>
      <trkpt lat="44.0539" lon="2.07543">
        <ele>268</ele>
        <time>2011-03-26T15:56:42Z</time>
      </trkpt>
      <trkpt lat="44.05392" lon="2.0754">
        <ele>264</ele>
        <time>2011-03-26T15:56:44Z</time>
      </trkpt>
      <trkpt lat="44.05395" lon="2.07537">
        <ele>264</ele>
        <time>2011-03-26T15:56:46Z</time>
      </trkpt>
      <trkpt lat="44.05397" lon="2.07533">
        <ele>264</ele>
        <time>2011-03-26T15:56:48Z</time>
      </trkpt>
      <trkpt lat="44.054" lon="2.07528">
        <ele>264</ele>
        <time>2011-03-26T15:56:50Z</time>
      </trkpt>
      <trkpt lat="44.05403" lon="2.07524">
        <ele>264</ele>
        <time>2011-03-26T15:56:52Z</time>
      </trkpt>
      <trkpt lat="44.05406" lon="2.07521">
        <ele>264</ele>
        <time>2011-03-26T15:56:54Z</time>
      </trkpt>
      <trkpt lat="44.05411" lon="2.0752">
        <ele>264</ele>
        <time>2011-03-26T15:56:56Z</time>
      </trkpt>
      <trkpt lat="44.05412" lon="2.07521">
        <ele>264</ele>
        <time>2011-03-26T15:56:57Z</time>
      </trkpt>
      <trkpt lat="44.05415" lon="2.0752">
        <ele>264</ele>
        <time>2011-03-26T15:56:59Z</time>
      </trkpt>
      <trkpt lat="44.05419" lon="2.07521">
        <ele>264</ele>
        <time>2011-03-26T15:57:01Z</time>
      </trkpt>
      <trkpt lat="44.05421" lon="2.07525">
        <ele>264</ele>
        <time>2011-03-26T15:57:03Z</time>
      </trkpt>
      <trkpt lat="44.05424" lon="2.07529">
        <ele>264</ele>
        <time>2011-03-26T15:57:05Z</time>
      </trkpt>
      <trkpt lat="44.05426" lon="2.07534">
        <ele>264</ele>
        <time>2011-03-26T15:57:07Z</time>
      </trkpt>
      <trkpt lat="44.05427" lon="2.0754">
        <ele>264</ele>
        <time>2011-03-26T15:57:09Z</time>
      </trkpt>
      <trkpt lat="44.05428" lon="2.07545">
        <ele>268</ele>
        <time>2011-03-26T15:57:11Z</time>
      </trkpt>
      <trkpt lat="44.05429" lon="2.0755">
        <ele>268</ele>
        <time>2011-03-26T15:57:13Z</time>
      </trkpt>
      <trkpt lat="44.0543" lon="2.07556">
        <ele>268</ele>
        <time>2011-03-26T15:57:15Z</time>
      </trkpt>
      <trkpt lat="44.05431" lon="2.07561">
        <ele>268</ele>
        <time>2011-03-26T15:57:17Z</time>
      </trkpt>
      <trkpt lat="44.05432" lon="2.07567">
        <ele>268</ele>
        <time>2011-03-26T15:57:19Z</time>
      </trkpt>
      <trkpt lat="44.05433" lon="2.07572">
        <ele>268</ele>
        <time>2011-03-26T15:57:21Z</time>
      </trkpt>
      <trkpt lat="44.05433" lon="2.07576">
        <ele>268</ele>
        <time>2011-03-26T15:57:22Z</time>
      </trkpt>
      <trkpt lat="44.05434" lon="2.07579">
        <ele>268</ele>
        <time>2011-03-26T15:57:23Z</time>
      </trkpt>
      <trkpt lat="44.05433" lon="2.07585">
        <ele>268</ele>
        <time>2011-03-26T15:57:25Z</time>
      </trkpt>
      <trkpt lat="44.05432" lon="2.07591">
        <ele>268</ele>
        <time>2011-03-26T15:57:27Z</time>
      </trkpt>
      <trkpt lat="44.05432" lon="2.07596">
        <ele>268</ele>
        <time>2011-03-26T15:57:29Z</time>
      </trkpt>
      <trkpt lat="44.05431" lon="2.07602">
        <ele>268</ele>
        <time>2011-03-26T15:57:31Z</time>
      </trkpt>
      <trkpt lat="44.0543" lon="2.07608">
        <ele>268</ele>
        <time>2011-03-26T15:57:33Z</time>
      </trkpt>
      <trkpt lat="44.05428" lon="2.07613">
        <ele>268</ele>
        <time>2011-03-26T15:57:35Z</time>
      </trkpt>
      <trkpt lat="44.05425" lon="2.07618">
        <ele>268</ele>
        <time>2011-03-26T15:57:37Z</time>
      </trkpt>
      <trkpt lat="44.05424" lon="2.07621">
        <ele>268</ele>
        <time>2011-03-26T15:57:38Z</time>
      </trkpt>
      <trkpt lat="44.05421" lon="2.07625">
        <ele>268</ele>
        <time>2011-03-26T15:57:40Z</time>
      </trkpt>
      <trkpt lat="44.05417" lon="2.07629">
        <ele>281</ele>
        <time>2011-03-26T15:57:42Z</time>
      </trkpt>
      <trkpt lat="44.05414" lon="2.07633">
        <ele>281</ele>
        <time>2011-03-26T15:57:44Z</time>
      </trkpt>
      <trkpt lat="44.05412" lon="2.07634">
        <ele>281</ele>
        <time>2011-03-26T15:57:45Z</time>
      </trkpt>
      <trkpt lat="44.0541" lon="2.07636">
        <ele>281</ele>
        <time>2011-03-26T15:57:46Z</time>
      </trkpt>
      <trkpt lat="44.05408" lon="2.07638">
        <ele>281</ele>
        <time>2011-03-26T15:57:47Z</time>
      </trkpt>
      <trkpt lat="44.05406" lon="2.07639">
        <ele>281</ele>
        <time>2011-03-26T15:57:48Z</time>
      </trkpt>
      <trkpt lat="44.05403" lon="2.07642">
        <ele>281</ele>
        <time>2011-03-26T15:57:50Z</time>
      </trkpt>
      <trkpt lat="44.05399" lon="2.07644">
        <ele>281</ele>
        <time>2011-03-26T15:57:52Z</time>
      </trkpt>
      <trkpt lat="44.05395" lon="2.07647">
        <ele>281</ele>
        <time>2011-03-26T15:57:54Z</time>
      </trkpt>
      <trkpt lat="44.05392" lon="2.0765">
        <ele>281</ele>
        <time>2011-03-26T15:57:56Z</time>
      </trkpt>
      <trkpt lat="44.05389" lon="2.07652">
        <ele>281</ele>
        <time>2011-03-26T15:57:58Z</time>
      </trkpt>
      <trkpt lat="44.05385" lon="2.07654">
        <ele>281</ele>
        <time>2011-03-26T15:58:00Z</time>
      </trkpt>
      <trkpt lat="44.05381" lon="2.07656">
        <ele>281</ele>
        <time>2011-03-26T15:58:02Z</time>
      </trkpt>
      <trkpt lat="44.05377" lon="2.07658">
        <ele>281</ele>
        <time>2011-03-26T15:58:04Z</time>
      </trkpt>
      <trkpt lat="44.05373" lon="2.0766">
        <ele>276</ele>
        <time>2011-03-26T15:58:06Z</time>
      </trkpt>
      <trkpt lat="44.05371" lon="2.07662">
        <ele>276</ele>
        <time>2011-03-26T15:58:07Z</time>
      </trkpt>
      <trkpt lat="44.05369" lon="2.07664">
        <ele>276</ele>
        <time>2011-03-26T15:58:08Z</time>
      </trkpt>
      <trkpt lat="44.05367" lon="2.07666">
        <ele>276</ele>
        <time>2011-03-26T15:58:09Z</time>
      </trkpt>
      <trkpt lat="44.05363" lon="2.07669">
        <ele>276</ele>
        <time>2011-03-26T15:58:11Z</time>
      </trkpt>
      <trkpt lat="44.05361" lon="2.07671">
        <ele>276</ele>
        <time>2011-03-26T15:58:12Z</time>
      </trkpt>
      <trkpt lat="44.05358" lon="2.07674">
        <ele>276</ele>
        <time>2011-03-26T15:58:14Z</time>
      </trkpt>
      <trkpt lat="44.05354" lon="2.07677">
        <ele>276</ele>
        <time>2011-03-26T15:58:16Z</time>
      </trkpt>
      <trkpt lat="44.0535" lon="2.07679">
        <ele>276</ele>
        <time>2011-03-26T15:58:18Z</time>
      </trkpt>
      <trkpt lat="44.05346" lon="2.07682">
        <ele>276</ele>
        <time>2011-03-26T15:58:20Z</time>
      </trkpt>
      <trkpt lat="44.05343" lon="2.07684">
        <ele>276</ele>
        <time>2011-03-26T15:58:22Z</time>
      </trkpt>
      <trkpt lat="44.05339" lon="2.07687">
        <ele>276</ele>
        <time>2011-03-26T15:58:24Z</time>
      </trkpt>
      <trkpt lat="44.05337" lon="2.07688">
        <ele>276</ele>
        <time>2011-03-26T15:58:25Z</time>
      </trkpt>
      <trkpt lat="44.05334" lon="2.0769">
        <ele>276</ele>
        <time>2011-03-26T15:58:26Z</time>
      </trkpt>
      <trkpt lat="44.05332" lon="2.07691">
        <ele>276</ele>
        <time>2011-03-26T15:58:27Z</time>
      </trkpt>
      <trkpt lat="44.0533" lon="2.07692">
        <ele>276</ele>
        <time>2011-03-26T15:58:28Z</time>
      </trkpt>
      <trkpt lat="44.05326" lon="2.07695">
        <ele>276</ele>
        <time>2011-03-26T15:58:30Z</time>
      </trkpt>
      <trkpt lat="44.05324" lon="2.07697">
        <ele>276</ele>
        <time>2011-03-26T15:58:31Z</time>
      </trkpt>
      <trkpt lat="44.0532" lon="2.077">
        <ele>276</ele>
        <time>2011-03-26T15:58:33Z</time>
      </trkpt>
      <trkpt lat="44.05318" lon="2.07702">
        <ele>276</ele>
        <time>2011-03-26T15:58:34Z</time>
      </trkpt>
      <trkpt lat="44.05316" lon="2.07703">
        <ele>276</ele>
        <time>2011-03-26T15:58:35Z</time>
      </trkpt>
      <trkpt lat="44.05314" lon="2.07704">
        <ele>276</ele>
        <time>2011-03-26T15:58:36Z</time>
      </trkpt>
      <trkpt lat="44.05312" lon="2.07705">
        <ele>276</ele>
        <time>2011-03-26T15:58:37Z</time>
      </trkpt>
      <trkpt lat="44.05308" lon="2.07708">
        <ele>276</ele>
        <time>2011-03-26T15:58:39Z</time>
      </trkpt>
      <trkpt lat="44.05306" lon="2.07709">
        <ele>297</ele>
        <time>2011-03-26T15:58:40Z</time>
      </trkpt>
      <trkpt lat="44.05304" lon="2.0771">
        <ele>297</ele>
        <time>2011-03-26T15:58:41Z</time>
      </trkpt>
      <trkpt lat="44.053" lon="2.07712">
        <ele>297</ele>
        <time>2011-03-26T15:58:43Z</time>
      </trkpt>
      <trkpt lat="44.05296" lon="2.07714">
        <ele>297</ele>
        <time>2011-03-26T15:58:45Z</time>
      </trkpt>
      <trkpt lat="44.05294" lon="2.07716">
        <ele>297</ele>
        <time>2011-03-26T15:58:46Z</time>
      </trkpt>
      <trkpt lat="44.05292" lon="2.07717">
        <ele>294</ele>
        <time>2011-03-26T15:58:47Z</time>
      </trkpt>
      <trkpt lat="44.05289" lon="2.07718">
        <ele>294</ele>
        <time>2011-03-26T15:58:48Z</time>
      </trkpt>
      <trkpt lat="44.05285" lon="2.0772">
        <ele>294</ele>
        <time>2011-03-26T15:58:50Z</time>
      </trkpt>
      <trkpt lat="44.05283" lon="2.07721">
        <ele>294</ele>
        <time>2011-03-26T15:58:51Z</time>
      </trkpt>
      <trkpt lat="44.0528" lon="2.07723">
        <ele>294</ele>
        <time>2011-03-26T15:58:53Z</time>
      </trkpt>
      <trkpt lat="44.05276" lon="2.07725">
        <ele>294</ele>
        <time>2011-03-26T15:58:55Z</time>
      </trkpt>
      <trkpt lat="44.05272" lon="2.07727">
        <ele>294</ele>
        <time>2011-03-26T15:58:57Z</time>
      </trkpt>
      <trkpt lat="44.05268" lon="2.07729">
        <ele>294</ele>
        <time>2011-03-26T15:58:59Z</time>
      </trkpt>
      <trkpt lat="44.05264" lon="2.0773">
        <ele>294</ele>
        <time>2011-03-26T15:59:01Z</time>
      </trkpt>
      <trkpt lat="44.0526" lon="2.0773">
        <ele>294</ele>
        <time>2011-03-26T15:59:03Z</time>
      </trkpt>
      <trkpt lat="44.05256" lon="2.07732">
        <ele>294</ele>
        <time>2011-03-26T15:59:05Z</time>
      </trkpt>
      <trkpt lat="44.05253" lon="2.07733">
        <ele>294</ele>
        <time>2011-03-26T15:59:07Z</time>
      </trkpt>
      <trkpt lat="44.05249" lon="2.07734">
        <ele>294</ele>
        <time>2011-03-26T15:59:09Z</time>
      </trkpt>
      <trkpt lat="44.05245" lon="2.07735">
        <ele>294</ele>
        <time>2011-03-26T15:59:11Z</time>
      </trkpt>
      <trkpt lat="44.05242" lon="2.07736">
        <ele>294</ele>
        <time>2011-03-26T15:59:13Z</time>
      </trkpt>
      <trkpt lat="44.05238" lon="2.07737">
        <ele>294</ele>
        <time>2011-03-26T15:59:15Z</time>
      </trkpt>
      <trkpt lat="44.05235" lon="2.07739">
        <ele>294</ele>
        <time>2011-03-26T15:59:17Z</time>
      </trkpt>
      <trkpt lat="44.05232" lon="2.07741">
        <ele>294</ele>
        <time>2011-03-26T15:59:19Z</time>
      </trkpt>
      <trkpt lat="44.05228" lon="2.07744">
        <ele>294</ele>
        <time>2011-03-26T15:59:21Z</time>
      </trkpt>
      <trkpt lat="44.05225" lon="2.07747">
        <ele>294</ele>
        <time>2011-03-26T15:59:23Z</time>
      </trkpt>
      <trkpt lat="44.05222" lon="2.0775">
        <ele>294</ele>
        <time>2011-03-26T15:59:25Z</time>
      </trkpt>
      <trkpt lat="44.05219" lon="2.07753">
        <ele>294</ele>
        <time>2011-03-26T15:59:27Z</time>
      </trkpt>
      <trkpt lat="44.05216" lon="2.07755">
        <ele>294</ele>
        <time>2011-03-26T15:59:29Z</time>
      </trkpt>
      <trkpt lat="44.05212" lon="2.07756">
        <ele>294</ele>
        <time>2011-03-26T15:59:31Z</time>
      </trkpt>
      <trkpt lat="44.05208" lon="2.07757">
        <ele>294</ele>
        <time>2011-03-26T15:59:33Z</time>
      </trkpt>
      <trkpt lat="44.05205" lon="2.07758">
        <ele>283</ele>
        <time>2011-03-26T15:59:35Z</time>
      </trkpt>
      <trkpt lat="44.05201" lon="2.07761">
        <ele>283</ele>
        <time>2011-03-26T15:59:37Z</time>
      </trkpt>
      <trkpt lat="44.052" lon="2.07763">
        <ele>283</ele>
        <time>2011-03-26T15:59:38Z</time>
      </trkpt>
      <trkpt lat="44.05199" lon="2.07766">
        <ele>283</ele>
        <time>2011-03-26T15:59:39Z</time>
      </trkpt>
      <trkpt lat="44.05198" lon="2.07769">
        <ele>283</ele>
        <time>2011-03-26T15:59:40Z</time>
      </trkpt>
      <trkpt lat="44.05198" lon="2.07772">
        <ele>283</ele>
        <time>2011-03-26T15:59:41Z</time>
      </trkpt>
      <trkpt lat="44.052" lon="2.07776">
        <ele>283</ele>
        <time>2011-03-26T15:59:43Z</time>
      </trkpt>
      <trkpt lat="44.05202" lon="2.07778">
        <ele>283</ele>
        <time>2011-03-26T15:59:45Z</time>
      </trkpt>
      <trkpt lat="44.05205" lon="2.07778">
        <ele>283</ele>
        <time>2011-03-26T15:59:47Z</time>
      </trkpt>
      <trkpt lat="44.05208" lon="2.07778">
        <ele>283</ele>
        <time>2011-03-26T15:59:49Z</time>
      </trkpt>
      <trkpt lat="44.05211" lon="2.07778">
        <ele>294</ele>
        <time>2011-03-26T15:59:51Z</time>
      </trkpt>
      <trkpt lat="44.05214" lon="2.07778">
        <ele>294</ele>
        <time>2011-03-26T15:59:53Z</time>
      </trkpt>
      <trkpt lat="44.05218" lon="2.07777">
        <ele>294</ele>
        <time>2011-03-26T15:59:55Z</time>
      </trkpt>
      <trkpt lat="44.05221" lon="2.07778">
        <ele>294</ele>
        <time>2011-03-26T15:59:57Z</time>
      </trkpt>
      <trkpt lat="44.05224" lon="2.07779">
        <ele>294</ele>
        <time>2011-03-26T15:59:59Z</time>
      </trkpt>
      <trkpt lat="44.05227" lon="2.0778">
        <ele>294</ele>
        <time>2011-03-26T16:00:01Z</time>
      </trkpt>
      <trkpt lat="44.0523" lon="2.07782">
        <ele>294</ele>
        <time>2011-03-26T16:00:03Z</time>
      </trkpt>
      <trkpt lat="44.05233" lon="2.07783">
        <ele>294</ele>
        <time>2011-03-26T16:00:05Z</time>
      </trkpt>
      <trkpt lat="44.05237" lon="2.07784">
        <ele>294</ele>
        <time>2011-03-26T16:00:07Z</time>
      </trkpt>
      <trkpt lat="44.0524" lon="2.07786">
        <ele>294</ele>
        <time>2011-03-26T16:00:09Z</time>
      </trkpt>
      <trkpt lat="44.05243" lon="2.07787">
        <ele>294</ele>
        <time>2011-03-26T16:00:11Z</time>
      </trkpt>
      <trkpt lat="44.05247" lon="2.07788">
        <ele>294</ele>
        <time>2011-03-26T16:00:13Z</time>
      </trkpt>
      <trkpt lat="44.05251" lon="2.0779">
        <ele>294</ele>
        <time>2011-03-26T16:00:15Z</time>
      </trkpt>
      <trkpt lat="44.05254" lon="2.07792">
        <ele>306</ele>
        <time>2011-03-26T16:00:17Z</time>
      </trkpt>
      <trkpt lat="44.05257" lon="2.07794">
        <ele>306</ele>
        <time>2011-03-26T16:00:19Z</time>
      </trkpt>
      <trkpt lat="44.0526" lon="2.07797">
        <ele>306</ele>
        <time>2011-03-26T16:00:21Z</time>
      </trkpt>
      <trkpt lat="44.05263" lon="2.078">
        <ele>306</ele>
        <time>2011-03-26T16:00:23Z</time>
      </trkpt>
      <trkpt lat="44.05265" lon="2.07804">
        <ele>306</ele>
        <time>2011-03-26T16:00:25Z</time>
      </trkpt>
      <trkpt lat="44.05267" lon="2.07807">
        <ele>306</ele>
        <time>2011-03-26T16:00:27Z</time>
      </trkpt>
      <trkpt lat="44.05269" lon="2.07811">
        <ele>306</ele>
        <time>2011-03-26T16:00:29Z</time>
      </trkpt>
      <trkpt lat="44.05271" lon="2.07815">
        <ele>306</ele>
        <time>2011-03-26T16:00:31Z</time>
      </trkpt>
      <trkpt lat="44.05273" lon="2.07819">
        <ele>306</ele>
        <time>2011-03-26T16:00:33Z</time>
      </trkpt>
      <trkpt lat="44.05274" lon="2.07823">
        <ele>306</ele>
        <time>2011-03-26T16:00:35Z</time>
      </trkpt>
      <trkpt lat="44.05275" lon="2.07827">
        <ele>306</ele>
        <time>2011-03-26T16:00:37Z</time>
      </trkpt>
      <trkpt lat="44.05276" lon="2.07832">
        <ele>306</ele>
        <time>2011-03-26T16:00:39Z</time>
      </trkpt>
      <trkpt lat="44.05277" lon="2.07837">
        <ele>306</ele>
        <time>2011-03-26T16:00:41Z</time>
      </trkpt>
      <trkpt lat="44.05277" lon="2.07841">
        <ele>306</ele>
        <time>2011-03-26T16:00:43Z</time>
      </trkpt>
      <trkpt lat="44.05279" lon="2.07845">
        <ele>306</ele>
        <time>2011-03-26T16:00:45Z</time>
      </trkpt>
      <trkpt lat="44.05279" lon="2.07847">
        <ele>306</ele>
        <time>2011-03-26T16:00:46Z</time>
      </trkpt>
      <trkpt lat="44.0528" lon="2.07851">
        <ele>306</ele>
        <time>2011-03-26T16:00:48Z</time>
      </trkpt>
      <trkpt lat="44.0528" lon="2.07855">
        <ele>306</ele>
        <time>2011-03-26T16:00:51Z</time>
      </trkpt>
      <trkpt lat="44.0528" lon="2.07857">
        <ele>306</ele>
        <time>2011-03-26T16:00:52Z</time>
      </trkpt>
      <trkpt lat="44.0528" lon="2.0786">
        <ele>306</ele>
        <time>2011-03-26T16:00:56Z</time>
      </trkpt>
      <trkpt lat="44.05282" lon="2.07862">
        <ele>306</ele>
        <time>2011-03-26T16:00:58Z</time>
      </trkpt>
      <trkpt lat="44.05285" lon="2.07864">
        <ele>306</ele>
        <time>2011-03-26T16:01:00Z</time>
      </trkpt>
      <trkpt lat="44.05288" lon="2.07865">
        <ele>306</ele>
        <time>2011-03-26T16:01:02Z</time>
      </trkpt>
      <trkpt lat="44.0529" lon="2.07866">
        <ele>306</ele>
        <time>2011-03-26T16:01:04Z</time>
      </trkpt>
      <trkpt lat="44.05293" lon="2.07867">
        <ele>309</ele>
        <time>2011-03-26T16:01:06Z</time>
      </trkpt>
      <trkpt lat="44.05295" lon="2.07868">
        <ele>309</ele>
        <time>2011-03-26T16:01:08Z</time>
      </trkpt>
      <trkpt lat="44.05298" lon="2.07871">
        <ele>309</ele>
        <time>2011-03-26T16:01:10Z</time>
      </trkpt>
      <trkpt lat="44.05301" lon="2.07874">
        <ele>309</ele>
        <time>2011-03-26T16:01:12Z</time>
      </trkpt>
      <trkpt lat="44.05304" lon="2.07875">
        <ele>309</ele>
        <time>2011-03-26T16:01:14Z</time>
      </trkpt>
      <trkpt lat="44.05307" lon="2.07876">
        <ele>313</ele>
        <time>2011-03-26T16:01:16Z</time>
      </trkpt>
      <trkpt lat="44.05311" lon="2.07877">
        <ele>313</ele>
        <time>2011-03-26T16:01:18Z</time>
      </trkpt>
      <trkpt lat="44.05315" lon="2.07878">
        <ele>313</ele>
        <time>2011-03-26T16:01:20Z</time>
      </trkpt>
      <trkpt lat="44.05319" lon="2.07879">
        <ele>313</ele>
        <time>2011-03-26T16:01:22Z</time>
      </trkpt>
      <trkpt lat="44.05323" lon="2.07879">
        <ele>313</ele>
        <time>2011-03-26T16:01:24Z</time>
      </trkpt>
      <trkpt lat="44.05327" lon="2.07879">
        <ele>313</ele>
        <time>2011-03-26T16:01:26Z</time>
      </trkpt>
      <trkpt lat="44.05331" lon="2.07879">
        <ele>313</ele>
        <time>2011-03-26T16:01:28Z</time>
      </trkpt>
      <trkpt lat="44.05335" lon="2.07879">
        <ele>313</ele>
        <time>2011-03-26T16:01:30Z</time>
      </trkpt>
      <trkpt lat="44.0534" lon="2.07879">
        <ele>313</ele>
        <time>2011-03-26T16:01:32Z</time>
      </trkpt>
      <trkpt lat="44.05344" lon="2.07879">
        <ele>313</ele>
        <time>2011-03-26T16:01:34Z</time>
      </trkpt>
      <trkpt lat="44.05348" lon="2.07879">
        <ele>313</ele>
        <time>2011-03-26T16:01:36Z</time>
      </trkpt>
      <trkpt lat="44.0535" lon="2.0788">
        <ele>313</ele>
        <time>2011-03-26T16:01:37Z</time>
      </trkpt>
      <trkpt lat="44.05353" lon="2.0788">
        <ele>313</ele>
        <time>2011-03-26T16:01:38Z</time>
      </trkpt>
      <trkpt lat="44.05355" lon="2.0788">
        <ele>313</ele>
        <time>2011-03-26T16:01:39Z</time>
      </trkpt>
      <trkpt lat="44.05358" lon="2.0788">
        <ele>313</ele>
        <time>2011-03-26T16:01:40Z</time>
      </trkpt>
      <trkpt lat="44.05361" lon="2.0788">
        <ele>313</ele>
        <time>2011-03-26T16:01:41Z</time>
      </trkpt>
      <trkpt lat="44.05364" lon="2.0788">
        <ele>313</ele>
        <time>2011-03-26T16:01:42Z</time>
      </trkpt>
      <trkpt lat="44.05367" lon="2.07881">
        <ele>313</ele>
        <time>2011-03-26T16:01:43Z</time>
      </trkpt>
      <trkpt lat="44.0537" lon="2.07882">
        <ele>313</ele>
        <time>2011-03-26T16:01:44Z</time>
      </trkpt>
      <trkpt lat="44.05373" lon="2.07882">
        <ele>313</ele>
        <time>2011-03-26T16:01:45Z</time>
      </trkpt>
      <trkpt lat="44.05375" lon="2.07883">
        <ele>315</ele>
        <time>2011-03-26T16:01:46Z</time>
      </trkpt>
      <trkpt lat="44.05378" lon="2.07883">
        <ele>315</ele>
        <time>2011-03-26T16:01:47Z</time>
      </trkpt>
      <trkpt lat="44.05381" lon="2.07884">
        <ele>315</ele>
        <time>2011-03-26T16:01:48Z</time>
      </trkpt>
      <trkpt lat="44.05385" lon="2.07885">
        <ele>315</ele>
        <time>2011-03-26T16:01:49Z</time>
      </trkpt>
      <trkpt lat="44.05388" lon="2.07885">
        <ele>315</ele>
        <time>2011-03-26T16:01:50Z</time>
      </trkpt>
      <trkpt lat="44.05391" lon="2.07886">
        <ele>315</ele>
        <time>2011-03-26T16:01:51Z</time>
      </trkpt>
      <trkpt lat="44.05395" lon="2.07886">
        <ele>315</ele>
        <time>2011-03-26T16:01:52Z</time>
      </trkpt>
      <trkpt lat="44.05398" lon="2.07886">
        <ele>315</ele>
        <time>2011-03-26T16:01:53Z</time>
      </trkpt>
      <trkpt lat="44.05401" lon="2.07887">
        <ele>315</ele>
        <time>2011-03-26T16:01:54Z</time>
      </trkpt>
      <trkpt lat="44.05404" lon="2.07887">
        <ele>315</ele>
        <time>2011-03-26T16:01:55Z</time>
      </trkpt>
      <trkpt lat="44.05407" lon="2.07888">
        <ele>315</ele>
        <time>2011-03-26T16:01:56Z</time>
      </trkpt>
      <trkpt lat="44.0541" lon="2.07889">
        <ele>315</ele>
        <time>2011-03-26T16:01:57Z</time>
      </trkpt>
      <trkpt lat="44.05413" lon="2.07889">
        <ele>315</ele>
        <time>2011-03-26T16:01:58Z</time>
      </trkpt>
      <trkpt lat="44.05416" lon="2.0789">
        <ele>315</ele>
        <time>2011-03-26T16:01:59Z</time>
      </trkpt>
      <trkpt lat="44.05419" lon="2.07891">
        <ele>315</ele>
        <time>2011-03-26T16:02:00Z</time>
      </trkpt>
      <trkpt lat="44.05422" lon="2.07891">
        <ele>315</ele>
        <time>2011-03-26T16:02:01Z</time>
      </trkpt>
      <trkpt lat="44.05426" lon="2.07891">
        <ele>315</ele>
        <time>2011-03-26T16:02:02Z</time>
      </trkpt>
      <trkpt lat="44.05429" lon="2.07893">
        <ele>315</ele>
        <time>2011-03-26T16:02:03Z</time>
      </trkpt>
      <trkpt lat="44.05432" lon="2.07893">
        <ele>315</ele>
        <time>2011-03-26T16:02:04Z</time>
      </trkpt>
      <trkpt lat="44.05435" lon="2.07894">
        <ele>315</ele>
        <time>2011-03-26T16:02:05Z</time>
      </trkpt>
      <trkpt lat="44.05439" lon="2.07896">
        <ele>315</ele>
        <time>2011-03-26T16:02:06Z</time>
      </trkpt>
      <trkpt lat="44.05445" lon="2.07897">
        <ele>315</ele>
        <time>2011-03-26T16:02:08Z</time>
      </trkpt>
      <trkpt lat="44.05449" lon="2.07898">
        <ele>315</ele>
        <time>2011-03-26T16:02:09Z</time>
      </trkpt>
      <trkpt lat="44.05452" lon="2.07899">
        <ele>315</ele>
        <time>2011-03-26T16:02:10Z</time>
      </trkpt>
      <trkpt lat="44.05456" lon="2.079">
        <ele>315</ele>
        <time>2011-03-26T16:02:11Z</time>
      </trkpt>
      <trkpt lat="44.05459" lon="2.07901">
        <ele>314</ele>
        <time>2011-03-26T16:02:12Z</time>
      </trkpt>
      <trkpt lat="44.05462" lon="2.07902">
        <ele>314</ele>
        <time>2011-03-26T16:02:13Z</time>
      </trkpt>
      <trkpt lat="44.05466" lon="2.07902">
        <ele>314</ele>
        <time>2011-03-26T16:02:14Z</time>
      </trkpt>
      <trkpt lat="44.0547" lon="2.07902">
        <ele>314</ele>
        <time>2011-03-26T16:02:15Z</time>
      </trkpt>
      <trkpt lat="44.05473" lon="2.07903">
        <ele>314</ele>
        <time>2011-03-26T16:02:16Z</time>
      </trkpt>
      <trkpt lat="44.05477" lon="2.07904">
        <ele>314</ele>
        <time>2011-03-26T16:02:17Z</time>
      </trkpt>
      <trkpt lat="44.05481" lon="2.07904">
        <ele>314</ele>
        <time>2011-03-26T16:02:18Z</time>
      </trkpt>
      <trkpt lat="44.05484" lon="2.07905">
        <ele>314</ele>
        <time>2011-03-26T16:02:19Z</time>
      </trkpt>
      <trkpt lat="44.05488" lon="2.07906">
        <ele>314</ele>
        <time>2011-03-26T16:02:20Z</time>
      </trkpt>
      <trkpt lat="44.05491" lon="2.07907">
        <ele>314</ele>
        <time>2011-03-26T16:02:21Z</time>
      </trkpt>
      <trkpt lat="44.05494" lon="2.07908">
        <ele>314</ele>
        <time>2011-03-26T16:02:22Z</time>
      </trkpt>
      <trkpt lat="44.05498" lon="2.0791">
        <ele>314</ele>
        <time>2011-03-26T16:02:23Z</time>
      </trkpt>
      <trkpt lat="44.05501" lon="2.07911">
        <ele>314</ele>
        <time>2011-03-26T16:02:24Z</time>
      </trkpt>
      <trkpt lat="44.05504" lon="2.07912">
        <ele>314</ele>
        <time>2011-03-26T16:02:25Z</time>
      </trkpt>
      <trkpt lat="44.05508" lon="2.07914">
        <ele>314</ele>
        <time>2011-03-26T16:02:26Z</time>
      </trkpt>
      <trkpt lat="44.05511" lon="2.07915">
        <ele>314</ele>
        <time>2011-03-26T16:02:27Z</time>
      </trkpt>
      <trkpt lat="44.05514" lon="2.07916">
        <ele>314</ele>
        <time>2011-03-26T16:02:28Z</time>
      </trkpt>
      <trkpt lat="44.05517" lon="2.07918">
        <ele>314</ele>
        <time>2011-03-26T16:02:29Z</time>
      </trkpt>
      <trkpt lat="44.0552" lon="2.0792">
        <ele>314</ele>
        <time>2011-03-26T16:02:30Z</time>
      </trkpt>
      <trkpt lat="44.05523" lon="2.07922">
        <ele>314</ele>
        <time>2011-03-26T16:02:31Z</time>
      </trkpt>
      <trkpt lat="44.05526" lon="2.07924">
        <ele>314</ele>
        <time>2011-03-26T16:02:32Z</time>
      </trkpt>
      <trkpt lat="44.05529" lon="2.07926">
        <ele>314</ele>
        <time>2011-03-26T16:02:33Z</time>
      </trkpt>
      <trkpt lat="44.05532" lon="2.07928">
        <ele>314</ele>
        <time>2011-03-26T16:02:34Z</time>
      </trkpt>
      <trkpt lat="44.05536" lon="2.0793">
        <ele>314</ele>
        <time>2011-03-26T16:02:35Z</time>
      </trkpt>
      <trkpt lat="44.05539" lon="2.07932">
        <ele>314</ele>
        <time>2011-03-26T16:02:36Z</time>
      </trkpt>
      <trkpt lat="44.05542" lon="2.07933">
        <ele>316</ele>
        <time>2011-03-26T16:02:37Z</time>
      </trkpt>
      <trkpt lat="44.05546" lon="2.07935">
        <ele>316</ele>
        <time>2011-03-26T16:02:38Z</time>
      </trkpt>
      <trkpt lat="44.05549" lon="2.07937">
        <ele>316</ele>
        <time>2011-03-26T16:02:39Z</time>
      </trkpt>
      <trkpt lat="44.05552" lon="2.07938">
        <ele>316</ele>
        <time>2011-03-26T16:02:40Z</time>
      </trkpt>
      <trkpt lat="44.05555" lon="2.0794">
        <ele>316</ele>
        <time>2011-03-26T16:02:41Z</time>
      </trkpt>
      <trkpt lat="44.05558" lon="2.07942">
        <ele>316</ele>
        <time>2011-03-26T16:02:42Z</time>
      </trkpt>
      <trkpt lat="44.05562" lon="2.07944">
        <ele>316</ele>
        <time>2011-03-26T16:02:43Z</time>
      </trkpt>
      <trkpt lat="44.05565" lon="2.07946">
        <ele>316</ele>
        <time>2011-03-26T16:02:44Z</time>
      </trkpt>
      <trkpt lat="44.05568" lon="2.07948">
        <ele>316</ele>
        <time>2011-03-26T16:02:45Z</time>
      </trkpt>
      <trkpt lat="44.05571" lon="2.0795">
        <ele>316</ele>
        <time>2011-03-26T16:02:46Z</time>
      </trkpt>
      <trkpt lat="44.05574" lon="2.07953">
        <ele>316</ele>
        <time>2011-03-26T16:02:47Z</time>
      </trkpt>
      <trkpt lat="44.05577" lon="2.07955">
        <ele>316</ele>
        <time>2011-03-26T16:02:48Z</time>
      </trkpt>
      <trkpt lat="44.0558" lon="2.07958">
        <ele>316</ele>
        <time>2011-03-26T16:02:49Z</time>
      </trkpt>
      <trkpt lat="44.05583" lon="2.0796">
        <ele>317</ele>
        <time>2011-03-26T16:02:50Z</time>
      </trkpt>
      <trkpt lat="44.05587" lon="2.07962">
        <ele>317</ele>
        <time>2011-03-26T16:02:51Z</time>
      </trkpt>
      <trkpt lat="44.0559" lon="2.07964">
        <ele>317</ele>
        <time>2011-03-26T16:02:52Z</time>
      </trkpt>
      <trkpt lat="44.05593" lon="2.07966">
        <ele>317</ele>
        <time>2011-03-26T16:02:53Z</time>
      </trkpt>
      <trkpt lat="44.05596" lon="2.07968">
        <ele>317</ele>
        <time>2011-03-26T16:02:54Z</time>
      </trkpt>
      <trkpt lat="44.05599" lon="2.0797">
        <ele>317</ele>
        <time>2011-03-26T16:02:55Z</time>
      </trkpt>
      <trkpt lat="44.05602" lon="2.07973">
        <ele>317</ele>
        <time>2011-03-26T16:02:56Z</time>
      </trkpt>
      <trkpt lat="44.05605" lon="2.07974">
        <ele>317</ele>
        <time>2011-03-26T16:02:57Z</time>
      </trkpt>
      <trkpt lat="44.05608" lon="2.07976">
        <ele>317</ele>
        <time>2011-03-26T16:02:58Z</time>
      </trkpt>
      <trkpt lat="44.05611" lon="2.07979">
        <ele>317</ele>
        <time>2011-03-26T16:02:59Z</time>
      </trkpt>
      <trkpt lat="44.05614" lon="2.07981">
        <ele>317</ele>
        <time>2011-03-26T16:03:00Z</time>
      </trkpt>
      <trkpt lat="44.05617" lon="2.07983">
        <ele>317</ele>
        <time>2011-03-26T16:03:01Z</time>
      </trkpt>
      <trkpt lat="44.0562" lon="2.07985">
        <ele>317</ele>
        <time>2011-03-26T16:03:02Z</time>
      </trkpt>
      <trkpt lat="44.05623" lon="2.07987">
        <ele>317</ele>
        <time>2011-03-26T16:03:03Z</time>
      </trkpt>
      <trkpt lat="44.05626" lon="2.07988">
        <ele>319</ele>
        <time>2011-03-26T16:03:04Z</time>
      </trkpt>
      <trkpt lat="44.05629" lon="2.0799">
        <ele>319</ele>
        <time>2011-03-26T16:03:05Z</time>
      </trkpt>
      <trkpt lat="44.05631" lon="2.07991">
        <ele>319</ele>
        <time>2011-03-26T16:03:06Z</time>
      </trkpt>
      <trkpt lat="44.05634" lon="2.07993">
        <ele>319</ele>
        <time>2011-03-26T16:03:07Z</time>
      </trkpt>
      <trkpt lat="44.05637" lon="2.07995">
        <ele>319</ele>
        <time>2011-03-26T16:03:08Z</time>
      </trkpt>
      <trkpt lat="44.0564" lon="2.07997">
        <ele>319</ele>
        <time>2011-03-26T16:03:09Z</time>
      </trkpt>
      <trkpt lat="44.05643" lon="2.07999">
        <ele>319</ele>
        <time>2011-03-26T16:03:10Z</time>
      </trkpt>
      <trkpt lat="44.05646" lon="2.08">
        <ele>319</ele>
        <time>2011-03-26T16:03:11Z</time>
      </trkpt>
      <trkpt lat="44.05649" lon="2.08003">
        <ele>319</ele>
        <time>2011-03-26T16:03:12Z</time>
      </trkpt>
      <trkpt lat="44.05652" lon="2.08004">
        <ele>319</ele>
        <time>2011-03-26T16:03:13Z</time>
      </trkpt>
      <trkpt lat="44.05655" lon="2.08006">
        <ele>319</ele>
        <time>2011-03-26T16:03:14Z</time>
      </trkpt>
      <trkpt lat="44.05658" lon="2.08008">
        <ele>319</ele>
        <time>2011-03-26T16:03:15Z</time>
      </trkpt>
      <trkpt lat="44.05661" lon="2.08009">
        <ele>319</ele>
        <time>2011-03-26T16:03:16Z</time>
      </trkpt>
      <trkpt lat="44.05665" lon="2.08011">
        <ele>319</ele>
        <time>2011-03-26T16:03:17Z</time>
      </trkpt>
      <trkpt lat="44.05668" lon="2.08013">
        <ele>319</ele>
        <time>2011-03-26T16:03:18Z</time>
      </trkpt>
      <trkpt lat="44.05671" lon="2.08014">
        <ele>319</ele>
        <time>2011-03-26T16:03:19Z</time>
      </trkpt>
      <trkpt lat="44.05674" lon="2.08016">
        <ele>319</ele>
        <time>2011-03-26T16:03:20Z</time>
      </trkpt>
      <trkpt lat="44.05677" lon="2.08017">
        <ele>319</ele>
        <time>2011-03-26T16:03:21Z</time>
      </trkpt>
      <trkpt lat="44.05681" lon="2.08019">
        <ele>319</ele>
        <time>2011-03-26T16:03:22Z</time>
      </trkpt>
      <trkpt lat="44.05684" lon="2.0802">
        <ele>319</ele>
        <time>2011-03-26T16:03:23Z</time>
      </trkpt>
      <trkpt lat="44.05687" lon="2.08022">
        <ele>319</ele>
        <time>2011-03-26T16:03:24Z</time>
      </trkpt>
      <trkpt lat="44.05691" lon="2.08023">
        <ele>319</ele>
        <time>2011-03-26T16:03:25Z</time>
      </trkpt>
      <trkpt lat="44.05694" lon="2.08025">
        <ele>319</ele>
        <time>2011-03-26T16:03:26Z</time>
      </trkpt>
      <trkpt lat="44.05697" lon="2.08026">
        <ele>319</ele>
        <time>2011-03-26T16:03:27Z</time>
      </trkpt>
      <trkpt lat="44.057" lon="2.08028">
        <ele>319</ele>
        <time>2011-03-26T16:03:28Z</time>
      </trkpt>
      <trkpt lat="44.05704" lon="2.08029">
        <ele>319</ele>
        <time>2011-03-26T16:03:29Z</time>
      </trkpt>
      <trkpt lat="44.05707" lon="2.08031">
        <ele>319</ele>
        <time>2011-03-26T16:03:30Z</time>
      </trkpt>
      <trkpt lat="44.0571" lon="2.08033">
        <ele>322</ele>
        <time>2011-03-26T16:03:31Z</time>
      </trkpt>
      <trkpt lat="44.05713" lon="2.08035">
        <ele>322</ele>
        <time>2011-03-26T16:03:32Z</time>
      </trkpt>
      <trkpt lat="44.05715" lon="2.08036">
        <ele>322</ele>
        <time>2011-03-26T16:03:33Z</time>
      </trkpt>
      <trkpt lat="44.05718" lon="2.08038">
        <ele>322</ele>
        <time>2011-03-26T16:03:34Z</time>
      </trkpt>
      <trkpt lat="44.05721" lon="2.08039">
        <ele>322</ele>
        <time>2011-03-26T16:03:35Z</time>
      </trkpt>
      <trkpt lat="44.05724" lon="2.08041">
        <ele>322</ele>
        <time>2011-03-26T16:03:36Z</time>
      </trkpt>
      <trkpt lat="44.05726" lon="2.08043">
        <ele>323</ele>
        <time>2011-03-26T16:03:37Z</time>
      </trkpt>
      <trkpt lat="44.05729" lon="2.08044">
        <ele>323</ele>
        <time>2011-03-26T16:03:38Z</time>
      </trkpt>
      <trkpt lat="44.05731" lon="2.08047">
        <ele>323</ele>
        <time>2011-03-26T16:03:39Z</time>
      </trkpt>
      <trkpt lat="44.05734" lon="2.08048">
        <ele>323</ele>
        <time>2011-03-26T16:03:40Z</time>
      </trkpt>
      <trkpt lat="44.05737" lon="2.0805">
        <ele>323</ele>
        <time>2011-03-26T16:03:41Z</time>
      </trkpt>
      <trkpt lat="44.05739" lon="2.08052">
        <ele>323</ele>
        <time>2011-03-26T16:03:42Z</time>
      </trkpt>
      <trkpt lat="44.05742" lon="2.08054">
        <ele>323</ele>
        <time>2011-03-26T16:03:43Z</time>
      </trkpt>
      <trkpt lat="44.05744" lon="2.08056">
        <ele>323</ele>
        <time>2011-03-26T16:03:44Z</time>
      </trkpt>
      <trkpt lat="44.05747" lon="2.08056">
        <ele>323</ele>
        <time>2011-03-26T16:03:45Z</time>
      </trkpt>
      <trkpt lat="44.0575" lon="2.08058">
        <ele>323</ele>
        <time>2011-03-26T16:03:46Z</time>
      </trkpt>
      <trkpt lat="44.05754" lon="2.0806">
        <ele>323</ele>
        <time>2011-03-26T16:03:47Z</time>
      </trkpt>
      <trkpt lat="44.05759" lon="2.08067">
        <ele>323</ele>
        <time>2011-03-26T16:03:49Z</time>
      </trkpt>
      <trkpt lat="44.05761" lon="2.08071">
        <ele>323</ele>
        <time>2011-03-26T16:03:50Z</time>
      </trkpt>
      <trkpt lat="44.05763" lon="2.08075">
        <ele>323</ele>
        <time>2011-03-26T16:03:51Z</time>
      </trkpt>
      <trkpt lat="44.05764" lon="2.0808">
        <ele>323</ele>
        <time>2011-03-26T16:03:52Z</time>
      </trkpt>
      <trkpt lat="44.05764" lon="2.08085">
        <ele>323</ele>
        <time>2011-03-26T16:03:53Z</time>
      </trkpt>
      <trkpt lat="44.05765" lon="2.0809">
        <ele>323</ele>
        <time>2011-03-26T16:03:54Z</time>
      </trkpt>
      <trkpt lat="44.05765" lon="2.08094">
        <ele>323</ele>
        <time>2011-03-26T16:03:55Z</time>
      </trkpt>
      <trkpt lat="44.05765" lon="2.08099">
        <ele>323</ele>
        <time>2011-03-26T16:03:56Z</time>
      </trkpt>
      <trkpt lat="44.05765" lon="2.08104">
        <ele>323</ele>
        <time>2011-03-26T16:03:57Z</time>
      </trkpt>
      <trkpt lat="44.05765" lon="2.08109">
        <ele>323</ele>
        <time>2011-03-26T16:03:58Z</time>
      </trkpt>
      <trkpt lat="44.05765" lon="2.08114">
        <ele>323</ele>
        <time>2011-03-26T16:03:59Z</time>
      </trkpt>
      <trkpt lat="44.05765" lon="2.08119">
        <ele>323</ele>
        <time>2011-03-26T16:04:00Z</time>
      </trkpt>
      <trkpt lat="44.05765" lon="2.08124">
        <ele>323</ele>
        <time>2011-03-26T16:04:01Z</time>
      </trkpt>
      <trkpt lat="44.05764" lon="2.08129">
        <ele>323</ele>
        <time>2011-03-26T16:04:02Z</time>
      </trkpt>
      <trkpt lat="44.05765" lon="2.08134">
        <ele>323</ele>
        <time>2011-03-26T16:04:03Z</time>
      </trkpt>
      <trkpt lat="44.05765" lon="2.0814">
        <ele>323</ele>
        <time>2011-03-26T16:04:04Z</time>
      </trkpt>
      <trkpt lat="44.05765" lon="2.08145">
        <ele>323</ele>
        <time>2011-03-26T16:04:05Z</time>
      </trkpt>
      <trkpt lat="44.05766" lon="2.0815">
        <ele>323</ele>
        <time>2011-03-26T16:04:06Z</time>
      </trkpt>
      <trkpt lat="44.05766" lon="2.08155">
        <ele>323</ele>
        <time>2011-03-26T16:04:07Z</time>
      </trkpt>
      <trkpt lat="44.05766" lon="2.0816">
        <ele>323</ele>
        <time>2011-03-26T16:04:08Z</time>
      </trkpt>
      <trkpt lat="44.05766" lon="2.08166">
        <ele>323</ele>
        <time>2011-03-26T16:04:09Z</time>
      </trkpt>
      <trkpt lat="44.05766" lon="2.08171">
        <ele>323</ele>
        <time>2011-03-26T16:04:10Z</time>
      </trkpt>
      <trkpt lat="44.05766" lon="2.08176">
        <ele>323</ele>
        <time>2011-03-26T16:04:11Z</time>
      </trkpt>
      <trkpt lat="44.05766" lon="2.08182">
        <ele>323</ele>
        <time>2011-03-26T16:04:12Z</time>
      </trkpt>
      <trkpt lat="44.05766" lon="2.08187">
        <ele>323</ele>
        <time>2011-03-26T16:04:13Z</time>
      </trkpt>
      <trkpt lat="44.05766" lon="2.08192">
        <ele>323</ele>
        <time>2011-03-26T16:04:14Z</time>
      </trkpt>
      <trkpt lat="44.05767" lon="2.08197">
        <ele>323</ele>
        <time>2011-03-26T16:04:15Z</time>
      </trkpt>
      <trkpt lat="44.05767" lon="2.08202">
        <ele>323</ele>
        <time>2011-03-26T16:04:16Z</time>
      </trkpt>
      <trkpt lat="44.05767" lon="2.08207">
        <ele>323</ele>
        <time>2011-03-26T16:04:17Z</time>
      </trkpt>
      <trkpt lat="44.05767" lon="2.08212">
        <ele>323</ele>
        <time>2011-03-26T16:04:18Z</time>
      </trkpt>
      <trkpt lat="44.05767" lon="2.08217">
        <ele>323</ele>
        <time>2011-03-26T16:04:19Z</time>
      </trkpt>
      <trkpt lat="44.05767" lon="2.08222">
        <ele>323</ele>
        <time>2011-03-26T16:04:20Z</time>
      </trkpt>
      <trkpt lat="44.05767" lon="2.08228">
        <ele>323</ele>
        <time>2011-03-26T16:04:21Z</time>
      </trkpt>
      <trkpt lat="44.05767" lon="2.08233">
        <ele>323</ele>
        <time>2011-03-26T16:04:22Z</time>
      </trkpt>
      <trkpt lat="44.05767" lon="2.08238">
        <ele>323</ele>
        <time>2011-03-26T16:04:23Z</time>
      </trkpt>
      <trkpt lat="44.05767" lon="2.08243">
        <ele>323</ele>
        <time>2011-03-26T16:04:24Z</time>
      </trkpt>
      <trkpt lat="44.05767" lon="2.08248">
        <ele>323</ele>
        <time>2011-03-26T16:04:25Z</time>
      </trkpt>
      <trkpt lat="44.05767" lon="2.08252">
        <ele>323</ele>
        <time>2011-03-26T16:04:26Z</time>
      </trkpt>
      <trkpt lat="44.05767" lon="2.08257">
        <ele>323</ele>
        <time>2011-03-26T16:04:27Z</time>
      </trkpt>
      <trkpt lat="44.05768" lon="2.08262">
        <ele>323</ele>
        <time>2011-03-26T16:04:28Z</time>
      </trkpt>
      <trkpt lat="44.05768" lon="2.08267">
        <ele>323</ele>
        <time>2011-03-26T16:04:29Z</time>
      </trkpt>
      <trkpt lat="44.05768" lon="2.08272">
        <ele>323</ele>
        <time>2011-03-26T16:04:30Z</time>
      </trkpt>
      <trkpt lat="44.05768" lon="2.08277">
        <ele>323</ele>
        <time>2011-03-26T16:04:31Z</time>
      </trkpt>
      <trkpt lat="44.05768" lon="2.08282">
        <ele>323</ele>
        <time>2011-03-26T16:04:32Z</time>
      </trkpt>
      <trkpt lat="44.05768" lon="2.08287">
        <ele>323</ele>
        <time>2011-03-26T16:04:33Z</time>
      </trkpt>
      <trkpt lat="44.05768" lon="2.08292">
        <ele>325</ele>
        <time>2011-03-26T16:04:34Z</time>
      </trkpt>
      <trkpt lat="44.05768" lon="2.08297">
        <ele>325</ele>
        <time>2011-03-26T16:04:35Z</time>
      </trkpt>
      <trkpt lat="44.05768" lon="2.08303">
        <ele>325</ele>
        <time>2011-03-26T16:04:36Z</time>
      </trkpt>
      <trkpt lat="44.05769" lon="2.08308">
        <ele>325</ele>
        <time>2011-03-26T16:04:37Z</time>
      </trkpt>
      <trkpt lat="44.05769" lon="2.08313">
        <ele>325</ele>
        <time>2011-03-26T16:04:38Z</time>
      </trkpt>
      <trkpt lat="44.05769" lon="2.08319">
        <ele>325</ele>
        <time>2011-03-26T16:04:39Z</time>
      </trkpt>
      <trkpt lat="44.05769" lon="2.08324">
        <ele>325</ele>
        <time>2011-03-26T16:04:40Z</time>
      </trkpt>
      <trkpt lat="44.05769" lon="2.08328">
        <ele>325</ele>
        <time>2011-03-26T16:04:41Z</time>
      </trkpt>
      <trkpt lat="44.05769" lon="2.08333">
        <ele>325</ele>
        <time>2011-03-26T16:04:42Z</time>
      </trkpt>
      <trkpt lat="44.05769" lon="2.08339">
        <ele>325</ele>
        <time>2011-03-26T16:04:43Z</time>
      </trkpt>
      <trkpt lat="44.05769" lon="2.08344">
        <ele>325</ele>
        <time>2011-03-26T16:04:44Z</time>
      </trkpt>
      <trkpt lat="44.05769" lon="2.08349">
        <ele>325</ele>
        <time>2011-03-26T16:04:45Z</time>
      </trkpt>
      <trkpt lat="44.0577" lon="2.08354">
        <ele>325</ele>
        <time>2011-03-26T16:04:46Z</time>
      </trkpt>
      <trkpt lat="44.0577" lon="2.08359">
        <ele>325</ele>
        <time>2011-03-26T16:04:47Z</time>
      </trkpt>
      <trkpt lat="44.0577" lon="2.08364">
        <ele>325</ele>
        <time>2011-03-26T16:04:48Z</time>
      </trkpt>
      <trkpt lat="44.05771" lon="2.08369">
        <ele>325</ele>
        <time>2011-03-26T16:04:49Z</time>
      </trkpt>
      <trkpt lat="44.05771" lon="2.08373">
        <ele>325</ele>
        <time>2011-03-26T16:04:50Z</time>
      </trkpt>
      <trkpt lat="44.05771" lon="2.08378">
        <ele>326</ele>
        <time>2011-03-26T16:04:51Z</time>
      </trkpt>
      <trkpt lat="44.05772" lon="2.08383">
        <ele>326</ele>
        <time>2011-03-26T16:04:52Z</time>
      </trkpt>
      <trkpt lat="44.05772" lon="2.08388">
        <ele>326</ele>
        <time>2011-03-26T16:04:53Z</time>
      </trkpt>
      <trkpt lat="44.05772" lon="2.08393">
        <ele>326</ele>
        <time>2011-03-26T16:04:54Z</time>
      </trkpt>
      <trkpt lat="44.05772" lon="2.08398">
        <ele>326</ele>
        <time>2011-03-26T16:04:55Z</time>
      </trkpt>
      <trkpt lat="44.05773" lon="2.08403">
        <ele>326</ele>
        <time>2011-03-26T16:04:56Z</time>
      </trkpt>
      <trkpt lat="44.05773" lon="2.08409">
        <ele>326</ele>
        <time>2011-03-26T16:04:57Z</time>
      </trkpt>
      <trkpt lat="44.05772" lon="2.08414">
        <ele>326</ele>
        <time>2011-03-26T16:04:58Z</time>
      </trkpt>
      <trkpt lat="44.05773" lon="2.08419">
        <ele>326</ele>
        <time>2011-03-26T16:04:59Z</time>
      </trkpt>
      <trkpt lat="44.05773" lon="2.08425">
        <ele>326</ele>
        <time>2011-03-26T16:05:00Z</time>
      </trkpt>
      <trkpt lat="44.05773" lon="2.0843">
        <ele>326</ele>
        <time>2011-03-26T16:05:01Z</time>
      </trkpt>
      <trkpt lat="44.05773" lon="2.08435">
        <ele>326</ele>
        <time>2011-03-26T16:05:02Z</time>
      </trkpt>
      <trkpt lat="44.05773" lon="2.08441">
        <ele>326</ele>
        <time>2011-03-26T16:05:03Z</time>
      </trkpt>
      <trkpt lat="44.05774" lon="2.08446">
        <ele>326</ele>
        <time>2011-03-26T16:05:04Z</time>
      </trkpt>
      <trkpt lat="44.05774" lon="2.08451">
        <ele>326</ele>
        <time>2011-03-26T16:05:05Z</time>
      </trkpt>
      <trkpt lat="44.05774" lon="2.08457">
        <ele>326</ele>
        <time>2011-03-26T16:05:06Z</time>
      </trkpt>
      <trkpt lat="44.05774" lon="2.08462">
        <ele>328</ele>
        <time>2011-03-26T16:05:07Z</time>
      </trkpt>
      <trkpt lat="44.05774" lon="2.08468">
        <ele>328</ele>
        <time>2011-03-26T16:05:08Z</time>
      </trkpt>
      <trkpt lat="44.05775" lon="2.08473">
        <ele>328</ele>
        <time>2011-03-26T16:05:09Z</time>
      </trkpt>
      <trkpt lat="44.05775" lon="2.08479">
        <ele>328</ele>
        <time>2011-03-26T16:05:10Z</time>
      </trkpt>
      <trkpt lat="44.05775" lon="2.08484">
        <ele>328</ele>
        <time>2011-03-26T16:05:11Z</time>
      </trkpt>
      <trkpt lat="44.05775" lon="2.08489">
        <ele>328</ele>
        <time>2011-03-26T16:05:12Z</time>
      </trkpt>
      <trkpt lat="44.05775" lon="2.08495">
        <ele>328</ele>
        <time>2011-03-26T16:05:13Z</time>
      </trkpt>
      <trkpt lat="44.05775" lon="2.085">
        <ele>328</ele>
        <time>2011-03-26T16:05:14Z</time>
      </trkpt>
      <trkpt lat="44.05775" lon="2.08505">
        <ele>328</ele>
        <time>2011-03-26T16:05:15Z</time>
      </trkpt>
      <trkpt lat="44.05775" lon="2.08511">
        <ele>328</ele>
        <time>2011-03-26T16:05:16Z</time>
      </trkpt>
      <trkpt lat="44.05775" lon="2.08517">
        <ele>328</ele>
        <time>2011-03-26T16:05:17Z</time>
      </trkpt>
      <trkpt lat="44.05775" lon="2.08523">
        <ele>328</ele>
        <time>2011-03-26T16:05:18Z</time>
      </trkpt>
      <trkpt lat="44.05776" lon="2.08529">
        <ele>328</ele>
        <time>2011-03-26T16:05:19Z</time>
      </trkpt>
      <trkpt lat="44.05776" lon="2.08534">
        <ele>328</ele>
        <time>2011-03-26T16:05:20Z</time>
      </trkpt>
      <trkpt lat="44.05776" lon="2.0854">
        <ele>328</ele>
        <time>2011-03-26T16:05:21Z</time>
      </trkpt>
      <trkpt lat="44.05777" lon="2.08545">
        <ele>327</ele>
        <time>2011-03-26T16:05:22Z</time>
      </trkpt>
      <trkpt lat="44.05777" lon="2.08551">
        <ele>327</ele>
        <time>2011-03-26T16:05:23Z</time>
      </trkpt>
      <trkpt lat="44.05776" lon="2.08556">
        <ele>327</ele>
        <time>2011-03-26T16:05:24Z</time>
      </trkpt>
      <trkpt lat="44.05777" lon="2.08561">
        <ele>327</ele>
        <time>2011-03-26T16:05:25Z</time>
      </trkpt>
      <trkpt lat="44.05777" lon="2.08567">
        <ele>327</ele>
        <time>2011-03-26T16:05:26Z</time>
      </trkpt>
      <trkpt lat="44.05777" lon="2.08573">
        <ele>327</ele>
        <time>2011-03-26T16:05:27Z</time>
      </trkpt>
      <trkpt lat="44.05777" lon="2.08579">
        <ele>327</ele>
        <time>2011-03-26T16:05:28Z</time>
      </trkpt>
      <trkpt lat="44.05776" lon="2.08597">
        <ele>327</ele>
        <time>2011-03-26T16:05:31Z</time>
      </trkpt>
      <trkpt lat="44.05776" lon="2.08603">
        <ele>327</ele>
        <time>2011-03-26T16:05:32Z</time>
      </trkpt>
      <trkpt lat="44.05775" lon="2.0861">
        <ele>327</ele>
        <time>2011-03-26T16:05:33Z</time>
      </trkpt>
      <trkpt lat="44.05775" lon="2.08617">
        <ele>327</ele>
        <time>2011-03-26T16:05:34Z</time>
      </trkpt>
      <trkpt lat="44.05774" lon="2.08624">
        <ele>327</ele>
        <time>2011-03-26T16:05:35Z</time>
      </trkpt>
      <trkpt lat="44.05772" lon="2.08631">
        <ele>325</ele>
        <time>2011-03-26T16:05:36Z</time>
      </trkpt>
      <trkpt lat="44.05771" lon="2.08638">
        <ele>325</ele>
        <time>2011-03-26T16:05:37Z</time>
      </trkpt>
      <trkpt lat="44.05769" lon="2.08646">
        <ele>325</ele>
        <time>2011-03-26T16:05:38Z</time>
      </trkpt>
      <trkpt lat="44.05766" lon="2.08653">
        <ele>325</ele>
        <time>2011-03-26T16:05:39Z</time>
      </trkpt>
      <trkpt lat="44.05763" lon="2.08661">
        <ele>325</ele>
        <time>2011-03-26T16:05:40Z</time>
      </trkpt>
      <trkpt lat="44.05761" lon="2.08668">
        <ele>325</ele>
        <time>2011-03-26T16:05:41Z</time>
      </trkpt>
      <trkpt lat="44.05758" lon="2.08675">
        <ele>325</ele>
        <time>2011-03-26T16:05:42Z</time>
      </trkpt>
      <trkpt lat="44.05754" lon="2.08683">
        <ele>325</ele>
        <time>2011-03-26T16:05:43Z</time>
      </trkpt>
      <trkpt lat="44.05751" lon="2.0869">
        <ele>325</ele>
        <time>2011-03-26T16:05:44Z</time>
      </trkpt>
      <trkpt lat="44.05747" lon="2.08698">
        <ele>325</ele>
        <time>2011-03-26T16:05:45Z</time>
      </trkpt>
      <trkpt lat="44.05744" lon="2.08706">
        <ele>325</ele>
        <time>2011-03-26T16:05:46Z</time>
      </trkpt>
      <trkpt lat="44.0574" lon="2.08714">
        <ele>323</ele>
        <time>2011-03-26T16:05:47Z</time>
      </trkpt>
      <trkpt lat="44.05736" lon="2.08722">
        <ele>323</ele>
        <time>2011-03-26T16:05:48Z</time>
      </trkpt>
      <trkpt lat="44.05732" lon="2.0873">
        <ele>323</ele>
        <time>2011-03-26T16:05:49Z</time>
      </trkpt>
      <trkpt lat="44.05728" lon="2.08738">
        <ele>323</ele>
        <time>2011-03-26T16:05:50Z</time>
      </trkpt>
      <trkpt lat="44.05725" lon="2.08747">
        <ele>323</ele>
        <time>2011-03-26T16:05:51Z</time>
      </trkpt>
      <trkpt lat="44.05721" lon="2.08755">
        <ele>323</ele>
        <time>2011-03-26T16:05:52Z</time>
      </trkpt>
      <trkpt lat="44.05718" lon="2.08763">
        <ele>323</ele>
        <time>2011-03-26T16:05:53Z</time>
      </trkpt>
      <trkpt lat="44.05715" lon="2.08772">
        <ele>323</ele>
        <time>2011-03-26T16:05:54Z</time>
      </trkpt>
      <trkpt lat="44.05712" lon="2.0878">
        <ele>323</ele>
        <time>2011-03-26T16:05:55Z</time>
      </trkpt>
      <trkpt lat="44.05709" lon="2.08789">
        <ele>323</ele>
        <time>2011-03-26T16:05:56Z</time>
      </trkpt>
      <trkpt lat="44.05707" lon="2.08798">
        <ele>322</ele>
        <time>2011-03-26T16:05:57Z</time>
      </trkpt>
      <trkpt lat="44.05705" lon="2.08807">
        <ele>322</ele>
        <time>2011-03-26T16:05:58Z</time>
      </trkpt>
      <trkpt lat="44.05703" lon="2.08816">
        <ele>322</ele>
        <time>2011-03-26T16:05:59Z</time>
      </trkpt>
      <trkpt lat="44.057" lon="2.08825">
        <ele>322</ele>
        <time>2011-03-26T16:06:00Z</time>
      </trkpt>
      <trkpt lat="44.05698" lon="2.08834">
        <ele>322</ele>
        <time>2011-03-26T16:06:01Z</time>
      </trkpt>
      <trkpt lat="44.05696" lon="2.08843">
        <ele>322</ele>
        <time>2011-03-26T16:06:02Z</time>
      </trkpt>
      <trkpt lat="44.05694" lon="2.08853">
        <ele>322</ele>
        <time>2011-03-26T16:06:03Z</time>
      </trkpt>
      <trkpt lat="44.05692" lon="2.08862">
        <ele>322</ele>
        <time>2011-03-26T16:06:04Z</time>
      </trkpt>
      <trkpt lat="44.05689" lon="2.08871">
        <ele>322</ele>
        <time>2011-03-26T16:06:05Z</time>
      </trkpt>
      <trkpt lat="44.05687" lon="2.0888">
        <ele>320</ele>
        <time>2011-03-26T16:06:06Z</time>
      </trkpt>
      <trkpt lat="44.05684" lon="2.0889">
        <ele>320</ele>
        <time>2011-03-26T16:06:07Z</time>
      </trkpt>
      <trkpt lat="44.05682" lon="2.08899">
        <ele>320</ele>
        <time>2011-03-26T16:06:08Z</time>
      </trkpt>
      <trkpt lat="44.05679" lon="2.08908">
        <ele>320</ele>
        <time>2011-03-26T16:06:09Z</time>
      </trkpt>
      <trkpt lat="44.05677" lon="2.08918">
        <ele>320</ele>
        <time>2011-03-26T16:06:10Z</time>
      </trkpt>
      <trkpt lat="44.05674" lon="2.08927">
        <ele>320</ele>
        <time>2011-03-26T16:06:11Z</time>
      </trkpt>
      <trkpt lat="44.05672" lon="2.08936">
        <ele>320</ele>
        <time>2011-03-26T16:06:12Z</time>
      </trkpt>
      <trkpt lat="44.05669" lon="2.08945">
        <ele>320</ele>
        <time>2011-03-26T16:06:13Z</time>
      </trkpt>
      <trkpt lat="44.05667" lon="2.08954">
        <ele>320</ele>
        <time>2011-03-26T16:06:14Z</time>
      </trkpt>
      <trkpt lat="44.05665" lon="2.08962">
        <ele>318</ele>
        <time>2011-03-26T16:06:15Z</time>
      </trkpt>
      <trkpt lat="44.05663" lon="2.08971">
        <ele>318</ele>
        <time>2011-03-26T16:06:16Z</time>
      </trkpt>
      <trkpt lat="44.05661" lon="2.0898">
        <ele>318</ele>
        <time>2011-03-26T16:06:17Z</time>
      </trkpt>
      <trkpt lat="44.05659" lon="2.08988">
        <ele>318</ele>
        <time>2011-03-26T16:06:18Z</time>
      </trkpt>
      <trkpt lat="44.05657" lon="2.08997">
        <ele>318</ele>
        <time>2011-03-26T16:06:19Z</time>
      </trkpt>
      <trkpt lat="44.05655" lon="2.09005">
        <ele>318</ele>
        <time>2011-03-26T16:06:20Z</time>
      </trkpt>
      <trkpt lat="44.05653" lon="2.09013">
        <ele>318</ele>
        <time>2011-03-26T16:06:21Z</time>
      </trkpt>
      <trkpt lat="44.05651" lon="2.09021">
        <ele>318</ele>
        <time>2011-03-26T16:06:22Z</time>
      </trkpt>
      <trkpt lat="44.05649" lon="2.09028">
        <ele>318</ele>
        <time>2011-03-26T16:06:23Z</time>
      </trkpt>
      <trkpt lat="44.05647" lon="2.09036">
        <ele>318</ele>
        <time>2011-03-26T16:06:24Z</time>
      </trkpt>
      <trkpt lat="44.05645" lon="2.09044">
        <ele>318</ele>
        <time>2011-03-26T16:06:25Z</time>
      </trkpt>
      <trkpt lat="44.05643" lon="2.09051">
        <ele>318</ele>
        <time>2011-03-26T16:06:26Z</time>
      </trkpt>
      <trkpt lat="44.05641" lon="2.09059">
        <ele>318</ele>
        <time>2011-03-26T16:06:27Z</time>
      </trkpt>
      <trkpt lat="44.0564" lon="2.09066">
        <ele>318</ele>
        <time>2011-03-26T16:06:28Z</time>
      </trkpt>
      <trkpt lat="44.05638" lon="2.09074">
        <ele>318</ele>
        <time>2011-03-26T16:06:29Z</time>
      </trkpt>
      <trkpt lat="44.05636" lon="2.09081">
        <ele>318</ele>
        <time>2011-03-26T16:06:30Z</time>
      </trkpt>
      <trkpt lat="44.05634" lon="2.09089">
        <ele>318</ele>
        <time>2011-03-26T16:06:31Z</time>
      </trkpt>
      <trkpt lat="44.05632" lon="2.09097">
        <ele>318</ele>
        <time>2011-03-26T16:06:32Z</time>
      </trkpt>
      <trkpt lat="44.0563" lon="2.09104">
        <ele>318</ele>
        <time>2011-03-26T16:06:33Z</time>
      </trkpt>
      <trkpt lat="44.05628" lon="2.09111">
        <ele>318</ele>
        <time>2011-03-26T16:06:34Z</time>
      </trkpt>
      <trkpt lat="44.05626" lon="2.09118">
        <ele>318</ele>
        <time>2011-03-26T16:06:35Z</time>
      </trkpt>
      <trkpt lat="44.05625" lon="2.09126">
        <ele>321</ele>
        <time>2011-03-26T16:06:36Z</time>
      </trkpt>
      <trkpt lat="44.05623" lon="2.09133">
        <ele>321</ele>
        <time>2011-03-26T16:06:37Z</time>
      </trkpt>
      <trkpt lat="44.05621" lon="2.0914">
        <ele>321</ele>
        <time>2011-03-26T16:06:38Z</time>
      </trkpt>
      <trkpt lat="44.0562" lon="2.09147">
        <ele>321</ele>
        <time>2011-03-26T16:06:39Z</time>
      </trkpt>
      <trkpt lat="44.05618" lon="2.09155">
        <ele>321</ele>
        <time>2011-03-26T16:06:40Z</time>
      </trkpt>
      <trkpt lat="44.05616" lon="2.09162">
        <ele>321</ele>
        <time>2011-03-26T16:06:41Z</time>
      </trkpt>
      <trkpt lat="44.05614" lon="2.09169">
        <ele>321</ele>
        <time>2011-03-26T16:06:42Z</time>
      </trkpt>
      <trkpt lat="44.05612" lon="2.09176">
        <ele>321</ele>
        <time>2011-03-26T16:06:43Z</time>
      </trkpt>
      <trkpt lat="44.0561" lon="2.09183">
        <ele>321</ele>
        <time>2011-03-26T16:06:44Z</time>
      </trkpt>
      <trkpt lat="44.05608" lon="2.0919">
        <ele>321</ele>
        <time>2011-03-26T16:06:45Z</time>
      </trkpt>
      <trkpt lat="44.05606" lon="2.09197">
        <ele>321</ele>
        <time>2011-03-26T16:06:46Z</time>
      </trkpt>
      <trkpt lat="44.05603" lon="2.09204">
        <ele>321</ele>
        <time>2011-03-26T16:06:47Z</time>
      </trkpt>
      <trkpt lat="44.05601" lon="2.0921">
        <ele>321</ele>
        <time>2011-03-26T16:06:48Z</time>
      </trkpt>
      <trkpt lat="44.05599" lon="2.09216">
        <ele>321</ele>
        <time>2011-03-26T16:06:49Z</time>
      </trkpt>
      <trkpt lat="44.05597" lon="2.09223">
        <ele>321</ele>
        <time>2011-03-26T16:06:50Z</time>
      </trkpt>
      <trkpt lat="44.05595" lon="2.09229">
        <ele>321</ele>
        <time>2011-03-26T16:06:51Z</time>
      </trkpt>
      <trkpt lat="44.05592" lon="2.09236">
        <ele>321</ele>
        <time>2011-03-26T16:06:52Z</time>
      </trkpt>
      <trkpt lat="44.0559" lon="2.09242">
        <ele>321</ele>
        <time>2011-03-26T16:06:53Z</time>
      </trkpt>
      <trkpt lat="44.05588" lon="2.09249">
        <ele>321</ele>
        <time>2011-03-26T16:06:54Z</time>
      </trkpt>
      <trkpt lat="44.05586" lon="2.09256">
        <ele>321</ele>
        <time>2011-03-26T16:06:55Z</time>
      </trkpt>
      <trkpt lat="44.05584" lon="2.09263">
        <ele>321</ele>
        <time>2011-03-26T16:06:56Z</time>
      </trkpt>
      <trkpt lat="44.05582" lon="2.09269">
        <ele>321</ele>
        <time>2011-03-26T16:06:57Z</time>
      </trkpt>
      <trkpt lat="44.05579" lon="2.09276">
        <ele>321</ele>
        <time>2011-03-26T16:06:58Z</time>
      </trkpt>
      <trkpt lat="44.05577" lon="2.09283">
        <ele>321</ele>
        <time>2011-03-26T16:06:59Z</time>
      </trkpt>
      <trkpt lat="44.05575" lon="2.09289">
        <ele>321</ele>
        <time>2011-03-26T16:07:00Z</time>
      </trkpt>
      <trkpt lat="44.05573" lon="2.09296">
        <ele>319</ele>
        <time>2011-03-26T16:07:01Z</time>
      </trkpt>
      <trkpt lat="44.05571" lon="2.09303">
        <ele>319</ele>
        <time>2011-03-26T16:07:02Z</time>
      </trkpt>
      <trkpt lat="44.05569" lon="2.09309">
        <ele>319</ele>
        <time>2011-03-26T16:07:03Z</time>
      </trkpt>
      <trkpt lat="44.05567" lon="2.09316">
        <ele>319</ele>
        <time>2011-03-26T16:07:04Z</time>
      </trkpt>
      <trkpt lat="44.05565" lon="2.09322">
        <ele>319</ele>
        <time>2011-03-26T16:07:05Z</time>
      </trkpt>
      <trkpt lat="44.05563" lon="2.09329">
        <ele>319</ele>
        <time>2011-03-26T16:07:06Z</time>
      </trkpt>
      <trkpt lat="44.0556" lon="2.09335">
        <ele>319</ele>
        <time>2011-03-26T16:07:07Z</time>
      </trkpt>
      <trkpt lat="44.05558" lon="2.09341">
        <ele>319</ele>
        <time>2011-03-26T16:07:08Z</time>
      </trkpt>
      <trkpt lat="44.05556" lon="2.09347">
        <ele>319</ele>
        <time>2011-03-26T16:07:09Z</time>
      </trkpt>
      <trkpt lat="44.05554" lon="2.09353">
        <ele>319</ele>
        <time>2011-03-26T16:07:10Z</time>
      </trkpt>
      <trkpt lat="44.05547" lon="2.09372">
        <ele>319</ele>
        <time>2011-03-26T16:07:13Z</time>
      </trkpt>
      <trkpt lat="44.05546" lon="2.09379">
        <ele>317</ele>
        <time>2011-03-26T16:07:14Z</time>
      </trkpt>
      <trkpt lat="44.05544" lon="2.09386">
        <ele>317</ele>
        <time>2011-03-26T16:07:15Z</time>
      </trkpt>
      <trkpt lat="44.05542" lon="2.09392">
        <ele>317</ele>
        <time>2011-03-26T16:07:16Z</time>
      </trkpt>
      <trkpt lat="44.05541" lon="2.09399">
        <ele>318</ele>
        <time>2011-03-26T16:07:17Z</time>
      </trkpt>
      <trkpt lat="44.05539" lon="2.09406">
        <ele>318</ele>
        <time>2011-03-26T16:07:18Z</time>
      </trkpt>
      <trkpt lat="44.05538" lon="2.09413">
        <ele>318</ele>
        <time>2011-03-26T16:07:19Z</time>
      </trkpt>
      <trkpt lat="44.05536" lon="2.0942">
        <ele>318</ele>
        <time>2011-03-26T16:07:20Z</time>
      </trkpt>
      <trkpt lat="44.05535" lon="2.09428">
        <ele>318</ele>
        <time>2011-03-26T16:07:21Z</time>
      </trkpt>
      <trkpt lat="44.05534" lon="2.09435">
        <ele>318</ele>
        <time>2011-03-26T16:07:22Z</time>
      </trkpt>
      <trkpt lat="44.05532" lon="2.09442">
        <ele>318</ele>
        <time>2011-03-26T16:07:23Z</time>
      </trkpt>
      <trkpt lat="44.05531" lon="2.09449">
        <ele>318</ele>
        <time>2011-03-26T16:07:24Z</time>
      </trkpt>
      <trkpt lat="44.0553" lon="2.09456">
        <ele>318</ele>
        <time>2011-03-26T16:07:25Z</time>
      </trkpt>
      <trkpt lat="44.05529" lon="2.09463">
        <ele>320</ele>
        <time>2011-03-26T16:07:26Z</time>
      </trkpt>
      <trkpt lat="44.05527" lon="2.0947">
        <ele>320</ele>
        <time>2011-03-26T16:07:27Z</time>
      </trkpt>
      <trkpt lat="44.05526" lon="2.09477">
        <ele>320</ele>
        <time>2011-03-26T16:07:28Z</time>
      </trkpt>
      <trkpt lat="44.05526" lon="2.09483">
        <ele>320</ele>
        <time>2011-03-26T16:07:29Z</time>
      </trkpt>
      <trkpt lat="44.05525" lon="2.09489">
        <ele>320</ele>
        <time>2011-03-26T16:07:30Z</time>
      </trkpt>
      <trkpt lat="44.05524" lon="2.09495">
        <ele>320</ele>
        <time>2011-03-26T16:07:31Z</time>
      </trkpt>
      <trkpt lat="44.05523" lon="2.09501">
        <ele>320</ele>
        <time>2011-03-26T16:07:32Z</time>
      </trkpt>
      <trkpt lat="44.05522" lon="2.09506">
        <ele>320</ele>
        <time>2011-03-26T16:07:33Z</time>
      </trkpt>
      <trkpt lat="44.0552" lon="2.09511">
        <ele>320</ele>
        <time>2011-03-26T16:07:34Z</time>
      </trkpt>
      <trkpt lat="44.05519" lon="2.09515">
        <ele>320</ele>
        <time>2011-03-26T16:07:35Z</time>
      </trkpt>
      <trkpt lat="44.05518" lon="2.09519">
        <ele>320</ele>
        <time>2011-03-26T16:07:36Z</time>
      </trkpt>
      <trkpt lat="44.05518" lon="2.09522">
        <ele>320</ele>
        <time>2011-03-26T16:07:37Z</time>
      </trkpt>
      <trkpt lat="44.05518" lon="2.09526">
        <ele>320</ele>
        <time>2011-03-26T16:07:38Z</time>
      </trkpt>
      <trkpt lat="44.05517" lon="2.09528">
        <ele>320</ele>
        <time>2011-03-26T16:07:42Z</time>
      </trkpt>
      <trkpt lat="44.0552" lon="2.09532">
        <ele>320</ele>
        <time>2011-03-26T16:08:38Z</time>
      </trkpt>
      <trkpt lat="44.05521" lon="2.09534">
        <ele>320</ele>
        <time>2011-03-26T16:08:39Z</time>
      </trkpt>
      <trkpt lat="44.05522" lon="2.09538">
        <ele>320</ele>
        <time>2011-03-26T16:08:40Z</time>
      </trkpt>
      <trkpt lat="44.05524" lon="2.09542">
        <ele>321</ele>
        <time>2011-03-26T16:08:41Z</time>
      </trkpt>
      <trkpt lat="44.05525" lon="2.09547">
        <ele>321</ele>
        <time>2011-03-26T16:08:42Z</time>
      </trkpt>
      <trkpt lat="44.05526" lon="2.09551">
        <ele>321</ele>
        <time>2011-03-26T16:08:43Z</time>
      </trkpt>
      <trkpt lat="44.05528" lon="2.09556">
        <ele>321</ele>
        <time>2011-03-26T16:08:44Z</time>
      </trkpt>
      <trkpt lat="44.05529" lon="2.09561">
        <ele>321</ele>
        <time>2011-03-26T16:08:45Z</time>
      </trkpt>
      <trkpt lat="44.05531" lon="2.09566">
        <ele>321</ele>
        <time>2011-03-26T16:08:46Z</time>
      </trkpt>
      <trkpt lat="44.05532" lon="2.09571">
        <ele>321</ele>
        <time>2011-03-26T16:08:47Z</time>
      </trkpt>
      <trkpt lat="44.05533" lon="2.09576">
        <ele>321</ele>
        <time>2011-03-26T16:08:48Z</time>
      </trkpt>
      <trkpt lat="44.05535" lon="2.09582">
        <ele>321</ele>
        <time>2011-03-26T16:08:49Z</time>
      </trkpt>
      <trkpt lat="44.05536" lon="2.09587">
        <ele>321</ele>
        <time>2011-03-26T16:08:50Z</time>
      </trkpt>
      <trkpt lat="44.05538" lon="2.09592">
        <ele>321</ele>
        <time>2011-03-26T16:08:51Z</time>
      </trkpt>
      <trkpt lat="44.05539" lon="2.09597">
        <ele>321</ele>
        <time>2011-03-26T16:08:52Z</time>
      </trkpt>
      <trkpt lat="44.05541" lon="2.09603">
        <ele>321</ele>
        <time>2011-03-26T16:08:53Z</time>
      </trkpt>
      <trkpt lat="44.05542" lon="2.09609">
        <ele>319</ele>
        <time>2011-03-26T16:08:54Z</time>
      </trkpt>
      <trkpt lat="44.05544" lon="2.09615">
        <ele>319</ele>
        <time>2011-03-26T16:08:55Z</time>
      </trkpt>
      <trkpt lat="44.05546" lon="2.0962">
        <ele>319</ele>
        <time>2011-03-26T16:08:56Z</time>
      </trkpt>
      <trkpt lat="44.05548" lon="2.09626">
        <ele>322</ele>
        <time>2011-03-26T16:08:57Z</time>
      </trkpt>
      <trkpt lat="44.05551" lon="2.09632">
        <ele>322</ele>
        <time>2011-03-26T16:08:58Z</time>
      </trkpt>
      <trkpt lat="44.05554" lon="2.09638">
        <ele>322</ele>
        <time>2011-03-26T16:08:59Z</time>
      </trkpt>
      <trkpt lat="44.05557" lon="2.09643">
        <ele>322</ele>
        <time>2011-03-26T16:09:00Z</time>
      </trkpt>
      <trkpt lat="44.0556" lon="2.09647">
        <ele>322</ele>
        <time>2011-03-26T16:09:01Z</time>
      </trkpt>
      <trkpt lat="44.05563" lon="2.09651">
        <ele>322</ele>
        <time>2011-03-26T16:09:02Z</time>
      </trkpt>
      <trkpt lat="44.05566" lon="2.09655">
        <ele>322</ele>
        <time>2011-03-26T16:09:03Z</time>
      </trkpt>
      <trkpt lat="44.05568" lon="2.09659">
        <ele>322</ele>
        <time>2011-03-26T16:09:04Z</time>
      </trkpt>
      <trkpt lat="44.05571" lon="2.09662">
        <ele>322</ele>
        <time>2011-03-26T16:09:05Z</time>
      </trkpt>
      <trkpt lat="44.05574" lon="2.09666">
        <ele>322</ele>
        <time>2011-03-26T16:09:06Z</time>
      </trkpt>
      <trkpt lat="44.05577" lon="2.0967">
        <ele>322</ele>
        <time>2011-03-26T16:09:07Z</time>
      </trkpt>
      <trkpt lat="44.0558" lon="2.09674">
        <ele>322</ele>
        <time>2011-03-26T16:09:08Z</time>
      </trkpt>
      <trkpt lat="44.05584" lon="2.09678">
        <ele>322</ele>
        <time>2011-03-26T16:09:09Z</time>
      </trkpt>
      <trkpt lat="44.05587" lon="2.09682">
        <ele>322</ele>
        <time>2011-03-26T16:09:10Z</time>
      </trkpt>
      <trkpt lat="44.0559" lon="2.09686">
        <ele>322</ele>
        <time>2011-03-26T16:09:11Z</time>
      </trkpt>
      <trkpt lat="44.05594" lon="2.0969">
        <ele>322</ele>
        <time>2011-03-26T16:09:12Z</time>
      </trkpt>
      <trkpt lat="44.05598" lon="2.09695">
        <ele>322</ele>
        <time>2011-03-26T16:09:13Z</time>
      </trkpt>
      <trkpt lat="44.05602" lon="2.09699">
        <ele>322</ele>
        <time>2011-03-26T16:09:14Z</time>
      </trkpt>
      <trkpt lat="44.05605" lon="2.09704">
        <ele>322</ele>
        <time>2011-03-26T16:09:15Z</time>
      </trkpt>
      <trkpt lat="44.05609" lon="2.09708">
        <ele>322</ele>
        <time>2011-03-26T16:09:16Z</time>
      </trkpt>
      <trkpt lat="44.05613" lon="2.09713">
        <ele>323</ele>
        <time>2011-03-26T16:09:17Z</time>
      </trkpt>
      <trkpt lat="44.05616" lon="2.09717">
        <ele>323</ele>
        <time>2011-03-26T16:09:18Z</time>
      </trkpt>
      <trkpt lat="44.0562" lon="2.09722">
        <ele>323</ele>
        <time>2011-03-26T16:09:19Z</time>
      </trkpt>
      <trkpt lat="44.05623" lon="2.09728">
        <ele>323</ele>
        <time>2011-03-26T16:09:20Z</time>
      </trkpt>
      <trkpt lat="44.05626" lon="2.09732">
        <ele>322</ele>
        <time>2011-03-26T16:09:21Z</time>
      </trkpt>
      <trkpt lat="44.05629" lon="2.09737">
        <ele>322</ele>
        <time>2011-03-26T16:09:22Z</time>
      </trkpt>
      <trkpt lat="44.05632" lon="2.09743">
        <ele>322</ele>
        <time>2011-03-26T16:09:23Z</time>
      </trkpt>
      <trkpt lat="44.05635" lon="2.09748">
        <ele>322</ele>
        <time>2011-03-26T16:09:24Z</time>
      </trkpt>
      <trkpt lat="44.05638" lon="2.09754">
        <ele>322</ele>
        <time>2011-03-26T16:09:25Z</time>
      </trkpt>
      <trkpt lat="44.05641" lon="2.09759">
        <ele>322</ele>
        <time>2011-03-26T16:09:26Z</time>
      </trkpt>
      <trkpt lat="44.05644" lon="2.09764">
        <ele>322</ele>
        <time>2011-03-26T16:09:27Z</time>
      </trkpt>
      <trkpt lat="44.05646" lon="2.09769">
        <ele>322</ele>
        <time>2011-03-26T16:09:28Z</time>
      </trkpt>
      <trkpt lat="44.05649" lon="2.09773">
        <ele>322</ele>
        <time>2011-03-26T16:09:29Z</time>
      </trkpt>
      <trkpt lat="44.05651" lon="2.09778">
        <ele>322</ele>
        <time>2011-03-26T16:09:30Z</time>
      </trkpt>
      <trkpt lat="44.05653" lon="2.09783">
        <ele>322</ele>
        <time>2011-03-26T16:09:31Z</time>
      </trkpt>
      <trkpt lat="44.05655" lon="2.09788">
        <ele>322</ele>
        <time>2011-03-26T16:09:32Z</time>
      </trkpt>
      <trkpt lat="44.05658" lon="2.09792">
        <ele>326</ele>
        <time>2011-03-26T16:09:33Z</time>
      </trkpt>
      <trkpt lat="44.05661" lon="2.09797">
        <ele>326</ele>
        <time>2011-03-26T16:09:34Z</time>
      </trkpt>
      <trkpt lat="44.05663" lon="2.09801">
        <ele>326</ele>
        <time>2011-03-26T16:09:35Z</time>
      </trkpt>
      <trkpt lat="44.05666" lon="2.09807">
        <ele>326</ele>
        <time>2011-03-26T16:09:36Z</time>
      </trkpt>
      <trkpt lat="44.05668" lon="2.09812">
        <ele>326</ele>
        <time>2011-03-26T16:09:37Z</time>
      </trkpt>
      <trkpt lat="44.05671" lon="2.09817">
        <ele>326</ele>
        <time>2011-03-26T16:09:38Z</time>
      </trkpt>
      <trkpt lat="44.05674" lon="2.09822">
        <ele>326</ele>
        <time>2011-03-26T16:09:39Z</time>
      </trkpt>
      <trkpt lat="44.05677" lon="2.09827">
        <ele>326</ele>
        <time>2011-03-26T16:09:40Z</time>
      </trkpt>
      <trkpt lat="44.0568" lon="2.09832">
        <ele>326</ele>
        <time>2011-03-26T16:09:41Z</time>
      </trkpt>
      <trkpt lat="44.05683" lon="2.09837">
        <ele>326</ele>
        <time>2011-03-26T16:09:42Z</time>
      </trkpt>
      <trkpt lat="44.05685" lon="2.09842">
        <ele>326</ele>
        <time>2011-03-26T16:09:43Z</time>
      </trkpt>
      <trkpt lat="44.05688" lon="2.09846">
        <ele>326</ele>
        <time>2011-03-26T16:09:44Z</time>
      </trkpt>
      <trkpt lat="44.0569" lon="2.09851">
        <ele>326</ele>
        <time>2011-03-26T16:09:45Z</time>
      </trkpt>
      <trkpt lat="44.05691" lon="2.09856">
        <ele>326</ele>
        <time>2011-03-26T16:09:46Z</time>
      </trkpt>
      <trkpt lat="44.05693" lon="2.0986">
        <ele>326</ele>
        <time>2011-03-26T16:09:47Z</time>
      </trkpt>
      <trkpt lat="44.05696" lon="2.09863">
        <ele>326</ele>
        <time>2011-03-26T16:09:48Z</time>
      </trkpt>
      <trkpt lat="44.05698" lon="2.09867">
        <ele>326</ele>
        <time>2011-03-26T16:09:49Z</time>
      </trkpt>
      <trkpt lat="44.057" lon="2.09871">
        <ele>326</ele>
        <time>2011-03-26T16:09:50Z</time>
      </trkpt>
      <trkpt lat="44.05709" lon="2.09871">
        <ele>323</ele>
        <time>2011-03-26T16:09:53Z</time>
      </trkpt>
      <trkpt lat="44.05712" lon="2.09868">
        <ele>323</ele>
        <time>2011-03-26T16:09:54Z</time>
      </trkpt>
      <trkpt lat="44.05715" lon="2.09865">
        <ele>323</ele>
        <time>2011-03-26T16:09:55Z</time>
      </trkpt>
      <trkpt lat="44.05719" lon="2.09862">
        <ele>323</ele>
        <time>2011-03-26T16:09:56Z</time>
      </trkpt>
      <trkpt lat="44.05722" lon="2.09859">
        <ele>323</ele>
        <time>2011-03-26T16:09:57Z</time>
      </trkpt>
      <trkpt lat="44.05725" lon="2.09856">
        <ele>323</ele>
        <time>2011-03-26T16:09:58Z</time>
      </trkpt>
      <trkpt lat="44.05728" lon="2.09852">
        <ele>323</ele>
        <time>2011-03-26T16:09:59Z</time>
      </trkpt>
      <trkpt lat="44.05732" lon="2.09848">
        <ele>323</ele>
        <time>2011-03-26T16:10:00Z</time>
      </trkpt>
      <trkpt lat="44.05735" lon="2.09844">
        <ele>323</ele>
        <time>2011-03-26T16:10:01Z</time>
      </trkpt>
      <trkpt lat="44.05738" lon="2.09841">
        <ele>323</ele>
        <time>2011-03-26T16:10:02Z</time>
      </trkpt>
      <trkpt lat="44.05742" lon="2.09837">
        <ele>323</ele>
        <time>2011-03-26T16:10:03Z</time>
      </trkpt>
      <trkpt lat="44.05746" lon="2.09834">
        <ele>323</ele>
        <time>2011-03-26T16:10:04Z</time>
      </trkpt>
      <trkpt lat="44.05749" lon="2.09831">
        <ele>323</ele>
        <time>2011-03-26T16:10:05Z</time>
      </trkpt>
      <trkpt lat="44.05752" lon="2.09826">
        <ele>323</ele>
        <time>2011-03-26T16:10:06Z</time>
      </trkpt>
      <trkpt lat="44.05755" lon="2.09822">
        <ele>323</ele>
        <time>2011-03-26T16:10:07Z</time>
      </trkpt>
      <trkpt lat="44.05759" lon="2.09818">
        <ele>323</ele>
        <time>2011-03-26T16:10:08Z</time>
      </trkpt>
      <trkpt lat="44.05763" lon="2.09813">
        <ele>323</ele>
        <time>2011-03-26T16:10:09Z</time>
      </trkpt>
      <trkpt lat="44.05768" lon="2.09809">
        <ele>323</ele>
        <time>2011-03-26T16:10:10Z</time>
      </trkpt>
      <trkpt lat="44.05772" lon="2.09804">
        <ele>323</ele>
        <time>2011-03-26T16:10:11Z</time>
      </trkpt>
      <trkpt lat="44.05776" lon="2.09799">
        <ele>323</ele>
        <time>2011-03-26T16:10:12Z</time>
      </trkpt>
      <trkpt lat="44.0578" lon="2.09795">
        <ele>323</ele>
        <time>2011-03-26T16:10:13Z</time>
      </trkpt>
      <trkpt lat="44.05785" lon="2.09792">
        <ele>323</ele>
        <time>2011-03-26T16:10:14Z</time>
      </trkpt>
      <trkpt lat="44.05789" lon="2.09788">
        <ele>320</ele>
        <time>2011-03-26T16:10:15Z</time>
      </trkpt>
      <trkpt lat="44.05794" lon="2.09784">
        <ele>319</ele>
        <time>2011-03-26T16:10:16Z</time>
      </trkpt>
      <trkpt lat="44.05799" lon="2.0978">
        <ele>319</ele>
        <time>2011-03-26T16:10:17Z</time>
      </trkpt>
      <trkpt lat="44.05805" lon="2.09776">
        <ele>319</ele>
        <time>2011-03-26T16:10:18Z</time>
      </trkpt>
      <trkpt lat="44.0581" lon="2.09771">
        <ele>319</ele>
        <time>2011-03-26T16:10:19Z</time>
      </trkpt>
      <trkpt lat="44.05814" lon="2.09767">
        <ele>319</ele>
        <time>2011-03-26T16:10:20Z</time>
      </trkpt>
      <trkpt lat="44.05819" lon="2.09764">
        <ele>319</ele>
        <time>2011-03-26T16:10:21Z</time>
      </trkpt>
      <trkpt lat="44.05823" lon="2.0976">
        <ele>319</ele>
        <time>2011-03-26T16:10:22Z</time>
      </trkpt>
      <trkpt lat="44.05827" lon="2.09757">
        <ele>319</ele>
        <time>2011-03-26T16:10:23Z</time>
      </trkpt>
      <trkpt lat="44.05831" lon="2.09752">
        <ele>319</ele>
        <time>2011-03-26T16:10:24Z</time>
      </trkpt>
      <trkpt lat="44.05835" lon="2.09749">
        <ele>319</ele>
        <time>2011-03-26T16:10:25Z</time>
      </trkpt>
      <trkpt lat="44.05839" lon="2.09746">
        <ele>319</ele>
        <time>2011-03-26T16:10:26Z</time>
      </trkpt>
      <trkpt lat="44.05844" lon="2.09743">
        <ele>319</ele>
        <time>2011-03-26T16:10:27Z</time>
      </trkpt>
      <trkpt lat="44.0585" lon="2.09739">
        <ele>319</ele>
        <time>2011-03-26T16:10:28Z</time>
      </trkpt>
      <trkpt lat="44.05856" lon="2.09736">
        <ele>319</ele>
        <time>2011-03-26T16:10:29Z</time>
      </trkpt>
      <trkpt lat="44.05863" lon="2.09732">
        <ele>319</ele>
        <time>2011-03-26T16:10:30Z</time>
      </trkpt>
      <trkpt lat="44.05869" lon="2.09729">
        <ele>319</ele>
        <time>2011-03-26T16:10:31Z</time>
      </trkpt>
      <trkpt lat="44.05876" lon="2.09725">
        <ele>316</ele>
        <time>2011-03-26T16:10:32Z</time>
      </trkpt>
      <trkpt lat="44.05882" lon="2.09724">
        <ele>316</ele>
        <time>2011-03-26T16:10:33Z</time>
      </trkpt>
      <trkpt lat="44.05888" lon="2.09723">
        <ele>316</ele>
        <time>2011-03-26T16:10:34Z</time>
      </trkpt>
      <trkpt lat="44.05893" lon="2.09721">
        <ele>316</ele>
        <time>2011-03-26T16:10:35Z</time>
      </trkpt>
      <trkpt lat="44.05898" lon="2.09719">
        <ele>316</ele>
        <time>2011-03-26T16:10:36Z</time>
      </trkpt>
      <trkpt lat="44.05908" lon="2.09706">
        <ele>319</ele>
        <time>2011-03-26T16:10:39Z</time>
      </trkpt>
      <trkpt lat="44.05911" lon="2.09701">
        <ele>319</ele>
        <time>2011-03-26T16:10:40Z</time>
      </trkpt>
      <trkpt lat="44.05914" lon="2.09698">
        <ele>319</ele>
        <time>2011-03-26T16:10:41Z</time>
      </trkpt>
      <trkpt lat="44.05916" lon="2.09694">
        <ele>319</ele>
        <time>2011-03-26T16:10:42Z</time>
      </trkpt>
      <trkpt lat="44.05919" lon="2.09689">
        <ele>319</ele>
        <time>2011-03-26T16:10:43Z</time>
      </trkpt>
      <trkpt lat="44.05922" lon="2.09683">
        <ele>319</ele>
        <time>2011-03-26T16:10:44Z</time>
      </trkpt>
      <trkpt lat="44.05926" lon="2.09678">
        <ele>319</ele>
        <time>2011-03-26T16:10:45Z</time>
      </trkpt>
      <trkpt lat="44.0593" lon="2.09672">
        <ele>319</ele>
        <time>2011-03-26T16:10:46Z</time>
      </trkpt>
      <trkpt lat="44.05933" lon="2.09666">
        <ele>319</ele>
        <time>2011-03-26T16:10:47Z</time>
      </trkpt>
      <trkpt lat="44.05937" lon="2.0966">
        <ele>319</ele>
        <time>2011-03-26T16:10:48Z</time>
      </trkpt>
      <trkpt lat="44.0594" lon="2.09654">
        <ele>319</ele>
        <time>2011-03-26T16:10:49Z</time>
      </trkpt>
      <trkpt lat="44.05943" lon="2.09648">
        <ele>319</ele>
        <time>2011-03-26T16:10:50Z</time>
      </trkpt>
      <trkpt lat="44.05945" lon="2.09642">
        <ele>319</ele>
        <time>2011-03-26T16:10:51Z</time>
      </trkpt>
      <trkpt lat="44.05946" lon="2.09636">
        <ele>319</ele>
        <time>2011-03-26T16:10:52Z</time>
      </trkpt>
      <trkpt lat="44.05948" lon="2.0963">
        <ele>319</ele>
        <time>2011-03-26T16:10:53Z</time>
      </trkpt>
      <trkpt lat="44.05949" lon="2.09624">
        <ele>313</ele>
        <time>2011-03-26T16:10:54Z</time>
      </trkpt>
      <trkpt lat="44.05951" lon="2.09618">
        <ele>313</ele>
        <time>2011-03-26T16:10:55Z</time>
      </trkpt>
      <trkpt lat="44.05952" lon="2.09612">
        <ele>313</ele>
        <time>2011-03-26T16:10:56Z</time>
      </trkpt>
      <trkpt lat="44.05954" lon="2.09606">
        <ele>313</ele>
        <time>2011-03-26T16:10:57Z</time>
      </trkpt>
      <trkpt lat="44.05955" lon="2.096">
        <ele>313</ele>
        <time>2011-03-26T16:10:58Z</time>
      </trkpt>
      <trkpt lat="44.05957" lon="2.09594">
        <ele>313</ele>
        <time>2011-03-26T16:10:59Z</time>
      </trkpt>
      <trkpt lat="44.05959" lon="2.09588">
        <ele>323</ele>
        <time>2011-03-26T16:11:00Z</time>
      </trkpt>
      <trkpt lat="44.05961" lon="2.09582">
        <ele>323</ele>
        <time>2011-03-26T16:11:01Z</time>
      </trkpt>
      <trkpt lat="44.05962" lon="2.09576">
        <ele>323</ele>
        <time>2011-03-26T16:11:02Z</time>
      </trkpt>
      <trkpt lat="44.05964" lon="2.09571">
        <ele>323</ele>
        <time>2011-03-26T16:11:03Z</time>
      </trkpt>
      <trkpt lat="44.05966" lon="2.09565">
        <ele>323</ele>
        <time>2011-03-26T16:11:04Z</time>
      </trkpt>
      <trkpt lat="44.05968" lon="2.0956">
        <ele>323</ele>
        <time>2011-03-26T16:11:05Z</time>
      </trkpt>
      <trkpt lat="44.0597" lon="2.09555">
        <ele>323</ele>
        <time>2011-03-26T16:11:06Z</time>
      </trkpt>
      <trkpt lat="44.05972" lon="2.09551">
        <ele>323</ele>
        <time>2011-03-26T16:11:07Z</time>
      </trkpt>
      <trkpt lat="44.05974" lon="2.09547">
        <ele>323</ele>
        <time>2011-03-26T16:11:08Z</time>
      </trkpt>
      <trkpt lat="44.05977" lon="2.09543">
        <ele>323</ele>
        <time>2011-03-26T16:11:09Z</time>
      </trkpt>
      <trkpt lat="44.0598" lon="2.0954">
        <ele>318</ele>
        <time>2011-03-26T16:11:10Z</time>
      </trkpt>
      <trkpt lat="44.05983" lon="2.09537">
        <ele>318</ele>
        <time>2011-03-26T16:11:11Z</time>
      </trkpt>
      <trkpt lat="44.05985" lon="2.09533">
        <ele>318</ele>
        <time>2011-03-26T16:11:12Z</time>
      </trkpt>
      <trkpt lat="44.05988" lon="2.0953">
        <ele>318</ele>
        <time>2011-03-26T16:11:13Z</time>
      </trkpt>
      <trkpt lat="44.0599" lon="2.09527">
        <ele>318</ele>
        <time>2011-03-26T16:11:14Z</time>
      </trkpt>
      <trkpt lat="44.05993" lon="2.09524">
        <ele>318</ele>
        <time>2011-03-26T16:11:15Z</time>
      </trkpt>
      <trkpt lat="44.05995" lon="2.09522">
        <ele>318</ele>
        <time>2011-03-26T16:11:16Z</time>
      </trkpt>
      <trkpt lat="44.05997" lon="2.09519">
        <ele>318</ele>
        <time>2011-03-26T16:11:17Z</time>
      </trkpt>
      <trkpt lat="44.05999" lon="2.09517">
        <ele>318</ele>
        <time>2011-03-26T16:11:18Z</time>
      </trkpt>
      <trkpt lat="44.06001" lon="2.09512">
        <ele>318</ele>
        <time>2011-03-26T16:11:20Z</time>
      </trkpt>
      <trkpt lat="44.06003" lon="2.09509">
        <ele>318</ele>
        <time>2011-03-26T16:11:22Z</time>
      </trkpt>
      <trkpt lat="44.06005" lon="2.09506">
        <ele>318</ele>
        <time>2011-03-26T16:11:24Z</time>
      </trkpt>
      <trkpt lat="44.06008" lon="2.09503">
        <ele>318</ele>
        <time>2011-03-26T16:11:26Z</time>
      </trkpt>
      <trkpt lat="44.0601" lon="2.09499">
        <ele>318</ele>
        <time>2011-03-26T16:11:28Z</time>
      </trkpt>
      <trkpt lat="44.06012" lon="2.09496">
        <ele>318</ele>
        <time>2011-03-26T16:11:30Z</time>
      </trkpt>
      <trkpt lat="44.06014" lon="2.09493">
        <ele>318</ele>
        <time>2011-03-26T16:11:32Z</time>
      </trkpt>
      <trkpt lat="44.06016" lon="2.09492">
        <ele>318</ele>
        <time>2011-03-26T16:11:34Z</time>
      </trkpt>
      <trkpt lat="44.06021" lon="2.0949">
        <ele>318</ele>
        <time>2011-03-26T16:11:41Z</time>
      </trkpt>
      <trkpt lat="44.06027" lon="2.09496">
        <ele>318</ele>
        <time>2011-03-26T16:12:03Z</time>
      </trkpt>
      <trkpt lat="44.06029" lon="2.09502">
        <ele>318</ele>
        <time>2011-03-26T16:12:17Z</time>
      </trkpt>
      <trkpt lat="44.06026" lon="2.09506">
        <ele>318</ele>
        <time>2011-03-26T16:12:22Z</time>
      </trkpt>
      <trkpt lat="44.06021" lon="2.09508">
        <ele>318</ele>
        <time>2011-03-26T16:12:26Z</time>
      </trkpt>
      <trkpt lat="44.06018" lon="2.09511">
        <ele>318</ele>
        <time>2011-03-26T16:12:31Z</time>
      </trkpt>
      <trkpt lat="44.06013" lon="2.09513">
        <ele>318</ele>
        <time>2011-03-26T16:12:39Z</time>
      </trkpt>
      <trkpt lat="44.0601" lon="2.09517">
        <ele>318</ele>
        <time>2011-03-26T16:13:35Z</time>
      </trkpt>
      <trkpt lat="44.06005" lon="2.0952">
        <ele>318</ele>
        <time>2011-03-26T16:13:39Z</time>
      </trkpt>
      <trkpt lat="44.06005" lon="2.0952">
        <ele>318</ele>
        <time>2011-03-26T16:13:40Z</time>
      </trkpt>
    </trkseg>
  </trk>
</gpx>